<?xml version="1.0" encoding="UTF-8" standalone="no" ?>
<gpx xmlns="http://www.topografix.com/GPX/1/1" xmlns:xsi="http://www.w3.org/2001/XMLSchema-instance" xsi:schemaLocation="http://www.topografix.com/GPX/1/1 http://www.topografix.com/GPX/1/1/gpx.xsd" version="1.1" creator="VisuGPX - https://www.visugpx.com">
  <metadata>
    <name>VOIE d'ARLES : ETAPE 2 : MONTARNAUD a ST-GUILHEM</name>
    <desc><![CDATA[24 mai 2023 : Etape n°2  du Chemin de Compostelle dit Voie d'Arles ou VIA TOLOSONA
Pas de difficulté particuliére , si ce n'est qu'en cas d'orage , aucun abri !
Trois éléments remarquables :
* le parcours sur une ancienne voie ferrée entre La Boissière et Aniane
* le célèbre PONT du DIABLE 
* le parcours sur sentier piétonnier le long des gorges de l' HERAULT
Et bien sur , à l'arrivée, visite du village , de l' abbaye et de son magnifique cloître.
Fin Mai - Début Juin , pas beaucoup de touristes à St--Guilhem. 
mais Juillet-Aout , à éviter , c'est la foule ! 
Le randonneur qui voyage léger pourra manger le midi à Aniane ou dans l' Etablissement de  l'immense parking juste avant le Pont du Diable. 
Notre récit complet avec photos : [url]http://www.chabant.fr[/url] ]]></desc>
  </metadata>
  <trk>
    <name><![CDATA[Montarnaud Course à pied]]></name>
    <extensions>
      <line xmlns="http://www.topografix.com/GPX/gpx_style/0/2">
        <color>0000FF</color>
        <width>4</width>
      </line>
    </extensions>
    <trkseg>
      <trkpt lat="43.64852" lon="3.70055">
        <ele>126.19999694824</ele>
        <time>2023-05-24T05:13:19.000Z</time>
      </trkpt>
      <trkpt lat="43.64853" lon="3.70055">
        <ele>126</ele>
        <time>2023-05-24T05:13:27.000Z</time>
      </trkpt>
      <trkpt lat="43.64855" lon="3.70058">
        <ele>125.19999694824</ele>
        <time>2023-05-24T05:13:34.000Z</time>
      </trkpt>
      <trkpt lat="43.64859" lon="3.70061">
        <ele>123.80000305176</ele>
        <time>2023-05-24T05:13:38.000Z</time>
      </trkpt>
      <trkpt lat="43.64861" lon="3.70062">
        <ele>123.59999847412</ele>
        <time>2023-05-24T05:13:41.000Z</time>
      </trkpt>
      <trkpt lat="43.64863" lon="3.70061">
        <ele>123.59999847412</ele>
        <time>2023-05-24T05:13:46.000Z</time>
      </trkpt>
      <trkpt lat="43.64866" lon="3.70061">
        <ele>123.59999847412</ele>
        <time>2023-05-24T05:13:52.000Z</time>
      </trkpt>
      <trkpt lat="43.64872" lon="3.70055">
        <ele>123.40000152588</ele>
        <time>2023-05-24T05:14:00.000Z</time>
      </trkpt>
      <trkpt lat="43.64875" lon="3.70051">
        <ele>123</ele>
        <time>2023-05-24T05:14:06.000Z</time>
      </trkpt>
      <trkpt lat="43.64879" lon="3.70045">
        <ele>123.59999847412</ele>
        <time>2023-05-24T05:14:12.000Z</time>
      </trkpt>
      <trkpt lat="43.64885" lon="3.70037">
        <ele>123.59999847412</ele>
        <time>2023-05-24T05:14:19.000Z</time>
      </trkpt>
      <trkpt lat="43.64889" lon="3.70031">
        <ele>123.59999847412</ele>
        <time>2023-05-24T05:14:24.000Z</time>
      </trkpt>
      <trkpt lat="43.6489" lon="3.70029">
        <ele>123.59999847412</ele>
        <time>2023-05-24T05:14:26.000Z</time>
      </trkpt>
      <trkpt lat="43.64897" lon="3.70019">
        <ele>123.80000305176</ele>
        <time>2023-05-24T05:14:34.000Z</time>
      </trkpt>
      <trkpt lat="43.64901" lon="3.70014">
        <ele>123.80000305176</ele>
        <time>2023-05-24T05:14:38.000Z</time>
      </trkpt>
      <trkpt lat="43.64903" lon="3.70013">
        <ele>123.80000305176</ele>
        <time>2023-05-24T05:14:40.000Z</time>
      </trkpt>
      <trkpt lat="43.64903" lon="3.70009">
        <ele>123.80000305176</ele>
        <time>2023-05-24T05:14:44.000Z</time>
      </trkpt>
      <trkpt lat="43.64906" lon="3.70003">
        <ele>123.80000305176</ele>
        <time>2023-05-24T05:14:48.000Z</time>
      </trkpt>
      <trkpt lat="43.64906" lon="3.70001">
        <ele>123.80000305176</ele>
        <time>2023-05-24T05:14:49.000Z</time>
      </trkpt>
      <trkpt lat="43.64908" lon="3.69998">
        <ele>123.80000305176</ele>
        <time>2023-05-24T05:14:52.000Z</time>
      </trkpt>
      <trkpt lat="43.64912" lon="3.69991">
        <ele>124</ele>
        <time>2023-05-24T05:14:57.000Z</time>
      </trkpt>
      <trkpt lat="43.64917" lon="3.69981">
        <ele>124.19999694824</ele>
        <time>2023-05-24T05:15:04.000Z</time>
      </trkpt>
      <trkpt lat="43.64921" lon="3.69968">
        <ele>124.40000152588</ele>
        <time>2023-05-24T05:15:13.000Z</time>
      </trkpt>
      <trkpt lat="43.64924" lon="3.6996">
        <ele>124.40000152588</ele>
        <time>2023-05-24T05:15:21.000Z</time>
      </trkpt>
      <trkpt lat="43.64926" lon="3.69954">
        <ele>124.59999847412</ele>
        <time>2023-05-24T05:15:26.000Z</time>
      </trkpt>
      <trkpt lat="43.64929" lon="3.69946">
        <ele>124.59999847412</ele>
        <time>2023-05-24T05:15:33.000Z</time>
      </trkpt>
      <trkpt lat="43.6493" lon="3.69945">
        <ele>124.59999847412</ele>
        <time>2023-05-24T05:15:34.000Z</time>
      </trkpt>
      <trkpt lat="43.64931" lon="3.6994">
        <ele>124.80000305176</ele>
        <time>2023-05-24T05:15:38.000Z</time>
      </trkpt>
      <trkpt lat="43.64932" lon="3.69937">
        <ele>124.80000305176</ele>
        <time>2023-05-24T05:15:40.000Z</time>
      </trkpt>
      <trkpt lat="43.64934" lon="3.69931">
        <ele>124.80000305176</ele>
        <time>2023-05-24T05:15:44.000Z</time>
      </trkpt>
      <trkpt lat="43.64934" lon="3.6993">
        <ele>124.80000305176</ele>
        <time>2023-05-24T05:15:50.000Z</time>
      </trkpt>
      <trkpt lat="43.64936" lon="3.69923">
        <ele>124.80000305176</ele>
        <time>2023-05-24T05:15:57.000Z</time>
      </trkpt>
      <trkpt lat="43.64939" lon="3.69908">
        <ele>125</ele>
        <time>2023-05-24T05:16:06.000Z</time>
      </trkpt>
      <trkpt lat="43.6494" lon="3.69905">
        <ele>125</ele>
        <time>2023-05-24T05:16:08.000Z</time>
      </trkpt>
      <trkpt lat="43.64941" lon="3.699">
        <ele>125</ele>
        <time>2023-05-24T05:16:12.000Z</time>
      </trkpt>
      <trkpt lat="43.64943" lon="3.69895">
        <ele>125</ele>
        <time>2023-05-24T05:16:15.000Z</time>
      </trkpt>
      <trkpt lat="43.64945" lon="3.69887">
        <ele>125</ele>
        <time>2023-05-24T05:16:20.000Z</time>
      </trkpt>
      <trkpt lat="43.64945" lon="3.69885">
        <ele>124.80000305176</ele>
        <time>2023-05-24T05:16:21.000Z</time>
      </trkpt>
      <trkpt lat="43.64947" lon="3.69879">
        <ele>124.80000305176</ele>
        <time>2023-05-24T05:16:25.000Z</time>
      </trkpt>
      <trkpt lat="43.64948" lon="3.69877">
        <ele>124.80000305176</ele>
        <time>2023-05-24T05:16:26.000Z</time>
      </trkpt>
      <trkpt lat="43.64949" lon="3.69866">
        <ele>124.80000305176</ele>
        <time>2023-05-24T05:16:32.000Z</time>
      </trkpt>
      <trkpt lat="43.64949" lon="3.69864">
        <ele>125</ele>
        <time>2023-05-24T05:16:36.000Z</time>
      </trkpt>
      <trkpt lat="43.64949" lon="3.69862">
        <ele>125</ele>
        <time>2023-05-24T05:16:37.000Z</time>
      </trkpt>
      <trkpt lat="43.64947" lon="3.69855">
        <ele>125</ele>
        <time>2023-05-24T05:16:41.000Z</time>
      </trkpt>
      <trkpt lat="43.64947" lon="3.69852">
        <ele>125</ele>
        <time>2023-05-24T05:16:43.000Z</time>
      </trkpt>
      <trkpt lat="43.64946" lon="3.6985">
        <ele>125.19999694824</ele>
        <time>2023-05-24T05:16:44.000Z</time>
      </trkpt>
      <trkpt lat="43.64944" lon="3.69847">
        <ele>125.19999694824</ele>
        <time>2023-05-24T05:16:47.000Z</time>
      </trkpt>
      <trkpt lat="43.64935" lon="3.6984">
        <ele>125.59999847412</ele>
        <time>2023-05-24T05:16:54.000Z</time>
      </trkpt>
      <trkpt lat="43.64931" lon="3.69836">
        <ele>126</ele>
        <time>2023-05-24T05:16:59.000Z</time>
      </trkpt>
      <trkpt lat="43.6493" lon="3.69835">
        <ele>126</ele>
        <time>2023-05-24T05:17:00.000Z</time>
      </trkpt>
      <trkpt lat="43.64929" lon="3.69834">
        <ele>126.19999694824</ele>
        <time>2023-05-24T05:17:02.000Z</time>
      </trkpt>
      <trkpt lat="43.64928" lon="3.69827">
        <ele>126.19999694824</ele>
        <time>2023-05-24T05:17:07.000Z</time>
      </trkpt>
      <trkpt lat="43.64927" lon="3.69823">
        <ele>126.59999847412</ele>
        <time>2023-05-24T05:17:11.000Z</time>
      </trkpt>
      <trkpt lat="43.64928" lon="3.69821">
        <ele>126.80000305176</ele>
        <time>2023-05-24T05:17:13.000Z</time>
      </trkpt>
      <trkpt lat="43.64927" lon="3.69818">
        <ele>127</ele>
        <time>2023-05-24T05:17:16.000Z</time>
      </trkpt>
      <trkpt lat="43.64926" lon="3.69813">
        <ele>127.19999694824</ele>
        <time>2023-05-24T05:17:20.000Z</time>
      </trkpt>
      <trkpt lat="43.64923" lon="3.69805">
        <ele>127.59999847412</ele>
        <time>2023-05-24T05:17:26.000Z</time>
      </trkpt>
      <trkpt lat="43.64922" lon="3.69803">
        <ele>127.80000305176</ele>
        <time>2023-05-24T05:17:30.000Z</time>
      </trkpt>
      <trkpt lat="43.64921" lon="3.698">
        <ele>127.80000305176</ele>
        <time>2023-05-24T05:17:32.000Z</time>
      </trkpt>
      <trkpt lat="43.64921" lon="3.69793">
        <ele>128</ele>
        <time>2023-05-24T05:17:37.000Z</time>
      </trkpt>
      <trkpt lat="43.64921" lon="3.69792">
        <ele>128</ele>
        <time>2023-05-24T05:17:38.000Z</time>
      </trkpt>
      <trkpt lat="43.64921" lon="3.69784">
        <ele>128.39999389648</ele>
        <time>2023-05-24T05:17:44.000Z</time>
      </trkpt>
      <trkpt lat="43.64921" lon="3.69777">
        <ele>129</ele>
        <time>2023-05-24T05:17:49.000Z</time>
      </trkpt>
      <trkpt lat="43.64921" lon="3.69776">
        <ele>129.19999694824</ele>
        <time>2023-05-24T05:17:50.000Z</time>
      </trkpt>
      <trkpt lat="43.64921" lon="3.69775">
        <ele>129.19999694824</ele>
        <time>2023-05-24T05:17:51.000Z</time>
      </trkpt>
      <trkpt lat="43.64923" lon="3.69768">
        <ele>129.80000305176</ele>
        <time>2023-05-24T05:17:56.000Z</time>
      </trkpt>
      <trkpt lat="43.64924" lon="3.69766">
        <ele>130</ele>
        <time>2023-05-24T05:17:58.000Z</time>
      </trkpt>
      <trkpt lat="43.64924" lon="3.69765">
        <ele>130</ele>
        <time>2023-05-24T05:17:59.000Z</time>
      </trkpt>
      <trkpt lat="43.64926" lon="3.69756">
        <ele>130.80000305176</ele>
        <time>2023-05-24T05:18:06.000Z</time>
      </trkpt>
      <trkpt lat="43.64926" lon="3.69753">
        <ele>131.19999694824</ele>
        <time>2023-05-24T05:18:08.000Z</time>
      </trkpt>
      <trkpt lat="43.64927" lon="3.69752">
        <ele>131.19999694824</ele>
        <time>2023-05-24T05:18:09.000Z</time>
      </trkpt>
      <trkpt lat="43.64928" lon="3.69749">
        <ele>131.60000610352</ele>
        <time>2023-05-24T05:18:12.000Z</time>
      </trkpt>
      <trkpt lat="43.64928" lon="3.69746">
        <ele>131.80000305176</ele>
        <time>2023-05-24T05:18:14.000Z</time>
      </trkpt>
      <trkpt lat="43.64928" lon="3.69743">
        <ele>132.19999694824</ele>
        <time>2023-05-24T05:18:17.000Z</time>
      </trkpt>
      <trkpt lat="43.64929" lon="3.69742">
        <ele>132.19999694824</ele>
        <time>2023-05-24T05:18:18.000Z</time>
      </trkpt>
      <trkpt lat="43.64929" lon="3.69738">
        <ele>132.80000305176</ele>
        <time>2023-05-24T05:18:22.000Z</time>
      </trkpt>
      <trkpt lat="43.6493" lon="3.69733">
        <ele>133</ele>
        <time>2023-05-24T05:18:26.000Z</time>
      </trkpt>
      <trkpt lat="43.6493" lon="3.69732">
        <ele>133.19999694824</ele>
        <time>2023-05-24T05:18:27.000Z</time>
      </trkpt>
      <trkpt lat="43.6493" lon="3.69731">
        <ele>133.19999694824</ele>
        <time>2023-05-24T05:18:28.000Z</time>
      </trkpt>
      <trkpt lat="43.6493" lon="3.69727">
        <ele>133.80000305176</ele>
        <time>2023-05-24T05:18:33.000Z</time>
      </trkpt>
      <trkpt lat="43.64932" lon="3.69722">
        <ele>134.19999694824</ele>
        <time>2023-05-24T05:18:40.000Z</time>
      </trkpt>
      <trkpt lat="43.64932" lon="3.69721">
        <ele>134.19999694824</ele>
        <time>2023-05-24T05:18:41.000Z</time>
      </trkpt>
      <trkpt lat="43.64936" lon="3.69718">
        <ele>134.80000305176</ele>
        <time>2023-05-24T05:18:47.000Z</time>
      </trkpt>
      <trkpt lat="43.64936" lon="3.69715">
        <ele>135.39999389648</ele>
        <time>2023-05-24T05:18:50.000Z</time>
      </trkpt>
      <trkpt lat="43.64937" lon="3.69712">
        <ele>136</ele>
        <time>2023-05-24T05:18:54.000Z</time>
      </trkpt>
      <trkpt lat="43.64937" lon="3.6971">
        <ele>136.39999389648</ele>
        <time>2023-05-24T05:18:57.000Z</time>
      </trkpt>
      <trkpt lat="43.64936" lon="3.69707">
        <ele>137.19999694824</ele>
        <time>2023-05-24T05:19:02.000Z</time>
      </trkpt>
      <trkpt lat="43.64936" lon="3.69705">
        <ele>137.39999389648</ele>
        <time>2023-05-24T05:19:04.000Z</time>
      </trkpt>
      <trkpt lat="43.64937" lon="3.69703">
        <ele>138</ele>
        <time>2023-05-24T05:19:09.000Z</time>
      </trkpt>
      <trkpt lat="43.64939" lon="3.69699">
        <ele>138.39999389648</ele>
        <time>2023-05-24T05:19:13.000Z</time>
      </trkpt>
      <trkpt lat="43.6494" lon="3.69696">
        <ele>138.60000610352</ele>
        <time>2023-05-24T05:19:16.000Z</time>
      </trkpt>
      <trkpt lat="43.6494" lon="3.69695">
        <ele>139.60000610352</ele>
        <time>2023-05-24T05:19:21.000Z</time>
      </trkpt>
      <trkpt lat="43.6494" lon="3.69694">
        <ele>139.80000305176</ele>
        <time>2023-05-24T05:19:23.000Z</time>
      </trkpt>
      <trkpt lat="43.64944" lon="3.69685">
        <ele>139.80000305176</ele>
        <time>2023-05-24T05:19:31.000Z</time>
      </trkpt>
      <trkpt lat="43.64947" lon="3.69678">
        <ele>139.19999694824</ele>
        <time>2023-05-24T05:19:38.000Z</time>
      </trkpt>
      <trkpt lat="43.64948" lon="3.69678">
        <ele>139</ele>
        <time>2023-05-24T05:19:39.000Z</time>
      </trkpt>
      <trkpt lat="43.64949" lon="3.69676">
        <ele>138.39999389648</ele>
        <time>2023-05-24T05:19:44.000Z</time>
      </trkpt>
      <trkpt lat="43.64949" lon="3.69676">
        <ele>138.39999389648</ele>
        <time>2023-05-24T05:19:45.000Z</time>
      </trkpt>
      <trkpt lat="43.64952" lon="3.6967">
        <ele>137.39999389648</ele>
        <time>2023-05-24T05:19:51.000Z</time>
      </trkpt>
      <trkpt lat="43.64957" lon="3.69667">
        <ele>136.39999389648</ele>
        <time>2023-05-24T05:19:56.000Z</time>
      </trkpt>
      <trkpt lat="43.64957" lon="3.69667">
        <ele>136.19999694824</ele>
        <time>2023-05-24T05:19:57.000Z</time>
      </trkpt>
      <trkpt lat="43.64963" lon="3.69664">
        <ele>135.39999389648</ele>
        <time>2023-05-24T05:20:03.000Z</time>
      </trkpt>
      <trkpt lat="43.64964" lon="3.69663">
        <ele>135.19999694824</ele>
        <time>2023-05-24T05:20:04.000Z</time>
      </trkpt>
      <trkpt lat="43.64966" lon="3.69661">
        <ele>134</ele>
        <time>2023-05-24T05:20:08.000Z</time>
      </trkpt>
      <trkpt lat="43.64966" lon="3.69661">
        <ele>133.80000305176</ele>
        <time>2023-05-24T05:20:09.000Z</time>
      </trkpt>
      <trkpt lat="43.64965" lon="3.69662">
        <ele>133.19999694824</ele>
        <time>2023-05-24T05:20:14.000Z</time>
      </trkpt>
      <trkpt lat="43.64965" lon="3.69664">
        <ele>133.19999694824</ele>
        <time>2023-05-24T05:20:24.000Z</time>
      </trkpt>
      <trkpt lat="43.64965" lon="3.69664">
        <ele>133</ele>
        <time>2023-05-24T05:20:25.000Z</time>
      </trkpt>
      <trkpt lat="43.64966" lon="3.69663">
        <ele>133</ele>
        <time>2023-05-24T05:20:33.000Z</time>
      </trkpt>
      <trkpt lat="43.64968" lon="3.69657">
        <ele>133.19999694824</ele>
        <time>2023-05-24T05:20:39.000Z</time>
      </trkpt>
      <trkpt lat="43.64969" lon="3.69652">
        <ele>133.60000610352</ele>
        <time>2023-05-24T05:20:44.000Z</time>
      </trkpt>
      <trkpt lat="43.6497" lon="3.69648">
        <ele>134</ele>
        <time>2023-05-24T05:20:47.000Z</time>
      </trkpt>
      <trkpt lat="43.6497" lon="3.69645">
        <ele>134</ele>
        <time>2023-05-24T05:20:50.000Z</time>
      </trkpt>
      <trkpt lat="43.6497" lon="3.69644">
        <ele>134.19999694824</ele>
        <time>2023-05-24T05:20:51.000Z</time>
      </trkpt>
      <trkpt lat="43.64971" lon="3.69636">
        <ele>134.60000610352</ele>
        <time>2023-05-24T05:20:56.000Z</time>
      </trkpt>
      <trkpt lat="43.64971" lon="3.69634">
        <ele>134.60000610352</ele>
        <time>2023-05-24T05:20:57.000Z</time>
      </trkpt>
      <trkpt lat="43.64971" lon="3.69632">
        <ele>134.80000305176</ele>
        <time>2023-05-24T05:20:58.000Z</time>
      </trkpt>
      <trkpt lat="43.6497" lon="3.6963">
        <ele>135</ele>
        <time>2023-05-24T05:21:00.000Z</time>
      </trkpt>
      <trkpt lat="43.6497" lon="3.69629">
        <ele>135</ele>
        <time>2023-05-24T05:21:03.000Z</time>
      </trkpt>
      <trkpt lat="43.6497" lon="3.69629">
        <ele>135</ele>
        <time>2023-05-24T05:21:04.000Z</time>
      </trkpt>
      <trkpt lat="43.64971" lon="3.69628">
        <ele>135.19999694824</ele>
        <time>2023-05-24T05:21:13.000Z</time>
      </trkpt>
      <trkpt lat="43.6497" lon="3.69625">
        <ele>135.19999694824</ele>
        <time>2023-05-24T05:21:20.000Z</time>
      </trkpt>
      <trkpt lat="43.64971" lon="3.6962">
        <ele>135.19999694824</ele>
        <time>2023-05-24T05:21:25.000Z</time>
      </trkpt>
      <trkpt lat="43.64969" lon="3.6961">
        <ele>135.60000610352</ele>
        <time>2023-05-24T05:21:32.000Z</time>
      </trkpt>
      <trkpt lat="43.64967" lon="3.69605">
        <ele>135.60000610352</ele>
        <time>2023-05-24T05:21:36.000Z</time>
      </trkpt>
      <trkpt lat="43.64966" lon="3.69601">
        <ele>135.60000610352</ele>
        <time>2023-05-24T05:21:38.000Z</time>
      </trkpt>
      <trkpt lat="43.64963" lon="3.69592">
        <ele>135.39999389648</ele>
        <time>2023-05-24T05:21:44.000Z</time>
      </trkpt>
      <trkpt lat="43.64963" lon="3.69583">
        <ele>134.80000305176</ele>
        <time>2023-05-24T05:21:51.000Z</time>
      </trkpt>
      <trkpt lat="43.64962" lon="3.69577">
        <ele>134</ele>
        <time>2023-05-24T05:21:56.000Z</time>
      </trkpt>
      <trkpt lat="43.64962" lon="3.69576">
        <ele>134</ele>
        <time>2023-05-24T05:21:57.000Z</time>
      </trkpt>
      <trkpt lat="43.64962" lon="3.69573">
        <ele>133.60000610352</ele>
        <time>2023-05-24T05:21:59.000Z</time>
      </trkpt>
      <trkpt lat="43.6496" lon="3.69569">
        <ele>132.80000305176</ele>
        <time>2023-05-24T05:22:03.000Z</time>
      </trkpt>
      <trkpt lat="43.64959" lon="3.69562">
        <ele>131.80000305176</ele>
        <time>2023-05-24T05:22:09.000Z</time>
      </trkpt>
      <trkpt lat="43.64958" lon="3.69561">
        <ele>131.19999694824</ele>
        <time>2023-05-24T05:22:17.000Z</time>
      </trkpt>
      <trkpt lat="43.64959" lon="3.6956">
        <ele>131.19999694824</ele>
        <time>2023-05-24T05:22:24.000Z</time>
      </trkpt>
      <trkpt lat="43.64956" lon="3.69553">
        <ele>131.19999694824</ele>
        <time>2023-05-24T05:22:30.000Z</time>
      </trkpt>
      <trkpt lat="43.64953" lon="3.6955">
        <ele>131</ele>
        <time>2023-05-24T05:22:37.000Z</time>
      </trkpt>
      <trkpt lat="43.64952" lon="3.69549">
        <ele>131</ele>
        <time>2023-05-24T05:22:46.000Z</time>
      </trkpt>
      <trkpt lat="43.64949" lon="3.69546">
        <ele>131.19999694824</ele>
        <time>2023-05-24T05:22:54.000Z</time>
      </trkpt>
      <trkpt lat="43.64947" lon="3.69545">
        <ele>131</ele>
        <time>2023-05-24T05:23:01.000Z</time>
      </trkpt>
      <trkpt lat="43.64948" lon="3.69547">
        <ele>130.80000305176</ele>
        <time>2023-05-24T05:23:10.000Z</time>
      </trkpt>
      <trkpt lat="43.64948" lon="3.69547">
        <ele>130.80000305176</ele>
        <time>2023-05-24T05:23:14.000Z</time>
      </trkpt>
      <trkpt lat="43.64949" lon="3.69548">
        <ele>130.80000305176</ele>
        <time>2023-05-24T05:23:21.000Z</time>
      </trkpt>
      <trkpt lat="43.6495" lon="3.69549">
        <ele>130.80000305176</ele>
        <time>2023-05-24T05:23:31.000Z</time>
      </trkpt>
      <trkpt lat="43.6495" lon="3.69549">
        <ele>130.80000305176</ele>
        <time>2023-05-24T05:23:44.000Z</time>
      </trkpt>
      <trkpt lat="43.64952" lon="3.69548">
        <ele>131</ele>
        <time>2023-05-24T05:23:50.000Z</time>
      </trkpt>
      <trkpt lat="43.64955" lon="3.69547">
        <ele>131</ele>
        <time>2023-05-24T05:24:01.000Z</time>
      </trkpt>
      <trkpt lat="43.64957" lon="3.69545">
        <ele>130.19999694824</ele>
        <time>2023-05-24T05:24:11.000Z</time>
      </trkpt>
      <trkpt lat="43.64958" lon="3.69545">
        <ele>130.60000610352</ele>
        <time>2023-05-24T05:24:20.000Z</time>
      </trkpt>
      <trkpt lat="43.64958" lon="3.69539">
        <ele>130.19999694824</ele>
        <time>2023-05-24T05:24:26.000Z</time>
      </trkpt>
      <trkpt lat="43.64959" lon="3.69533">
        <ele>130.19999694824</ele>
        <time>2023-05-24T05:24:33.000Z</time>
      </trkpt>
      <trkpt lat="43.64958" lon="3.69528">
        <ele>130.19999694824</ele>
        <time>2023-05-24T05:24:38.000Z</time>
      </trkpt>
      <trkpt lat="43.64956" lon="3.6952">
        <ele>130</ele>
        <time>2023-05-24T05:24:45.000Z</time>
      </trkpt>
      <trkpt lat="43.64954" lon="3.69516">
        <ele>130</ele>
        <time>2023-05-24T05:24:49.000Z</time>
      </trkpt>
      <trkpt lat="43.64953" lon="3.69513">
        <ele>130</ele>
        <time>2023-05-24T05:24:51.000Z</time>
      </trkpt>
      <trkpt lat="43.64951" lon="3.69509">
        <ele>129.80000305176</ele>
        <time>2023-05-24T05:24:54.000Z</time>
      </trkpt>
      <trkpt lat="43.64951" lon="3.69508">
        <ele>129.80000305176</ele>
        <time>2023-05-24T05:24:55.000Z</time>
      </trkpt>
      <trkpt lat="43.6495" lon="3.69507">
        <ele>129.80000305176</ele>
        <time>2023-05-24T05:24:56.000Z</time>
      </trkpt>
      <trkpt lat="43.64947" lon="3.69499">
        <ele>129.80000305176</ele>
        <time>2023-05-24T05:25:02.000Z</time>
      </trkpt>
      <trkpt lat="43.64946" lon="3.69496">
        <ele>129.80000305176</ele>
        <time>2023-05-24T05:25:04.000Z</time>
      </trkpt>
      <trkpt lat="43.64945" lon="3.69493">
        <ele>129.80000305176</ele>
        <time>2023-05-24T05:25:07.000Z</time>
      </trkpt>
      <trkpt lat="43.64944" lon="3.69492">
        <ele>130</ele>
        <time>2023-05-24T05:25:08.000Z</time>
      </trkpt>
      <trkpt lat="43.64942" lon="3.69489">
        <ele>130</ele>
        <time>2023-05-24T05:25:11.000Z</time>
      </trkpt>
      <trkpt lat="43.64942" lon="3.69489">
        <ele>130</ele>
        <time>2023-05-24T05:25:12.000Z</time>
      </trkpt>
      <trkpt lat="43.64941" lon="3.69487">
        <ele>130</ele>
        <time>2023-05-24T05:25:13.000Z</time>
      </trkpt>
      <trkpt lat="43.6494" lon="3.69483">
        <ele>130.19999694824</ele>
        <time>2023-05-24T05:25:16.000Z</time>
      </trkpt>
      <trkpt lat="43.64938" lon="3.69477">
        <ele>130.39999389648</ele>
        <time>2023-05-24T05:25:21.000Z</time>
      </trkpt>
      <trkpt lat="43.64936" lon="3.69468">
        <ele>130.80000305176</ele>
        <time>2023-05-24T05:25:26.000Z</time>
      </trkpt>
      <trkpt lat="43.64935" lon="3.69464">
        <ele>131</ele>
        <time>2023-05-24T05:25:28.000Z</time>
      </trkpt>
      <trkpt lat="43.64934" lon="3.69457">
        <ele>131.19999694824</ele>
        <time>2023-05-24T05:25:31.000Z</time>
      </trkpt>
      <trkpt lat="43.64933" lon="3.69455">
        <ele>131.19999694824</ele>
        <time>2023-05-24T05:25:32.000Z</time>
      </trkpt>
      <trkpt lat="43.64935" lon="3.69446">
        <ele>131.39999389648</ele>
        <time>2023-05-24T05:25:37.000Z</time>
      </trkpt>
      <trkpt lat="43.64938" lon="3.69435">
        <ele>131.60000610352</ele>
        <time>2023-05-24T05:25:44.000Z</time>
      </trkpt>
      <trkpt lat="43.64945" lon="3.69423">
        <ele>131.60000610352</ele>
        <time>2023-05-24T05:25:53.000Z</time>
      </trkpt>
      <trkpt lat="43.6495" lon="3.69412">
        <ele>131.80000305176</ele>
        <time>2023-05-24T05:26:01.000Z</time>
      </trkpt>
      <trkpt lat="43.64957" lon="3.694">
        <ele>131.80000305176</ele>
        <time>2023-05-24T05:26:10.000Z</time>
      </trkpt>
      <trkpt lat="43.64957" lon="3.69398">
        <ele>131.80000305176</ele>
        <time>2023-05-24T05:26:11.000Z</time>
      </trkpt>
      <trkpt lat="43.64954" lon="3.69391">
        <ele>132</ele>
        <time>2023-05-24T05:26:15.000Z</time>
      </trkpt>
      <trkpt lat="43.64947" lon="3.69378">
        <ele>132</ele>
        <time>2023-05-24T05:26:25.000Z</time>
      </trkpt>
      <trkpt lat="43.64949" lon="3.69366">
        <ele>132</ele>
        <time>2023-05-24T05:26:33.000Z</time>
      </trkpt>
      <trkpt lat="43.64948" lon="3.69357">
        <ele>132.19999694824</ele>
        <time>2023-05-24T05:26:39.000Z</time>
      </trkpt>
      <trkpt lat="43.64947" lon="3.69349">
        <ele>132.60000610352</ele>
        <time>2023-05-24T05:26:47.000Z</time>
      </trkpt>
      <trkpt lat="43.64948" lon="3.69348">
        <ele>132.80000305176</ele>
        <time>2023-05-24T05:26:48.000Z</time>
      </trkpt>
      <trkpt lat="43.64948" lon="3.69347">
        <ele>132.80000305176</ele>
        <time>2023-05-24T05:26:49.000Z</time>
      </trkpt>
      <trkpt lat="43.6495" lon="3.69342">
        <ele>133.19999694824</ele>
        <time>2023-05-24T05:26:53.000Z</time>
      </trkpt>
      <trkpt lat="43.64952" lon="3.69335">
        <ele>133.80000305176</ele>
        <time>2023-05-24T05:26:59.000Z</time>
      </trkpt>
      <trkpt lat="43.64953" lon="3.69332">
        <ele>134.19999694824</ele>
        <time>2023-05-24T05:27:02.000Z</time>
      </trkpt>
      <trkpt lat="43.6496" lon="3.69321">
        <ele>134.80000305176</ele>
        <time>2023-05-24T05:27:11.000Z</time>
      </trkpt>
      <trkpt lat="43.64961" lon="3.69318">
        <ele>134.80000305176</ele>
        <time>2023-05-24T05:27:13.000Z</time>
      </trkpt>
      <trkpt lat="43.64966" lon="3.6931">
        <ele>134.80000305176</ele>
        <time>2023-05-24T05:27:19.000Z</time>
      </trkpt>
      <trkpt lat="43.64971" lon="3.69299">
        <ele>135</ele>
        <time>2023-05-24T05:27:27.000Z</time>
      </trkpt>
      <trkpt lat="43.64971" lon="3.69297">
        <ele>135</ele>
        <time>2023-05-24T05:27:28.000Z</time>
      </trkpt>
      <trkpt lat="43.64973" lon="3.69288">
        <ele>135.19999694824</ele>
        <time>2023-05-24T05:27:34.000Z</time>
      </trkpt>
      <trkpt lat="43.64977" lon="3.69279">
        <ele>135.39999389648</ele>
        <time>2023-05-24T05:27:40.000Z</time>
      </trkpt>
      <trkpt lat="43.64978" lon="3.69278">
        <ele>135.39999389648</ele>
        <time>2023-05-24T05:27:41.000Z</time>
      </trkpt>
      <trkpt lat="43.64978" lon="3.69275">
        <ele>135.39999389648</ele>
        <time>2023-05-24T05:27:43.000Z</time>
      </trkpt>
      <trkpt lat="43.6498" lon="3.69271">
        <ele>135.60000610352</ele>
        <time>2023-05-24T05:27:46.000Z</time>
      </trkpt>
      <trkpt lat="43.64981" lon="3.69269">
        <ele>135.60000610352</ele>
        <time>2023-05-24T05:27:47.000Z</time>
      </trkpt>
      <trkpt lat="43.64981" lon="3.69267">
        <ele>136</ele>
        <time>2023-05-24T05:27:51.000Z</time>
      </trkpt>
      <trkpt lat="43.64981" lon="3.69266">
        <ele>136</ele>
        <time>2023-05-24T05:27:52.000Z</time>
      </trkpt>
      <trkpt lat="43.64984" lon="3.69261">
        <ele>136.19999694824</ele>
        <time>2023-05-24T05:27:58.000Z</time>
      </trkpt>
      <trkpt lat="43.64987" lon="3.69257">
        <ele>135.80000305176</ele>
        <time>2023-05-24T05:28:04.000Z</time>
      </trkpt>
      <trkpt lat="43.64989" lon="3.69255">
        <ele>136.19999694824</ele>
        <time>2023-05-24T05:28:12.000Z</time>
      </trkpt>
      <trkpt lat="43.64995" lon="3.69259">
        <ele>136</ele>
        <time>2023-05-24T05:28:19.000Z</time>
      </trkpt>
      <trkpt lat="43.64998" lon="3.69259">
        <ele>136.19999694824</ele>
        <time>2023-05-24T05:28:27.000Z</time>
      </trkpt>
      <trkpt lat="43.65003" lon="3.69263">
        <ele>136.39999389648</ele>
        <time>2023-05-24T05:28:33.000Z</time>
      </trkpt>
      <trkpt lat="43.65013" lon="3.69269">
        <ele>136.39999389648</ele>
        <time>2023-05-24T05:28:42.000Z</time>
      </trkpt>
      <trkpt lat="43.65021" lon="3.69275">
        <ele>136.60000610352</ele>
        <time>2023-05-24T05:28:51.000Z</time>
      </trkpt>
      <trkpt lat="43.65029" lon="3.6928">
        <ele>136.80000305176</ele>
        <time>2023-05-24T05:28:59.000Z</time>
      </trkpt>
      <trkpt lat="43.65031" lon="3.69282">
        <ele>136.80000305176</ele>
        <time>2023-05-24T05:29:01.000Z</time>
      </trkpt>
      <trkpt lat="43.65033" lon="3.69282">
        <ele>136.80000305176</ele>
        <time>2023-05-24T05:29:04.000Z</time>
      </trkpt>
      <trkpt lat="43.65033" lon="3.69282">
        <ele>137</ele>
        <time>2023-05-24T05:29:06.000Z</time>
      </trkpt>
      <trkpt lat="43.65036" lon="3.69278">
        <ele>137.19999694824</ele>
        <time>2023-05-24T05:29:11.000Z</time>
      </trkpt>
      <trkpt lat="43.6504" lon="3.69273">
        <ele>137.19999694824</ele>
        <time>2023-05-24T05:29:18.000Z</time>
      </trkpt>
      <trkpt lat="43.65048" lon="3.69264">
        <ele>137.60000610352</ele>
        <time>2023-05-24T05:29:26.000Z</time>
      </trkpt>
      <trkpt lat="43.65054" lon="3.69261">
        <ele>137.80000305176</ele>
        <time>2023-05-24T05:29:32.000Z</time>
      </trkpt>
      <trkpt lat="43.65055" lon="3.69259">
        <ele>137.80000305176</ele>
        <time>2023-05-24T05:29:33.000Z</time>
      </trkpt>
      <trkpt lat="43.6506" lon="3.69251">
        <ele>138</ele>
        <time>2023-05-24T05:29:40.000Z</time>
      </trkpt>
      <trkpt lat="43.65061" lon="3.69249">
        <ele>138</ele>
        <time>2023-05-24T05:29:41.000Z</time>
      </trkpt>
      <trkpt lat="43.65062" lon="3.69248">
        <ele>138.19999694824</ele>
        <time>2023-05-24T05:29:46.000Z</time>
      </trkpt>
      <trkpt lat="43.65064" lon="3.69243">
        <ele>138.19999694824</ele>
        <time>2023-05-24T05:29:55.000Z</time>
      </trkpt>
      <trkpt lat="43.65064" lon="3.69238">
        <ele>138.39999389648</ele>
        <time>2023-05-24T05:30:01.000Z</time>
      </trkpt>
      <trkpt lat="43.65065" lon="3.69231">
        <ele>138.39999389648</ele>
        <time>2023-05-24T05:30:08.000Z</time>
      </trkpt>
      <trkpt lat="43.65064" lon="3.69218">
        <ele>138.60000610352</ele>
        <time>2023-05-24T05:30:17.000Z</time>
      </trkpt>
      <trkpt lat="43.65063" lon="3.69206">
        <ele>139</ele>
        <time>2023-05-24T05:30:26.000Z</time>
      </trkpt>
      <trkpt lat="43.65062" lon="3.69203">
        <ele>139</ele>
        <time>2023-05-24T05:30:28.000Z</time>
      </trkpt>
      <trkpt lat="43.65062" lon="3.69194">
        <ele>139.39999389648</ele>
        <time>2023-05-24T05:30:34.000Z</time>
      </trkpt>
      <trkpt lat="43.6506" lon="3.6918">
        <ele>139.19999694824</ele>
        <time>2023-05-24T05:30:44.000Z</time>
      </trkpt>
      <trkpt lat="43.65058" lon="3.69161">
        <ele>139.80000305176</ele>
        <time>2023-05-24T05:30:58.000Z</time>
      </trkpt>
      <trkpt lat="43.65058" lon="3.69156">
        <ele>140</ele>
        <time>2023-05-24T05:31:02.000Z</time>
      </trkpt>
      <trkpt lat="43.65058" lon="3.69147">
        <ele>140.39999389648</ele>
        <time>2023-05-24T05:31:08.000Z</time>
      </trkpt>
      <trkpt lat="43.65058" lon="3.69134">
        <ele>140.60000610352</ele>
        <time>2023-05-24T05:31:18.000Z</time>
      </trkpt>
      <trkpt lat="43.65059" lon="3.69124">
        <ele>141</ele>
        <time>2023-05-24T05:31:25.000Z</time>
      </trkpt>
      <trkpt lat="43.65059" lon="3.69123">
        <ele>141</ele>
        <time>2023-05-24T05:31:26.000Z</time>
      </trkpt>
      <trkpt lat="43.65059" lon="3.69111">
        <ele>141.19999694824</ele>
        <time>2023-05-24T05:31:34.000Z</time>
      </trkpt>
      <trkpt lat="43.6506" lon="3.69105">
        <ele>141.60000610352</ele>
        <time>2023-05-24T05:31:39.000Z</time>
      </trkpt>
      <trkpt lat="43.6506" lon="3.691">
        <ele>141.60000610352</ele>
        <time>2023-05-24T05:31:42.000Z</time>
      </trkpt>
      <trkpt lat="43.65059" lon="3.69095">
        <ele>141.80000305176</ele>
        <time>2023-05-24T05:31:46.000Z</time>
      </trkpt>
      <trkpt lat="43.65059" lon="3.6909">
        <ele>141.80000305176</ele>
        <time>2023-05-24T05:31:49.000Z</time>
      </trkpt>
      <trkpt lat="43.65058" lon="3.69082">
        <ele>142.19999694824</ele>
        <time>2023-05-24T05:31:55.000Z</time>
      </trkpt>
      <trkpt lat="43.65057" lon="3.69078">
        <ele>142.39999389648</ele>
        <time>2023-05-24T05:31:58.000Z</time>
      </trkpt>
      <trkpt lat="43.65055" lon="3.6907">
        <ele>142.80000305176</ele>
        <time>2023-05-24T05:32:04.000Z</time>
      </trkpt>
      <trkpt lat="43.65054" lon="3.69069">
        <ele>142.80000305176</ele>
        <time>2023-05-24T05:32:05.000Z</time>
      </trkpt>
      <trkpt lat="43.65052" lon="3.69061">
        <ele>143.19999694824</ele>
        <time>2023-05-24T05:32:11.000Z</time>
      </trkpt>
      <trkpt lat="43.65052" lon="3.6906">
        <ele>143.19999694824</ele>
        <time>2023-05-24T05:32:12.000Z</time>
      </trkpt>
      <trkpt lat="43.65052" lon="3.69059">
        <ele>143.19999694824</ele>
        <time>2023-05-24T05:32:13.000Z</time>
      </trkpt>
      <trkpt lat="43.65048" lon="3.69052">
        <ele>143.80000305176</ele>
        <time>2023-05-24T05:32:20.000Z</time>
      </trkpt>
      <trkpt lat="43.65048" lon="3.69051">
        <ele>144</ele>
        <time>2023-05-24T05:32:21.000Z</time>
      </trkpt>
      <trkpt lat="43.65048" lon="3.69049">
        <ele>144.19999694824</ele>
        <time>2023-05-24T05:32:23.000Z</time>
      </trkpt>
      <trkpt lat="43.65048" lon="3.69048">
        <ele>144.19999694824</ele>
        <time>2023-05-24T05:32:24.000Z</time>
      </trkpt>
      <trkpt lat="43.65046" lon="3.69042">
        <ele>144.39999389648</ele>
        <time>2023-05-24T05:32:29.000Z</time>
      </trkpt>
      <trkpt lat="43.65043" lon="3.69034">
        <ele>144.80000305176</ele>
        <time>2023-05-24T05:32:36.000Z</time>
      </trkpt>
      <trkpt lat="43.6504" lon="3.69026">
        <ele>145.19999694824</ele>
        <time>2023-05-24T05:32:42.000Z</time>
      </trkpt>
      <trkpt lat="43.65038" lon="3.69021">
        <ele>145.39999389648</ele>
        <time>2023-05-24T05:32:46.000Z</time>
      </trkpt>
      <trkpt lat="43.65036" lon="3.69016">
        <ele>145.60000610352</ele>
        <time>2023-05-24T05:32:50.000Z</time>
      </trkpt>
      <trkpt lat="43.65035" lon="3.69012">
        <ele>145.80000305176</ele>
        <time>2023-05-24T05:32:53.000Z</time>
      </trkpt>
      <trkpt lat="43.65034" lon="3.69009">
        <ele>146</ele>
        <time>2023-05-24T05:32:55.000Z</time>
      </trkpt>
      <trkpt lat="43.65033" lon="3.68999">
        <ele>146.19999694824</ele>
        <time>2023-05-24T05:33:02.000Z</time>
      </trkpt>
      <trkpt lat="43.65033" lon="3.68988">
        <ele>146.19999694824</ele>
        <time>2023-05-24T05:33:09.000Z</time>
      </trkpt>
      <trkpt lat="43.65033" lon="3.68985">
        <ele>146.19999694824</ele>
        <time>2023-05-24T05:33:11.000Z</time>
      </trkpt>
      <trkpt lat="43.65034" lon="3.68972">
        <ele>146.39999389648</ele>
        <time>2023-05-24T05:33:19.000Z</time>
      </trkpt>
      <trkpt lat="43.65035" lon="3.68955">
        <ele>146.60000610352</ele>
        <time>2023-05-24T05:33:29.000Z</time>
      </trkpt>
      <trkpt lat="43.65036" lon="3.68941">
        <ele>146.60000610352</ele>
        <time>2023-05-24T05:33:38.000Z</time>
      </trkpt>
      <trkpt lat="43.65038" lon="3.6893">
        <ele>146.80000305176</ele>
        <time>2023-05-24T05:33:45.000Z</time>
      </trkpt>
      <trkpt lat="43.6504" lon="3.68916">
        <ele>147.19999694824</ele>
        <time>2023-05-24T05:33:54.000Z</time>
      </trkpt>
      <trkpt lat="43.65041" lon="3.68912">
        <ele>147.19999694824</ele>
        <time>2023-05-24T05:33:57.000Z</time>
      </trkpt>
      <trkpt lat="43.65042" lon="3.68901">
        <ele>147.60000610352</ele>
        <time>2023-05-24T05:34:04.000Z</time>
      </trkpt>
      <trkpt lat="43.65044" lon="3.68891">
        <ele>147.80000305176</ele>
        <time>2023-05-24T05:34:11.000Z</time>
      </trkpt>
      <trkpt lat="43.65047" lon="3.68877">
        <ele>148.19999694824</ele>
        <time>2023-05-24T05:34:20.000Z</time>
      </trkpt>
      <trkpt lat="43.65048" lon="3.6887">
        <ele>148.19999694824</ele>
        <time>2023-05-24T05:34:24.000Z</time>
      </trkpt>
      <trkpt lat="43.6505" lon="3.68858">
        <ele>148.39999389648</ele>
        <time>2023-05-24T05:34:32.000Z</time>
      </trkpt>
      <trkpt lat="43.65051" lon="3.68849">
        <ele>148.60000610352</ele>
        <time>2023-05-24T05:34:38.000Z</time>
      </trkpt>
      <trkpt lat="43.65051" lon="3.68836">
        <ele>148.80000305176</ele>
        <time>2023-05-24T05:34:47.000Z</time>
      </trkpt>
      <trkpt lat="43.65052" lon="3.68827">
        <ele>149</ele>
        <time>2023-05-24T05:34:53.000Z</time>
      </trkpt>
      <trkpt lat="43.65052" lon="3.68822">
        <ele>149.19999694824</ele>
        <time>2023-05-24T05:34:56.000Z</time>
      </trkpt>
      <trkpt lat="43.65053" lon="3.68817">
        <ele>149.39999389648</ele>
        <time>2023-05-24T05:34:59.000Z</time>
      </trkpt>
      <trkpt lat="43.65053" lon="3.68814">
        <ele>149.60000610352</ele>
        <time>2023-05-24T05:35:03.000Z</time>
      </trkpt>
      <trkpt lat="43.65054" lon="3.68804">
        <ele>149.80000305176</ele>
        <time>2023-05-24T05:35:10.000Z</time>
      </trkpt>
      <trkpt lat="43.65055" lon="3.68787">
        <ele>150.19999694824</ele>
        <time>2023-05-24T05:35:21.000Z</time>
      </trkpt>
      <trkpt lat="43.65056" lon="3.68781">
        <ele>150.39999389648</ele>
        <time>2023-05-24T05:35:25.000Z</time>
      </trkpt>
      <trkpt lat="43.65056" lon="3.68776">
        <ele>150.39999389648</ele>
        <time>2023-05-24T05:35:28.000Z</time>
      </trkpt>
      <trkpt lat="43.65057" lon="3.68774">
        <ele>150.80000305176</ele>
        <time>2023-05-24T05:35:34.000Z</time>
      </trkpt>
      <trkpt lat="43.65056" lon="3.68766">
        <ele>150.80000305176</ele>
        <time>2023-05-24T05:35:40.000Z</time>
      </trkpt>
      <trkpt lat="43.65056" lon="3.68752">
        <ele>151.39999389648</ele>
        <time>2023-05-24T05:35:50.000Z</time>
      </trkpt>
      <trkpt lat="43.65056" lon="3.68751">
        <ele>151.39999389648</ele>
        <time>2023-05-24T05:35:51.000Z</time>
      </trkpt>
      <trkpt lat="43.6506" lon="3.6874">
        <ele>152</ele>
        <time>2023-05-24T05:36:00.000Z</time>
      </trkpt>
      <trkpt lat="43.65062" lon="3.68735">
        <ele>152.39999389648</ele>
        <time>2023-05-24T05:36:04.000Z</time>
      </trkpt>
      <trkpt lat="43.65062" lon="3.68734">
        <ele>152.39999389648</ele>
        <time>2023-05-24T05:36:05.000Z</time>
      </trkpt>
      <trkpt lat="43.65064" lon="3.6873">
        <ele>152.80000305176</ele>
        <time>2023-05-24T05:36:08.000Z</time>
      </trkpt>
      <trkpt lat="43.65066" lon="3.68722">
        <ele>153.39999389648</ele>
        <time>2023-05-24T05:36:14.000Z</time>
      </trkpt>
      <trkpt lat="43.65068" lon="3.68719">
        <ele>153.80000305176</ele>
        <time>2023-05-24T05:36:17.000Z</time>
      </trkpt>
      <trkpt lat="43.6507" lon="3.68711">
        <ele>154.60000610352</ele>
        <time>2023-05-24T05:36:25.000Z</time>
      </trkpt>
      <trkpt lat="43.65071" lon="3.68711">
        <ele>154.80000305176</ele>
        <time>2023-05-24T05:36:27.000Z</time>
      </trkpt>
      <trkpt lat="43.6507" lon="3.68706">
        <ele>154.80000305176</ele>
        <time>2023-05-24T05:36:33.000Z</time>
      </trkpt>
      <trkpt lat="43.65071" lon="3.68702">
        <ele>155</ele>
        <time>2023-05-24T05:36:40.000Z</time>
      </trkpt>
      <trkpt lat="43.65073" lon="3.68696">
        <ele>155.39999389648</ele>
        <time>2023-05-24T05:36:46.000Z</time>
      </trkpt>
      <trkpt lat="43.65075" lon="3.68693">
        <ele>155.60000610352</ele>
        <time>2023-05-24T05:36:49.000Z</time>
      </trkpt>
      <trkpt lat="43.65077" lon="3.68689">
        <ele>155.80000305176</ele>
        <time>2023-05-24T05:36:53.000Z</time>
      </trkpt>
      <trkpt lat="43.65081" lon="3.6868">
        <ele>156.19999694824</ele>
        <time>2023-05-24T05:37:00.000Z</time>
      </trkpt>
      <trkpt lat="43.65084" lon="3.68672">
        <ele>156.80000305176</ele>
        <time>2023-05-24T05:37:06.000Z</time>
      </trkpt>
      <trkpt lat="43.65084" lon="3.6867">
        <ele>157</ele>
        <time>2023-05-24T05:37:07.000Z</time>
      </trkpt>
      <trkpt lat="43.65088" lon="3.6866">
        <ele>157.80000305176</ele>
        <time>2023-05-24T05:37:15.000Z</time>
      </trkpt>
      <trkpt lat="43.65089" lon="3.68659">
        <ele>157.80000305176</ele>
        <time>2023-05-24T05:37:16.000Z</time>
      </trkpt>
      <trkpt lat="43.65092" lon="3.68648">
        <ele>158.39999389648</ele>
        <time>2023-05-24T05:37:24.000Z</time>
      </trkpt>
      <trkpt lat="43.65094" lon="3.68637">
        <ele>158.80000305176</ele>
        <time>2023-05-24T05:37:32.000Z</time>
      </trkpt>
      <trkpt lat="43.65094" lon="3.68636">
        <ele>158.80000305176</ele>
        <time>2023-05-24T05:37:33.000Z</time>
      </trkpt>
      <trkpt lat="43.65096" lon="3.68631">
        <ele>159</ele>
        <time>2023-05-24T05:37:37.000Z</time>
      </trkpt>
      <trkpt lat="43.65096" lon="3.68627">
        <ele>159.19999694824</ele>
        <time>2023-05-24T05:37:40.000Z</time>
      </trkpt>
      <trkpt lat="43.65098" lon="3.6862">
        <ele>159.60000610352</ele>
        <time>2023-05-24T05:37:46.000Z</time>
      </trkpt>
      <trkpt lat="43.65099" lon="3.68617">
        <ele>159.80000305176</ele>
        <time>2023-05-24T05:37:49.000Z</time>
      </trkpt>
      <trkpt lat="43.651" lon="3.68613">
        <ele>159.80000305176</ele>
        <time>2023-05-24T05:37:52.000Z</time>
      </trkpt>
      <trkpt lat="43.651" lon="3.68611">
        <ele>159.80000305176</ele>
        <time>2023-05-24T05:37:53.000Z</time>
      </trkpt>
      <trkpt lat="43.65101" lon="3.68609">
        <ele>160</ele>
        <time>2023-05-24T05:37:55.000Z</time>
      </trkpt>
      <trkpt lat="43.65102" lon="3.68605">
        <ele>160.60000610352</ele>
        <time>2023-05-24T05:37:59.000Z</time>
      </trkpt>
      <trkpt lat="43.65103" lon="3.686">
        <ele>160.60000610352</ele>
        <time>2023-05-24T05:38:03.000Z</time>
      </trkpt>
      <trkpt lat="43.65104" lon="3.68595">
        <ele>160.80000305176</ele>
        <time>2023-05-24T05:38:07.000Z</time>
      </trkpt>
      <trkpt lat="43.65105" lon="3.68592">
        <ele>161.19999694824</ele>
        <time>2023-05-24T05:38:09.000Z</time>
      </trkpt>
      <trkpt lat="43.65107" lon="3.68583">
        <ele>161.80000305176</ele>
        <time>2023-05-24T05:38:17.000Z</time>
      </trkpt>
      <trkpt lat="43.65107" lon="3.68582">
        <ele>162</ele>
        <time>2023-05-24T05:38:18.000Z</time>
      </trkpt>
      <trkpt lat="43.65109" lon="3.68572">
        <ele>162.39999389648</ele>
        <time>2023-05-24T05:38:26.000Z</time>
      </trkpt>
      <trkpt lat="43.65112" lon="3.68562">
        <ele>163</ele>
        <time>2023-05-24T05:38:34.000Z</time>
      </trkpt>
      <trkpt lat="43.65112" lon="3.68561">
        <ele>163</ele>
        <time>2023-05-24T05:38:35.000Z</time>
      </trkpt>
      <trkpt lat="43.65112" lon="3.68559">
        <ele>163.19999694824</ele>
        <time>2023-05-24T05:38:38.000Z</time>
      </trkpt>
      <trkpt lat="43.65112" lon="3.68557">
        <ele>163.19999694824</ele>
        <time>2023-05-24T05:38:39.000Z</time>
      </trkpt>
      <trkpt lat="43.65113" lon="3.68555">
        <ele>163.39999389648</ele>
        <time>2023-05-24T05:38:41.000Z</time>
      </trkpt>
      <trkpt lat="43.65115" lon="3.68549">
        <ele>163.60000610352</ele>
        <time>2023-05-24T05:38:46.000Z</time>
      </trkpt>
      <trkpt lat="43.65116" lon="3.68545">
        <ele>164</ele>
        <time>2023-05-24T05:38:49.000Z</time>
      </trkpt>
      <trkpt lat="43.65118" lon="3.6854">
        <ele>164.39999389648</ele>
        <time>2023-05-24T05:38:54.000Z</time>
      </trkpt>
      <trkpt lat="43.6512" lon="3.68531">
        <ele>165</ele>
        <time>2023-05-24T05:39:02.000Z</time>
      </trkpt>
      <trkpt lat="43.6512" lon="3.6853">
        <ele>165</ele>
        <time>2023-05-24T05:39:03.000Z</time>
      </trkpt>
      <trkpt lat="43.65122" lon="3.68521">
        <ele>165.80000305176</ele>
        <time>2023-05-24T05:39:11.000Z</time>
      </trkpt>
      <trkpt lat="43.65123" lon="3.68519">
        <ele>166</ele>
        <time>2023-05-24T05:39:13.000Z</time>
      </trkpt>
      <trkpt lat="43.65125" lon="3.68509">
        <ele>166.39999389648</ele>
        <time>2023-05-24T05:39:20.000Z</time>
      </trkpt>
      <trkpt lat="43.65125" lon="3.68497">
        <ele>166.80000305176</ele>
        <time>2023-05-24T05:39:29.000Z</time>
      </trkpt>
      <trkpt lat="43.65125" lon="3.68492">
        <ele>167</ele>
        <time>2023-05-24T05:39:33.000Z</time>
      </trkpt>
      <trkpt lat="43.65125" lon="3.68491">
        <ele>167</ele>
        <time>2023-05-24T05:39:34.000Z</time>
      </trkpt>
      <trkpt lat="43.65124" lon="3.68488">
        <ele>167.19999694824</ele>
        <time>2023-05-24T05:39:36.000Z</time>
      </trkpt>
      <trkpt lat="43.65123" lon="3.6848">
        <ele>167.60000610352</ele>
        <time>2023-05-24T05:39:42.000Z</time>
      </trkpt>
      <trkpt lat="43.65123" lon="3.6848">
        <ele>167.80000305176</ele>
        <time>2023-05-24T05:39:43.000Z</time>
      </trkpt>
      <trkpt lat="43.65122" lon="3.68478">
        <ele>168.19999694824</ele>
        <time>2023-05-24T05:39:45.000Z</time>
      </trkpt>
      <trkpt lat="43.65121" lon="3.68473">
        <ele>168.39999389648</ele>
        <time>2023-05-24T05:39:50.000Z</time>
      </trkpt>
      <trkpt lat="43.65118" lon="3.68467">
        <ele>168.80000305176</ele>
        <time>2023-05-24T05:39:57.000Z</time>
      </trkpt>
      <trkpt lat="43.65117" lon="3.68464">
        <ele>169.19999694824</ele>
        <time>2023-05-24T05:40:00.000Z</time>
      </trkpt>
      <trkpt lat="43.65114" lon="3.68459">
        <ele>169.60000610352</ele>
        <time>2023-05-24T05:40:06.000Z</time>
      </trkpt>
      <trkpt lat="43.65112" lon="3.68457">
        <ele>169.80000305176</ele>
        <time>2023-05-24T05:40:08.000Z</time>
      </trkpt>
      <trkpt lat="43.6511" lon="3.68453">
        <ele>170</ele>
        <time>2023-05-24T05:40:12.000Z</time>
      </trkpt>
      <trkpt lat="43.65109" lon="3.68451">
        <ele>170.19999694824</ele>
        <time>2023-05-24T05:40:14.000Z</time>
      </trkpt>
      <trkpt lat="43.65105" lon="3.68442">
        <ele>170.80000305176</ele>
        <time>2023-05-24T05:40:23.000Z</time>
      </trkpt>
      <trkpt lat="43.65105" lon="3.68442">
        <ele>171</ele>
        <time>2023-05-24T05:40:24.000Z</time>
      </trkpt>
      <trkpt lat="43.65104" lon="3.6844">
        <ele>171.19999694824</ele>
        <time>2023-05-24T05:40:26.000Z</time>
      </trkpt>
      <trkpt lat="43.65103" lon="3.68435">
        <ele>171.60000610352</ele>
        <time>2023-05-24T05:40:31.000Z</time>
      </trkpt>
      <trkpt lat="43.651" lon="3.68426">
        <ele>172</ele>
        <time>2023-05-24T05:40:39.000Z</time>
      </trkpt>
      <trkpt lat="43.651" lon="3.68424">
        <ele>172.19999694824</ele>
        <time>2023-05-24T05:40:41.000Z</time>
      </trkpt>
      <trkpt lat="43.651" lon="3.68421">
        <ele>172.39999389648</ele>
        <time>2023-05-24T05:40:46.000Z</time>
      </trkpt>
      <trkpt lat="43.65099" lon="3.68413">
        <ele>172.60000610352</ele>
        <time>2023-05-24T05:40:52.000Z</time>
      </trkpt>
      <trkpt lat="43.65099" lon="3.684">
        <ele>172.80000305176</ele>
        <time>2023-05-24T05:41:01.000Z</time>
      </trkpt>
      <trkpt lat="43.65097" lon="3.68394">
        <ele>173.19999694824</ele>
        <time>2023-05-24T05:41:05.000Z</time>
      </trkpt>
      <trkpt lat="43.65097" lon="3.68391">
        <ele>173.39999389648</ele>
        <time>2023-05-24T05:41:08.000Z</time>
      </trkpt>
      <trkpt lat="43.65094" lon="3.68382">
        <ele>174.19999694824</ele>
        <time>2023-05-24T05:41:17.000Z</time>
      </trkpt>
      <trkpt lat="43.65094" lon="3.6838">
        <ele>174.19999694824</ele>
        <time>2023-05-24T05:41:18.000Z</time>
      </trkpt>
      <trkpt lat="43.65095" lon="3.68373">
        <ele>174.80000305176</ele>
        <time>2023-05-24T05:41:24.000Z</time>
      </trkpt>
      <trkpt lat="43.65096" lon="3.68371">
        <ele>175</ele>
        <time>2023-05-24T05:41:26.000Z</time>
      </trkpt>
      <trkpt lat="43.65097" lon="3.68369">
        <ele>175</ele>
        <time>2023-05-24T05:41:27.000Z</time>
      </trkpt>
      <trkpt lat="43.65099" lon="3.68365">
        <ele>175</ele>
        <time>2023-05-24T05:41:31.000Z</time>
      </trkpt>
      <trkpt lat="43.65102" lon="3.68363">
        <ele>175</ele>
        <time>2023-05-24T05:41:34.000Z</time>
      </trkpt>
      <trkpt lat="43.65103" lon="3.68363">
        <ele>175</ele>
        <time>2023-05-24T05:41:35.000Z</time>
      </trkpt>
      <trkpt lat="43.65106" lon="3.68361">
        <ele>175.19999694824</ele>
        <time>2023-05-24T05:41:38.000Z</time>
      </trkpt>
      <trkpt lat="43.65107" lon="3.68361">
        <ele>175.19999694824</ele>
        <time>2023-05-24T05:41:39.000Z</time>
      </trkpt>
      <trkpt lat="43.65107" lon="3.6836">
        <ele>175.80000305176</ele>
        <time>2023-05-24T05:41:45.000Z</time>
      </trkpt>
      <trkpt lat="43.65113" lon="3.68356">
        <ele>175.80000305176</ele>
        <time>2023-05-24T05:41:51.000Z</time>
      </trkpt>
      <trkpt lat="43.65117" lon="3.68354">
        <ele>176.19999694824</ele>
        <time>2023-05-24T05:41:57.000Z</time>
      </trkpt>
      <trkpt lat="43.65119" lon="3.68353">
        <ele>176.19999694824</ele>
        <time>2023-05-24T05:41:59.000Z</time>
      </trkpt>
      <trkpt lat="43.65122" lon="3.68355">
        <ele>176.19999694824</ele>
        <time>2023-05-24T05:42:03.000Z</time>
      </trkpt>
      <trkpt lat="43.65123" lon="3.68355">
        <ele>176.19999694824</ele>
        <time>2023-05-24T05:42:04.000Z</time>
      </trkpt>
      <trkpt lat="43.6513" lon="3.68356">
        <ele>176.19999694824</ele>
        <time>2023-05-24T05:42:10.000Z</time>
      </trkpt>
      <trkpt lat="43.65132" lon="3.68355">
        <ele>176.19999694824</ele>
        <time>2023-05-24T05:42:12.000Z</time>
      </trkpt>
      <trkpt lat="43.6514" lon="3.68353">
        <ele>176.19999694824</ele>
        <time>2023-05-24T05:42:19.000Z</time>
      </trkpt>
      <trkpt lat="43.65145" lon="3.68351">
        <ele>176.39999389648</ele>
        <time>2023-05-24T05:42:23.000Z</time>
      </trkpt>
      <trkpt lat="43.65152" lon="3.68348">
        <ele>177</ele>
        <time>2023-05-24T05:42:30.000Z</time>
      </trkpt>
      <trkpt lat="43.65158" lon="3.68345">
        <ele>177.19999694824</ele>
        <time>2023-05-24T05:42:36.000Z</time>
      </trkpt>
      <trkpt lat="43.65162" lon="3.68344">
        <ele>177.19999694824</ele>
        <time>2023-05-24T05:42:40.000Z</time>
      </trkpt>
      <trkpt lat="43.65163" lon="3.68343">
        <ele>177.39999389648</ele>
        <time>2023-05-24T05:42:41.000Z</time>
      </trkpt>
      <trkpt lat="43.65164" lon="3.68342">
        <ele>177.39999389648</ele>
        <time>2023-05-24T05:42:43.000Z</time>
      </trkpt>
      <trkpt lat="43.65169" lon="3.68337">
        <ele>177.80000305176</ele>
        <time>2023-05-24T05:42:50.000Z</time>
      </trkpt>
      <trkpt lat="43.65169" lon="3.68336">
        <ele>178</ele>
        <time>2023-05-24T05:42:51.000Z</time>
      </trkpt>
      <trkpt lat="43.65171" lon="3.68335">
        <ele>178</ele>
        <time>2023-05-24T05:42:53.000Z</time>
      </trkpt>
      <trkpt lat="43.65174" lon="3.68332">
        <ele>178.39999389648</ele>
        <time>2023-05-24T05:42:58.000Z</time>
      </trkpt>
      <trkpt lat="43.65178" lon="3.6833">
        <ele>179</ele>
        <time>2023-05-24T05:43:04.000Z</time>
      </trkpt>
      <trkpt lat="43.65182" lon="3.68327">
        <ele>179.39999389648</ele>
        <time>2023-05-24T05:43:10.000Z</time>
      </trkpt>
      <trkpt lat="43.65184" lon="3.68326">
        <ele>179.60000610352</ele>
        <time>2023-05-24T05:43:12.000Z</time>
      </trkpt>
      <trkpt lat="43.65188" lon="3.68322">
        <ele>180.39999389648</ele>
        <time>2023-05-24T05:43:20.000Z</time>
      </trkpt>
      <trkpt lat="43.65189" lon="3.68321">
        <ele>180.60000610352</ele>
        <time>2023-05-24T05:43:21.000Z</time>
      </trkpt>
      <trkpt lat="43.65192" lon="3.68314">
        <ele>181</ele>
        <time>2023-05-24T05:43:28.000Z</time>
      </trkpt>
      <trkpt lat="43.65193" lon="3.68308">
        <ele>181.39999389648</ele>
        <time>2023-05-24T05:43:34.000Z</time>
      </trkpt>
      <trkpt lat="43.65192" lon="3.68304">
        <ele>181.60000610352</ele>
        <time>2023-05-24T05:43:37.000Z</time>
      </trkpt>
      <trkpt lat="43.65192" lon="3.68295">
        <ele>181.60000610352</ele>
        <time>2023-05-24T05:43:45.000Z</time>
      </trkpt>
      <trkpt lat="43.65192" lon="3.68294">
        <ele>181.60000610352</ele>
        <time>2023-05-24T05:43:46.000Z</time>
      </trkpt>
      <trkpt lat="43.65191" lon="3.68286">
        <ele>182.19999694824</ele>
        <time>2023-05-24T05:43:55.000Z</time>
      </trkpt>
      <trkpt lat="43.65188" lon="3.68283">
        <ele>182.39999389648</ele>
        <time>2023-05-24T05:44:01.000Z</time>
      </trkpt>
      <trkpt lat="43.65183" lon="3.68282">
        <ele>182.80000305176</ele>
        <time>2023-05-24T05:44:08.000Z</time>
      </trkpt>
      <trkpt lat="43.65179" lon="3.68283">
        <ele>183.19999694824</ele>
        <time>2023-05-24T05:44:16.000Z</time>
      </trkpt>
      <trkpt lat="43.65176" lon="3.68283">
        <ele>183.39999389648</ele>
        <time>2023-05-24T05:44:22.000Z</time>
      </trkpt>
      <trkpt lat="43.65175" lon="3.68283">
        <ele>183.60000610352</ele>
        <time>2023-05-24T05:44:24.000Z</time>
      </trkpt>
      <trkpt lat="43.65173" lon="3.6828">
        <ele>184.19999694824</ele>
        <time>2023-05-24T05:44:30.000Z</time>
      </trkpt>
      <trkpt lat="43.65172" lon="3.6828">
        <ele>184.60000610352</ele>
        <time>2023-05-24T05:44:33.000Z</time>
      </trkpt>
      <trkpt lat="43.65172" lon="3.68279">
        <ele>185</ele>
        <time>2023-05-24T05:44:36.000Z</time>
      </trkpt>
      <trkpt lat="43.65169" lon="3.68274">
        <ele>185.39999389648</ele>
        <time>2023-05-24T05:44:48.000Z</time>
      </trkpt>
      <trkpt lat="43.65168" lon="3.68273">
        <ele>185.60000610352</ele>
        <time>2023-05-24T05:44:50.000Z</time>
      </trkpt>
      <trkpt lat="43.65166" lon="3.6827">
        <ele>185.80000305176</ele>
        <time>2023-05-24T05:44:55.000Z</time>
      </trkpt>
      <trkpt lat="43.65165" lon="3.68265">
        <ele>186.19999694824</ele>
        <time>2023-05-24T05:45:02.000Z</time>
      </trkpt>
      <trkpt lat="43.65163" lon="3.6826">
        <ele>186.60000610352</ele>
        <time>2023-05-24T05:45:10.000Z</time>
      </trkpt>
      <trkpt lat="43.65159" lon="3.68258">
        <ele>187.39999389648</ele>
        <time>2023-05-24T05:45:17.000Z</time>
      </trkpt>
      <trkpt lat="43.65157" lon="3.68258">
        <ele>187.60000610352</ele>
        <time>2023-05-24T05:45:20.000Z</time>
      </trkpt>
      <trkpt lat="43.65154" lon="3.68258">
        <ele>188</ele>
        <time>2023-05-24T05:45:25.000Z</time>
      </trkpt>
      <trkpt lat="43.65151" lon="3.68258">
        <ele>188.60000610352</ele>
        <time>2023-05-24T05:45:32.000Z</time>
      </trkpt>
      <trkpt lat="43.6515" lon="3.68258">
        <ele>188.80000305176</ele>
        <time>2023-05-24T05:45:33.000Z</time>
      </trkpt>
      <trkpt lat="43.65147" lon="3.68253">
        <ele>189.60000610352</ele>
        <time>2023-05-24T05:45:41.000Z</time>
      </trkpt>
      <trkpt lat="43.65146" lon="3.68253">
        <ele>189.80000305176</ele>
        <time>2023-05-24T05:45:43.000Z</time>
      </trkpt>
      <trkpt lat="43.65144" lon="3.6825">
        <ele>190</ele>
        <time>2023-05-24T05:45:49.000Z</time>
      </trkpt>
      <trkpt lat="43.65143" lon="3.68246">
        <ele>190.80000305176</ele>
        <time>2023-05-24T05:45:57.000Z</time>
      </trkpt>
      <trkpt lat="43.65139" lon="3.68243">
        <ele>191.80000305176</ele>
        <time>2023-05-24T05:46:04.000Z</time>
      </trkpt>
      <trkpt lat="43.65137" lon="3.68242">
        <ele>191.80000305176</ele>
        <time>2023-05-24T05:46:06.000Z</time>
      </trkpt>
      <trkpt lat="43.65135" lon="3.68242">
        <ele>192</ele>
        <time>2023-05-24T05:46:09.000Z</time>
      </trkpt>
      <trkpt lat="43.65132" lon="3.68241">
        <ele>192.19999694824</ele>
        <time>2023-05-24T05:46:17.000Z</time>
      </trkpt>
      <trkpt lat="43.65132" lon="3.68242">
        <ele>192.80000305176</ele>
        <time>2023-05-24T05:46:22.000Z</time>
      </trkpt>
      <trkpt lat="43.65132" lon="3.68242">
        <ele>193</ele>
        <time>2023-05-24T05:46:23.000Z</time>
      </trkpt>
      <trkpt lat="43.65129" lon="3.68241">
        <ele>192.80000305176</ele>
        <time>2023-05-24T05:46:32.000Z</time>
      </trkpt>
      <trkpt lat="43.65125" lon="3.68239">
        <ele>193.19999694824</ele>
        <time>2023-05-24T05:46:39.000Z</time>
      </trkpt>
      <trkpt lat="43.6512" lon="3.68238">
        <ele>194</ele>
        <time>2023-05-24T05:46:47.000Z</time>
      </trkpt>
      <trkpt lat="43.65118" lon="3.68237">
        <ele>194.80000305176</ele>
        <time>2023-05-24T05:46:52.000Z</time>
      </trkpt>
      <trkpt lat="43.65119" lon="3.68235">
        <ele>195</ele>
        <time>2023-05-24T05:46:54.000Z</time>
      </trkpt>
      <trkpt lat="43.6512" lon="3.68233">
        <ele>195</ele>
        <time>2023-05-24T05:46:58.000Z</time>
      </trkpt>
      <trkpt lat="43.65123" lon="3.68228">
        <ele>195.60000610352</ele>
        <time>2023-05-24T05:47:07.000Z</time>
      </trkpt>
      <trkpt lat="43.65124" lon="3.68228">
        <ele>196.19999694824</ele>
        <time>2023-05-24T05:47:12.000Z</time>
      </trkpt>
      <trkpt lat="43.65125" lon="3.68228">
        <ele>196.80000305176</ele>
        <time>2023-05-24T05:47:14.000Z</time>
      </trkpt>
      <trkpt lat="43.65127" lon="3.68227">
        <ele>197.19999694824</ele>
        <time>2023-05-24T05:47:19.000Z</time>
      </trkpt>
      <trkpt lat="43.65126" lon="3.68227">
        <ele>197.39999389648</ele>
        <time>2023-05-24T05:47:21.000Z</time>
      </trkpt>
      <trkpt lat="43.65129" lon="3.68225">
        <ele>198</ele>
        <time>2023-05-24T05:47:27.000Z</time>
      </trkpt>
      <trkpt lat="43.65132" lon="3.68224">
        <ele>198.39999389648</ele>
        <time>2023-05-24T05:47:30.000Z</time>
      </trkpt>
      <trkpt lat="43.65133" lon="3.68224">
        <ele>198.80000305176</ele>
        <time>2023-05-24T05:47:33.000Z</time>
      </trkpt>
      <trkpt lat="43.65136" lon="3.68221">
        <ele>199.39999389648</ele>
        <time>2023-05-24T05:47:39.000Z</time>
      </trkpt>
      <trkpt lat="43.65136" lon="3.6822">
        <ele>199.60000610352</ele>
        <time>2023-05-24T05:47:41.000Z</time>
      </trkpt>
      <trkpt lat="43.65139" lon="3.68218">
        <ele>200.19999694824</ele>
        <time>2023-05-24T05:47:46.000Z</time>
      </trkpt>
      <trkpt lat="43.65139" lon="3.68216">
        <ele>200.60000610352</ele>
        <time>2023-05-24T05:47:50.000Z</time>
      </trkpt>
      <trkpt lat="43.65139" lon="3.68216">
        <ele>201.19999694824</ele>
        <time>2023-05-24T05:47:53.000Z</time>
      </trkpt>
      <trkpt lat="43.65141" lon="3.68211">
        <ele>201.80000305176</ele>
        <time>2023-05-24T05:48:02.000Z</time>
      </trkpt>
      <trkpt lat="43.65142" lon="3.68207">
        <ele>202.19999694824</ele>
        <time>2023-05-24T05:48:10.000Z</time>
      </trkpt>
      <trkpt lat="43.65143" lon="3.68203">
        <ele>202.80000305176</ele>
        <time>2023-05-24T05:48:15.000Z</time>
      </trkpt>
      <trkpt lat="43.65143" lon="3.68203">
        <ele>203.19999694824</ele>
        <time>2023-05-24T05:48:17.000Z</time>
      </trkpt>
      <trkpt lat="43.65143" lon="3.68201">
        <ele>203.60000610352</ele>
        <time>2023-05-24T05:48:26.000Z</time>
      </trkpt>
      <trkpt lat="43.65144" lon="3.68197">
        <ele>203.39999389648</ele>
        <time>2023-05-24T05:48:32.000Z</time>
      </trkpt>
      <trkpt lat="43.65143" lon="3.68193">
        <ele>203.80000305176</ele>
        <time>2023-05-24T05:48:36.000Z</time>
      </trkpt>
      <trkpt lat="43.65143" lon="3.6819">
        <ele>204.19999694824</ele>
        <time>2023-05-24T05:48:40.000Z</time>
      </trkpt>
      <trkpt lat="43.65145" lon="3.68184">
        <ele>204.80000305176</ele>
        <time>2023-05-24T05:48:47.000Z</time>
      </trkpt>
      <trkpt lat="43.65145" lon="3.68184">
        <ele>204.80000305176</ele>
        <time>2023-05-24T05:48:48.000Z</time>
      </trkpt>
      <trkpt lat="43.65149" lon="3.68179">
        <ele>205.39999389648</ele>
        <time>2023-05-24T05:48:56.000Z</time>
      </trkpt>
      <trkpt lat="43.65152" lon="3.68172">
        <ele>205.80000305176</ele>
        <time>2023-05-24T05:49:04.000Z</time>
      </trkpt>
      <trkpt lat="43.65155" lon="3.68169">
        <ele>206.80000305176</ele>
        <time>2023-05-24T05:49:10.000Z</time>
      </trkpt>
      <trkpt lat="43.65156" lon="3.68169">
        <ele>207</ele>
        <time>2023-05-24T05:49:11.000Z</time>
      </trkpt>
      <trkpt lat="43.65157" lon="3.68168">
        <ele>207.80000305176</ele>
        <time>2023-05-24T05:49:18.000Z</time>
      </trkpt>
      <trkpt lat="43.65158" lon="3.68165">
        <ele>208</ele>
        <time>2023-05-24T05:49:26.000Z</time>
      </trkpt>
      <trkpt lat="43.6516" lon="3.6816">
        <ele>208.39999389648</ele>
        <time>2023-05-24T05:49:34.000Z</time>
      </trkpt>
      <trkpt lat="43.65161" lon="3.68157">
        <ele>208.80000305176</ele>
        <time>2023-05-24T05:49:42.000Z</time>
      </trkpt>
      <trkpt lat="43.65161" lon="3.68155">
        <ele>209</ele>
        <time>2023-05-24T05:49:44.000Z</time>
      </trkpt>
      <trkpt lat="43.65162" lon="3.68153">
        <ele>209.80000305176</ele>
        <time>2023-05-24T05:49:49.000Z</time>
      </trkpt>
      <trkpt lat="43.65161" lon="3.68152">
        <ele>210</ele>
        <time>2023-05-24T05:49:51.000Z</time>
      </trkpt>
      <trkpt lat="43.65161" lon="3.68151">
        <ele>210.60000610352</ele>
        <time>2023-05-24T05:49:55.000Z</time>
      </trkpt>
      <trkpt lat="43.65162" lon="3.68146">
        <ele>211.19999694824</ele>
        <time>2023-05-24T05:50:06.000Z</time>
      </trkpt>
      <trkpt lat="43.65167" lon="3.68141">
        <ele>211.19999694824</ele>
        <time>2023-05-24T05:50:13.000Z</time>
      </trkpt>
      <trkpt lat="43.65168" lon="3.68139">
        <ele>211.39999389648</ele>
        <time>2023-05-24T05:50:15.000Z</time>
      </trkpt>
      <trkpt lat="43.65171" lon="3.68136">
        <ele>211.80000305176</ele>
        <time>2023-05-24T05:50:20.000Z</time>
      </trkpt>
      <trkpt lat="43.65171" lon="3.68134">
        <ele>212.19999694824</ele>
        <time>2023-05-24T05:50:23.000Z</time>
      </trkpt>
      <trkpt lat="43.65172" lon="3.68131">
        <ele>212.39999389648</ele>
        <time>2023-05-24T05:50:28.000Z</time>
      </trkpt>
      <trkpt lat="43.65172" lon="3.68127">
        <ele>213</ele>
        <time>2023-05-24T05:50:35.000Z</time>
      </trkpt>
      <trkpt lat="43.65172" lon="3.68126">
        <ele>213.19999694824</ele>
        <time>2023-05-24T05:50:37.000Z</time>
      </trkpt>
      <trkpt lat="43.65172" lon="3.68123">
        <ele>213.80000305176</ele>
        <time>2023-05-24T05:50:42.000Z</time>
      </trkpt>
      <trkpt lat="43.65174" lon="3.68119">
        <ele>214.19999694824</ele>
        <time>2023-05-24T05:50:48.000Z</time>
      </trkpt>
      <trkpt lat="43.65174" lon="3.68118">
        <ele>214.19999694824</ele>
        <time>2023-05-24T05:50:49.000Z</time>
      </trkpt>
      <trkpt lat="43.65175" lon="3.68114">
        <ele>215.19999694824</ele>
        <time>2023-05-24T05:50:55.000Z</time>
      </trkpt>
      <trkpt lat="43.65177" lon="3.68108">
        <ele>216</ele>
        <time>2023-05-24T05:51:03.000Z</time>
      </trkpt>
      <trkpt lat="43.65177" lon="3.68107">
        <ele>216.39999389648</ele>
        <time>2023-05-24T05:51:05.000Z</time>
      </trkpt>
      <trkpt lat="43.65178" lon="3.68102">
        <ele>217</ele>
        <time>2023-05-24T05:51:11.000Z</time>
      </trkpt>
      <trkpt lat="43.65178" lon="3.681">
        <ele>217.39999389648</ele>
        <time>2023-05-24T05:51:14.000Z</time>
      </trkpt>
      <trkpt lat="43.65179" lon="3.68097">
        <ele>217.80000305176</ele>
        <time>2023-05-24T05:51:19.000Z</time>
      </trkpt>
      <trkpt lat="43.65179" lon="3.68093">
        <ele>218.39999389648</ele>
        <time>2023-05-24T05:51:24.000Z</time>
      </trkpt>
      <trkpt lat="43.6518" lon="3.68091">
        <ele>218.80000305176</ele>
        <time>2023-05-24T05:51:27.000Z</time>
      </trkpt>
      <trkpt lat="43.65181" lon="3.68085">
        <ele>219.60000610352</ele>
        <time>2023-05-24T05:51:34.000Z</time>
      </trkpt>
      <trkpt lat="43.65183" lon="3.68078">
        <ele>220</ele>
        <time>2023-05-24T05:51:42.000Z</time>
      </trkpt>
      <trkpt lat="43.65185" lon="3.68073">
        <ele>220.60000610352</ele>
        <time>2023-05-24T05:51:48.000Z</time>
      </trkpt>
      <trkpt lat="43.65185" lon="3.68072">
        <ele>220.80000305176</ele>
        <time>2023-05-24T05:51:51.000Z</time>
      </trkpt>
      <trkpt lat="43.65188" lon="3.68066">
        <ele>221.60000610352</ele>
        <time>2023-05-24T05:52:00.000Z</time>
      </trkpt>
      <trkpt lat="43.65188" lon="3.68065">
        <ele>221.60000610352</ele>
        <time>2023-05-24T05:52:01.000Z</time>
      </trkpt>
      <trkpt lat="43.65189" lon="3.68062">
        <ele>222.60000610352</ele>
        <time>2023-05-24T05:52:08.000Z</time>
      </trkpt>
      <trkpt lat="43.6519" lon="3.68061">
        <ele>222.60000610352</ele>
        <time>2023-05-24T05:52:10.000Z</time>
      </trkpt>
      <trkpt lat="43.65191" lon="3.68058">
        <ele>223.19999694824</ele>
        <time>2023-05-24T05:52:16.000Z</time>
      </trkpt>
      <trkpt lat="43.65192" lon="3.68055">
        <ele>223.60000610352</ele>
        <time>2023-05-24T05:52:20.000Z</time>
      </trkpt>
      <trkpt lat="43.65193" lon="3.68052">
        <ele>224.19999694824</ele>
        <time>2023-05-24T05:52:24.000Z</time>
      </trkpt>
      <trkpt lat="43.65194" lon="3.68049">
        <ele>224.60000610352</ele>
        <time>2023-05-24T05:52:29.000Z</time>
      </trkpt>
      <trkpt lat="43.65196" lon="3.68046">
        <ele>225</ele>
        <time>2023-05-24T05:52:32.000Z</time>
      </trkpt>
      <trkpt lat="43.65199" lon="3.68041">
        <ele>225.60000610352</ele>
        <time>2023-05-24T05:52:40.000Z</time>
      </trkpt>
      <trkpt lat="43.65199" lon="3.6804">
        <ele>225.80000305176</ele>
        <time>2023-05-24T05:52:41.000Z</time>
      </trkpt>
      <trkpt lat="43.65203" lon="3.68034">
        <ele>226.39999389648</ele>
        <time>2023-05-24T05:52:48.000Z</time>
      </trkpt>
      <trkpt lat="43.65205" lon="3.68031">
        <ele>226.60000610352</ele>
        <time>2023-05-24T05:52:52.000Z</time>
      </trkpt>
      <trkpt lat="43.65207" lon="3.68027">
        <ele>226.80000305176</ele>
        <time>2023-05-24T05:52:56.000Z</time>
      </trkpt>
      <trkpt lat="43.65207" lon="3.68026">
        <ele>227</ele>
        <time>2023-05-24T05:52:57.000Z</time>
      </trkpt>
      <trkpt lat="43.65211" lon="3.68019">
        <ele>227.80000305176</ele>
        <time>2023-05-24T05:53:04.000Z</time>
      </trkpt>
      <trkpt lat="43.65211" lon="3.68018">
        <ele>227.80000305176</ele>
        <time>2023-05-24T05:53:05.000Z</time>
      </trkpt>
      <trkpt lat="43.65212" lon="3.68016">
        <ele>228.19999694824</ele>
        <time>2023-05-24T05:53:08.000Z</time>
      </trkpt>
      <trkpt lat="43.65213" lon="3.68012">
        <ele>228.80000305176</ele>
        <time>2023-05-24T05:53:12.000Z</time>
      </trkpt>
      <trkpt lat="43.65214" lon="3.6801">
        <ele>228.80000305176</ele>
        <time>2023-05-24T05:53:14.000Z</time>
      </trkpt>
      <trkpt lat="43.65216" lon="3.68005">
        <ele>229.60000610352</ele>
        <time>2023-05-24T05:53:20.000Z</time>
      </trkpt>
      <trkpt lat="43.65218" lon="3.68004">
        <ele>230.19999694824</ele>
        <time>2023-05-24T05:53:23.000Z</time>
      </trkpt>
      <trkpt lat="43.6522" lon="3.68001">
        <ele>230.39999389648</ele>
        <time>2023-05-24T05:53:27.000Z</time>
      </trkpt>
      <trkpt lat="43.65223" lon="3.67996">
        <ele>230.80000305176</ele>
        <time>2023-05-24T05:53:34.000Z</time>
      </trkpt>
      <trkpt lat="43.65225" lon="3.67993">
        <ele>231.19999694824</ele>
        <time>2023-05-24T05:53:38.000Z</time>
      </trkpt>
      <trkpt lat="43.65228" lon="3.67988">
        <ele>231.80000305176</ele>
        <time>2023-05-24T05:53:44.000Z</time>
      </trkpt>
      <trkpt lat="43.65231" lon="3.67984">
        <ele>232.19999694824</ele>
        <time>2023-05-24T05:53:49.000Z</time>
      </trkpt>
      <trkpt lat="43.65232" lon="3.67982">
        <ele>232.39999389648</ele>
        <time>2023-05-24T05:53:52.000Z</time>
      </trkpt>
      <trkpt lat="43.65236" lon="3.67978">
        <ele>233</ele>
        <time>2023-05-24T05:53:59.000Z</time>
      </trkpt>
      <trkpt lat="43.65237" lon="3.67977">
        <ele>233.19999694824</ele>
        <time>2023-05-24T05:54:01.000Z</time>
      </trkpt>
      <trkpt lat="43.65241" lon="3.6797">
        <ele>233.80000305176</ele>
        <time>2023-05-24T05:54:09.000Z</time>
      </trkpt>
      <trkpt lat="43.65244" lon="3.67966">
        <ele>234.19999694824</ele>
        <time>2023-05-24T05:54:14.000Z</time>
      </trkpt>
      <trkpt lat="43.65246" lon="3.67965">
        <ele>234.39999389648</ele>
        <time>2023-05-24T05:54:16.000Z</time>
      </trkpt>
      <trkpt lat="43.6525" lon="3.6796">
        <ele>234.80000305176</ele>
        <time>2023-05-24T05:54:23.000Z</time>
      </trkpt>
      <trkpt lat="43.65253" lon="3.67955">
        <ele>235.19999694824</ele>
        <time>2023-05-24T05:54:29.000Z</time>
      </trkpt>
      <trkpt lat="43.65256" lon="3.67953">
        <ele>235.60000610352</ele>
        <time>2023-05-24T05:54:33.000Z</time>
      </trkpt>
      <trkpt lat="43.6526" lon="3.67948">
        <ele>236.19999694824</ele>
        <time>2023-05-24T05:54:41.000Z</time>
      </trkpt>
      <trkpt lat="43.65262" lon="3.67946">
        <ele>236.19999694824</ele>
        <time>2023-05-24T05:54:43.000Z</time>
      </trkpt>
      <trkpt lat="43.65265" lon="3.67944">
        <ele>236.80000305176</ele>
        <time>2023-05-24T05:54:48.000Z</time>
      </trkpt>
      <trkpt lat="43.65266" lon="3.67943">
        <ele>237.39999389648</ele>
        <time>2023-05-24T05:54:52.000Z</time>
      </trkpt>
      <trkpt lat="43.65266" lon="3.67943">
        <ele>237.60000610352</ele>
        <time>2023-05-24T05:54:54.000Z</time>
      </trkpt>
      <trkpt lat="43.6527" lon="3.67939">
        <ele>237.80000305176</ele>
        <time>2023-05-24T05:55:01.000Z</time>
      </trkpt>
      <trkpt lat="43.65272" lon="3.67935">
        <ele>238.39999389648</ele>
        <time>2023-05-24T05:55:05.000Z</time>
      </trkpt>
      <trkpt lat="43.65273" lon="3.67934">
        <ele>238.60000610352</ele>
        <time>2023-05-24T05:55:06.000Z</time>
      </trkpt>
      <trkpt lat="43.65277" lon="3.6793">
        <ele>239.19999694824</ele>
        <time>2023-05-24T05:55:14.000Z</time>
      </trkpt>
      <trkpt lat="43.65278" lon="3.67928">
        <ele>239.39999389648</ele>
        <time>2023-05-24T05:55:17.000Z</time>
      </trkpt>
      <trkpt lat="43.6528" lon="3.67927">
        <ele>240</ele>
        <time>2023-05-24T05:55:21.000Z</time>
      </trkpt>
      <trkpt lat="43.65283" lon="3.67924">
        <ele>240.60000610352</ele>
        <time>2023-05-24T05:55:27.000Z</time>
      </trkpt>
      <trkpt lat="43.65285" lon="3.67922">
        <ele>241</ele>
        <time>2023-05-24T05:55:30.000Z</time>
      </trkpt>
      <trkpt lat="43.65288" lon="3.67919">
        <ele>241.60000610352</ele>
        <time>2023-05-24T05:55:38.000Z</time>
      </trkpt>
      <trkpt lat="43.65292" lon="3.67917">
        <ele>242.39999389648</ele>
        <time>2023-05-24T05:55:45.000Z</time>
      </trkpt>
      <trkpt lat="43.65294" lon="3.67915">
        <ele>242.80000305176</ele>
        <time>2023-05-24T05:55:49.000Z</time>
      </trkpt>
      <trkpt lat="43.65297" lon="3.67913">
        <ele>243.19999694824</ele>
        <time>2023-05-24T05:55:54.000Z</time>
      </trkpt>
      <trkpt lat="43.65301" lon="3.67911">
        <ele>243.80000305176</ele>
        <time>2023-05-24T05:56:00.000Z</time>
      </trkpt>
      <trkpt lat="43.65302" lon="3.6791">
        <ele>244.19999694824</ele>
        <time>2023-05-24T05:56:02.000Z</time>
      </trkpt>
      <trkpt lat="43.65306" lon="3.67908">
        <ele>244.39999389648</ele>
        <time>2023-05-24T05:56:10.000Z</time>
      </trkpt>
      <trkpt lat="43.65308" lon="3.67906">
        <ele>245</ele>
        <time>2023-05-24T05:56:15.000Z</time>
      </trkpt>
      <trkpt lat="43.65309" lon="3.67906">
        <ele>245.39999389648</ele>
        <time>2023-05-24T05:56:18.000Z</time>
      </trkpt>
      <trkpt lat="43.65311" lon="3.67903">
        <ele>245.80000305176</ele>
        <time>2023-05-24T05:56:25.000Z</time>
      </trkpt>
      <trkpt lat="43.65312" lon="3.67902">
        <ele>246</ele>
        <time>2023-05-24T05:56:27.000Z</time>
      </trkpt>
      <trkpt lat="43.65315" lon="3.67899">
        <ele>247</ele>
        <time>2023-05-24T05:56:34.000Z</time>
      </trkpt>
      <trkpt lat="43.65315" lon="3.67899">
        <ele>247</ele>
        <time>2023-05-24T05:56:36.000Z</time>
      </trkpt>
      <trkpt lat="43.65319" lon="3.67895">
        <ele>247.60000610352</ele>
        <time>2023-05-24T05:56:42.000Z</time>
      </trkpt>
      <trkpt lat="43.6532" lon="3.67893">
        <ele>248.19999694824</ele>
        <time>2023-05-24T05:56:47.000Z</time>
      </trkpt>
      <trkpt lat="43.65321" lon="3.6789">
        <ele>248.39999389648</ele>
        <time>2023-05-24T05:56:50.000Z</time>
      </trkpt>
      <trkpt lat="43.65323" lon="3.67887">
        <ele>249</ele>
        <time>2023-05-24T05:56:56.000Z</time>
      </trkpt>
      <trkpt lat="43.65323" lon="3.67886">
        <ele>249.19999694824</ele>
        <time>2023-05-24T05:56:57.000Z</time>
      </trkpt>
      <trkpt lat="43.65326" lon="3.67883">
        <ele>249.80000305176</ele>
        <time>2023-05-24T05:57:03.000Z</time>
      </trkpt>
      <trkpt lat="43.65328" lon="3.6788">
        <ele>250.19999694824</ele>
        <time>2023-05-24T05:57:09.000Z</time>
      </trkpt>
      <trkpt lat="43.6533" lon="3.67878">
        <ele>250.60000610352</ele>
        <time>2023-05-24T05:57:12.000Z</time>
      </trkpt>
      <trkpt lat="43.65331" lon="3.67874">
        <ele>251.39999389648</ele>
        <time>2023-05-24T05:57:18.000Z</time>
      </trkpt>
      <trkpt lat="43.65331" lon="3.67874">
        <ele>251.60000610352</ele>
        <time>2023-05-24T05:57:20.000Z</time>
      </trkpt>
      <trkpt lat="43.65334" lon="3.6787">
        <ele>252.19999694824</ele>
        <time>2023-05-24T05:57:28.000Z</time>
      </trkpt>
      <trkpt lat="43.65335" lon="3.67868">
        <ele>252.39999389648</ele>
        <time>2023-05-24T05:57:32.000Z</time>
      </trkpt>
      <trkpt lat="43.65336" lon="3.67866">
        <ele>253.19999694824</ele>
        <time>2023-05-24T05:57:36.000Z</time>
      </trkpt>
      <trkpt lat="43.65337" lon="3.67862">
        <ele>253.39999389648</ele>
        <time>2023-05-24T05:57:43.000Z</time>
      </trkpt>
      <trkpt lat="43.65337" lon="3.67861">
        <ele>253.60000610352</ele>
        <time>2023-05-24T05:57:44.000Z</time>
      </trkpt>
      <trkpt lat="43.65338" lon="3.67856">
        <ele>254.39999389648</ele>
        <time>2023-05-24T05:57:51.000Z</time>
      </trkpt>
      <trkpt lat="43.65339" lon="3.67854">
        <ele>254.60000610352</ele>
        <time>2023-05-24T05:57:54.000Z</time>
      </trkpt>
      <trkpt lat="43.6534" lon="3.6785">
        <ele>255.19999694824</ele>
        <time>2023-05-24T05:58:00.000Z</time>
      </trkpt>
      <trkpt lat="43.6534" lon="3.67847">
        <ele>255.80000305176</ele>
        <time>2023-05-24T05:58:04.000Z</time>
      </trkpt>
      <trkpt lat="43.65341" lon="3.67844">
        <ele>256.20001220703</ele>
        <time>2023-05-24T05:58:08.000Z</time>
      </trkpt>
      <trkpt lat="43.65342" lon="3.67842">
        <ele>256.79998779297</ele>
        <time>2023-05-24T05:58:13.000Z</time>
      </trkpt>
      <trkpt lat="43.65342" lon="3.6784">
        <ele>257</ele>
        <time>2023-05-24T05:58:16.000Z</time>
      </trkpt>
      <trkpt lat="43.65343" lon="3.67837">
        <ele>257.79998779297</ele>
        <time>2023-05-24T05:58:22.000Z</time>
      </trkpt>
      <trkpt lat="43.65343" lon="3.67838">
        <ele>258.20001220703</ele>
        <time>2023-05-24T05:58:24.000Z</time>
      </trkpt>
      <trkpt lat="43.65342" lon="3.67833">
        <ele>259</ele>
        <time>2023-05-24T05:58:29.000Z</time>
      </trkpt>
      <trkpt lat="43.65343" lon="3.67832">
        <ele>259.20001220703</ele>
        <time>2023-05-24T05:58:31.000Z</time>
      </trkpt>
      <trkpt lat="43.65343" lon="3.67827">
        <ele>260</ele>
        <time>2023-05-24T05:58:39.000Z</time>
      </trkpt>
      <trkpt lat="43.65343" lon="3.67822">
        <ele>261</ele>
        <time>2023-05-24T05:58:47.000Z</time>
      </trkpt>
      <trkpt lat="43.65345" lon="3.67819">
        <ele>261.79998779297</ele>
        <time>2023-05-24T05:58:53.000Z</time>
      </trkpt>
      <trkpt lat="43.6534" lon="3.67816">
        <ele>262</ele>
        <time>2023-05-24T05:58:59.000Z</time>
      </trkpt>
      <trkpt lat="43.65335" lon="3.67817">
        <ele>261.39999389648</ele>
        <time>2023-05-24T05:59:05.000Z</time>
      </trkpt>
      <trkpt lat="43.65331" lon="3.67819">
        <ele>261.20001220703</ele>
        <time>2023-05-24T05:59:12.000Z</time>
      </trkpt>
      <trkpt lat="43.65331" lon="3.67819">
        <ele>261.39999389648</ele>
        <time>2023-05-24T05:59:20.000Z</time>
      </trkpt>
      <trkpt lat="43.65331" lon="3.67818">
        <ele>261.39999389648</ele>
        <time>2023-05-24T05:59:27.000Z</time>
      </trkpt>
      <trkpt lat="43.65331" lon="3.67818">
        <ele>261.39999389648</ele>
        <time>2023-05-24T05:59:32.000Z</time>
      </trkpt>
      <trkpt lat="43.65331" lon="3.67817">
        <ele>261</ele>
        <time>2023-05-24T05:59:43.000Z</time>
      </trkpt>
      <trkpt lat="43.65331" lon="3.67818">
        <ele>261.60000610352</ele>
        <time>2023-05-24T05:59:50.000Z</time>
      </trkpt>
      <trkpt lat="43.65331" lon="3.67818">
        <ele>261.39999389648</ele>
        <time>2023-05-24T05:59:57.000Z</time>
      </trkpt>
      <trkpt lat="43.65331" lon="3.67818">
        <ele>261.60000610352</ele>
        <time>2023-05-24T06:00:03.000Z</time>
      </trkpt>
      <trkpt lat="43.6533" lon="3.67818">
        <ele>261.39999389648</ele>
        <time>2023-05-24T06:00:12.000Z</time>
      </trkpt>
      <trkpt lat="43.6533" lon="3.67818">
        <ele>261.39999389648</ele>
        <time>2023-05-24T06:00:20.000Z</time>
      </trkpt>
      <trkpt lat="43.6533" lon="3.67818">
        <ele>261.20001220703</ele>
        <time>2023-05-24T06:00:32.000Z</time>
      </trkpt>
      <trkpt lat="43.6533" lon="3.67818">
        <ele>261</ele>
        <time>2023-05-24T06:00:38.000Z</time>
      </trkpt>
      <trkpt lat="43.65329" lon="3.67817">
        <ele>261.60000610352</ele>
        <time>2023-05-24T06:00:51.000Z</time>
      </trkpt>
      <trkpt lat="43.65329" lon="3.67817">
        <ele>261.39999389648</ele>
        <time>2023-05-24T06:01:14.000Z</time>
      </trkpt>
      <trkpt lat="43.65329" lon="3.67817">
        <ele>264</ele>
        <time>2023-05-24T06:01:16.000Z</time>
      </trkpt>
      <trkpt lat="43.65329" lon="3.67817">
        <ele>261.39999389648</ele>
        <time>2023-05-24T06:01:21.000Z</time>
      </trkpt>
      <trkpt lat="43.65329" lon="3.67817">
        <ele>261.60000610352</ele>
        <time>2023-05-24T06:01:31.000Z</time>
      </trkpt>
      <trkpt lat="43.65328" lon="3.67816">
        <ele>261.20001220703</ele>
        <time>2023-05-24T06:01:48.000Z</time>
      </trkpt>
      <trkpt lat="43.65328" lon="3.67816">
        <ele>261.20001220703</ele>
        <time>2023-05-24T06:02:02.000Z</time>
      </trkpt>
      <trkpt lat="43.65327" lon="3.67815">
        <ele>261.20001220703</ele>
        <time>2023-05-24T06:02:15.000Z</time>
      </trkpt>
      <trkpt lat="43.65328" lon="3.67816">
        <ele>261</ele>
        <time>2023-05-24T06:02:28.000Z</time>
      </trkpt>
      <trkpt lat="43.65328" lon="3.67817">
        <ele>261</ele>
        <time>2023-05-24T06:02:45.000Z</time>
      </trkpt>
      <trkpt lat="43.65328" lon="3.67817">
        <ele>261</ele>
        <time>2023-05-24T06:02:51.000Z</time>
      </trkpt>
      <trkpt lat="43.65328" lon="3.67817">
        <ele>261.60000610352</ele>
        <time>2023-05-24T06:03:00.000Z</time>
      </trkpt>
      <trkpt lat="43.65329" lon="3.67818">
        <ele>260.79998779297</ele>
        <time>2023-05-24T06:03:11.000Z</time>
      </trkpt>
      <trkpt lat="43.65327" lon="3.67815">
        <ele>261</ele>
        <time>2023-05-24T06:03:19.000Z</time>
      </trkpt>
      <trkpt lat="43.65322" lon="3.67811">
        <ele>261.39999389648</ele>
        <time>2023-05-24T06:03:26.000Z</time>
      </trkpt>
      <trkpt lat="43.65317" lon="3.67811">
        <ele>261.39999389648</ele>
        <time>2023-05-24T06:03:33.000Z</time>
      </trkpt>
      <trkpt lat="43.65318" lon="3.67811">
        <ele>261.60000610352</ele>
        <time>2023-05-24T06:03:42.000Z</time>
      </trkpt>
      <trkpt lat="43.65323" lon="3.67814">
        <ele>261.20001220703</ele>
        <time>2023-05-24T06:03:48.000Z</time>
      </trkpt>
      <trkpt lat="43.65328" lon="3.67816">
        <ele>261.20001220703</ele>
        <time>2023-05-24T06:03:55.000Z</time>
      </trkpt>
      <trkpt lat="43.65328" lon="3.67816">
        <ele>260.39999389648</ele>
        <time>2023-05-24T06:04:02.000Z</time>
      </trkpt>
      <trkpt lat="43.65328" lon="3.67816">
        <ele>261</ele>
        <time>2023-05-24T06:04:06.000Z</time>
      </trkpt>
      <trkpt lat="43.65328" lon="3.67816">
        <ele>261.39999389648</ele>
        <time>2023-05-24T06:04:08.000Z</time>
      </trkpt>
      <trkpt lat="43.65328" lon="3.67815">
        <ele>261.60000610352</ele>
        <time>2023-05-24T06:04:18.000Z</time>
      </trkpt>
      <trkpt lat="43.65328" lon="3.67814">
        <ele>261.39999389648</ele>
        <time>2023-05-24T06:04:24.000Z</time>
      </trkpt>
      <trkpt lat="43.65328" lon="3.67814">
        <ele>261.20001220703</ele>
        <time>2023-05-24T06:04:42.000Z</time>
      </trkpt>
      <trkpt lat="43.65327" lon="3.67812">
        <ele>261.39999389648</ele>
        <time>2023-05-24T06:05:06.000Z</time>
      </trkpt>
      <trkpt lat="43.65327" lon="3.67813">
        <ele>261.39999389648</ele>
        <time>2023-05-24T06:05:30.000Z</time>
      </trkpt>
      <trkpt lat="43.65326" lon="3.67812">
        <ele>261.39999389648</ele>
        <time>2023-05-24T06:05:39.000Z</time>
      </trkpt>
      <trkpt lat="43.65326" lon="3.67813">
        <ele>261.60000610352</ele>
        <time>2023-05-24T06:05:48.000Z</time>
      </trkpt>
      <trkpt lat="43.65324" lon="3.6781">
        <ele>261.60000610352</ele>
        <time>2023-05-24T06:05:56.000Z</time>
      </trkpt>
      <trkpt lat="43.65325" lon="3.67811">
        <ele>261.79998779297</ele>
        <time>2023-05-24T06:06:02.000Z</time>
      </trkpt>
      <trkpt lat="43.65326" lon="3.67814">
        <ele>261.60000610352</ele>
        <time>2023-05-24T06:06:14.000Z</time>
      </trkpt>
      <trkpt lat="43.65324" lon="3.6781">
        <ele>261.60000610352</ele>
        <time>2023-05-24T06:06:22.000Z</time>
      </trkpt>
      <trkpt lat="43.65321" lon="3.67806">
        <ele>261.79998779297</ele>
        <time>2023-05-24T06:06:30.000Z</time>
      </trkpt>
      <trkpt lat="43.65322" lon="3.67807">
        <ele>261.79998779297</ele>
        <time>2023-05-24T06:06:38.000Z</time>
      </trkpt>
      <trkpt lat="43.65325" lon="3.6781">
        <ele>261.79998779297</ele>
        <time>2023-05-24T06:06:44.000Z</time>
      </trkpt>
      <trkpt lat="43.65328" lon="3.67816">
        <ele>261.60000610352</ele>
        <time>2023-05-24T06:06:52.000Z</time>
      </trkpt>
      <trkpt lat="43.65329" lon="3.67816">
        <ele>261.20001220703</ele>
        <time>2023-05-24T06:06:58.000Z</time>
      </trkpt>
      <trkpt lat="43.65329" lon="3.67817">
        <ele>261.39999389648</ele>
        <time>2023-05-24T06:07:05.000Z</time>
      </trkpt>
      <trkpt lat="43.65328" lon="3.67817">
        <ele>260.79998779297</ele>
        <time>2023-05-24T06:07:16.000Z</time>
      </trkpt>
      <trkpt lat="43.65328" lon="3.67817">
        <ele>260.39999389648</ele>
        <time>2023-05-24T06:07:23.000Z</time>
      </trkpt>
      <trkpt lat="43.65329" lon="3.67816">
        <ele>261.39999389648</ele>
        <time>2023-05-24T06:07:36.000Z</time>
      </trkpt>
      <trkpt lat="43.65329" lon="3.67815">
        <ele>261.20001220703</ele>
        <time>2023-05-24T06:07:43.000Z</time>
      </trkpt>
      <trkpt lat="43.6533" lon="3.67814">
        <ele>261.39999389648</ele>
        <time>2023-05-24T06:07:49.000Z</time>
      </trkpt>
      <trkpt lat="43.65332" lon="3.67807">
        <ele>261.39999389648</ele>
        <time>2023-05-24T06:07:56.000Z</time>
      </trkpt>
      <trkpt lat="43.65334" lon="3.67803">
        <ele>261.60000610352</ele>
        <time>2023-05-24T06:08:01.000Z</time>
      </trkpt>
      <trkpt lat="43.65335" lon="3.67796">
        <ele>261.79998779297</ele>
        <time>2023-05-24T06:08:07.000Z</time>
      </trkpt>
      <trkpt lat="43.65338" lon="3.67787">
        <ele>261.60000610352</ele>
        <time>2023-05-24T06:08:13.000Z</time>
      </trkpt>
      <trkpt lat="43.65339" lon="3.67785">
        <ele>261.60000610352</ele>
        <time>2023-05-24T06:08:14.000Z</time>
      </trkpt>
      <trkpt lat="43.65346" lon="3.67775">
        <ele>261.20001220703</ele>
        <time>2023-05-24T06:08:22.000Z</time>
      </trkpt>
      <trkpt lat="43.65349" lon="3.67771">
        <ele>261</ele>
        <time>2023-05-24T06:08:25.000Z</time>
      </trkpt>
      <trkpt lat="43.65351" lon="3.67768">
        <ele>260.79998779297</ele>
        <time>2023-05-24T06:08:28.000Z</time>
      </trkpt>
      <trkpt lat="43.65352" lon="3.67764">
        <ele>260.60000610352</ele>
        <time>2023-05-24T06:08:30.000Z</time>
      </trkpt>
      <trkpt lat="43.65354" lon="3.67759">
        <ele>260.39999389648</ele>
        <time>2023-05-24T06:08:33.000Z</time>
      </trkpt>
      <trkpt lat="43.65356" lon="3.67756">
        <ele>260.20001220703</ele>
        <time>2023-05-24T06:08:35.000Z</time>
      </trkpt>
      <trkpt lat="43.65358" lon="3.6775">
        <ele>259.79998779297</ele>
        <time>2023-05-24T06:08:39.000Z</time>
      </trkpt>
      <trkpt lat="43.65359" lon="3.67745">
        <ele>259.60000610352</ele>
        <time>2023-05-24T06:08:42.000Z</time>
      </trkpt>
      <trkpt lat="43.65361" lon="3.67739">
        <ele>259.20001220703</ele>
        <time>2023-05-24T06:08:46.000Z</time>
      </trkpt>
      <trkpt lat="43.65362" lon="3.67738">
        <ele>259</ele>
        <time>2023-05-24T06:08:47.000Z</time>
      </trkpt>
      <trkpt lat="43.65363" lon="3.67734">
        <ele>258.79998779297</ele>
        <time>2023-05-24T06:08:50.000Z</time>
      </trkpt>
      <trkpt lat="43.65363" lon="3.67729">
        <ele>258.20001220703</ele>
        <time>2023-05-24T06:08:56.000Z</time>
      </trkpt>
      <trkpt lat="43.65363" lon="3.67729">
        <ele>258.20001220703</ele>
        <time>2023-05-24T06:08:57.000Z</time>
      </trkpt>
      <trkpt lat="43.65363" lon="3.6773">
        <ele>258.20001220703</ele>
        <time>2023-05-24T06:08:58.000Z</time>
      </trkpt>
      <trkpt lat="43.65364" lon="3.67723">
        <ele>257.79998779297</ele>
        <time>2023-05-24T06:09:04.000Z</time>
      </trkpt>
      <trkpt lat="43.65367" lon="3.67713">
        <ele>257.20001220703</ele>
        <time>2023-05-24T06:09:12.000Z</time>
      </trkpt>
      <trkpt lat="43.65367" lon="3.6771">
        <ele>257</ele>
        <time>2023-05-24T06:09:14.000Z</time>
      </trkpt>
      <trkpt lat="43.65368" lon="3.67698">
        <ele>256.39999389648</ele>
        <time>2023-05-24T06:09:21.000Z</time>
      </trkpt>
      <trkpt lat="43.6537" lon="3.67691">
        <ele>256</ele>
        <time>2023-05-24T06:09:26.000Z</time>
      </trkpt>
      <trkpt lat="43.65371" lon="3.67686">
        <ele>255.80000305176</ele>
        <time>2023-05-24T06:09:29.000Z</time>
      </trkpt>
      <trkpt lat="43.65372" lon="3.67682">
        <ele>255.60000610352</ele>
        <time>2023-05-24T06:09:32.000Z</time>
      </trkpt>
      <trkpt lat="43.65372" lon="3.67676">
        <ele>255.39999389648</ele>
        <time>2023-05-24T06:09:35.000Z</time>
      </trkpt>
      <trkpt lat="43.65375" lon="3.67663">
        <ele>255</ele>
        <time>2023-05-24T06:09:44.000Z</time>
      </trkpt>
      <trkpt lat="43.65375" lon="3.67661">
        <ele>255</ele>
        <time>2023-05-24T06:09:45.000Z</time>
      </trkpt>
      <trkpt lat="43.65377" lon="3.67648">
        <ele>254.60000610352</ele>
        <time>2023-05-24T06:09:53.000Z</time>
      </trkpt>
      <trkpt lat="43.65379" lon="3.67642">
        <ele>254.60000610352</ele>
        <time>2023-05-24T06:09:57.000Z</time>
      </trkpt>
      <trkpt lat="43.6538" lon="3.67637">
        <ele>254.60000610352</ele>
        <time>2023-05-24T06:10:00.000Z</time>
      </trkpt>
      <trkpt lat="43.65383" lon="3.67623">
        <ele>254.39999389648</ele>
        <time>2023-05-24T06:10:09.000Z</time>
      </trkpt>
      <trkpt lat="43.65384" lon="3.67614">
        <ele>254.39999389648</ele>
        <time>2023-05-24T06:10:15.000Z</time>
      </trkpt>
      <trkpt lat="43.65386" lon="3.67607">
        <ele>254.39999389648</ele>
        <time>2023-05-24T06:10:20.000Z</time>
      </trkpt>
      <trkpt lat="43.65387" lon="3.67604">
        <ele>254.39999389648</ele>
        <time>2023-05-24T06:10:23.000Z</time>
      </trkpt>
      <trkpt lat="43.65388" lon="3.67595">
        <ele>254.39999389648</ele>
        <time>2023-05-24T06:10:29.000Z</time>
      </trkpt>
      <trkpt lat="43.6539" lon="3.67589">
        <ele>254.39999389648</ele>
        <time>2023-05-24T06:10:35.000Z</time>
      </trkpt>
      <trkpt lat="43.6539" lon="3.67587">
        <ele>254.39999389648</ele>
        <time>2023-05-24T06:10:36.000Z</time>
      </trkpt>
      <trkpt lat="43.65392" lon="3.6758">
        <ele>254.39999389648</ele>
        <time>2023-05-24T06:10:41.000Z</time>
      </trkpt>
      <trkpt lat="43.65392" lon="3.67576">
        <ele>254.39999389648</ele>
        <time>2023-05-24T06:10:43.000Z</time>
      </trkpt>
      <trkpt lat="43.65393" lon="3.6757">
        <ele>254.60000610352</ele>
        <time>2023-05-24T06:10:47.000Z</time>
      </trkpt>
      <trkpt lat="43.65394" lon="3.67563">
        <ele>254.60000610352</ele>
        <time>2023-05-24T06:10:51.000Z</time>
      </trkpt>
      <trkpt lat="43.65395" lon="3.67551">
        <ele>254.80000305176</ele>
        <time>2023-05-24T06:10:58.000Z</time>
      </trkpt>
      <trkpt lat="43.65397" lon="3.67535">
        <ele>255.19999694824</ele>
        <time>2023-05-24T06:11:07.000Z</time>
      </trkpt>
      <trkpt lat="43.65399" lon="3.67521">
        <ele>255.60000610352</ele>
        <time>2023-05-24T06:11:15.000Z</time>
      </trkpt>
      <trkpt lat="43.654" lon="3.67512">
        <ele>255.60000610352</ele>
        <time>2023-05-24T06:11:21.000Z</time>
      </trkpt>
      <trkpt lat="43.65402" lon="3.67498">
        <ele>256</ele>
        <time>2023-05-24T06:11:30.000Z</time>
      </trkpt>
      <trkpt lat="43.65402" lon="3.67494">
        <ele>256</ele>
        <time>2023-05-24T06:11:33.000Z</time>
      </trkpt>
      <trkpt lat="43.65403" lon="3.67491">
        <ele>256</ele>
        <time>2023-05-24T06:11:35.000Z</time>
      </trkpt>
      <trkpt lat="43.65403" lon="3.67487">
        <ele>256</ele>
        <time>2023-05-24T06:11:37.000Z</time>
      </trkpt>
      <trkpt lat="43.65404" lon="3.67477">
        <ele>256.20001220703</ele>
        <time>2023-05-24T06:11:44.000Z</time>
      </trkpt>
      <trkpt lat="43.65406" lon="3.67467">
        <ele>256.39999389648</ele>
        <time>2023-05-24T06:11:51.000Z</time>
      </trkpt>
      <trkpt lat="43.65406" lon="3.67465">
        <ele>256.39999389648</ele>
        <time>2023-05-24T06:11:52.000Z</time>
      </trkpt>
      <trkpt lat="43.65408" lon="3.67457">
        <ele>256.39999389648</ele>
        <time>2023-05-24T06:11:57.000Z</time>
      </trkpt>
      <trkpt lat="43.65411" lon="3.67445">
        <ele>256.79998779297</ele>
        <time>2023-05-24T06:12:05.000Z</time>
      </trkpt>
      <trkpt lat="43.65411" lon="3.6744">
        <ele>256.79998779297</ele>
        <time>2023-05-24T06:12:08.000Z</time>
      </trkpt>
      <trkpt lat="43.65412" lon="3.67432">
        <ele>256.79998779297</ele>
        <time>2023-05-24T06:12:12.000Z</time>
      </trkpt>
      <trkpt lat="43.65413" lon="3.6743">
        <ele>256.79998779297</ele>
        <time>2023-05-24T06:12:13.000Z</time>
      </trkpt>
      <trkpt lat="43.65414" lon="3.67426">
        <ele>256.79998779297</ele>
        <time>2023-05-24T06:12:16.000Z</time>
      </trkpt>
      <trkpt lat="43.65414" lon="3.67421">
        <ele>256.79998779297</ele>
        <time>2023-05-24T06:12:19.000Z</time>
      </trkpt>
      <trkpt lat="43.65415" lon="3.67416">
        <ele>256.79998779297</ele>
        <time>2023-05-24T06:12:22.000Z</time>
      </trkpt>
      <trkpt lat="43.65416" lon="3.67408">
        <ele>257</ele>
        <time>2023-05-24T06:12:26.000Z</time>
      </trkpt>
      <trkpt lat="43.65418" lon="3.67394">
        <ele>257</ele>
        <time>2023-05-24T06:12:34.000Z</time>
      </trkpt>
      <trkpt lat="43.65419" lon="3.67378">
        <ele>257</ele>
        <time>2023-05-24T06:12:43.000Z</time>
      </trkpt>
      <trkpt lat="43.65421" lon="3.67363">
        <ele>256.39999389648</ele>
        <time>2023-05-24T06:12:52.000Z</time>
      </trkpt>
      <trkpt lat="43.65423" lon="3.67351">
        <ele>256.39999389648</ele>
        <time>2023-05-24T06:13:00.000Z</time>
      </trkpt>
      <trkpt lat="43.65425" lon="3.67338">
        <ele>256.20001220703</ele>
        <time>2023-05-24T06:13:09.000Z</time>
      </trkpt>
      <trkpt lat="43.65427" lon="3.67324">
        <ele>256</ele>
        <time>2023-05-24T06:13:18.000Z</time>
      </trkpt>
      <trkpt lat="43.65428" lon="3.67319">
        <ele>255.80000305176</ele>
        <time>2023-05-24T06:13:24.000Z</time>
      </trkpt>
      <trkpt lat="43.65429" lon="3.67309">
        <ele>255.60000610352</ele>
        <time>2023-05-24T06:13:30.000Z</time>
      </trkpt>
      <trkpt lat="43.6543" lon="3.67297">
        <ele>255.39999389648</ele>
        <time>2023-05-24T06:13:38.000Z</time>
      </trkpt>
      <trkpt lat="43.65431" lon="3.67294">
        <ele>255.39999389648</ele>
        <time>2023-05-24T06:13:40.000Z</time>
      </trkpt>
      <trkpt lat="43.65432" lon="3.67287">
        <ele>255.19999694824</ele>
        <time>2023-05-24T06:13:44.000Z</time>
      </trkpt>
      <trkpt lat="43.65433" lon="3.67276">
        <ele>255</ele>
        <time>2023-05-24T06:13:50.000Z</time>
      </trkpt>
      <trkpt lat="43.65434" lon="3.67273">
        <ele>255</ele>
        <time>2023-05-24T06:13:52.000Z</time>
      </trkpt>
      <trkpt lat="43.65434" lon="3.67269">
        <ele>254.80000305176</ele>
        <time>2023-05-24T06:13:54.000Z</time>
      </trkpt>
      <trkpt lat="43.65435" lon="3.6726">
        <ele>254.80000305176</ele>
        <time>2023-05-24T06:13:59.000Z</time>
      </trkpt>
      <trkpt lat="43.65437" lon="3.67248">
        <ele>254.60000610352</ele>
        <time>2023-05-24T06:14:06.000Z</time>
      </trkpt>
      <trkpt lat="43.65437" lon="3.67246">
        <ele>254.60000610352</ele>
        <time>2023-05-24T06:14:07.000Z</time>
      </trkpt>
      <trkpt lat="43.65438" lon="3.67239">
        <ele>254.39999389648</ele>
        <time>2023-05-24T06:14:11.000Z</time>
      </trkpt>
      <trkpt lat="43.65439" lon="3.67237">
        <ele>254.39999389648</ele>
        <time>2023-05-24T06:14:12.000Z</time>
      </trkpt>
      <trkpt lat="43.6544" lon="3.6723">
        <ele>254.39999389648</ele>
        <time>2023-05-24T06:14:16.000Z</time>
      </trkpt>
      <trkpt lat="43.65441" lon="3.67224">
        <ele>254.39999389648</ele>
        <time>2023-05-24T06:14:19.000Z</time>
      </trkpt>
      <trkpt lat="43.65442" lon="3.67215">
        <ele>254.19999694824</ele>
        <time>2023-05-24T06:14:25.000Z</time>
      </trkpt>
      <trkpt lat="43.65443" lon="3.67213">
        <ele>254.19999694824</ele>
        <time>2023-05-24T06:14:26.000Z</time>
      </trkpt>
      <trkpt lat="43.65444" lon="3.67208">
        <ele>254.19999694824</ele>
        <time>2023-05-24T06:14:29.000Z</time>
      </trkpt>
      <trkpt lat="43.65447" lon="3.67204">
        <ele>254</ele>
        <time>2023-05-24T06:14:32.000Z</time>
      </trkpt>
      <trkpt lat="43.65453" lon="3.67188">
        <ele>253.80000305176</ele>
        <time>2023-05-24T06:14:40.000Z</time>
      </trkpt>
      <trkpt lat="43.65461" lon="3.67172">
        <ele>253</ele>
        <time>2023-05-24T06:14:49.000Z</time>
      </trkpt>
      <trkpt lat="43.65462" lon="3.67171">
        <ele>253</ele>
        <time>2023-05-24T06:14:50.000Z</time>
      </trkpt>
      <trkpt lat="43.65469" lon="3.67161">
        <ele>252.39999389648</ele>
        <time>2023-05-24T06:14:57.000Z</time>
      </trkpt>
      <trkpt lat="43.65476" lon="3.67154">
        <ele>252</ele>
        <time>2023-05-24T06:15:03.000Z</time>
      </trkpt>
      <trkpt lat="43.65478" lon="3.67152">
        <ele>251.80000305176</ele>
        <time>2023-05-24T06:15:05.000Z</time>
      </trkpt>
      <trkpt lat="43.65488" lon="3.67143">
        <ele>250.80000305176</ele>
        <time>2023-05-24T06:15:13.000Z</time>
      </trkpt>
      <trkpt lat="43.65489" lon="3.67142">
        <ele>250.60000610352</ele>
        <time>2023-05-24T06:15:14.000Z</time>
      </trkpt>
      <trkpt lat="43.65497" lon="3.67134">
        <ele>249.80000305176</ele>
        <time>2023-05-24T06:15:21.000Z</time>
      </trkpt>
      <trkpt lat="43.655" lon="3.67129">
        <ele>249.39999389648</ele>
        <time>2023-05-24T06:15:24.000Z</time>
      </trkpt>
      <trkpt lat="43.65506" lon="3.67121">
        <ele>248.60000610352</ele>
        <time>2023-05-24T06:15:30.000Z</time>
      </trkpt>
      <trkpt lat="43.65508" lon="3.67117">
        <ele>248</ele>
        <time>2023-05-24T06:15:33.000Z</time>
      </trkpt>
      <trkpt lat="43.6551" lon="3.67112">
        <ele>247.60000610352</ele>
        <time>2023-05-24T06:15:36.000Z</time>
      </trkpt>
      <trkpt lat="43.65515" lon="3.67104">
        <ele>246.60000610352</ele>
        <time>2023-05-24T06:15:42.000Z</time>
      </trkpt>
      <trkpt lat="43.65516" lon="3.67102">
        <ele>246.39999389648</ele>
        <time>2023-05-24T06:15:43.000Z</time>
      </trkpt>
      <trkpt lat="43.65521" lon="3.67094">
        <ele>245.39999389648</ele>
        <time>2023-05-24T06:15:50.000Z</time>
      </trkpt>
      <trkpt lat="43.65522" lon="3.67092">
        <ele>245.19999694824</ele>
        <time>2023-05-24T06:15:51.000Z</time>
      </trkpt>
      <trkpt lat="43.65526" lon="3.67083">
        <ele>244.19999694824</ele>
        <time>2023-05-24T06:15:57.000Z</time>
      </trkpt>
      <trkpt lat="43.65528" lon="3.6708">
        <ele>244</ele>
        <time>2023-05-24T06:15:59.000Z</time>
      </trkpt>
      <trkpt lat="43.65534" lon="3.67068">
        <ele>243.19999694824</ele>
        <time>2023-05-24T06:16:07.000Z</time>
      </trkpt>
      <trkpt lat="43.65539" lon="3.67057">
        <ele>242</ele>
        <time>2023-05-24T06:16:14.000Z</time>
      </trkpt>
      <trkpt lat="43.6554" lon="3.67055">
        <ele>242</ele>
        <time>2023-05-24T06:16:15.000Z</time>
      </trkpt>
      <trkpt lat="43.65545" lon="3.67043">
        <ele>241.19999694824</ele>
        <time>2023-05-24T06:16:23.000Z</time>
      </trkpt>
      <trkpt lat="43.65548" lon="3.67037">
        <ele>241</ele>
        <time>2023-05-24T06:16:27.000Z</time>
      </trkpt>
      <trkpt lat="43.6555" lon="3.67032">
        <ele>240.60000610352</ele>
        <time>2023-05-24T06:16:30.000Z</time>
      </trkpt>
      <trkpt lat="43.65552" lon="3.67028">
        <ele>240.39999389648</ele>
        <time>2023-05-24T06:16:33.000Z</time>
      </trkpt>
      <trkpt lat="43.65555" lon="3.67023">
        <ele>240.19999694824</ele>
        <time>2023-05-24T06:16:37.000Z</time>
      </trkpt>
      <trkpt lat="43.65557" lon="3.67018">
        <ele>240</ele>
        <time>2023-05-24T06:16:41.000Z</time>
      </trkpt>
      <trkpt lat="43.65558" lon="3.67015">
        <ele>240</ele>
        <time>2023-05-24T06:16:43.000Z</time>
      </trkpt>
      <trkpt lat="43.65561" lon="3.67005">
        <ele>239.60000610352</ele>
        <time>2023-05-24T06:16:51.000Z</time>
      </trkpt>
      <trkpt lat="43.65562" lon="3.67003">
        <ele>239.60000610352</ele>
        <time>2023-05-24T06:16:55.000Z</time>
      </trkpt>
      <trkpt lat="43.65563" lon="3.67">
        <ele>239.39999389648</ele>
        <time>2023-05-24T06:16:57.000Z</time>
      </trkpt>
      <trkpt lat="43.65566" lon="3.66989">
        <ele>239.60000610352</ele>
        <time>2023-05-24T06:17:04.000Z</time>
      </trkpt>
      <trkpt lat="43.6557" lon="3.66975">
        <ele>239.60000610352</ele>
        <time>2023-05-24T06:17:12.000Z</time>
      </trkpt>
      <trkpt lat="43.65571" lon="3.66967">
        <ele>239.60000610352</ele>
        <time>2023-05-24T06:17:16.000Z</time>
      </trkpt>
      <trkpt lat="43.65572" lon="3.66962">
        <ele>239.60000610352</ele>
        <time>2023-05-24T06:17:19.000Z</time>
      </trkpt>
      <trkpt lat="43.65573" lon="3.66954">
        <ele>239.60000610352</ele>
        <time>2023-05-24T06:17:24.000Z</time>
      </trkpt>
      <trkpt lat="43.65573" lon="3.66953">
        <ele>239.60000610352</ele>
        <time>2023-05-24T06:17:25.000Z</time>
      </trkpt>
      <trkpt lat="43.65575" lon="3.66944">
        <ele>239.80000305176</ele>
        <time>2023-05-24T06:17:32.000Z</time>
      </trkpt>
      <trkpt lat="43.65577" lon="3.66933">
        <ele>239.80000305176</ele>
        <time>2023-05-24T06:17:39.000Z</time>
      </trkpt>
      <trkpt lat="43.65577" lon="3.66923">
        <ele>240.19999694824</ele>
        <time>2023-05-24T06:17:45.000Z</time>
      </trkpt>
      <trkpt lat="43.65578" lon="3.66922">
        <ele>240.19999694824</ele>
        <time>2023-05-24T06:17:46.000Z</time>
      </trkpt>
      <trkpt lat="43.65578" lon="3.66914">
        <ele>240.39999389648</ele>
        <time>2023-05-24T06:17:51.000Z</time>
      </trkpt>
      <trkpt lat="43.65579" lon="3.66903">
        <ele>240.80000305176</ele>
        <time>2023-05-24T06:17:58.000Z</time>
      </trkpt>
      <trkpt lat="43.65579" lon="3.669">
        <ele>241</ele>
        <time>2023-05-24T06:18:00.000Z</time>
      </trkpt>
      <trkpt lat="43.65581" lon="3.66893">
        <ele>241.60000610352</ele>
        <time>2023-05-24T06:18:05.000Z</time>
      </trkpt>
      <trkpt lat="43.65581" lon="3.6689">
        <ele>241.60000610352</ele>
        <time>2023-05-24T06:18:07.000Z</time>
      </trkpt>
      <trkpt lat="43.65583" lon="3.66885">
        <ele>241.80000305176</ele>
        <time>2023-05-24T06:18:10.000Z</time>
      </trkpt>
      <trkpt lat="43.65584" lon="3.66879">
        <ele>242</ele>
        <time>2023-05-24T06:18:14.000Z</time>
      </trkpt>
      <trkpt lat="43.65586" lon="3.66873">
        <ele>242.19999694824</ele>
        <time>2023-05-24T06:18:18.000Z</time>
      </trkpt>
      <trkpt lat="43.65586" lon="3.66872">
        <ele>242.19999694824</ele>
        <time>2023-05-24T06:18:19.000Z</time>
      </trkpt>
      <trkpt lat="43.65587" lon="3.66867">
        <ele>242.19999694824</ele>
        <time>2023-05-24T06:18:21.000Z</time>
      </trkpt>
      <trkpt lat="43.65588" lon="3.66863">
        <ele>242.60000610352</ele>
        <time>2023-05-24T06:18:24.000Z</time>
      </trkpt>
      <trkpt lat="43.65591" lon="3.66851">
        <ele>242.80000305176</ele>
        <time>2023-05-24T06:18:31.000Z</time>
      </trkpt>
      <trkpt lat="43.65594" lon="3.66844">
        <ele>243</ele>
        <time>2023-05-24T06:18:36.000Z</time>
      </trkpt>
      <trkpt lat="43.65595" lon="3.6684">
        <ele>243.19999694824</ele>
        <time>2023-05-24T06:18:39.000Z</time>
      </trkpt>
      <trkpt lat="43.65599" lon="3.66829">
        <ele>243.60000610352</ele>
        <time>2023-05-24T06:18:46.000Z</time>
      </trkpt>
      <trkpt lat="43.65602" lon="3.66819">
        <ele>244</ele>
        <time>2023-05-24T06:18:53.000Z</time>
      </trkpt>
      <trkpt lat="43.65604" lon="3.66817">
        <ele>244</ele>
        <time>2023-05-24T06:18:55.000Z</time>
      </trkpt>
      <trkpt lat="43.65606" lon="3.66808">
        <ele>244.39999389648</ele>
        <time>2023-05-24T06:19:00.000Z</time>
      </trkpt>
      <trkpt lat="43.65609" lon="3.66796">
        <ele>244.80000305176</ele>
        <time>2023-05-24T06:19:08.000Z</time>
      </trkpt>
      <trkpt lat="43.65612" lon="3.66787">
        <ele>245</ele>
        <time>2023-05-24T06:19:15.000Z</time>
      </trkpt>
      <trkpt lat="43.65614" lon="3.6678">
        <ele>245</ele>
        <time>2023-05-24T06:19:20.000Z</time>
      </trkpt>
      <trkpt lat="43.65615" lon="3.66776">
        <ele>245.19999694824</ele>
        <time>2023-05-24T06:19:23.000Z</time>
      </trkpt>
      <trkpt lat="43.65619" lon="3.66765">
        <ele>245.39999389648</ele>
        <time>2023-05-24T06:19:31.000Z</time>
      </trkpt>
      <trkpt lat="43.65623" lon="3.66757">
        <ele>245.60000610352</ele>
        <time>2023-05-24T06:19:37.000Z</time>
      </trkpt>
      <trkpt lat="43.65626" lon="3.66745">
        <ele>245.60000610352</ele>
        <time>2023-05-24T06:19:44.000Z</time>
      </trkpt>
      <trkpt lat="43.65627" lon="3.66743">
        <ele>245.80000305176</ele>
        <time>2023-05-24T06:19:45.000Z</time>
      </trkpt>
      <trkpt lat="43.65629" lon="3.66738">
        <ele>245.80000305176</ele>
        <time>2023-05-24T06:19:48.000Z</time>
      </trkpt>
      <trkpt lat="43.65631" lon="3.66732">
        <ele>246</ele>
        <time>2023-05-24T06:19:52.000Z</time>
      </trkpt>
      <trkpt lat="43.65632" lon="3.6673">
        <ele>246</ele>
        <time>2023-05-24T06:19:54.000Z</time>
      </trkpt>
      <trkpt lat="43.65635" lon="3.66723">
        <ele>246.39999389648</ele>
        <time>2023-05-24T06:20:00.000Z</time>
      </trkpt>
      <trkpt lat="43.6564" lon="3.66712">
        <ele>246.39999389648</ele>
        <time>2023-05-24T06:20:08.000Z</time>
      </trkpt>
      <trkpt lat="43.65641" lon="3.6671">
        <ele>246.19999694824</ele>
        <time>2023-05-24T06:20:12.000Z</time>
      </trkpt>
      <trkpt lat="43.65642" lon="3.66708">
        <ele>246.19999694824</ele>
        <time>2023-05-24T06:20:13.000Z</time>
      </trkpt>
      <trkpt lat="43.65646" lon="3.66702">
        <ele>246.39999389648</ele>
        <time>2023-05-24T06:20:18.000Z</time>
      </trkpt>
      <trkpt lat="43.65647" lon="3.66699">
        <ele>246.60000610352</ele>
        <time>2023-05-24T06:20:20.000Z</time>
      </trkpt>
      <trkpt lat="43.65652" lon="3.66695">
        <ele>246.60000610352</ele>
        <time>2023-05-24T06:20:26.000Z</time>
      </trkpt>
      <trkpt lat="43.65653" lon="3.66693">
        <ele>246.60000610352</ele>
        <time>2023-05-24T06:20:27.000Z</time>
      </trkpt>
      <trkpt lat="43.65657" lon="3.66686">
        <ele>246.60000610352</ele>
        <time>2023-05-24T06:20:33.000Z</time>
      </trkpt>
      <trkpt lat="43.65658" lon="3.66685">
        <ele>246.80000305176</ele>
        <time>2023-05-24T06:20:34.000Z</time>
      </trkpt>
      <trkpt lat="43.65664" lon="3.66674">
        <ele>247</ele>
        <time>2023-05-24T06:20:43.000Z</time>
      </trkpt>
      <trkpt lat="43.65665" lon="3.66672">
        <ele>247.19999694824</ele>
        <time>2023-05-24T06:20:44.000Z</time>
      </trkpt>
      <trkpt lat="43.6567" lon="3.66665">
        <ele>247.19999694824</ele>
        <time>2023-05-24T06:20:51.000Z</time>
      </trkpt>
      <trkpt lat="43.65673" lon="3.66661">
        <ele>247.39999389648</ele>
        <time>2023-05-24T06:20:54.000Z</time>
      </trkpt>
      <trkpt lat="43.65675" lon="3.66656">
        <ele>247.60000610352</ele>
        <time>2023-05-24T06:20:57.000Z</time>
      </trkpt>
      <trkpt lat="43.65676" lon="3.66654">
        <ele>247.60000610352</ele>
        <time>2023-05-24T06:20:59.000Z</time>
      </trkpt>
      <trkpt lat="43.65679" lon="3.66649">
        <ele>247.80000305176</ele>
        <time>2023-05-24T06:21:03.000Z</time>
      </trkpt>
      <trkpt lat="43.65684" lon="3.66638">
        <ele>248.19999694824</ele>
        <time>2023-05-24T06:21:11.000Z</time>
      </trkpt>
      <trkpt lat="43.65684" lon="3.66636">
        <ele>248.19999694824</ele>
        <time>2023-05-24T06:21:12.000Z</time>
      </trkpt>
      <trkpt lat="43.65688" lon="3.66629">
        <ele>248.39999389648</ele>
        <time>2023-05-24T06:21:18.000Z</time>
      </trkpt>
      <trkpt lat="43.65691" lon="3.66618">
        <ele>248.39999389648</ele>
        <time>2023-05-24T06:21:25.000Z</time>
      </trkpt>
      <trkpt lat="43.65696" lon="3.66605">
        <ele>247.39999389648</ele>
        <time>2023-05-24T06:21:34.000Z</time>
      </trkpt>
      <trkpt lat="43.65698" lon="3.66598">
        <ele>247</ele>
        <time>2023-05-24T06:21:39.000Z</time>
      </trkpt>
      <trkpt lat="43.65699" lon="3.66595">
        <ele>246.80000305176</ele>
        <time>2023-05-24T06:21:41.000Z</time>
      </trkpt>
      <trkpt lat="43.657" lon="3.6659">
        <ele>246.60000610352</ele>
        <time>2023-05-24T06:21:45.000Z</time>
      </trkpt>
      <trkpt lat="43.65701" lon="3.66585">
        <ele>246.19999694824</ele>
        <time>2023-05-24T06:21:48.000Z</time>
      </trkpt>
      <trkpt lat="43.65702" lon="3.66584">
        <ele>246</ele>
        <time>2023-05-24T06:21:49.000Z</time>
      </trkpt>
      <trkpt lat="43.65702" lon="3.66582">
        <ele>245.80000305176</ele>
        <time>2023-05-24T06:21:50.000Z</time>
      </trkpt>
      <trkpt lat="43.65703" lon="3.66579">
        <ele>245.60000610352</ele>
        <time>2023-05-24T06:21:52.000Z</time>
      </trkpt>
      <trkpt lat="43.65704" lon="3.66575">
        <ele>245.39999389648</ele>
        <time>2023-05-24T06:21:55.000Z</time>
      </trkpt>
      <trkpt lat="43.65705" lon="3.6657">
        <ele>245</ele>
        <time>2023-05-24T06:21:58.000Z</time>
      </trkpt>
      <trkpt lat="43.65706" lon="3.66567">
        <ele>245</ele>
        <time>2023-05-24T06:22:00.000Z</time>
      </trkpt>
      <trkpt lat="43.65707" lon="3.66564">
        <ele>244.80000305176</ele>
        <time>2023-05-24T06:22:02.000Z</time>
      </trkpt>
      <trkpt lat="43.65709" lon="3.66553">
        <ele>244</ele>
        <time>2023-05-24T06:22:09.000Z</time>
      </trkpt>
      <trkpt lat="43.6571" lon="3.66547">
        <ele>243.39999389648</ele>
        <time>2023-05-24T06:22:13.000Z</time>
      </trkpt>
      <trkpt lat="43.6571" lon="3.66544">
        <ele>243.19999694824</ele>
        <time>2023-05-24T06:22:15.000Z</time>
      </trkpt>
      <trkpt lat="43.65711" lon="3.66535">
        <ele>242.80000305176</ele>
        <time>2023-05-24T06:22:21.000Z</time>
      </trkpt>
      <trkpt lat="43.65712" lon="3.66531">
        <ele>242.60000610352</ele>
        <time>2023-05-24T06:22:24.000Z</time>
      </trkpt>
      <trkpt lat="43.65712" lon="3.66524">
        <ele>242.19999694824</ele>
        <time>2023-05-24T06:22:28.000Z</time>
      </trkpt>
      <trkpt lat="43.65713" lon="3.66519">
        <ele>242.19999694824</ele>
        <time>2023-05-24T06:22:31.000Z</time>
      </trkpt>
      <trkpt lat="43.65715" lon="3.6651">
        <ele>241.80000305176</ele>
        <time>2023-05-24T06:22:37.000Z</time>
      </trkpt>
      <trkpt lat="43.65716" lon="3.66509">
        <ele>241.80000305176</ele>
        <time>2023-05-24T06:22:38.000Z</time>
      </trkpt>
      <trkpt lat="43.65717" lon="3.66503">
        <ele>241.39999389648</ele>
        <time>2023-05-24T06:22:41.000Z</time>
      </trkpt>
      <trkpt lat="43.65718" lon="3.66498">
        <ele>241</ele>
        <time>2023-05-24T06:22:44.000Z</time>
      </trkpt>
      <trkpt lat="43.6572" lon="3.66492">
        <ele>240.80000305176</ele>
        <time>2023-05-24T06:22:48.000Z</time>
      </trkpt>
      <trkpt lat="43.65722" lon="3.66486">
        <ele>240.39999389648</ele>
        <time>2023-05-24T06:22:52.000Z</time>
      </trkpt>
      <trkpt lat="43.65725" lon="3.66476">
        <ele>239.80000305176</ele>
        <time>2023-05-24T06:22:59.000Z</time>
      </trkpt>
      <trkpt lat="43.65727" lon="3.6647">
        <ele>239.19999694824</ele>
        <time>2023-05-24T06:23:03.000Z</time>
      </trkpt>
      <trkpt lat="43.6573" lon="3.66464">
        <ele>239</ele>
        <time>2023-05-24T06:23:07.000Z</time>
      </trkpt>
      <trkpt lat="43.65731" lon="3.66459">
        <ele>238.60000610352</ele>
        <time>2023-05-24T06:23:10.000Z</time>
      </trkpt>
      <trkpt lat="43.65732" lon="3.66454">
        <ele>238.60000610352</ele>
        <time>2023-05-24T06:23:13.000Z</time>
      </trkpt>
      <trkpt lat="43.65737" lon="3.66442">
        <ele>237.60000610352</ele>
        <time>2023-05-24T06:23:21.000Z</time>
      </trkpt>
      <trkpt lat="43.65738" lon="3.66431">
        <ele>237</ele>
        <time>2023-05-24T06:23:28.000Z</time>
      </trkpt>
      <trkpt lat="43.65739" lon="3.6643">
        <ele>237</ele>
        <time>2023-05-24T06:23:29.000Z</time>
      </trkpt>
      <trkpt lat="43.65742" lon="3.66422">
        <ele>236.60000610352</ele>
        <time>2023-05-24T06:23:34.000Z</time>
      </trkpt>
      <trkpt lat="43.65744" lon="3.66417">
        <ele>236.19999694824</ele>
        <time>2023-05-24T06:23:37.000Z</time>
      </trkpt>
      <trkpt lat="43.65745" lon="3.66413">
        <ele>236</ele>
        <time>2023-05-24T06:23:40.000Z</time>
      </trkpt>
      <trkpt lat="43.65746" lon="3.66408">
        <ele>236.19999694824</ele>
        <time>2023-05-24T06:23:43.000Z</time>
      </trkpt>
      <trkpt lat="43.65747" lon="3.66407">
        <ele>236</ele>
        <time>2023-05-24T06:23:44.000Z</time>
      </trkpt>
      <trkpt lat="43.65748" lon="3.66403">
        <ele>235.19999694824</ele>
        <time>2023-05-24T06:23:46.000Z</time>
      </trkpt>
      <trkpt lat="43.65749" lon="3.66398">
        <ele>235</ele>
        <time>2023-05-24T06:23:49.000Z</time>
      </trkpt>
      <trkpt lat="43.6575" lon="3.66392">
        <ele>234.60000610352</ele>
        <time>2023-05-24T06:23:53.000Z</time>
      </trkpt>
      <trkpt lat="43.65751" lon="3.66387">
        <ele>234.19999694824</ele>
        <time>2023-05-24T06:23:56.000Z</time>
      </trkpt>
      <trkpt lat="43.65752" lon="3.66377">
        <ele>233.60000610352</ele>
        <time>2023-05-24T06:24:02.000Z</time>
      </trkpt>
      <trkpt lat="43.65752" lon="3.66375">
        <ele>233.60000610352</ele>
        <time>2023-05-24T06:24:03.000Z</time>
      </trkpt>
      <trkpt lat="43.65753" lon="3.6637">
        <ele>233.19999694824</ele>
        <time>2023-05-24T06:24:06.000Z</time>
      </trkpt>
      <trkpt lat="43.65753" lon="3.66369">
        <ele>233</ele>
        <time>2023-05-24T06:24:07.000Z</time>
      </trkpt>
      <trkpt lat="43.65755" lon="3.66363">
        <ele>232.60000610352</ele>
        <time>2023-05-24T06:24:11.000Z</time>
      </trkpt>
      <trkpt lat="43.65757" lon="3.66354">
        <ele>232.19999694824</ele>
        <time>2023-05-24T06:24:16.000Z</time>
      </trkpt>
      <trkpt lat="43.65759" lon="3.66348">
        <ele>232</ele>
        <time>2023-05-24T06:24:19.000Z</time>
      </trkpt>
      <trkpt lat="43.6576" lon="3.66347">
        <ele>232</ele>
        <time>2023-05-24T06:24:20.000Z</time>
      </trkpt>
      <trkpt lat="43.65765" lon="3.66335">
        <ele>231</ele>
        <time>2023-05-24T06:24:28.000Z</time>
      </trkpt>
      <trkpt lat="43.65768" lon="3.66327">
        <ele>230.19999694824</ele>
        <time>2023-05-24T06:24:33.000Z</time>
      </trkpt>
      <trkpt lat="43.6577" lon="3.66323">
        <ele>230</ele>
        <time>2023-05-24T06:24:36.000Z</time>
      </trkpt>
      <trkpt lat="43.65771" lon="3.66319">
        <ele>229.80000305176</ele>
        <time>2023-05-24T06:24:38.000Z</time>
      </trkpt>
      <trkpt lat="43.65772" lon="3.66316">
        <ele>229.60000610352</ele>
        <time>2023-05-24T06:24:40.000Z</time>
      </trkpt>
      <trkpt lat="43.65776" lon="3.66309">
        <ele>229.19999694824</ele>
        <time>2023-05-24T06:24:45.000Z</time>
      </trkpt>
      <trkpt lat="43.65777" lon="3.66308">
        <ele>229</ele>
        <time>2023-05-24T06:24:46.000Z</time>
      </trkpt>
      <trkpt lat="43.65782" lon="3.66296">
        <ele>228.19999694824</ele>
        <time>2023-05-24T06:24:54.000Z</time>
      </trkpt>
      <trkpt lat="43.65784" lon="3.66294">
        <ele>228</ele>
        <time>2023-05-24T06:24:56.000Z</time>
      </trkpt>
      <trkpt lat="43.65786" lon="3.6629">
        <ele>227.60000610352</ele>
        <time>2023-05-24T06:24:59.000Z</time>
      </trkpt>
      <trkpt lat="43.65787" lon="3.66287">
        <ele>227.39999389648</ele>
        <time>2023-05-24T06:25:01.000Z</time>
      </trkpt>
      <trkpt lat="43.6579" lon="3.66282">
        <ele>227</ele>
        <time>2023-05-24T06:25:05.000Z</time>
      </trkpt>
      <trkpt lat="43.65792" lon="3.6628">
        <ele>226.80000305176</ele>
        <time>2023-05-24T06:25:07.000Z</time>
      </trkpt>
      <trkpt lat="43.65795" lon="3.66271">
        <ele>226.19999694824</ele>
        <time>2023-05-24T06:25:13.000Z</time>
      </trkpt>
      <trkpt lat="43.65796" lon="3.66268">
        <ele>226</ele>
        <time>2023-05-24T06:25:15.000Z</time>
      </trkpt>
      <trkpt lat="43.65797" lon="3.66267">
        <ele>225.80000305176</ele>
        <time>2023-05-24T06:25:16.000Z</time>
      </trkpt>
      <trkpt lat="43.65801" lon="3.6626">
        <ele>225.19999694824</ele>
        <time>2023-05-24T06:25:22.000Z</time>
      </trkpt>
      <trkpt lat="43.65804" lon="3.66253">
        <ele>224.80000305176</ele>
        <time>2023-05-24T06:25:27.000Z</time>
      </trkpt>
      <trkpt lat="43.65806" lon="3.6625">
        <ele>224.60000610352</ele>
        <time>2023-05-24T06:25:30.000Z</time>
      </trkpt>
      <trkpt lat="43.65808" lon="3.66248">
        <ele>224.39999389648</ele>
        <time>2023-05-24T06:25:32.000Z</time>
      </trkpt>
      <trkpt lat="43.6581" lon="3.66245">
        <ele>224.19999694824</ele>
        <time>2023-05-24T06:25:35.000Z</time>
      </trkpt>
      <trkpt lat="43.65811" lon="3.66244">
        <ele>224</ele>
        <time>2023-05-24T06:25:36.000Z</time>
      </trkpt>
      <trkpt lat="43.65812" lon="3.66241">
        <ele>223.80000305176</ele>
        <time>2023-05-24T06:25:38.000Z</time>
      </trkpt>
      <trkpt lat="43.65812" lon="3.66241">
        <ele>223.80000305176</ele>
        <time>2023-05-24T06:25:39.000Z</time>
      </trkpt>
      <trkpt lat="43.65813" lon="3.6624">
        <ele>223.60000610352</ele>
        <time>2023-05-24T06:25:40.000Z</time>
      </trkpt>
      <trkpt lat="43.65814" lon="3.66237">
        <ele>223.39999389648</ele>
        <time>2023-05-24T06:25:42.000Z</time>
      </trkpt>
      <trkpt lat="43.65818" lon="3.66234">
        <ele>223.19999694824</ele>
        <time>2023-05-24T06:25:45.000Z</time>
      </trkpt>
      <trkpt lat="43.65822" lon="3.66231">
        <ele>222.80000305176</ele>
        <time>2023-05-24T06:25:49.000Z</time>
      </trkpt>
      <trkpt lat="43.65823" lon="3.66229">
        <ele>222.80000305176</ele>
        <time>2023-05-24T06:25:50.000Z</time>
      </trkpt>
      <trkpt lat="43.6583" lon="3.66223">
        <ele>222.19999694824</ele>
        <time>2023-05-24T06:25:57.000Z</time>
      </trkpt>
      <trkpt lat="43.65835" lon="3.6622">
        <ele>221.80000305176</ele>
        <time>2023-05-24T06:26:01.000Z</time>
      </trkpt>
      <trkpt lat="43.65837" lon="3.66219">
        <ele>221.80000305176</ele>
        <time>2023-05-24T06:26:03.000Z</time>
      </trkpt>
      <trkpt lat="43.65838" lon="3.66218">
        <ele>221.80000305176</ele>
        <time>2023-05-24T06:26:04.000Z</time>
      </trkpt>
      <trkpt lat="43.65842" lon="3.66214">
        <ele>221.60000610352</ele>
        <time>2023-05-24T06:26:08.000Z</time>
      </trkpt>
      <trkpt lat="43.65844" lon="3.66212">
        <ele>221.39999389648</ele>
        <time>2023-05-24T06:26:10.000Z</time>
      </trkpt>
      <trkpt lat="43.65848" lon="3.6621">
        <ele>221.19999694824</ele>
        <time>2023-05-24T06:26:13.000Z</time>
      </trkpt>
      <trkpt lat="43.6585" lon="3.66208">
        <ele>221.19999694824</ele>
        <time>2023-05-24T06:26:15.000Z</time>
      </trkpt>
      <trkpt lat="43.65853" lon="3.66206">
        <ele>221</ele>
        <time>2023-05-24T06:26:20.000Z</time>
      </trkpt>
      <trkpt lat="43.65855" lon="3.66204">
        <ele>220.80000305176</ele>
        <time>2023-05-24T06:26:25.000Z</time>
      </trkpt>
      <trkpt lat="43.65857" lon="3.66203">
        <ele>220.60000610352</ele>
        <time>2023-05-24T06:26:26.000Z</time>
      </trkpt>
      <trkpt lat="43.65865" lon="3.66197">
        <ele>220.39999389648</ele>
        <time>2023-05-24T06:26:34.000Z</time>
      </trkpt>
      <trkpt lat="43.65867" lon="3.66195">
        <ele>220.39999389648</ele>
        <time>2023-05-24T06:26:36.000Z</time>
      </trkpt>
      <trkpt lat="43.65872" lon="3.66192">
        <ele>220.19999694824</ele>
        <time>2023-05-24T06:26:41.000Z</time>
      </trkpt>
      <trkpt lat="43.65873" lon="3.66192">
        <ele>220.19999694824</ele>
        <time>2023-05-24T06:26:42.000Z</time>
      </trkpt>
      <trkpt lat="43.65878" lon="3.66189">
        <ele>219.80000305176</ele>
        <time>2023-05-24T06:26:47.000Z</time>
      </trkpt>
      <trkpt lat="43.65882" lon="3.66187">
        <ele>219.60000610352</ele>
        <time>2023-05-24T06:26:50.000Z</time>
      </trkpt>
      <trkpt lat="43.65886" lon="3.66185">
        <ele>219.60000610352</ele>
        <time>2023-05-24T06:26:54.000Z</time>
      </trkpt>
      <trkpt lat="43.65896" lon="3.66178">
        <ele>219.19999694824</ele>
        <time>2023-05-24T06:27:03.000Z</time>
      </trkpt>
      <trkpt lat="43.65905" lon="3.66173">
        <ele>218.80000305176</ele>
        <time>2023-05-24T06:27:11.000Z</time>
      </trkpt>
      <trkpt lat="43.65912" lon="3.66168">
        <ele>218.60000610352</ele>
        <time>2023-05-24T06:27:17.000Z</time>
      </trkpt>
      <trkpt lat="43.65913" lon="3.66167">
        <ele>218.60000610352</ele>
        <time>2023-05-24T06:27:18.000Z</time>
      </trkpt>
      <trkpt lat="43.65919" lon="3.66162">
        <ele>218.39999389648</ele>
        <time>2023-05-24T06:27:24.000Z</time>
      </trkpt>
      <trkpt lat="43.65928" lon="3.66156">
        <ele>218.19999694824</ele>
        <time>2023-05-24T06:27:32.000Z</time>
      </trkpt>
      <trkpt lat="43.65936" lon="3.66152">
        <ele>218</ele>
        <time>2023-05-24T06:27:39.000Z</time>
      </trkpt>
      <trkpt lat="43.65942" lon="3.66147">
        <ele>217.80000305176</ele>
        <time>2023-05-24T06:27:45.000Z</time>
      </trkpt>
      <trkpt lat="43.65943" lon="3.66147">
        <ele>217.80000305176</ele>
        <time>2023-05-24T06:27:46.000Z</time>
      </trkpt>
      <trkpt lat="43.65946" lon="3.66145">
        <ele>217.60000610352</ele>
        <time>2023-05-24T06:27:49.000Z</time>
      </trkpt>
      <trkpt lat="43.65949" lon="3.66143">
        <ele>217.60000610352</ele>
        <time>2023-05-24T06:27:51.000Z</time>
      </trkpt>
      <trkpt lat="43.6595" lon="3.66142">
        <ele>217.60000610352</ele>
        <time>2023-05-24T06:27:52.000Z</time>
      </trkpt>
      <trkpt lat="43.65959" lon="3.66135">
        <ele>217.39999389648</ele>
        <time>2023-05-24T06:28:00.000Z</time>
      </trkpt>
      <trkpt lat="43.65966" lon="3.6613">
        <ele>217.19999694824</ele>
        <time>2023-05-24T06:28:07.000Z</time>
      </trkpt>
      <trkpt lat="43.65973" lon="3.66124">
        <ele>217</ele>
        <time>2023-05-24T06:28:14.000Z</time>
      </trkpt>
      <trkpt lat="43.65982" lon="3.6612">
        <ele>216.60000610352</ele>
        <time>2023-05-24T06:28:21.000Z</time>
      </trkpt>
      <trkpt lat="43.65983" lon="3.66119">
        <ele>216.60000610352</ele>
        <time>2023-05-24T06:28:22.000Z</time>
      </trkpt>
      <trkpt lat="43.65993" lon="3.6611">
        <ele>216.19999694824</ele>
        <time>2023-05-24T06:28:31.000Z</time>
      </trkpt>
      <trkpt lat="43.66002" lon="3.66104">
        <ele>215.80000305176</ele>
        <time>2023-05-24T06:28:39.000Z</time>
      </trkpt>
      <trkpt lat="43.66004" lon="3.66102">
        <ele>215.60000610352</ele>
        <time>2023-05-24T06:28:41.000Z</time>
      </trkpt>
      <trkpt lat="43.66013" lon="3.66093">
        <ele>215.19999694824</ele>
        <time>2023-05-24T06:28:49.000Z</time>
      </trkpt>
      <trkpt lat="43.66022" lon="3.66084">
        <ele>214.60000610352</ele>
        <time>2023-05-24T06:28:57.000Z</time>
      </trkpt>
      <trkpt lat="43.66022" lon="3.66083">
        <ele>214.60000610352</ele>
        <time>2023-05-24T06:28:58.000Z</time>
      </trkpt>
      <trkpt lat="43.66028" lon="3.66074">
        <ele>214.19999694824</ele>
        <time>2023-05-24T06:29:05.000Z</time>
      </trkpt>
      <trkpt lat="43.66034" lon="3.66065">
        <ele>213.60000610352</ele>
        <time>2023-05-24T06:29:12.000Z</time>
      </trkpt>
      <trkpt lat="43.66034" lon="3.66063">
        <ele>213.39999389648</ele>
        <time>2023-05-24T06:29:13.000Z</time>
      </trkpt>
      <trkpt lat="43.6604" lon="3.66051">
        <ele>212.60000610352</ele>
        <time>2023-05-24T06:29:22.000Z</time>
      </trkpt>
      <trkpt lat="43.66042" lon="3.66047">
        <ele>212.60000610352</ele>
        <time>2023-05-24T06:29:25.000Z</time>
      </trkpt>
      <trkpt lat="43.66044" lon="3.66042">
        <ele>212.19999694824</ele>
        <time>2023-05-24T06:29:29.000Z</time>
      </trkpt>
      <trkpt lat="43.66048" lon="3.66029">
        <ele>211.39999389648</ele>
        <time>2023-05-24T06:29:37.000Z</time>
      </trkpt>
      <trkpt lat="43.66048" lon="3.66028">
        <ele>211.39999389648</ele>
        <time>2023-05-24T06:29:38.000Z</time>
      </trkpt>
      <trkpt lat="43.66051" lon="3.66015">
        <ele>210.60000610352</ele>
        <time>2023-05-24T06:29:47.000Z</time>
      </trkpt>
      <trkpt lat="43.66051" lon="3.66014">
        <ele>210.39999389648</ele>
        <time>2023-05-24T06:29:48.000Z</time>
      </trkpt>
      <trkpt lat="43.66052" lon="3.66002">
        <ele>209.60000610352</ele>
        <time>2023-05-24T06:29:56.000Z</time>
      </trkpt>
      <trkpt lat="43.66052" lon="3.65998">
        <ele>209.39999389648</ele>
        <time>2023-05-24T06:29:58.000Z</time>
      </trkpt>
      <trkpt lat="43.66052" lon="3.65986">
        <ele>208.39999389648</ele>
        <time>2023-05-24T06:30:05.000Z</time>
      </trkpt>
      <trkpt lat="43.66052" lon="3.65983">
        <ele>208</ele>
        <time>2023-05-24T06:30:07.000Z</time>
      </trkpt>
      <trkpt lat="43.66052" lon="3.65975">
        <ele>207.39999389648</ele>
        <time>2023-05-24T06:30:12.000Z</time>
      </trkpt>
      <trkpt lat="43.66051" lon="3.65968">
        <ele>206.80000305176</ele>
        <time>2023-05-24T06:30:16.000Z</time>
      </trkpt>
      <trkpt lat="43.6605" lon="3.65959">
        <ele>206.39999389648</ele>
        <time>2023-05-24T06:30:22.000Z</time>
      </trkpt>
      <trkpt lat="43.66049" lon="3.65954">
        <ele>205.80000305176</ele>
        <time>2023-05-24T06:30:25.000Z</time>
      </trkpt>
      <trkpt lat="43.66048" lon="3.6595">
        <ele>205.39999389648</ele>
        <time>2023-05-24T06:30:30.000Z</time>
      </trkpt>
      <trkpt lat="43.66048" lon="3.65949">
        <ele>205.19999694824</ele>
        <time>2023-05-24T06:30:31.000Z</time>
      </trkpt>
      <trkpt lat="43.66045" lon="3.65938">
        <ele>205</ele>
        <time>2023-05-24T06:30:38.000Z</time>
      </trkpt>
      <trkpt lat="43.66043" lon="3.6593">
        <ele>204.19999694824</ele>
        <time>2023-05-24T06:30:44.000Z</time>
      </trkpt>
      <trkpt lat="43.66042" lon="3.65929">
        <ele>204.19999694824</ele>
        <time>2023-05-24T06:30:45.000Z</time>
      </trkpt>
      <trkpt lat="43.66039" lon="3.65915">
        <ele>203.19999694824</ele>
        <time>2023-05-24T06:30:54.000Z</time>
      </trkpt>
      <trkpt lat="43.66038" lon="3.65912">
        <ele>203</ele>
        <time>2023-05-24T06:30:56.000Z</time>
      </trkpt>
      <trkpt lat="43.66036" lon="3.65903">
        <ele>202.19999694824</ele>
        <time>2023-05-24T06:31:02.000Z</time>
      </trkpt>
      <trkpt lat="43.66035" lon="3.65894">
        <ele>201.60000610352</ele>
        <time>2023-05-24T06:31:07.000Z</time>
      </trkpt>
      <trkpt lat="43.66033" lon="3.65887">
        <ele>201.19999694824</ele>
        <time>2023-05-24T06:31:11.000Z</time>
      </trkpt>
      <trkpt lat="43.6603" lon="3.65879">
        <ele>200.60000610352</ele>
        <time>2023-05-24T06:31:16.000Z</time>
      </trkpt>
      <trkpt lat="43.66028" lon="3.65874">
        <ele>200</ele>
        <time>2023-05-24T06:31:19.000Z</time>
      </trkpt>
      <trkpt lat="43.66026" lon="3.65864">
        <ele>199</ele>
        <time>2023-05-24T06:31:25.000Z</time>
      </trkpt>
      <trkpt lat="43.66026" lon="3.65862">
        <ele>199</ele>
        <time>2023-05-24T06:31:26.000Z</time>
      </trkpt>
      <trkpt lat="43.66025" lon="3.65852">
        <ele>198.39999389648</ele>
        <time>2023-05-24T06:31:32.000Z</time>
      </trkpt>
      <trkpt lat="43.66024" lon="3.65847">
        <ele>198</ele>
        <time>2023-05-24T06:31:35.000Z</time>
      </trkpt>
      <trkpt lat="43.66023" lon="3.65835">
        <ele>197</ele>
        <time>2023-05-24T06:31:42.000Z</time>
      </trkpt>
      <trkpt lat="43.66023" lon="3.65833">
        <ele>196.80000305176</ele>
        <time>2023-05-24T06:31:43.000Z</time>
      </trkpt>
      <trkpt lat="43.66021" lon="3.6582">
        <ele>196.19999694824</ele>
        <time>2023-05-24T06:31:51.000Z</time>
      </trkpt>
      <trkpt lat="43.66021" lon="3.65817">
        <ele>195.80000305176</ele>
        <time>2023-05-24T06:31:53.000Z</time>
      </trkpt>
      <trkpt lat="43.66021" lon="3.65807">
        <ele>195.19999694824</ele>
        <time>2023-05-24T06:31:59.000Z</time>
      </trkpt>
      <trkpt lat="43.6602" lon="3.65799">
        <ele>194.80000305176</ele>
        <time>2023-05-24T06:32:04.000Z</time>
      </trkpt>
      <trkpt lat="43.6602" lon="3.65793">
        <ele>194.39999389648</ele>
        <time>2023-05-24T06:32:08.000Z</time>
      </trkpt>
      <trkpt lat="43.6602" lon="3.65783">
        <ele>193.60000610352</ele>
        <time>2023-05-24T06:32:14.000Z</time>
      </trkpt>
      <trkpt lat="43.6602" lon="3.6578">
        <ele>193.39999389648</ele>
        <time>2023-05-24T06:32:16.000Z</time>
      </trkpt>
      <trkpt lat="43.66021" lon="3.65765">
        <ele>193</ele>
        <time>2023-05-24T06:32:24.000Z</time>
      </trkpt>
      <trkpt lat="43.66022" lon="3.65752">
        <ele>193.19999694824</ele>
        <time>2023-05-24T06:32:31.000Z</time>
      </trkpt>
      <trkpt lat="43.66023" lon="3.65739">
        <ele>193.19999694824</ele>
        <time>2023-05-24T06:32:39.000Z</time>
      </trkpt>
      <trkpt lat="43.66023" lon="3.65732">
        <ele>193.19999694824</ele>
        <time>2023-05-24T06:32:44.000Z</time>
      </trkpt>
      <trkpt lat="43.66023" lon="3.65728">
        <ele>192.60000610352</ele>
        <time>2023-05-24T06:32:46.000Z</time>
      </trkpt>
      <trkpt lat="43.66023" lon="3.65727">
        <ele>192.39999389648</ele>
        <time>2023-05-24T06:32:47.000Z</time>
      </trkpt>
      <trkpt lat="43.66024" lon="3.65717">
        <ele>191.19999694824</ele>
        <time>2023-05-24T06:32:53.000Z</time>
      </trkpt>
      <trkpt lat="43.66024" lon="3.65715">
        <ele>191.19999694824</ele>
        <time>2023-05-24T06:32:54.000Z</time>
      </trkpt>
      <trkpt lat="43.66025" lon="3.65699">
        <ele>190.19999694824</ele>
        <time>2023-05-24T06:33:03.000Z</time>
      </trkpt>
      <trkpt lat="43.66026" lon="3.65695">
        <ele>189.80000305176</ele>
        <time>2023-05-24T06:33:05.000Z</time>
      </trkpt>
      <trkpt lat="43.66027" lon="3.65679">
        <ele>189.60000610352</ele>
        <time>2023-05-24T06:33:14.000Z</time>
      </trkpt>
      <trkpt lat="43.66028" lon="3.65666">
        <ele>189.19999694824</ele>
        <time>2023-05-24T06:33:21.000Z</time>
      </trkpt>
      <trkpt lat="43.66028" lon="3.65664">
        <ele>189.19999694824</ele>
        <time>2023-05-24T06:33:22.000Z</time>
      </trkpt>
      <trkpt lat="43.66029" lon="3.65644">
        <ele>188.80000305176</ele>
        <time>2023-05-24T06:33:33.000Z</time>
      </trkpt>
      <trkpt lat="43.66029" lon="3.65642">
        <ele>188.80000305176</ele>
        <time>2023-05-24T06:33:36.000Z</time>
      </trkpt>
      <trkpt lat="43.66029" lon="3.65639">
        <ele>188.80000305176</ele>
        <time>2023-05-24T06:33:38.000Z</time>
      </trkpt>
      <trkpt lat="43.6603" lon="3.65623">
        <ele>188.60000610352</ele>
        <time>2023-05-24T06:33:47.000Z</time>
      </trkpt>
      <trkpt lat="43.66031" lon="3.65611">
        <ele>188.60000610352</ele>
        <time>2023-05-24T06:33:55.000Z</time>
      </trkpt>
      <trkpt lat="43.66031" lon="3.65595">
        <ele>188.60000610352</ele>
        <time>2023-05-24T06:34:04.000Z</time>
      </trkpt>
      <trkpt lat="43.66033" lon="3.65576">
        <ele>188.60000610352</ele>
        <time>2023-05-24T06:34:15.000Z</time>
      </trkpt>
      <trkpt lat="43.66034" lon="3.65557">
        <ele>188.80000305176</ele>
        <time>2023-05-24T06:34:26.000Z</time>
      </trkpt>
      <trkpt lat="43.66036" lon="3.65532">
        <ele>189</ele>
        <time>2023-05-24T06:34:40.000Z</time>
      </trkpt>
      <trkpt lat="43.66039" lon="3.65513">
        <ele>189.19999694824</ele>
        <time>2023-05-24T06:34:51.000Z</time>
      </trkpt>
      <trkpt lat="43.66042" lon="3.65499">
        <ele>189.80000305176</ele>
        <time>2023-05-24T06:35:00.000Z</time>
      </trkpt>
      <trkpt lat="43.66043" lon="3.65491">
        <ele>190.19999694824</ele>
        <time>2023-05-24T06:35:05.000Z</time>
      </trkpt>
      <trkpt lat="43.66045" lon="3.65483">
        <ele>190.39999389648</ele>
        <time>2023-05-24T06:35:10.000Z</time>
      </trkpt>
      <trkpt lat="43.66047" lon="3.65473">
        <ele>191.19999694824</ele>
        <time>2023-05-24T06:35:17.000Z</time>
      </trkpt>
      <trkpt lat="43.66048" lon="3.65469">
        <ele>191.60000610352</ele>
        <time>2023-05-24T06:35:20.000Z</time>
      </trkpt>
      <trkpt lat="43.66052" lon="3.65456">
        <ele>192.39999389648</ele>
        <time>2023-05-24T06:35:29.000Z</time>
      </trkpt>
      <trkpt lat="43.66056" lon="3.65443">
        <ele>193.39999389648</ele>
        <time>2023-05-24T06:35:38.000Z</time>
      </trkpt>
      <trkpt lat="43.66057" lon="3.65439">
        <ele>194</ele>
        <time>2023-05-24T06:35:41.000Z</time>
      </trkpt>
      <trkpt lat="43.66061" lon="3.6543">
        <ele>194.39999389648</ele>
        <time>2023-05-24T06:35:48.000Z</time>
      </trkpt>
      <trkpt lat="43.66062" lon="3.65427">
        <ele>194.80000305176</ele>
        <time>2023-05-24T06:35:51.000Z</time>
      </trkpt>
      <trkpt lat="43.66068" lon="3.65413">
        <ele>195.39999389648</ele>
        <time>2023-05-24T06:36:01.000Z</time>
      </trkpt>
      <trkpt lat="43.6607" lon="3.65409">
        <ele>195.60000610352</ele>
        <time>2023-05-24T06:36:04.000Z</time>
      </trkpt>
      <trkpt lat="43.66074" lon="3.65398">
        <ele>195.80000305176</ele>
        <time>2023-05-24T06:36:12.000Z</time>
      </trkpt>
      <trkpt lat="43.66079" lon="3.65388">
        <ele>196</ele>
        <time>2023-05-24T06:36:21.000Z</time>
      </trkpt>
      <trkpt lat="43.66078" lon="3.65387">
        <ele>196</ele>
        <time>2023-05-24T06:36:24.000Z</time>
      </trkpt>
      <trkpt lat="43.66077" lon="3.65384">
        <ele>196</ele>
        <time>2023-05-24T06:36:26.000Z</time>
      </trkpt>
      <trkpt lat="43.66072" lon="3.65378">
        <ele>196.39999389648</ele>
        <time>2023-05-24T06:36:35.000Z</time>
      </trkpt>
      <trkpt lat="43.66071" lon="3.65377">
        <ele>196.60000610352</ele>
        <time>2023-05-24T06:36:37.000Z</time>
      </trkpt>
      <trkpt lat="43.66073" lon="3.65373">
        <ele>197.39999389648</ele>
        <time>2023-05-24T06:36:42.000Z</time>
      </trkpt>
      <trkpt lat="43.66075" lon="3.65367">
        <ele>197.60000610352</ele>
        <time>2023-05-24T06:36:47.000Z</time>
      </trkpt>
      <trkpt lat="43.66075" lon="3.65365">
        <ele>197.60000610352</ele>
        <time>2023-05-24T06:36:49.000Z</time>
      </trkpt>
      <trkpt lat="43.66075" lon="3.65361">
        <ele>197</ele>
        <time>2023-05-24T06:36:56.000Z</time>
      </trkpt>
      <trkpt lat="43.66075" lon="3.65356">
        <ele>197</ele>
        <time>2023-05-24T06:37:01.000Z</time>
      </trkpt>
      <trkpt lat="43.66076" lon="3.65349">
        <ele>196.60000610352</ele>
        <time>2023-05-24T06:37:06.000Z</time>
      </trkpt>
      <trkpt lat="43.66076" lon="3.65346">
        <ele>196.39999389648</ele>
        <time>2023-05-24T06:37:09.000Z</time>
      </trkpt>
      <trkpt lat="43.66076" lon="3.65344">
        <ele>196.39999389648</ele>
        <time>2023-05-24T06:37:11.000Z</time>
      </trkpt>
      <trkpt lat="43.66076" lon="3.65338">
        <ele>196.19999694824</ele>
        <time>2023-05-24T06:37:16.000Z</time>
      </trkpt>
      <trkpt lat="43.66076" lon="3.65332">
        <ele>195.39999389648</ele>
        <time>2023-05-24T06:37:21.000Z</time>
      </trkpt>
      <trkpt lat="43.66076" lon="3.65329">
        <ele>195.19999694824</ele>
        <time>2023-05-24T06:37:23.000Z</time>
      </trkpt>
      <trkpt lat="43.66076" lon="3.6532">
        <ele>194.39999389648</ele>
        <time>2023-05-24T06:37:29.000Z</time>
      </trkpt>
      <trkpt lat="43.66076" lon="3.65314">
        <ele>193.80000305176</ele>
        <time>2023-05-24T06:37:34.000Z</time>
      </trkpt>
      <trkpt lat="43.66076" lon="3.65311">
        <ele>193.39999389648</ele>
        <time>2023-05-24T06:37:36.000Z</time>
      </trkpt>
      <trkpt lat="43.66076" lon="3.6531">
        <ele>193.19999694824</ele>
        <time>2023-05-24T06:37:37.000Z</time>
      </trkpt>
      <trkpt lat="43.66076" lon="3.65307">
        <ele>193.19999694824</ele>
        <time>2023-05-24T06:37:39.000Z</time>
      </trkpt>
      <trkpt lat="43.66076" lon="3.65303">
        <ele>192.80000305176</ele>
        <time>2023-05-24T06:37:42.000Z</time>
      </trkpt>
      <trkpt lat="43.66076" lon="3.653">
        <ele>192.39999389648</ele>
        <time>2023-05-24T06:37:45.000Z</time>
      </trkpt>
      <trkpt lat="43.66076" lon="3.65299">
        <ele>192.19999694824</ele>
        <time>2023-05-24T06:37:46.000Z</time>
      </trkpt>
      <trkpt lat="43.66077" lon="3.65297">
        <ele>192.19999694824</ele>
        <time>2023-05-24T06:37:48.000Z</time>
      </trkpt>
      <trkpt lat="43.66077" lon="3.65295">
        <ele>191.80000305176</ele>
        <time>2023-05-24T06:37:50.000Z</time>
      </trkpt>
      <trkpt lat="43.66076" lon="3.65289">
        <ele>191.19999694824</ele>
        <time>2023-05-24T06:37:54.000Z</time>
      </trkpt>
      <trkpt lat="43.66076" lon="3.65284">
        <ele>190.80000305176</ele>
        <time>2023-05-24T06:37:58.000Z</time>
      </trkpt>
      <trkpt lat="43.66076" lon="3.65278">
        <ele>190.19999694824</ele>
        <time>2023-05-24T06:38:04.000Z</time>
      </trkpt>
      <trkpt lat="43.66076" lon="3.65276">
        <ele>190</ele>
        <time>2023-05-24T06:38:06.000Z</time>
      </trkpt>
      <trkpt lat="43.66076" lon="3.65269">
        <ele>189.19999694824</ele>
        <time>2023-05-24T06:38:13.000Z</time>
      </trkpt>
      <trkpt lat="43.66076" lon="3.65267">
        <ele>189</ele>
        <time>2023-05-24T06:38:14.000Z</time>
      </trkpt>
      <trkpt lat="43.66076" lon="3.65261">
        <ele>188.39999389648</ele>
        <time>2023-05-24T06:38:20.000Z</time>
      </trkpt>
      <trkpt lat="43.66076" lon="3.65258">
        <ele>188.19999694824</ele>
        <time>2023-05-24T06:38:23.000Z</time>
      </trkpt>
      <trkpt lat="43.66077" lon="3.65257">
        <ele>188</ele>
        <time>2023-05-24T06:38:24.000Z</time>
      </trkpt>
      <trkpt lat="43.66076" lon="3.65253">
        <ele>187.80000305176</ele>
        <time>2023-05-24T06:38:27.000Z</time>
      </trkpt>
      <trkpt lat="43.66077" lon="3.65248">
        <ele>187.19999694824</ele>
        <time>2023-05-24T06:38:33.000Z</time>
      </trkpt>
      <trkpt lat="43.66078" lon="3.65247">
        <ele>187</ele>
        <time>2023-05-24T06:38:34.000Z</time>
      </trkpt>
      <trkpt lat="43.66078" lon="3.65242">
        <ele>186.60000610352</ele>
        <time>2023-05-24T06:38:39.000Z</time>
      </trkpt>
      <trkpt lat="43.66077" lon="3.65233">
        <ele>186</ele>
        <time>2023-05-24T06:38:46.000Z</time>
      </trkpt>
      <trkpt lat="43.66077" lon="3.65231">
        <ele>185.60000610352</ele>
        <time>2023-05-24T06:38:48.000Z</time>
      </trkpt>
      <trkpt lat="43.66078" lon="3.6523">
        <ele>185.39999389648</ele>
        <time>2023-05-24T06:38:50.000Z</time>
      </trkpt>
      <trkpt lat="43.66078" lon="3.65225">
        <ele>185</ele>
        <time>2023-05-24T06:38:55.000Z</time>
      </trkpt>
      <trkpt lat="43.66078" lon="3.65223">
        <ele>185</ele>
        <time>2023-05-24T06:38:56.000Z</time>
      </trkpt>
      <trkpt lat="43.66077" lon="3.65217">
        <ele>184.60000610352</ele>
        <time>2023-05-24T06:39:01.000Z</time>
      </trkpt>
      <trkpt lat="43.66078" lon="3.65215">
        <ele>184.39999389648</ele>
        <time>2023-05-24T06:39:03.000Z</time>
      </trkpt>
      <trkpt lat="43.6608" lon="3.65212">
        <ele>184.19999694824</ele>
        <time>2023-05-24T06:39:07.000Z</time>
      </trkpt>
      <trkpt lat="43.66081" lon="3.65207">
        <ele>184</ele>
        <time>2023-05-24T06:39:11.000Z</time>
      </trkpt>
      <trkpt lat="43.66081" lon="3.65204">
        <ele>183.80000305176</ele>
        <time>2023-05-24T06:39:13.000Z</time>
      </trkpt>
      <trkpt lat="43.6608" lon="3.65201">
        <ele>183.60000610352</ele>
        <time>2023-05-24T06:39:15.000Z</time>
      </trkpt>
      <trkpt lat="43.6608" lon="3.65196">
        <ele>183.19999694824</ele>
        <time>2023-05-24T06:39:19.000Z</time>
      </trkpt>
      <trkpt lat="43.6608" lon="3.65194">
        <ele>183</ele>
        <time>2023-05-24T06:39:22.000Z</time>
      </trkpt>
      <trkpt lat="43.6608" lon="3.65193">
        <ele>182.80000305176</ele>
        <time>2023-05-24T06:39:23.000Z</time>
      </trkpt>
      <trkpt lat="43.66079" lon="3.6519">
        <ele>182.39999389648</ele>
        <time>2023-05-24T06:39:26.000Z</time>
      </trkpt>
      <trkpt lat="43.66079" lon="3.65187">
        <ele>181.80000305176</ele>
        <time>2023-05-24T06:39:31.000Z</time>
      </trkpt>
      <trkpt lat="43.66079" lon="3.65185">
        <ele>181.60000610352</ele>
        <time>2023-05-24T06:39:34.000Z</time>
      </trkpt>
      <trkpt lat="43.6608" lon="3.65176">
        <ele>180.80000305176</ele>
        <time>2023-05-24T06:39:43.000Z</time>
      </trkpt>
      <trkpt lat="43.6608" lon="3.65174">
        <ele>180.80000305176</ele>
        <time>2023-05-24T06:39:45.000Z</time>
      </trkpt>
      <trkpt lat="43.6608" lon="3.65169">
        <ele>180.39999389648</ele>
        <time>2023-05-24T06:39:49.000Z</time>
      </trkpt>
      <trkpt lat="43.66081" lon="3.6516">
        <ele>179.80000305176</ele>
        <time>2023-05-24T06:39:57.000Z</time>
      </trkpt>
      <trkpt lat="43.66079" lon="3.65152">
        <ele>179.60000610352</ele>
        <time>2023-05-24T06:40:04.000Z</time>
      </trkpt>
      <trkpt lat="43.66078" lon="3.65149">
        <ele>179.60000610352</ele>
        <time>2023-05-24T06:40:08.000Z</time>
      </trkpt>
      <trkpt lat="43.66078" lon="3.65147">
        <ele>179.60000610352</ele>
        <time>2023-05-24T06:40:10.000Z</time>
      </trkpt>
      <trkpt lat="43.66078" lon="3.6514">
        <ele>179</ele>
        <time>2023-05-24T06:40:17.000Z</time>
      </trkpt>
      <trkpt lat="43.66078" lon="3.65139">
        <ele>178.60000610352</ele>
        <time>2023-05-24T06:40:21.000Z</time>
      </trkpt>
      <trkpt lat="43.66078" lon="3.65139">
        <ele>178.60000610352</ele>
        <time>2023-05-24T06:40:24.000Z</time>
      </trkpt>
      <trkpt lat="43.66077" lon="3.65134">
        <ele>178.60000610352</ele>
        <time>2023-05-24T06:40:33.000Z</time>
      </trkpt>
      <trkpt lat="43.66077" lon="3.65129">
        <ele>178.60000610352</ele>
        <time>2023-05-24T06:40:40.000Z</time>
      </trkpt>
      <trkpt lat="43.66078" lon="3.65127">
        <ele>178.19999694824</ele>
        <time>2023-05-24T06:40:48.000Z</time>
      </trkpt>
      <trkpt lat="43.66078" lon="3.6512">
        <ele>178.19999694824</ele>
        <time>2023-05-24T06:40:55.000Z</time>
      </trkpt>
      <trkpt lat="43.6608" lon="3.65113">
        <ele>178</ele>
        <time>2023-05-24T06:41:01.000Z</time>
      </trkpt>
      <trkpt lat="43.6608" lon="3.65106">
        <ele>177.60000610352</ele>
        <time>2023-05-24T06:41:06.000Z</time>
      </trkpt>
      <trkpt lat="43.6608" lon="3.651">
        <ele>177.19999694824</ele>
        <time>2023-05-24T06:41:09.000Z</time>
      </trkpt>
      <trkpt lat="43.66081" lon="3.6509">
        <ele>176.60000610352</ele>
        <time>2023-05-24T06:41:16.000Z</time>
      </trkpt>
      <trkpt lat="43.66081" lon="3.65088">
        <ele>176.39999389648</ele>
        <time>2023-05-24T06:41:18.000Z</time>
      </trkpt>
      <trkpt lat="43.66081" lon="3.65081">
        <ele>176.19999694824</ele>
        <time>2023-05-24T06:41:24.000Z</time>
      </trkpt>
      <trkpt lat="43.66081" lon="3.65073">
        <ele>176</ele>
        <time>2023-05-24T06:41:32.000Z</time>
      </trkpt>
      <trkpt lat="43.66083" lon="3.65068">
        <ele>175.60000610352</ele>
        <time>2023-05-24T06:41:40.000Z</time>
      </trkpt>
      <trkpt lat="43.66082" lon="3.65068">
        <ele>175.39999389648</ele>
        <time>2023-05-24T06:41:42.000Z</time>
      </trkpt>
      <trkpt lat="43.66084" lon="3.65064">
        <ele>175.60000610352</ele>
        <time>2023-05-24T06:41:48.000Z</time>
      </trkpt>
      <trkpt lat="43.66084" lon="3.65062">
        <ele>175.60000610352</ele>
        <time>2023-05-24T06:41:55.000Z</time>
      </trkpt>
      <trkpt lat="43.66083" lon="3.65059">
        <ele>175.60000610352</ele>
        <time>2023-05-24T06:42:07.000Z</time>
      </trkpt>
      <trkpt lat="43.66081" lon="3.65048">
        <ele>175</ele>
        <time>2023-05-24T06:42:15.000Z</time>
      </trkpt>
      <trkpt lat="43.66081" lon="3.65035">
        <ele>174.80000305176</ele>
        <time>2023-05-24T06:42:24.000Z</time>
      </trkpt>
      <trkpt lat="43.6608" lon="3.65027">
        <ele>174.39999389648</ele>
        <time>2023-05-24T06:42:30.000Z</time>
      </trkpt>
      <trkpt lat="43.66079" lon="3.6502">
        <ele>174.39999389648</ele>
        <time>2023-05-24T06:42:35.000Z</time>
      </trkpt>
      <trkpt lat="43.6608" lon="3.65011">
        <ele>174.19999694824</ele>
        <time>2023-05-24T06:42:42.000Z</time>
      </trkpt>
      <trkpt lat="43.66079" lon="3.64998">
        <ele>173.80000305176</ele>
        <time>2023-05-24T06:42:52.000Z</time>
      </trkpt>
      <trkpt lat="43.66079" lon="3.64998">
        <ele>173.39999389648</ele>
        <time>2023-05-24T06:42:57.000Z</time>
      </trkpt>
      <trkpt lat="43.66079" lon="3.64998">
        <ele>173.19999694824</ele>
        <time>2023-05-24T06:42:58.000Z</time>
      </trkpt>
      <trkpt lat="43.66079" lon="3.64992">
        <ele>173.19999694824</ele>
        <time>2023-05-24T06:43:05.000Z</time>
      </trkpt>
      <trkpt lat="43.66082" lon="3.64982">
        <ele>173.80000305176</ele>
        <time>2023-05-24T06:43:12.000Z</time>
      </trkpt>
      <trkpt lat="43.66083" lon="3.64969">
        <ele>173.60000610352</ele>
        <time>2023-05-24T06:43:21.000Z</time>
      </trkpt>
      <trkpt lat="43.66085" lon="3.64959">
        <ele>173.60000610352</ele>
        <time>2023-05-24T06:43:28.000Z</time>
      </trkpt>
      <trkpt lat="43.66086" lon="3.64952">
        <ele>173.39999389648</ele>
        <time>2023-05-24T06:43:33.000Z</time>
      </trkpt>
      <trkpt lat="43.66086" lon="3.64951">
        <ele>173.39999389648</ele>
        <time>2023-05-24T06:43:34.000Z</time>
      </trkpt>
      <trkpt lat="43.66085" lon="3.64947">
        <ele>173</ele>
        <time>2023-05-24T06:43:41.000Z</time>
      </trkpt>
      <trkpt lat="43.66086" lon="3.64941">
        <ele>172.39999389648</ele>
        <time>2023-05-24T06:43:47.000Z</time>
      </trkpt>
      <trkpt lat="43.66086" lon="3.6494">
        <ele>172.19999694824</ele>
        <time>2023-05-24T06:43:48.000Z</time>
      </trkpt>
      <trkpt lat="43.66086" lon="3.64936">
        <ele>172.39999389648</ele>
        <time>2023-05-24T06:43:54.000Z</time>
      </trkpt>
      <trkpt lat="43.66087" lon="3.64926">
        <ele>173.19999694824</ele>
        <time>2023-05-24T06:44:01.000Z</time>
      </trkpt>
      <trkpt lat="43.66087" lon="3.64925">
        <ele>173.19999694824</ele>
        <time>2023-05-24T06:44:02.000Z</time>
      </trkpt>
      <trkpt lat="43.66088" lon="3.64916">
        <ele>173.39999389648</ele>
        <time>2023-05-24T06:44:08.000Z</time>
      </trkpt>
      <trkpt lat="43.66089" lon="3.64904">
        <ele>173.60000610352</ele>
        <time>2023-05-24T06:44:16.000Z</time>
      </trkpt>
      <trkpt lat="43.6609" lon="3.64892">
        <ele>173.60000610352</ele>
        <time>2023-05-24T06:44:23.000Z</time>
      </trkpt>
      <trkpt lat="43.66091" lon="3.64883">
        <ele>173.80000305176</ele>
        <time>2023-05-24T06:44:31.000Z</time>
      </trkpt>
      <trkpt lat="43.66092" lon="3.64869">
        <ele>174</ele>
        <time>2023-05-24T06:44:40.000Z</time>
      </trkpt>
      <trkpt lat="43.66094" lon="3.6485">
        <ele>174.19999694824</ele>
        <time>2023-05-24T06:44:51.000Z</time>
      </trkpt>
      <trkpt lat="43.66095" lon="3.64833">
        <ele>174.19999694824</ele>
        <time>2023-05-24T06:45:02.000Z</time>
      </trkpt>
      <trkpt lat="43.66097" lon="3.64823">
        <ele>174.19999694824</ele>
        <time>2023-05-24T06:45:08.000Z</time>
      </trkpt>
      <trkpt lat="43.66098" lon="3.64815">
        <ele>174.39999389648</ele>
        <time>2023-05-24T06:45:13.000Z</time>
      </trkpt>
      <trkpt lat="43.66101" lon="3.64804">
        <ele>174.80000305176</ele>
        <time>2023-05-24T06:45:21.000Z</time>
      </trkpt>
      <trkpt lat="43.66105" lon="3.64791">
        <ele>175.19999694824</ele>
        <time>2023-05-24T06:45:30.000Z</time>
      </trkpt>
      <trkpt lat="43.66106" lon="3.64787">
        <ele>175.19999694824</ele>
        <time>2023-05-24T06:45:33.000Z</time>
      </trkpt>
      <trkpt lat="43.66108" lon="3.64777">
        <ele>175.60000610352</ele>
        <time>2023-05-24T06:45:40.000Z</time>
      </trkpt>
      <trkpt lat="43.66111" lon="3.64763">
        <ele>176.19999694824</ele>
        <time>2023-05-24T06:45:50.000Z</time>
      </trkpt>
      <trkpt lat="43.66112" lon="3.64758">
        <ele>176.39999389648</ele>
        <time>2023-05-24T06:45:53.000Z</time>
      </trkpt>
      <trkpt lat="43.66114" lon="3.64749">
        <ele>176.80000305176</ele>
        <time>2023-05-24T06:46:00.000Z</time>
      </trkpt>
      <trkpt lat="43.66115" lon="3.6474">
        <ele>177.39999389648</ele>
        <time>2023-05-24T06:46:07.000Z</time>
      </trkpt>
      <trkpt lat="43.66116" lon="3.64737">
        <ele>177.39999389648</ele>
        <time>2023-05-24T06:46:09.000Z</time>
      </trkpt>
      <trkpt lat="43.66118" lon="3.64725">
        <ele>178.19999694824</ele>
        <time>2023-05-24T06:46:17.000Z</time>
      </trkpt>
      <trkpt lat="43.66119" lon="3.64724">
        <ele>178.39999389648</ele>
        <time>2023-05-24T06:46:18.000Z</time>
      </trkpt>
      <trkpt lat="43.6612" lon="3.64722">
        <ele>178.60000610352</ele>
        <time>2023-05-24T06:46:19.000Z</time>
      </trkpt>
      <trkpt lat="43.66122" lon="3.64715">
        <ele>178.39999389648</ele>
        <time>2023-05-24T06:46:24.000Z</time>
      </trkpt>
      <trkpt lat="43.66126" lon="3.64703">
        <ele>179</ele>
        <time>2023-05-24T06:46:33.000Z</time>
      </trkpt>
      <trkpt lat="43.66129" lon="3.64692">
        <ele>179.60000610352</ele>
        <time>2023-05-24T06:46:41.000Z</time>
      </trkpt>
      <trkpt lat="43.6613" lon="3.64689">
        <ele>179.80000305176</ele>
        <time>2023-05-24T06:46:43.000Z</time>
      </trkpt>
      <trkpt lat="43.66133" lon="3.64678">
        <ele>180.39999389648</ele>
        <time>2023-05-24T06:46:52.000Z</time>
      </trkpt>
      <trkpt lat="43.66134" lon="3.64673">
        <ele>180.60000610352</ele>
        <time>2023-05-24T06:46:55.000Z</time>
      </trkpt>
      <trkpt lat="43.66135" lon="3.64669">
        <ele>181</ele>
        <time>2023-05-24T06:46:59.000Z</time>
      </trkpt>
      <trkpt lat="43.66139" lon="3.64659">
        <ele>181.60000610352</ele>
        <time>2023-05-24T06:47:07.000Z</time>
      </trkpt>
      <trkpt lat="43.66142" lon="3.64654">
        <ele>182.19999694824</ele>
        <time>2023-05-24T06:47:13.000Z</time>
      </trkpt>
      <trkpt lat="43.66142" lon="3.64651">
        <ele>182.19999694824</ele>
        <time>2023-05-24T06:47:15.000Z</time>
      </trkpt>
      <trkpt lat="43.66143" lon="3.64644">
        <ele>182.80000305176</ele>
        <time>2023-05-24T06:47:20.000Z</time>
      </trkpt>
      <trkpt lat="43.66143" lon="3.64641">
        <ele>183</ele>
        <time>2023-05-24T06:47:23.000Z</time>
      </trkpt>
      <trkpt lat="43.66144" lon="3.64632">
        <ele>183.80000305176</ele>
        <time>2023-05-24T06:47:30.000Z</time>
      </trkpt>
      <trkpt lat="43.66145" lon="3.6463">
        <ele>184</ele>
        <time>2023-05-24T06:47:32.000Z</time>
      </trkpt>
      <trkpt lat="43.66146" lon="3.64621">
        <ele>184.80000305176</ele>
        <time>2023-05-24T06:47:40.000Z</time>
      </trkpt>
      <trkpt lat="43.66147" lon="3.64612">
        <ele>185.60000610352</ele>
        <time>2023-05-24T06:47:49.000Z</time>
      </trkpt>
      <trkpt lat="43.66147" lon="3.64609">
        <ele>185.80000305176</ele>
        <time>2023-05-24T06:47:51.000Z</time>
      </trkpt>
      <trkpt lat="43.66149" lon="3.64601">
        <ele>186.80000305176</ele>
        <time>2023-05-24T06:47:58.000Z</time>
      </trkpt>
      <trkpt lat="43.6615" lon="3.646">
        <ele>186.80000305176</ele>
        <time>2023-05-24T06:47:59.000Z</time>
      </trkpt>
      <trkpt lat="43.66152" lon="3.64592">
        <ele>187.60000610352</ele>
        <time>2023-05-24T06:48:06.000Z</time>
      </trkpt>
      <trkpt lat="43.66152" lon="3.6459">
        <ele>187.80000305176</ele>
        <time>2023-05-24T06:48:08.000Z</time>
      </trkpt>
      <trkpt lat="43.66152" lon="3.64589">
        <ele>187.80000305176</ele>
        <time>2023-05-24T06:48:09.000Z</time>
      </trkpt>
      <trkpt lat="43.66153" lon="3.64586">
        <ele>188.39999389648</ele>
        <time>2023-05-24T06:48:13.000Z</time>
      </trkpt>
      <trkpt lat="43.66155" lon="3.64579">
        <ele>189</ele>
        <time>2023-05-24T06:48:19.000Z</time>
      </trkpt>
      <trkpt lat="43.66155" lon="3.64569">
        <ele>189.80000305176</ele>
        <time>2023-05-24T06:48:28.000Z</time>
      </trkpt>
      <trkpt lat="43.66155" lon="3.64567">
        <ele>190</ele>
        <time>2023-05-24T06:48:30.000Z</time>
      </trkpt>
      <trkpt lat="43.66156" lon="3.64561">
        <ele>190.60000610352</ele>
        <time>2023-05-24T06:48:36.000Z</time>
      </trkpt>
      <trkpt lat="43.66157" lon="3.64557">
        <ele>191</ele>
        <time>2023-05-24T06:48:40.000Z</time>
      </trkpt>
      <trkpt lat="43.66158" lon="3.64551">
        <ele>191.39999389648</ele>
        <time>2023-05-24T06:48:45.000Z</time>
      </trkpt>
      <trkpt lat="43.66158" lon="3.64545">
        <ele>192</ele>
        <time>2023-05-24T06:48:51.000Z</time>
      </trkpt>
      <trkpt lat="43.66159" lon="3.64544">
        <ele>192.19999694824</ele>
        <time>2023-05-24T06:48:52.000Z</time>
      </trkpt>
      <trkpt lat="43.6616" lon="3.64537">
        <ele>192.80000305176</ele>
        <time>2023-05-24T06:48:58.000Z</time>
      </trkpt>
      <trkpt lat="43.66161" lon="3.64529">
        <ele>193.19999694824</ele>
        <time>2023-05-24T06:49:05.000Z</time>
      </trkpt>
      <trkpt lat="43.66162" lon="3.64525">
        <ele>193.39999389648</ele>
        <time>2023-05-24T06:49:08.000Z</time>
      </trkpt>
      <trkpt lat="43.66164" lon="3.64516">
        <ele>194.19999694824</ele>
        <time>2023-05-24T06:49:16.000Z</time>
      </trkpt>
      <trkpt lat="43.66164" lon="3.64515">
        <ele>194.19999694824</ele>
        <time>2023-05-24T06:49:17.000Z</time>
      </trkpt>
      <trkpt lat="43.66168" lon="3.6451">
        <ele>195</ele>
        <time>2023-05-24T06:49:24.000Z</time>
      </trkpt>
      <trkpt lat="43.6617" lon="3.6451">
        <ele>195.39999389648</ele>
        <time>2023-05-24T06:49:27.000Z</time>
      </trkpt>
      <trkpt lat="43.66175" lon="3.64512">
        <ele>195.60000610352</ele>
        <time>2023-05-24T06:49:32.000Z</time>
      </trkpt>
      <trkpt lat="43.66178" lon="3.64511">
        <ele>196</ele>
        <time>2023-05-24T06:49:37.000Z</time>
      </trkpt>
      <trkpt lat="43.66183" lon="3.64506">
        <ele>196.39999389648</ele>
        <time>2023-05-24T06:49:44.000Z</time>
      </trkpt>
      <trkpt lat="43.66185" lon="3.64502">
        <ele>197</ele>
        <time>2023-05-24T06:49:50.000Z</time>
      </trkpt>
      <trkpt lat="43.66184" lon="3.64495">
        <ele>197.19999694824</ele>
        <time>2023-05-24T06:49:56.000Z</time>
      </trkpt>
      <trkpt lat="43.66182" lon="3.64492">
        <ele>197.39999389648</ele>
        <time>2023-05-24T06:49:59.000Z</time>
      </trkpt>
      <trkpt lat="43.6618" lon="3.64489">
        <ele>197.80000305176</ele>
        <time>2023-05-24T06:50:02.000Z</time>
      </trkpt>
      <trkpt lat="43.66177" lon="3.64482">
        <ele>198.39999389648</ele>
        <time>2023-05-24T06:50:09.000Z</time>
      </trkpt>
      <trkpt lat="43.66176" lon="3.6448">
        <ele>198.60000610352</ele>
        <time>2023-05-24T06:50:11.000Z</time>
      </trkpt>
      <trkpt lat="43.66171" lon="3.6447">
        <ele>195.60000610352</ele>
        <time>2023-05-24T06:50:21.000Z</time>
      </trkpt>
      <trkpt lat="43.66172" lon="3.64468">
        <ele>195.39999389648</ele>
        <time>2023-05-24T06:50:23.000Z</time>
      </trkpt>
      <trkpt lat="43.66173" lon="3.64467">
        <ele>193.60000610352</ele>
        <time>2023-05-24T06:50:25.000Z</time>
      </trkpt>
      <trkpt lat="43.66173" lon="3.64466">
        <ele>196</ele>
        <time>2023-05-24T06:50:26.000Z</time>
      </trkpt>
      <trkpt lat="43.66174" lon="3.64466">
        <ele>198</ele>
        <time>2023-05-24T06:50:27.000Z</time>
      </trkpt>
      <trkpt lat="43.66175" lon="3.64465">
        <ele>201</ele>
        <time>2023-05-24T06:50:28.000Z</time>
      </trkpt>
      <trkpt lat="43.66176" lon="3.64464">
        <ele>202.39999389648</ele>
        <time>2023-05-24T06:50:30.000Z</time>
      </trkpt>
      <trkpt lat="43.66177" lon="3.64463">
        <ele>200.39999389648</ele>
        <time>2023-05-24T06:50:31.000Z</time>
      </trkpt>
      <trkpt lat="43.66177" lon="3.64464">
        <ele>200.39999389648</ele>
        <time>2023-05-24T06:50:34.000Z</time>
      </trkpt>
      <trkpt lat="43.66177" lon="3.64464">
        <ele>200.80000305176</ele>
        <time>2023-05-24T06:50:40.000Z</time>
      </trkpt>
      <trkpt lat="43.66179" lon="3.64462">
        <ele>201</ele>
        <time>2023-05-24T06:50:46.000Z</time>
      </trkpt>
      <trkpt lat="43.66174" lon="3.64461">
        <ele>201</ele>
        <time>2023-05-24T06:50:52.000Z</time>
      </trkpt>
      <trkpt lat="43.66173" lon="3.64455">
        <ele>201</ele>
        <time>2023-05-24T06:50:59.000Z</time>
      </trkpt>
      <trkpt lat="43.66173" lon="3.64452">
        <ele>201</ele>
        <time>2023-05-24T06:51:07.000Z</time>
      </trkpt>
      <trkpt lat="43.66174" lon="3.64445">
        <ele>200.60000610352</ele>
        <time>2023-05-24T06:51:15.000Z</time>
      </trkpt>
      <trkpt lat="43.66173" lon="3.64442">
        <ele>200.39999389648</ele>
        <time>2023-05-24T06:51:23.000Z</time>
      </trkpt>
      <trkpt lat="43.66172" lon="3.64441">
        <ele>199.80000305176</ele>
        <time>2023-05-24T06:51:31.000Z</time>
      </trkpt>
      <trkpt lat="43.66172" lon="3.64443">
        <ele>199.39999389648</ele>
        <time>2023-05-24T06:51:38.000Z</time>
      </trkpt>
      <trkpt lat="43.66173" lon="3.64445">
        <ele>199.19999694824</ele>
        <time>2023-05-24T06:51:40.000Z</time>
      </trkpt>
      <trkpt lat="43.66177" lon="3.64452">
        <ele>198.60000610352</ele>
        <time>2023-05-24T06:51:46.000Z</time>
      </trkpt>
      <trkpt lat="43.66179" lon="3.64453">
        <ele>198.60000610352</ele>
        <time>2023-05-24T06:51:47.000Z</time>
      </trkpt>
      <trkpt lat="43.66183" lon="3.64456">
        <ele>198.19999694824</ele>
        <time>2023-05-24T06:51:51.000Z</time>
      </trkpt>
      <trkpt lat="43.66184" lon="3.64456">
        <ele>198.19999694824</ele>
        <time>2023-05-24T06:51:52.000Z</time>
      </trkpt>
      <trkpt lat="43.6619" lon="3.64457">
        <ele>198</ele>
        <time>2023-05-24T06:51:58.000Z</time>
      </trkpt>
      <trkpt lat="43.66193" lon="3.64457">
        <ele>198.19999694824</ele>
        <time>2023-05-24T06:52:01.000Z</time>
      </trkpt>
      <trkpt lat="43.662" lon="3.64459">
        <ele>198.19999694824</ele>
        <time>2023-05-24T06:52:07.000Z</time>
      </trkpt>
      <trkpt lat="43.66211" lon="3.64459">
        <ele>199</ele>
        <time>2023-05-24T06:52:18.000Z</time>
      </trkpt>
      <trkpt lat="43.66212" lon="3.64457">
        <ele>199.39999389648</ele>
        <time>2023-05-24T06:52:21.000Z</time>
      </trkpt>
      <trkpt lat="43.66211" lon="3.64455">
        <ele>199.19999694824</ele>
        <time>2023-05-24T06:52:24.000Z</time>
      </trkpt>
      <trkpt lat="43.66208" lon="3.64448">
        <ele>200.19999694824</ele>
        <time>2023-05-24T06:52:31.000Z</time>
      </trkpt>
      <trkpt lat="43.66208" lon="3.64448">
        <ele>200.39999389648</ele>
        <time>2023-05-24T06:52:32.000Z</time>
      </trkpt>
      <trkpt lat="43.66205" lon="3.64443">
        <ele>200.60000610352</ele>
        <time>2023-05-24T06:52:37.000Z</time>
      </trkpt>
      <trkpt lat="43.662" lon="3.64437">
        <ele>200.80000305176</ele>
        <time>2023-05-24T06:52:45.000Z</time>
      </trkpt>
      <trkpt lat="43.662" lon="3.64439">
        <ele>201.19999694824</ele>
        <time>2023-05-24T06:52:51.000Z</time>
      </trkpt>
      <trkpt lat="43.662" lon="3.64437">
        <ele>201.39999389648</ele>
        <time>2023-05-24T06:52:55.000Z</time>
      </trkpt>
      <trkpt lat="43.662" lon="3.64438">
        <ele>201.39999389648</ele>
        <time>2023-05-24T06:52:57.000Z</time>
      </trkpt>
      <trkpt lat="43.66199" lon="3.64437">
        <ele>201.60000610352</ele>
        <time>2023-05-24T06:53:04.000Z</time>
      </trkpt>
      <trkpt lat="43.662" lon="3.64438">
        <ele>202.19999694824</ele>
        <time>2023-05-24T06:53:12.000Z</time>
      </trkpt>
      <trkpt lat="43.662" lon="3.64438">
        <ele>202</ele>
        <time>2023-05-24T06:53:17.000Z</time>
      </trkpt>
      <trkpt lat="43.66201" lon="3.64439">
        <ele>202.39999389648</ele>
        <time>2023-05-24T06:53:24.000Z</time>
      </trkpt>
      <trkpt lat="43.662" lon="3.64439">
        <ele>202.80000305176</ele>
        <time>2023-05-24T06:53:27.000Z</time>
      </trkpt>
      <trkpt lat="43.66201" lon="3.64439">
        <ele>203.60000610352</ele>
        <time>2023-05-24T06:53:32.000Z</time>
      </trkpt>
      <trkpt lat="43.66201" lon="3.64439">
        <ele>203.60000610352</ele>
        <time>2023-05-24T06:53:34.000Z</time>
      </trkpt>
      <trkpt lat="43.662" lon="3.64439">
        <ele>203</ele>
        <time>2023-05-24T06:53:42.000Z</time>
      </trkpt>
      <trkpt lat="43.662" lon="3.6444">
        <ele>202.80000305176</ele>
        <time>2023-05-24T06:53:49.000Z</time>
      </trkpt>
      <trkpt lat="43.662" lon="3.64439">
        <ele>202.80000305176</ele>
        <time>2023-05-24T06:54:01.000Z</time>
      </trkpt>
      <trkpt lat="43.662" lon="3.64439">
        <ele>202.39999389648</ele>
        <time>2023-05-24T06:54:10.000Z</time>
      </trkpt>
      <trkpt lat="43.66203" lon="3.6444">
        <ele>202</ele>
        <time>2023-05-24T06:54:18.000Z</time>
      </trkpt>
      <trkpt lat="43.66202" lon="3.64441">
        <ele>202</ele>
        <time>2023-05-24T06:54:25.000Z</time>
      </trkpt>
      <trkpt lat="43.66201" lon="3.64442">
        <ele>203.60000610352</ele>
        <time>2023-05-24T06:54:40.000Z</time>
      </trkpt>
      <trkpt lat="43.66201" lon="3.64442">
        <ele>204.19999694824</ele>
        <time>2023-05-24T06:54:44.000Z</time>
      </trkpt>
      <trkpt lat="43.66201" lon="3.64443">
        <ele>204.80000305176</ele>
        <time>2023-05-24T06:54:48.000Z</time>
      </trkpt>
      <trkpt lat="43.66201" lon="3.64443">
        <ele>204.80000305176</ele>
        <time>2023-05-24T06:54:59.000Z</time>
      </trkpt>
      <trkpt lat="43.66202" lon="3.64442">
        <ele>203.80000305176</ele>
        <time>2023-05-24T06:55:08.000Z</time>
      </trkpt>
      <trkpt lat="43.66202" lon="3.64442">
        <ele>203.19999694824</ele>
        <time>2023-05-24T06:55:11.000Z</time>
      </trkpt>
      <trkpt lat="43.66202" lon="3.64442">
        <ele>202.19999694824</ele>
        <time>2023-05-24T06:55:13.000Z</time>
      </trkpt>
      <trkpt lat="43.66202" lon="3.64441">
        <ele>203.39999389648</ele>
        <time>2023-05-24T06:55:16.000Z</time>
      </trkpt>
      <trkpt lat="43.66202" lon="3.64441">
        <ele>205.39999389648</ele>
        <time>2023-05-24T06:55:17.000Z</time>
      </trkpt>
      <trkpt lat="43.66202" lon="3.64441">
        <ele>208.80000305176</ele>
        <time>2023-05-24T06:55:18.000Z</time>
      </trkpt>
      <trkpt lat="43.66202" lon="3.64441">
        <ele>207.60000610352</ele>
        <time>2023-05-24T06:55:21.000Z</time>
      </trkpt>
      <trkpt lat="43.66202" lon="3.64442">
        <ele>205.39999389648</ele>
        <time>2023-05-24T06:55:22.000Z</time>
      </trkpt>
      <trkpt lat="43.66202" lon="3.64442">
        <ele>203.19999694824</ele>
        <time>2023-05-24T06:55:23.000Z</time>
      </trkpt>
      <trkpt lat="43.66202" lon="3.64442">
        <ele>195.80000305176</ele>
        <time>2023-05-24T06:55:24.000Z</time>
      </trkpt>
      <trkpt lat="43.662" lon="3.64442">
        <ele>200.60000610352</ele>
        <time>2023-05-24T06:55:29.000Z</time>
      </trkpt>
      <trkpt lat="43.66198" lon="3.64442">
        <ele>200.80000305176</ele>
        <time>2023-05-24T06:55:31.000Z</time>
      </trkpt>
      <trkpt lat="43.66197" lon="3.64442">
        <ele>203.60000610352</ele>
        <time>2023-05-24T06:55:38.000Z</time>
      </trkpt>
      <trkpt lat="43.66197" lon="3.64441">
        <ele>206.60000610352</ele>
        <time>2023-05-24T06:55:39.000Z</time>
      </trkpt>
      <trkpt lat="43.66196" lon="3.64442">
        <ele>211.19999694824</ele>
        <time>2023-05-24T06:55:40.000Z</time>
      </trkpt>
      <trkpt lat="43.66196" lon="3.64442">
        <ele>215.60000610352</ele>
        <time>2023-05-24T06:55:41.000Z</time>
      </trkpt>
      <trkpt lat="43.66196" lon="3.64442">
        <ele>219.60000610352</ele>
        <time>2023-05-24T06:55:42.000Z</time>
      </trkpt>
      <trkpt lat="43.66196" lon="3.64442">
        <ele>215.80000305176</ele>
        <time>2023-05-24T06:55:43.000Z</time>
      </trkpt>
      <trkpt lat="43.66195" lon="3.64441">
        <ele>208.80000305176</ele>
        <time>2023-05-24T06:55:44.000Z</time>
      </trkpt>
      <trkpt lat="43.66196" lon="3.64442">
        <ele>212.19999694824</ele>
        <time>2023-05-24T06:55:45.000Z</time>
      </trkpt>
      <trkpt lat="43.66195" lon="3.64442">
        <ele>212.39999389648</ele>
        <time>2023-05-24T06:55:48.000Z</time>
      </trkpt>
      <trkpt lat="43.66196" lon="3.64442">
        <ele>211.60000610352</ele>
        <time>2023-05-24T06:55:58.000Z</time>
      </trkpt>
      <trkpt lat="43.66196" lon="3.64442">
        <ele>211.19999694824</ele>
        <time>2023-05-24T06:56:04.000Z</time>
      </trkpt>
      <trkpt lat="43.66196" lon="3.64442">
        <ele>210.80000305176</ele>
        <time>2023-05-24T06:56:10.000Z</time>
      </trkpt>
      <trkpt lat="43.66197" lon="3.64443">
        <ele>210.80000305176</ele>
        <time>2023-05-24T06:56:21.000Z</time>
      </trkpt>
      <trkpt lat="43.66196" lon="3.64443">
        <ele>212.39999389648</ele>
        <time>2023-05-24T06:56:34.000Z</time>
      </trkpt>
      <trkpt lat="43.66199" lon="3.64443">
        <ele>212.60000610352</ele>
        <time>2023-05-24T06:56:42.000Z</time>
      </trkpt>
      <trkpt lat="43.66199" lon="3.64443">
        <ele>211.39999389648</ele>
        <time>2023-05-24T06:56:54.000Z</time>
      </trkpt>
      <trkpt lat="43.66199" lon="3.64444">
        <ele>210.39999389648</ele>
        <time>2023-05-24T06:56:59.000Z</time>
      </trkpt>
      <trkpt lat="43.66199" lon="3.64444">
        <ele>210.19999694824</ele>
        <time>2023-05-24T06:57:00.000Z</time>
      </trkpt>
      <trkpt lat="43.66199" lon="3.64444">
        <ele>209.19999694824</ele>
        <time>2023-05-24T06:57:07.000Z</time>
      </trkpt>
      <trkpt lat="43.662" lon="3.64445">
        <ele>208.39999389648</ele>
        <time>2023-05-24T06:57:12.000Z</time>
      </trkpt>
      <trkpt lat="43.662" lon="3.64445">
        <ele>208</ele>
        <time>2023-05-24T06:57:14.000Z</time>
      </trkpt>
      <trkpt lat="43.662" lon="3.64445">
        <ele>207</ele>
        <time>2023-05-24T06:57:21.000Z</time>
      </trkpt>
      <trkpt lat="43.66198" lon="3.64445">
        <ele>206.60000610352</ele>
        <time>2023-05-24T06:57:24.000Z</time>
      </trkpt>
      <trkpt lat="43.66198" lon="3.64445">
        <ele>206</ele>
        <time>2023-05-24T06:57:28.000Z</time>
      </trkpt>
      <trkpt lat="43.66198" lon="3.64444">
        <ele>204.80000305176</ele>
        <time>2023-05-24T06:57:35.000Z</time>
      </trkpt>
      <trkpt lat="43.66198" lon="3.64444">
        <ele>204.60000610352</ele>
        <time>2023-05-24T06:57:37.000Z</time>
      </trkpt>
      <trkpt lat="43.66198" lon="3.64444">
        <ele>203.80000305176</ele>
        <time>2023-05-24T06:57:41.000Z</time>
      </trkpt>
      <trkpt lat="43.66198" lon="3.64442">
        <ele>203.80000305176</ele>
        <time>2023-05-24T06:57:45.000Z</time>
      </trkpt>
      <trkpt lat="43.66198" lon="3.64442">
        <ele>202.80000305176</ele>
        <time>2023-05-24T06:57:51.000Z</time>
      </trkpt>
      <trkpt lat="43.66198" lon="3.64442">
        <ele>202.60000610352</ele>
        <time>2023-05-24T06:57:52.000Z</time>
      </trkpt>
      <trkpt lat="43.66198" lon="3.64442">
        <ele>201.80000305176</ele>
        <time>2023-05-24T06:57:57.000Z</time>
      </trkpt>
      <trkpt lat="43.66199" lon="3.64442">
        <ele>200.60000610352</ele>
        <time>2023-05-24T06:58:00.000Z</time>
      </trkpt>
      <trkpt lat="43.66198" lon="3.64442">
        <ele>200.39999389648</ele>
        <time>2023-05-24T06:58:06.000Z</time>
      </trkpt>
      <trkpt lat="43.66198" lon="3.64441">
        <ele>200.60000610352</ele>
        <time>2023-05-24T06:58:16.000Z</time>
      </trkpt>
      <trkpt lat="43.66198" lon="3.64441">
        <ele>200.80000305176</ele>
        <time>2023-05-24T06:58:28.000Z</time>
      </trkpt>
      <trkpt lat="43.66198" lon="3.64441">
        <ele>203.60000610352</ele>
        <time>2023-05-24T06:58:33.000Z</time>
      </trkpt>
      <trkpt lat="43.66198" lon="3.64441">
        <ele>201</ele>
        <time>2023-05-24T06:58:34.000Z</time>
      </trkpt>
      <trkpt lat="43.66197" lon="3.64441">
        <ele>200.39999389648</ele>
        <time>2023-05-24T06:58:41.000Z</time>
      </trkpt>
      <trkpt lat="43.66197" lon="3.6444">
        <ele>200</ele>
        <time>2023-05-24T06:58:47.000Z</time>
      </trkpt>
      <trkpt lat="43.66197" lon="3.6444">
        <ele>200.80000305176</ele>
        <time>2023-05-24T06:58:56.000Z</time>
      </trkpt>
      <trkpt lat="43.66197" lon="3.6444">
        <ele>201</ele>
        <time>2023-05-24T06:58:58.000Z</time>
      </trkpt>
      <trkpt lat="43.66197" lon="3.6444">
        <ele>201.39999389648</ele>
        <time>2023-05-24T06:59:03.000Z</time>
      </trkpt>
      <trkpt lat="43.66197" lon="3.6444">
        <ele>202</ele>
        <time>2023-05-24T06:59:06.000Z</time>
      </trkpt>
      <trkpt lat="43.66197" lon="3.6444">
        <ele>202.39999389648</ele>
        <time>2023-05-24T06:59:10.000Z</time>
      </trkpt>
      <trkpt lat="43.66198" lon="3.64439">
        <ele>202.60000610352</ele>
        <time>2023-05-24T06:59:20.000Z</time>
      </trkpt>
      <trkpt lat="43.662" lon="3.64441">
        <ele>202.80000305176</ele>
        <time>2023-05-24T06:59:26.000Z</time>
      </trkpt>
      <trkpt lat="43.66201" lon="3.64445">
        <ele>202.39999389648</ele>
        <time>2023-05-24T06:59:32.000Z</time>
      </trkpt>
      <trkpt lat="43.66204" lon="3.64449">
        <ele>202.60000610352</ele>
        <time>2023-05-24T06:59:39.000Z</time>
      </trkpt>
      <trkpt lat="43.66206" lon="3.64453">
        <ele>201.60000610352</ele>
        <time>2023-05-24T06:59:46.000Z</time>
      </trkpt>
      <trkpt lat="43.66206" lon="3.64453">
        <ele>202.39999389648</ele>
        <time>2023-05-24T06:59:51.000Z</time>
      </trkpt>
      <trkpt lat="43.66206" lon="3.64453">
        <ele>204.39999389648</ele>
        <time>2023-05-24T06:59:54.000Z</time>
      </trkpt>
      <trkpt lat="43.66207" lon="3.64453">
        <ele>208.19999694824</ele>
        <time>2023-05-24T06:59:55.000Z</time>
      </trkpt>
      <trkpt lat="43.66207" lon="3.64453">
        <ele>208.19999694824</ele>
        <time>2023-05-24T07:00:00.000Z</time>
      </trkpt>
      <trkpt lat="43.66209" lon="3.64451">
        <ele>208.80000305176</ele>
        <time>2023-05-24T07:00:11.000Z</time>
      </trkpt>
      <trkpt lat="43.66212" lon="3.64444">
        <ele>208.60000610352</ele>
        <time>2023-05-24T07:00:18.000Z</time>
      </trkpt>
      <trkpt lat="43.66212" lon="3.64442">
        <ele>209.19999694824</ele>
        <time>2023-05-24T07:00:21.000Z</time>
      </trkpt>
      <trkpt lat="43.66213" lon="3.64441">
        <ele>209.19999694824</ele>
        <time>2023-05-24T07:00:23.000Z</time>
      </trkpt>
      <trkpt lat="43.66214" lon="3.64436">
        <ele>209.60000610352</ele>
        <time>2023-05-24T07:00:30.000Z</time>
      </trkpt>
      <trkpt lat="43.66216" lon="3.64435">
        <ele>209.60000610352</ele>
        <time>2023-05-24T07:00:35.000Z</time>
      </trkpt>
      <trkpt lat="43.66223" lon="3.64439">
        <ele>209.39999389648</ele>
        <time>2023-05-24T07:00:43.000Z</time>
      </trkpt>
      <trkpt lat="43.66231" lon="3.64443">
        <ele>208.19999694824</ele>
        <time>2023-05-24T07:00:51.000Z</time>
      </trkpt>
      <trkpt lat="43.66233" lon="3.64444">
        <ele>207.80000305176</ele>
        <time>2023-05-24T07:00:53.000Z</time>
      </trkpt>
      <trkpt lat="43.66238" lon="3.64446">
        <ele>207.19999694824</ele>
        <time>2023-05-24T07:00:58.000Z</time>
      </trkpt>
      <trkpt lat="43.66244" lon="3.64449">
        <ele>206.39999389648</ele>
        <time>2023-05-24T07:01:04.000Z</time>
      </trkpt>
      <trkpt lat="43.66246" lon="3.6445">
        <ele>206</ele>
        <time>2023-05-24T07:01:06.000Z</time>
      </trkpt>
      <trkpt lat="43.66251" lon="3.64451">
        <ele>205</ele>
        <time>2023-05-24T07:01:13.000Z</time>
      </trkpt>
      <trkpt lat="43.66252" lon="3.64451">
        <ele>203.80000305176</ele>
        <time>2023-05-24T07:01:19.000Z</time>
      </trkpt>
      <trkpt lat="43.66252" lon="3.64451">
        <ele>203.80000305176</ele>
        <time>2023-05-24T07:01:24.000Z</time>
      </trkpt>
      <trkpt lat="43.66259" lon="3.64452">
        <ele>203.60000610352</ele>
        <time>2023-05-24T07:01:30.000Z</time>
      </trkpt>
      <trkpt lat="43.66267" lon="3.6445">
        <ele>203.80000305176</ele>
        <time>2023-05-24T07:01:38.000Z</time>
      </trkpt>
      <trkpt lat="43.66274" lon="3.64449">
        <ele>204</ele>
        <time>2023-05-24T07:01:45.000Z</time>
      </trkpt>
      <trkpt lat="43.66285" lon="3.64446">
        <ele>204.19999694824</ele>
        <time>2023-05-24T07:01:54.000Z</time>
      </trkpt>
      <trkpt lat="43.66289" lon="3.64444">
        <ele>204.39999389648</ele>
        <time>2023-05-24T07:02:00.000Z</time>
      </trkpt>
      <trkpt lat="43.66296" lon="3.64443">
        <ele>204.60000610352</ele>
        <time>2023-05-24T07:02:06.000Z</time>
      </trkpt>
      <trkpt lat="43.66307" lon="3.64439">
        <ele>205</ele>
        <time>2023-05-24T07:02:14.000Z</time>
      </trkpt>
      <trkpt lat="43.66308" lon="3.64439">
        <ele>205</ele>
        <time>2023-05-24T07:02:15.000Z</time>
      </trkpt>
      <trkpt lat="43.66318" lon="3.64436">
        <ele>205.39999389648</ele>
        <time>2023-05-24T07:02:23.000Z</time>
      </trkpt>
      <trkpt lat="43.6633" lon="3.64431">
        <ele>205.39999389648</ele>
        <time>2023-05-24T07:02:34.000Z</time>
      </trkpt>
      <trkpt lat="43.66338" lon="3.64427">
        <ele>205.60000610352</ele>
        <time>2023-05-24T07:02:40.000Z</time>
      </trkpt>
      <trkpt lat="43.66347" lon="3.64425">
        <ele>205.80000305176</ele>
        <time>2023-05-24T07:02:47.000Z</time>
      </trkpt>
      <trkpt lat="43.66357" lon="3.6442">
        <ele>205.80000305176</ele>
        <time>2023-05-24T07:02:55.000Z</time>
      </trkpt>
      <trkpt lat="43.66365" lon="3.64418">
        <ele>205.60000610352</ele>
        <time>2023-05-24T07:03:02.000Z</time>
      </trkpt>
      <trkpt lat="43.66374" lon="3.6441">
        <ele>205.80000305176</ele>
        <time>2023-05-24T07:03:12.000Z</time>
      </trkpt>
      <trkpt lat="43.66374" lon="3.64408">
        <ele>205.80000305176</ele>
        <time>2023-05-24T07:03:19.000Z</time>
      </trkpt>
      <trkpt lat="43.66375" lon="3.644">
        <ele>205.60000610352</ele>
        <time>2023-05-24T07:03:25.000Z</time>
      </trkpt>
      <trkpt lat="43.66374" lon="3.6439">
        <ele>205.19999694824</ele>
        <time>2023-05-24T07:03:34.000Z</time>
      </trkpt>
      <trkpt lat="43.66374" lon="3.64377">
        <ele>205.19999694824</ele>
        <time>2023-05-24T07:03:43.000Z</time>
      </trkpt>
      <trkpt lat="43.66374" lon="3.64371">
        <ele>204.80000305176</ele>
        <time>2023-05-24T07:03:49.000Z</time>
      </trkpt>
      <trkpt lat="43.66373" lon="3.64366">
        <ele>204.80000305176</ele>
        <time>2023-05-24T07:03:52.000Z</time>
      </trkpt>
      <trkpt lat="43.66374" lon="3.64359">
        <ele>204.80000305176</ele>
        <time>2023-05-24T07:03:56.000Z</time>
      </trkpt>
      <trkpt lat="43.66374" lon="3.64343">
        <ele>204.39999389648</ele>
        <time>2023-05-24T07:04:05.000Z</time>
      </trkpt>
      <trkpt lat="43.66374" lon="3.64329">
        <ele>204.60000610352</ele>
        <time>2023-05-24T07:04:14.000Z</time>
      </trkpt>
      <trkpt lat="43.66375" lon="3.64327">
        <ele>206</ele>
        <time>2023-05-24T07:04:15.000Z</time>
      </trkpt>
      <trkpt lat="43.66376" lon="3.64319">
        <ele>203.60000610352</ele>
        <time>2023-05-24T07:04:20.000Z</time>
      </trkpt>
      <trkpt lat="43.66376" lon="3.64317">
        <ele>203.60000610352</ele>
        <time>2023-05-24T07:04:22.000Z</time>
      </trkpt>
      <trkpt lat="43.66375" lon="3.64304">
        <ele>203.19999694824</ele>
        <time>2023-05-24T07:04:30.000Z</time>
      </trkpt>
      <trkpt lat="43.66374" lon="3.6429">
        <ele>202.80000305176</ele>
        <time>2023-05-24T07:04:39.000Z</time>
      </trkpt>
      <trkpt lat="43.66374" lon="3.6428">
        <ele>202.60000610352</ele>
        <time>2023-05-24T07:04:45.000Z</time>
      </trkpt>
      <trkpt lat="43.66374" lon="3.64274">
        <ele>202.60000610352</ele>
        <time>2023-05-24T07:04:49.000Z</time>
      </trkpt>
      <trkpt lat="43.66374" lon="3.6426">
        <ele>202.19999694824</ele>
        <time>2023-05-24T07:04:58.000Z</time>
      </trkpt>
      <trkpt lat="43.66375" lon="3.64254">
        <ele>202</ele>
        <time>2023-05-24T07:05:03.000Z</time>
      </trkpt>
      <trkpt lat="43.66375" lon="3.64243">
        <ele>202.19999694824</ele>
        <time>2023-05-24T07:05:11.000Z</time>
      </trkpt>
      <trkpt lat="43.66373" lon="3.64236">
        <ele>201.80000305176</ele>
        <time>2023-05-24T07:05:15.000Z</time>
      </trkpt>
      <trkpt lat="43.66374" lon="3.6423">
        <ele>201.60000610352</ele>
        <time>2023-05-24T07:05:19.000Z</time>
      </trkpt>
      <trkpt lat="43.66374" lon="3.64226">
        <ele>201.60000610352</ele>
        <time>2023-05-24T07:05:22.000Z</time>
      </trkpt>
      <trkpt lat="43.66375" lon="3.64207">
        <ele>201.19999694824</ele>
        <time>2023-05-24T07:05:32.000Z</time>
      </trkpt>
      <trkpt lat="43.66376" lon="3.64195">
        <ele>200.80000305176</ele>
        <time>2023-05-24T07:05:40.000Z</time>
      </trkpt>
      <trkpt lat="43.66377" lon="3.64189">
        <ele>200.60000610352</ele>
        <time>2023-05-24T07:05:44.000Z</time>
      </trkpt>
      <trkpt lat="43.66379" lon="3.64183">
        <ele>200.39999389648</ele>
        <time>2023-05-24T07:05:49.000Z</time>
      </trkpt>
      <trkpt lat="43.66379" lon="3.64179">
        <ele>200.19999694824</ele>
        <time>2023-05-24T07:05:52.000Z</time>
      </trkpt>
      <trkpt lat="43.6638" lon="3.64174">
        <ele>200</ele>
        <time>2023-05-24T07:05:55.000Z</time>
      </trkpt>
      <trkpt lat="43.66379" lon="3.64172">
        <ele>200</ele>
        <time>2023-05-24T07:05:56.000Z</time>
      </trkpt>
      <trkpt lat="43.6638" lon="3.64161">
        <ele>199.80000305176</ele>
        <time>2023-05-24T07:06:03.000Z</time>
      </trkpt>
      <trkpt lat="43.66382" lon="3.64154">
        <ele>199.60000610352</ele>
        <time>2023-05-24T07:06:07.000Z</time>
      </trkpt>
      <trkpt lat="43.66384" lon="3.64147">
        <ele>199.39999389648</ele>
        <time>2023-05-24T07:06:12.000Z</time>
      </trkpt>
      <trkpt lat="43.66389" lon="3.64138">
        <ele>198.80000305176</ele>
        <time>2023-05-24T07:06:19.000Z</time>
      </trkpt>
      <trkpt lat="43.66394" lon="3.64132">
        <ele>198.80000305176</ele>
        <time>2023-05-24T07:06:25.000Z</time>
      </trkpt>
      <trkpt lat="43.66395" lon="3.64131">
        <ele>198.60000610352</ele>
        <time>2023-05-24T07:06:27.000Z</time>
      </trkpt>
      <trkpt lat="43.66396" lon="3.64129">
        <ele>198.60000610352</ele>
        <time>2023-05-24T07:06:34.000Z</time>
      </trkpt>
      <trkpt lat="43.664" lon="3.64124">
        <ele>198.60000610352</ele>
        <time>2023-05-24T07:06:42.000Z</time>
      </trkpt>
      <trkpt lat="43.664" lon="3.6412">
        <ele>198.60000610352</ele>
        <time>2023-05-24T07:07:01.000Z</time>
      </trkpt>
      <trkpt lat="43.66403" lon="3.64112">
        <ele>198.60000610352</ele>
        <time>2023-05-24T07:07:09.000Z</time>
      </trkpt>
      <trkpt lat="43.66409" lon="3.64102">
        <ele>198.80000305176</ele>
        <time>2023-05-24T07:07:17.000Z</time>
      </trkpt>
      <trkpt lat="43.66417" lon="3.64091">
        <ele>198.60000610352</ele>
        <time>2023-05-24T07:07:26.000Z</time>
      </trkpt>
      <trkpt lat="43.66424" lon="3.64084">
        <ele>198.39999389648</ele>
        <time>2023-05-24T07:07:34.000Z</time>
      </trkpt>
      <trkpt lat="43.66426" lon="3.64082">
        <ele>198.39999389648</ele>
        <time>2023-05-24T07:07:37.000Z</time>
      </trkpt>
      <trkpt lat="43.66426" lon="3.64082">
        <ele>198.39999389648</ele>
        <time>2023-05-24T07:07:40.000Z</time>
      </trkpt>
      <trkpt lat="43.66429" lon="3.64075">
        <ele>198.39999389648</ele>
        <time>2023-05-24T07:07:51.000Z</time>
      </trkpt>
      <trkpt lat="43.66434" lon="3.64069">
        <ele>198.19999694824</ele>
        <time>2023-05-24T07:07:59.000Z</time>
      </trkpt>
      <trkpt lat="43.66436" lon="3.64067">
        <ele>198.19999694824</ele>
        <time>2023-05-24T07:08:07.000Z</time>
      </trkpt>
      <trkpt lat="43.66438" lon="3.6406">
        <ele>198</ele>
        <time>2023-05-24T07:08:19.000Z</time>
      </trkpt>
      <trkpt lat="43.66443" lon="3.64053">
        <ele>195.60000610352</ele>
        <time>2023-05-24T07:08:27.000Z</time>
      </trkpt>
      <trkpt lat="43.66443" lon="3.64052">
        <ele>193</ele>
        <time>2023-05-24T07:08:28.000Z</time>
      </trkpt>
      <trkpt lat="43.66444" lon="3.64051">
        <ele>189.60000610352</ele>
        <time>2023-05-24T07:08:29.000Z</time>
      </trkpt>
      <trkpt lat="43.66445" lon="3.6405">
        <ele>187.19999694824</ele>
        <time>2023-05-24T07:08:31.000Z</time>
      </trkpt>
      <trkpt lat="43.66446" lon="3.64049">
        <ele>190</ele>
        <time>2023-05-24T07:08:32.000Z</time>
      </trkpt>
      <trkpt lat="43.66447" lon="3.64048">
        <ele>188.80000305176</ele>
        <time>2023-05-24T07:08:33.000Z</time>
      </trkpt>
      <trkpt lat="43.6645" lon="3.64044">
        <ele>188</ele>
        <time>2023-05-24T07:08:37.000Z</time>
      </trkpt>
      <trkpt lat="43.66451" lon="3.64042">
        <ele>193</ele>
        <time>2023-05-24T07:08:39.000Z</time>
      </trkpt>
      <trkpt lat="43.66452" lon="3.64041">
        <ele>197.19999694824</ele>
        <time>2023-05-24T07:08:40.000Z</time>
      </trkpt>
      <trkpt lat="43.66456" lon="3.64036">
        <ele>197.39999389648</ele>
        <time>2023-05-24T07:08:46.000Z</time>
      </trkpt>
      <trkpt lat="43.66464" lon="3.64026">
        <ele>197.19999694824</ele>
        <time>2023-05-24T07:08:55.000Z</time>
      </trkpt>
      <trkpt lat="43.66469" lon="3.64019">
        <ele>197.19999694824</ele>
        <time>2023-05-24T07:09:03.000Z</time>
      </trkpt>
      <trkpt lat="43.66474" lon="3.64011">
        <ele>197.60000610352</ele>
        <time>2023-05-24T07:09:10.000Z</time>
      </trkpt>
      <trkpt lat="43.6648" lon="3.64001">
        <ele>197.39999389648</ele>
        <time>2023-05-24T07:09:18.000Z</time>
      </trkpt>
      <trkpt lat="43.66485" lon="3.63995">
        <ele>197.60000610352</ele>
        <time>2023-05-24T07:09:27.000Z</time>
      </trkpt>
      <trkpt lat="43.6649" lon="3.63989">
        <ele>197.39999389648</ele>
        <time>2023-05-24T07:09:33.000Z</time>
      </trkpt>
      <trkpt lat="43.66499" lon="3.6398">
        <ele>197.19999694824</ele>
        <time>2023-05-24T07:09:43.000Z</time>
      </trkpt>
      <trkpt lat="43.66509" lon="3.63971">
        <ele>197</ele>
        <time>2023-05-24T07:09:53.000Z</time>
      </trkpt>
      <trkpt lat="43.66516" lon="3.63963">
        <ele>197</ele>
        <time>2023-05-24T07:10:01.000Z</time>
      </trkpt>
      <trkpt lat="43.66524" lon="3.63953">
        <ele>196.60000610352</ele>
        <time>2023-05-24T07:10:10.000Z</time>
      </trkpt>
      <trkpt lat="43.66526" lon="3.63949">
        <ele>196.60000610352</ele>
        <time>2023-05-24T07:10:13.000Z</time>
      </trkpt>
      <trkpt lat="43.6653" lon="3.63945">
        <ele>196.39999389648</ele>
        <time>2023-05-24T07:10:17.000Z</time>
      </trkpt>
      <trkpt lat="43.66537" lon="3.63937">
        <ele>196.39999389648</ele>
        <time>2023-05-24T07:10:24.000Z</time>
      </trkpt>
      <trkpt lat="43.6654" lon="3.63933">
        <ele>196.19999694824</ele>
        <time>2023-05-24T07:10:27.000Z</time>
      </trkpt>
      <trkpt lat="43.66545" lon="3.63927">
        <ele>196</ele>
        <time>2023-05-24T07:10:33.000Z</time>
      </trkpt>
      <trkpt lat="43.66552" lon="3.6392">
        <ele>196</ele>
        <time>2023-05-24T07:10:41.000Z</time>
      </trkpt>
      <trkpt lat="43.66561" lon="3.63912">
        <ele>195.80000305176</ele>
        <time>2023-05-24T07:10:50.000Z</time>
      </trkpt>
      <trkpt lat="43.66568" lon="3.63901">
        <ele>195.60000610352</ele>
        <time>2023-05-24T07:10:59.000Z</time>
      </trkpt>
      <trkpt lat="43.66573" lon="3.63893">
        <ele>195.19999694824</ele>
        <time>2023-05-24T07:11:06.000Z</time>
      </trkpt>
      <trkpt lat="43.66581" lon="3.63884">
        <ele>194.80000305176</ele>
        <time>2023-05-24T07:11:15.000Z</time>
      </trkpt>
      <trkpt lat="43.66588" lon="3.63882">
        <ele>194.39999389648</ele>
        <time>2023-05-24T07:11:21.000Z</time>
      </trkpt>
      <trkpt lat="43.66594" lon="3.63878">
        <ele>194.19999694824</ele>
        <time>2023-05-24T07:11:27.000Z</time>
      </trkpt>
      <trkpt lat="43.66597" lon="3.63874">
        <ele>194</ele>
        <time>2023-05-24T07:11:31.000Z</time>
      </trkpt>
      <trkpt lat="43.66604" lon="3.63867">
        <ele>193.60000610352</ele>
        <time>2023-05-24T07:11:39.000Z</time>
      </trkpt>
      <trkpt lat="43.66608" lon="3.63859">
        <ele>193.60000610352</ele>
        <time>2023-05-24T07:11:46.000Z</time>
      </trkpt>
      <trkpt lat="43.66615" lon="3.6385">
        <ele>193.39999389648</ele>
        <time>2023-05-24T07:11:54.000Z</time>
      </trkpt>
      <trkpt lat="43.66619" lon="3.63848">
        <ele>193.19999694824</ele>
        <time>2023-05-24T07:11:59.000Z</time>
      </trkpt>
      <trkpt lat="43.66621" lon="3.63845">
        <ele>193</ele>
        <time>2023-05-24T07:12:02.000Z</time>
      </trkpt>
      <trkpt lat="43.66625" lon="3.63838">
        <ele>192.80000305176</ele>
        <time>2023-05-24T07:12:09.000Z</time>
      </trkpt>
      <trkpt lat="43.66631" lon="3.63832">
        <ele>192.60000610352</ele>
        <time>2023-05-24T07:12:16.000Z</time>
      </trkpt>
      <trkpt lat="43.66636" lon="3.63825">
        <ele>192.60000610352</ele>
        <time>2023-05-24T07:12:23.000Z</time>
      </trkpt>
      <trkpt lat="43.66636" lon="3.63825">
        <ele>192.60000610352</ele>
        <time>2023-05-24T07:12:24.000Z</time>
      </trkpt>
      <trkpt lat="43.66639" lon="3.63821">
        <ele>193</ele>
        <time>2023-05-24T07:12:29.000Z</time>
      </trkpt>
      <trkpt lat="43.6664" lon="3.6382">
        <ele>193</ele>
        <time>2023-05-24T07:12:30.000Z</time>
      </trkpt>
      <trkpt lat="43.66644" lon="3.63817">
        <ele>192.39999389648</ele>
        <time>2023-05-24T07:12:37.000Z</time>
      </trkpt>
      <trkpt lat="43.66647" lon="3.63812">
        <ele>192.60000610352</ele>
        <time>2023-05-24T07:12:44.000Z</time>
      </trkpt>
      <trkpt lat="43.66655" lon="3.63803">
        <ele>192.39999389648</ele>
        <time>2023-05-24T07:12:54.000Z</time>
      </trkpt>
      <trkpt lat="43.66663" lon="3.63793">
        <ele>192.19999694824</ele>
        <time>2023-05-24T07:13:04.000Z</time>
      </trkpt>
      <trkpt lat="43.66665" lon="3.63791">
        <ele>192.19999694824</ele>
        <time>2023-05-24T07:13:07.000Z</time>
      </trkpt>
      <trkpt lat="43.6667" lon="3.63785">
        <ele>192</ele>
        <time>2023-05-24T07:13:13.000Z</time>
      </trkpt>
      <trkpt lat="43.66679" lon="3.63774">
        <ele>191.60000610352</ele>
        <time>2023-05-24T07:13:24.000Z</time>
      </trkpt>
      <trkpt lat="43.66685" lon="3.63768">
        <ele>191.39999389648</ele>
        <time>2023-05-24T07:13:32.000Z</time>
      </trkpt>
      <trkpt lat="43.66692" lon="3.63761">
        <ele>191.39999389648</ele>
        <time>2023-05-24T07:13:40.000Z</time>
      </trkpt>
      <trkpt lat="43.66698" lon="3.63755">
        <ele>191.19999694824</ele>
        <time>2023-05-24T07:13:47.000Z</time>
      </trkpt>
      <trkpt lat="43.66702" lon="3.63753">
        <ele>191</ele>
        <time>2023-05-24T07:13:51.000Z</time>
      </trkpt>
      <trkpt lat="43.66705" lon="3.6375">
        <ele>190.80000305176</ele>
        <time>2023-05-24T07:13:55.000Z</time>
      </trkpt>
      <trkpt lat="43.66708" lon="3.63747">
        <ele>190.80000305176</ele>
        <time>2023-05-24T07:13:59.000Z</time>
      </trkpt>
      <trkpt lat="43.66709" lon="3.63746">
        <ele>190.19999694824</ele>
        <time>2023-05-24T07:14:06.000Z</time>
      </trkpt>
      <trkpt lat="43.6671" lon="3.63745">
        <ele>190.19999694824</ele>
        <time>2023-05-24T07:14:18.000Z</time>
      </trkpt>
      <trkpt lat="43.66714" lon="3.6374">
        <ele>190.19999694824</ele>
        <time>2023-05-24T07:14:25.000Z</time>
      </trkpt>
      <trkpt lat="43.6672" lon="3.63735">
        <ele>190.19999694824</ele>
        <time>2023-05-24T07:14:34.000Z</time>
      </trkpt>
      <trkpt lat="43.66722" lon="3.63734">
        <ele>190</ele>
        <time>2023-05-24T07:14:36.000Z</time>
      </trkpt>
      <trkpt lat="43.66726" lon="3.6373">
        <ele>190.19999694824</ele>
        <time>2023-05-24T07:14:44.000Z</time>
      </trkpt>
      <trkpt lat="43.66729" lon="3.63729">
        <ele>190.39999389648</ele>
        <time>2023-05-24T07:14:49.000Z</time>
      </trkpt>
      <trkpt lat="43.66736" lon="3.63724">
        <ele>190.19999694824</ele>
        <time>2023-05-24T07:14:57.000Z</time>
      </trkpt>
      <trkpt lat="43.66742" lon="3.63717">
        <ele>190.19999694824</ele>
        <time>2023-05-24T07:15:04.000Z</time>
      </trkpt>
      <trkpt lat="43.66749" lon="3.6371">
        <ele>190.19999694824</ele>
        <time>2023-05-24T07:15:12.000Z</time>
      </trkpt>
      <trkpt lat="43.66759" lon="3.63702">
        <ele>189.60000610352</ele>
        <time>2023-05-24T07:15:23.000Z</time>
      </trkpt>
      <trkpt lat="43.66769" lon="3.63697">
        <ele>189.39999389648</ele>
        <time>2023-05-24T07:15:34.000Z</time>
      </trkpt>
      <trkpt lat="43.66769" lon="3.63697">
        <ele>189.39999389648</ele>
        <time>2023-05-24T07:15:40.000Z</time>
      </trkpt>
      <trkpt lat="43.66769" lon="3.63697">
        <ele>189.19999694824</ele>
        <time>2023-05-24T07:15:47.000Z</time>
      </trkpt>
      <trkpt lat="43.66769" lon="3.63696">
        <ele>188.80000305176</ele>
        <time>2023-05-24T07:15:52.000Z</time>
      </trkpt>
      <trkpt lat="43.66769" lon="3.63696">
        <ele>186.39999389648</ele>
        <time>2023-05-24T07:15:53.000Z</time>
      </trkpt>
      <trkpt lat="43.66769" lon="3.63696">
        <ele>186.19999694824</ele>
        <time>2023-05-24T07:15:54.000Z</time>
      </trkpt>
      <trkpt lat="43.66769" lon="3.63696">
        <ele>189</ele>
        <time>2023-05-24T07:15:58.000Z</time>
      </trkpt>
      <trkpt lat="43.66769" lon="3.63696">
        <ele>188.80000305176</ele>
        <time>2023-05-24T07:16:04.000Z</time>
      </trkpt>
      <trkpt lat="43.66769" lon="3.63696">
        <ele>189.39999389648</ele>
        <time>2023-05-24T07:16:10.000Z</time>
      </trkpt>
      <trkpt lat="43.66769" lon="3.63696">
        <ele>189.60000610352</ele>
        <time>2023-05-24T07:16:20.000Z</time>
      </trkpt>
      <trkpt lat="43.66769" lon="3.63696">
        <ele>189.60000610352</ele>
        <time>2023-05-24T07:16:35.000Z</time>
      </trkpt>
      <trkpt lat="43.66769" lon="3.63696">
        <ele>189</ele>
        <time>2023-05-24T07:16:46.000Z</time>
      </trkpt>
      <trkpt lat="43.6677" lon="3.63694">
        <ele>189.60000610352</ele>
        <time>2023-05-24T07:16:54.000Z</time>
      </trkpt>
      <trkpt lat="43.66773" lon="3.63692">
        <ele>186.80000305176</ele>
        <time>2023-05-24T07:16:58.000Z</time>
      </trkpt>
      <trkpt lat="43.66773" lon="3.63692">
        <ele>183.80000305176</ele>
        <time>2023-05-24T07:17:00.000Z</time>
      </trkpt>
      <trkpt lat="43.66774" lon="3.63691">
        <ele>182.39999389648</ele>
        <time>2023-05-24T07:17:01.000Z</time>
      </trkpt>
      <trkpt lat="43.66774" lon="3.63691">
        <ele>179</ele>
        <time>2023-05-24T07:17:02.000Z</time>
      </trkpt>
      <trkpt lat="43.66774" lon="3.63691">
        <ele>177.80000305176</ele>
        <time>2023-05-24T07:17:03.000Z</time>
      </trkpt>
      <trkpt lat="43.66774" lon="3.63691">
        <ele>176.39999389648</ele>
        <time>2023-05-24T07:17:04.000Z</time>
      </trkpt>
      <trkpt lat="43.66774" lon="3.63691">
        <ele>178.19999694824</ele>
        <time>2023-05-24T07:17:05.000Z</time>
      </trkpt>
      <trkpt lat="43.66774" lon="3.6369">
        <ele>182</ele>
        <time>2023-05-24T07:17:06.000Z</time>
      </trkpt>
      <trkpt lat="43.66774" lon="3.6369">
        <ele>187.60000610352</ele>
        <time>2023-05-24T07:17:07.000Z</time>
      </trkpt>
      <trkpt lat="43.66774" lon="3.6369">
        <ele>194.19999694824</ele>
        <time>2023-05-24T07:17:08.000Z</time>
      </trkpt>
      <trkpt lat="43.66774" lon="3.6369">
        <ele>197.60000610352</ele>
        <time>2023-05-24T07:17:09.000Z</time>
      </trkpt>
      <trkpt lat="43.66774" lon="3.63691">
        <ele>194.39999389648</ele>
        <time>2023-05-24T07:17:12.000Z</time>
      </trkpt>
      <trkpt lat="43.66773" lon="3.63691">
        <ele>188</ele>
        <time>2023-05-24T07:17:13.000Z</time>
      </trkpt>
      <trkpt lat="43.66774" lon="3.6369">
        <ele>186.39999389648</ele>
        <time>2023-05-24T07:17:14.000Z</time>
      </trkpt>
      <trkpt lat="43.66774" lon="3.63689">
        <ele>185.19999694824</ele>
        <time>2023-05-24T07:17:16.000Z</time>
      </trkpt>
      <trkpt lat="43.66774" lon="3.63689">
        <ele>185.60000610352</ele>
        <time>2023-05-24T07:17:17.000Z</time>
      </trkpt>
      <trkpt lat="43.66773" lon="3.63689">
        <ele>185.80000305176</ele>
        <time>2023-05-24T07:17:23.000Z</time>
      </trkpt>
      <trkpt lat="43.66774" lon="3.63689">
        <ele>184</ele>
        <time>2023-05-24T07:17:35.000Z</time>
      </trkpt>
      <trkpt lat="43.66774" lon="3.63689">
        <ele>182.80000305176</ele>
        <time>2023-05-24T07:17:42.000Z</time>
      </trkpt>
      <trkpt lat="43.66774" lon="3.63689">
        <ele>182.19999694824</ele>
        <time>2023-05-24T07:17:44.000Z</time>
      </trkpt>
      <trkpt lat="43.66774" lon="3.63689">
        <ele>181.80000305176</ele>
        <time>2023-05-24T07:17:46.000Z</time>
      </trkpt>
      <trkpt lat="43.66775" lon="3.63689">
        <ele>180.60000610352</ele>
        <time>2023-05-24T07:17:50.000Z</time>
      </trkpt>
      <trkpt lat="43.66775" lon="3.63689">
        <ele>179.60000610352</ele>
        <time>2023-05-24T07:17:55.000Z</time>
      </trkpt>
      <trkpt lat="43.66775" lon="3.63689">
        <ele>178.39999389648</ele>
        <time>2023-05-24T07:18:02.000Z</time>
      </trkpt>
      <trkpt lat="43.66776" lon="3.63689">
        <ele>177.39999389648</ele>
        <time>2023-05-24T07:18:06.000Z</time>
      </trkpt>
      <trkpt lat="43.66776" lon="3.63689">
        <ele>177</ele>
        <time>2023-05-24T07:18:17.000Z</time>
      </trkpt>
      <trkpt lat="43.66776" lon="3.63689">
        <ele>176.60000610352</ele>
        <time>2023-05-24T07:18:24.000Z</time>
      </trkpt>
      <trkpt lat="43.66775" lon="3.6369">
        <ele>177.60000610352</ele>
        <time>2023-05-24T07:18:33.000Z</time>
      </trkpt>
      <trkpt lat="43.66774" lon="3.63689">
        <ele>178.39999389648</ele>
        <time>2023-05-24T07:18:39.000Z</time>
      </trkpt>
      <trkpt lat="43.66774" lon="3.6369">
        <ele>178.80000305176</ele>
        <time>2023-05-24T07:18:42.000Z</time>
      </trkpt>
      <trkpt lat="43.66774" lon="3.63687">
        <ele>179.60000610352</ele>
        <time>2023-05-24T07:18:47.000Z</time>
      </trkpt>
      <trkpt lat="43.66776" lon="3.63686">
        <ele>180.19999694824</ele>
        <time>2023-05-24T07:18:52.000Z</time>
      </trkpt>
      <trkpt lat="43.66778" lon="3.63685">
        <ele>180.60000610352</ele>
        <time>2023-05-24T07:18:55.000Z</time>
      </trkpt>
      <trkpt lat="43.66778" lon="3.63685">
        <ele>181</ele>
        <time>2023-05-24T07:18:58.000Z</time>
      </trkpt>
      <trkpt lat="43.66778" lon="3.63685">
        <ele>181.60000610352</ele>
        <time>2023-05-24T07:19:02.000Z</time>
      </trkpt>
      <trkpt lat="43.66778" lon="3.63685">
        <ele>182.39999389648</ele>
        <time>2023-05-24T07:19:06.000Z</time>
      </trkpt>
      <trkpt lat="43.66783" lon="3.6368">
        <ele>182.80000305176</ele>
        <time>2023-05-24T07:19:12.000Z</time>
      </trkpt>
      <trkpt lat="43.66791" lon="3.63675">
        <ele>183.80000305176</ele>
        <time>2023-05-24T07:19:20.000Z</time>
      </trkpt>
      <trkpt lat="43.66799" lon="3.63671">
        <ele>184.80000305176</ele>
        <time>2023-05-24T07:19:27.000Z</time>
      </trkpt>
      <trkpt lat="43.66802" lon="3.63668">
        <ele>185.19999694824</ele>
        <time>2023-05-24T07:19:30.000Z</time>
      </trkpt>
      <trkpt lat="43.66811" lon="3.63662">
        <ele>186</ele>
        <time>2023-05-24T07:19:38.000Z</time>
      </trkpt>
      <trkpt lat="43.66814" lon="3.6366">
        <ele>186.19999694824</ele>
        <time>2023-05-24T07:19:41.000Z</time>
      </trkpt>
      <trkpt lat="43.66822" lon="3.63656">
        <ele>187</ele>
        <time>2023-05-24T07:19:49.000Z</time>
      </trkpt>
      <trkpt lat="43.66823" lon="3.63655">
        <ele>187</ele>
        <time>2023-05-24T07:19:50.000Z</time>
      </trkpt>
      <trkpt lat="43.66827" lon="3.63653">
        <ele>187.80000305176</ele>
        <time>2023-05-24T07:19:57.000Z</time>
      </trkpt>
      <trkpt lat="43.66832" lon="3.63649">
        <ele>188</ele>
        <time>2023-05-24T07:20:02.000Z</time>
      </trkpt>
      <trkpt lat="43.6684" lon="3.63644">
        <ele>188</ele>
        <time>2023-05-24T07:20:10.000Z</time>
      </trkpt>
      <trkpt lat="43.66841" lon="3.63643">
        <ele>188</ele>
        <time>2023-05-24T07:20:11.000Z</time>
      </trkpt>
      <trkpt lat="43.66849" lon="3.6364">
        <ele>187.39999389648</ele>
        <time>2023-05-24T07:20:18.000Z</time>
      </trkpt>
      <trkpt lat="43.6686" lon="3.63635">
        <ele>187.39999389648</ele>
        <time>2023-05-24T07:20:28.000Z</time>
      </trkpt>
      <trkpt lat="43.66864" lon="3.63632">
        <ele>187</ele>
        <time>2023-05-24T07:20:32.000Z</time>
      </trkpt>
      <trkpt lat="43.6687" lon="3.63629">
        <ele>186.80000305176</ele>
        <time>2023-05-24T07:20:37.000Z</time>
      </trkpt>
      <trkpt lat="43.66873" lon="3.63627">
        <ele>186.80000305176</ele>
        <time>2023-05-24T07:20:40.000Z</time>
      </trkpt>
      <trkpt lat="43.66877" lon="3.63625">
        <ele>186.80000305176</ele>
        <time>2023-05-24T07:20:43.000Z</time>
      </trkpt>
      <trkpt lat="43.66881" lon="3.63623">
        <ele>186.60000610352</ele>
        <time>2023-05-24T07:20:48.000Z</time>
      </trkpt>
      <trkpt lat="43.66883" lon="3.63622">
        <ele>186.60000610352</ele>
        <time>2023-05-24T07:20:50.000Z</time>
      </trkpt>
      <trkpt lat="43.66884" lon="3.63621">
        <ele>186.39999389648</ele>
        <time>2023-05-24T07:20:51.000Z</time>
      </trkpt>
      <trkpt lat="43.66889" lon="3.63619">
        <ele>186.39999389648</ele>
        <time>2023-05-24T07:20:55.000Z</time>
      </trkpt>
      <trkpt lat="43.66896" lon="3.63615">
        <ele>186.19999694824</ele>
        <time>2023-05-24T07:21:04.000Z</time>
      </trkpt>
      <trkpt lat="43.66896" lon="3.63615">
        <ele>186.60000610352</ele>
        <time>2023-05-24T07:21:13.000Z</time>
      </trkpt>
      <trkpt lat="43.66899" lon="3.63613">
        <ele>186.19999694824</ele>
        <time>2023-05-24T07:21:23.000Z</time>
      </trkpt>
      <trkpt lat="43.66903" lon="3.63611">
        <ele>186</ele>
        <time>2023-05-24T07:21:27.000Z</time>
      </trkpt>
      <trkpt lat="43.66909" lon="3.63609">
        <ele>185.80000305176</ele>
        <time>2023-05-24T07:21:32.000Z</time>
      </trkpt>
      <trkpt lat="43.66919" lon="3.63604">
        <ele>185.80000305176</ele>
        <time>2023-05-24T07:21:42.000Z</time>
      </trkpt>
      <trkpt lat="43.66928" lon="3.63602">
        <ele>185.60000610352</ele>
        <time>2023-05-24T07:21:50.000Z</time>
      </trkpt>
      <trkpt lat="43.66931" lon="3.636">
        <ele>185.60000610352</ele>
        <time>2023-05-24T07:21:55.000Z</time>
      </trkpt>
      <trkpt lat="43.66939" lon="3.63599">
        <ele>185.39999389648</ele>
        <time>2023-05-24T07:22:03.000Z</time>
      </trkpt>
      <trkpt lat="43.66948" lon="3.63597">
        <ele>185.19999694824</ele>
        <time>2023-05-24T07:22:12.000Z</time>
      </trkpt>
      <trkpt lat="43.66951" lon="3.63595">
        <ele>185</ele>
        <time>2023-05-24T07:22:15.000Z</time>
      </trkpt>
      <trkpt lat="43.6696" lon="3.63593">
        <ele>184.60000610352</ele>
        <time>2023-05-24T07:22:24.000Z</time>
      </trkpt>
      <trkpt lat="43.6697" lon="3.63589">
        <ele>184.39999389648</ele>
        <time>2023-05-24T07:22:33.000Z</time>
      </trkpt>
      <trkpt lat="43.66974" lon="3.63588">
        <ele>184</ele>
        <time>2023-05-24T07:22:40.000Z</time>
      </trkpt>
      <trkpt lat="43.66975" lon="3.63588">
        <ele>184</ele>
        <time>2023-05-24T07:22:42.000Z</time>
      </trkpt>
      <trkpt lat="43.66977" lon="3.63588">
        <ele>184.39999389648</ele>
        <time>2023-05-24T07:22:48.000Z</time>
      </trkpt>
      <trkpt lat="43.66988" lon="3.63583">
        <ele>183.80000305176</ele>
        <time>2023-05-24T07:22:55.000Z</time>
      </trkpt>
      <trkpt lat="43.67" lon="3.6358">
        <ele>183.39999389648</ele>
        <time>2023-05-24T07:23:02.000Z</time>
      </trkpt>
      <trkpt lat="43.67014" lon="3.63576">
        <ele>183</ele>
        <time>2023-05-24T07:23:11.000Z</time>
      </trkpt>
      <trkpt lat="43.67017" lon="3.63575">
        <ele>183</ele>
        <time>2023-05-24T07:23:13.000Z</time>
      </trkpt>
      <trkpt lat="43.67025" lon="3.63573">
        <ele>182.80000305176</ele>
        <time>2023-05-24T07:23:18.000Z</time>
      </trkpt>
      <trkpt lat="43.67037" lon="3.63571">
        <ele>182.60000610352</ele>
        <time>2023-05-24T07:23:26.000Z</time>
      </trkpt>
      <trkpt lat="43.67044" lon="3.63571">
        <ele>182.19999694824</ele>
        <time>2023-05-24T07:23:32.000Z</time>
      </trkpt>
      <trkpt lat="43.67045" lon="3.63571">
        <ele>182.19999694824</ele>
        <time>2023-05-24T07:23:33.000Z</time>
      </trkpt>
      <trkpt lat="43.67046" lon="3.63572">
        <ele>182.39999389648</ele>
        <time>2023-05-24T07:23:37.000Z</time>
      </trkpt>
      <trkpt lat="43.67047" lon="3.63572">
        <ele>182.39999389648</ele>
        <time>2023-05-24T07:23:53.000Z</time>
      </trkpt>
      <trkpt lat="43.67049" lon="3.63572">
        <ele>182.19999694824</ele>
        <time>2023-05-24T07:24:00.000Z</time>
      </trkpt>
      <trkpt lat="43.67054" lon="3.63571">
        <ele>182</ele>
        <time>2023-05-24T07:24:07.000Z</time>
      </trkpt>
      <trkpt lat="43.67058" lon="3.63571">
        <ele>182.19999694824</ele>
        <time>2023-05-24T07:24:13.000Z</time>
      </trkpt>
      <trkpt lat="43.67066" lon="3.6357">
        <ele>182</ele>
        <time>2023-05-24T07:24:21.000Z</time>
      </trkpt>
      <trkpt lat="43.67073" lon="3.6357">
        <ele>181.80000305176</ele>
        <time>2023-05-24T07:24:28.000Z</time>
      </trkpt>
      <trkpt lat="43.67075" lon="3.6357">
        <ele>181.80000305176</ele>
        <time>2023-05-24T07:24:30.000Z</time>
      </trkpt>
      <trkpt lat="43.67084" lon="3.63569">
        <ele>181.39999389648</ele>
        <time>2023-05-24T07:24:38.000Z</time>
      </trkpt>
      <trkpt lat="43.67092" lon="3.63568">
        <ele>181.19999694824</ele>
        <time>2023-05-24T07:24:46.000Z</time>
      </trkpt>
      <trkpt lat="43.671" lon="3.63568">
        <ele>181</ele>
        <time>2023-05-24T07:24:53.000Z</time>
      </trkpt>
      <trkpt lat="43.67109" lon="3.63569">
        <ele>181</ele>
        <time>2023-05-24T07:25:00.000Z</time>
      </trkpt>
      <trkpt lat="43.67111" lon="3.63569">
        <ele>180.80000305176</ele>
        <time>2023-05-24T07:25:02.000Z</time>
      </trkpt>
      <trkpt lat="43.67118" lon="3.63569">
        <ele>180.60000610352</ele>
        <time>2023-05-24T07:25:08.000Z</time>
      </trkpt>
      <trkpt lat="43.67129" lon="3.63569">
        <ele>180.39999389648</ele>
        <time>2023-05-24T07:25:18.000Z</time>
      </trkpt>
      <trkpt lat="43.67134" lon="3.63569">
        <ele>180.19999694824</ele>
        <time>2023-05-24T07:25:25.000Z</time>
      </trkpt>
      <trkpt lat="43.67137" lon="3.63569">
        <ele>180.39999389648</ele>
        <time>2023-05-24T07:25:36.000Z</time>
      </trkpt>
      <trkpt lat="43.67147" lon="3.6357">
        <ele>180</ele>
        <time>2023-05-24T07:25:45.000Z</time>
      </trkpt>
      <trkpt lat="43.67156" lon="3.63571">
        <ele>180</ele>
        <time>2023-05-24T07:25:54.000Z</time>
      </trkpt>
      <trkpt lat="43.67159" lon="3.63571">
        <ele>179.80000305176</ele>
        <time>2023-05-24T07:25:57.000Z</time>
      </trkpt>
      <trkpt lat="43.67165" lon="3.63571">
        <ele>179.60000610352</ele>
        <time>2023-05-24T07:26:02.000Z</time>
      </trkpt>
      <trkpt lat="43.67174" lon="3.63571">
        <ele>179.39999389648</ele>
        <time>2023-05-24T07:26:10.000Z</time>
      </trkpt>
      <trkpt lat="43.67184" lon="3.63572">
        <ele>179.19999694824</ele>
        <time>2023-05-24T07:26:19.000Z</time>
      </trkpt>
      <trkpt lat="43.67195" lon="3.63573">
        <ele>179</ele>
        <time>2023-05-24T07:26:29.000Z</time>
      </trkpt>
      <trkpt lat="43.67198" lon="3.63573">
        <ele>178.80000305176</ele>
        <time>2023-05-24T07:26:32.000Z</time>
      </trkpt>
      <trkpt lat="43.67202" lon="3.63574">
        <ele>178.60000610352</ele>
        <time>2023-05-24T07:26:37.000Z</time>
      </trkpt>
      <trkpt lat="43.67211" lon="3.63575">
        <ele>178.39999389648</ele>
        <time>2023-05-24T07:26:46.000Z</time>
      </trkpt>
      <trkpt lat="43.67221" lon="3.63578">
        <ele>178.39999389648</ele>
        <time>2023-05-24T07:26:55.000Z</time>
      </trkpt>
      <trkpt lat="43.67231" lon="3.6358">
        <ele>178.19999694824</ele>
        <time>2023-05-24T07:27:04.000Z</time>
      </trkpt>
      <trkpt lat="43.67238" lon="3.63581">
        <ele>177.80000305176</ele>
        <time>2023-05-24T07:27:12.000Z</time>
      </trkpt>
      <trkpt lat="43.67239" lon="3.63581">
        <ele>177.80000305176</ele>
        <time>2023-05-24T07:27:13.000Z</time>
      </trkpt>
      <trkpt lat="43.67245" lon="3.63583">
        <ele>177.60000610352</ele>
        <time>2023-05-24T07:27:19.000Z</time>
      </trkpt>
      <trkpt lat="43.67255" lon="3.63584">
        <ele>177.39999389648</ele>
        <time>2023-05-24T07:27:30.000Z</time>
      </trkpt>
      <trkpt lat="43.67265" lon="3.63585">
        <ele>177.19999694824</ele>
        <time>2023-05-24T07:27:39.000Z</time>
      </trkpt>
      <trkpt lat="43.67273" lon="3.63587">
        <ele>176.80000305176</ele>
        <time>2023-05-24T07:27:48.000Z</time>
      </trkpt>
      <trkpt lat="43.67276" lon="3.63587">
        <ele>176.39999389648</ele>
        <time>2023-05-24T07:27:50.000Z</time>
      </trkpt>
      <trkpt lat="43.67283" lon="3.63589">
        <ele>176.19999694824</ele>
        <time>2023-05-24T07:27:58.000Z</time>
      </trkpt>
      <trkpt lat="43.6729" lon="3.63589">
        <ele>176.19999694824</ele>
        <time>2023-05-24T07:28:05.000Z</time>
      </trkpt>
      <trkpt lat="43.67298" lon="3.63591">
        <ele>176</ele>
        <time>2023-05-24T07:28:13.000Z</time>
      </trkpt>
      <trkpt lat="43.67304" lon="3.63591">
        <ele>175.80000305176</ele>
        <time>2023-05-24T07:28:19.000Z</time>
      </trkpt>
      <trkpt lat="43.67305" lon="3.63591">
        <ele>175.60000610352</ele>
        <time>2023-05-24T07:28:22.000Z</time>
      </trkpt>
      <trkpt lat="43.67308" lon="3.63592">
        <ele>175.80000305176</ele>
        <time>2023-05-24T07:28:30.000Z</time>
      </trkpt>
      <trkpt lat="43.67316" lon="3.63593">
        <ele>175.60000610352</ele>
        <time>2023-05-24T07:28:38.000Z</time>
      </trkpt>
      <trkpt lat="43.67324" lon="3.63595">
        <ele>175.39999389648</ele>
        <time>2023-05-24T07:28:47.000Z</time>
      </trkpt>
      <trkpt lat="43.67332" lon="3.63596">
        <ele>174.80000305176</ele>
        <time>2023-05-24T07:28:55.000Z</time>
      </trkpt>
      <trkpt lat="43.6734" lon="3.63597">
        <ele>174.80000305176</ele>
        <time>2023-05-24T07:29:03.000Z</time>
      </trkpt>
      <trkpt lat="43.67343" lon="3.63597">
        <ele>174.80000305176</ele>
        <time>2023-05-24T07:29:10.000Z</time>
      </trkpt>
      <trkpt lat="43.67348" lon="3.63597">
        <ele>175</ele>
        <time>2023-05-24T07:29:17.000Z</time>
      </trkpt>
      <trkpt lat="43.67353" lon="3.63597">
        <ele>174.60000610352</ele>
        <time>2023-05-24T07:29:22.000Z</time>
      </trkpt>
      <trkpt lat="43.67357" lon="3.63597">
        <ele>174.39999389648</ele>
        <time>2023-05-24T07:29:26.000Z</time>
      </trkpt>
      <trkpt lat="43.67367" lon="3.63596">
        <ele>174.19999694824</ele>
        <time>2023-05-24T07:29:35.000Z</time>
      </trkpt>
      <trkpt lat="43.67373" lon="3.63596">
        <ele>174.39999389648</ele>
        <time>2023-05-24T07:29:43.000Z</time>
      </trkpt>
      <trkpt lat="43.67381" lon="3.63596">
        <ele>174.39999389648</ele>
        <time>2023-05-24T07:29:50.000Z</time>
      </trkpt>
      <trkpt lat="43.67392" lon="3.63597">
        <ele>174</ele>
        <time>2023-05-24T07:30:01.000Z</time>
      </trkpt>
      <trkpt lat="43.674" lon="3.63597">
        <ele>173.60000610352</ele>
        <time>2023-05-24T07:30:08.000Z</time>
      </trkpt>
      <trkpt lat="43.6741" lon="3.63596">
        <ele>173.60000610352</ele>
        <time>2023-05-24T07:30:17.000Z</time>
      </trkpt>
      <trkpt lat="43.67421" lon="3.63594">
        <ele>172.80000305176</ele>
        <time>2023-05-24T07:30:27.000Z</time>
      </trkpt>
      <trkpt lat="43.67426" lon="3.63594">
        <ele>172.60000610352</ele>
        <time>2023-05-24T07:30:31.000Z</time>
      </trkpt>
      <trkpt lat="43.6743" lon="3.63593">
        <ele>172.60000610352</ele>
        <time>2023-05-24T07:30:35.000Z</time>
      </trkpt>
      <trkpt lat="43.6744" lon="3.63591">
        <ele>172.19999694824</ele>
        <time>2023-05-24T07:30:44.000Z</time>
      </trkpt>
      <trkpt lat="43.67444" lon="3.63591">
        <ele>172.19999694824</ele>
        <time>2023-05-24T07:30:48.000Z</time>
      </trkpt>
      <trkpt lat="43.67444" lon="3.63591">
        <ele>172.19999694824</ele>
        <time>2023-05-24T07:30:51.000Z</time>
      </trkpt>
      <trkpt lat="43.67452" lon="3.6359">
        <ele>172</ele>
        <time>2023-05-24T07:30:58.000Z</time>
      </trkpt>
      <trkpt lat="43.6746" lon="3.63591">
        <ele>172</ele>
        <time>2023-05-24T07:31:06.000Z</time>
      </trkpt>
      <trkpt lat="43.67468" lon="3.63588">
        <ele>171.80000305176</ele>
        <time>2023-05-24T07:31:15.000Z</time>
      </trkpt>
      <trkpt lat="43.6747" lon="3.63588">
        <ele>171.60000610352</ele>
        <time>2023-05-24T07:31:17.000Z</time>
      </trkpt>
      <trkpt lat="43.67476" lon="3.63587">
        <ele>171.39999389648</ele>
        <time>2023-05-24T07:31:23.000Z</time>
      </trkpt>
      <trkpt lat="43.67483" lon="3.63584">
        <ele>171.19999694824</ele>
        <time>2023-05-24T07:31:30.000Z</time>
      </trkpt>
      <trkpt lat="43.67492" lon="3.63582">
        <ele>171.19999694824</ele>
        <time>2023-05-24T07:31:40.000Z</time>
      </trkpt>
      <trkpt lat="43.67493" lon="3.63583">
        <ele>171</ele>
        <time>2023-05-24T07:31:47.000Z</time>
      </trkpt>
      <trkpt lat="43.67496" lon="3.63581">
        <ele>171.19999694824</ele>
        <time>2023-05-24T07:31:54.000Z</time>
      </trkpt>
      <trkpt lat="43.67503" lon="3.63578">
        <ele>170.60000610352</ele>
        <time>2023-05-24T07:32:03.000Z</time>
      </trkpt>
      <trkpt lat="43.67505" lon="3.63577">
        <ele>170.60000610352</ele>
        <time>2023-05-24T07:32:05.000Z</time>
      </trkpt>
      <trkpt lat="43.67512" lon="3.63574">
        <ele>170.60000610352</ele>
        <time>2023-05-24T07:32:13.000Z</time>
      </trkpt>
      <trkpt lat="43.67519" lon="3.6357">
        <ele>170.19999694824</ele>
        <time>2023-05-24T07:32:20.000Z</time>
      </trkpt>
      <trkpt lat="43.67527" lon="3.63565">
        <ele>170.19999694824</ele>
        <time>2023-05-24T07:32:29.000Z</time>
      </trkpt>
      <trkpt lat="43.67538" lon="3.6356">
        <ele>169.80000305176</ele>
        <time>2023-05-24T07:32:40.000Z</time>
      </trkpt>
      <trkpt lat="43.6754" lon="3.63559">
        <ele>169.39999389648</ele>
        <time>2023-05-24T07:32:42.000Z</time>
      </trkpt>
      <trkpt lat="43.67545" lon="3.63556">
        <ele>169.80000305176</ele>
        <time>2023-05-24T07:32:47.000Z</time>
      </trkpt>
      <trkpt lat="43.67553" lon="3.63552">
        <ele>169.80000305176</ele>
        <time>2023-05-24T07:32:56.000Z</time>
      </trkpt>
      <trkpt lat="43.67555" lon="3.63551">
        <ele>169.60000610352</ele>
        <time>2023-05-24T07:33:01.000Z</time>
      </trkpt>
      <trkpt lat="43.67564" lon="3.63546">
        <ele>169.19999694824</ele>
        <time>2023-05-24T07:33:11.000Z</time>
      </trkpt>
      <trkpt lat="43.67573" lon="3.63539">
        <ele>169</ele>
        <time>2023-05-24T07:33:20.000Z</time>
      </trkpt>
      <trkpt lat="43.67582" lon="3.63532">
        <ele>168.80000305176</ele>
        <time>2023-05-24T07:33:30.000Z</time>
      </trkpt>
      <trkpt lat="43.67583" lon="3.63531">
        <ele>168.60000610352</ele>
        <time>2023-05-24T07:33:35.000Z</time>
      </trkpt>
      <trkpt lat="43.67587" lon="3.63528">
        <ele>168.60000610352</ele>
        <time>2023-05-24T07:33:41.000Z</time>
      </trkpt>
      <trkpt lat="43.67594" lon="3.63523">
        <ele>168.39999389648</ele>
        <time>2023-05-24T07:33:48.000Z</time>
      </trkpt>
      <trkpt lat="43.67597" lon="3.63522">
        <ele>168.39999389648</ele>
        <time>2023-05-24T07:33:51.000Z</time>
      </trkpt>
      <trkpt lat="43.67605" lon="3.63516">
        <ele>168.19999694824</ele>
        <time>2023-05-24T07:33:59.000Z</time>
      </trkpt>
      <trkpt lat="43.67616" lon="3.63509">
        <ele>167.60000610352</ele>
        <time>2023-05-24T07:34:10.000Z</time>
      </trkpt>
      <trkpt lat="43.67621" lon="3.63504">
        <ele>167.39999389648</ele>
        <time>2023-05-24T07:34:16.000Z</time>
      </trkpt>
      <trkpt lat="43.67623" lon="3.63503">
        <ele>167.39999389648</ele>
        <time>2023-05-24T07:34:18.000Z</time>
      </trkpt>
      <trkpt lat="43.6763" lon="3.63497">
        <ele>167</ele>
        <time>2023-05-24T07:34:25.000Z</time>
      </trkpt>
      <trkpt lat="43.67639" lon="3.6349">
        <ele>166.80000305176</ele>
        <time>2023-05-24T07:34:34.000Z</time>
      </trkpt>
      <trkpt lat="43.67648" lon="3.63482">
        <ele>166.80000305176</ele>
        <time>2023-05-24T07:34:44.000Z</time>
      </trkpt>
      <trkpt lat="43.67656" lon="3.63474">
        <ele>166.60000610352</ele>
        <time>2023-05-24T07:34:54.000Z</time>
      </trkpt>
      <trkpt lat="43.67658" lon="3.63473">
        <ele>166.60000610352</ele>
        <time>2023-05-24T07:35:00.000Z</time>
      </trkpt>
      <trkpt lat="43.67663" lon="3.63471">
        <ele>166.60000610352</ele>
        <time>2023-05-24T07:35:08.000Z</time>
      </trkpt>
      <trkpt lat="43.67667" lon="3.63466">
        <ele>166.39999389648</ele>
        <time>2023-05-24T07:35:13.000Z</time>
      </trkpt>
      <trkpt lat="43.67669" lon="3.63463">
        <ele>166.39999389648</ele>
        <time>2023-05-24T07:35:16.000Z</time>
      </trkpt>
      <trkpt lat="43.67676" lon="3.63456">
        <ele>166</ele>
        <time>2023-05-24T07:35:24.000Z</time>
      </trkpt>
      <trkpt lat="43.67678" lon="3.63454">
        <ele>166</ele>
        <time>2023-05-24T07:35:29.000Z</time>
      </trkpt>
      <trkpt lat="43.67679" lon="3.63453">
        <ele>166</ele>
        <time>2023-05-24T07:35:35.000Z</time>
      </trkpt>
      <trkpt lat="43.67684" lon="3.6345">
        <ele>166</ele>
        <time>2023-05-24T07:35:42.000Z</time>
      </trkpt>
      <trkpt lat="43.67691" lon="3.63442">
        <ele>165.60000610352</ele>
        <time>2023-05-24T07:35:51.000Z</time>
      </trkpt>
      <trkpt lat="43.67697" lon="3.63436">
        <ele>165.39999389648</ele>
        <time>2023-05-24T07:35:58.000Z</time>
      </trkpt>
      <trkpt lat="43.67698" lon="3.63434">
        <ele>165.39999389648</ele>
        <time>2023-05-24T07:36:00.000Z</time>
      </trkpt>
      <trkpt lat="43.677" lon="3.63433">
        <ele>165.19999694824</ele>
        <time>2023-05-24T07:36:02.000Z</time>
      </trkpt>
      <trkpt lat="43.67705" lon="3.63427">
        <ele>165.19999694824</ele>
        <time>2023-05-24T07:36:08.000Z</time>
      </trkpt>
      <trkpt lat="43.67708" lon="3.63424">
        <ele>165</ele>
        <time>2023-05-24T07:36:12.000Z</time>
      </trkpt>
      <trkpt lat="43.67711" lon="3.63421">
        <ele>165</ele>
        <time>2023-05-24T07:36:16.000Z</time>
      </trkpt>
      <trkpt lat="43.67717" lon="3.63416">
        <ele>164.80000305176</ele>
        <time>2023-05-24T07:36:23.000Z</time>
      </trkpt>
      <trkpt lat="43.67725" lon="3.63407">
        <ele>164.60000610352</ele>
        <time>2023-05-24T07:36:33.000Z</time>
      </trkpt>
      <trkpt lat="43.67731" lon="3.63399">
        <ele>164.39999389648</ele>
        <time>2023-05-24T07:36:41.000Z</time>
      </trkpt>
      <trkpt lat="43.67733" lon="3.63397">
        <ele>164.39999389648</ele>
        <time>2023-05-24T07:36:43.000Z</time>
      </trkpt>
      <trkpt lat="43.67738" lon="3.63389">
        <ele>164</ele>
        <time>2023-05-24T07:36:51.000Z</time>
      </trkpt>
      <trkpt lat="43.67745" lon="3.63378">
        <ele>163.80000305176</ele>
        <time>2023-05-24T07:37:01.000Z</time>
      </trkpt>
      <trkpt lat="43.67752" lon="3.63369">
        <ele>163.60000610352</ele>
        <time>2023-05-24T07:37:11.000Z</time>
      </trkpt>
      <trkpt lat="43.67758" lon="3.63361">
        <ele>163.39999389648</ele>
        <time>2023-05-24T07:37:19.000Z</time>
      </trkpt>
      <trkpt lat="43.6776" lon="3.63359">
        <ele>163.19999694824</ele>
        <time>2023-05-24T07:37:22.000Z</time>
      </trkpt>
      <trkpt lat="43.67767" lon="3.63351">
        <ele>163.19999694824</ele>
        <time>2023-05-24T07:37:30.000Z</time>
      </trkpt>
      <trkpt lat="43.67773" lon="3.63347">
        <ele>162.80000305176</ele>
        <time>2023-05-24T07:37:38.000Z</time>
      </trkpt>
      <trkpt lat="43.67777" lon="3.6334">
        <ele>162</ele>
        <time>2023-05-24T07:37:44.000Z</time>
      </trkpt>
      <trkpt lat="43.67778" lon="3.63339">
        <ele>162</ele>
        <time>2023-05-24T07:37:45.000Z</time>
      </trkpt>
      <trkpt lat="43.67783" lon="3.63333">
        <ele>162.60000610352</ele>
        <time>2023-05-24T07:37:52.000Z</time>
      </trkpt>
      <trkpt lat="43.6779" lon="3.63323">
        <ele>162.39999389648</ele>
        <time>2023-05-24T07:38:02.000Z</time>
      </trkpt>
      <trkpt lat="43.67796" lon="3.63313">
        <ele>162</ele>
        <time>2023-05-24T07:38:11.000Z</time>
      </trkpt>
      <trkpt lat="43.67801" lon="3.63304">
        <ele>161.80000305176</ele>
        <time>2023-05-24T07:38:21.000Z</time>
      </trkpt>
      <trkpt lat="43.67804" lon="3.633">
        <ele>161.60000610352</ele>
        <time>2023-05-24T07:38:28.000Z</time>
      </trkpt>
      <trkpt lat="43.6781" lon="3.63289">
        <ele>161.39999389648</ele>
        <time>2023-05-24T07:38:38.000Z</time>
      </trkpt>
      <trkpt lat="43.67815" lon="3.63279">
        <ele>161.19999694824</ele>
        <time>2023-05-24T07:38:47.000Z</time>
      </trkpt>
      <trkpt lat="43.6782" lon="3.63268">
        <ele>161</ele>
        <time>2023-05-24T07:38:56.000Z</time>
      </trkpt>
      <trkpt lat="43.67822" lon="3.63266">
        <ele>161</ele>
        <time>2023-05-24T07:38:58.000Z</time>
      </trkpt>
      <trkpt lat="43.67825" lon="3.63257">
        <ele>160.60000610352</ele>
        <time>2023-05-24T07:39:05.000Z</time>
      </trkpt>
      <trkpt lat="43.67829" lon="3.63247">
        <ele>157.80000305176</ele>
        <time>2023-05-24T07:39:13.000Z</time>
      </trkpt>
      <trkpt lat="43.6783" lon="3.63244">
        <ele>156.19999694824</ele>
        <time>2023-05-24T07:39:15.000Z</time>
      </trkpt>
      <trkpt lat="43.67831" lon="3.63241">
        <ele>158.80000305176</ele>
        <time>2023-05-24T07:39:18.000Z</time>
      </trkpt>
      <trkpt lat="43.67832" lon="3.63238">
        <ele>160.19999694824</ele>
        <time>2023-05-24T07:39:20.000Z</time>
      </trkpt>
      <trkpt lat="43.67832" lon="3.63237">
        <ele>160</ele>
        <time>2023-05-24T07:39:21.000Z</time>
      </trkpt>
      <trkpt lat="43.67836" lon="3.63226">
        <ele>160</ele>
        <time>2023-05-24T07:39:30.000Z</time>
      </trkpt>
      <trkpt lat="43.67836" lon="3.63225">
        <ele>159.80000305176</ele>
        <time>2023-05-24T07:39:31.000Z</time>
      </trkpt>
      <trkpt lat="43.67839" lon="3.63221">
        <ele>159.80000305176</ele>
        <time>2023-05-24T07:39:35.000Z</time>
      </trkpt>
      <trkpt lat="43.6784" lon="3.63221">
        <ele>159.80000305176</ele>
        <time>2023-05-24T07:39:36.000Z</time>
      </trkpt>
      <trkpt lat="43.67844" lon="3.63212">
        <ele>160.19999694824</ele>
        <time>2023-05-24T07:39:45.000Z</time>
      </trkpt>
      <trkpt lat="43.67848" lon="3.632">
        <ele>160</ele>
        <time>2023-05-24T07:39:56.000Z</time>
      </trkpt>
      <trkpt lat="43.67852" lon="3.6319">
        <ele>159.39999389648</ele>
        <time>2023-05-24T07:40:04.000Z</time>
      </trkpt>
      <trkpt lat="43.67853" lon="3.63188">
        <ele>159.19999694824</ele>
        <time>2023-05-24T07:40:10.000Z</time>
      </trkpt>
      <trkpt lat="43.67854" lon="3.63188">
        <ele>159.19999694824</ele>
        <time>2023-05-24T07:40:18.000Z</time>
      </trkpt>
      <trkpt lat="43.67857" lon="3.63181">
        <ele>159.19999694824</ele>
        <time>2023-05-24T07:40:24.000Z</time>
      </trkpt>
      <trkpt lat="43.6786" lon="3.63176">
        <ele>159.19999694824</ele>
        <time>2023-05-24T07:40:28.000Z</time>
      </trkpt>
      <trkpt lat="43.67864" lon="3.63168">
        <ele>159</ele>
        <time>2023-05-24T07:40:35.000Z</time>
      </trkpt>
      <trkpt lat="43.67869" lon="3.63157">
        <ele>158.80000305176</ele>
        <time>2023-05-24T07:40:44.000Z</time>
      </trkpt>
      <trkpt lat="43.67874" lon="3.63148">
        <ele>158.80000305176</ele>
        <time>2023-05-24T07:40:53.000Z</time>
      </trkpt>
      <trkpt lat="43.67879" lon="3.63138">
        <ele>158.39999389648</ele>
        <time>2023-05-24T07:41:01.000Z</time>
      </trkpt>
      <trkpt lat="43.67879" lon="3.63137">
        <ele>158.39999389648</ele>
        <time>2023-05-24T07:41:02.000Z</time>
      </trkpt>
      <trkpt lat="43.67881" lon="3.63133">
        <ele>158.19999694824</ele>
        <time>2023-05-24T07:41:06.000Z</time>
      </trkpt>
      <trkpt lat="43.67882" lon="3.63131">
        <ele>158.19999694824</ele>
        <time>2023-05-24T07:41:08.000Z</time>
      </trkpt>
      <trkpt lat="43.67884" lon="3.63127">
        <ele>158.19999694824</ele>
        <time>2023-05-24T07:41:11.000Z</time>
      </trkpt>
      <trkpt lat="43.67887" lon="3.63118">
        <ele>157.80000305176</ele>
        <time>2023-05-24T07:41:18.000Z</time>
      </trkpt>
      <trkpt lat="43.67892" lon="3.63108">
        <ele>157.60000610352</ele>
        <time>2023-05-24T07:41:27.000Z</time>
      </trkpt>
      <trkpt lat="43.67895" lon="3.63097">
        <ele>157.39999389648</ele>
        <time>2023-05-24T07:41:35.000Z</time>
      </trkpt>
      <trkpt lat="43.67899" lon="3.63086">
        <ele>157.19999694824</ele>
        <time>2023-05-24T07:41:44.000Z</time>
      </trkpt>
      <trkpt lat="43.679" lon="3.6308">
        <ele>157.19999694824</ele>
        <time>2023-05-24T07:41:49.000Z</time>
      </trkpt>
      <trkpt lat="43.67901" lon="3.63077">
        <ele>157.19999694824</ele>
        <time>2023-05-24T07:41:53.000Z</time>
      </trkpt>
      <trkpt lat="43.67902" lon="3.63072">
        <ele>157.19999694824</ele>
        <time>2023-05-24T07:42:00.000Z</time>
      </trkpt>
      <trkpt lat="43.67908" lon="3.63069">
        <ele>157</ele>
        <time>2023-05-24T07:42:07.000Z</time>
      </trkpt>
      <trkpt lat="43.67912" lon="3.63062">
        <ele>156.80000305176</ele>
        <time>2023-05-24T07:42:14.000Z</time>
      </trkpt>
      <trkpt lat="43.67915" lon="3.6305">
        <ele>156.80000305176</ele>
        <time>2023-05-24T07:42:24.000Z</time>
      </trkpt>
      <trkpt lat="43.67915" lon="3.63041">
        <ele>156.80000305176</ele>
        <time>2023-05-24T07:42:32.000Z</time>
      </trkpt>
      <trkpt lat="43.6791" lon="3.63033">
        <ele>156.60000610352</ele>
        <time>2023-05-24T07:42:40.000Z</time>
      </trkpt>
      <trkpt lat="43.67908" lon="3.6303">
        <ele>156.80000305176</ele>
        <time>2023-05-24T07:42:43.000Z</time>
      </trkpt>
      <trkpt lat="43.67909" lon="3.63026">
        <ele>156.80000305176</ele>
        <time>2023-05-24T07:42:47.000Z</time>
      </trkpt>
      <trkpt lat="43.6791" lon="3.63025">
        <ele>156.80000305176</ele>
        <time>2023-05-24T07:42:48.000Z</time>
      </trkpt>
      <trkpt lat="43.67912" lon="3.63021">
        <ele>156.80000305176</ele>
        <time>2023-05-24T07:42:52.000Z</time>
      </trkpt>
      <trkpt lat="43.67914" lon="3.63019">
        <ele>156.80000305176</ele>
        <time>2023-05-24T07:42:54.000Z</time>
      </trkpt>
      <trkpt lat="43.67923" lon="3.63014">
        <ele>156.60000610352</ele>
        <time>2023-05-24T07:43:04.000Z</time>
      </trkpt>
      <trkpt lat="43.67932" lon="3.63008">
        <ele>156.60000610352</ele>
        <time>2023-05-24T07:43:14.000Z</time>
      </trkpt>
      <trkpt lat="43.67937" lon="3.62998">
        <ele>156.19999694824</ele>
        <time>2023-05-24T07:43:24.000Z</time>
      </trkpt>
      <trkpt lat="43.6794" lon="3.6299">
        <ele>156.19999694824</ele>
        <time>2023-05-24T07:43:31.000Z</time>
      </trkpt>
      <trkpt lat="43.67942" lon="3.62987">
        <ele>156</ele>
        <time>2023-05-24T07:43:34.000Z</time>
      </trkpt>
      <trkpt lat="43.67948" lon="3.62979">
        <ele>155.39999389648</ele>
        <time>2023-05-24T07:43:42.000Z</time>
      </trkpt>
      <trkpt lat="43.6795" lon="3.62975">
        <ele>155</ele>
        <time>2023-05-24T07:43:46.000Z</time>
      </trkpt>
      <trkpt lat="43.67952" lon="3.62971">
        <ele>154.60000610352</ele>
        <time>2023-05-24T07:43:50.000Z</time>
      </trkpt>
      <trkpt lat="43.67953" lon="3.62969">
        <ele>154.39999389648</ele>
        <time>2023-05-24T07:43:52.000Z</time>
      </trkpt>
      <trkpt lat="43.67955" lon="3.62965">
        <ele>154.39999389648</ele>
        <time>2023-05-24T07:43:56.000Z</time>
      </trkpt>
      <trkpt lat="43.67956" lon="3.62964">
        <ele>154.39999389648</ele>
        <time>2023-05-24T07:43:57.000Z</time>
      </trkpt>
      <trkpt lat="43.6796" lon="3.62958">
        <ele>154.60000610352</ele>
        <time>2023-05-24T07:44:04.000Z</time>
      </trkpt>
      <trkpt lat="43.67963" lon="3.62952">
        <ele>154.39999389648</ele>
        <time>2023-05-24T07:44:13.000Z</time>
      </trkpt>
      <trkpt lat="43.67963" lon="3.62952">
        <ele>153.80000305176</ele>
        <time>2023-05-24T07:44:19.000Z</time>
      </trkpt>
      <trkpt lat="43.67963" lon="3.62951">
        <ele>153.80000305176</ele>
        <time>2023-05-24T07:44:21.000Z</time>
      </trkpt>
      <trkpt lat="43.67965" lon="3.62945">
        <ele>154.19999694824</ele>
        <time>2023-05-24T07:44:28.000Z</time>
      </trkpt>
      <trkpt lat="43.67969" lon="3.62936">
        <ele>154</ele>
        <time>2023-05-24T07:44:37.000Z</time>
      </trkpt>
      <trkpt lat="43.67974" lon="3.62925">
        <ele>153.80000305176</ele>
        <time>2023-05-24T07:44:46.000Z</time>
      </trkpt>
      <trkpt lat="43.67978" lon="3.62914">
        <ele>153.39999389648</ele>
        <time>2023-05-24T07:44:56.000Z</time>
      </trkpt>
      <trkpt lat="43.67983" lon="3.62902">
        <ele>153.39999389648</ele>
        <time>2023-05-24T07:45:05.000Z</time>
      </trkpt>
      <trkpt lat="43.67987" lon="3.62891">
        <ele>153.19999694824</ele>
        <time>2023-05-24T07:45:14.000Z</time>
      </trkpt>
      <trkpt lat="43.67993" lon="3.62879">
        <ele>152.80000305176</ele>
        <time>2023-05-24T07:45:24.000Z</time>
      </trkpt>
      <trkpt lat="43.67995" lon="3.62873">
        <ele>152.80000305176</ele>
        <time>2023-05-24T07:45:29.000Z</time>
      </trkpt>
      <trkpt lat="43.67996" lon="3.62869">
        <ele>152.80000305176</ele>
        <time>2023-05-24T07:45:32.000Z</time>
      </trkpt>
      <trkpt lat="43.68001" lon="3.62858">
        <ele>152.60000610352</ele>
        <time>2023-05-24T07:45:41.000Z</time>
      </trkpt>
      <trkpt lat="43.68002" lon="3.62855">
        <ele>150.39999389648</ele>
        <time>2023-05-24T07:45:47.000Z</time>
      </trkpt>
      <trkpt lat="43.68003" lon="3.62854">
        <ele>150.39999389648</ele>
        <time>2023-05-24T07:45:48.000Z</time>
      </trkpt>
      <trkpt lat="43.68004" lon="3.62849">
        <ele>153.39999389648</ele>
        <time>2023-05-24T07:45:52.000Z</time>
      </trkpt>
      <trkpt lat="43.68005" lon="3.62847">
        <ele>153.19999694824</ele>
        <time>2023-05-24T07:45:54.000Z</time>
      </trkpt>
      <trkpt lat="43.68005" lon="3.62846">
        <ele>151.19999694824</ele>
        <time>2023-05-24T07:45:56.000Z</time>
      </trkpt>
      <trkpt lat="43.68006" lon="3.62845">
        <ele>148.80000305176</ele>
        <time>2023-05-24T07:45:57.000Z</time>
      </trkpt>
      <trkpt lat="43.68007" lon="3.62842">
        <ele>149.60000610352</ele>
        <time>2023-05-24T07:46:00.000Z</time>
      </trkpt>
      <trkpt lat="43.68012" lon="3.6283">
        <ele>149.39999389648</ele>
        <time>2023-05-24T07:46:09.000Z</time>
      </trkpt>
      <trkpt lat="43.68018" lon="3.62816">
        <ele>148.60000610352</ele>
        <time>2023-05-24T07:46:20.000Z</time>
      </trkpt>
      <trkpt lat="43.68023" lon="3.62808">
        <ele>148.39999389648</ele>
        <time>2023-05-24T07:46:28.000Z</time>
      </trkpt>
      <trkpt lat="43.68026" lon="3.62797">
        <ele>148.19999694824</ele>
        <time>2023-05-24T07:46:37.000Z</time>
      </trkpt>
      <trkpt lat="43.68032" lon="3.62785">
        <ele>147.80000305176</ele>
        <time>2023-05-24T07:46:48.000Z</time>
      </trkpt>
      <trkpt lat="43.68033" lon="3.62783">
        <ele>147.60000610352</ele>
        <time>2023-05-24T07:46:50.000Z</time>
      </trkpt>
      <trkpt lat="43.68035" lon="3.62778">
        <ele>147.60000610352</ele>
        <time>2023-05-24T07:46:54.000Z</time>
      </trkpt>
      <trkpt lat="43.68035" lon="3.62778">
        <ele>147.60000610352</ele>
        <time>2023-05-24T07:46:55.000Z</time>
      </trkpt>
      <trkpt lat="43.68038" lon="3.62771">
        <ele>147.80000305176</ele>
        <time>2023-05-24T07:47:02.000Z</time>
      </trkpt>
      <trkpt lat="43.68039" lon="3.62768">
        <ele>147.39999389648</ele>
        <time>2023-05-24T07:47:09.000Z</time>
      </trkpt>
      <trkpt lat="43.68038" lon="3.62767">
        <ele>147.19999694824</ele>
        <time>2023-05-24T07:47:25.000Z</time>
      </trkpt>
      <trkpt lat="43.6804" lon="3.62763">
        <ele>148.39999389648</ele>
        <time>2023-05-24T07:47:42.000Z</time>
      </trkpt>
      <trkpt lat="43.6804" lon="3.62763">
        <ele>144.80000305176</ele>
        <time>2023-05-24T07:47:45.000Z</time>
      </trkpt>
      <trkpt lat="43.6804" lon="3.62763">
        <ele>147</ele>
        <time>2023-05-24T07:47:46.000Z</time>
      </trkpt>
      <trkpt lat="43.68041" lon="3.62761">
        <ele>147.19999694824</ele>
        <time>2023-05-24T07:47:48.000Z</time>
      </trkpt>
      <trkpt lat="43.68045" lon="3.62752">
        <ele>147</ele>
        <time>2023-05-24T07:47:57.000Z</time>
      </trkpt>
      <trkpt lat="43.68047" lon="3.6275">
        <ele>146.19999694824</ele>
        <time>2023-05-24T07:48:02.000Z</time>
      </trkpt>
      <trkpt lat="43.68052" lon="3.6274">
        <ele>146.19999694824</ele>
        <time>2023-05-24T07:48:10.000Z</time>
      </trkpt>
      <trkpt lat="43.68055" lon="3.62735">
        <ele>146</ele>
        <time>2023-05-24T07:48:14.000Z</time>
      </trkpt>
      <trkpt lat="43.68058" lon="3.62727">
        <ele>146.19999694824</ele>
        <time>2023-05-24T07:48:19.000Z</time>
      </trkpt>
      <trkpt lat="43.68064" lon="3.62712">
        <ele>146.19999694824</ele>
        <time>2023-05-24T07:48:30.000Z</time>
      </trkpt>
      <trkpt lat="43.68065" lon="3.6271">
        <ele>147.19999694824</ele>
        <time>2023-05-24T07:48:32.000Z</time>
      </trkpt>
      <trkpt lat="43.68066" lon="3.62707">
        <ele>146</ele>
        <time>2023-05-24T07:48:34.000Z</time>
      </trkpt>
      <trkpt lat="43.68069" lon="3.627">
        <ele>147.19999694824</ele>
        <time>2023-05-24T07:48:39.000Z</time>
      </trkpt>
      <trkpt lat="43.68074" lon="3.6269">
        <ele>148.39999389648</ele>
        <time>2023-05-24T07:48:47.000Z</time>
      </trkpt>
      <trkpt lat="43.68081" lon="3.62676">
        <ele>148.80000305176</ele>
        <time>2023-05-24T07:48:58.000Z</time>
      </trkpt>
      <trkpt lat="43.68084" lon="3.6267">
        <ele>148.80000305176</ele>
        <time>2023-05-24T07:49:03.000Z</time>
      </trkpt>
      <trkpt lat="43.68084" lon="3.62669">
        <ele>147.19999694824</ele>
        <time>2023-05-24T07:49:04.000Z</time>
      </trkpt>
      <trkpt lat="43.68085" lon="3.62668">
        <ele>148.39999389648</ele>
        <time>2023-05-24T07:49:05.000Z</time>
      </trkpt>
      <trkpt lat="43.68086" lon="3.62664">
        <ele>149.80000305176</ele>
        <time>2023-05-24T07:49:09.000Z</time>
      </trkpt>
      <trkpt lat="43.68087" lon="3.62663">
        <ele>148.60000610352</ele>
        <time>2023-05-24T07:49:10.000Z</time>
      </trkpt>
      <trkpt lat="43.68088" lon="3.62659">
        <ele>148.60000610352</ele>
        <time>2023-05-24T07:49:13.000Z</time>
      </trkpt>
      <trkpt lat="43.68092" lon="3.62651">
        <ele>148</ele>
        <time>2023-05-24T07:49:20.000Z</time>
      </trkpt>
      <trkpt lat="43.68092" lon="3.6265">
        <ele>147.80000305176</ele>
        <time>2023-05-24T07:49:21.000Z</time>
      </trkpt>
      <trkpt lat="43.68097" lon="3.62641">
        <ele>148.60000610352</ele>
        <time>2023-05-24T07:49:29.000Z</time>
      </trkpt>
      <trkpt lat="43.68099" lon="3.62639">
        <ele>147.60000610352</ele>
        <time>2023-05-24T07:49:31.000Z</time>
      </trkpt>
      <trkpt lat="43.68103" lon="3.62631">
        <ele>148</ele>
        <time>2023-05-24T07:49:38.000Z</time>
      </trkpt>
      <trkpt lat="43.68107" lon="3.62623">
        <ele>147.80000305176</ele>
        <time>2023-05-24T07:49:45.000Z</time>
      </trkpt>
      <trkpt lat="43.68112" lon="3.62611">
        <ele>147.80000305176</ele>
        <time>2023-05-24T07:49:55.000Z</time>
      </trkpt>
      <trkpt lat="43.68118" lon="3.62599">
        <ele>147.39999389648</ele>
        <time>2023-05-24T07:50:04.000Z</time>
      </trkpt>
      <trkpt lat="43.68123" lon="3.62587">
        <ele>147</ele>
        <time>2023-05-24T07:50:13.000Z</time>
      </trkpt>
      <trkpt lat="43.68127" lon="3.62576">
        <ele>146.80000305176</ele>
        <time>2023-05-24T07:50:21.000Z</time>
      </trkpt>
      <trkpt lat="43.68132" lon="3.62564">
        <ele>146.60000610352</ele>
        <time>2023-05-24T07:50:30.000Z</time>
      </trkpt>
      <trkpt lat="43.68134" lon="3.62559">
        <ele>146.60000610352</ele>
        <time>2023-05-24T07:50:33.000Z</time>
      </trkpt>
      <trkpt lat="43.68139" lon="3.62551">
        <ele>146.39999389648</ele>
        <time>2023-05-24T07:50:40.000Z</time>
      </trkpt>
      <trkpt lat="43.68144" lon="3.62534">
        <ele>146</ele>
        <time>2023-05-24T07:50:51.000Z</time>
      </trkpt>
      <trkpt lat="43.68148" lon="3.62525">
        <ele>146.19999694824</ele>
        <time>2023-05-24T07:50:59.000Z</time>
      </trkpt>
      <trkpt lat="43.68148" lon="3.62523">
        <ele>147</ele>
        <time>2023-05-24T07:51:00.000Z</time>
      </trkpt>
      <trkpt lat="43.68152" lon="3.62516">
        <ele>145.60000610352</ele>
        <time>2023-05-24T07:51:06.000Z</time>
      </trkpt>
      <trkpt lat="43.68154" lon="3.62513">
        <ele>145.60000610352</ele>
        <time>2023-05-24T07:51:09.000Z</time>
      </trkpt>
      <trkpt lat="43.68156" lon="3.62508">
        <ele>145.39999389648</ele>
        <time>2023-05-24T07:51:13.000Z</time>
      </trkpt>
      <trkpt lat="43.68157" lon="3.62506">
        <ele>145.39999389648</ele>
        <time>2023-05-24T07:51:14.000Z</time>
      </trkpt>
      <trkpt lat="43.68164" lon="3.62495">
        <ele>145.19999694824</ele>
        <time>2023-05-24T07:51:24.000Z</time>
      </trkpt>
      <trkpt lat="43.68169" lon="3.62483">
        <ele>144.80000305176</ele>
        <time>2023-05-24T07:51:33.000Z</time>
      </trkpt>
      <trkpt lat="43.68173" lon="3.62477">
        <ele>144.39999389648</ele>
        <time>2023-05-24T07:51:38.000Z</time>
      </trkpt>
      <trkpt lat="43.68175" lon="3.62473">
        <ele>144.19999694824</ele>
        <time>2023-05-24T07:51:41.000Z</time>
      </trkpt>
      <trkpt lat="43.68179" lon="3.62462">
        <ele>144.39999389648</ele>
        <time>2023-05-24T07:51:49.000Z</time>
      </trkpt>
      <trkpt lat="43.68181" lon="3.62457">
        <ele>146.39999389648</ele>
        <time>2023-05-24T07:51:53.000Z</time>
      </trkpt>
      <trkpt lat="43.68181" lon="3.62456">
        <ele>149.80000305176</ele>
        <time>2023-05-24T07:51:54.000Z</time>
      </trkpt>
      <trkpt lat="43.68183" lon="3.62452">
        <ele>149.80000305176</ele>
        <time>2023-05-24T07:51:57.000Z</time>
      </trkpt>
      <trkpt lat="43.68187" lon="3.62441">
        <ele>149.80000305176</ele>
        <time>2023-05-24T07:52:05.000Z</time>
      </trkpt>
      <trkpt lat="43.6819" lon="3.6243">
        <ele>149.19999694824</ele>
        <time>2023-05-24T07:52:13.000Z</time>
      </trkpt>
      <trkpt lat="43.68191" lon="3.62429">
        <ele>149.19999694824</ele>
        <time>2023-05-24T07:52:14.000Z</time>
      </trkpt>
      <trkpt lat="43.68193" lon="3.62422">
        <ele>148.80000305176</ele>
        <time>2023-05-24T07:52:19.000Z</time>
      </trkpt>
      <trkpt lat="43.68196" lon="3.62412">
        <ele>149.19999694824</ele>
        <time>2023-05-24T07:52:26.000Z</time>
      </trkpt>
      <trkpt lat="43.68198" lon="3.62402">
        <ele>148.80000305176</ele>
        <time>2023-05-24T07:52:33.000Z</time>
      </trkpt>
      <trkpt lat="43.68198" lon="3.624">
        <ele>148.80000305176</ele>
        <time>2023-05-24T07:52:34.000Z</time>
      </trkpt>
      <trkpt lat="43.68201" lon="3.6239">
        <ele>148</ele>
        <time>2023-05-24T07:52:41.000Z</time>
      </trkpt>
      <trkpt lat="43.68201" lon="3.62387">
        <ele>147.60000610352</ele>
        <time>2023-05-24T07:52:43.000Z</time>
      </trkpt>
      <trkpt lat="43.68204" lon="3.62379">
        <ele>147</ele>
        <time>2023-05-24T07:52:49.000Z</time>
      </trkpt>
      <trkpt lat="43.68204" lon="3.62376">
        <ele>146.60000610352</ele>
        <time>2023-05-24T07:52:51.000Z</time>
      </trkpt>
      <trkpt lat="43.68207" lon="3.62366">
        <ele>145.19999694824</ele>
        <time>2023-05-24T07:52:58.000Z</time>
      </trkpt>
      <trkpt lat="43.68207" lon="3.62364">
        <ele>145</ele>
        <time>2023-05-24T07:52:59.000Z</time>
      </trkpt>
      <trkpt lat="43.6821" lon="3.62351">
        <ele>143.39999389648</ele>
        <time>2023-05-24T07:53:08.000Z</time>
      </trkpt>
      <trkpt lat="43.68213" lon="3.62336">
        <ele>143.19999694824</ele>
        <time>2023-05-24T07:53:18.000Z</time>
      </trkpt>
      <trkpt lat="43.68216" lon="3.62322">
        <ele>142.60000610352</ele>
        <time>2023-05-24T07:53:27.000Z</time>
      </trkpt>
      <trkpt lat="43.68217" lon="3.62315">
        <ele>142</ele>
        <time>2023-05-24T07:53:32.000Z</time>
      </trkpt>
      <trkpt lat="43.68219" lon="3.62306">
        <ele>142.19999694824</ele>
        <time>2023-05-24T07:53:38.000Z</time>
      </trkpt>
      <trkpt lat="43.68221" lon="3.62295">
        <ele>142.80000305176</ele>
        <time>2023-05-24T07:53:47.000Z</time>
      </trkpt>
      <trkpt lat="43.68221" lon="3.62294">
        <ele>142.60000610352</ele>
        <time>2023-05-24T07:53:48.000Z</time>
      </trkpt>
      <trkpt lat="43.68223" lon="3.62286">
        <ele>142.80000305176</ele>
        <time>2023-05-24T07:53:54.000Z</time>
      </trkpt>
      <trkpt lat="43.68225" lon="3.62274">
        <ele>141.80000305176</ele>
        <time>2023-05-24T07:54:02.000Z</time>
      </trkpt>
      <trkpt lat="43.68227" lon="3.62262">
        <ele>142</ele>
        <time>2023-05-24T07:54:10.000Z</time>
      </trkpt>
      <trkpt lat="43.68229" lon="3.62253">
        <ele>143</ele>
        <time>2023-05-24T07:54:16.000Z</time>
      </trkpt>
      <trkpt lat="43.6823" lon="3.62248">
        <ele>143</ele>
        <time>2023-05-24T07:54:20.000Z</time>
      </trkpt>
      <trkpt lat="43.6823" lon="3.62246">
        <ele>141.80000305176</ele>
        <time>2023-05-24T07:54:21.000Z</time>
      </trkpt>
      <trkpt lat="43.68232" lon="3.62234">
        <ele>141.80000305176</ele>
        <time>2023-05-24T07:54:29.000Z</time>
      </trkpt>
      <trkpt lat="43.68233" lon="3.62226">
        <ele>141.80000305176</ele>
        <time>2023-05-24T07:54:34.000Z</time>
      </trkpt>
      <trkpt lat="43.68232" lon="3.62223">
        <ele>141.80000305176</ele>
        <time>2023-05-24T07:54:36.000Z</time>
      </trkpt>
      <trkpt lat="43.68233" lon="3.62209">
        <ele>142.39999389648</ele>
        <time>2023-05-24T07:54:45.000Z</time>
      </trkpt>
      <trkpt lat="43.68234" lon="3.62207">
        <ele>143</ele>
        <time>2023-05-24T07:54:46.000Z</time>
      </trkpt>
      <trkpt lat="43.68235" lon="3.62202">
        <ele>142</ele>
        <time>2023-05-24T07:54:50.000Z</time>
      </trkpt>
      <trkpt lat="43.68236" lon="3.62197">
        <ele>140.39999389648</ele>
        <time>2023-05-24T07:54:53.000Z</time>
      </trkpt>
      <trkpt lat="43.68236" lon="3.62195">
        <ele>140.60000610352</ele>
        <time>2023-05-24T07:54:54.000Z</time>
      </trkpt>
      <trkpt lat="43.68237" lon="3.62184">
        <ele>141.60000610352</ele>
        <time>2023-05-24T07:55:01.000Z</time>
      </trkpt>
      <trkpt lat="43.68237" lon="3.62181">
        <ele>141.39999389648</ele>
        <time>2023-05-24T07:55:03.000Z</time>
      </trkpt>
      <trkpt lat="43.6824" lon="3.62168">
        <ele>141.19999694824</ele>
        <time>2023-05-24T07:55:12.000Z</time>
      </trkpt>
      <trkpt lat="43.68242" lon="3.62163">
        <ele>142</ele>
        <time>2023-05-24T07:55:16.000Z</time>
      </trkpt>
      <trkpt lat="43.68243" lon="3.62159">
        <ele>141.39999389648</ele>
        <time>2023-05-24T07:55:19.000Z</time>
      </trkpt>
      <trkpt lat="43.68245" lon="3.62155">
        <ele>141.19999694824</ele>
        <time>2023-05-24T07:55:22.000Z</time>
      </trkpt>
      <trkpt lat="43.68245" lon="3.62152">
        <ele>141.19999694824</ele>
        <time>2023-05-24T07:55:24.000Z</time>
      </trkpt>
      <trkpt lat="43.68245" lon="3.62151">
        <ele>133.60000610352</ele>
        <time>2023-05-24T07:55:25.000Z</time>
      </trkpt>
      <trkpt lat="43.68246" lon="3.6215">
        <ele>132.19999694824</ele>
        <time>2023-05-24T07:55:26.000Z</time>
      </trkpt>
      <trkpt lat="43.68249" lon="3.62141">
        <ele>132.39999389648</ele>
        <time>2023-05-24T07:55:33.000Z</time>
      </trkpt>
      <trkpt lat="43.68252" lon="3.62132">
        <ele>133</ele>
        <time>2023-05-24T07:55:40.000Z</time>
      </trkpt>
      <trkpt lat="43.68252" lon="3.62131">
        <ele>133.19999694824</ele>
        <time>2023-05-24T07:55:41.000Z</time>
      </trkpt>
      <trkpt lat="43.68254" lon="3.62125">
        <ele>133.39999389648</ele>
        <time>2023-05-24T07:55:46.000Z</time>
      </trkpt>
      <trkpt lat="43.68255" lon="3.62117">
        <ele>133.19999694824</ele>
        <time>2023-05-24T07:55:52.000Z</time>
      </trkpt>
      <trkpt lat="43.68255" lon="3.62111">
        <ele>132.60000610352</ele>
        <time>2023-05-24T07:55:56.000Z</time>
      </trkpt>
      <trkpt lat="43.68255" lon="3.62104">
        <ele>132.39999389648</ele>
        <time>2023-05-24T07:56:00.000Z</time>
      </trkpt>
      <trkpt lat="43.68255" lon="3.621">
        <ele>132.19999694824</ele>
        <time>2023-05-24T07:56:05.000Z</time>
      </trkpt>
      <trkpt lat="43.68255" lon="3.621">
        <ele>132</ele>
        <time>2023-05-24T07:56:07.000Z</time>
      </trkpt>
      <trkpt lat="43.68256" lon="3.62093">
        <ele>132.60000610352</ele>
        <time>2023-05-24T07:56:17.000Z</time>
      </trkpt>
      <trkpt lat="43.68259" lon="3.62081">
        <ele>131.80000305176</ele>
        <time>2023-05-24T07:56:24.000Z</time>
      </trkpt>
      <trkpt lat="43.68261" lon="3.6207">
        <ele>131.39999389648</ele>
        <time>2023-05-24T07:56:32.000Z</time>
      </trkpt>
      <trkpt lat="43.68262" lon="3.62069">
        <ele>131.19999694824</ele>
        <time>2023-05-24T07:56:33.000Z</time>
      </trkpt>
      <trkpt lat="43.68262" lon="3.6207">
        <ele>131</ele>
        <time>2023-05-24T07:56:34.000Z</time>
      </trkpt>
      <trkpt lat="43.68261" lon="3.6207">
        <ele>131</ele>
        <time>2023-05-24T07:56:38.000Z</time>
      </trkpt>
      <trkpt lat="43.6826" lon="3.62063">
        <ele>130</ele>
        <time>2023-05-24T07:56:45.000Z</time>
      </trkpt>
      <trkpt lat="43.68261" lon="3.62053">
        <ele>128.80000305176</ele>
        <time>2023-05-24T07:56:51.000Z</time>
      </trkpt>
      <trkpt lat="43.68261" lon="3.62052">
        <ele>128.60000610352</ele>
        <time>2023-05-24T07:56:52.000Z</time>
      </trkpt>
      <trkpt lat="43.68263" lon="3.62043">
        <ele>127.80000305176</ele>
        <time>2023-05-24T07:56:58.000Z</time>
      </trkpt>
      <trkpt lat="43.68264" lon="3.62039">
        <ele>127.40000152588</ele>
        <time>2023-05-24T07:57:01.000Z</time>
      </trkpt>
      <trkpt lat="43.68264" lon="3.62035">
        <ele>128</ele>
        <time>2023-05-24T07:57:08.000Z</time>
      </trkpt>
      <trkpt lat="43.68267" lon="3.62021">
        <ele>127</ele>
        <time>2023-05-24T07:57:17.000Z</time>
      </trkpt>
      <trkpt lat="43.68267" lon="3.62017">
        <ele>126.80000305176</ele>
        <time>2023-05-24T07:57:19.000Z</time>
      </trkpt>
      <trkpt lat="43.68269" lon="3.62005">
        <ele>126.80000305176</ele>
        <time>2023-05-24T07:57:26.000Z</time>
      </trkpt>
      <trkpt lat="43.68269" lon="3.61993">
        <ele>126.59999847412</ele>
        <time>2023-05-24T07:57:33.000Z</time>
      </trkpt>
      <trkpt lat="43.68271" lon="3.61978">
        <ele>126</ele>
        <time>2023-05-24T07:57:42.000Z</time>
      </trkpt>
      <trkpt lat="43.68273" lon="3.61973">
        <ele>125.80000305176</ele>
        <time>2023-05-24T07:57:45.000Z</time>
      </trkpt>
      <trkpt lat="43.68275" lon="3.61966">
        <ele>125.59999847412</ele>
        <time>2023-05-24T07:57:50.000Z</time>
      </trkpt>
      <trkpt lat="43.68279" lon="3.61953">
        <ele>125</ele>
        <time>2023-05-24T07:57:59.000Z</time>
      </trkpt>
      <trkpt lat="43.6828" lon="3.61949">
        <ele>125.19999694824</ele>
        <time>2023-05-24T07:58:01.000Z</time>
      </trkpt>
      <trkpt lat="43.68281" lon="3.61944">
        <ele>125.80000305176</ele>
        <time>2023-05-24T07:58:05.000Z</time>
      </trkpt>
      <trkpt lat="43.68281" lon="3.61942">
        <ele>125.80000305176</ele>
        <time>2023-05-24T07:58:06.000Z</time>
      </trkpt>
      <trkpt lat="43.68283" lon="3.61933">
        <ele>126.80000305176</ele>
        <time>2023-05-24T07:58:12.000Z</time>
      </trkpt>
      <trkpt lat="43.68284" lon="3.61926">
        <ele>127.40000152588</ele>
        <time>2023-05-24T07:58:16.000Z</time>
      </trkpt>
      <trkpt lat="43.68285" lon="3.6192">
        <ele>127.80000305176</ele>
        <time>2023-05-24T07:58:20.000Z</time>
      </trkpt>
      <trkpt lat="43.68286" lon="3.61912">
        <ele>130</ele>
        <time>2023-05-24T07:58:25.000Z</time>
      </trkpt>
      <trkpt lat="43.68286" lon="3.61911">
        <ele>136.39999389648</ele>
        <time>2023-05-24T07:58:26.000Z</time>
      </trkpt>
      <trkpt lat="43.68286" lon="3.61909">
        <ele>142.80000305176</ele>
        <time>2023-05-24T07:58:27.000Z</time>
      </trkpt>
      <trkpt lat="43.68287" lon="3.61907">
        <ele>145</ele>
        <time>2023-05-24T07:58:28.000Z</time>
      </trkpt>
      <trkpt lat="43.68288" lon="3.61899">
        <ele>144.80000305176</ele>
        <time>2023-05-24T07:58:34.000Z</time>
      </trkpt>
      <trkpt lat="43.68291" lon="3.61883">
        <ele>145</ele>
        <time>2023-05-24T07:58:44.000Z</time>
      </trkpt>
      <trkpt lat="43.68292" lon="3.61867">
        <ele>145.60000610352</ele>
        <time>2023-05-24T07:58:54.000Z</time>
      </trkpt>
      <trkpt lat="43.68292" lon="3.6186">
        <ele>146</ele>
        <time>2023-05-24T07:58:59.000Z</time>
      </trkpt>
      <trkpt lat="43.68293" lon="3.61853">
        <ele>146.19999694824</ele>
        <time>2023-05-24T07:59:03.000Z</time>
      </trkpt>
      <trkpt lat="43.68295" lon="3.61841">
        <ele>146.19999694824</ele>
        <time>2023-05-24T07:59:11.000Z</time>
      </trkpt>
      <trkpt lat="43.68297" lon="3.61829">
        <ele>146.60000610352</ele>
        <time>2023-05-24T07:59:19.000Z</time>
      </trkpt>
      <trkpt lat="43.68297" lon="3.61826">
        <ele>146.60000610352</ele>
        <time>2023-05-24T07:59:21.000Z</time>
      </trkpt>
      <trkpt lat="43.68297" lon="3.61821">
        <ele>146.60000610352</ele>
        <time>2023-05-24T07:59:24.000Z</time>
      </trkpt>
      <trkpt lat="43.68297" lon="3.6182">
        <ele>146.60000610352</ele>
        <time>2023-05-24T07:59:25.000Z</time>
      </trkpt>
      <trkpt lat="43.68294" lon="3.61811">
        <ele>146.39999389648</ele>
        <time>2023-05-24T07:59:32.000Z</time>
      </trkpt>
      <trkpt lat="43.68291" lon="3.61796">
        <ele>145.60000610352</ele>
        <time>2023-05-24T07:59:42.000Z</time>
      </trkpt>
      <trkpt lat="43.68291" lon="3.61787">
        <ele>145</ele>
        <time>2023-05-24T07:59:48.000Z</time>
      </trkpt>
      <trkpt lat="43.68291" lon="3.6178">
        <ele>144.39999389648</ele>
        <time>2023-05-24T07:59:52.000Z</time>
      </trkpt>
      <trkpt lat="43.6829" lon="3.61766">
        <ele>144.39999389648</ele>
        <time>2023-05-24T08:00:01.000Z</time>
      </trkpt>
      <trkpt lat="43.68288" lon="3.6175">
        <ele>144</ele>
        <time>2023-05-24T08:00:11.000Z</time>
      </trkpt>
      <trkpt lat="43.68288" lon="3.61748">
        <ele>143.80000305176</ele>
        <time>2023-05-24T08:00:12.000Z</time>
      </trkpt>
      <trkpt lat="43.68286" lon="3.61741">
        <ele>142.80000305176</ele>
        <time>2023-05-24T08:00:17.000Z</time>
      </trkpt>
      <trkpt lat="43.68284" lon="3.61733">
        <ele>142.39999389648</ele>
        <time>2023-05-24T08:00:22.000Z</time>
      </trkpt>
      <trkpt lat="43.68282" lon="3.61727">
        <ele>141.60000610352</ele>
        <time>2023-05-24T08:00:26.000Z</time>
      </trkpt>
      <trkpt lat="43.6828" lon="3.61718">
        <ele>140.39999389648</ele>
        <time>2023-05-24T08:00:32.000Z</time>
      </trkpt>
      <trkpt lat="43.6828" lon="3.61718">
        <ele>140.19999694824</ele>
        <time>2023-05-24T08:00:33.000Z</time>
      </trkpt>
      <trkpt lat="43.68279" lon="3.61714">
        <ele>139.80000305176</ele>
        <time>2023-05-24T08:00:37.000Z</time>
      </trkpt>
      <trkpt lat="43.68277" lon="3.61708">
        <ele>139.19999694824</ele>
        <time>2023-05-24T08:00:41.000Z</time>
      </trkpt>
      <trkpt lat="43.68275" lon="3.61699">
        <ele>138.19999694824</ele>
        <time>2023-05-24T08:00:47.000Z</time>
      </trkpt>
      <trkpt lat="43.68275" lon="3.61698">
        <ele>138.19999694824</ele>
        <time>2023-05-24T08:00:48.000Z</time>
      </trkpt>
      <trkpt lat="43.68272" lon="3.61685">
        <ele>137.60000610352</ele>
        <time>2023-05-24T08:00:56.000Z</time>
      </trkpt>
      <trkpt lat="43.68267" lon="3.61672">
        <ele>137.80000305176</ele>
        <time>2023-05-24T08:01:05.000Z</time>
      </trkpt>
      <trkpt lat="43.68263" lon="3.61662">
        <ele>137.60000610352</ele>
        <time>2023-05-24T08:01:12.000Z</time>
      </trkpt>
      <trkpt lat="43.68257" lon="3.61651">
        <ele>129.19999694824</ele>
        <time>2023-05-24T08:01:20.000Z</time>
      </trkpt>
      <trkpt lat="43.68257" lon="3.61649">
        <ele>126.19999694824</ele>
        <time>2023-05-24T08:01:21.000Z</time>
      </trkpt>
      <trkpt lat="43.68256" lon="3.61648">
        <ele>123.19999694824</ele>
        <time>2023-05-24T08:01:22.000Z</time>
      </trkpt>
      <trkpt lat="43.68253" lon="3.61644">
        <ele>131.60000610352</ele>
        <time>2023-05-24T08:01:25.000Z</time>
      </trkpt>
      <trkpt lat="43.68253" lon="3.61643">
        <ele>132.39999389648</ele>
        <time>2023-05-24T08:01:26.000Z</time>
      </trkpt>
      <trkpt lat="43.68252" lon="3.61642">
        <ele>130.60000610352</ele>
        <time>2023-05-24T08:01:27.000Z</time>
      </trkpt>
      <trkpt lat="43.68247" lon="3.61634">
        <ele>130.80000305176</ele>
        <time>2023-05-24T08:01:34.000Z</time>
      </trkpt>
      <trkpt lat="43.6824" lon="3.61623">
        <ele>130.60000610352</ele>
        <time>2023-05-24T08:01:44.000Z</time>
      </trkpt>
      <trkpt lat="43.68236" lon="3.61617">
        <ele>129.60000610352</ele>
        <time>2023-05-24T08:01:49.000Z</time>
      </trkpt>
      <trkpt lat="43.68236" lon="3.61617">
        <ele>129.39999389648</ele>
        <time>2023-05-24T08:01:51.000Z</time>
      </trkpt>
      <trkpt lat="43.68234" lon="3.61614">
        <ele>129.39999389648</ele>
        <time>2023-05-24T08:01:58.000Z</time>
      </trkpt>
      <trkpt lat="43.68226" lon="3.61605">
        <ele>128.60000610352</ele>
        <time>2023-05-24T08:02:07.000Z</time>
      </trkpt>
      <trkpt lat="43.68223" lon="3.61601">
        <ele>128.39999389648</ele>
        <time>2023-05-24T08:02:10.000Z</time>
      </trkpt>
      <trkpt lat="43.68214" lon="3.61589">
        <ele>128.19999694824</ele>
        <time>2023-05-24T08:02:21.000Z</time>
      </trkpt>
      <trkpt lat="43.68204" lon="3.61574">
        <ele>130.19999694824</ele>
        <time>2023-05-24T08:02:33.000Z</time>
      </trkpt>
      <trkpt lat="43.68198" lon="3.61566">
        <ele>127.59999847412</ele>
        <time>2023-05-24T08:02:40.000Z</time>
      </trkpt>
      <trkpt lat="43.68198" lon="3.61565">
        <ele>132.39999389648</ele>
        <time>2023-05-24T08:02:41.000Z</time>
      </trkpt>
      <trkpt lat="43.68197" lon="3.61564">
        <ele>132.39999389648</ele>
        <time>2023-05-24T08:02:42.000Z</time>
      </trkpt>
      <trkpt lat="43.68196" lon="3.61563">
        <ele>133.80000305176</ele>
        <time>2023-05-24T08:02:43.000Z</time>
      </trkpt>
      <trkpt lat="43.68193" lon="3.61559">
        <ele>136.19999694824</ele>
        <time>2023-05-24T08:02:46.000Z</time>
      </trkpt>
      <trkpt lat="43.68193" lon="3.61558">
        <ele>131.39999389648</ele>
        <time>2023-05-24T08:02:47.000Z</time>
      </trkpt>
      <trkpt lat="43.6819" lon="3.61553">
        <ele>130.80000305176</ele>
        <time>2023-05-24T08:02:52.000Z</time>
      </trkpt>
      <trkpt lat="43.68189" lon="3.61552">
        <ele>130.19999694824</ele>
        <time>2023-05-24T08:02:53.000Z</time>
      </trkpt>
      <trkpt lat="43.68189" lon="3.61552">
        <ele>133</ele>
        <time>2023-05-24T08:02:54.000Z</time>
      </trkpt>
      <trkpt lat="43.68189" lon="3.61551">
        <ele>134</ele>
        <time>2023-05-24T08:02:55.000Z</time>
      </trkpt>
      <trkpt lat="43.68187" lon="3.61547">
        <ele>134.39999389648</ele>
        <time>2023-05-24T08:02:58.000Z</time>
      </trkpt>
      <trkpt lat="43.68187" lon="3.61546">
        <ele>134.39999389648</ele>
        <time>2023-05-24T08:02:59.000Z</time>
      </trkpt>
      <trkpt lat="43.68183" lon="3.6154">
        <ele>134</ele>
        <time>2023-05-24T08:03:06.000Z</time>
      </trkpt>
      <trkpt lat="43.68178" lon="3.61532">
        <ele>133.60000610352</ele>
        <time>2023-05-24T08:03:14.000Z</time>
      </trkpt>
      <trkpt lat="43.68174" lon="3.61523">
        <ele>133.39999389648</ele>
        <time>2023-05-24T08:03:22.000Z</time>
      </trkpt>
      <trkpt lat="43.68167" lon="3.61513">
        <ele>133.39999389648</ele>
        <time>2023-05-24T08:03:30.000Z</time>
      </trkpt>
      <trkpt lat="43.68155" lon="3.615">
        <ele>133.80000305176</ele>
        <time>2023-05-24T08:03:43.000Z</time>
      </trkpt>
      <trkpt lat="43.68148" lon="3.61494">
        <ele>135.19999694824</ele>
        <time>2023-05-24T08:03:50.000Z</time>
      </trkpt>
      <trkpt lat="43.68143" lon="3.61491">
        <ele>135.60000610352</ele>
        <time>2023-05-24T08:03:54.000Z</time>
      </trkpt>
      <trkpt lat="43.68142" lon="3.6149">
        <ele>138.60000610352</ele>
        <time>2023-05-24T08:03:55.000Z</time>
      </trkpt>
      <trkpt lat="43.68137" lon="3.61486">
        <ele>136.19999694824</ele>
        <time>2023-05-24T08:04:00.000Z</time>
      </trkpt>
      <trkpt lat="43.68132" lon="3.61482">
        <ele>136.19999694824</ele>
        <time>2023-05-24T08:04:05.000Z</time>
      </trkpt>
      <trkpt lat="43.68126" lon="3.61476">
        <ele>136.39999389648</ele>
        <time>2023-05-24T08:04:13.000Z</time>
      </trkpt>
      <trkpt lat="43.68123" lon="3.61471">
        <ele>136.60000610352</ele>
        <time>2023-05-24T08:04:19.000Z</time>
      </trkpt>
      <trkpt lat="43.68123" lon="3.6147">
        <ele>136.19999694824</ele>
        <time>2023-05-24T08:04:24.000Z</time>
      </trkpt>
      <trkpt lat="43.68118" lon="3.61465">
        <ele>136.80000305176</ele>
        <time>2023-05-24T08:04:31.000Z</time>
      </trkpt>
      <trkpt lat="43.68116" lon="3.61459">
        <ele>136.19999694824</ele>
        <time>2023-05-24T08:04:36.000Z</time>
      </trkpt>
      <trkpt lat="43.68115" lon="3.61457">
        <ele>136.39999389648</ele>
        <time>2023-05-24T08:04:38.000Z</time>
      </trkpt>
      <trkpt lat="43.68115" lon="3.61452">
        <ele>136.39999389648</ele>
        <time>2023-05-24T08:04:41.000Z</time>
      </trkpt>
      <trkpt lat="43.68115" lon="3.61451">
        <ele>136.39999389648</ele>
        <time>2023-05-24T08:04:42.000Z</time>
      </trkpt>
      <trkpt lat="43.68116" lon="3.61448">
        <ele>135.39999389648</ele>
        <time>2023-05-24T08:04:45.000Z</time>
      </trkpt>
      <trkpt lat="43.68117" lon="3.61443">
        <ele>135.19999694824</ele>
        <time>2023-05-24T08:04:49.000Z</time>
      </trkpt>
      <trkpt lat="43.68117" lon="3.6144">
        <ele>136</ele>
        <time>2023-05-24T08:04:52.000Z</time>
      </trkpt>
      <trkpt lat="43.68117" lon="3.61438">
        <ele>136</ele>
        <time>2023-05-24T08:04:53.000Z</time>
      </trkpt>
      <trkpt lat="43.68117" lon="3.61436">
        <ele>136.39999389648</ele>
        <time>2023-05-24T08:04:54.000Z</time>
      </trkpt>
      <trkpt lat="43.68115" lon="3.61427">
        <ele>137.19999694824</ele>
        <time>2023-05-24T08:05:01.000Z</time>
      </trkpt>
      <trkpt lat="43.68114" lon="3.61424">
        <ele>133.39999389648</ele>
        <time>2023-05-24T08:05:03.000Z</time>
      </trkpt>
      <trkpt lat="43.68113" lon="3.61422">
        <ele>135.19999694824</ele>
        <time>2023-05-24T08:05:05.000Z</time>
      </trkpt>
      <trkpt lat="43.6811" lon="3.61417">
        <ele>137.39999389648</ele>
        <time>2023-05-24T08:05:09.000Z</time>
      </trkpt>
      <trkpt lat="43.68109" lon="3.61416">
        <ele>135.39999389648</ele>
        <time>2023-05-24T08:05:10.000Z</time>
      </trkpt>
      <trkpt lat="43.68108" lon="3.61415">
        <ele>135.39999389648</ele>
        <time>2023-05-24T08:05:11.000Z</time>
      </trkpt>
      <trkpt lat="43.68106" lon="3.61411">
        <ele>137.39999389648</ele>
        <time>2023-05-24T08:05:14.000Z</time>
      </trkpt>
      <trkpt lat="43.68104" lon="3.61408">
        <ele>136.19999694824</ele>
        <time>2023-05-24T08:05:17.000Z</time>
      </trkpt>
      <trkpt lat="43.68102" lon="3.61404">
        <ele>135</ele>
        <time>2023-05-24T08:05:20.000Z</time>
      </trkpt>
      <trkpt lat="43.68098" lon="3.61398">
        <ele>139</ele>
        <time>2023-05-24T08:05:25.000Z</time>
      </trkpt>
      <trkpt lat="43.68097" lon="3.61396">
        <ele>141.80000305176</ele>
        <time>2023-05-24T08:05:26.000Z</time>
      </trkpt>
      <trkpt lat="43.68096" lon="3.61395">
        <ele>145.39999389648</ele>
        <time>2023-05-24T08:05:27.000Z</time>
      </trkpt>
      <trkpt lat="43.68094" lon="3.61391">
        <ele>142.19999694824</ele>
        <time>2023-05-24T08:05:30.000Z</time>
      </trkpt>
      <trkpt lat="43.68093" lon="3.6139">
        <ele>133.39999389648</ele>
        <time>2023-05-24T08:05:31.000Z</time>
      </trkpt>
      <trkpt lat="43.68092" lon="3.61389">
        <ele>128.19999694824</ele>
        <time>2023-05-24T08:05:32.000Z</time>
      </trkpt>
      <trkpt lat="43.6809" lon="3.61383">
        <ele>130</ele>
        <time>2023-05-24T08:05:36.000Z</time>
      </trkpt>
      <trkpt lat="43.6809" lon="3.61382">
        <ele>135.39999389648</ele>
        <time>2023-05-24T08:05:37.000Z</time>
      </trkpt>
      <trkpt lat="43.68088" lon="3.61379">
        <ele>133.19999694824</ele>
        <time>2023-05-24T08:05:39.000Z</time>
      </trkpt>
      <trkpt lat="43.68085" lon="3.61369">
        <ele>132.80000305176</ele>
        <time>2023-05-24T08:05:46.000Z</time>
      </trkpt>
      <trkpt lat="43.68081" lon="3.61354">
        <ele>132.80000305176</ele>
        <time>2023-05-24T08:05:56.000Z</time>
      </trkpt>
      <trkpt lat="43.68081" lon="3.6135">
        <ele>132.60000610352</ele>
        <time>2023-05-24T08:06:02.000Z</time>
      </trkpt>
      <trkpt lat="43.6808" lon="3.61346">
        <ele>132.19999694824</ele>
        <time>2023-05-24T08:06:08.000Z</time>
      </trkpt>
      <trkpt lat="43.68079" lon="3.61343">
        <ele>132</ele>
        <time>2023-05-24T08:06:10.000Z</time>
      </trkpt>
      <trkpt lat="43.68076" lon="3.61329">
        <ele>131.60000610352</ele>
        <time>2023-05-24T08:06:20.000Z</time>
      </trkpt>
      <trkpt lat="43.68071" lon="3.61316">
        <ele>131.80000305176</ele>
        <time>2023-05-24T08:06:29.000Z</time>
      </trkpt>
      <trkpt lat="43.68068" lon="3.61309">
        <ele>131.60000610352</ele>
        <time>2023-05-24T08:06:37.000Z</time>
      </trkpt>
      <trkpt lat="43.68067" lon="3.61308">
        <ele>131.19999694824</ele>
        <time>2023-05-24T08:06:43.000Z</time>
      </trkpt>
      <trkpt lat="43.68064" lon="3.61303">
        <ele>131</ele>
        <time>2023-05-24T08:06:49.000Z</time>
      </trkpt>
      <trkpt lat="43.68063" lon="3.61302">
        <ele>131.19999694824</ele>
        <time>2023-05-24T08:06:50.000Z</time>
      </trkpt>
      <trkpt lat="43.68056" lon="3.6129">
        <ele>130.80000305176</ele>
        <time>2023-05-24T08:07:00.000Z</time>
      </trkpt>
      <trkpt lat="43.68048" lon="3.61279">
        <ele>131.80000305176</ele>
        <time>2023-05-24T08:07:10.000Z</time>
      </trkpt>
      <trkpt lat="43.68046" lon="3.61276">
        <ele>132.19999694824</ele>
        <time>2023-05-24T08:07:13.000Z</time>
      </trkpt>
      <trkpt lat="43.68041" lon="3.61267">
        <ele>133.19999694824</ele>
        <time>2023-05-24T08:07:20.000Z</time>
      </trkpt>
      <trkpt lat="43.68035" lon="3.61256">
        <ele>137.19999694824</ele>
        <time>2023-05-24T08:07:29.000Z</time>
      </trkpt>
      <trkpt lat="43.68032" lon="3.6125">
        <ele>135</ele>
        <time>2023-05-24T08:07:34.000Z</time>
      </trkpt>
      <trkpt lat="43.68028" lon="3.61242">
        <ele>135</ele>
        <time>2023-05-24T08:07:40.000Z</time>
      </trkpt>
      <trkpt lat="43.68022" lon="3.61231">
        <ele>136.60000610352</ele>
        <time>2023-05-24T08:07:49.000Z</time>
      </trkpt>
      <trkpt lat="43.68021" lon="3.6123">
        <ele>140.80000305176</ele>
        <time>2023-05-24T08:07:50.000Z</time>
      </trkpt>
      <trkpt lat="43.68021" lon="3.61229">
        <ele>144.39999389648</ele>
        <time>2023-05-24T08:07:51.000Z</time>
      </trkpt>
      <trkpt lat="43.6802" lon="3.61229">
        <ele>150.19999694824</ele>
        <time>2023-05-24T08:07:52.000Z</time>
      </trkpt>
      <trkpt lat="43.6802" lon="3.61228">
        <ele>152.80000305176</ele>
        <time>2023-05-24T08:07:53.000Z</time>
      </trkpt>
      <trkpt lat="43.68019" lon="3.61227">
        <ele>152.80000305176</ele>
        <time>2023-05-24T08:07:56.000Z</time>
      </trkpt>
      <trkpt lat="43.68019" lon="3.61226">
        <ele>150.60000610352</ele>
        <time>2023-05-24T08:07:57.000Z</time>
      </trkpt>
      <trkpt lat="43.68018" lon="3.61225">
        <ele>148</ele>
        <time>2023-05-24T08:07:58.000Z</time>
      </trkpt>
      <trkpt lat="43.68018" lon="3.61224">
        <ele>149.39999389648</ele>
        <time>2023-05-24T08:07:59.000Z</time>
      </trkpt>
      <trkpt lat="43.68013" lon="3.61215">
        <ele>149.39999389648</ele>
        <time>2023-05-24T08:08:06.000Z</time>
      </trkpt>
      <trkpt lat="43.68004" lon="3.61201">
        <ele>150.39999389648</ele>
        <time>2023-05-24T08:08:18.000Z</time>
      </trkpt>
      <trkpt lat="43.67995" lon="3.61193">
        <ele>150.19999694824</ele>
        <time>2023-05-24T08:08:27.000Z</time>
      </trkpt>
      <trkpt lat="43.67986" lon="3.61189">
        <ele>150.19999694824</ele>
        <time>2023-05-24T08:08:36.000Z</time>
      </trkpt>
      <trkpt lat="43.67979" lon="3.61185">
        <ele>149.80000305176</ele>
        <time>2023-05-24T08:08:42.000Z</time>
      </trkpt>
      <trkpt lat="43.67976" lon="3.61183">
        <ele>149.39999389648</ele>
        <time>2023-05-24T08:08:45.000Z</time>
      </trkpt>
      <trkpt lat="43.67976" lon="3.61182">
        <ele>149.39999389648</ele>
        <time>2023-05-24T08:08:46.000Z</time>
      </trkpt>
      <trkpt lat="43.67972" lon="3.61181">
        <ele>149.19999694824</ele>
        <time>2023-05-24T08:08:49.000Z</time>
      </trkpt>
      <trkpt lat="43.67967" lon="3.61178">
        <ele>149.19999694824</ele>
        <time>2023-05-24T08:08:54.000Z</time>
      </trkpt>
      <trkpt lat="43.67959" lon="3.61173">
        <ele>148.60000610352</ele>
        <time>2023-05-24T08:09:03.000Z</time>
      </trkpt>
      <trkpt lat="43.67958" lon="3.61173">
        <ele>148.60000610352</ele>
        <time>2023-05-24T08:09:05.000Z</time>
      </trkpt>
      <trkpt lat="43.67958" lon="3.61174">
        <ele>148.39999389648</ele>
        <time>2023-05-24T08:09:13.000Z</time>
      </trkpt>
      <trkpt lat="43.67958" lon="3.61174">
        <ele>148.39999389648</ele>
        <time>2023-05-24T08:09:15.000Z</time>
      </trkpt>
      <trkpt lat="43.67958" lon="3.61174">
        <ele>148.19999694824</ele>
        <time>2023-05-24T08:09:21.000Z</time>
      </trkpt>
      <trkpt lat="43.67958" lon="3.61174">
        <ele>147.39999389648</ele>
        <time>2023-05-24T08:09:28.000Z</time>
      </trkpt>
      <trkpt lat="43.67958" lon="3.61174">
        <ele>147.39999389648</ele>
        <time>2023-05-24T08:09:36.000Z</time>
      </trkpt>
      <trkpt lat="43.67958" lon="3.61174">
        <ele>147.19999694824</ele>
        <time>2023-05-24T08:09:38.000Z</time>
      </trkpt>
      <trkpt lat="43.67958" lon="3.61174">
        <ele>146.60000610352</ele>
        <time>2023-05-24T08:09:44.000Z</time>
      </trkpt>
      <trkpt lat="43.67958" lon="3.61174">
        <ele>146.19999694824</ele>
        <time>2023-05-24T08:09:47.000Z</time>
      </trkpt>
      <trkpt lat="43.67958" lon="3.61174">
        <ele>145.80000305176</ele>
        <time>2023-05-24T08:09:53.000Z</time>
      </trkpt>
      <trkpt lat="43.67958" lon="3.61174">
        <ele>145.39999389648</ele>
        <time>2023-05-24T08:10:02.000Z</time>
      </trkpt>
      <trkpt lat="43.67958" lon="3.61174">
        <ele>145.19999694824</ele>
        <time>2023-05-24T08:10:09.000Z</time>
      </trkpt>
      <trkpt lat="43.67958" lon="3.61174">
        <ele>145.19999694824</ele>
        <time>2023-05-24T08:10:10.000Z</time>
      </trkpt>
      <trkpt lat="43.67958" lon="3.61173">
        <ele>144.80000305176</ele>
        <time>2023-05-24T08:10:19.000Z</time>
      </trkpt>
      <trkpt lat="43.67958" lon="3.61175">
        <ele>144.39999389648</ele>
        <time>2023-05-24T08:10:36.000Z</time>
      </trkpt>
      <trkpt lat="43.67958" lon="3.61175">
        <ele>144.19999694824</ele>
        <time>2023-05-24T08:10:45.000Z</time>
      </trkpt>
      <trkpt lat="43.67958" lon="3.61175">
        <ele>143.80000305176</ele>
        <time>2023-05-24T08:10:56.000Z</time>
      </trkpt>
      <trkpt lat="43.67958" lon="3.61175">
        <ele>143.39999389648</ele>
        <time>2023-05-24T08:11:17.000Z</time>
      </trkpt>
      <trkpt lat="43.67958" lon="3.61175">
        <ele>143.19999694824</ele>
        <time>2023-05-24T08:11:24.000Z</time>
      </trkpt>
      <trkpt lat="43.67959" lon="3.61175">
        <ele>143</ele>
        <time>2023-05-24T08:11:25.000Z</time>
      </trkpt>
      <trkpt lat="43.6796" lon="3.61175">
        <ele>142.39999389648</ele>
        <time>2023-05-24T08:11:35.000Z</time>
      </trkpt>
      <trkpt lat="43.67962" lon="3.61176">
        <ele>142.60000610352</ele>
        <time>2023-05-24T08:11:42.000Z</time>
      </trkpt>
      <trkpt lat="43.67958" lon="3.61173">
        <ele>142.39999389648</ele>
        <time>2023-05-24T08:11:50.000Z</time>
      </trkpt>
      <trkpt lat="43.67958" lon="3.61173">
        <ele>142</ele>
        <time>2023-05-24T08:11:54.000Z</time>
      </trkpt>
      <trkpt lat="43.67958" lon="3.61173">
        <ele>141.80000305176</ele>
        <time>2023-05-24T08:11:58.000Z</time>
      </trkpt>
      <trkpt lat="43.67958" lon="3.61173">
        <ele>137.80000305176</ele>
        <time>2023-05-24T08:12:01.000Z</time>
      </trkpt>
      <trkpt lat="43.67958" lon="3.61173">
        <ele>136</ele>
        <time>2023-05-24T08:12:02.000Z</time>
      </trkpt>
      <trkpt lat="43.67958" lon="3.61174">
        <ele>135.80000305176</ele>
        <time>2023-05-24T08:12:06.000Z</time>
      </trkpt>
      <trkpt lat="43.67959" lon="3.61174">
        <ele>135.80000305176</ele>
        <time>2023-05-24T08:12:12.000Z</time>
      </trkpt>
      <trkpt lat="43.67958" lon="3.61173">
        <ele>135.80000305176</ele>
        <time>2023-05-24T08:12:18.000Z</time>
      </trkpt>
      <trkpt lat="43.67958" lon="3.61173">
        <ele>136</ele>
        <time>2023-05-24T08:12:26.000Z</time>
      </trkpt>
      <trkpt lat="43.67959" lon="3.61173">
        <ele>136</ele>
        <time>2023-05-24T08:12:34.000Z</time>
      </trkpt>
      <trkpt lat="43.67958" lon="3.61172">
        <ele>135.80000305176</ele>
        <time>2023-05-24T08:12:41.000Z</time>
      </trkpt>
      <trkpt lat="43.67957" lon="3.61172">
        <ele>135</ele>
        <time>2023-05-24T08:12:54.000Z</time>
      </trkpt>
      <trkpt lat="43.67957" lon="3.61173">
        <ele>135</ele>
        <time>2023-05-24T08:12:57.000Z</time>
      </trkpt>
      <trkpt lat="43.67957" lon="3.61173">
        <ele>134.60000610352</ele>
        <time>2023-05-24T08:13:01.000Z</time>
      </trkpt>
      <trkpt lat="43.67956" lon="3.61171">
        <ele>134.80000305176</ele>
        <time>2023-05-24T08:13:14.000Z</time>
      </trkpt>
      <trkpt lat="43.67956" lon="3.61171">
        <ele>135.60000610352</ele>
        <time>2023-05-24T08:13:22.000Z</time>
      </trkpt>
      <trkpt lat="43.67956" lon="3.6117">
        <ele>136</ele>
        <time>2023-05-24T08:13:25.000Z</time>
      </trkpt>
      <trkpt lat="43.67956" lon="3.6117">
        <ele>136</ele>
        <time>2023-05-24T08:13:31.000Z</time>
      </trkpt>
      <trkpt lat="43.67956" lon="3.6117">
        <ele>135.19999694824</ele>
        <time>2023-05-24T08:13:36.000Z</time>
      </trkpt>
      <trkpt lat="43.67956" lon="3.6117">
        <ele>135</ele>
        <time>2023-05-24T08:13:40.000Z</time>
      </trkpt>
      <trkpt lat="43.67955" lon="3.61169">
        <ele>134.19999694824</ele>
        <time>2023-05-24T08:13:44.000Z</time>
      </trkpt>
      <trkpt lat="43.67955" lon="3.61169">
        <ele>133.80000305176</ele>
        <time>2023-05-24T08:13:47.000Z</time>
      </trkpt>
      <trkpt lat="43.67955" lon="3.6117">
        <ele>134.60000610352</ele>
        <time>2023-05-24T08:13:54.000Z</time>
      </trkpt>
      <trkpt lat="43.67955" lon="3.61169">
        <ele>130.39999389648</ele>
        <time>2023-05-24T08:14:06.000Z</time>
      </trkpt>
      <trkpt lat="43.67955" lon="3.61169">
        <ele>124.59999847412</ele>
        <time>2023-05-24T08:14:07.000Z</time>
      </trkpt>
      <trkpt lat="43.67955" lon="3.61169">
        <ele>119.40000152588</ele>
        <time>2023-05-24T08:14:08.000Z</time>
      </trkpt>
      <trkpt lat="43.67955" lon="3.61169">
        <ele>123.80000305176</ele>
        <time>2023-05-24T08:14:09.000Z</time>
      </trkpt>
      <trkpt lat="43.67955" lon="3.61169">
        <ele>123.59999847412</ele>
        <time>2023-05-24T08:14:10.000Z</time>
      </trkpt>
      <trkpt lat="43.67955" lon="3.61169">
        <ele>122.59999847412</ele>
        <time>2023-05-24T08:14:17.000Z</time>
      </trkpt>
      <trkpt lat="43.67955" lon="3.61169">
        <ele>122.59999847412</ele>
        <time>2023-05-24T08:14:22.000Z</time>
      </trkpt>
      <trkpt lat="43.67955" lon="3.61169">
        <ele>122.80000305176</ele>
        <time>2023-05-24T08:14:32.000Z</time>
      </trkpt>
      <trkpt lat="43.67955" lon="3.61168">
        <ele>123.59999847412</ele>
        <time>2023-05-24T08:14:43.000Z</time>
      </trkpt>
      <trkpt lat="43.67955" lon="3.61167">
        <ele>123.80000305176</ele>
        <time>2023-05-24T08:14:44.000Z</time>
      </trkpt>
      <trkpt lat="43.67954" lon="3.61168">
        <ele>124</ele>
        <time>2023-05-24T08:14:50.000Z</time>
      </trkpt>
      <trkpt lat="43.67955" lon="3.61167">
        <ele>124.40000152588</ele>
        <time>2023-05-24T08:14:56.000Z</time>
      </trkpt>
      <trkpt lat="43.67955" lon="3.61167">
        <ele>125.19999694824</ele>
        <time>2023-05-24T08:14:58.000Z</time>
      </trkpt>
      <trkpt lat="43.67954" lon="3.61166">
        <ele>126.19999694824</ele>
        <time>2023-05-24T08:15:04.000Z</time>
      </trkpt>
      <trkpt lat="43.67953" lon="3.61164">
        <ele>127.40000152588</ele>
        <time>2023-05-24T08:15:13.000Z</time>
      </trkpt>
      <trkpt lat="43.67953" lon="3.61164">
        <ele>128</ele>
        <time>2023-05-24T08:15:17.000Z</time>
      </trkpt>
      <trkpt lat="43.67953" lon="3.61164">
        <ele>128.60000610352</ele>
        <time>2023-05-24T08:15:20.000Z</time>
      </trkpt>
      <trkpt lat="43.67953" lon="3.61164">
        <ele>129.60000610352</ele>
        <time>2023-05-24T08:15:28.000Z</time>
      </trkpt>
      <trkpt lat="43.67953" lon="3.61165">
        <ele>129.80000305176</ele>
        <time>2023-05-24T08:15:30.000Z</time>
      </trkpt>
      <trkpt lat="43.67954" lon="3.61165">
        <ele>130.60000610352</ele>
        <time>2023-05-24T08:15:36.000Z</time>
      </trkpt>
      <trkpt lat="43.67954" lon="3.61166">
        <ele>131.80000305176</ele>
        <time>2023-05-24T08:15:44.000Z</time>
      </trkpt>
      <trkpt lat="43.67954" lon="3.61166">
        <ele>132.39999389648</ele>
        <time>2023-05-24T08:15:48.000Z</time>
      </trkpt>
      <trkpt lat="43.67954" lon="3.61166">
        <ele>132.80000305176</ele>
        <time>2023-05-24T08:15:51.000Z</time>
      </trkpt>
      <trkpt lat="43.67954" lon="3.61166">
        <ele>133</ele>
        <time>2023-05-24T08:16:07.000Z</time>
      </trkpt>
      <trkpt lat="43.67954" lon="3.61165">
        <ele>133.39999389648</ele>
        <time>2023-05-24T08:16:23.000Z</time>
      </trkpt>
      <trkpt lat="43.67955" lon="3.61166">
        <ele>133.19999694824</ele>
        <time>2023-05-24T08:16:47.000Z</time>
      </trkpt>
      <trkpt lat="43.67956" lon="3.61168">
        <ele>133.19999694824</ele>
        <time>2023-05-24T08:16:58.000Z</time>
      </trkpt>
      <trkpt lat="43.67955" lon="3.61168">
        <ele>129.39999389648</ele>
        <time>2023-05-24T08:17:17.000Z</time>
      </trkpt>
      <trkpt lat="43.67955" lon="3.61168">
        <ele>131</ele>
        <time>2023-05-24T08:17:19.000Z</time>
      </trkpt>
      <trkpt lat="43.67955" lon="3.61168">
        <ele>134.19999694824</ele>
        <time>2023-05-24T08:17:21.000Z</time>
      </trkpt>
      <trkpt lat="43.67955" lon="3.61169">
        <ele>131.60000610352</ele>
        <time>2023-05-24T08:17:26.000Z</time>
      </trkpt>
      <trkpt lat="43.67955" lon="3.61169">
        <ele>132.60000610352</ele>
        <time>2023-05-24T08:17:28.000Z</time>
      </trkpt>
      <trkpt lat="43.67955" lon="3.61169">
        <ele>131.19999694824</ele>
        <time>2023-05-24T08:17:30.000Z</time>
      </trkpt>
      <trkpt lat="43.67955" lon="3.61169">
        <ele>127.59999847412</ele>
        <time>2023-05-24T08:17:33.000Z</time>
      </trkpt>
      <trkpt lat="43.67955" lon="3.61169">
        <ele>133.19999694824</ele>
        <time>2023-05-24T08:17:38.000Z</time>
      </trkpt>
      <trkpt lat="43.67955" lon="3.61169">
        <ele>125</ele>
        <time>2023-05-24T08:17:39.000Z</time>
      </trkpt>
      <trkpt lat="43.67955" lon="3.61169">
        <ele>123.80000305176</ele>
        <time>2023-05-24T08:17:41.000Z</time>
      </trkpt>
      <trkpt lat="43.67955" lon="3.61169">
        <ele>124.19999694824</ele>
        <time>2023-05-24T08:17:50.000Z</time>
      </trkpt>
      <trkpt lat="43.67956" lon="3.61169">
        <ele>122.80000305176</ele>
        <time>2023-05-24T08:18:01.000Z</time>
      </trkpt>
      <trkpt lat="43.67956" lon="3.61169">
        <ele>122.59999847412</ele>
        <time>2023-05-24T08:18:02.000Z</time>
      </trkpt>
      <trkpt lat="43.67957" lon="3.61169">
        <ele>123.59999847412</ele>
        <time>2023-05-24T08:18:14.000Z</time>
      </trkpt>
      <trkpt lat="43.67956" lon="3.61169">
        <ele>123.80000305176</ele>
        <time>2023-05-24T08:18:15.000Z</time>
      </trkpt>
      <trkpt lat="43.67957" lon="3.61169">
        <ele>124.19999694824</ele>
        <time>2023-05-24T08:18:19.000Z</time>
      </trkpt>
      <trkpt lat="43.67957" lon="3.6117">
        <ele>123.19999694824</ele>
        <time>2023-05-24T08:18:26.000Z</time>
      </trkpt>
      <trkpt lat="43.67957" lon="3.6117">
        <ele>122.59999847412</ele>
        <time>2023-05-24T08:18:30.000Z</time>
      </trkpt>
      <trkpt lat="43.67957" lon="3.6117">
        <ele>123</ele>
        <time>2023-05-24T08:18:32.000Z</time>
      </trkpt>
      <trkpt lat="43.67957" lon="3.61171">
        <ele>123.59999847412</ele>
        <time>2023-05-24T08:18:35.000Z</time>
      </trkpt>
      <trkpt lat="43.67957" lon="3.61171">
        <ele>124</ele>
        <time>2023-05-24T08:18:38.000Z</time>
      </trkpt>
      <trkpt lat="43.67957" lon="3.61171">
        <ele>124.80000305176</ele>
        <time>2023-05-24T08:18:44.000Z</time>
      </trkpt>
      <trkpt lat="43.67958" lon="3.61171">
        <ele>124.80000305176</ele>
        <time>2023-05-24T08:18:46.000Z</time>
      </trkpt>
      <trkpt lat="43.67958" lon="3.61171">
        <ele>125.80000305176</ele>
        <time>2023-05-24T08:18:52.000Z</time>
      </trkpt>
      <trkpt lat="43.67957" lon="3.61171">
        <ele>126.40000152588</ele>
        <time>2023-05-24T08:18:54.000Z</time>
      </trkpt>
      <trkpt lat="43.67958" lon="3.61172">
        <ele>127</ele>
        <time>2023-05-24T08:18:59.000Z</time>
      </trkpt>
      <trkpt lat="43.67958" lon="3.61172">
        <ele>127.19999694824</ele>
        <time>2023-05-24T08:19:03.000Z</time>
      </trkpt>
      <trkpt lat="43.67957" lon="3.61172">
        <ele>128</ele>
        <time>2023-05-24T08:19:10.000Z</time>
      </trkpt>
      <trkpt lat="43.67957" lon="3.61172">
        <ele>128.19999694824</ele>
        <time>2023-05-24T08:19:11.000Z</time>
      </trkpt>
      <trkpt lat="43.67958" lon="3.61172">
        <ele>129.19999694824</ele>
        <time>2023-05-24T08:19:20.000Z</time>
      </trkpt>
      <trkpt lat="43.67958" lon="3.61172">
        <ele>129.19999694824</ele>
        <time>2023-05-24T08:19:21.000Z</time>
      </trkpt>
      <trkpt lat="43.67958" lon="3.61172">
        <ele>130.19999694824</ele>
        <time>2023-05-24T08:19:24.000Z</time>
      </trkpt>
      <trkpt lat="43.67958" lon="3.61172">
        <ele>131</ele>
        <time>2023-05-24T08:19:27.000Z</time>
      </trkpt>
      <trkpt lat="43.67958" lon="3.61172">
        <ele>131.39999389648</ele>
        <time>2023-05-24T08:19:33.000Z</time>
      </trkpt>
      <trkpt lat="43.67958" lon="3.61172">
        <ele>131.60000610352</ele>
        <time>2023-05-24T08:19:34.000Z</time>
      </trkpt>
      <trkpt lat="43.67957" lon="3.61172">
        <ele>132.60000610352</ele>
        <time>2023-05-24T08:19:41.000Z</time>
      </trkpt>
      <trkpt lat="43.67957" lon="3.61172">
        <ele>132.80000305176</ele>
        <time>2023-05-24T08:19:42.000Z</time>
      </trkpt>
      <trkpt lat="43.67957" lon="3.61172">
        <ele>133.60000610352</ele>
        <time>2023-05-24T08:19:51.000Z</time>
      </trkpt>
      <trkpt lat="43.67957" lon="3.61172">
        <ele>133.60000610352</ele>
        <time>2023-05-24T08:19:58.000Z</time>
      </trkpt>
      <trkpt lat="43.67957" lon="3.61172">
        <ele>133.60000610352</ele>
        <time>2023-05-24T08:19:59.000Z</time>
      </trkpt>
      <trkpt lat="43.67957" lon="3.61171">
        <ele>133.80000305176</ele>
        <time>2023-05-24T08:20:08.000Z</time>
      </trkpt>
      <trkpt lat="43.67957" lon="3.61171">
        <ele>133.80000305176</ele>
        <time>2023-05-24T08:20:14.000Z</time>
      </trkpt>
      <trkpt lat="43.67956" lon="3.6117">
        <ele>134.19999694824</ele>
        <time>2023-05-24T08:20:23.000Z</time>
      </trkpt>
      <trkpt lat="43.67956" lon="3.61169">
        <ele>134.39999389648</ele>
        <time>2023-05-24T08:20:33.000Z</time>
      </trkpt>
      <trkpt lat="43.67957" lon="3.6117">
        <ele>134</ele>
        <time>2023-05-24T08:20:38.000Z</time>
      </trkpt>
      <trkpt lat="43.67956" lon="3.6117">
        <ele>133.60000610352</ele>
        <time>2023-05-24T08:20:46.000Z</time>
      </trkpt>
      <trkpt lat="43.67955" lon="3.61168">
        <ele>133.60000610352</ele>
        <time>2023-05-24T08:20:52.000Z</time>
      </trkpt>
      <trkpt lat="43.67952" lon="3.61166">
        <ele>133.60000610352</ele>
        <time>2023-05-24T08:20:59.000Z</time>
      </trkpt>
      <trkpt lat="43.67943" lon="3.61159">
        <ele>133</ele>
        <time>2023-05-24T08:21:09.000Z</time>
      </trkpt>
      <trkpt lat="43.67938" lon="3.61154">
        <ele>132.60000610352</ele>
        <time>2023-05-24T08:21:14.000Z</time>
      </trkpt>
      <trkpt lat="43.67933" lon="3.61152">
        <ele>132.39999389648</ele>
        <time>2023-05-24T08:21:19.000Z</time>
      </trkpt>
      <trkpt lat="43.67924" lon="3.61149">
        <ele>131.80000305176</ele>
        <time>2023-05-24T08:21:27.000Z</time>
      </trkpt>
      <trkpt lat="43.67916" lon="3.61145">
        <ele>131.60000610352</ele>
        <time>2023-05-24T08:21:35.000Z</time>
      </trkpt>
      <trkpt lat="43.67908" lon="3.61143">
        <ele>131.60000610352</ele>
        <time>2023-05-24T08:21:43.000Z</time>
      </trkpt>
      <trkpt lat="43.67898" lon="3.61139">
        <ele>130.60000610352</ele>
        <time>2023-05-24T08:21:52.000Z</time>
      </trkpt>
      <trkpt lat="43.67891" lon="3.61137">
        <ele>130.39999389648</ele>
        <time>2023-05-24T08:21:58.000Z</time>
      </trkpt>
      <trkpt lat="43.67884" lon="3.61135">
        <ele>130.19999694824</ele>
        <time>2023-05-24T08:22:05.000Z</time>
      </trkpt>
      <trkpt lat="43.67875" lon="3.61132">
        <ele>129.80000305176</ele>
        <time>2023-05-24T08:22:13.000Z</time>
      </trkpt>
      <trkpt lat="43.67865" lon="3.6113">
        <ele>129.80000305176</ele>
        <time>2023-05-24T08:22:23.000Z</time>
      </trkpt>
      <trkpt lat="43.67863" lon="3.61129">
        <ele>129.60000610352</ele>
        <time>2023-05-24T08:22:25.000Z</time>
      </trkpt>
      <trkpt lat="43.67854" lon="3.61127">
        <ele>129.39999389648</ele>
        <time>2023-05-24T08:22:33.000Z</time>
      </trkpt>
      <trkpt lat="43.67844" lon="3.61121">
        <ele>129</ele>
        <time>2023-05-24T08:22:43.000Z</time>
      </trkpt>
      <trkpt lat="43.67834" lon="3.61115">
        <ele>128.80000305176</ele>
        <time>2023-05-24T08:22:53.000Z</time>
      </trkpt>
      <trkpt lat="43.67826" lon="3.61111">
        <ele>128.60000610352</ele>
        <time>2023-05-24T08:23:01.000Z</time>
      </trkpt>
      <trkpt lat="43.67824" lon="3.6111">
        <ele>128.39999389648</ele>
        <time>2023-05-24T08:23:03.000Z</time>
      </trkpt>
      <trkpt lat="43.67815" lon="3.61105">
        <ele>128</ele>
        <time>2023-05-24T08:23:12.000Z</time>
      </trkpt>
      <trkpt lat="43.67806" lon="3.61096">
        <ele>127.59999847412</ele>
        <time>2023-05-24T08:23:22.000Z</time>
      </trkpt>
      <trkpt lat="43.67804" lon="3.61095">
        <ele>127.59999847412</ele>
        <time>2023-05-24T08:23:24.000Z</time>
      </trkpt>
      <trkpt lat="43.67802" lon="3.61089">
        <ele>127.40000152588</ele>
        <time>2023-05-24T08:23:29.000Z</time>
      </trkpt>
      <trkpt lat="43.67794" lon="3.61079">
        <ele>127.19999694824</ele>
        <time>2023-05-24T08:23:39.000Z</time>
      </trkpt>
      <trkpt lat="43.67787" lon="3.61069">
        <ele>127</ele>
        <time>2023-05-24T08:23:49.000Z</time>
      </trkpt>
      <trkpt lat="43.6778" lon="3.61064">
        <ele>127</ele>
        <time>2023-05-24T08:23:57.000Z</time>
      </trkpt>
      <trkpt lat="43.6777" lon="3.61056">
        <ele>127</ele>
        <time>2023-05-24T08:24:08.000Z</time>
      </trkpt>
      <trkpt lat="43.6776" lon="3.61047">
        <ele>127</ele>
        <time>2023-05-24T08:24:18.000Z</time>
      </trkpt>
      <trkpt lat="43.67756" lon="3.61039">
        <ele>127.19999694824</ele>
        <time>2023-05-24T08:24:25.000Z</time>
      </trkpt>
      <trkpt lat="43.6775" lon="3.61026">
        <ele>127.40000152588</ele>
        <time>2023-05-24T08:24:35.000Z</time>
      </trkpt>
      <trkpt lat="43.67748" lon="3.61017">
        <ele>127.40000152588</ele>
        <time>2023-05-24T08:24:42.000Z</time>
      </trkpt>
      <trkpt lat="43.67747" lon="3.61004">
        <ele>127.59999847412</ele>
        <time>2023-05-24T08:24:51.000Z</time>
      </trkpt>
      <trkpt lat="43.67744" lon="3.60991">
        <ele>127.59999847412</ele>
        <time>2023-05-24T08:25:00.000Z</time>
      </trkpt>
      <trkpt lat="43.67743" lon="3.60988">
        <ele>127.80000305176</ele>
        <time>2023-05-24T08:25:02.000Z</time>
      </trkpt>
      <trkpt lat="43.6774" lon="3.60979">
        <ele>127.59999847412</ele>
        <time>2023-05-24T08:25:08.000Z</time>
      </trkpt>
      <trkpt lat="43.67734" lon="3.60965">
        <ele>127.59999847412</ele>
        <time>2023-05-24T08:25:18.000Z</time>
      </trkpt>
      <trkpt lat="43.67726" lon="3.60952">
        <ele>127.80000305176</ele>
        <time>2023-05-24T08:25:29.000Z</time>
      </trkpt>
      <trkpt lat="43.6772" lon="3.60942">
        <ele>127</ele>
        <time>2023-05-24T08:25:38.000Z</time>
      </trkpt>
      <trkpt lat="43.67715" lon="3.60933">
        <ele>126.80000305176</ele>
        <time>2023-05-24T08:25:46.000Z</time>
      </trkpt>
      <trkpt lat="43.67709" lon="3.60925">
        <ele>126.80000305176</ele>
        <time>2023-05-24T08:25:53.000Z</time>
      </trkpt>
      <trkpt lat="43.67701" lon="3.60913">
        <ele>126.59999847412</ele>
        <time>2023-05-24T08:26:04.000Z</time>
      </trkpt>
      <trkpt lat="43.67697" lon="3.60903">
        <ele>126.59999847412</ele>
        <time>2023-05-24T08:26:12.000Z</time>
      </trkpt>
      <trkpt lat="43.67693" lon="3.60896">
        <ele>126.59999847412</ele>
        <time>2023-05-24T08:26:18.000Z</time>
      </trkpt>
      <trkpt lat="43.67689" lon="3.6089">
        <ele>126.19999694824</ele>
        <time>2023-05-24T08:26:23.000Z</time>
      </trkpt>
      <trkpt lat="43.67682" lon="3.60877">
        <ele>125.80000305176</ele>
        <time>2023-05-24T08:26:33.000Z</time>
      </trkpt>
      <trkpt lat="43.67675" lon="3.60864">
        <ele>125.59999847412</ele>
        <time>2023-05-24T08:26:43.000Z</time>
      </trkpt>
      <trkpt lat="43.67671" lon="3.60855">
        <ele>125.59999847412</ele>
        <time>2023-05-24T08:26:50.000Z</time>
      </trkpt>
      <trkpt lat="43.6767" lon="3.60853">
        <ele>125.40000152588</ele>
        <time>2023-05-24T08:26:52.000Z</time>
      </trkpt>
      <trkpt lat="43.67667" lon="3.60845">
        <ele>125.19999694824</ele>
        <time>2023-05-24T08:26:58.000Z</time>
      </trkpt>
      <trkpt lat="43.67664" lon="3.60838">
        <ele>125.19999694824</ele>
        <time>2023-05-24T08:27:05.000Z</time>
      </trkpt>
      <trkpt lat="43.67662" lon="3.6083">
        <ele>125.19999694824</ele>
        <time>2023-05-24T08:27:11.000Z</time>
      </trkpt>
      <trkpt lat="43.6766" lon="3.60825">
        <ele>125</ele>
        <time>2023-05-24T08:27:15.000Z</time>
      </trkpt>
      <trkpt lat="43.67659" lon="3.60822">
        <ele>125</ele>
        <time>2023-05-24T08:27:18.000Z</time>
      </trkpt>
      <trkpt lat="43.67652" lon="3.60809">
        <ele>124.59999847412</ele>
        <time>2023-05-24T08:27:28.000Z</time>
      </trkpt>
      <trkpt lat="43.67651" lon="3.60807">
        <ele>124.40000152588</ele>
        <time>2023-05-24T08:27:29.000Z</time>
      </trkpt>
      <trkpt lat="43.67646" lon="3.608">
        <ele>124.40000152588</ele>
        <time>2023-05-24T08:27:35.000Z</time>
      </trkpt>
      <trkpt lat="43.67644" lon="3.60795">
        <ele>124.40000152588</ele>
        <time>2023-05-24T08:27:38.000Z</time>
      </trkpt>
      <trkpt lat="43.67641" lon="3.6079">
        <ele>124.40000152588</ele>
        <time>2023-05-24T08:27:42.000Z</time>
      </trkpt>
      <trkpt lat="43.67634" lon="3.60779">
        <ele>124</ele>
        <time>2023-05-24T08:27:50.000Z</time>
      </trkpt>
      <trkpt lat="43.67627" lon="3.60768">
        <ele>124</ele>
        <time>2023-05-24T08:27:59.000Z</time>
      </trkpt>
      <trkpt lat="43.67622" lon="3.60756">
        <ele>123.80000305176</ele>
        <time>2023-05-24T08:28:08.000Z</time>
      </trkpt>
      <trkpt lat="43.67616" lon="3.60746">
        <ele>124.19999694824</ele>
        <time>2023-05-24T08:28:16.000Z</time>
      </trkpt>
      <trkpt lat="43.67608" lon="3.60736">
        <ele>124.40000152588</ele>
        <time>2023-05-24T08:28:25.000Z</time>
      </trkpt>
      <trkpt lat="43.67601" lon="3.60728">
        <ele>124.19999694824</ele>
        <time>2023-05-24T08:28:33.000Z</time>
      </trkpt>
      <trkpt lat="43.67595" lon="3.60721">
        <ele>124.40000152588</ele>
        <time>2023-05-24T08:28:41.000Z</time>
      </trkpt>
      <trkpt lat="43.6759" lon="3.60716">
        <ele>124.59999847412</ele>
        <time>2023-05-24T08:28:47.000Z</time>
      </trkpt>
      <trkpt lat="43.67588" lon="3.60714">
        <ele>124.59999847412</ele>
        <time>2023-05-24T08:28:49.000Z</time>
      </trkpt>
      <trkpt lat="43.67582" lon="3.60707">
        <ele>124.59999847412</ele>
        <time>2023-05-24T08:28:56.000Z</time>
      </trkpt>
      <trkpt lat="43.67576" lon="3.60699">
        <ele>124.80000305176</ele>
        <time>2023-05-24T08:29:04.000Z</time>
      </trkpt>
      <trkpt lat="43.67569" lon="3.60691">
        <ele>125</ele>
        <time>2023-05-24T08:29:13.000Z</time>
      </trkpt>
      <trkpt lat="43.6756" lon="3.60682">
        <ele>125.19999694824</ele>
        <time>2023-05-24T08:29:23.000Z</time>
      </trkpt>
      <trkpt lat="43.67554" lon="3.60678">
        <ele>125.59999847412</ele>
        <time>2023-05-24T08:29:29.000Z</time>
      </trkpt>
      <trkpt lat="43.6755" lon="3.60676">
        <ele>125.59999847412</ele>
        <time>2023-05-24T08:29:33.000Z</time>
      </trkpt>
      <trkpt lat="43.67543" lon="3.60673">
        <ele>126.19999694824</ele>
        <time>2023-05-24T08:29:41.000Z</time>
      </trkpt>
      <trkpt lat="43.67541" lon="3.60672">
        <ele>126.19999694824</ele>
        <time>2023-05-24T08:29:43.000Z</time>
      </trkpt>
      <trkpt lat="43.67538" lon="3.60671">
        <ele>126.40000152588</ele>
        <time>2023-05-24T08:29:47.000Z</time>
      </trkpt>
      <trkpt lat="43.67536" lon="3.6067">
        <ele>126.59999847412</ele>
        <time>2023-05-24T08:29:49.000Z</time>
      </trkpt>
      <trkpt lat="43.67532" lon="3.60668">
        <ele>126.59999847412</ele>
        <time>2023-05-24T08:29:54.000Z</time>
      </trkpt>
      <trkpt lat="43.67529" lon="3.60666">
        <ele>126.80000305176</ele>
        <time>2023-05-24T08:29:58.000Z</time>
      </trkpt>
      <trkpt lat="43.67525" lon="3.60664">
        <ele>126.80000305176</ele>
        <time>2023-05-24T08:30:02.000Z</time>
      </trkpt>
      <trkpt lat="43.6752" lon="3.60661">
        <ele>126.80000305176</ele>
        <time>2023-05-24T08:30:09.000Z</time>
      </trkpt>
      <trkpt lat="43.67516" lon="3.60658">
        <ele>126.80000305176</ele>
        <time>2023-05-24T08:30:15.000Z</time>
      </trkpt>
      <trkpt lat="43.67514" lon="3.60657">
        <ele>127.19999694824</ele>
        <time>2023-05-24T08:30:28.000Z</time>
      </trkpt>
      <trkpt lat="43.67513" lon="3.60657">
        <ele>127.19999694824</ele>
        <time>2023-05-24T08:30:41.000Z</time>
      </trkpt>
      <trkpt lat="43.67511" lon="3.60655">
        <ele>127.40000152588</ele>
        <time>2023-05-24T08:31:02.000Z</time>
      </trkpt>
      <trkpt lat="43.67508" lon="3.60652">
        <ele>127.80000305176</ele>
        <time>2023-05-24T08:31:08.000Z</time>
      </trkpt>
      <trkpt lat="43.67506" lon="3.60651">
        <ele>127.80000305176</ele>
        <time>2023-05-24T08:31:10.000Z</time>
      </trkpt>
      <trkpt lat="43.67501" lon="3.60644">
        <ele>127.40000152588</ele>
        <time>2023-05-24T08:31:17.000Z</time>
      </trkpt>
      <trkpt lat="43.67496" lon="3.60639">
        <ele>127.80000305176</ele>
        <time>2023-05-24T08:31:24.000Z</time>
      </trkpt>
      <trkpt lat="43.67488" lon="3.60633">
        <ele>127.59999847412</ele>
        <time>2023-05-24T08:31:32.000Z</time>
      </trkpt>
      <trkpt lat="43.67484" lon="3.60627">
        <ele>127.80000305176</ele>
        <time>2023-05-24T08:31:39.000Z</time>
      </trkpt>
      <trkpt lat="43.67477" lon="3.60622">
        <ele>128</ele>
        <time>2023-05-24T08:31:47.000Z</time>
      </trkpt>
      <trkpt lat="43.67472" lon="3.60618">
        <ele>128</ele>
        <time>2023-05-24T08:31:53.000Z</time>
      </trkpt>
      <trkpt lat="43.67462" lon="3.60612">
        <ele>128.19999694824</ele>
        <time>2023-05-24T08:32:02.000Z</time>
      </trkpt>
      <trkpt lat="43.67451" lon="3.60603">
        <ele>128.60000610352</ele>
        <time>2023-05-24T08:32:14.000Z</time>
      </trkpt>
      <trkpt lat="43.67442" lon="3.60597">
        <ele>128.80000305176</ele>
        <time>2023-05-24T08:32:22.000Z</time>
      </trkpt>
      <trkpt lat="43.6744" lon="3.60595">
        <ele>129</ele>
        <time>2023-05-24T08:32:25.000Z</time>
      </trkpt>
      <trkpt lat="43.67429" lon="3.60585">
        <ele>129.39999389648</ele>
        <time>2023-05-24T08:32:36.000Z</time>
      </trkpt>
      <trkpt lat="43.67424" lon="3.60576">
        <ele>129.39999389648</ele>
        <time>2023-05-24T08:32:43.000Z</time>
      </trkpt>
      <trkpt lat="43.67421" lon="3.60563">
        <ele>129</ele>
        <time>2023-05-24T08:32:51.000Z</time>
      </trkpt>
      <trkpt lat="43.67417" lon="3.60551">
        <ele>128.60000610352</ele>
        <time>2023-05-24T08:32:59.000Z</time>
      </trkpt>
      <trkpt lat="43.6741" lon="3.60536">
        <ele>128.39999389648</ele>
        <time>2023-05-24T08:33:09.000Z</time>
      </trkpt>
      <trkpt lat="43.67406" lon="3.60527">
        <ele>128.19999694824</ele>
        <time>2023-05-24T08:33:16.000Z</time>
      </trkpt>
      <trkpt lat="43.67406" lon="3.60525">
        <ele>128.19999694824</ele>
        <time>2023-05-24T08:33:17.000Z</time>
      </trkpt>
      <trkpt lat="43.67403" lon="3.60516">
        <ele>128.39999389648</ele>
        <time>2023-05-24T08:33:23.000Z</time>
      </trkpt>
      <trkpt lat="43.67399" lon="3.60503">
        <ele>128.39999389648</ele>
        <time>2023-05-24T08:33:32.000Z</time>
      </trkpt>
      <trkpt lat="43.67396" lon="3.60489">
        <ele>128.19999694824</ele>
        <time>2023-05-24T08:33:41.000Z</time>
      </trkpt>
      <trkpt lat="43.67393" lon="3.60476">
        <ele>127.80000305176</ele>
        <time>2023-05-24T08:33:49.000Z</time>
      </trkpt>
      <trkpt lat="43.67392" lon="3.60472">
        <ele>127.80000305176</ele>
        <time>2023-05-24T08:33:52.000Z</time>
      </trkpt>
      <trkpt lat="43.67388" lon="3.60455">
        <ele>127.40000152588</ele>
        <time>2023-05-24T08:34:03.000Z</time>
      </trkpt>
      <trkpt lat="43.67386" lon="3.60441">
        <ele>127</ele>
        <time>2023-05-24T08:34:12.000Z</time>
      </trkpt>
      <trkpt lat="43.67383" lon="3.60432">
        <ele>126.80000305176</ele>
        <time>2023-05-24T08:34:18.000Z</time>
      </trkpt>
      <trkpt lat="43.67383" lon="3.60431">
        <ele>126.80000305176</ele>
        <time>2023-05-24T08:34:19.000Z</time>
      </trkpt>
      <trkpt lat="43.67378" lon="3.60418">
        <ele>126.40000152588</ele>
        <time>2023-05-24T08:34:28.000Z</time>
      </trkpt>
      <trkpt lat="43.67371" lon="3.60406">
        <ele>126</ele>
        <time>2023-05-24T08:34:38.000Z</time>
      </trkpt>
      <trkpt lat="43.67368" lon="3.60402">
        <ele>125.80000305176</ele>
        <time>2023-05-24T08:34:42.000Z</time>
      </trkpt>
      <trkpt lat="43.67364" lon="3.60397">
        <ele>125.59999847412</ele>
        <time>2023-05-24T08:34:47.000Z</time>
      </trkpt>
      <trkpt lat="43.67355" lon="3.60388">
        <ele>125.19999694824</ele>
        <time>2023-05-24T08:34:56.000Z</time>
      </trkpt>
      <trkpt lat="43.67347" lon="3.60381">
        <ele>125</ele>
        <time>2023-05-24T08:35:04.000Z</time>
      </trkpt>
      <trkpt lat="43.67346" lon="3.60381">
        <ele>124.80000305176</ele>
        <time>2023-05-24T08:35:05.000Z</time>
      </trkpt>
      <trkpt lat="43.67343" lon="3.60379">
        <ele>124.59999847412</ele>
        <time>2023-05-24T08:35:08.000Z</time>
      </trkpt>
      <trkpt lat="43.67337" lon="3.60377">
        <ele>125</ele>
        <time>2023-05-24T08:35:13.000Z</time>
      </trkpt>
      <trkpt lat="43.67326" lon="3.60373">
        <ele>124.59999847412</ele>
        <time>2023-05-24T08:35:23.000Z</time>
      </trkpt>
      <trkpt lat="43.67315" lon="3.60371">
        <ele>124.40000152588</ele>
        <time>2023-05-24T08:35:32.000Z</time>
      </trkpt>
      <trkpt lat="43.67304" lon="3.6037">
        <ele>124</ele>
        <time>2023-05-24T08:35:41.000Z</time>
      </trkpt>
      <trkpt lat="43.67302" lon="3.6037">
        <ele>123.59999847412</ele>
        <time>2023-05-24T08:35:43.000Z</time>
      </trkpt>
      <trkpt lat="43.67295" lon="3.60372">
        <ele>123.40000152588</ele>
        <time>2023-05-24T08:35:49.000Z</time>
      </trkpt>
      <trkpt lat="43.67289" lon="3.60373">
        <ele>121.59999847412</ele>
        <time>2023-05-24T08:35:54.000Z</time>
      </trkpt>
      <trkpt lat="43.67286" lon="3.60373">
        <ele>121.19999694824</ele>
        <time>2023-05-24T08:35:57.000Z</time>
      </trkpt>
      <trkpt lat="43.67283" lon="3.60374">
        <ele>119.59999847412</ele>
        <time>2023-05-24T08:35:59.000Z</time>
      </trkpt>
      <trkpt lat="43.67282" lon="3.60374">
        <ele>121.19999694824</ele>
        <time>2023-05-24T08:36:00.000Z</time>
      </trkpt>
      <trkpt lat="43.67279" lon="3.60375">
        <ele>122.40000152588</ele>
        <time>2023-05-24T08:36:03.000Z</time>
      </trkpt>
      <trkpt lat="43.67278" lon="3.60376">
        <ele>122.40000152588</ele>
        <time>2023-05-24T08:36:04.000Z</time>
      </trkpt>
      <trkpt lat="43.67269" lon="3.60382">
        <ele>123</ele>
        <time>2023-05-24T08:36:12.000Z</time>
      </trkpt>
      <trkpt lat="43.67265" lon="3.60385">
        <ele>123</ele>
        <time>2023-05-24T08:36:16.000Z</time>
      </trkpt>
      <trkpt lat="43.67264" lon="3.60388">
        <ele>123</ele>
        <time>2023-05-24T08:36:20.000Z</time>
      </trkpt>
      <trkpt lat="43.67263" lon="3.60388">
        <ele>122.80000305176</ele>
        <time>2023-05-24T08:36:27.000Z</time>
      </trkpt>
      <trkpt lat="43.67263" lon="3.60387">
        <ele>121.59999847412</ele>
        <time>2023-05-24T08:36:38.000Z</time>
      </trkpt>
      <trkpt lat="43.67263" lon="3.60387">
        <ele>121.19999694824</ele>
        <time>2023-05-24T08:36:41.000Z</time>
      </trkpt>
      <trkpt lat="43.67263" lon="3.60386">
        <ele>120.19999694824</ele>
        <time>2023-05-24T08:36:47.000Z</time>
      </trkpt>
      <trkpt lat="43.67263" lon="3.60386">
        <ele>119.80000305176</ele>
        <time>2023-05-24T08:36:49.000Z</time>
      </trkpt>
      <trkpt lat="43.67257" lon="3.60386">
        <ele>119.80000305176</ele>
        <time>2023-05-24T08:36:55.000Z</time>
      </trkpt>
      <trkpt lat="43.67251" lon="3.60385">
        <ele>119</ele>
        <time>2023-05-24T08:37:01.000Z</time>
      </trkpt>
      <trkpt lat="43.6725" lon="3.60385">
        <ele>118.80000305176</ele>
        <time>2023-05-24T08:37:02.000Z</time>
      </trkpt>
      <trkpt lat="43.67245" lon="3.60384">
        <ele>118.19999694824</ele>
        <time>2023-05-24T08:37:07.000Z</time>
      </trkpt>
      <trkpt lat="43.67244" lon="3.60381">
        <ele>118.19999694824</ele>
        <time>2023-05-24T08:37:09.000Z</time>
      </trkpt>
      <trkpt lat="43.67242" lon="3.60376">
        <ele>118.40000152588</ele>
        <time>2023-05-24T08:37:12.000Z</time>
      </trkpt>
      <trkpt lat="43.67241" lon="3.60374">
        <ele>118</ele>
        <time>2023-05-24T08:37:15.000Z</time>
      </trkpt>
      <trkpt lat="43.67241" lon="3.60373">
        <ele>117.80000305176</ele>
        <time>2023-05-24T08:37:16.000Z</time>
      </trkpt>
      <trkpt lat="43.6724" lon="3.60371">
        <ele>117.40000152588</ele>
        <time>2023-05-24T08:37:18.000Z</time>
      </trkpt>
      <trkpt lat="43.6724" lon="3.6037">
        <ele>116.80000305176</ele>
        <time>2023-05-24T08:37:20.000Z</time>
      </trkpt>
      <trkpt lat="43.67237" lon="3.60359">
        <ele>116.59999847412</ele>
        <time>2023-05-24T08:37:27.000Z</time>
      </trkpt>
      <trkpt lat="43.67233" lon="3.60347">
        <ele>116.40000152588</ele>
        <time>2023-05-24T08:37:35.000Z</time>
      </trkpt>
      <trkpt lat="43.67229" lon="3.60335">
        <ele>117.80000305176</ele>
        <time>2023-05-24T08:37:44.000Z</time>
      </trkpt>
      <trkpt lat="43.67229" lon="3.60332">
        <ele>118</ele>
        <time>2023-05-24T08:37:46.000Z</time>
      </trkpt>
      <trkpt lat="43.67227" lon="3.60325">
        <ele>119</ele>
        <time>2023-05-24T08:37:52.000Z</time>
      </trkpt>
      <trkpt lat="43.67228" lon="3.6032">
        <ele>120</ele>
        <time>2023-05-24T08:37:56.000Z</time>
      </trkpt>
      <trkpt lat="43.67228" lon="3.60319">
        <ele>120.19999694824</ele>
        <time>2023-05-24T08:37:57.000Z</time>
      </trkpt>
      <trkpt lat="43.67227" lon="3.60315">
        <ele>120.59999847412</ele>
        <time>2023-05-24T08:38:00.000Z</time>
      </trkpt>
      <trkpt lat="43.67226" lon="3.60309">
        <ele>121.19999694824</ele>
        <time>2023-05-24T08:38:04.000Z</time>
      </trkpt>
      <trkpt lat="43.67223" lon="3.60301">
        <ele>122.19999694824</ele>
        <time>2023-05-24T08:38:09.000Z</time>
      </trkpt>
      <trkpt lat="43.67221" lon="3.60294">
        <ele>123.40000152588</ele>
        <time>2023-05-24T08:38:14.000Z</time>
      </trkpt>
      <trkpt lat="43.67219" lon="3.6029">
        <ele>123.80000305176</ele>
        <time>2023-05-24T08:38:17.000Z</time>
      </trkpt>
      <trkpt lat="43.67217" lon="3.60285">
        <ele>124.40000152588</ele>
        <time>2023-05-24T08:38:21.000Z</time>
      </trkpt>
      <trkpt lat="43.67214" lon="3.60276">
        <ele>125</ele>
        <time>2023-05-24T08:38:27.000Z</time>
      </trkpt>
      <trkpt lat="43.67212" lon="3.60271">
        <ele>125</ele>
        <time>2023-05-24T08:38:31.000Z</time>
      </trkpt>
      <trkpt lat="43.6721" lon="3.60267">
        <ele>125.40000152588</ele>
        <time>2023-05-24T08:38:34.000Z</time>
      </trkpt>
      <trkpt lat="43.67207" lon="3.60259">
        <ele>125.40000152588</ele>
        <time>2023-05-24T08:38:40.000Z</time>
      </trkpt>
      <trkpt lat="43.67204" lon="3.60251">
        <ele>125.80000305176</ele>
        <time>2023-05-24T08:38:46.000Z</time>
      </trkpt>
      <trkpt lat="43.67198" lon="3.6024">
        <ele>126.19999694824</ele>
        <time>2023-05-24T08:38:54.000Z</time>
      </trkpt>
      <trkpt lat="43.67193" lon="3.60231">
        <ele>126.40000152588</ele>
        <time>2023-05-24T08:39:02.000Z</time>
      </trkpt>
      <trkpt lat="43.67191" lon="3.60228">
        <ele>126.40000152588</ele>
        <time>2023-05-24T08:39:05.000Z</time>
      </trkpt>
      <trkpt lat="43.67185" lon="3.60221">
        <ele>126.59999847412</ele>
        <time>2023-05-24T08:39:12.000Z</time>
      </trkpt>
      <trkpt lat="43.67175" lon="3.60212">
        <ele>127</ele>
        <time>2023-05-24T08:39:22.000Z</time>
      </trkpt>
      <trkpt lat="43.67165" lon="3.60205">
        <ele>127.40000152588</ele>
        <time>2023-05-24T08:39:32.000Z</time>
      </trkpt>
      <trkpt lat="43.67157" lon="3.60199">
        <ele>127.59999847412</ele>
        <time>2023-05-24T08:39:40.000Z</time>
      </trkpt>
      <trkpt lat="43.67146" lon="3.60191">
        <ele>128</ele>
        <time>2023-05-24T08:39:51.000Z</time>
      </trkpt>
      <trkpt lat="43.67137" lon="3.60183">
        <ele>128.19999694824</ele>
        <time>2023-05-24T08:40:00.000Z</time>
      </trkpt>
      <trkpt lat="43.67128" lon="3.60175">
        <ele>128.39999389648</ele>
        <time>2023-05-24T08:40:09.000Z</time>
      </trkpt>
      <trkpt lat="43.67128" lon="3.60174">
        <ele>128.39999389648</ele>
        <time>2023-05-24T08:40:10.000Z</time>
      </trkpt>
      <trkpt lat="43.67122" lon="3.60163">
        <ele>129</ele>
        <time>2023-05-24T08:40:19.000Z</time>
      </trkpt>
      <trkpt lat="43.67118" lon="3.60151">
        <ele>129.39999389648</ele>
        <time>2023-05-24T08:40:28.000Z</time>
      </trkpt>
      <trkpt lat="43.67117" lon="3.60148">
        <ele>129.39999389648</ele>
        <time>2023-05-24T08:40:30.000Z</time>
      </trkpt>
      <trkpt lat="43.67118" lon="3.60134">
        <ele>129.80000305176</ele>
        <time>2023-05-24T08:40:39.000Z</time>
      </trkpt>
      <trkpt lat="43.6712" lon="3.60122">
        <ele>130.60000610352</ele>
        <time>2023-05-24T08:40:47.000Z</time>
      </trkpt>
      <trkpt lat="43.67123" lon="3.60107">
        <ele>131.19999694824</ele>
        <time>2023-05-24T08:40:57.000Z</time>
      </trkpt>
      <trkpt lat="43.67124" lon="3.60099">
        <ele>131.60000610352</ele>
        <time>2023-05-24T08:41:02.000Z</time>
      </trkpt>
      <trkpt lat="43.67125" lon="3.60093">
        <ele>132</ele>
        <time>2023-05-24T08:41:06.000Z</time>
      </trkpt>
      <trkpt lat="43.67127" lon="3.60076">
        <ele>132.60000610352</ele>
        <time>2023-05-24T08:41:17.000Z</time>
      </trkpt>
      <trkpt lat="43.67128" lon="3.60074">
        <ele>132.80000305176</ele>
        <time>2023-05-24T08:41:18.000Z</time>
      </trkpt>
      <trkpt lat="43.67129" lon="3.60063">
        <ele>133</ele>
        <time>2023-05-24T08:41:25.000Z</time>
      </trkpt>
      <trkpt lat="43.67131" lon="3.60056">
        <ele>133.39999389648</ele>
        <time>2023-05-24T08:41:30.000Z</time>
      </trkpt>
      <trkpt lat="43.67131" lon="3.60052">
        <ele>133.60000610352</ele>
        <time>2023-05-24T08:41:33.000Z</time>
      </trkpt>
      <trkpt lat="43.67131" lon="3.60049">
        <ele>133.60000610352</ele>
        <time>2023-05-24T08:41:35.000Z</time>
      </trkpt>
      <trkpt lat="43.67131" lon="3.60046">
        <ele>133.80000305176</ele>
        <time>2023-05-24T08:41:37.000Z</time>
      </trkpt>
      <trkpt lat="43.67132" lon="3.60035">
        <ele>134.19999694824</ele>
        <time>2023-05-24T08:41:44.000Z</time>
      </trkpt>
      <trkpt lat="43.67132" lon="3.60022">
        <ele>134.80000305176</ele>
        <time>2023-05-24T08:41:53.000Z</time>
      </trkpt>
      <trkpt lat="43.67132" lon="3.6002">
        <ele>134.80000305176</ele>
        <time>2023-05-24T08:41:54.000Z</time>
      </trkpt>
      <trkpt lat="43.67132" lon="3.60007">
        <ele>135</ele>
        <time>2023-05-24T08:42:03.000Z</time>
      </trkpt>
      <trkpt lat="43.67133" lon="3.59995">
        <ele>135.60000610352</ele>
        <time>2023-05-24T08:42:11.000Z</time>
      </trkpt>
      <trkpt lat="43.67133" lon="3.59992">
        <ele>135.80000305176</ele>
        <time>2023-05-24T08:42:13.000Z</time>
      </trkpt>
      <trkpt lat="43.67135" lon="3.5998">
        <ele>136</ele>
        <time>2023-05-24T08:42:21.000Z</time>
      </trkpt>
      <trkpt lat="43.67137" lon="3.59971">
        <ele>136</ele>
        <time>2023-05-24T08:42:27.000Z</time>
      </trkpt>
      <trkpt lat="43.6714" lon="3.59958">
        <ele>136.60000610352</ele>
        <time>2023-05-24T08:42:36.000Z</time>
      </trkpt>
      <trkpt lat="43.67141" lon="3.59953">
        <ele>136.80000305176</ele>
        <time>2023-05-24T08:42:40.000Z</time>
      </trkpt>
      <trkpt lat="43.67143" lon="3.59946">
        <ele>137</ele>
        <time>2023-05-24T08:42:45.000Z</time>
      </trkpt>
      <trkpt lat="43.67147" lon="3.59932">
        <ele>137.39999389648</ele>
        <time>2023-05-24T08:42:55.000Z</time>
      </trkpt>
      <trkpt lat="43.67149" lon="3.59922">
        <ele>137.80000305176</ele>
        <time>2023-05-24T08:43:02.000Z</time>
      </trkpt>
      <trkpt lat="43.67152" lon="3.59906">
        <ele>138.19999694824</ele>
        <time>2023-05-24T08:43:13.000Z</time>
      </trkpt>
      <trkpt lat="43.67154" lon="3.59898">
        <ele>138.39999389648</ele>
        <time>2023-05-24T08:43:19.000Z</time>
      </trkpt>
      <trkpt lat="43.67154" lon="3.59895">
        <ele>138.80000305176</ele>
        <time>2023-05-24T08:43:21.000Z</time>
      </trkpt>
      <trkpt lat="43.67155" lon="3.59894">
        <ele>138.80000305176</ele>
        <time>2023-05-24T08:43:22.000Z</time>
      </trkpt>
      <trkpt lat="43.67157" lon="3.59881">
        <ele>139.39999389648</ele>
        <time>2023-05-24T08:43:31.000Z</time>
      </trkpt>
      <trkpt lat="43.67159" lon="3.59868">
        <ele>139.80000305176</ele>
        <time>2023-05-24T08:43:40.000Z</time>
      </trkpt>
      <trkpt lat="43.67159" lon="3.59866">
        <ele>139.80000305176</ele>
        <time>2023-05-24T08:43:41.000Z</time>
      </trkpt>
      <trkpt lat="43.67161" lon="3.59851">
        <ele>140.39999389648</ele>
        <time>2023-05-24T08:43:51.000Z</time>
      </trkpt>
      <trkpt lat="43.67161" lon="3.59843">
        <ele>140.80000305176</ele>
        <time>2023-05-24T08:43:59.000Z</time>
      </trkpt>
      <trkpt lat="43.67161" lon="3.59842">
        <ele>141</ele>
        <time>2023-05-24T08:44:00.000Z</time>
      </trkpt>
      <trkpt lat="43.6716" lon="3.59835">
        <ele>141.19999694824</ele>
        <time>2023-05-24T08:44:05.000Z</time>
      </trkpt>
      <trkpt lat="43.6716" lon="3.59834">
        <ele>141.19999694824</ele>
        <time>2023-05-24T08:44:06.000Z</time>
      </trkpt>
      <trkpt lat="43.6716" lon="3.5983">
        <ele>141.39999389648</ele>
        <time>2023-05-24T08:44:09.000Z</time>
      </trkpt>
      <trkpt lat="43.67161" lon="3.59826">
        <ele>141.19999694824</ele>
        <time>2023-05-24T08:44:12.000Z</time>
      </trkpt>
      <trkpt lat="43.67162" lon="3.59811">
        <ele>141.60000610352</ele>
        <time>2023-05-24T08:44:22.000Z</time>
      </trkpt>
      <trkpt lat="43.67163" lon="3.59799">
        <ele>141.60000610352</ele>
        <time>2023-05-24T08:44:30.000Z</time>
      </trkpt>
      <trkpt lat="43.67165" lon="3.59785">
        <ele>141.80000305176</ele>
        <time>2023-05-24T08:44:40.000Z</time>
      </trkpt>
      <trkpt lat="43.67166" lon="3.59778">
        <ele>142</ele>
        <time>2023-05-24T08:44:45.000Z</time>
      </trkpt>
      <trkpt lat="43.67166" lon="3.59773">
        <ele>142</ele>
        <time>2023-05-24T08:44:48.000Z</time>
      </trkpt>
      <trkpt lat="43.67166" lon="3.59767">
        <ele>142</ele>
        <time>2023-05-24T08:44:53.000Z</time>
      </trkpt>
      <trkpt lat="43.67166" lon="3.59764">
        <ele>142.19999694824</ele>
        <time>2023-05-24T08:44:56.000Z</time>
      </trkpt>
      <trkpt lat="43.67166" lon="3.59764">
        <ele>142.60000610352</ele>
        <time>2023-05-24T08:45:02.000Z</time>
      </trkpt>
      <trkpt lat="43.67166" lon="3.59763">
        <ele>136</ele>
        <time>2023-05-24T08:45:11.000Z</time>
      </trkpt>
      <trkpt lat="43.67166" lon="3.59763">
        <ele>139.60000610352</ele>
        <time>2023-05-24T08:45:13.000Z</time>
      </trkpt>
      <trkpt lat="43.67166" lon="3.59763">
        <ele>139.80000305176</ele>
        <time>2023-05-24T08:45:15.000Z</time>
      </trkpt>
      <trkpt lat="43.67166" lon="3.59763">
        <ele>147.80000305176</ele>
        <time>2023-05-24T08:45:16.000Z</time>
      </trkpt>
      <trkpt lat="43.67166" lon="3.59763">
        <ele>142.60000610352</ele>
        <time>2023-05-24T08:45:18.000Z</time>
      </trkpt>
      <trkpt lat="43.67166" lon="3.59763">
        <ele>142.39999389648</ele>
        <time>2023-05-24T08:45:26.000Z</time>
      </trkpt>
      <trkpt lat="43.67167" lon="3.59763">
        <ele>142.39999389648</ele>
        <time>2023-05-24T08:45:36.000Z</time>
      </trkpt>
      <trkpt lat="43.67167" lon="3.59761">
        <ele>142.39999389648</ele>
        <time>2023-05-24T08:45:45.000Z</time>
      </trkpt>
      <trkpt lat="43.67169" lon="3.59753">
        <ele>142.60000610352</ele>
        <time>2023-05-24T08:45:53.000Z</time>
      </trkpt>
      <trkpt lat="43.67171" lon="3.59745">
        <ele>142.39999389648</ele>
        <time>2023-05-24T08:45:58.000Z</time>
      </trkpt>
      <trkpt lat="43.67172" lon="3.59737">
        <ele>142.60000610352</ele>
        <time>2023-05-24T08:46:04.000Z</time>
      </trkpt>
      <trkpt lat="43.67175" lon="3.59716">
        <ele>143.19999694824</ele>
        <time>2023-05-24T08:46:17.000Z</time>
      </trkpt>
      <trkpt lat="43.67177" lon="3.59696">
        <ele>143.19999694824</ele>
        <time>2023-05-24T08:46:29.000Z</time>
      </trkpt>
      <trkpt lat="43.67181" lon="3.5968">
        <ele>143.39999389648</ele>
        <time>2023-05-24T08:46:39.000Z</time>
      </trkpt>
      <trkpt lat="43.67187" lon="3.59665">
        <ele>143.39999389648</ele>
        <time>2023-05-24T08:46:49.000Z</time>
      </trkpt>
      <trkpt lat="43.67193" lon="3.59655">
        <ele>143.39999389648</ele>
        <time>2023-05-24T08:46:57.000Z</time>
      </trkpt>
      <trkpt lat="43.67199" lon="3.59647">
        <ele>143.39999389648</ele>
        <time>2023-05-24T08:47:05.000Z</time>
      </trkpt>
      <trkpt lat="43.6721" lon="3.59639">
        <ele>143.19999694824</ele>
        <time>2023-05-24T08:47:15.000Z</time>
      </trkpt>
      <trkpt lat="43.67223" lon="3.59636">
        <ele>142.80000305176</ele>
        <time>2023-05-24T08:47:26.000Z</time>
      </trkpt>
      <trkpt lat="43.67238" lon="3.59636">
        <ele>142.39999389648</ele>
        <time>2023-05-24T08:47:39.000Z</time>
      </trkpt>
      <trkpt lat="43.6725" lon="3.59636">
        <ele>142.60000610352</ele>
        <time>2023-05-24T08:47:49.000Z</time>
      </trkpt>
      <trkpt lat="43.67252" lon="3.59637">
        <ele>140.80000305176</ele>
        <time>2023-05-24T08:47:51.000Z</time>
      </trkpt>
      <trkpt lat="43.67254" lon="3.59637">
        <ele>139.19999694824</ele>
        <time>2023-05-24T08:47:53.000Z</time>
      </trkpt>
      <trkpt lat="43.67256" lon="3.59637">
        <ele>137.80000305176</ele>
        <time>2023-05-24T08:47:54.000Z</time>
      </trkpt>
      <trkpt lat="43.67257" lon="3.59637">
        <ele>136.80000305176</ele>
        <time>2023-05-24T08:47:55.000Z</time>
      </trkpt>
      <trkpt lat="43.67258" lon="3.59637">
        <ele>138.39999389648</ele>
        <time>2023-05-24T08:47:56.000Z</time>
      </trkpt>
      <trkpt lat="43.67259" lon="3.59637">
        <ele>136.80000305176</ele>
        <time>2023-05-24T08:47:57.000Z</time>
      </trkpt>
      <trkpt lat="43.67261" lon="3.59637">
        <ele>135</ele>
        <time>2023-05-24T08:47:58.000Z</time>
      </trkpt>
      <trkpt lat="43.67262" lon="3.59637">
        <ele>136.19999694824</ele>
        <time>2023-05-24T08:47:59.000Z</time>
      </trkpt>
      <trkpt lat="43.67263" lon="3.59637">
        <ele>137.39999389648</ele>
        <time>2023-05-24T08:48:00.000Z</time>
      </trkpt>
      <trkpt lat="43.67264" lon="3.59637">
        <ele>138.60000610352</ele>
        <time>2023-05-24T08:48:01.000Z</time>
      </trkpt>
      <trkpt lat="43.67273" lon="3.59638">
        <ele>137.80000305176</ele>
        <time>2023-05-24T08:48:08.000Z</time>
      </trkpt>
      <trkpt lat="43.67278" lon="3.59638">
        <ele>138</ele>
        <time>2023-05-24T08:48:15.000Z</time>
      </trkpt>
      <trkpt lat="43.6728" lon="3.59638">
        <ele>138.39999389648</ele>
        <time>2023-05-24T08:48:18.000Z</time>
      </trkpt>
      <trkpt lat="43.67282" lon="3.59635">
        <ele>138.39999389648</ele>
        <time>2023-05-24T08:48:22.000Z</time>
      </trkpt>
      <trkpt lat="43.67282" lon="3.59633">
        <ele>138.80000305176</ele>
        <time>2023-05-24T08:48:28.000Z</time>
      </trkpt>
      <trkpt lat="43.67283" lon="3.59633">
        <ele>139</ele>
        <time>2023-05-24T08:48:35.000Z</time>
      </trkpt>
      <trkpt lat="43.67283" lon="3.59628">
        <ele>139.39999389648</ele>
        <time>2023-05-24T08:48:42.000Z</time>
      </trkpt>
      <trkpt lat="43.67283" lon="3.59627">
        <ele>139.39999389648</ele>
        <time>2023-05-24T08:48:50.000Z</time>
      </trkpt>
      <trkpt lat="43.67283" lon="3.59627">
        <ele>139.60000610352</ele>
        <time>2023-05-24T08:48:51.000Z</time>
      </trkpt>
      <trkpt lat="43.67283" lon="3.59626">
        <ele>140.19999694824</ele>
        <time>2023-05-24T08:49:02.000Z</time>
      </trkpt>
      <trkpt lat="43.67283" lon="3.5963">
        <ele>140.19999694824</ele>
        <time>2023-05-24T08:49:09.000Z</time>
      </trkpt>
      <trkpt lat="43.67283" lon="3.59632">
        <ele>140.60000610352</ele>
        <time>2023-05-24T08:49:16.000Z</time>
      </trkpt>
      <trkpt lat="43.67282" lon="3.59632">
        <ele>140.80000305176</ele>
        <time>2023-05-24T08:49:19.000Z</time>
      </trkpt>
      <trkpt lat="43.67282" lon="3.59633">
        <ele>140.60000610352</ele>
        <time>2023-05-24T08:49:23.000Z</time>
      </trkpt>
      <trkpt lat="43.67285" lon="3.59638">
        <ele>140.80000305176</ele>
        <time>2023-05-24T08:49:30.000Z</time>
      </trkpt>
      <trkpt lat="43.6729" lon="3.59638">
        <ele>140.60000610352</ele>
        <time>2023-05-24T08:49:37.000Z</time>
      </trkpt>
      <trkpt lat="43.67296" lon="3.59645">
        <ele>140.19999694824</ele>
        <time>2023-05-24T08:49:45.000Z</time>
      </trkpt>
      <trkpt lat="43.673" lon="3.59646">
        <ele>140.19999694824</ele>
        <time>2023-05-24T08:49:50.000Z</time>
      </trkpt>
      <trkpt lat="43.67301" lon="3.59647">
        <ele>140.19999694824</ele>
        <time>2023-05-24T08:49:52.000Z</time>
      </trkpt>
      <trkpt lat="43.67302" lon="3.5965">
        <ele>140</ele>
        <time>2023-05-24T08:49:58.000Z</time>
      </trkpt>
      <trkpt lat="43.67302" lon="3.5965">
        <ele>139.60000610352</ele>
        <time>2023-05-24T08:50:01.000Z</time>
      </trkpt>
      <trkpt lat="43.67302" lon="3.59649">
        <ele>141.80000305176</ele>
        <time>2023-05-24T08:50:03.000Z</time>
      </trkpt>
      <trkpt lat="43.67302" lon="3.59649">
        <ele>144.19999694824</ele>
        <time>2023-05-24T08:50:04.000Z</time>
      </trkpt>
      <trkpt lat="43.67301" lon="3.59645">
        <ele>144.60000610352</ele>
        <time>2023-05-24T08:50:08.000Z</time>
      </trkpt>
      <trkpt lat="43.673" lon="3.59643">
        <ele>142.60000610352</ele>
        <time>2023-05-24T08:50:10.000Z</time>
      </trkpt>
      <trkpt lat="43.67299" lon="3.59642">
        <ele>140</ele>
        <time>2023-05-24T08:50:11.000Z</time>
      </trkpt>
      <trkpt lat="43.67296" lon="3.59641">
        <ele>139.80000305176</ele>
        <time>2023-05-24T08:50:14.000Z</time>
      </trkpt>
      <trkpt lat="43.67287" lon="3.59637">
        <ele>140.19999694824</ele>
        <time>2023-05-24T08:50:23.000Z</time>
      </trkpt>
      <trkpt lat="43.67285" lon="3.59636">
        <ele>140.19999694824</ele>
        <time>2023-05-24T08:50:25.000Z</time>
      </trkpt>
      <trkpt lat="43.67283" lon="3.59631">
        <ele>140.39999389648</ele>
        <time>2023-05-24T08:50:29.000Z</time>
      </trkpt>
      <trkpt lat="43.67288" lon="3.59628">
        <ele>140.39999389648</ele>
        <time>2023-05-24T08:50:35.000Z</time>
      </trkpt>
      <trkpt lat="43.6729" lon="3.59627">
        <ele>139.60000610352</ele>
        <time>2023-05-24T08:50:41.000Z</time>
      </trkpt>
      <trkpt lat="43.67285" lon="3.59628">
        <ele>139.80000305176</ele>
        <time>2023-05-24T08:50:48.000Z</time>
      </trkpt>
      <trkpt lat="43.67284" lon="3.59628">
        <ele>138.80000305176</ele>
        <time>2023-05-24T08:50:49.000Z</time>
      </trkpt>
      <trkpt lat="43.67284" lon="3.59628">
        <ele>137.80000305176</ele>
        <time>2023-05-24T08:50:50.000Z</time>
      </trkpt>
      <trkpt lat="43.67279" lon="3.59629">
        <ele>138.80000305176</ele>
        <time>2023-05-24T08:50:55.000Z</time>
      </trkpt>
      <trkpt lat="43.67277" lon="3.59628">
        <ele>140.39999389648</ele>
        <time>2023-05-24T08:50:57.000Z</time>
      </trkpt>
      <trkpt lat="43.67275" lon="3.59628">
        <ele>139.19999694824</ele>
        <time>2023-05-24T08:50:58.000Z</time>
      </trkpt>
      <trkpt lat="43.67275" lon="3.59628">
        <ele>140.19999694824</ele>
        <time>2023-05-24T08:50:59.000Z</time>
      </trkpt>
      <trkpt lat="43.67266" lon="3.59628">
        <ele>139.39999389648</ele>
        <time>2023-05-24T08:51:07.000Z</time>
      </trkpt>
      <trkpt lat="43.67261" lon="3.59627">
        <ele>139.19999694824</ele>
        <time>2023-05-24T08:51:15.000Z</time>
      </trkpt>
      <trkpt lat="43.67257" lon="3.59626">
        <ele>139.39999389648</ele>
        <time>2023-05-24T08:51:23.000Z</time>
      </trkpt>
      <trkpt lat="43.67257" lon="3.59625">
        <ele>140.39999389648</ele>
        <time>2023-05-24T08:51:34.000Z</time>
      </trkpt>
      <trkpt lat="43.67258" lon="3.59627">
        <ele>141</ele>
        <time>2023-05-24T08:51:44.000Z</time>
      </trkpt>
      <trkpt lat="43.67265" lon="3.59628">
        <ele>140.80000305176</ele>
        <time>2023-05-24T08:51:50.000Z</time>
      </trkpt>
      <trkpt lat="43.67274" lon="3.59629">
        <ele>140.60000610352</ele>
        <time>2023-05-24T08:51:58.000Z</time>
      </trkpt>
      <trkpt lat="43.67281" lon="3.59632">
        <ele>136.80000305176</ele>
        <time>2023-05-24T08:52:05.000Z</time>
      </trkpt>
      <trkpt lat="43.67283" lon="3.59634">
        <ele>138.60000610352</ele>
        <time>2023-05-24T08:52:07.000Z</time>
      </trkpt>
      <trkpt lat="43.67284" lon="3.59637">
        <ele>138.39999389648</ele>
        <time>2023-05-24T08:52:10.000Z</time>
      </trkpt>
      <trkpt lat="43.67286" lon="3.59638">
        <ele>138.60000610352</ele>
        <time>2023-05-24T08:52:12.000Z</time>
      </trkpt>
      <trkpt lat="43.67295" lon="3.59639">
        <ele>138.39999389648</ele>
        <time>2023-05-24T08:52:20.000Z</time>
      </trkpt>
      <trkpt lat="43.67304" lon="3.5964">
        <ele>137.60000610352</ele>
        <time>2023-05-24T08:52:29.000Z</time>
      </trkpt>
      <trkpt lat="43.67308" lon="3.5964">
        <ele>137.39999389648</ele>
        <time>2023-05-24T08:52:34.000Z</time>
      </trkpt>
      <trkpt lat="43.6731" lon="3.59641">
        <ele>137</ele>
        <time>2023-05-24T08:52:36.000Z</time>
      </trkpt>
      <trkpt lat="43.67317" lon="3.59641">
        <ele>136.39999389648</ele>
        <time>2023-05-24T08:52:43.000Z</time>
      </trkpt>
      <trkpt lat="43.67318" lon="3.59641">
        <ele>136.39999389648</ele>
        <time>2023-05-24T08:52:44.000Z</time>
      </trkpt>
      <trkpt lat="43.67324" lon="3.59641">
        <ele>136.60000610352</ele>
        <time>2023-05-24T08:52:51.000Z</time>
      </trkpt>
      <trkpt lat="43.67325" lon="3.5964">
        <ele>137.19999694824</ele>
        <time>2023-05-24T08:53:00.000Z</time>
      </trkpt>
      <trkpt lat="43.67331" lon="3.59641">
        <ele>136.60000610352</ele>
        <time>2023-05-24T08:53:06.000Z</time>
      </trkpt>
      <trkpt lat="43.6734" lon="3.59641">
        <ele>135.60000610352</ele>
        <time>2023-05-24T08:53:15.000Z</time>
      </trkpt>
      <trkpt lat="43.6735" lon="3.59642">
        <ele>136.39999389648</ele>
        <time>2023-05-24T08:53:23.000Z</time>
      </trkpt>
      <trkpt lat="43.6736" lon="3.59642">
        <ele>137.19999694824</ele>
        <time>2023-05-24T08:53:31.000Z</time>
      </trkpt>
      <trkpt lat="43.67369" lon="3.59643">
        <ele>137.19999694824</ele>
        <time>2023-05-24T08:53:39.000Z</time>
      </trkpt>
      <trkpt lat="43.67377" lon="3.59644">
        <ele>137</ele>
        <time>2023-05-24T08:53:46.000Z</time>
      </trkpt>
      <trkpt lat="43.67386" lon="3.59645">
        <ele>136.60000610352</ele>
        <time>2023-05-24T08:53:54.000Z</time>
      </trkpt>
      <trkpt lat="43.67395" lon="3.59648">
        <ele>136.39999389648</ele>
        <time>2023-05-24T08:54:02.000Z</time>
      </trkpt>
      <trkpt lat="43.67407" lon="3.59652">
        <ele>136</ele>
        <time>2023-05-24T08:54:13.000Z</time>
      </trkpt>
      <trkpt lat="43.67418" lon="3.59658">
        <ele>135.60000610352</ele>
        <time>2023-05-24T08:54:23.000Z</time>
      </trkpt>
      <trkpt lat="43.67426" lon="3.59663">
        <ele>135.39999389648</ele>
        <time>2023-05-24T08:54:30.000Z</time>
      </trkpt>
      <trkpt lat="43.67428" lon="3.59665">
        <ele>135.19999694824</ele>
        <time>2023-05-24T08:54:33.000Z</time>
      </trkpt>
      <trkpt lat="43.67438" lon="3.59672">
        <ele>134.80000305176</ele>
        <time>2023-05-24T08:54:43.000Z</time>
      </trkpt>
      <trkpt lat="43.67446" lon="3.59678">
        <ele>134.39999389648</ele>
        <time>2023-05-24T08:54:51.000Z</time>
      </trkpt>
      <trkpt lat="43.67448" lon="3.59679">
        <ele>134.19999694824</ele>
        <time>2023-05-24T08:54:54.000Z</time>
      </trkpt>
      <trkpt lat="43.6745" lon="3.5968">
        <ele>134.19999694824</ele>
        <time>2023-05-24T08:54:55.000Z</time>
      </trkpt>
      <trkpt lat="43.67451" lon="3.59681">
        <ele>134.19999694824</ele>
        <time>2023-05-24T08:54:57.000Z</time>
      </trkpt>
      <trkpt lat="43.67455" lon="3.59684">
        <ele>134</ele>
        <time>2023-05-24T08:55:01.000Z</time>
      </trkpt>
      <trkpt lat="43.67459" lon="3.59688">
        <ele>133.80000305176</ele>
        <time>2023-05-24T08:55:05.000Z</time>
      </trkpt>
      <trkpt lat="43.67466" lon="3.59693">
        <ele>133.60000610352</ele>
        <time>2023-05-24T08:55:13.000Z</time>
      </trkpt>
      <trkpt lat="43.6747" lon="3.59695">
        <ele>133.39999389648</ele>
        <time>2023-05-24T08:55:19.000Z</time>
      </trkpt>
      <trkpt lat="43.67473" lon="3.59697">
        <ele>133.19999694824</ele>
        <time>2023-05-24T08:55:22.000Z</time>
      </trkpt>
      <trkpt lat="43.67479" lon="3.59703">
        <ele>133</ele>
        <time>2023-05-24T08:55:28.000Z</time>
      </trkpt>
      <trkpt lat="43.67488" lon="3.59709">
        <ele>132.39999389648</ele>
        <time>2023-05-24T08:55:36.000Z</time>
      </trkpt>
      <trkpt lat="43.67492" lon="3.59712">
        <ele>132.19999694824</ele>
        <time>2023-05-24T08:55:39.000Z</time>
      </trkpt>
      <trkpt lat="43.67499" lon="3.59716">
        <ele>132</ele>
        <time>2023-05-24T08:55:45.000Z</time>
      </trkpt>
      <trkpt lat="43.67511" lon="3.59721">
        <ele>131.39999389648</ele>
        <time>2023-05-24T08:55:54.000Z</time>
      </trkpt>
      <trkpt lat="43.67514" lon="3.59723">
        <ele>131.19999694824</ele>
        <time>2023-05-24T08:55:57.000Z</time>
      </trkpt>
      <trkpt lat="43.67518" lon="3.59725">
        <ele>131</ele>
        <time>2023-05-24T08:56:00.000Z</time>
      </trkpt>
      <trkpt lat="43.67523" lon="3.59728">
        <ele>130.60000610352</ele>
        <time>2023-05-24T08:56:07.000Z</time>
      </trkpt>
      <trkpt lat="43.67528" lon="3.59734">
        <ele>130.39999389648</ele>
        <time>2023-05-24T08:56:13.000Z</time>
      </trkpt>
      <trkpt lat="43.67534" lon="3.59735">
        <ele>130.19999694824</ele>
        <time>2023-05-24T08:56:18.000Z</time>
      </trkpt>
      <trkpt lat="43.67537" lon="3.59736">
        <ele>130</ele>
        <time>2023-05-24T08:56:20.000Z</time>
      </trkpt>
      <trkpt lat="43.67537" lon="3.59736">
        <ele>130</ele>
        <time>2023-05-24T08:56:21.000Z</time>
      </trkpt>
      <trkpt lat="43.67541" lon="3.59734">
        <ele>130</ele>
        <time>2023-05-24T08:56:25.000Z</time>
      </trkpt>
      <trkpt lat="43.67552" lon="3.59731">
        <ele>129.39999389648</ele>
        <time>2023-05-24T08:56:34.000Z</time>
      </trkpt>
      <trkpt lat="43.67559" lon="3.59731">
        <ele>129.19999694824</ele>
        <time>2023-05-24T08:56:40.000Z</time>
      </trkpt>
      <trkpt lat="43.67565" lon="3.59731">
        <ele>129</ele>
        <time>2023-05-24T08:56:44.000Z</time>
      </trkpt>
      <trkpt lat="43.67575" lon="3.59732">
        <ele>128.60000610352</ele>
        <time>2023-05-24T08:56:52.000Z</time>
      </trkpt>
      <trkpt lat="43.67585" lon="3.59732">
        <ele>128.39999389648</ele>
        <time>2023-05-24T08:57:00.000Z</time>
      </trkpt>
      <trkpt lat="43.67592" lon="3.59732">
        <ele>128.19999694824</ele>
        <time>2023-05-24T08:57:05.000Z</time>
      </trkpt>
      <trkpt lat="43.67598" lon="3.59732">
        <ele>128</ele>
        <time>2023-05-24T08:57:10.000Z</time>
      </trkpt>
      <trkpt lat="43.67609" lon="3.59733">
        <ele>127.59999847412</ele>
        <time>2023-05-24T08:57:19.000Z</time>
      </trkpt>
      <trkpt lat="43.67618" lon="3.59733">
        <ele>127.40000152588</ele>
        <time>2023-05-24T08:57:26.000Z</time>
      </trkpt>
      <trkpt lat="43.67627" lon="3.59733">
        <ele>127.19999694824</ele>
        <time>2023-05-24T08:57:33.000Z</time>
      </trkpt>
      <trkpt lat="43.67632" lon="3.59733">
        <ele>127</ele>
        <time>2023-05-24T08:57:37.000Z</time>
      </trkpt>
      <trkpt lat="43.67644" lon="3.59734">
        <ele>126.59999847412</ele>
        <time>2023-05-24T08:57:46.000Z</time>
      </trkpt>
      <trkpt lat="43.67655" lon="3.59735">
        <ele>126.19999694824</ele>
        <time>2023-05-24T08:57:55.000Z</time>
      </trkpt>
      <trkpt lat="43.67657" lon="3.59735">
        <ele>126.19999694824</ele>
        <time>2023-05-24T08:57:57.000Z</time>
      </trkpt>
      <trkpt lat="43.67665" lon="3.59735">
        <ele>125.80000305176</ele>
        <time>2023-05-24T08:58:03.000Z</time>
      </trkpt>
      <trkpt lat="43.67676" lon="3.59736">
        <ele>125.40000152588</ele>
        <time>2023-05-24T08:58:12.000Z</time>
      </trkpt>
      <trkpt lat="43.67681" lon="3.59737">
        <ele>125</ele>
        <time>2023-05-24T08:58:16.000Z</time>
      </trkpt>
      <trkpt lat="43.67688" lon="3.59737">
        <ele>124.80000305176</ele>
        <time>2023-05-24T08:58:22.000Z</time>
      </trkpt>
      <trkpt lat="43.67702" lon="3.59738">
        <ele>124.19999694824</ele>
        <time>2023-05-24T08:58:33.000Z</time>
      </trkpt>
      <trkpt lat="43.6771" lon="3.59739">
        <ele>124</ele>
        <time>2023-05-24T08:58:39.000Z</time>
      </trkpt>
      <trkpt lat="43.67716" lon="3.59739">
        <ele>123.80000305176</ele>
        <time>2023-05-24T08:58:44.000Z</time>
      </trkpt>
      <trkpt lat="43.67727" lon="3.59741">
        <ele>123.40000152588</ele>
        <time>2023-05-24T08:58:53.000Z</time>
      </trkpt>
      <trkpt lat="43.67735" lon="3.59741">
        <ele>123.19999694824</ele>
        <time>2023-05-24T08:59:00.000Z</time>
      </trkpt>
      <trkpt lat="43.67739" lon="3.59741">
        <ele>123</ele>
        <time>2023-05-24T08:59:03.000Z</time>
      </trkpt>
      <trkpt lat="43.67746" lon="3.59741">
        <ele>122.59999847412</ele>
        <time>2023-05-24T08:59:09.000Z</time>
      </trkpt>
      <trkpt lat="43.67756" lon="3.59742">
        <ele>122.19999694824</ele>
        <time>2023-05-24T08:59:17.000Z</time>
      </trkpt>
      <trkpt lat="43.67765" lon="3.59742">
        <ele>122</ele>
        <time>2023-05-24T08:59:24.000Z</time>
      </trkpt>
      <trkpt lat="43.67768" lon="3.59742">
        <ele>121.80000305176</ele>
        <time>2023-05-24T08:59:26.000Z</time>
      </trkpt>
      <trkpt lat="43.67783" lon="3.59743">
        <ele>121.40000152588</ele>
        <time>2023-05-24T08:59:38.000Z</time>
      </trkpt>
      <trkpt lat="43.67791" lon="3.59743">
        <ele>121</ele>
        <time>2023-05-24T08:59:45.000Z</time>
      </trkpt>
      <trkpt lat="43.67791" lon="3.59743">
        <ele>121</ele>
        <time>2023-05-24T08:59:47.000Z</time>
      </trkpt>
      <trkpt lat="43.67792" lon="3.59744">
        <ele>121.40000152588</ele>
        <time>2023-05-24T09:00:00.000Z</time>
      </trkpt>
      <trkpt lat="43.678" lon="3.59745">
        <ele>121</ele>
        <time>2023-05-24T09:00:08.000Z</time>
      </trkpt>
      <trkpt lat="43.67813" lon="3.59745">
        <ele>120.40000152588</ele>
        <time>2023-05-24T09:00:18.000Z</time>
      </trkpt>
      <trkpt lat="43.67824" lon="3.59748">
        <ele>120</ele>
        <time>2023-05-24T09:00:27.000Z</time>
      </trkpt>
      <trkpt lat="43.67832" lon="3.59751">
        <ele>119.80000305176</ele>
        <time>2023-05-24T09:00:35.000Z</time>
      </trkpt>
      <trkpt lat="43.67833" lon="3.59752">
        <ele>119.80000305176</ele>
        <time>2023-05-24T09:00:36.000Z</time>
      </trkpt>
      <trkpt lat="43.67836" lon="3.59755">
        <ele>119.59999847412</ele>
        <time>2023-05-24T09:00:40.000Z</time>
      </trkpt>
      <trkpt lat="43.67841" lon="3.59764">
        <ele>119.19999694824</ele>
        <time>2023-05-24T09:00:47.000Z</time>
      </trkpt>
      <trkpt lat="43.67845" lon="3.59772">
        <ele>119</ele>
        <time>2023-05-24T09:00:53.000Z</time>
      </trkpt>
      <trkpt lat="43.67847" lon="3.59777">
        <ele>118.80000305176</ele>
        <time>2023-05-24T09:00:56.000Z</time>
      </trkpt>
      <trkpt lat="43.67846" lon="3.59776">
        <ele>118.80000305176</ele>
        <time>2023-05-24T09:00:57.000Z</time>
      </trkpt>
      <trkpt lat="43.67847" lon="3.59777">
        <ele>120.19999694824</ele>
        <time>2023-05-24T09:00:59.000Z</time>
      </trkpt>
      <trkpt lat="43.67848" lon="3.59781">
        <ele>120.19999694824</ele>
        <time>2023-05-24T09:01:03.000Z</time>
      </trkpt>
      <trkpt lat="43.67849" lon="3.59788">
        <ele>118.80000305176</ele>
        <time>2023-05-24T09:01:07.000Z</time>
      </trkpt>
      <trkpt lat="43.67849" lon="3.59791">
        <ele>117.19999694824</ele>
        <time>2023-05-24T09:01:09.000Z</time>
      </trkpt>
      <trkpt lat="43.67849" lon="3.59794">
        <ele>114.59999847412</ele>
        <time>2023-05-24T09:01:11.000Z</time>
      </trkpt>
      <trkpt lat="43.67849" lon="3.59796">
        <ele>112.40000152588</ele>
        <time>2023-05-24T09:01:12.000Z</time>
      </trkpt>
      <trkpt lat="43.67849" lon="3.59798">
        <ele>111.19999694824</ele>
        <time>2023-05-24T09:01:13.000Z</time>
      </trkpt>
      <trkpt lat="43.67849" lon="3.59799">
        <ele>109</ele>
        <time>2023-05-24T09:01:14.000Z</time>
      </trkpt>
      <trkpt lat="43.67849" lon="3.59801">
        <ele>108</ele>
        <time>2023-05-24T09:01:15.000Z</time>
      </trkpt>
      <trkpt lat="43.67849" lon="3.59808">
        <ele>107.40000152588</ele>
        <time>2023-05-24T09:01:20.000Z</time>
      </trkpt>
      <trkpt lat="43.67848" lon="3.5981">
        <ele>107</ele>
        <time>2023-05-24T09:01:21.000Z</time>
      </trkpt>
      <trkpt lat="43.67848" lon="3.59811">
        <ele>105.40000152588</ele>
        <time>2023-05-24T09:01:22.000Z</time>
      </trkpt>
      <trkpt lat="43.67848" lon="3.59813">
        <ele>106.80000305176</ele>
        <time>2023-05-24T09:01:23.000Z</time>
      </trkpt>
      <trkpt lat="43.67848" lon="3.59824">
        <ele>106</ele>
        <time>2023-05-24T09:01:30.000Z</time>
      </trkpt>
      <trkpt lat="43.67851" lon="3.59841">
        <ele>106.19999694824</ele>
        <time>2023-05-24T09:01:40.000Z</time>
      </trkpt>
      <trkpt lat="43.67855" lon="3.5985">
        <ele>107</ele>
        <time>2023-05-24T09:01:49.000Z</time>
      </trkpt>
      <trkpt lat="43.67859" lon="3.59855">
        <ele>107.59999847412</ele>
        <time>2023-05-24T09:01:55.000Z</time>
      </trkpt>
      <trkpt lat="43.67867" lon="3.59862">
        <ele>107.19999694824</ele>
        <time>2023-05-24T09:02:03.000Z</time>
      </trkpt>
      <trkpt lat="43.67878" lon="3.59868">
        <ele>107.40000152588</ele>
        <time>2023-05-24T09:02:13.000Z</time>
      </trkpt>
      <trkpt lat="43.67886" lon="3.59868">
        <ele>107.80000305176</ele>
        <time>2023-05-24T09:02:19.000Z</time>
      </trkpt>
      <trkpt lat="43.67889" lon="3.59868">
        <ele>108</ele>
        <time>2023-05-24T09:02:22.000Z</time>
      </trkpt>
      <trkpt lat="43.67899" lon="3.59864">
        <ele>108.59999847412</ele>
        <time>2023-05-24T09:02:30.000Z</time>
      </trkpt>
      <trkpt lat="43.67901" lon="3.59863">
        <ele>108.80000305176</ele>
        <time>2023-05-24T09:02:32.000Z</time>
      </trkpt>
      <trkpt lat="43.67908" lon="3.59854">
        <ele>109.19999694824</ele>
        <time>2023-05-24T09:02:40.000Z</time>
      </trkpt>
      <trkpt lat="43.67913" lon="3.59845">
        <ele>109.80000305176</ele>
        <time>2023-05-24T09:02:47.000Z</time>
      </trkpt>
      <trkpt lat="43.67914" lon="3.5984">
        <ele>110</ele>
        <time>2023-05-24T09:02:50.000Z</time>
      </trkpt>
      <trkpt lat="43.67917" lon="3.59826">
        <ele>110.59999847412</ele>
        <time>2023-05-24T09:02:59.000Z</time>
      </trkpt>
      <trkpt lat="43.67917" lon="3.59821">
        <ele>110.80000305176</ele>
        <time>2023-05-24T09:03:02.000Z</time>
      </trkpt>
      <trkpt lat="43.67918" lon="3.59811">
        <ele>111</ele>
        <time>2023-05-24T09:03:08.000Z</time>
      </trkpt>
      <trkpt lat="43.67918" lon="3.59801">
        <ele>110.80000305176</ele>
        <time>2023-05-24T09:03:14.000Z</time>
      </trkpt>
      <trkpt lat="43.67917" lon="3.59783">
        <ele>109.80000305176</ele>
        <time>2023-05-24T09:03:24.000Z</time>
      </trkpt>
      <trkpt lat="43.67917" lon="3.59781">
        <ele>109.80000305176</ele>
        <time>2023-05-24T09:03:25.000Z</time>
      </trkpt>
      <trkpt lat="43.67917" lon="3.59769">
        <ele>109.19999694824</ele>
        <time>2023-05-24T09:03:32.000Z</time>
      </trkpt>
      <trkpt lat="43.67917" lon="3.5976">
        <ele>108.80000305176</ele>
        <time>2023-05-24T09:03:38.000Z</time>
      </trkpt>
      <trkpt lat="43.67917" lon="3.59757">
        <ele>108.59999847412</ele>
        <time>2023-05-24T09:03:40.000Z</time>
      </trkpt>
      <trkpt lat="43.67918" lon="3.59746">
        <ele>108.40000152588</ele>
        <time>2023-05-24T09:03:48.000Z</time>
      </trkpt>
      <trkpt lat="43.67918" lon="3.59742">
        <ele>108.19999694824</ele>
        <time>2023-05-24T09:03:51.000Z</time>
      </trkpt>
      <trkpt lat="43.67918" lon="3.59738">
        <ele>107.80000305176</ele>
        <time>2023-05-24T09:03:54.000Z</time>
      </trkpt>
      <trkpt lat="43.67918" lon="3.59736">
        <ele>107.59999847412</ele>
        <time>2023-05-24T09:03:55.000Z</time>
      </trkpt>
      <trkpt lat="43.67918" lon="3.5973">
        <ele>107.40000152588</ele>
        <time>2023-05-24T09:03:59.000Z</time>
      </trkpt>
      <trkpt lat="43.67918" lon="3.59727">
        <ele>107.40000152588</ele>
        <time>2023-05-24T09:04:01.000Z</time>
      </trkpt>
      <trkpt lat="43.67918" lon="3.59726">
        <ele>107.19999694824</ele>
        <time>2023-05-24T09:04:02.000Z</time>
      </trkpt>
      <trkpt lat="43.67918" lon="3.59715">
        <ele>112.19999694824</ele>
        <time>2023-05-24T09:04:09.000Z</time>
      </trkpt>
      <trkpt lat="43.67918" lon="3.59714">
        <ele>116.59999847412</ele>
        <time>2023-05-24T09:04:10.000Z</time>
      </trkpt>
      <trkpt lat="43.67918" lon="3.59712">
        <ele>119.80000305176</ele>
        <time>2023-05-24T09:04:11.000Z</time>
      </trkpt>
      <trkpt lat="43.67918" lon="3.5971">
        <ele>124.40000152588</ele>
        <time>2023-05-24T09:04:12.000Z</time>
      </trkpt>
      <trkpt lat="43.67918" lon="3.59708">
        <ele>126.80000305176</ele>
        <time>2023-05-24T09:04:13.000Z</time>
      </trkpt>
      <trkpt lat="43.67918" lon="3.59706">
        <ele>122.19999694824</ele>
        <time>2023-05-24T09:04:14.000Z</time>
      </trkpt>
      <trkpt lat="43.67918" lon="3.59705">
        <ele>119.59999847412</ele>
        <time>2023-05-24T09:04:15.000Z</time>
      </trkpt>
      <trkpt lat="43.67918" lon="3.59703">
        <ele>119.19999694824</ele>
        <time>2023-05-24T09:04:17.000Z</time>
      </trkpt>
      <trkpt lat="43.67919" lon="3.59695">
        <ele>118.59999847412</ele>
        <time>2023-05-24T09:04:24.000Z</time>
      </trkpt>
      <trkpt lat="43.67919" lon="3.59694">
        <ele>118.59999847412</ele>
        <time>2023-05-24T09:04:25.000Z</time>
      </trkpt>
      <trkpt lat="43.67918" lon="3.59692">
        <ele>118.40000152588</ele>
        <time>2023-05-24T09:04:33.000Z</time>
      </trkpt>
      <trkpt lat="43.67918" lon="3.59689">
        <ele>118.80000305176</ele>
        <time>2023-05-24T09:04:43.000Z</time>
      </trkpt>
      <trkpt lat="43.67918" lon="3.59677">
        <ele>117.59999847412</ele>
        <time>2023-05-24T09:04:52.000Z</time>
      </trkpt>
      <trkpt lat="43.67918" lon="3.59675">
        <ele>117.59999847412</ele>
        <time>2023-05-24T09:04:53.000Z</time>
      </trkpt>
      <trkpt lat="43.6792" lon="3.59658">
        <ele>117</ele>
        <time>2023-05-24T09:05:03.000Z</time>
      </trkpt>
      <trkpt lat="43.67921" lon="3.59647">
        <ele>116.59999847412</ele>
        <time>2023-05-24T09:05:10.000Z</time>
      </trkpt>
      <trkpt lat="43.67921" lon="3.59644">
        <ele>116.59999847412</ele>
        <time>2023-05-24T09:05:12.000Z</time>
      </trkpt>
      <trkpt lat="43.67923" lon="3.59633">
        <ele>117</ele>
        <time>2023-05-24T09:05:19.000Z</time>
      </trkpt>
      <trkpt lat="43.67926" lon="3.59622">
        <ele>115.59999847412</ele>
        <time>2023-05-24T09:05:27.000Z</time>
      </trkpt>
      <trkpt lat="43.67926" lon="3.5962">
        <ele>115.40000152588</ele>
        <time>2023-05-24T09:05:28.000Z</time>
      </trkpt>
      <trkpt lat="43.67929" lon="3.59611">
        <ele>114.40000152588</ele>
        <time>2023-05-24T09:05:34.000Z</time>
      </trkpt>
      <trkpt lat="43.67929" lon="3.5961">
        <ele>114.19999694824</ele>
        <time>2023-05-24T09:05:35.000Z</time>
      </trkpt>
      <trkpt lat="43.67933" lon="3.59594">
        <ele>114.19999694824</ele>
        <time>2023-05-24T09:05:44.000Z</time>
      </trkpt>
      <trkpt lat="43.67934" lon="3.59589">
        <ele>113.40000152588</ele>
        <time>2023-05-24T09:05:48.000Z</time>
      </trkpt>
      <trkpt lat="43.67934" lon="3.59588">
        <ele>113</ele>
        <time>2023-05-24T09:05:49.000Z</time>
      </trkpt>
      <trkpt lat="43.67935" lon="3.59587">
        <ele>112.59999847412</ele>
        <time>2023-05-24T09:05:51.000Z</time>
      </trkpt>
      <trkpt lat="43.67936" lon="3.59585">
        <ele>112.19999694824</ele>
        <time>2023-05-24T09:05:53.000Z</time>
      </trkpt>
      <trkpt lat="43.67937" lon="3.59579">
        <ele>111.19999694824</ele>
        <time>2023-05-24T09:05:57.000Z</time>
      </trkpt>
      <trkpt lat="43.67938" lon="3.59578">
        <ele>110.59999847412</ele>
        <time>2023-05-24T09:05:58.000Z</time>
      </trkpt>
      <trkpt lat="43.67939" lon="3.59577">
        <ele>110.19999694824</ele>
        <time>2023-05-24T09:05:59.000Z</time>
      </trkpt>
      <trkpt lat="43.6794" lon="3.59574">
        <ele>109.40000152588</ele>
        <time>2023-05-24T09:06:02.000Z</time>
      </trkpt>
      <trkpt lat="43.67939" lon="3.59571">
        <ele>109</ele>
        <time>2023-05-24T09:06:05.000Z</time>
      </trkpt>
      <trkpt lat="43.67941" lon="3.59567">
        <ele>108.59999847412</ele>
        <time>2023-05-24T09:06:11.000Z</time>
      </trkpt>
      <trkpt lat="43.67945" lon="3.59557">
        <ele>108.80000305176</ele>
        <time>2023-05-24T09:06:19.000Z</time>
      </trkpt>
      <trkpt lat="43.67947" lon="3.59552">
        <ele>108.40000152588</ele>
        <time>2023-05-24T09:06:23.000Z</time>
      </trkpt>
      <trkpt lat="43.67949" lon="3.59549">
        <ele>108.40000152588</ele>
        <time>2023-05-24T09:06:26.000Z</time>
      </trkpt>
      <trkpt lat="43.67951" lon="3.59547">
        <ele>108.40000152588</ele>
        <time>2023-05-24T09:06:28.000Z</time>
      </trkpt>
      <trkpt lat="43.67954" lon="3.59542">
        <ele>108.40000152588</ele>
        <time>2023-05-24T09:06:33.000Z</time>
      </trkpt>
      <trkpt lat="43.67958" lon="3.59534">
        <ele>109.40000152588</ele>
        <time>2023-05-24T09:06:38.000Z</time>
      </trkpt>
      <trkpt lat="43.6796" lon="3.5953">
        <ele>109.59999847412</ele>
        <time>2023-05-24T09:06:41.000Z</time>
      </trkpt>
      <trkpt lat="43.67967" lon="3.59521">
        <ele>109.19999694824</ele>
        <time>2023-05-24T09:06:49.000Z</time>
      </trkpt>
      <trkpt lat="43.67974" lon="3.59513">
        <ele>109.80000305176</ele>
        <time>2023-05-24T09:06:57.000Z</time>
      </trkpt>
      <trkpt lat="43.6798" lon="3.59506">
        <ele>109.59999847412</ele>
        <time>2023-05-24T09:07:04.000Z</time>
      </trkpt>
      <trkpt lat="43.67981" lon="3.59505">
        <ele>109.59999847412</ele>
        <time>2023-05-24T09:07:05.000Z</time>
      </trkpt>
      <trkpt lat="43.67986" lon="3.595">
        <ele>109.80000305176</ele>
        <time>2023-05-24T09:07:10.000Z</time>
      </trkpt>
      <trkpt lat="43.67987" lon="3.59498">
        <ele>109.80000305176</ele>
        <time>2023-05-24T09:07:12.000Z</time>
      </trkpt>
      <trkpt lat="43.67995" lon="3.59489">
        <ele>108.19999694824</ele>
        <time>2023-05-24T09:07:21.000Z</time>
      </trkpt>
      <trkpt lat="43.67997" lon="3.59487">
        <ele>108</ele>
        <time>2023-05-24T09:07:23.000Z</time>
      </trkpt>
      <trkpt lat="43.68001" lon="3.59484">
        <ele>107.19999694824</ele>
        <time>2023-05-24T09:07:27.000Z</time>
      </trkpt>
      <trkpt lat="43.68006" lon="3.59479">
        <ele>106.19999694824</ele>
        <time>2023-05-24T09:07:32.000Z</time>
      </trkpt>
      <trkpt lat="43.68008" lon="3.59477">
        <ele>105.59999847412</ele>
        <time>2023-05-24T09:07:34.000Z</time>
      </trkpt>
      <trkpt lat="43.68012" lon="3.59472">
        <ele>104.80000305176</ele>
        <time>2023-05-24T09:07:38.000Z</time>
      </trkpt>
      <trkpt lat="43.68016" lon="3.59469">
        <ele>104</ele>
        <time>2023-05-24T09:07:42.000Z</time>
      </trkpt>
      <trkpt lat="43.68018" lon="3.59466">
        <ele>103.59999847412</ele>
        <time>2023-05-24T09:07:45.000Z</time>
      </trkpt>
      <trkpt lat="43.68023" lon="3.59462">
        <ele>102.40000152588</ele>
        <time>2023-05-24T09:07:50.000Z</time>
      </trkpt>
      <trkpt lat="43.68029" lon="3.59457">
        <ele>101.40000152588</ele>
        <time>2023-05-24T09:07:56.000Z</time>
      </trkpt>
      <trkpt lat="43.68031" lon="3.59455">
        <ele>100.80000305176</ele>
        <time>2023-05-24T09:07:59.000Z</time>
      </trkpt>
      <trkpt lat="43.68033" lon="3.59453">
        <ele>100.40000152588</ele>
        <time>2023-05-24T09:08:01.000Z</time>
      </trkpt>
      <trkpt lat="43.68034" lon="3.59452">
        <ele>100.19999694824</ele>
        <time>2023-05-24T09:08:02.000Z</time>
      </trkpt>
      <trkpt lat="43.68038" lon="3.59447">
        <ele>99.199996948242</ele>
        <time>2023-05-24T09:08:06.000Z</time>
      </trkpt>
      <trkpt lat="43.68039" lon="3.59447">
        <ele>99</ele>
        <time>2023-05-24T09:08:07.000Z</time>
      </trkpt>
      <trkpt lat="43.68043" lon="3.59441">
        <ele>98</ele>
        <time>2023-05-24T09:08:13.000Z</time>
      </trkpt>
      <trkpt lat="43.68048" lon="3.59436">
        <ele>97</ele>
        <time>2023-05-24T09:08:18.000Z</time>
      </trkpt>
      <trkpt lat="43.68049" lon="3.59435">
        <ele>96.800003051758</ele>
        <time>2023-05-24T09:08:19.000Z</time>
      </trkpt>
      <trkpt lat="43.6805" lon="3.59435">
        <ele>96.599998474121</ele>
        <time>2023-05-24T09:08:20.000Z</time>
      </trkpt>
      <trkpt lat="43.68052" lon="3.59433">
        <ele>96.199996948242</ele>
        <time>2023-05-24T09:08:22.000Z</time>
      </trkpt>
      <trkpt lat="43.68054" lon="3.59431">
        <ele>95.800003051758</ele>
        <time>2023-05-24T09:08:24.000Z</time>
      </trkpt>
      <trkpt lat="43.68058" lon="3.59426">
        <ele>94.599998474121</ele>
        <time>2023-05-24T09:08:29.000Z</time>
      </trkpt>
      <trkpt lat="43.68063" lon="3.5942">
        <ele>93.599998474121</ele>
        <time>2023-05-24T09:08:35.000Z</time>
      </trkpt>
      <trkpt lat="43.68064" lon="3.59419">
        <ele>93.400001525879</ele>
        <time>2023-05-24T09:08:36.000Z</time>
      </trkpt>
      <trkpt lat="43.68066" lon="3.59415">
        <ele>92.800003051758</ele>
        <time>2023-05-24T09:08:39.000Z</time>
      </trkpt>
      <trkpt lat="43.68068" lon="3.59414">
        <ele>92.400001525879</ele>
        <time>2023-05-24T09:08:41.000Z</time>
      </trkpt>
      <trkpt lat="43.68069" lon="3.59413">
        <ele>92.400001525879</ele>
        <time>2023-05-24T09:08:42.000Z</time>
      </trkpt>
      <trkpt lat="43.6807" lon="3.59412">
        <ele>92.199996948242</ele>
        <time>2023-05-24T09:08:43.000Z</time>
      </trkpt>
      <trkpt lat="43.68076" lon="3.59406">
        <ele>91.800003051758</ele>
        <time>2023-05-24T09:08:50.000Z</time>
      </trkpt>
      <trkpt lat="43.68083" lon="3.59397">
        <ele>91.400001525879</ele>
        <time>2023-05-24T09:08:58.000Z</time>
      </trkpt>
      <trkpt lat="43.68084" lon="3.59396">
        <ele>91.400001525879</ele>
        <time>2023-05-24T09:08:59.000Z</time>
      </trkpt>
      <trkpt lat="43.68086" lon="3.59394">
        <ele>91.199996948242</ele>
        <time>2023-05-24T09:09:01.000Z</time>
      </trkpt>
      <trkpt lat="43.68087" lon="3.59394">
        <ele>91</ele>
        <time>2023-05-24T09:09:08.000Z</time>
      </trkpt>
      <trkpt lat="43.6809" lon="3.59392">
        <ele>90.599998474121</ele>
        <time>2023-05-24T09:09:18.000Z</time>
      </trkpt>
      <trkpt lat="43.68091" lon="3.59392">
        <ele>90.800003051758</ele>
        <time>2023-05-24T09:09:28.000Z</time>
      </trkpt>
      <trkpt lat="43.6809" lon="3.59391">
        <ele>90.800003051758</ele>
        <time>2023-05-24T09:09:37.000Z</time>
      </trkpt>
      <trkpt lat="43.68098" lon="3.59386">
        <ele>91</ele>
        <time>2023-05-24T09:09:44.000Z</time>
      </trkpt>
      <trkpt lat="43.68099" lon="3.59377">
        <ele>90.800003051758</ele>
        <time>2023-05-24T09:09:50.000Z</time>
      </trkpt>
      <trkpt lat="43.68099" lon="3.59373">
        <ele>90.400001525879</ele>
        <time>2023-05-24T09:09:53.000Z</time>
      </trkpt>
      <trkpt lat="43.68098" lon="3.59366">
        <ele>90</ele>
        <time>2023-05-24T09:09:58.000Z</time>
      </trkpt>
      <trkpt lat="43.68098" lon="3.59356">
        <ele>89.800003051758</ele>
        <time>2023-05-24T09:10:05.000Z</time>
      </trkpt>
      <trkpt lat="43.681" lon="3.59347">
        <ele>89.800003051758</ele>
        <time>2023-05-24T09:10:12.000Z</time>
      </trkpt>
      <trkpt lat="43.681" lon="3.5934">
        <ele>90</ele>
        <time>2023-05-24T09:10:17.000Z</time>
      </trkpt>
      <trkpt lat="43.681" lon="3.59338">
        <ele>90</ele>
        <time>2023-05-24T09:10:19.000Z</time>
      </trkpt>
      <trkpt lat="43.681" lon="3.59336">
        <ele>90.199996948242</ele>
        <time>2023-05-24T09:10:20.000Z</time>
      </trkpt>
      <trkpt lat="43.681" lon="3.59336">
        <ele>89.400001525879</ele>
        <time>2023-05-24T09:10:24.000Z</time>
      </trkpt>
      <trkpt lat="43.68101" lon="3.59333">
        <ele>89.400001525879</ele>
        <time>2023-05-24T09:10:33.000Z</time>
      </trkpt>
      <trkpt lat="43.68101" lon="3.59327">
        <ele>88.800003051758</ele>
        <time>2023-05-24T09:10:39.000Z</time>
      </trkpt>
      <trkpt lat="43.68101" lon="3.59319">
        <ele>88.199996948242</ele>
        <time>2023-05-24T09:10:43.000Z</time>
      </trkpt>
      <trkpt lat="43.68102" lon="3.59316">
        <ele>88</ele>
        <time>2023-05-24T09:10:45.000Z</time>
      </trkpt>
      <trkpt lat="43.68103" lon="3.59306">
        <ele>87.599998474121</ele>
        <time>2023-05-24T09:10:51.000Z</time>
      </trkpt>
      <trkpt lat="43.68103" lon="3.59304">
        <ele>87.599998474121</ele>
        <time>2023-05-24T09:10:52.000Z</time>
      </trkpt>
      <trkpt lat="43.68102" lon="3.593">
        <ele>87</ele>
        <time>2023-05-24T09:10:54.000Z</time>
      </trkpt>
      <trkpt lat="43.68102" lon="3.59297">
        <ele>86.599998474121</ele>
        <time>2023-05-24T09:10:56.000Z</time>
      </trkpt>
      <trkpt lat="43.68102" lon="3.59296">
        <ele>86.199996948242</ele>
        <time>2023-05-24T09:10:57.000Z</time>
      </trkpt>
      <trkpt lat="43.68102" lon="3.59294">
        <ele>86</ele>
        <time>2023-05-24T09:10:58.000Z</time>
      </trkpt>
      <trkpt lat="43.681" lon="3.59284">
        <ele>85</ele>
        <time>2023-05-24T09:11:03.000Z</time>
      </trkpt>
      <trkpt lat="43.68099" lon="3.59276">
        <ele>86</ele>
        <time>2023-05-24T09:11:08.000Z</time>
      </trkpt>
      <trkpt lat="43.68095" lon="3.59261">
        <ele>85.400001525879</ele>
        <time>2023-05-24T09:11:16.000Z</time>
      </trkpt>
      <trkpt lat="43.68095" lon="3.59259">
        <ele>85.199996948242</ele>
        <time>2023-05-24T09:11:17.000Z</time>
      </trkpt>
      <trkpt lat="43.68095" lon="3.59259">
        <ele>85.400001525879</ele>
        <time>2023-05-24T09:11:19.000Z</time>
      </trkpt>
      <trkpt lat="43.68095" lon="3.59253">
        <ele>87</ele>
        <time>2023-05-24T09:11:29.000Z</time>
      </trkpt>
      <trkpt lat="43.68094" lon="3.59243">
        <ele>87.599998474121</ele>
        <time>2023-05-24T09:11:35.000Z</time>
      </trkpt>
      <trkpt lat="43.68093" lon="3.59236">
        <ele>88</ele>
        <time>2023-05-24T09:11:39.000Z</time>
      </trkpt>
      <trkpt lat="43.68092" lon="3.59235">
        <ele>88</ele>
        <time>2023-05-24T09:11:40.000Z</time>
      </trkpt>
      <trkpt lat="43.68092" lon="3.59232">
        <ele>88</ele>
        <time>2023-05-24T09:11:42.000Z</time>
      </trkpt>
      <trkpt lat="43.68092" lon="3.59218">
        <ele>87.800003051758</ele>
        <time>2023-05-24T09:11:50.000Z</time>
      </trkpt>
      <trkpt lat="43.68094" lon="3.59204">
        <ele>87.800003051758</ele>
        <time>2023-05-24T09:11:58.000Z</time>
      </trkpt>
      <trkpt lat="43.68099" lon="3.59194">
        <ele>87.800003051758</ele>
        <time>2023-05-24T09:12:05.000Z</time>
      </trkpt>
      <trkpt lat="43.68103" lon="3.59181">
        <ele>87.199996948242</ele>
        <time>2023-05-24T09:12:13.000Z</time>
      </trkpt>
      <trkpt lat="43.68105" lon="3.59175">
        <ele>87</ele>
        <time>2023-05-24T09:12:17.000Z</time>
      </trkpt>
      <trkpt lat="43.68106" lon="3.59165">
        <ele>86.800003051758</ele>
        <time>2023-05-24T09:12:23.000Z</time>
      </trkpt>
      <trkpt lat="43.68105" lon="3.59152">
        <ele>86.800003051758</ele>
        <time>2023-05-24T09:12:31.000Z</time>
      </trkpt>
      <trkpt lat="43.68104" lon="3.59137">
        <ele>86.800003051758</ele>
        <time>2023-05-24T09:12:40.000Z</time>
      </trkpt>
      <trkpt lat="43.68103" lon="3.59123">
        <ele>86.800003051758</ele>
        <time>2023-05-24T09:12:49.000Z</time>
      </trkpt>
      <trkpt lat="43.68102" lon="3.59114">
        <ele>86.800003051758</ele>
        <time>2023-05-24T09:12:56.000Z</time>
      </trkpt>
      <trkpt lat="43.68103" lon="3.59103">
        <ele>87</ele>
        <time>2023-05-24T09:13:04.000Z</time>
      </trkpt>
      <trkpt lat="43.68102" lon="3.59084">
        <ele>87</ele>
        <time>2023-05-24T09:13:15.000Z</time>
      </trkpt>
      <trkpt lat="43.68102" lon="3.59071">
        <ele>87.199996948242</ele>
        <time>2023-05-24T09:13:22.000Z</time>
      </trkpt>
      <trkpt lat="43.68104" lon="3.59056">
        <ele>87</ele>
        <time>2023-05-24T09:13:31.000Z</time>
      </trkpt>
      <trkpt lat="43.68107" lon="3.59043">
        <ele>87</ele>
        <time>2023-05-24T09:13:40.000Z</time>
      </trkpt>
      <trkpt lat="43.68109" lon="3.59031">
        <ele>86.599998474121</ele>
        <time>2023-05-24T09:13:48.000Z</time>
      </trkpt>
      <trkpt lat="43.68112" lon="3.59017">
        <ele>86.199996948242</ele>
        <time>2023-05-24T09:13:57.000Z</time>
      </trkpt>
      <trkpt lat="43.68112" lon="3.59014">
        <ele>86</ele>
        <time>2023-05-24T09:13:59.000Z</time>
      </trkpt>
      <trkpt lat="43.68112" lon="3.5901">
        <ele>85.800003051758</ele>
        <time>2023-05-24T09:14:02.000Z</time>
      </trkpt>
      <trkpt lat="43.68111" lon="3.59009">
        <ele>85.599998474121</ele>
        <time>2023-05-24T09:14:04.000Z</time>
      </trkpt>
      <trkpt lat="43.68111" lon="3.59008">
        <ele>85</ele>
        <time>2023-05-24T09:14:11.000Z</time>
      </trkpt>
      <trkpt lat="43.68111" lon="3.59008">
        <ele>85</ele>
        <time>2023-05-24T09:14:12.000Z</time>
      </trkpt>
      <trkpt lat="43.68112" lon="3.59008">
        <ele>84.599998474121</ele>
        <time>2023-05-24T09:14:23.000Z</time>
      </trkpt>
      <trkpt lat="43.68114" lon="3.59008">
        <ele>85.599998474121</ele>
        <time>2023-05-24T09:14:32.000Z</time>
      </trkpt>
      <trkpt lat="43.68115" lon="3.59008">
        <ele>85.400001525879</ele>
        <time>2023-05-24T09:14:43.000Z</time>
      </trkpt>
      <trkpt lat="43.68115" lon="3.59008">
        <ele>85.599998474121</ele>
        <time>2023-05-24T09:14:52.000Z</time>
      </trkpt>
      <trkpt lat="43.68116" lon="3.59007">
        <ele>86</ele>
        <time>2023-05-24T09:15:00.000Z</time>
      </trkpt>
      <trkpt lat="43.68117" lon="3.59006">
        <ele>86</ele>
        <time>2023-05-24T09:15:02.000Z</time>
      </trkpt>
      <trkpt lat="43.68119" lon="3.59">
        <ele>85.400001525879</ele>
        <time>2023-05-24T09:15:07.000Z</time>
      </trkpt>
      <trkpt lat="43.68121" lon="3.5899">
        <ele>85</ele>
        <time>2023-05-24T09:15:14.000Z</time>
      </trkpt>
      <trkpt lat="43.68121" lon="3.58989">
        <ele>85</ele>
        <time>2023-05-24T09:15:15.000Z</time>
      </trkpt>
      <trkpt lat="43.68122" lon="3.5898">
        <ele>84.800003051758</ele>
        <time>2023-05-24T09:15:22.000Z</time>
      </trkpt>
      <trkpt lat="43.68122" lon="3.58971">
        <ele>84.199996948242</ele>
        <time>2023-05-24T09:15:28.000Z</time>
      </trkpt>
      <trkpt lat="43.68123" lon="3.5896">
        <ele>84</ele>
        <time>2023-05-24T09:15:35.000Z</time>
      </trkpt>
      <trkpt lat="43.68124" lon="3.58956">
        <ele>84</ele>
        <time>2023-05-24T09:15:38.000Z</time>
      </trkpt>
      <trkpt lat="43.68124" lon="3.58947">
        <ele>83.599998474121</ele>
        <time>2023-05-24T09:15:43.000Z</time>
      </trkpt>
      <trkpt lat="43.68126" lon="3.58934">
        <ele>83.400001525879</ele>
        <time>2023-05-24T09:15:51.000Z</time>
      </trkpt>
      <trkpt lat="43.68124" lon="3.58926">
        <ele>83.199996948242</ele>
        <time>2023-05-24T09:15:58.000Z</time>
      </trkpt>
      <trkpt lat="43.68124" lon="3.58926">
        <ele>83</ele>
        <time>2023-05-24T09:16:02.000Z</time>
      </trkpt>
      <trkpt lat="43.68124" lon="3.58925">
        <ele>83</ele>
        <time>2023-05-24T09:16:07.000Z</time>
      </trkpt>
      <trkpt lat="43.68126" lon="3.58918">
        <ele>83</ele>
        <time>2023-05-24T09:16:14.000Z</time>
      </trkpt>
      <trkpt lat="43.68129" lon="3.58904">
        <ele>82.400001525879</ele>
        <time>2023-05-24T09:16:23.000Z</time>
      </trkpt>
      <trkpt lat="43.68131" lon="3.5889">
        <ele>82</ele>
        <time>2023-05-24T09:16:32.000Z</time>
      </trkpt>
      <trkpt lat="43.68131" lon="3.58888">
        <ele>81.800003051758</ele>
        <time>2023-05-24T09:16:33.000Z</time>
      </trkpt>
      <trkpt lat="43.68133" lon="3.58875">
        <ele>81.599998474121</ele>
        <time>2023-05-24T09:16:41.000Z</time>
      </trkpt>
      <trkpt lat="43.68135" lon="3.58858">
        <ele>81.599998474121</ele>
        <time>2023-05-24T09:16:51.000Z</time>
      </trkpt>
      <trkpt lat="43.68137" lon="3.58845">
        <ele>81.599998474121</ele>
        <time>2023-05-24T09:17:00.000Z</time>
      </trkpt>
      <trkpt lat="43.6814" lon="3.58828">
        <ele>81.400001525879</ele>
        <time>2023-05-24T09:17:10.000Z</time>
      </trkpt>
      <trkpt lat="43.6814" lon="3.58809">
        <ele>81.400001525879</ele>
        <time>2023-05-24T09:17:20.000Z</time>
      </trkpt>
      <trkpt lat="43.68143" lon="3.58796">
        <ele>81.400001525879</ele>
        <time>2023-05-24T09:17:28.000Z</time>
      </trkpt>
      <trkpt lat="43.68144" lon="3.58791">
        <ele>73.400001525879</ele>
        <time>2023-05-24T09:17:35.000Z</time>
      </trkpt>
      <trkpt lat="43.68144" lon="3.5879">
        <ele>66.800003051758</ele>
        <time>2023-05-24T09:17:36.000Z</time>
      </trkpt>
      <trkpt lat="43.68144" lon="3.58787">
        <ele>69.199996948242</ele>
        <time>2023-05-24T09:17:38.000Z</time>
      </trkpt>
      <trkpt lat="43.68145" lon="3.58785">
        <ele>67.800003051758</ele>
        <time>2023-05-24T09:17:39.000Z</time>
      </trkpt>
      <trkpt lat="43.68145" lon="3.58782">
        <ele>67.800003051758</ele>
        <time>2023-05-24T09:17:41.000Z</time>
      </trkpt>
      <trkpt lat="43.68148" lon="3.58769">
        <ele>68</ele>
        <time>2023-05-24T09:17:49.000Z</time>
      </trkpt>
      <trkpt lat="43.68151" lon="3.58755">
        <ele>67.400001525879</ele>
        <time>2023-05-24T09:17:58.000Z</time>
      </trkpt>
      <trkpt lat="43.68157" lon="3.58741">
        <ele>67</ele>
        <time>2023-05-24T09:18:07.000Z</time>
      </trkpt>
      <trkpt lat="43.68162" lon="3.58731">
        <ele>67.199996948242</ele>
        <time>2023-05-24T09:18:14.000Z</time>
      </trkpt>
      <trkpt lat="43.68165" lon="3.58725">
        <ele>67</ele>
        <time>2023-05-24T09:18:19.000Z</time>
      </trkpt>
      <trkpt lat="43.68165" lon="3.58723">
        <ele>66.800003051758</ele>
        <time>2023-05-24T09:18:22.000Z</time>
      </trkpt>
      <trkpt lat="43.68166" lon="3.58721">
        <ele>66.800003051758</ele>
        <time>2023-05-24T09:18:27.000Z</time>
      </trkpt>
      <trkpt lat="43.68168" lon="3.58718">
        <ele>67.599998474121</ele>
        <time>2023-05-24T09:18:34.000Z</time>
      </trkpt>
      <trkpt lat="43.6817" lon="3.58717">
        <ele>67.800003051758</ele>
        <time>2023-05-24T09:18:37.000Z</time>
      </trkpt>
      <trkpt lat="43.6817" lon="3.58716">
        <ele>68.400001525879</ele>
        <time>2023-05-24T09:18:42.000Z</time>
      </trkpt>
      <trkpt lat="43.68172" lon="3.58715">
        <ele>69</ele>
        <time>2023-05-24T09:18:46.000Z</time>
      </trkpt>
      <trkpt lat="43.68172" lon="3.58715">
        <ele>69.400001525879</ele>
        <time>2023-05-24T09:18:51.000Z</time>
      </trkpt>
      <trkpt lat="43.68174" lon="3.58713">
        <ele>70</ele>
        <time>2023-05-24T09:18:56.000Z</time>
      </trkpt>
      <trkpt lat="43.68176" lon="3.58711">
        <ele>70.199996948242</ele>
        <time>2023-05-24T09:18:58.000Z</time>
      </trkpt>
      <trkpt lat="43.68188" lon="3.58695">
        <ele>70.800003051758</ele>
        <time>2023-05-24T09:19:13.000Z</time>
      </trkpt>
      <trkpt lat="43.6819" lon="3.58691">
        <ele>71</ele>
        <time>2023-05-24T09:19:17.000Z</time>
      </trkpt>
      <trkpt lat="43.68193" lon="3.58688">
        <ele>71.199996948242</ele>
        <time>2023-05-24T09:19:20.000Z</time>
      </trkpt>
      <trkpt lat="43.68204" lon="3.5868">
        <ele>71.400001525879</ele>
        <time>2023-05-24T09:19:31.000Z</time>
      </trkpt>
      <trkpt lat="43.68212" lon="3.58676">
        <ele>71.599998474121</ele>
        <time>2023-05-24T09:19:39.000Z</time>
      </trkpt>
      <trkpt lat="43.68219" lon="3.58673">
        <ele>72.199996948242</ele>
        <time>2023-05-24T09:19:46.000Z</time>
      </trkpt>
      <trkpt lat="43.6822" lon="3.58673">
        <ele>72.199996948242</ele>
        <time>2023-05-24T09:19:47.000Z</time>
      </trkpt>
      <trkpt lat="43.68228" lon="3.58669">
        <ele>72.800003051758</ele>
        <time>2023-05-24T09:19:54.000Z</time>
      </trkpt>
      <trkpt lat="43.68235" lon="3.58665">
        <ele>73.199996948242</ele>
        <time>2023-05-24T09:20:00.000Z</time>
      </trkpt>
      <trkpt lat="43.68238" lon="3.58663">
        <ele>73.199996948242</ele>
        <time>2023-05-24T09:20:03.000Z</time>
      </trkpt>
      <trkpt lat="43.68247" lon="3.58651">
        <ele>73.400001525879</ele>
        <time>2023-05-24T09:20:13.000Z</time>
      </trkpt>
      <trkpt lat="43.68251" lon="3.58637">
        <ele>73.199996948242</ele>
        <time>2023-05-24T09:20:22.000Z</time>
      </trkpt>
      <trkpt lat="43.68258" lon="3.58625">
        <ele>72.800003051758</ele>
        <time>2023-05-24T09:20:31.000Z</time>
      </trkpt>
      <trkpt lat="43.68265" lon="3.58619">
        <ele>72.800003051758</ele>
        <time>2023-05-24T09:20:38.000Z</time>
      </trkpt>
      <trkpt lat="43.68274" lon="3.58613">
        <ele>72.599998474121</ele>
        <time>2023-05-24T09:20:46.000Z</time>
      </trkpt>
      <trkpt lat="43.68281" lon="3.58611">
        <ele>72.400001525879</ele>
        <time>2023-05-24T09:20:52.000Z</time>
      </trkpt>
      <trkpt lat="43.68283" lon="3.58612">
        <ele>72.199996948242</ele>
        <time>2023-05-24T09:20:54.000Z</time>
      </trkpt>
      <trkpt lat="43.68287" lon="3.58615">
        <ele>72.199996948242</ele>
        <time>2023-05-24T09:20:58.000Z</time>
      </trkpt>
      <trkpt lat="43.68288" lon="3.58615">
        <ele>72.199996948242</ele>
        <time>2023-05-24T09:20:59.000Z</time>
      </trkpt>
      <trkpt lat="43.68289" lon="3.58617">
        <ele>72</ele>
        <time>2023-05-24T09:21:01.000Z</time>
      </trkpt>
      <trkpt lat="43.68291" lon="3.58619">
        <ele>72</ele>
        <time>2023-05-24T09:21:03.000Z</time>
      </trkpt>
      <trkpt lat="43.68296" lon="3.58626">
        <ele>71.800003051758</ele>
        <time>2023-05-24T09:21:10.000Z</time>
      </trkpt>
      <trkpt lat="43.68297" lon="3.58626">
        <ele>71.800003051758</ele>
        <time>2023-05-24T09:21:11.000Z</time>
      </trkpt>
      <trkpt lat="43.68304" lon="3.58626">
        <ele>71.400001525879</ele>
        <time>2023-05-24T09:21:17.000Z</time>
      </trkpt>
      <trkpt lat="43.68307" lon="3.58626">
        <ele>71.400001525879</ele>
        <time>2023-05-24T09:21:19.000Z</time>
      </trkpt>
      <trkpt lat="43.68308" lon="3.58625">
        <ele>71.400001525879</ele>
        <time>2023-05-24T09:21:20.000Z</time>
      </trkpt>
      <trkpt lat="43.68311" lon="3.58624">
        <ele>71.199996948242</ele>
        <time>2023-05-24T09:21:23.000Z</time>
      </trkpt>
      <trkpt lat="43.68314" lon="3.58623">
        <ele>71</ele>
        <time>2023-05-24T09:21:25.000Z</time>
      </trkpt>
      <trkpt lat="43.6832" lon="3.58622">
        <ele>70.800003051758</ele>
        <time>2023-05-24T09:21:30.000Z</time>
      </trkpt>
      <trkpt lat="43.68322" lon="3.58621">
        <ele>70.800003051758</ele>
        <time>2023-05-24T09:21:32.000Z</time>
      </trkpt>
      <trkpt lat="43.68328" lon="3.58618">
        <ele>70.400001525879</ele>
        <time>2023-05-24T09:21:37.000Z</time>
      </trkpt>
      <trkpt lat="43.68332" lon="3.58614">
        <ele>70</ele>
        <time>2023-05-24T09:21:41.000Z</time>
      </trkpt>
      <trkpt lat="43.68333" lon="3.58611">
        <ele>69.800003051758</ele>
        <time>2023-05-24T09:21:43.000Z</time>
      </trkpt>
      <trkpt lat="43.68333" lon="3.5861">
        <ele>69.800003051758</ele>
        <time>2023-05-24T09:21:44.000Z</time>
      </trkpt>
      <trkpt lat="43.68336" lon="3.58609">
        <ele>69.599998474121</ele>
        <time>2023-05-24T09:21:48.000Z</time>
      </trkpt>
      <trkpt lat="43.68337" lon="3.58609">
        <ele>69.199996948242</ele>
        <time>2023-05-24T09:21:54.000Z</time>
      </trkpt>
      <trkpt lat="43.68336" lon="3.58609">
        <ele>69</ele>
        <time>2023-05-24T09:21:56.000Z</time>
      </trkpt>
      <trkpt lat="43.68334" lon="3.58608">
        <ele>68.199996948242</ele>
        <time>2023-05-24T09:22:04.000Z</time>
      </trkpt>
      <trkpt lat="43.68332" lon="3.58607">
        <ele>69</ele>
        <time>2023-05-24T09:22:12.000Z</time>
      </trkpt>
      <trkpt lat="43.68334" lon="3.58607">
        <ele>69.400001525879</ele>
        <time>2023-05-24T09:22:17.000Z</time>
      </trkpt>
      <trkpt lat="43.68338" lon="3.58604">
        <ele>69</ele>
        <time>2023-05-24T09:22:22.000Z</time>
      </trkpt>
      <trkpt lat="43.68346" lon="3.58604">
        <ele>68.400001525879</ele>
        <time>2023-05-24T09:22:29.000Z</time>
      </trkpt>
      <trkpt lat="43.68348" lon="3.58604">
        <ele>68.199996948242</ele>
        <time>2023-05-24T09:22:30.000Z</time>
      </trkpt>
      <trkpt lat="43.68353" lon="3.58603">
        <ele>68</ele>
        <time>2023-05-24T09:22:35.000Z</time>
      </trkpt>
      <trkpt lat="43.68357" lon="3.58602">
        <ele>67.400001525879</ele>
        <time>2023-05-24T09:22:40.000Z</time>
      </trkpt>
      <trkpt lat="43.68358" lon="3.58603">
        <ele>67</ele>
        <time>2023-05-24T09:22:41.000Z</time>
      </trkpt>
      <trkpt lat="43.68363" lon="3.58604">
        <ele>67</ele>
        <time>2023-05-24T09:22:45.000Z</time>
      </trkpt>
      <trkpt lat="43.68365" lon="3.58604">
        <ele>67</ele>
        <time>2023-05-24T09:22:47.000Z</time>
      </trkpt>
      <trkpt lat="43.68367" lon="3.58607">
        <ele>66.599998474121</ele>
        <time>2023-05-24T09:22:50.000Z</time>
      </trkpt>
      <trkpt lat="43.68368" lon="3.58608">
        <ele>65.800003051758</ele>
        <time>2023-05-24T09:22:52.000Z</time>
      </trkpt>
      <trkpt lat="43.68371" lon="3.58609">
        <ele>65.400001525879</ele>
        <time>2023-05-24T09:22:55.000Z</time>
      </trkpt>
      <trkpt lat="43.68377" lon="3.58609">
        <ele>66.400001525879</ele>
        <time>2023-05-24T09:23:00.000Z</time>
      </trkpt>
      <trkpt lat="43.6838" lon="3.5861">
        <ele>66.199996948242</ele>
        <time>2023-05-24T09:23:02.000Z</time>
      </trkpt>
      <trkpt lat="43.68382" lon="3.58611">
        <ele>66.199996948242</ele>
        <time>2023-05-24T09:23:04.000Z</time>
      </trkpt>
      <trkpt lat="43.68383" lon="3.58612">
        <ele>66.199996948242</ele>
        <time>2023-05-24T09:23:05.000Z</time>
      </trkpt>
      <trkpt lat="43.68386" lon="3.58612">
        <ele>66.199996948242</ele>
        <time>2023-05-24T09:23:08.000Z</time>
      </trkpt>
      <trkpt lat="43.68386" lon="3.58613">
        <ele>66.199996948242</ele>
        <time>2023-05-24T09:23:10.000Z</time>
      </trkpt>
      <trkpt lat="43.68392" lon="3.58614">
        <ele>66.400001525879</ele>
        <time>2023-05-24T09:23:12.000Z</time>
      </trkpt>
      <trkpt lat="43.68394" lon="3.58614">
        <ele>66.400001525879</ele>
        <time>2023-05-24T09:23:16.000Z</time>
      </trkpt>
      <trkpt lat="43.68394" lon="3.58614">
        <ele>66.199996948242</ele>
        <time>2023-05-24T09:23:26.000Z</time>
      </trkpt>
      <trkpt lat="43.68404" lon="3.58616">
        <ele>66.400001525879</ele>
        <time>2023-05-24T09:23:34.000Z</time>
      </trkpt>
      <trkpt lat="43.68409" lon="3.58617">
        <ele>67.199996948242</ele>
        <time>2023-05-24T09:23:39.000Z</time>
      </trkpt>
      <trkpt lat="43.6841" lon="3.58617">
        <ele>69</ele>
        <time>2023-05-24T09:23:40.000Z</time>
      </trkpt>
      <trkpt lat="43.6841" lon="3.58617">
        <ele>71.199996948242</ele>
        <time>2023-05-24T09:23:41.000Z</time>
      </trkpt>
      <trkpt lat="43.68415" lon="3.58617">
        <ele>66.400001525879</ele>
        <time>2023-05-24T09:23:46.000Z</time>
      </trkpt>
      <trkpt lat="43.68419" lon="3.58616">
        <ele>66</ele>
        <time>2023-05-24T09:23:50.000Z</time>
      </trkpt>
      <trkpt lat="43.68422" lon="3.58617">
        <ele>66</ele>
        <time>2023-05-24T09:23:53.000Z</time>
      </trkpt>
      <trkpt lat="43.68422" lon="3.58617">
        <ele>66.199996948242</ele>
        <time>2023-05-24T09:23:56.000Z</time>
      </trkpt>
      <trkpt lat="43.68423" lon="3.58618">
        <ele>66</ele>
        <time>2023-05-24T09:24:02.000Z</time>
      </trkpt>
      <trkpt lat="43.68423" lon="3.58619">
        <ele>66</ele>
        <time>2023-05-24T09:24:08.000Z</time>
      </trkpt>
      <trkpt lat="43.68423" lon="3.58619">
        <ele>65.199996948242</ele>
        <time>2023-05-24T09:24:10.000Z</time>
      </trkpt>
      <trkpt lat="43.68423" lon="3.58619">
        <ele>62.400001525879</ele>
        <time>2023-05-24T09:24:11.000Z</time>
      </trkpt>
      <trkpt lat="43.68422" lon="3.58618">
        <ele>60</ele>
        <time>2023-05-24T09:24:12.000Z</time>
      </trkpt>
      <trkpt lat="43.68425" lon="3.58617">
        <ele>61.799999237061</ele>
        <time>2023-05-24T09:24:14.000Z</time>
      </trkpt>
      <trkpt lat="43.68423" lon="3.58614">
        <ele>65.199996948242</ele>
        <time>2023-05-24T09:24:16.000Z</time>
      </trkpt>
      <trkpt lat="43.68424" lon="3.58614">
        <ele>67.800003051758</ele>
        <time>2023-05-24T09:24:17.000Z</time>
      </trkpt>
      <trkpt lat="43.68427" lon="3.58612">
        <ele>67.599998474121</ele>
        <time>2023-05-24T09:24:23.000Z</time>
      </trkpt>
      <trkpt lat="43.68428" lon="3.58612">
        <ele>66.400001525879</ele>
        <time>2023-05-24T09:24:24.000Z</time>
      </trkpt>
      <trkpt lat="43.68429" lon="3.58612">
        <ele>65.199996948242</ele>
        <time>2023-05-24T09:24:25.000Z</time>
      </trkpt>
      <trkpt lat="43.68433" lon="3.58614">
        <ele>66.400001525879</ele>
        <time>2023-05-24T09:24:30.000Z</time>
      </trkpt>
      <trkpt lat="43.68434" lon="3.58614">
        <ele>66.400001525879</ele>
        <time>2023-05-24T09:24:32.000Z</time>
      </trkpt>
      <trkpt lat="43.68436" lon="3.58611">
        <ele>66.599998474121</ele>
        <time>2023-05-24T09:24:36.000Z</time>
      </trkpt>
      <trkpt lat="43.68438" lon="3.58615">
        <ele>67</ele>
        <time>2023-05-24T09:24:42.000Z</time>
      </trkpt>
      <trkpt lat="43.68438" lon="3.58618">
        <ele>67</ele>
        <time>2023-05-24T09:24:44.000Z</time>
      </trkpt>
      <trkpt lat="43.68439" lon="3.58618">
        <ele>67.199996948242</ele>
        <time>2023-05-24T09:24:46.000Z</time>
      </trkpt>
      <trkpt lat="43.68441" lon="3.58618">
        <ele>67.400001525879</ele>
        <time>2023-05-24T09:24:48.000Z</time>
      </trkpt>
      <trkpt lat="43.68447" lon="3.58617">
        <ele>67.599998474121</ele>
        <time>2023-05-24T09:24:52.000Z</time>
      </trkpt>
      <trkpt lat="43.68451" lon="3.58617">
        <ele>67.800003051758</ele>
        <time>2023-05-24T09:24:55.000Z</time>
      </trkpt>
      <trkpt lat="43.68452" lon="3.58617">
        <ele>68</ele>
        <time>2023-05-24T09:24:58.000Z</time>
      </trkpt>
      <trkpt lat="43.68453" lon="3.58616">
        <ele>68.199996948242</ele>
        <time>2023-05-24T09:25:01.000Z</time>
      </trkpt>
      <trkpt lat="43.68453" lon="3.58614">
        <ele>68.199996948242</ele>
        <time>2023-05-24T09:25:03.000Z</time>
      </trkpt>
      <trkpt lat="43.68454" lon="3.58613">
        <ele>68.199996948242</ele>
        <time>2023-05-24T09:25:04.000Z</time>
      </trkpt>
      <trkpt lat="43.68452" lon="3.58615">
        <ele>68</ele>
        <time>2023-05-24T09:25:08.000Z</time>
      </trkpt>
      <trkpt lat="43.68452" lon="3.58617">
        <ele>68.199996948242</ele>
        <time>2023-05-24T09:25:13.000Z</time>
      </trkpt>
      <trkpt lat="43.68454" lon="3.58624">
        <ele>68.199996948242</ele>
        <time>2023-05-24T09:25:15.000Z</time>
      </trkpt>
      <trkpt lat="43.68456" lon="3.58626">
        <ele>68.199996948242</ele>
        <time>2023-05-24T09:25:17.000Z</time>
      </trkpt>
      <trkpt lat="43.68456" lon="3.58626">
        <ele>68.199996948242</ele>
        <time>2023-05-24T09:25:18.000Z</time>
      </trkpt>
      <trkpt lat="43.68458" lon="3.58627">
        <ele>68.199996948242</ele>
        <time>2023-05-24T09:25:20.000Z</time>
      </trkpt>
      <trkpt lat="43.68458" lon="3.58627">
        <ele>68.400001525879</ele>
        <time>2023-05-24T09:25:23.000Z</time>
      </trkpt>
      <trkpt lat="43.68459" lon="3.58627">
        <ele>68.400001525879</ele>
        <time>2023-05-24T09:25:24.000Z</time>
      </trkpt>
      <trkpt lat="43.68457" lon="3.58625">
        <ele>68.400001525879</ele>
        <time>2023-05-24T09:25:29.000Z</time>
      </trkpt>
      <trkpt lat="43.68457" lon="3.58625">
        <ele>68</ele>
        <time>2023-05-24T09:25:36.000Z</time>
      </trkpt>
      <trkpt lat="43.68457" lon="3.58622">
        <ele>68.400001525879</ele>
        <time>2023-05-24T09:25:44.000Z</time>
      </trkpt>
      <trkpt lat="43.68462" lon="3.58621">
        <ele>69.400001525879</ele>
        <time>2023-05-24T09:25:49.000Z</time>
      </trkpt>
      <trkpt lat="43.68462" lon="3.58621">
        <ele>68.599998474121</ele>
        <time>2023-05-24T09:25:50.000Z</time>
      </trkpt>
      <trkpt lat="43.68465" lon="3.58621">
        <ele>69</ele>
        <time>2023-05-24T09:25:56.000Z</time>
      </trkpt>
      <trkpt lat="43.68466" lon="3.58621">
        <ele>69.199996948242</ele>
        <time>2023-05-24T09:26:00.000Z</time>
      </trkpt>
      <trkpt lat="43.68465" lon="3.58632">
        <ele>69.599998474121</ele>
        <time>2023-05-24T09:26:05.000Z</time>
      </trkpt>
      <trkpt lat="43.68465" lon="3.58644">
        <ele>70.199996948242</ele>
        <time>2023-05-24T09:26:09.000Z</time>
      </trkpt>
      <trkpt lat="43.68466" lon="3.58645">
        <ele>70.400001525879</ele>
        <time>2023-05-24T09:26:12.000Z</time>
      </trkpt>
      <trkpt lat="43.68464" lon="3.58645">
        <ele>70.599998474121</ele>
        <time>2023-05-24T09:26:13.000Z</time>
      </trkpt>
      <trkpt lat="43.68468" lon="3.58645">
        <ele>70.599998474121</ele>
        <time>2023-05-24T09:26:16.000Z</time>
      </trkpt>
      <trkpt lat="43.68468" lon="3.58646">
        <ele>70.800003051758</ele>
        <time>2023-05-24T09:26:17.000Z</time>
      </trkpt>
      <trkpt lat="43.68469" lon="3.58646">
        <ele>70.800003051758</ele>
        <time>2023-05-24T09:26:19.000Z</time>
      </trkpt>
      <trkpt lat="43.68472" lon="3.58647">
        <ele>71</ele>
        <time>2023-05-24T09:26:22.000Z</time>
      </trkpt>
      <trkpt lat="43.68474" lon="3.58648">
        <ele>71</ele>
        <time>2023-05-24T09:26:24.000Z</time>
      </trkpt>
      <trkpt lat="43.68478" lon="3.58648">
        <ele>71</ele>
        <time>2023-05-24T09:26:28.000Z</time>
      </trkpt>
      <trkpt lat="43.68486" lon="3.58649">
        <ele>71.199996948242</ele>
        <time>2023-05-24T09:26:34.000Z</time>
      </trkpt>
      <trkpt lat="43.68487" lon="3.58649">
        <ele>71.400001525879</ele>
        <time>2023-05-24T09:26:37.000Z</time>
      </trkpt>
      <trkpt lat="43.68487" lon="3.58649">
        <ele>71.400001525879</ele>
        <time>2023-05-24T09:26:38.000Z</time>
      </trkpt>
      <trkpt lat="43.68489" lon="3.58648">
        <ele>71.400001525879</ele>
        <time>2023-05-24T09:26:40.000Z</time>
      </trkpt>
      <trkpt lat="43.68492" lon="3.58648">
        <ele>71.400001525879</ele>
        <time>2023-05-24T09:26:43.000Z</time>
      </trkpt>
      <trkpt lat="43.68493" lon="3.58648">
        <ele>71.400001525879</ele>
        <time>2023-05-24T09:26:44.000Z</time>
      </trkpt>
      <trkpt lat="43.68495" lon="3.58648">
        <ele>71.599998474121</ele>
        <time>2023-05-24T09:26:47.000Z</time>
      </trkpt>
      <trkpt lat="43.68495" lon="3.58648">
        <ele>71.599998474121</ele>
        <time>2023-05-24T09:26:48.000Z</time>
      </trkpt>
      <trkpt lat="43.68498" lon="3.58647">
        <ele>71.800003051758</ele>
        <time>2023-05-24T09:26:54.000Z</time>
      </trkpt>
      <trkpt lat="43.68499" lon="3.58645">
        <ele>71</ele>
        <time>2023-05-24T09:26:58.000Z</time>
      </trkpt>
      <trkpt lat="43.68502" lon="3.5864">
        <ele>70.800003051758</ele>
        <time>2023-05-24T09:27:02.000Z</time>
      </trkpt>
      <trkpt lat="43.68505" lon="3.58638">
        <ele>71.400001525879</ele>
        <time>2023-05-24T09:27:04.000Z</time>
      </trkpt>
      <trkpt lat="43.68506" lon="3.58637">
        <ele>72</ele>
        <time>2023-05-24T09:27:05.000Z</time>
      </trkpt>
      <trkpt lat="43.68509" lon="3.58635">
        <ele>72.800003051758</ele>
        <time>2023-05-24T09:27:07.000Z</time>
      </trkpt>
      <trkpt lat="43.6851" lon="3.58632">
        <ele>72.199996948242</ele>
        <time>2023-05-24T09:27:09.000Z</time>
      </trkpt>
      <trkpt lat="43.68511" lon="3.5863">
        <ele>72</ele>
        <time>2023-05-24T09:27:11.000Z</time>
      </trkpt>
      <trkpt lat="43.68512" lon="3.58628">
        <ele>72</ele>
        <time>2023-05-24T09:27:13.000Z</time>
      </trkpt>
      <trkpt lat="43.68515" lon="3.58628">
        <ele>71.800003051758</ele>
        <time>2023-05-24T09:27:15.000Z</time>
      </trkpt>
      <trkpt lat="43.68516" lon="3.58627">
        <ele>71.400001525879</ele>
        <time>2023-05-24T09:27:16.000Z</time>
      </trkpt>
      <trkpt lat="43.68518" lon="3.58625">
        <ele>71.599998474121</ele>
        <time>2023-05-24T09:27:19.000Z</time>
      </trkpt>
      <trkpt lat="43.68521" lon="3.58625">
        <ele>72.400001525879</ele>
        <time>2023-05-24T09:27:21.000Z</time>
      </trkpt>
      <trkpt lat="43.68522" lon="3.58624">
        <ele>73</ele>
        <time>2023-05-24T09:27:22.000Z</time>
      </trkpt>
      <trkpt lat="43.68523" lon="3.58624">
        <ele>74.199996948242</ele>
        <time>2023-05-24T09:27:23.000Z</time>
      </trkpt>
      <trkpt lat="43.68527" lon="3.58625">
        <ele>73.400001525879</ele>
        <time>2023-05-24T09:27:25.000Z</time>
      </trkpt>
      <trkpt lat="43.68528" lon="3.58627">
        <ele>71.400001525879</ele>
        <time>2023-05-24T09:27:26.000Z</time>
      </trkpt>
      <trkpt lat="43.6853" lon="3.58627">
        <ele>70.400001525879</ele>
        <time>2023-05-24T09:27:27.000Z</time>
      </trkpt>
      <trkpt lat="43.68531" lon="3.58628">
        <ele>69.400001525879</ele>
        <time>2023-05-24T09:27:28.000Z</time>
      </trkpt>
      <trkpt lat="43.68532" lon="3.58628">
        <ele>70.400001525879</ele>
        <time>2023-05-24T09:27:29.000Z</time>
      </trkpt>
      <trkpt lat="43.68533" lon="3.58628">
        <ele>71.400001525879</ele>
        <time>2023-05-24T09:27:30.000Z</time>
      </trkpt>
      <trkpt lat="43.68535" lon="3.58627">
        <ele>73.199996948242</ele>
        <time>2023-05-24T09:27:31.000Z</time>
      </trkpt>
      <trkpt lat="43.68538" lon="3.58627">
        <ele>73.199996948242</ele>
        <time>2023-05-24T09:27:33.000Z</time>
      </trkpt>
      <trkpt lat="43.68543" lon="3.58627">
        <ele>74.199996948242</ele>
        <time>2023-05-24T09:27:36.000Z</time>
      </trkpt>
      <trkpt lat="43.68544" lon="3.58626">
        <ele>76</ele>
        <time>2023-05-24T09:27:37.000Z</time>
      </trkpt>
      <trkpt lat="43.68546" lon="3.58626">
        <ele>79.400001525879</ele>
        <time>2023-05-24T09:27:38.000Z</time>
      </trkpt>
      <trkpt lat="43.68546" lon="3.58624">
        <ele>78.800003051758</ele>
        <time>2023-05-24T09:27:41.000Z</time>
      </trkpt>
      <trkpt lat="43.68547" lon="3.58623">
        <ele>77.199996948242</ele>
        <time>2023-05-24T09:27:42.000Z</time>
      </trkpt>
      <trkpt lat="43.68548" lon="3.58623">
        <ele>76</ele>
        <time>2023-05-24T09:27:43.000Z</time>
      </trkpt>
      <trkpt lat="43.68549" lon="3.58623">
        <ele>77.199996948242</ele>
        <time>2023-05-24T09:27:44.000Z</time>
      </trkpt>
      <trkpt lat="43.6855" lon="3.58623">
        <ele>76.199996948242</ele>
        <time>2023-05-24T09:27:46.000Z</time>
      </trkpt>
      <trkpt lat="43.6855" lon="3.58623">
        <ele>75.199996948242</ele>
        <time>2023-05-24T09:27:47.000Z</time>
      </trkpt>
      <trkpt lat="43.6855" lon="3.58623">
        <ele>74.199996948242</ele>
        <time>2023-05-24T09:27:48.000Z</time>
      </trkpt>
      <trkpt lat="43.6855" lon="3.58623">
        <ele>73</ele>
        <time>2023-05-24T09:27:50.000Z</time>
      </trkpt>
      <trkpt lat="43.6855" lon="3.58622">
        <ele>74.400001525879</ele>
        <time>2023-05-24T09:27:51.000Z</time>
      </trkpt>
      <trkpt lat="43.6855" lon="3.58624">
        <ele>74.599998474121</ele>
        <time>2023-05-24T09:27:52.000Z</time>
      </trkpt>
      <trkpt lat="43.6855" lon="3.58624">
        <ele>75.599998474121</ele>
        <time>2023-05-24T09:27:53.000Z</time>
      </trkpt>
      <trkpt lat="43.68555" lon="3.58622">
        <ele>74.199996948242</ele>
        <time>2023-05-24T09:27:56.000Z</time>
      </trkpt>
      <trkpt lat="43.68557" lon="3.5862">
        <ele>75.599998474121</ele>
        <time>2023-05-24T09:27:58.000Z</time>
      </trkpt>
      <trkpt lat="43.6856" lon="3.58619">
        <ele>77.400001525879</ele>
        <time>2023-05-24T09:28:00.000Z</time>
      </trkpt>
      <trkpt lat="43.68561" lon="3.58618">
        <ele>77</ele>
        <time>2023-05-24T09:28:04.000Z</time>
      </trkpt>
      <trkpt lat="43.68562" lon="3.58619">
        <ele>75.800003051758</ele>
        <time>2023-05-24T09:28:05.000Z</time>
      </trkpt>
      <trkpt lat="43.68564" lon="3.58619">
        <ele>75.599998474121</ele>
        <time>2023-05-24T09:28:06.000Z</time>
      </trkpt>
      <trkpt lat="43.68565" lon="3.58618">
        <ele>75</ele>
        <time>2023-05-24T09:28:10.000Z</time>
      </trkpt>
      <trkpt lat="43.68564" lon="3.58618">
        <ele>74.599998474121</ele>
        <time>2023-05-24T09:28:11.000Z</time>
      </trkpt>
      <trkpt lat="43.68562" lon="3.58619">
        <ele>72.400001525879</ele>
        <time>2023-05-24T09:28:14.000Z</time>
      </trkpt>
      <trkpt lat="43.68561" lon="3.5862">
        <ele>71.800003051758</ele>
        <time>2023-05-24T09:28:16.000Z</time>
      </trkpt>
      <trkpt lat="43.6856" lon="3.5862">
        <ele>71.400001525879</ele>
        <time>2023-05-24T09:28:17.000Z</time>
      </trkpt>
      <trkpt lat="43.6856" lon="3.5862">
        <ele>70</ele>
        <time>2023-05-24T09:28:19.000Z</time>
      </trkpt>
      <trkpt lat="43.68561" lon="3.5862">
        <ele>71.599998474121</ele>
        <time>2023-05-24T09:28:20.000Z</time>
      </trkpt>
      <trkpt lat="43.6856" lon="3.58622">
        <ele>71.400001525879</ele>
        <time>2023-05-24T09:28:21.000Z</time>
      </trkpt>
      <trkpt lat="43.68561" lon="3.5862">
        <ele>73.199996948242</ele>
        <time>2023-05-24T09:28:24.000Z</time>
      </trkpt>
      <trkpt lat="43.6856" lon="3.58623">
        <ele>71.199996948242</ele>
        <time>2023-05-24T09:28:28.000Z</time>
      </trkpt>
      <trkpt lat="43.68562" lon="3.58623">
        <ele>67.599998474121</ele>
        <time>2023-05-24T09:28:34.000Z</time>
      </trkpt>
      <trkpt lat="43.68562" lon="3.58623">
        <ele>68.800003051758</ele>
        <time>2023-05-24T09:28:35.000Z</time>
      </trkpt>
      <trkpt lat="43.68562" lon="3.58623">
        <ele>73.400001525879</ele>
        <time>2023-05-24T09:28:39.000Z</time>
      </trkpt>
      <trkpt lat="43.68562" lon="3.58622">
        <ele>72.199996948242</ele>
        <time>2023-05-24T09:28:40.000Z</time>
      </trkpt>
      <trkpt lat="43.68563" lon="3.58625">
        <ele>73.400001525879</ele>
        <time>2023-05-24T09:28:42.000Z</time>
      </trkpt>
      <trkpt lat="43.68562" lon="3.58622">
        <ele>73.400001525879</ele>
        <time>2023-05-24T09:28:43.000Z</time>
      </trkpt>
      <trkpt lat="43.68562" lon="3.58623">
        <ele>73</ele>
        <time>2023-05-24T09:28:52.000Z</time>
      </trkpt>
      <trkpt lat="43.6856" lon="3.58625">
        <ele>75</ele>
        <time>2023-05-24T09:28:55.000Z</time>
      </trkpt>
      <trkpt lat="43.6856" lon="3.58626">
        <ele>73.400001525879</ele>
        <time>2023-05-24T09:28:56.000Z</time>
      </trkpt>
      <trkpt lat="43.6856" lon="3.58626">
        <ele>76.400001525879</ele>
        <time>2023-05-24T09:28:58.000Z</time>
      </trkpt>
      <trkpt lat="43.6856" lon="3.58626">
        <ele>77</ele>
        <time>2023-05-24T09:28:59.000Z</time>
      </trkpt>
      <trkpt lat="43.6856" lon="3.58627">
        <ele>76.199996948242</ele>
        <time>2023-05-24T09:29:08.000Z</time>
      </trkpt>
      <trkpt lat="43.6856" lon="3.58628">
        <ele>76</ele>
        <time>2023-05-24T09:29:18.000Z</time>
      </trkpt>
      <trkpt lat="43.6856" lon="3.58629">
        <ele>77</ele>
        <time>2023-05-24T09:29:32.000Z</time>
      </trkpt>
      <trkpt lat="43.68561" lon="3.5863">
        <ele>77.400001525879</ele>
        <time>2023-05-24T09:29:36.000Z</time>
      </trkpt>
      <trkpt lat="43.68561" lon="3.58631">
        <ele>78.400001525879</ele>
        <time>2023-05-24T09:29:41.000Z</time>
      </trkpt>
      <trkpt lat="43.68561" lon="3.58631">
        <ele>78.599998474121</ele>
        <time>2023-05-24T09:29:42.000Z</time>
      </trkpt>
      <trkpt lat="43.6856" lon="3.58631">
        <ele>78.199996948242</ele>
        <time>2023-05-24T09:29:51.000Z</time>
      </trkpt>
      <trkpt lat="43.68559" lon="3.58631">
        <ele>77.400001525879</ele>
        <time>2023-05-24T09:30:00.000Z</time>
      </trkpt>
      <trkpt lat="43.6856" lon="3.5863">
        <ele>77.800003051758</ele>
        <time>2023-05-24T09:30:09.000Z</time>
      </trkpt>
      <trkpt lat="43.6856" lon="3.5863">
        <ele>77.599998474121</ele>
        <time>2023-05-24T09:30:17.000Z</time>
      </trkpt>
      <trkpt lat="43.68559" lon="3.5863">
        <ele>77.800003051758</ele>
        <time>2023-05-24T09:30:25.000Z</time>
      </trkpt>
      <trkpt lat="43.68559" lon="3.58632">
        <ele>78.400001525879</ele>
        <time>2023-05-24T09:30:28.000Z</time>
      </trkpt>
      <trkpt lat="43.68559" lon="3.58632">
        <ele>78.800003051758</ele>
        <time>2023-05-24T09:30:33.000Z</time>
      </trkpt>
      <trkpt lat="43.68558" lon="3.58631">
        <ele>78.400001525879</ele>
        <time>2023-05-24T09:30:42.000Z</time>
      </trkpt>
      <trkpt lat="43.68559" lon="3.5863">
        <ele>78.400001525879</ele>
        <time>2023-05-24T09:30:51.000Z</time>
      </trkpt>
      <trkpt lat="43.68558" lon="3.58629">
        <ele>79.599998474121</ele>
        <time>2023-05-24T09:30:57.000Z</time>
      </trkpt>
      <trkpt lat="43.68559" lon="3.5863">
        <ele>79.599998474121</ele>
        <time>2023-05-24T09:30:59.000Z</time>
      </trkpt>
      <trkpt lat="43.68559" lon="3.5863">
        <ele>80.599998474121</ele>
        <time>2023-05-24T09:31:08.000Z</time>
      </trkpt>
      <trkpt lat="43.68559" lon="3.5863">
        <ele>81</ele>
        <time>2023-05-24T09:31:11.000Z</time>
      </trkpt>
      <trkpt lat="43.68559" lon="3.5863">
        <ele>81.400001525879</ele>
        <time>2023-05-24T09:31:33.000Z</time>
      </trkpt>
      <trkpt lat="43.68558" lon="3.5863">
        <ele>81.599998474121</ele>
        <time>2023-05-24T09:31:46.000Z</time>
      </trkpt>
      <trkpt lat="43.68558" lon="3.5863">
        <ele>80.400001525879</ele>
        <time>2023-05-24T09:31:56.000Z</time>
      </trkpt>
      <trkpt lat="43.68557" lon="3.58629">
        <ele>79.599998474121</ele>
        <time>2023-05-24T09:32:08.000Z</time>
      </trkpt>
      <trkpt lat="43.68557" lon="3.58629">
        <ele>78.400001525879</ele>
        <time>2023-05-24T09:32:16.000Z</time>
      </trkpt>
      <trkpt lat="43.68557" lon="3.58629">
        <ele>78.400001525879</ele>
        <time>2023-05-24T09:32:19.000Z</time>
      </trkpt>
      <trkpt lat="43.68556" lon="3.58629">
        <ele>78.800003051758</ele>
        <time>2023-05-24T09:32:29.000Z</time>
      </trkpt>
      <trkpt lat="43.68557" lon="3.58629">
        <ele>79.599998474121</ele>
        <time>2023-05-24T09:32:35.000Z</time>
      </trkpt>
      <trkpt lat="43.68556" lon="3.58629">
        <ele>79.800003051758</ele>
        <time>2023-05-24T09:32:43.000Z</time>
      </trkpt>
      <trkpt lat="43.68557" lon="3.58629">
        <ele>79.800003051758</ele>
        <time>2023-05-24T09:32:51.000Z</time>
      </trkpt>
      <trkpt lat="43.68557" lon="3.58628">
        <ele>78.599998474121</ele>
        <time>2023-05-24T09:33:01.000Z</time>
      </trkpt>
      <trkpt lat="43.68557" lon="3.58629">
        <ele>78.400001525879</ele>
        <time>2023-05-24T09:33:03.000Z</time>
      </trkpt>
      <trkpt lat="43.68557" lon="3.58629">
        <ele>79</ele>
        <time>2023-05-24T09:33:15.000Z</time>
      </trkpt>
      <trkpt lat="43.68557" lon="3.58628">
        <ele>79</ele>
        <time>2023-05-24T09:33:29.000Z</time>
      </trkpt>
      <trkpt lat="43.68556" lon="3.58627">
        <ele>78.599998474121</ele>
        <time>2023-05-24T09:33:46.000Z</time>
      </trkpt>
      <trkpt lat="43.68556" lon="3.58627">
        <ele>79.599998474121</ele>
        <time>2023-05-24T09:34:00.000Z</time>
      </trkpt>
      <trkpt lat="43.68556" lon="3.58627">
        <ele>80</ele>
        <time>2023-05-24T09:34:03.000Z</time>
      </trkpt>
      <trkpt lat="43.68555" lon="3.58626">
        <ele>80.599998474121</ele>
        <time>2023-05-24T09:34:09.000Z</time>
      </trkpt>
      <trkpt lat="43.68555" lon="3.58627">
        <ele>80.800003051758</ele>
        <time>2023-05-24T09:34:18.000Z</time>
      </trkpt>
      <trkpt lat="43.68555" lon="3.58627">
        <ele>80.599998474121</ele>
        <time>2023-05-24T09:34:27.000Z</time>
      </trkpt>
      <trkpt lat="43.68555" lon="3.58627">
        <ele>81</ele>
        <time>2023-05-24T09:34:40.000Z</time>
      </trkpt>
      <trkpt lat="43.68555" lon="3.58627">
        <ele>80.599998474121</ele>
        <time>2023-05-24T09:34:49.000Z</time>
      </trkpt>
      <trkpt lat="43.68555" lon="3.58626">
        <ele>80.800003051758</ele>
        <time>2023-05-24T09:35:00.000Z</time>
      </trkpt>
      <trkpt lat="43.68555" lon="3.58626">
        <ele>81</ele>
        <time>2023-05-24T09:35:13.000Z</time>
      </trkpt>
      <trkpt lat="43.68555" lon="3.58625">
        <ele>80</ele>
        <time>2023-05-24T09:35:24.000Z</time>
      </trkpt>
      <trkpt lat="43.68555" lon="3.58625">
        <ele>79.599998474121</ele>
        <time>2023-05-24T09:35:26.000Z</time>
      </trkpt>
      <trkpt lat="43.68555" lon="3.58625">
        <ele>77</ele>
        <time>2023-05-24T09:35:28.000Z</time>
      </trkpt>
      <trkpt lat="43.68555" lon="3.58625">
        <ele>79</ele>
        <time>2023-05-24T09:35:31.000Z</time>
      </trkpt>
      <trkpt lat="43.68554" lon="3.58625">
        <ele>76.800003051758</ele>
        <time>2023-05-24T09:35:35.000Z</time>
      </trkpt>
      <trkpt lat="43.68554" lon="3.58625">
        <ele>75.400001525879</ele>
        <time>2023-05-24T09:35:36.000Z</time>
      </trkpt>
      <trkpt lat="43.68554" lon="3.58624">
        <ele>74.400001525879</ele>
        <time>2023-05-24T09:35:47.000Z</time>
      </trkpt>
      <trkpt lat="43.68554" lon="3.58624">
        <ele>71.800003051758</ele>
        <time>2023-05-24T09:35:49.000Z</time>
      </trkpt>
      <trkpt lat="43.68554" lon="3.58624">
        <ele>74.599998474121</ele>
        <time>2023-05-24T09:35:54.000Z</time>
      </trkpt>
      <trkpt lat="43.68554" lon="3.58624">
        <ele>75.800003051758</ele>
        <time>2023-05-24T09:35:55.000Z</time>
      </trkpt>
      <trkpt lat="43.68554" lon="3.58623">
        <ele>77</ele>
        <time>2023-05-24T09:35:57.000Z</time>
      </trkpt>
      <trkpt lat="43.68554" lon="3.58623">
        <ele>75.599998474121</ele>
        <time>2023-05-24T09:36:01.000Z</time>
      </trkpt>
      <trkpt lat="43.68554" lon="3.58623">
        <ele>74.400001525879</ele>
        <time>2023-05-24T09:36:02.000Z</time>
      </trkpt>
      <trkpt lat="43.68554" lon="3.58623">
        <ele>76.599998474121</ele>
        <time>2023-05-24T09:36:06.000Z</time>
      </trkpt>
      <trkpt lat="43.68554" lon="3.58623">
        <ele>78.400001525879</ele>
        <time>2023-05-24T09:36:07.000Z</time>
      </trkpt>
      <trkpt lat="43.68554" lon="3.58623">
        <ele>78</ele>
        <time>2023-05-24T09:36:09.000Z</time>
      </trkpt>
      <trkpt lat="43.68554" lon="3.58623">
        <ele>79.599998474121</ele>
        <time>2023-05-24T09:36:10.000Z</time>
      </trkpt>
      <trkpt lat="43.68554" lon="3.58623">
        <ele>79.800003051758</ele>
        <time>2023-05-24T09:36:26.000Z</time>
      </trkpt>
      <trkpt lat="43.68554" lon="3.58622">
        <ele>80.599998474121</ele>
        <time>2023-05-24T09:36:40.000Z</time>
      </trkpt>
      <trkpt lat="43.68554" lon="3.58623">
        <ele>81.199996948242</ele>
        <time>2023-05-24T09:36:55.000Z</time>
      </trkpt>
      <trkpt lat="43.68554" lon="3.58623">
        <ele>82.800003051758</ele>
        <time>2023-05-24T09:36:57.000Z</time>
      </trkpt>
      <trkpt lat="43.68554" lon="3.58623">
        <ele>85</ele>
        <time>2023-05-24T09:36:58.000Z</time>
      </trkpt>
      <trkpt lat="43.68554" lon="3.58623">
        <ele>83.199996948242</ele>
        <time>2023-05-24T09:37:03.000Z</time>
      </trkpt>
      <trkpt lat="43.68554" lon="3.58623">
        <ele>81.800003051758</ele>
        <time>2023-05-24T09:37:04.000Z</time>
      </trkpt>
      <trkpt lat="43.68554" lon="3.58623">
        <ele>79.400001525879</ele>
        <time>2023-05-24T09:37:05.000Z</time>
      </trkpt>
      <trkpt lat="43.68554" lon="3.58623">
        <ele>77</ele>
        <time>2023-05-24T09:37:07.000Z</time>
      </trkpt>
      <trkpt lat="43.68554" lon="3.58623">
        <ele>76</ele>
        <time>2023-05-24T09:37:08.000Z</time>
      </trkpt>
      <trkpt lat="43.68554" lon="3.58623">
        <ele>78.599998474121</ele>
        <time>2023-05-24T09:37:12.000Z</time>
      </trkpt>
      <trkpt lat="43.68554" lon="3.58623">
        <ele>81</ele>
        <time>2023-05-24T09:37:14.000Z</time>
      </trkpt>
      <trkpt lat="43.68554" lon="3.58623">
        <ele>82.199996948242</ele>
        <time>2023-05-24T09:37:15.000Z</time>
      </trkpt>
      <trkpt lat="43.68554" lon="3.58623">
        <ele>83.599998474121</ele>
        <time>2023-05-24T09:37:16.000Z</time>
      </trkpt>
      <trkpt lat="43.68554" lon="3.58623">
        <ele>85.199996948242</ele>
        <time>2023-05-24T09:37:18.000Z</time>
      </trkpt>
      <trkpt lat="43.68554" lon="3.58623">
        <ele>88</ele>
        <time>2023-05-24T09:37:20.000Z</time>
      </trkpt>
      <trkpt lat="43.68554" lon="3.58623">
        <ele>86</ele>
        <time>2023-05-24T09:37:24.000Z</time>
      </trkpt>
      <trkpt lat="43.68554" lon="3.58623">
        <ele>83</ele>
        <time>2023-05-24T09:37:25.000Z</time>
      </trkpt>
      <trkpt lat="43.68554" lon="3.58623">
        <ele>80.599998474121</ele>
        <time>2023-05-24T09:37:26.000Z</time>
      </trkpt>
      <trkpt lat="43.68554" lon="3.58623">
        <ele>78.599998474121</ele>
        <time>2023-05-24T09:37:27.000Z</time>
      </trkpt>
      <trkpt lat="43.68554" lon="3.58623">
        <ele>77.199996948242</ele>
        <time>2023-05-24T09:37:32.000Z</time>
      </trkpt>
      <trkpt lat="43.68554" lon="3.58623">
        <ele>75.400001525879</ele>
        <time>2023-05-24T09:37:34.000Z</time>
      </trkpt>
      <trkpt lat="43.68554" lon="3.58624">
        <ele>76.800003051758</ele>
        <time>2023-05-24T09:37:39.000Z</time>
      </trkpt>
      <trkpt lat="43.68554" lon="3.58623">
        <ele>77.599998474121</ele>
        <time>2023-05-24T09:37:52.000Z</time>
      </trkpt>
      <trkpt lat="43.68554" lon="3.58623">
        <ele>78</ele>
        <time>2023-05-24T09:37:54.000Z</time>
      </trkpt>
      <trkpt lat="43.68554" lon="3.58623">
        <ele>79</ele>
        <time>2023-05-24T09:38:01.000Z</time>
      </trkpt>
      <trkpt lat="43.68554" lon="3.58623">
        <ele>80</ele>
        <time>2023-05-24T09:38:07.000Z</time>
      </trkpt>
      <trkpt lat="43.68554" lon="3.58623">
        <ele>80.400001525879</ele>
        <time>2023-05-24T09:38:09.000Z</time>
      </trkpt>
      <trkpt lat="43.68553" lon="3.58621">
        <ele>81.199996948242</ele>
        <time>2023-05-24T09:38:16.000Z</time>
      </trkpt>
      <trkpt lat="43.68553" lon="3.58622">
        <ele>81.400001525879</ele>
        <time>2023-05-24T09:38:23.000Z</time>
      </trkpt>
      <trkpt lat="43.68553" lon="3.5862">
        <ele>82.199996948242</ele>
        <time>2023-05-24T09:38:26.000Z</time>
      </trkpt>
      <trkpt lat="43.68553" lon="3.5862">
        <ele>83.599998474121</ele>
        <time>2023-05-24T09:38:32.000Z</time>
      </trkpt>
      <trkpt lat="43.68553" lon="3.5862">
        <ele>82.199996948242</ele>
        <time>2023-05-24T09:38:35.000Z</time>
      </trkpt>
      <trkpt lat="43.68552" lon="3.58619">
        <ele>82.199996948242</ele>
        <time>2023-05-24T09:38:52.000Z</time>
      </trkpt>
      <trkpt lat="43.68552" lon="3.58619">
        <ele>81.199996948242</ele>
        <time>2023-05-24T09:38:59.000Z</time>
      </trkpt>
      <trkpt lat="43.68552" lon="3.58619">
        <ele>81</ele>
        <time>2023-05-24T09:39:07.000Z</time>
      </trkpt>
      <trkpt lat="43.68551" lon="3.5862">
        <ele>82.400001525879</ele>
        <time>2023-05-24T09:39:14.000Z</time>
      </trkpt>
      <trkpt lat="43.68554" lon="3.5862">
        <ele>84</ele>
        <time>2023-05-24T09:39:19.000Z</time>
      </trkpt>
      <trkpt lat="43.68554" lon="3.5862">
        <ele>82.599998474121</ele>
        <time>2023-05-24T09:39:20.000Z</time>
      </trkpt>
      <trkpt lat="43.68554" lon="3.5862">
        <ele>81</ele>
        <time>2023-05-24T09:39:21.000Z</time>
      </trkpt>
      <trkpt lat="43.68554" lon="3.5862">
        <ele>79.199996948242</ele>
        <time>2023-05-24T09:39:22.000Z</time>
      </trkpt>
      <trkpt lat="43.68554" lon="3.5862">
        <ele>77.800003051758</ele>
        <time>2023-05-24T09:39:23.000Z</time>
      </trkpt>
      <trkpt lat="43.68555" lon="3.5862">
        <ele>79</ele>
        <time>2023-05-24T09:39:25.000Z</time>
      </trkpt>
      <trkpt lat="43.68555" lon="3.5862">
        <ele>80</ele>
        <time>2023-05-24T09:39:26.000Z</time>
      </trkpt>
      <trkpt lat="43.68555" lon="3.5862">
        <ele>79</ele>
        <time>2023-05-24T09:39:27.000Z</time>
      </trkpt>
      <trkpt lat="43.68555" lon="3.5862">
        <ele>79.400001525879</ele>
        <time>2023-05-24T09:39:28.000Z</time>
      </trkpt>
      <trkpt lat="43.68555" lon="3.5862">
        <ele>80.199996948242</ele>
        <time>2023-05-24T09:39:32.000Z</time>
      </trkpt>
      <trkpt lat="43.68555" lon="3.5862">
        <ele>81.599998474121</ele>
        <time>2023-05-24T09:39:36.000Z</time>
      </trkpt>
      <trkpt lat="43.68557" lon="3.5862">
        <ele>82.599998474121</ele>
        <time>2023-05-24T09:39:39.000Z</time>
      </trkpt>
      <trkpt lat="43.68557" lon="3.5862">
        <ele>83.199996948242</ele>
        <time>2023-05-24T09:39:43.000Z</time>
      </trkpt>
      <trkpt lat="43.68557" lon="3.5862">
        <ele>83.599998474121</ele>
        <time>2023-05-24T09:39:50.000Z</time>
      </trkpt>
      <trkpt lat="43.68558" lon="3.5862">
        <ele>84</ele>
        <time>2023-05-24T09:40:02.000Z</time>
      </trkpt>
      <trkpt lat="43.68558" lon="3.5862">
        <ele>84</ele>
        <time>2023-05-24T09:40:11.000Z</time>
      </trkpt>
      <trkpt lat="43.68557" lon="3.58621">
        <ele>84.199996948242</ele>
        <time>2023-05-24T09:40:22.000Z</time>
      </trkpt>
      <trkpt lat="43.68557" lon="3.58622">
        <ele>84.400001525879</ele>
        <time>2023-05-24T09:40:40.000Z</time>
      </trkpt>
      <trkpt lat="43.68556" lon="3.58623">
        <ele>84.400001525879</ele>
        <time>2023-05-24T09:40:55.000Z</time>
      </trkpt>
      <trkpt lat="43.68556" lon="3.58624">
        <ele>82.599998474121</ele>
        <time>2023-05-24T09:41:09.000Z</time>
      </trkpt>
      <trkpt lat="43.68555" lon="3.58624">
        <ele>82</ele>
        <time>2023-05-24T09:41:14.000Z</time>
      </trkpt>
      <trkpt lat="43.68555" lon="3.58624">
        <ele>81.400001525879</ele>
        <time>2023-05-24T09:41:18.000Z</time>
      </trkpt>
      <trkpt lat="43.68555" lon="3.58624">
        <ele>79.599998474121</ele>
        <time>2023-05-24T09:41:20.000Z</time>
      </trkpt>
      <trkpt lat="43.68555" lon="3.58624">
        <ele>80.400001525879</ele>
        <time>2023-05-24T09:41:25.000Z</time>
      </trkpt>
      <trkpt lat="43.68555" lon="3.58624">
        <ele>79</ele>
        <time>2023-05-24T09:41:35.000Z</time>
      </trkpt>
      <trkpt lat="43.68555" lon="3.58624">
        <ele>78.599998474121</ele>
        <time>2023-05-24T09:41:39.000Z</time>
      </trkpt>
      <trkpt lat="43.68555" lon="3.58623">
        <ele>77.400001525879</ele>
        <time>2023-05-24T09:41:46.000Z</time>
      </trkpt>
      <trkpt lat="43.68556" lon="3.58623">
        <ele>76.800003051758</ele>
        <time>2023-05-24T09:41:51.000Z</time>
      </trkpt>
      <trkpt lat="43.68556" lon="3.58623">
        <ele>76.199996948242</ele>
        <time>2023-05-24T09:41:54.000Z</time>
      </trkpt>
      <trkpt lat="43.68556" lon="3.58624">
        <ele>75.199996948242</ele>
        <time>2023-05-24T09:42:01.000Z</time>
      </trkpt>
      <trkpt lat="43.68556" lon="3.58625">
        <ele>74.800003051758</ele>
        <time>2023-05-24T09:42:04.000Z</time>
      </trkpt>
      <trkpt lat="43.68556" lon="3.58625">
        <ele>74.199996948242</ele>
        <time>2023-05-24T09:42:08.000Z</time>
      </trkpt>
      <trkpt lat="43.68556" lon="3.58625">
        <ele>70</ele>
        <time>2023-05-24T09:42:14.000Z</time>
      </trkpt>
      <trkpt lat="43.68556" lon="3.58625">
        <ele>69</ele>
        <time>2023-05-24T09:42:15.000Z</time>
      </trkpt>
      <trkpt lat="43.68556" lon="3.58625">
        <ele>64.599998474121</ele>
        <time>2023-05-24T09:42:16.000Z</time>
      </trkpt>
      <trkpt lat="43.68556" lon="3.58625">
        <ele>60.200000762939</ele>
        <time>2023-05-24T09:42:17.000Z</time>
      </trkpt>
      <trkpt lat="43.68556" lon="3.58625">
        <ele>54.799999237061</ele>
        <time>2023-05-24T09:42:18.000Z</time>
      </trkpt>
      <trkpt lat="43.68556" lon="3.58625">
        <ele>52.400001525879</ele>
        <time>2023-05-24T09:42:20.000Z</time>
      </trkpt>
      <trkpt lat="43.68557" lon="3.58626">
        <ele>53.400001525879</ele>
        <time>2023-05-24T09:42:28.000Z</time>
      </trkpt>
      <trkpt lat="43.68557" lon="3.58626">
        <ele>53.599998474121</ele>
        <time>2023-05-24T09:42:29.000Z</time>
      </trkpt>
      <trkpt lat="43.68558" lon="3.58626">
        <ele>52.599998474121</ele>
        <time>2023-05-24T09:42:44.000Z</time>
      </trkpt>
      <trkpt lat="43.68558" lon="3.58626">
        <ele>52.400001525879</ele>
        <time>2023-05-24T09:42:46.000Z</time>
      </trkpt>
      <trkpt lat="43.68558" lon="3.58626">
        <ele>51.799999237061</ele>
        <time>2023-05-24T09:42:57.000Z</time>
      </trkpt>
      <trkpt lat="43.68559" lon="3.58626">
        <ele>52</ele>
        <time>2023-05-24T09:43:04.000Z</time>
      </trkpt>
      <trkpt lat="43.68559" lon="3.58626">
        <ele>53.400001525879</ele>
        <time>2023-05-24T09:43:14.000Z</time>
      </trkpt>
      <trkpt lat="43.68559" lon="3.58626">
        <ele>53.599998474121</ele>
        <time>2023-05-24T09:43:15.000Z</time>
      </trkpt>
      <trkpt lat="43.68558" lon="3.58626">
        <ele>54.400001525879</ele>
        <time>2023-05-24T09:43:20.000Z</time>
      </trkpt>
      <trkpt lat="43.68558" lon="3.58626">
        <ele>55.400001525879</ele>
        <time>2023-05-24T09:43:26.000Z</time>
      </trkpt>
      <trkpt lat="43.68557" lon="3.58626">
        <ele>56.599998474121</ele>
        <time>2023-05-24T09:43:32.000Z</time>
      </trkpt>
      <trkpt lat="43.68557" lon="3.58626">
        <ele>57.200000762939</ele>
        <time>2023-05-24T09:43:35.000Z</time>
      </trkpt>
      <trkpt lat="43.68556" lon="3.58627">
        <ele>57.799999237061</ele>
        <time>2023-05-24T09:43:38.000Z</time>
      </trkpt>
      <trkpt lat="43.68555" lon="3.58627">
        <ele>58.799999237061</ele>
        <time>2023-05-24T09:43:44.000Z</time>
      </trkpt>
      <trkpt lat="43.68555" lon="3.58627">
        <ele>59.799999237061</ele>
        <time>2023-05-24T09:43:49.000Z</time>
      </trkpt>
      <trkpt lat="43.68555" lon="3.58627">
        <ele>60.799999237061</ele>
        <time>2023-05-24T09:43:52.000Z</time>
      </trkpt>
      <trkpt lat="43.68555" lon="3.58627">
        <ele>61</ele>
        <time>2023-05-24T09:43:53.000Z</time>
      </trkpt>
      <trkpt lat="43.68557" lon="3.58627">
        <ele>62</ele>
        <time>2023-05-24T09:44:00.000Z</time>
      </trkpt>
      <trkpt lat="43.68557" lon="3.58626">
        <ele>61.200000762939</ele>
        <time>2023-05-24T09:44:02.000Z</time>
      </trkpt>
      <trkpt lat="43.68557" lon="3.58626">
        <ele>63.599998474121</ele>
        <time>2023-05-24T09:44:06.000Z</time>
      </trkpt>
      <trkpt lat="43.68557" lon="3.58626">
        <ele>64.599998474121</ele>
        <time>2023-05-24T09:44:08.000Z</time>
      </trkpt>
      <trkpt lat="43.68558" lon="3.58625">
        <ele>64.199996948242</ele>
        <time>2023-05-24T09:44:13.000Z</time>
      </trkpt>
      <trkpt lat="43.68559" lon="3.58626">
        <ele>65.800003051758</ele>
        <time>2023-05-24T09:44:22.000Z</time>
      </trkpt>
      <trkpt lat="43.68559" lon="3.58627">
        <ele>66.800003051758</ele>
        <time>2023-05-24T09:44:27.000Z</time>
      </trkpt>
      <trkpt lat="43.68559" lon="3.58627">
        <ele>66.800003051758</ele>
        <time>2023-05-24T09:44:28.000Z</time>
      </trkpt>
      <trkpt lat="43.6856" lon="3.58628">
        <ele>67.800003051758</ele>
        <time>2023-05-24T09:44:33.000Z</time>
      </trkpt>
      <trkpt lat="43.68559" lon="3.58628">
        <ele>68.199996948242</ele>
        <time>2023-05-24T09:44:35.000Z</time>
      </trkpt>
      <trkpt lat="43.68559" lon="3.58628">
        <ele>69</ele>
        <time>2023-05-24T09:44:39.000Z</time>
      </trkpt>
      <trkpt lat="43.68559" lon="3.58628">
        <ele>70</ele>
        <time>2023-05-24T09:44:46.000Z</time>
      </trkpt>
      <trkpt lat="43.68559" lon="3.58628">
        <ele>71.400001525879</ele>
        <time>2023-05-24T09:44:53.000Z</time>
      </trkpt>
      <trkpt lat="43.68561" lon="3.58629">
        <ele>72.400001525879</ele>
        <time>2023-05-24T09:44:58.000Z</time>
      </trkpt>
      <trkpt lat="43.68561" lon="3.58629">
        <ele>72.400001525879</ele>
        <time>2023-05-24T09:44:59.000Z</time>
      </trkpt>
      <trkpt lat="43.68561" lon="3.58629">
        <ele>73.400001525879</ele>
        <time>2023-05-24T09:45:06.000Z</time>
      </trkpt>
      <trkpt lat="43.68561" lon="3.58629">
        <ele>73.599998474121</ele>
        <time>2023-05-24T09:45:07.000Z</time>
      </trkpt>
      <trkpt lat="43.68561" lon="3.58628">
        <ele>74.599998474121</ele>
        <time>2023-05-24T09:45:18.000Z</time>
      </trkpt>
      <trkpt lat="43.6856" lon="3.58628">
        <ele>74.599998474121</ele>
        <time>2023-05-24T09:45:28.000Z</time>
      </trkpt>
      <trkpt lat="43.68558" lon="3.5863">
        <ele>74.199996948242</ele>
        <time>2023-05-24T09:45:38.000Z</time>
      </trkpt>
      <trkpt lat="43.68558" lon="3.5863">
        <ele>74</ele>
        <time>2023-05-24T09:45:47.000Z</time>
      </trkpt>
      <trkpt lat="43.68558" lon="3.58628">
        <ele>75.800003051758</ele>
        <time>2023-05-24T09:46:00.000Z</time>
      </trkpt>
      <trkpt lat="43.68558" lon="3.58628">
        <ele>76</ele>
        <time>2023-05-24T09:46:02.000Z</time>
      </trkpt>
      <trkpt lat="43.68557" lon="3.58627">
        <ele>76.800003051758</ele>
        <time>2023-05-24T09:46:06.000Z</time>
      </trkpt>
      <trkpt lat="43.68557" lon="3.58627">
        <ele>77.800003051758</ele>
        <time>2023-05-24T09:46:12.000Z</time>
      </trkpt>
      <trkpt lat="43.68558" lon="3.58625">
        <ele>79</ele>
        <time>2023-05-24T09:46:17.000Z</time>
      </trkpt>
      <trkpt lat="43.68558" lon="3.58625">
        <ele>80</ele>
        <time>2023-05-24T09:46:21.000Z</time>
      </trkpt>
      <trkpt lat="43.68558" lon="3.58625">
        <ele>80.199996948242</ele>
        <time>2023-05-24T09:46:25.000Z</time>
      </trkpt>
      <trkpt lat="43.68559" lon="3.58624">
        <ele>79</ele>
        <time>2023-05-24T09:46:35.000Z</time>
      </trkpt>
      <trkpt lat="43.68559" lon="3.58624">
        <ele>78.400001525879</ele>
        <time>2023-05-24T09:46:39.000Z</time>
      </trkpt>
      <trkpt lat="43.68559" lon="3.58624">
        <ele>78</ele>
        <time>2023-05-24T09:46:42.000Z</time>
      </trkpt>
      <trkpt lat="43.6856" lon="3.58624">
        <ele>76.800003051758</ele>
        <time>2023-05-24T09:46:49.000Z</time>
      </trkpt>
      <trkpt lat="43.6856" lon="3.58624">
        <ele>76</ele>
        <time>2023-05-24T09:46:56.000Z</time>
      </trkpt>
      <trkpt lat="43.6856" lon="3.58624">
        <ele>75.599998474121</ele>
        <time>2023-05-24T09:46:58.000Z</time>
      </trkpt>
      <trkpt lat="43.68561" lon="3.58623">
        <ele>74.400001525879</ele>
        <time>2023-05-24T09:47:05.000Z</time>
      </trkpt>
      <trkpt lat="43.68561" lon="3.58623">
        <ele>74</ele>
        <time>2023-05-24T09:47:08.000Z</time>
      </trkpt>
      <trkpt lat="43.68561" lon="3.58623">
        <ele>74</ele>
        <time>2023-05-24T09:47:17.000Z</time>
      </trkpt>
      <trkpt lat="43.68561" lon="3.58624">
        <ele>74</ele>
        <time>2023-05-24T09:47:27.000Z</time>
      </trkpt>
      <trkpt lat="43.68561" lon="3.58625">
        <ele>74</ele>
        <time>2023-05-24T09:47:36.000Z</time>
      </trkpt>
      <trkpt lat="43.6856" lon="3.58626">
        <ele>74.199996948242</ele>
        <time>2023-05-24T09:47:44.000Z</time>
      </trkpt>
      <trkpt lat="43.6856" lon="3.58626">
        <ele>73.400001525879</ele>
        <time>2023-05-24T09:47:52.000Z</time>
      </trkpt>
      <trkpt lat="43.68559" lon="3.58626">
        <ele>74.800003051758</ele>
        <time>2023-05-24T09:48:01.000Z</time>
      </trkpt>
      <trkpt lat="43.6856" lon="3.58624">
        <ele>73.800003051758</ele>
        <time>2023-05-24T09:48:09.000Z</time>
      </trkpt>
      <trkpt lat="43.68561" lon="3.58624">
        <ele>74.199996948242</ele>
        <time>2023-05-24T09:48:17.000Z</time>
      </trkpt>
      <trkpt lat="43.68561" lon="3.58623">
        <ele>74.199996948242</ele>
        <time>2023-05-24T09:48:27.000Z</time>
      </trkpt>
      <trkpt lat="43.68562" lon="3.58624">
        <ele>73.599998474121</ele>
        <time>2023-05-24T09:48:37.000Z</time>
      </trkpt>
      <trkpt lat="43.68561" lon="3.58624">
        <ele>73.800003051758</ele>
        <time>2023-05-24T09:48:43.000Z</time>
      </trkpt>
      <trkpt lat="43.68561" lon="3.58624">
        <ele>74.199996948242</ele>
        <time>2023-05-24T09:48:50.000Z</time>
      </trkpt>
      <trkpt lat="43.68561" lon="3.58625">
        <ele>74.400001525879</ele>
        <time>2023-05-24T09:48:57.000Z</time>
      </trkpt>
      <trkpt lat="43.68561" lon="3.58626">
        <ele>74.599998474121</ele>
        <time>2023-05-24T09:49:05.000Z</time>
      </trkpt>
      <trkpt lat="43.68562" lon="3.58628">
        <ele>74.199996948242</ele>
        <time>2023-05-24T09:49:15.000Z</time>
      </trkpt>
      <trkpt lat="43.68561" lon="3.5863">
        <ele>74.400001525879</ele>
        <time>2023-05-24T09:49:24.000Z</time>
      </trkpt>
      <trkpt lat="43.68561" lon="3.5863">
        <ele>74.400001525879</ele>
        <time>2023-05-24T09:49:30.000Z</time>
      </trkpt>
      <trkpt lat="43.68562" lon="3.58631">
        <ele>74.400001525879</ele>
        <time>2023-05-24T09:49:40.000Z</time>
      </trkpt>
      <trkpt lat="43.68561" lon="3.5863">
        <ele>74</ele>
        <time>2023-05-24T09:49:46.000Z</time>
      </trkpt>
      <trkpt lat="43.68562" lon="3.58628">
        <ele>74.199996948242</ele>
        <time>2023-05-24T09:49:57.000Z</time>
      </trkpt>
      <trkpt lat="43.68561" lon="3.58628">
        <ele>74</ele>
        <time>2023-05-24T09:50:05.000Z</time>
      </trkpt>
      <trkpt lat="43.6856" lon="3.58626">
        <ele>74.199996948242</ele>
        <time>2023-05-24T09:50:18.000Z</time>
      </trkpt>
      <trkpt lat="43.68561" lon="3.58627">
        <ele>74.199996948242</ele>
        <time>2023-05-24T09:50:34.000Z</time>
      </trkpt>
      <trkpt lat="43.68561" lon="3.58627">
        <ele>74</ele>
        <time>2023-05-24T09:50:45.000Z</time>
      </trkpt>
      <trkpt lat="43.68562" lon="3.58627">
        <ele>74.599998474121</ele>
        <time>2023-05-24T09:51:00.000Z</time>
      </trkpt>
      <trkpt lat="43.68562" lon="3.58627">
        <ele>74.599998474121</ele>
        <time>2023-05-24T09:51:16.000Z</time>
      </trkpt>
      <trkpt lat="43.68563" lon="3.58627">
        <ele>74.199996948242</ele>
        <time>2023-05-24T09:51:29.000Z</time>
      </trkpt>
      <trkpt lat="43.68563" lon="3.58625">
        <ele>74.199996948242</ele>
        <time>2023-05-24T09:51:51.000Z</time>
      </trkpt>
      <trkpt lat="43.68562" lon="3.58625">
        <ele>74.199996948242</ele>
        <time>2023-05-24T09:52:05.000Z</time>
      </trkpt>
      <trkpt lat="43.6856" lon="3.58621">
        <ele>74.400001525879</ele>
        <time>2023-05-24T09:52:17.000Z</time>
      </trkpt>
      <trkpt lat="43.6856" lon="3.58624">
        <ele>74.599998474121</ele>
        <time>2023-05-24T09:52:27.000Z</time>
      </trkpt>
      <trkpt lat="43.68564" lon="3.58622">
        <ele>74.599998474121</ele>
        <time>2023-05-24T09:52:32.000Z</time>
      </trkpt>
      <trkpt lat="43.6857" lon="3.58621">
        <ele>74.400001525879</ele>
        <time>2023-05-24T09:52:38.000Z</time>
      </trkpt>
      <trkpt lat="43.68574" lon="3.58614">
        <ele>74.599998474121</ele>
        <time>2023-05-24T09:52:45.000Z</time>
      </trkpt>
      <trkpt lat="43.68576" lon="3.58613">
        <ele>74.599998474121</ele>
        <time>2023-05-24T09:52:47.000Z</time>
      </trkpt>
      <trkpt lat="43.68579" lon="3.58609">
        <ele>74.599998474121</ele>
        <time>2023-05-24T09:52:52.000Z</time>
      </trkpt>
      <trkpt lat="43.68579" lon="3.58609">
        <ele>74.400001525879</ele>
        <time>2023-05-24T09:52:58.000Z</time>
      </trkpt>
      <trkpt lat="43.68582" lon="3.58605">
        <ele>74.599998474121</ele>
        <time>2023-05-24T09:53:05.000Z</time>
      </trkpt>
      <trkpt lat="43.68585" lon="3.58603">
        <ele>74.599998474121</ele>
        <time>2023-05-24T09:53:11.000Z</time>
      </trkpt>
      <trkpt lat="43.68593" lon="3.58598">
        <ele>74.800003051758</ele>
        <time>2023-05-24T09:53:19.000Z</time>
      </trkpt>
      <trkpt lat="43.68599" lon="3.58594">
        <ele>74.599998474121</ele>
        <time>2023-05-24T09:53:26.000Z</time>
      </trkpt>
      <trkpt lat="43.68608" lon="3.58588">
        <ele>74.400001525879</ele>
        <time>2023-05-24T09:53:35.000Z</time>
      </trkpt>
      <trkpt lat="43.68619" lon="3.58582">
        <ele>74.400001525879</ele>
        <time>2023-05-24T09:53:44.000Z</time>
      </trkpt>
      <trkpt lat="43.68626" lon="3.58578">
        <ele>74.199996948242</ele>
        <time>2023-05-24T09:53:51.000Z</time>
      </trkpt>
      <trkpt lat="43.68631" lon="3.58576">
        <ele>73.800003051758</ele>
        <time>2023-05-24T09:53:59.000Z</time>
      </trkpt>
      <trkpt lat="43.68637" lon="3.58572">
        <ele>73.599998474121</ele>
        <time>2023-05-24T09:54:05.000Z</time>
      </trkpt>
      <trkpt lat="43.68647" lon="3.58567">
        <ele>73.400001525879</ele>
        <time>2023-05-24T09:54:14.000Z</time>
      </trkpt>
      <trkpt lat="43.68652" lon="3.58563">
        <ele>73.400001525879</ele>
        <time>2023-05-24T09:54:19.000Z</time>
      </trkpt>
      <trkpt lat="43.68656" lon="3.5856">
        <ele>73.199996948242</ele>
        <time>2023-05-24T09:54:23.000Z</time>
      </trkpt>
      <trkpt lat="43.68665" lon="3.58553">
        <ele>73.199996948242</ele>
        <time>2023-05-24T09:54:31.000Z</time>
      </trkpt>
      <trkpt lat="43.68669" lon="3.58552">
        <ele>73.400001525879</ele>
        <time>2023-05-24T09:54:38.000Z</time>
      </trkpt>
      <trkpt lat="43.68673" lon="3.58548">
        <ele>73.400001525879</ele>
        <time>2023-05-24T09:54:46.000Z</time>
      </trkpt>
      <trkpt lat="43.6868" lon="3.58546">
        <ele>73.400001525879</ele>
        <time>2023-05-24T09:54:52.000Z</time>
      </trkpt>
      <trkpt lat="43.68689" lon="3.58541">
        <ele>73.199996948242</ele>
        <time>2023-05-24T09:55:01.000Z</time>
      </trkpt>
      <trkpt lat="43.68699" lon="3.58536">
        <ele>73.199996948242</ele>
        <time>2023-05-24T09:55:10.000Z</time>
      </trkpt>
      <trkpt lat="43.68712" lon="3.58529">
        <ele>73.199996948242</ele>
        <time>2023-05-24T09:55:22.000Z</time>
      </trkpt>
      <trkpt lat="43.68724" lon="3.58523">
        <ele>73</ele>
        <time>2023-05-24T09:55:34.000Z</time>
      </trkpt>
      <trkpt lat="43.68732" lon="3.58518">
        <ele>72.800003051758</ele>
        <time>2023-05-24T09:55:42.000Z</time>
      </trkpt>
      <trkpt lat="43.68742" lon="3.58514">
        <ele>72.800003051758</ele>
        <time>2023-05-24T09:55:51.000Z</time>
      </trkpt>
      <trkpt lat="43.68751" lon="3.58511">
        <ele>73</ele>
        <time>2023-05-24T09:55:59.000Z</time>
      </trkpt>
      <trkpt lat="43.6876" lon="3.58505">
        <ele>73</ele>
        <time>2023-05-24T09:56:08.000Z</time>
      </trkpt>
      <trkpt lat="43.68767" lon="3.58501">
        <ele>73</ele>
        <time>2023-05-24T09:56:15.000Z</time>
      </trkpt>
      <trkpt lat="43.68777" lon="3.58494">
        <ele>72.800003051758</ele>
        <time>2023-05-24T09:56:24.000Z</time>
      </trkpt>
      <trkpt lat="43.68786" lon="3.58487">
        <ele>72.599998474121</ele>
        <time>2023-05-24T09:56:33.000Z</time>
      </trkpt>
      <trkpt lat="43.68797" lon="3.58482">
        <ele>72.800003051758</ele>
        <time>2023-05-24T09:56:43.000Z</time>
      </trkpt>
      <trkpt lat="43.68807" lon="3.58479">
        <ele>73</ele>
        <time>2023-05-24T09:56:52.000Z</time>
      </trkpt>
      <trkpt lat="43.68816" lon="3.58474">
        <ele>73</ele>
        <time>2023-05-24T09:57:01.000Z</time>
      </trkpt>
      <trkpt lat="43.68824" lon="3.58469">
        <ele>72.800003051758</ele>
        <time>2023-05-24T09:57:09.000Z</time>
      </trkpt>
      <trkpt lat="43.68827" lon="3.58464">
        <ele>72.800003051758</ele>
        <time>2023-05-24T09:57:14.000Z</time>
      </trkpt>
      <trkpt lat="43.68834" lon="3.58457">
        <ele>72.599998474121</ele>
        <time>2023-05-24T09:57:22.000Z</time>
      </trkpt>
      <trkpt lat="43.68839" lon="3.58455">
        <ele>72.599998474121</ele>
        <time>2023-05-24T09:57:26.000Z</time>
      </trkpt>
      <trkpt lat="43.68842" lon="3.58454">
        <ele>72.800003051758</ele>
        <time>2023-05-24T09:57:29.000Z</time>
      </trkpt>
      <trkpt lat="43.68853" lon="3.58448">
        <ele>72.800003051758</ele>
        <time>2023-05-24T09:57:39.000Z</time>
      </trkpt>
      <trkpt lat="43.6886" lon="3.58446">
        <ele>72.800003051758</ele>
        <time>2023-05-24T09:57:46.000Z</time>
      </trkpt>
      <trkpt lat="43.68866" lon="3.58443">
        <ele>72.800003051758</ele>
        <time>2023-05-24T09:57:52.000Z</time>
      </trkpt>
      <trkpt lat="43.68874" lon="3.58439">
        <ele>72.599998474121</ele>
        <time>2023-05-24T09:57:59.000Z</time>
      </trkpt>
      <trkpt lat="43.68875" lon="3.58439">
        <ele>72.800003051758</ele>
        <time>2023-05-24T09:58:04.000Z</time>
      </trkpt>
      <trkpt lat="43.68878" lon="3.5844">
        <ele>72.800003051758</ele>
        <time>2023-05-24T09:58:14.000Z</time>
      </trkpt>
      <trkpt lat="43.68886" lon="3.58436">
        <ele>72.800003051758</ele>
        <time>2023-05-24T09:58:22.000Z</time>
      </trkpt>
      <trkpt lat="43.68895" lon="3.58431">
        <ele>72.800003051758</ele>
        <time>2023-05-24T09:58:32.000Z</time>
      </trkpt>
      <trkpt lat="43.68904" lon="3.58427">
        <ele>72.800003051758</ele>
        <time>2023-05-24T09:58:42.000Z</time>
      </trkpt>
      <trkpt lat="43.68914" lon="3.58423">
        <ele>73</ele>
        <time>2023-05-24T09:58:51.000Z</time>
      </trkpt>
      <trkpt lat="43.68923" lon="3.58418">
        <ele>72.800003051758</ele>
        <time>2023-05-24T09:59:00.000Z</time>
      </trkpt>
      <trkpt lat="43.68931" lon="3.58413">
        <ele>72.800003051758</ele>
        <time>2023-05-24T09:59:08.000Z</time>
      </trkpt>
      <trkpt lat="43.6894" lon="3.58409">
        <ele>73</ele>
        <time>2023-05-24T09:59:17.000Z</time>
      </trkpt>
      <trkpt lat="43.68951" lon="3.58404">
        <ele>73</ele>
        <time>2023-05-24T09:59:27.000Z</time>
      </trkpt>
      <trkpt lat="43.68959" lon="3.58399">
        <ele>72.800003051758</ele>
        <time>2023-05-24T09:59:35.000Z</time>
      </trkpt>
      <trkpt lat="43.68972" lon="3.58391">
        <ele>73</ele>
        <time>2023-05-24T09:59:47.000Z</time>
      </trkpt>
      <trkpt lat="43.68984" lon="3.58384">
        <ele>73</ele>
        <time>2023-05-24T09:59:58.000Z</time>
      </trkpt>
      <trkpt lat="43.68993" lon="3.58378">
        <ele>73</ele>
        <time>2023-05-24T10:00:06.000Z</time>
      </trkpt>
      <trkpt lat="43.69003" lon="3.58372">
        <ele>72.800003051758</ele>
        <time>2023-05-24T10:00:16.000Z</time>
      </trkpt>
      <trkpt lat="43.6901" lon="3.58367">
        <ele>73.199996948242</ele>
        <time>2023-05-24T10:00:24.000Z</time>
      </trkpt>
      <trkpt lat="43.69018" lon="3.58361">
        <ele>73</ele>
        <time>2023-05-24T10:00:32.000Z</time>
      </trkpt>
      <trkpt lat="43.69019" lon="3.5836">
        <ele>73</ele>
        <time>2023-05-24T10:00:33.000Z</time>
      </trkpt>
      <trkpt lat="43.69024" lon="3.58355">
        <ele>73</ele>
        <time>2023-05-24T10:00:40.000Z</time>
      </trkpt>
      <trkpt lat="43.69024" lon="3.58354">
        <ele>73</ele>
        <time>2023-05-24T10:00:41.000Z</time>
      </trkpt>
      <trkpt lat="43.69024" lon="3.58354">
        <ele>73</ele>
        <time>2023-05-24T10:00:46.000Z</time>
      </trkpt>
      <trkpt lat="43.69025" lon="3.58355">
        <ele>72.199996948242</ele>
        <time>2023-05-24T10:00:55.000Z</time>
      </trkpt>
      <trkpt lat="43.69021" lon="3.58351">
        <ele>72.199996948242</ele>
        <time>2023-05-24T10:01:01.000Z</time>
      </trkpt>
      <trkpt lat="43.69031" lon="3.58351">
        <ele>73.199996948242</ele>
        <time>2023-05-24T10:01:09.000Z</time>
      </trkpt>
      <trkpt lat="43.6904" lon="3.58345">
        <ele>72.800003051758</ele>
        <time>2023-05-24T10:01:18.000Z</time>
      </trkpt>
      <trkpt lat="43.69047" lon="3.5834">
        <ele>72.599998474121</ele>
        <time>2023-05-24T10:01:25.000Z</time>
      </trkpt>
      <trkpt lat="43.69049" lon="3.58339">
        <ele>72.400001525879</ele>
        <time>2023-05-24T10:01:27.000Z</time>
      </trkpt>
      <trkpt lat="43.69056" lon="3.58332">
        <ele>72.199996948242</ele>
        <time>2023-05-24T10:01:34.000Z</time>
      </trkpt>
      <trkpt lat="43.69065" lon="3.58323">
        <ele>71.800003051758</ele>
        <time>2023-05-24T10:01:44.000Z</time>
      </trkpt>
      <trkpt lat="43.69074" lon="3.58313">
        <ele>71.400001525879</ele>
        <time>2023-05-24T10:01:54.000Z</time>
      </trkpt>
      <trkpt lat="43.69081" lon="3.58307">
        <ele>71.400001525879</ele>
        <time>2023-05-24T10:02:00.000Z</time>
      </trkpt>
      <trkpt lat="43.69085" lon="3.58303">
        <ele>71.199996948242</ele>
        <time>2023-05-24T10:02:04.000Z</time>
      </trkpt>
      <trkpt lat="43.69091" lon="3.58296">
        <ele>71</ele>
        <time>2023-05-24T10:02:10.000Z</time>
      </trkpt>
      <trkpt lat="43.69101" lon="3.58287">
        <ele>70.800003051758</ele>
        <time>2023-05-24T10:02:20.000Z</time>
      </trkpt>
      <trkpt lat="43.69114" lon="3.58277">
        <ele>70.400001525879</ele>
        <time>2023-05-24T10:02:31.000Z</time>
      </trkpt>
      <trkpt lat="43.69126" lon="3.58269">
        <ele>70.199996948242</ele>
        <time>2023-05-24T10:02:42.000Z</time>
      </trkpt>
      <trkpt lat="43.69131" lon="3.58266">
        <ele>70.599998474121</ele>
        <time>2023-05-24T10:02:50.000Z</time>
      </trkpt>
      <trkpt lat="43.69136" lon="3.58263">
        <ele>70.199996948242</ele>
        <time>2023-05-24T10:02:57.000Z</time>
      </trkpt>
      <trkpt lat="43.69147" lon="3.58256">
        <ele>70</ele>
        <time>2023-05-24T10:03:07.000Z</time>
      </trkpt>
      <trkpt lat="43.6916" lon="3.58248">
        <ele>69.400001525879</ele>
        <time>2023-05-24T10:03:19.000Z</time>
      </trkpt>
      <trkpt lat="43.69167" lon="3.58243">
        <ele>69.199996948242</ele>
        <time>2023-05-24T10:03:25.000Z</time>
      </trkpt>
      <trkpt lat="43.69173" lon="3.58238">
        <ele>69</ele>
        <time>2023-05-24T10:03:31.000Z</time>
      </trkpt>
      <trkpt lat="43.6918" lon="3.58232">
        <ele>68.800003051758</ele>
        <time>2023-05-24T10:03:39.000Z</time>
      </trkpt>
      <trkpt lat="43.69182" lon="3.58233">
        <ele>68.800003051758</ele>
        <time>2023-05-24T10:03:41.000Z</time>
      </trkpt>
      <trkpt lat="43.69186" lon="3.58235">
        <ele>68.800003051758</ele>
        <time>2023-05-24T10:03:45.000Z</time>
      </trkpt>
      <trkpt lat="43.69188" lon="3.58236">
        <ele>68.800003051758</ele>
        <time>2023-05-24T10:03:47.000Z</time>
      </trkpt>
      <trkpt lat="43.692" lon="3.58234">
        <ele>68.199996948242</ele>
        <time>2023-05-24T10:03:57.000Z</time>
      </trkpt>
      <trkpt lat="43.69211" lon="3.58233">
        <ele>68.400001525879</ele>
        <time>2023-05-24T10:04:07.000Z</time>
      </trkpt>
      <trkpt lat="43.69223" lon="3.58231">
        <ele>68.199996948242</ele>
        <time>2023-05-24T10:04:17.000Z</time>
      </trkpt>
      <trkpt lat="43.6923" lon="3.58222">
        <ele>68.400001525879</ele>
        <time>2023-05-24T10:04:25.000Z</time>
      </trkpt>
      <trkpt lat="43.69233" lon="3.58207">
        <ele>68</ele>
        <time>2023-05-24T10:04:34.000Z</time>
      </trkpt>
      <trkpt lat="43.69234" lon="3.58206">
        <ele>68.199996948242</ele>
        <time>2023-05-24T10:04:35.000Z</time>
      </trkpt>
      <trkpt lat="43.69239" lon="3.58195">
        <ele>67.800003051758</ele>
        <time>2023-05-24T10:04:43.000Z</time>
      </trkpt>
      <trkpt lat="43.69246" lon="3.58187">
        <ele>67.400001525879</ele>
        <time>2023-05-24T10:04:51.000Z</time>
      </trkpt>
      <trkpt lat="43.69246" lon="3.58187">
        <ele>67.400001525879</ele>
        <time>2023-05-24T10:04:57.000Z</time>
      </trkpt>
      <trkpt lat="43.69246" lon="3.58186">
        <ele>67.400001525879</ele>
        <time>2023-05-24T10:05:07.000Z</time>
      </trkpt>
      <trkpt lat="43.69244" lon="3.58184">
        <ele>67.400001525879</ele>
        <time>2023-05-24T10:05:16.000Z</time>
      </trkpt>
      <trkpt lat="43.69235" lon="3.58183">
        <ele>67.800003051758</ele>
        <time>2023-05-24T10:05:25.000Z</time>
      </trkpt>
      <trkpt lat="43.69234" lon="3.58182">
        <ele>67.800003051758</ele>
        <time>2023-05-24T10:05:26.000Z</time>
      </trkpt>
      <trkpt lat="43.69231" lon="3.58177">
        <ele>67.800003051758</ele>
        <time>2023-05-24T10:05:30.000Z</time>
      </trkpt>
      <trkpt lat="43.69231" lon="3.58175">
        <ele>67.800003051758</ele>
        <time>2023-05-24T10:05:31.000Z</time>
      </trkpt>
      <trkpt lat="43.69229" lon="3.58168">
        <ele>67.599998474121</ele>
        <time>2023-05-24T10:05:36.000Z</time>
      </trkpt>
      <trkpt lat="43.6923" lon="3.58166">
        <ele>67.599998474121</ele>
        <time>2023-05-24T10:05:38.000Z</time>
      </trkpt>
      <trkpt lat="43.69232" lon="3.58163">
        <ele>67.400001525879</ele>
        <time>2023-05-24T10:05:41.000Z</time>
      </trkpt>
      <trkpt lat="43.69235" lon="3.58162">
        <ele>67.400001525879</ele>
        <time>2023-05-24T10:05:45.000Z</time>
      </trkpt>
      <trkpt lat="43.69236" lon="3.58162">
        <ele>67.199996948242</ele>
        <time>2023-05-24T10:05:47.000Z</time>
      </trkpt>
      <trkpt lat="43.69236" lon="3.58163">
        <ele>67.199996948242</ele>
        <time>2023-05-24T10:05:52.000Z</time>
      </trkpt>
      <trkpt lat="43.69236" lon="3.58162">
        <ele>67</ele>
        <time>2023-05-24T10:05:56.000Z</time>
      </trkpt>
      <trkpt lat="43.69238" lon="3.58162">
        <ele>66.800003051758</ele>
        <time>2023-05-24T10:05:59.000Z</time>
      </trkpt>
      <trkpt lat="43.6924" lon="3.58161">
        <ele>66.800003051758</ele>
        <time>2023-05-24T10:06:08.000Z</time>
      </trkpt>
      <trkpt lat="43.69246" lon="3.58155">
        <ele>66.400001525879</ele>
        <time>2023-05-24T10:06:17.000Z</time>
      </trkpt>
      <trkpt lat="43.69253" lon="3.58148">
        <ele>66.199996948242</ele>
        <time>2023-05-24T10:06:25.000Z</time>
      </trkpt>
      <trkpt lat="43.69256" lon="3.58144">
        <ele>66</ele>
        <time>2023-05-24T10:06:28.000Z</time>
      </trkpt>
      <trkpt lat="43.69267" lon="3.58135">
        <ele>65.800003051758</ele>
        <time>2023-05-24T10:06:38.000Z</time>
      </trkpt>
      <trkpt lat="43.69278" lon="3.58125">
        <ele>65.800003051758</ele>
        <time>2023-05-24T10:06:49.000Z</time>
      </trkpt>
      <trkpt lat="43.69283" lon="3.58121">
        <ele>65.800003051758</ele>
        <time>2023-05-24T10:06:57.000Z</time>
      </trkpt>
      <trkpt lat="43.69284" lon="3.5812">
        <ele>66.199996948242</ele>
        <time>2023-05-24T10:07:12.000Z</time>
      </trkpt>
      <trkpt lat="43.69287" lon="3.5812">
        <ele>66.199996948242</ele>
        <time>2023-05-24T10:07:26.000Z</time>
      </trkpt>
      <trkpt lat="43.69288" lon="3.5812">
        <ele>66.199996948242</ele>
        <time>2023-05-24T10:07:47.000Z</time>
      </trkpt>
      <trkpt lat="43.6929" lon="3.58117">
        <ele>66.199996948242</ele>
        <time>2023-05-24T10:07:55.000Z</time>
      </trkpt>
      <trkpt lat="43.69298" lon="3.58108">
        <ele>66</ele>
        <time>2023-05-24T10:08:04.000Z</time>
      </trkpt>
      <trkpt lat="43.69306" lon="3.58096">
        <ele>65.800003051758</ele>
        <time>2023-05-24T10:08:14.000Z</time>
      </trkpt>
      <trkpt lat="43.69315" lon="3.58083">
        <ele>66</ele>
        <time>2023-05-24T10:08:25.000Z</time>
      </trkpt>
      <trkpt lat="43.69321" lon="3.58069">
        <ele>65.800003051758</ele>
        <time>2023-05-24T10:08:35.000Z</time>
      </trkpt>
      <trkpt lat="43.69328" lon="3.58055">
        <ele>65.400001525879</ele>
        <time>2023-05-24T10:08:46.000Z</time>
      </trkpt>
      <trkpt lat="43.69336" lon="3.58037">
        <ele>65.599998474121</ele>
        <time>2023-05-24T10:08:59.000Z</time>
      </trkpt>
      <trkpt lat="43.69345" lon="3.5802">
        <ele>65.400001525879</ele>
        <time>2023-05-24T10:09:12.000Z</time>
      </trkpt>
      <trkpt lat="43.69353" lon="3.58007">
        <ele>65.599998474121</ele>
        <time>2023-05-24T10:09:23.000Z</time>
      </trkpt>
      <trkpt lat="43.69362" lon="3.57996">
        <ele>65.400001525879</ele>
        <time>2023-05-24T10:09:34.000Z</time>
      </trkpt>
      <trkpt lat="43.6937" lon="3.57987">
        <ele>65.599998474121</ele>
        <time>2023-05-24T10:09:44.000Z</time>
      </trkpt>
      <trkpt lat="43.69379" lon="3.5798">
        <ele>65.599998474121</ele>
        <time>2023-05-24T10:09:53.000Z</time>
      </trkpt>
      <trkpt lat="43.69387" lon="3.57974">
        <ele>65.599998474121</ele>
        <time>2023-05-24T10:10:01.000Z</time>
      </trkpt>
      <trkpt lat="43.69396" lon="3.57967">
        <ele>65.599998474121</ele>
        <time>2023-05-24T10:10:11.000Z</time>
      </trkpt>
      <trkpt lat="43.69403" lon="3.57962">
        <ele>65.599998474121</ele>
        <time>2023-05-24T10:10:18.000Z</time>
      </trkpt>
      <trkpt lat="43.69416" lon="3.57954">
        <ele>65.599998474121</ele>
        <time>2023-05-24T10:10:30.000Z</time>
      </trkpt>
      <trkpt lat="43.69429" lon="3.57947">
        <ele>65.800003051758</ele>
        <time>2023-05-24T10:10:42.000Z</time>
      </trkpt>
      <trkpt lat="43.69439" lon="3.5794">
        <ele>65.800003051758</ele>
        <time>2023-05-24T10:10:52.000Z</time>
      </trkpt>
      <trkpt lat="43.69448" lon="3.57932">
        <ele>65.800003051758</ele>
        <time>2023-05-24T10:11:02.000Z</time>
      </trkpt>
      <trkpt lat="43.69459" lon="3.57923">
        <ele>66</ele>
        <time>2023-05-24T10:11:13.000Z</time>
      </trkpt>
      <trkpt lat="43.69468" lon="3.57915">
        <ele>65.800003051758</ele>
        <time>2023-05-24T10:11:23.000Z</time>
      </trkpt>
      <trkpt lat="43.69475" lon="3.5791">
        <ele>65.800003051758</ele>
        <time>2023-05-24T10:11:31.000Z</time>
      </trkpt>
      <trkpt lat="43.69482" lon="3.57904">
        <ele>66.400001525879</ele>
        <time>2023-05-24T10:11:40.000Z</time>
      </trkpt>
      <trkpt lat="43.69486" lon="3.57901">
        <ele>66.400001525879</ele>
        <time>2023-05-24T10:11:47.000Z</time>
      </trkpt>
      <trkpt lat="43.69486" lon="3.579">
        <ele>66.400001525879</ele>
        <time>2023-05-24T10:11:59.000Z</time>
      </trkpt>
      <trkpt lat="43.69488" lon="3.57899">
        <ele>66.599998474121</ele>
        <time>2023-05-24T10:12:13.000Z</time>
      </trkpt>
      <trkpt lat="43.69495" lon="3.57897">
        <ele>66.599998474121</ele>
        <time>2023-05-24T10:12:20.000Z</time>
      </trkpt>
      <trkpt lat="43.69505" lon="3.57889">
        <ele>66.800003051758</ele>
        <time>2023-05-24T10:12:30.000Z</time>
      </trkpt>
      <trkpt lat="43.69511" lon="3.57884">
        <ele>67</ele>
        <time>2023-05-24T10:12:36.000Z</time>
      </trkpt>
      <trkpt lat="43.69515" lon="3.57881">
        <ele>67.199996948242</ele>
        <time>2023-05-24T10:12:40.000Z</time>
      </trkpt>
      <trkpt lat="43.69526" lon="3.57871">
        <ele>67.599998474121</ele>
        <time>2023-05-24T10:12:51.000Z</time>
      </trkpt>
      <trkpt lat="43.69535" lon="3.57863">
        <ele>68</ele>
        <time>2023-05-24T10:13:01.000Z</time>
      </trkpt>
      <trkpt lat="43.69537" lon="3.57862">
        <ele>68.199996948242</ele>
        <time>2023-05-24T10:13:03.000Z</time>
      </trkpt>
      <trkpt lat="43.69546" lon="3.57853">
        <ele>68.400001525879</ele>
        <time>2023-05-24T10:13:13.000Z</time>
      </trkpt>
      <trkpt lat="43.69557" lon="3.57844">
        <ele>69</ele>
        <time>2023-05-24T10:13:24.000Z</time>
      </trkpt>
      <trkpt lat="43.69558" lon="3.57844">
        <ele>69</ele>
        <time>2023-05-24T10:13:25.000Z</time>
      </trkpt>
      <trkpt lat="43.69562" lon="3.5784">
        <ele>69.199996948242</ele>
        <time>2023-05-24T10:13:30.000Z</time>
      </trkpt>
      <trkpt lat="43.69567" lon="3.57836">
        <ele>69.400001525879</ele>
        <time>2023-05-24T10:13:35.000Z</time>
      </trkpt>
      <trkpt lat="43.69576" lon="3.57829">
        <ele>69.599998474121</ele>
        <time>2023-05-24T10:13:45.000Z</time>
      </trkpt>
      <trkpt lat="43.69585" lon="3.5782">
        <ele>70</ele>
        <time>2023-05-24T10:13:55.000Z</time>
      </trkpt>
      <trkpt lat="43.69587" lon="3.57819">
        <ele>70.199996948242</ele>
        <time>2023-05-24T10:13:57.000Z</time>
      </trkpt>
      <trkpt lat="43.69593" lon="3.57813">
        <ele>70.599998474121</ele>
        <time>2023-05-24T10:14:04.000Z</time>
      </trkpt>
      <trkpt lat="43.69602" lon="3.57806">
        <ele>70.800003051758</ele>
        <time>2023-05-24T10:14:13.000Z</time>
      </trkpt>
      <trkpt lat="43.69613" lon="3.57797">
        <ele>71</ele>
        <time>2023-05-24T10:14:24.000Z</time>
      </trkpt>
      <trkpt lat="43.69622" lon="3.5779">
        <ele>71</ele>
        <time>2023-05-24T10:14:34.000Z</time>
      </trkpt>
      <trkpt lat="43.69632" lon="3.57782">
        <ele>71.199996948242</ele>
        <time>2023-05-24T10:14:44.000Z</time>
      </trkpt>
      <trkpt lat="43.69633" lon="3.57782">
        <ele>71.199996948242</ele>
        <time>2023-05-24T10:14:45.000Z</time>
      </trkpt>
      <trkpt lat="43.69641" lon="3.57775">
        <ele>71.400001525879</ele>
        <time>2023-05-24T10:14:54.000Z</time>
      </trkpt>
      <trkpt lat="43.69651" lon="3.57767">
        <ele>71.400001525879</ele>
        <time>2023-05-24T10:15:04.000Z</time>
      </trkpt>
      <trkpt lat="43.69662" lon="3.57758">
        <ele>71.599998474121</ele>
        <time>2023-05-24T10:15:17.000Z</time>
      </trkpt>
      <trkpt lat="43.69664" lon="3.57756">
        <ele>71.800003051758</ele>
        <time>2023-05-24T10:15:24.000Z</time>
      </trkpt>
      <trkpt lat="43.69665" lon="3.57754">
        <ele>71.599998474121</ele>
        <time>2023-05-24T10:15:33.000Z</time>
      </trkpt>
      <trkpt lat="43.69667" lon="3.57753">
        <ele>71.400001525879</ele>
        <time>2023-05-24T10:15:40.000Z</time>
      </trkpt>
      <trkpt lat="43.69667" lon="3.57752">
        <ele>71.599998474121</ele>
        <time>2023-05-24T10:15:53.000Z</time>
      </trkpt>
      <trkpt lat="43.69671" lon="3.5775">
        <ele>71.800003051758</ele>
        <time>2023-05-24T10:15:59.000Z</time>
      </trkpt>
      <trkpt lat="43.69682" lon="3.57739">
        <ele>71.800003051758</ele>
        <time>2023-05-24T10:16:10.000Z</time>
      </trkpt>
      <trkpt lat="43.69692" lon="3.57728">
        <ele>71.800003051758</ele>
        <time>2023-05-24T10:16:21.000Z</time>
      </trkpt>
      <trkpt lat="43.69708" lon="3.57712">
        <ele>71.800003051758</ele>
        <time>2023-05-24T10:16:37.000Z</time>
      </trkpt>
      <trkpt lat="43.69707" lon="3.57713">
        <ele>71.800003051758</ele>
        <time>2023-05-24T10:16:38.000Z</time>
      </trkpt>
      <trkpt lat="43.6971" lon="3.5771">
        <ele>72.199996948242</ele>
        <time>2023-05-24T10:16:45.000Z</time>
      </trkpt>
      <trkpt lat="43.69711" lon="3.57709">
        <ele>72.199996948242</ele>
        <time>2023-05-24T10:16:47.000Z</time>
      </trkpt>
      <trkpt lat="43.69722" lon="3.57697">
        <ele>72</ele>
        <time>2023-05-24T10:16:59.000Z</time>
      </trkpt>
      <trkpt lat="43.69732" lon="3.57687">
        <ele>72.400001525879</ele>
        <time>2023-05-24T10:17:10.000Z</time>
      </trkpt>
      <trkpt lat="43.69743" lon="3.57676">
        <ele>72.199996948242</ele>
        <time>2023-05-24T10:17:22.000Z</time>
      </trkpt>
      <trkpt lat="43.69752" lon="3.57666">
        <ele>72.599998474121</ele>
        <time>2023-05-24T10:17:33.000Z</time>
      </trkpt>
      <trkpt lat="43.69757" lon="3.57659">
        <ele>72.400001525879</ele>
        <time>2023-05-24T10:17:41.000Z</time>
      </trkpt>
      <trkpt lat="43.69762" lon="3.57656">
        <ele>72.400001525879</ele>
        <time>2023-05-24T10:17:48.000Z</time>
      </trkpt>
      <trkpt lat="43.69775" lon="3.5764">
        <ele>72</ele>
        <time>2023-05-24T10:18:03.000Z</time>
      </trkpt>
      <trkpt lat="43.69784" lon="3.57629">
        <ele>72.199996948242</ele>
        <time>2023-05-24T10:18:13.000Z</time>
      </trkpt>
      <trkpt lat="43.69794" lon="3.57614">
        <ele>72.199996948242</ele>
        <time>2023-05-24T10:18:26.000Z</time>
      </trkpt>
      <trkpt lat="43.69803" lon="3.57602">
        <ele>72</ele>
        <time>2023-05-24T10:18:37.000Z</time>
      </trkpt>
      <trkpt lat="43.69811" lon="3.57591">
        <ele>71.800003051758</ele>
        <time>2023-05-24T10:18:47.000Z</time>
      </trkpt>
      <trkpt lat="43.69819" lon="3.57579">
        <ele>72</ele>
        <time>2023-05-24T10:18:57.000Z</time>
      </trkpt>
      <trkpt lat="43.69828" lon="3.57567">
        <ele>72</ele>
        <time>2023-05-24T10:19:09.000Z</time>
      </trkpt>
      <trkpt lat="43.6983" lon="3.57565">
        <ele>72.599998474121</ele>
        <time>2023-05-24T10:19:16.000Z</time>
      </trkpt>
      <trkpt lat="43.69837" lon="3.57556">
        <ele>72.599998474121</ele>
        <time>2023-05-24T10:19:26.000Z</time>
      </trkpt>
      <trkpt lat="43.69841" lon="3.5755">
        <ele>73.199996948242</ele>
        <time>2023-05-24T10:19:31.000Z</time>
      </trkpt>
      <trkpt lat="43.69845" lon="3.57544">
        <ele>73.599998474121</ele>
        <time>2023-05-24T10:19:36.000Z</time>
      </trkpt>
      <trkpt lat="43.69851" lon="3.57534">
        <ele>74</ele>
        <time>2023-05-24T10:19:45.000Z</time>
      </trkpt>
      <trkpt lat="43.69858" lon="3.57523">
        <ele>74.199996948242</ele>
        <time>2023-05-24T10:19:54.000Z</time>
      </trkpt>
      <trkpt lat="43.69859" lon="3.57522">
        <ele>74.199996948242</ele>
        <time>2023-05-24T10:19:55.000Z</time>
      </trkpt>
      <trkpt lat="43.69865" lon="3.57512">
        <ele>74.400001525879</ele>
        <time>2023-05-24T10:20:03.000Z</time>
      </trkpt>
      <trkpt lat="43.69871" lon="3.57502">
        <ele>74.599998474121</ele>
        <time>2023-05-24T10:20:12.000Z</time>
      </trkpt>
      <trkpt lat="43.69878" lon="3.5749">
        <ele>73.199996948242</ele>
        <time>2023-05-24T10:20:22.000Z</time>
      </trkpt>
      <trkpt lat="43.69879" lon="3.57486">
        <ele>72.599998474121</ele>
        <time>2023-05-24T10:20:28.000Z</time>
      </trkpt>
      <trkpt lat="43.69881" lon="3.57483">
        <ele>72.599998474121</ele>
        <time>2023-05-24T10:20:38.000Z</time>
      </trkpt>
      <trkpt lat="43.69882" lon="3.57481">
        <ele>72.400001525879</ele>
        <time>2023-05-24T10:20:44.000Z</time>
      </trkpt>
      <trkpt lat="43.69882" lon="3.57479">
        <ele>72.599998474121</ele>
        <time>2023-05-24T10:20:54.000Z</time>
      </trkpt>
      <trkpt lat="43.69885" lon="3.57474">
        <ele>72.400001525879</ele>
        <time>2023-05-24T10:21:00.000Z</time>
      </trkpt>
      <trkpt lat="43.69886" lon="3.57473">
        <ele>72.400001525879</ele>
        <time>2023-05-24T10:21:06.000Z</time>
      </trkpt>
      <trkpt lat="43.69885" lon="3.57472">
        <ele>78.199996948242</ele>
        <time>2023-05-24T10:21:13.000Z</time>
      </trkpt>
      <trkpt lat="43.69885" lon="3.57472">
        <ele>82.400001525879</ele>
        <time>2023-05-24T10:21:14.000Z</time>
      </trkpt>
      <trkpt lat="43.69885" lon="3.57472">
        <ele>86.199996948242</ele>
        <time>2023-05-24T10:21:15.000Z</time>
      </trkpt>
      <trkpt lat="43.69885" lon="3.57472">
        <ele>90.400001525879</ele>
        <time>2023-05-24T10:21:16.000Z</time>
      </trkpt>
      <trkpt lat="43.69886" lon="3.57472">
        <ele>94.400001525879</ele>
        <time>2023-05-24T10:21:17.000Z</time>
      </trkpt>
      <trkpt lat="43.69886" lon="3.57472">
        <ele>92.599998474121</ele>
        <time>2023-05-24T10:21:18.000Z</time>
      </trkpt>
      <trkpt lat="43.69886" lon="3.57472">
        <ele>87.199996948242</ele>
        <time>2023-05-24T10:21:19.000Z</time>
      </trkpt>
      <trkpt lat="43.69886" lon="3.57472">
        <ele>85.400001525879</ele>
        <time>2023-05-24T10:21:20.000Z</time>
      </trkpt>
      <trkpt lat="43.69886" lon="3.57472">
        <ele>84</ele>
        <time>2023-05-24T10:21:21.000Z</time>
      </trkpt>
      <trkpt lat="43.69886" lon="3.57472">
        <ele>81</ele>
        <time>2023-05-24T10:21:22.000Z</time>
      </trkpt>
      <trkpt lat="43.69886" lon="3.57472">
        <ele>80</ele>
        <time>2023-05-24T10:21:23.000Z</time>
      </trkpt>
      <trkpt lat="43.69886" lon="3.57472">
        <ele>81.199996948242</ele>
        <time>2023-05-24T10:21:24.000Z</time>
      </trkpt>
      <trkpt lat="43.69886" lon="3.57472">
        <ele>80.400001525879</ele>
        <time>2023-05-24T10:21:31.000Z</time>
      </trkpt>
      <trkpt lat="43.69886" lon="3.57472">
        <ele>80.199996948242</ele>
        <time>2023-05-24T10:21:33.000Z</time>
      </trkpt>
      <trkpt lat="43.69886" lon="3.57472">
        <ele>79.199996948242</ele>
        <time>2023-05-24T10:21:42.000Z</time>
      </trkpt>
      <trkpt lat="43.69887" lon="3.57471">
        <ele>79</ele>
        <time>2023-05-24T10:21:44.000Z</time>
      </trkpt>
      <trkpt lat="43.69888" lon="3.57469">
        <ele>78.599998474121</ele>
        <time>2023-05-24T10:21:49.000Z</time>
      </trkpt>
      <trkpt lat="43.69888" lon="3.57468">
        <ele>78</ele>
        <time>2023-05-24T10:21:52.000Z</time>
      </trkpt>
      <trkpt lat="43.69889" lon="3.57466">
        <ele>77.400001525879</ele>
        <time>2023-05-24T10:21:56.000Z</time>
      </trkpt>
      <trkpt lat="43.69892" lon="3.57462">
        <ele>77</ele>
        <time>2023-05-24T10:22:04.000Z</time>
      </trkpt>
      <trkpt lat="43.69892" lon="3.5746">
        <ele>76</ele>
        <time>2023-05-24T10:22:12.000Z</time>
      </trkpt>
      <trkpt lat="43.69893" lon="3.57457">
        <ele>76</ele>
        <time>2023-05-24T10:22:18.000Z</time>
      </trkpt>
      <trkpt lat="43.69894" lon="3.57452">
        <ele>76</ele>
        <time>2023-05-24T10:22:26.000Z</time>
      </trkpt>
      <trkpt lat="43.699" lon="3.57441">
        <ele>74.800003051758</ele>
        <time>2023-05-24T10:22:33.000Z</time>
      </trkpt>
      <trkpt lat="43.699" lon="3.5744">
        <ele>74.599998474121</ele>
        <time>2023-05-24T10:22:34.000Z</time>
      </trkpt>
      <trkpt lat="43.69905" lon="3.5743">
        <ele>73.800003051758</ele>
        <time>2023-05-24T10:22:42.000Z</time>
      </trkpt>
      <trkpt lat="43.69906" lon="3.57429">
        <ele>73.800003051758</ele>
        <time>2023-05-24T10:22:43.000Z</time>
      </trkpt>
      <trkpt lat="43.6991" lon="3.57417">
        <ele>73</ele>
        <time>2023-05-24T10:22:53.000Z</time>
      </trkpt>
      <trkpt lat="43.69915" lon="3.57407">
        <ele>72.800003051758</ele>
        <time>2023-05-24T10:23:02.000Z</time>
      </trkpt>
      <trkpt lat="43.69916" lon="3.57403">
        <ele>72.800003051758</ele>
        <time>2023-05-24T10:23:05.000Z</time>
      </trkpt>
      <trkpt lat="43.69919" lon="3.57397">
        <ele>72.800003051758</ele>
        <time>2023-05-24T10:23:10.000Z</time>
      </trkpt>
      <trkpt lat="43.69923" lon="3.57387">
        <ele>72.800003051758</ele>
        <time>2023-05-24T10:23:18.000Z</time>
      </trkpt>
      <trkpt lat="43.69927" lon="3.57374">
        <ele>72.800003051758</ele>
        <time>2023-05-24T10:23:27.000Z</time>
      </trkpt>
      <trkpt lat="43.69933" lon="3.57359">
        <ele>72.599998474121</ele>
        <time>2023-05-24T10:23:38.000Z</time>
      </trkpt>
      <trkpt lat="43.69937" lon="3.57345">
        <ele>72.800003051758</ele>
        <time>2023-05-24T10:23:49.000Z</time>
      </trkpt>
      <trkpt lat="43.69942" lon="3.57329">
        <ele>72.599998474121</ele>
        <time>2023-05-24T10:24:00.000Z</time>
      </trkpt>
      <trkpt lat="43.69947" lon="3.57316">
        <ele>72.800003051758</ele>
        <time>2023-05-24T10:24:10.000Z</time>
      </trkpt>
      <trkpt lat="43.69953" lon="3.57299">
        <ele>73</ele>
        <time>2023-05-24T10:24:22.000Z</time>
      </trkpt>
      <trkpt lat="43.69959" lon="3.57282">
        <ele>73.199996948242</ele>
        <time>2023-05-24T10:24:34.000Z</time>
      </trkpt>
      <trkpt lat="43.69963" lon="3.57272">
        <ele>73.199996948242</ele>
        <time>2023-05-24T10:24:42.000Z</time>
      </trkpt>
      <trkpt lat="43.69967" lon="3.57259">
        <ele>73.199996948242</ele>
        <time>2023-05-24T10:24:52.000Z</time>
      </trkpt>
      <trkpt lat="43.69972" lon="3.57246">
        <ele>73.199996948242</ele>
        <time>2023-05-24T10:25:02.000Z</time>
      </trkpt>
      <trkpt lat="43.69978" lon="3.57229">
        <ele>73.400001525879</ele>
        <time>2023-05-24T10:25:13.000Z</time>
      </trkpt>
      <trkpt lat="43.69983" lon="3.57214">
        <ele>73.400001525879</ele>
        <time>2023-05-24T10:25:24.000Z</time>
      </trkpt>
      <trkpt lat="43.69984" lon="3.57212">
        <ele>73.400001525879</ele>
        <time>2023-05-24T10:25:25.000Z</time>
      </trkpt>
      <trkpt lat="43.69985" lon="3.57207">
        <ele>73.400001525879</ele>
        <time>2023-05-24T10:25:29.000Z</time>
      </trkpt>
      <trkpt lat="43.6999" lon="3.57194">
        <ele>73.400001525879</ele>
        <time>2023-05-24T10:25:38.000Z</time>
      </trkpt>
      <trkpt lat="43.69995" lon="3.57182">
        <ele>73.400001525879</ele>
        <time>2023-05-24T10:25:47.000Z</time>
      </trkpt>
      <trkpt lat="43.69998" lon="3.57171">
        <ele>73.400001525879</ele>
        <time>2023-05-24T10:25:55.000Z</time>
      </trkpt>
      <trkpt lat="43.69997" lon="3.57169">
        <ele>73.400001525879</ele>
        <time>2023-05-24T10:25:56.000Z</time>
      </trkpt>
      <trkpt lat="43.69997" lon="3.57168">
        <ele>73.199996948242</ele>
        <time>2023-05-24T10:26:02.000Z</time>
      </trkpt>
      <trkpt lat="43.70002" lon="3.57162">
        <ele>73.199996948242</ele>
        <time>2023-05-24T10:26:08.000Z</time>
      </trkpt>
      <trkpt lat="43.70009" lon="3.57143">
        <ele>73.199996948242</ele>
        <time>2023-05-24T10:26:21.000Z</time>
      </trkpt>
      <trkpt lat="43.70014" lon="3.57128">
        <ele>73.199996948242</ele>
        <time>2023-05-24T10:26:31.000Z</time>
      </trkpt>
      <trkpt lat="43.70019" lon="3.57113">
        <ele>73.199996948242</ele>
        <time>2023-05-24T10:26:42.000Z</time>
      </trkpt>
      <trkpt lat="43.70026" lon="3.57094">
        <ele>73.199996948242</ele>
        <time>2023-05-24T10:26:54.000Z</time>
      </trkpt>
      <trkpt lat="43.70032" lon="3.57079">
        <ele>73.400001525879</ele>
        <time>2023-05-24T10:27:05.000Z</time>
      </trkpt>
      <trkpt lat="43.70037" lon="3.57064">
        <ele>73.400001525879</ele>
        <time>2023-05-24T10:27:15.000Z</time>
      </trkpt>
      <trkpt lat="43.70043" lon="3.57047">
        <ele>73.400001525879</ele>
        <time>2023-05-24T10:27:26.000Z</time>
      </trkpt>
      <trkpt lat="43.70049" lon="3.5703">
        <ele>73.400001525879</ele>
        <time>2023-05-24T10:27:38.000Z</time>
      </trkpt>
      <trkpt lat="43.70056" lon="3.5701">
        <ele>73.400001525879</ele>
        <time>2023-05-24T10:27:52.000Z</time>
      </trkpt>
      <trkpt lat="43.7006" lon="3.57">
        <ele>73.400001525879</ele>
        <time>2023-05-24T10:27:59.000Z</time>
      </trkpt>
      <trkpt lat="43.70065" lon="3.5699">
        <ele>73.199996948242</ele>
        <time>2023-05-24T10:28:07.000Z</time>
      </trkpt>
      <trkpt lat="43.70069" lon="3.56983">
        <ele>73.400001525879</ele>
        <time>2023-05-24T10:28:13.000Z</time>
      </trkpt>
      <trkpt lat="43.70073" lon="3.5697">
        <ele>73.599998474121</ele>
        <time>2023-05-24T10:28:22.000Z</time>
      </trkpt>
      <trkpt lat="43.70076" lon="3.56962">
        <ele>73.599998474121</ele>
        <time>2023-05-24T10:28:28.000Z</time>
      </trkpt>
      <trkpt lat="43.70079" lon="3.56953">
        <ele>73.800003051758</ele>
        <time>2023-05-24T10:28:34.000Z</time>
      </trkpt>
      <trkpt lat="43.70081" lon="3.56949">
        <ele>73.800003051758</ele>
        <time>2023-05-24T10:28:37.000Z</time>
      </trkpt>
      <trkpt lat="43.70087" lon="3.56934">
        <ele>73.599998474121</ele>
        <time>2023-05-24T10:28:49.000Z</time>
      </trkpt>
      <trkpt lat="43.70094" lon="3.56917">
        <ele>73.599998474121</ele>
        <time>2023-05-24T10:29:01.000Z</time>
      </trkpt>
      <trkpt lat="43.70101" lon="3.56905">
        <ele>73.599998474121</ele>
        <time>2023-05-24T10:29:11.000Z</time>
      </trkpt>
      <trkpt lat="43.70105" lon="3.56895">
        <ele>73.400001525879</ele>
        <time>2023-05-24T10:29:19.000Z</time>
      </trkpt>
      <trkpt lat="43.70106" lon="3.56892">
        <ele>72.800003051758</ele>
        <time>2023-05-24T10:29:21.000Z</time>
      </trkpt>
      <trkpt lat="43.70112" lon="3.56881">
        <ele>73.400001525879</ele>
        <time>2023-05-24T10:29:30.000Z</time>
      </trkpt>
      <trkpt lat="43.70116" lon="3.56871">
        <ele>73.400001525879</ele>
        <time>2023-05-24T10:29:38.000Z</time>
      </trkpt>
      <trkpt lat="43.70122" lon="3.56859">
        <ele>73.400001525879</ele>
        <time>2023-05-24T10:29:47.000Z</time>
      </trkpt>
      <trkpt lat="43.70127" lon="3.56847">
        <ele>73.199996948242</ele>
        <time>2023-05-24T10:29:56.000Z</time>
      </trkpt>
      <trkpt lat="43.70134" lon="3.5683">
        <ele>73.400001525879</ele>
        <time>2023-05-24T10:30:08.000Z</time>
      </trkpt>
      <trkpt lat="43.70139" lon="3.56815">
        <ele>73.599998474121</ele>
        <time>2023-05-24T10:30:18.000Z</time>
      </trkpt>
      <trkpt lat="43.70143" lon="3.56803">
        <ele>73.599998474121</ele>
        <time>2023-05-24T10:30:26.000Z</time>
      </trkpt>
      <trkpt lat="43.70145" lon="3.56798">
        <ele>73.800003051758</ele>
        <time>2023-05-24T10:30:31.000Z</time>
      </trkpt>
      <trkpt lat="43.70146" lon="3.56795">
        <ele>73.800003051758</ele>
        <time>2023-05-24T10:30:33.000Z</time>
      </trkpt>
      <trkpt lat="43.70151" lon="3.56779">
        <ele>73.599998474121</ele>
        <time>2023-05-24T10:30:44.000Z</time>
      </trkpt>
      <trkpt lat="43.70156" lon="3.56764">
        <ele>73.599998474121</ele>
        <time>2023-05-24T10:30:54.000Z</time>
      </trkpt>
      <trkpt lat="43.70162" lon="3.56748">
        <ele>73.599998474121</ele>
        <time>2023-05-24T10:31:05.000Z</time>
      </trkpt>
      <trkpt lat="43.70167" lon="3.56732">
        <ele>73.800003051758</ele>
        <time>2023-05-24T10:31:17.000Z</time>
      </trkpt>
      <trkpt lat="43.70173" lon="3.56718">
        <ele>73.800003051758</ele>
        <time>2023-05-24T10:31:28.000Z</time>
      </trkpt>
      <trkpt lat="43.70179" lon="3.56702">
        <ele>74</ele>
        <time>2023-05-24T10:31:40.000Z</time>
      </trkpt>
      <trkpt lat="43.7018" lon="3.567">
        <ele>74</ele>
        <time>2023-05-24T10:31:46.000Z</time>
      </trkpt>
      <trkpt lat="43.70182" lon="3.56694">
        <ele>74.199996948242</ele>
        <time>2023-05-24T10:31:53.000Z</time>
      </trkpt>
      <trkpt lat="43.70187" lon="3.56678">
        <ele>74</ele>
        <time>2023-05-24T10:32:04.000Z</time>
      </trkpt>
      <trkpt lat="43.70193" lon="3.56664">
        <ele>74</ele>
        <time>2023-05-24T10:32:15.000Z</time>
      </trkpt>
      <trkpt lat="43.70197" lon="3.56651">
        <ele>73.800003051758</ele>
        <time>2023-05-24T10:32:24.000Z</time>
      </trkpt>
      <trkpt lat="43.70202" lon="3.56637">
        <ele>74</ele>
        <time>2023-05-24T10:32:34.000Z</time>
      </trkpt>
      <trkpt lat="43.70207" lon="3.56623">
        <ele>74</ele>
        <time>2023-05-24T10:32:45.000Z</time>
      </trkpt>
      <trkpt lat="43.70211" lon="3.56608">
        <ele>74</ele>
        <time>2023-05-24T10:32:55.000Z</time>
      </trkpt>
      <trkpt lat="43.70216" lon="3.56595">
        <ele>74.199996948242</ele>
        <time>2023-05-24T10:33:06.000Z</time>
      </trkpt>
      <trkpt lat="43.7022" lon="3.56585">
        <ele>74.199996948242</ele>
        <time>2023-05-24T10:33:15.000Z</time>
      </trkpt>
      <trkpt lat="43.70225" lon="3.56572">
        <ele>74.199996948242</ele>
        <time>2023-05-24T10:33:25.000Z</time>
      </trkpt>
      <trkpt lat="43.70229" lon="3.56559">
        <ele>74.199996948242</ele>
        <time>2023-05-24T10:33:35.000Z</time>
      </trkpt>
      <trkpt lat="43.70235" lon="3.56542">
        <ele>74.199996948242</ele>
        <time>2023-05-24T10:33:47.000Z</time>
      </trkpt>
      <trkpt lat="43.7024" lon="3.56527">
        <ele>74.199996948242</ele>
        <time>2023-05-24T10:33:57.000Z</time>
      </trkpt>
      <trkpt lat="43.70244" lon="3.56511">
        <ele>74.199996948242</ele>
        <time>2023-05-24T10:34:08.000Z</time>
      </trkpt>
      <trkpt lat="43.7025" lon="3.56496">
        <ele>74.400001525879</ele>
        <time>2023-05-24T10:34:19.000Z</time>
      </trkpt>
      <trkpt lat="43.70253" lon="3.56487">
        <ele>74.400001525879</ele>
        <time>2023-05-24T10:34:26.000Z</time>
      </trkpt>
      <trkpt lat="43.70257" lon="3.56472">
        <ele>74.199996948242</ele>
        <time>2023-05-24T10:34:37.000Z</time>
      </trkpt>
      <trkpt lat="43.70261" lon="3.56457">
        <ele>74.400001525879</ele>
        <time>2023-05-24T10:34:48.000Z</time>
      </trkpt>
      <trkpt lat="43.70264" lon="3.56445">
        <ele>74.599998474121</ele>
        <time>2023-05-24T10:34:57.000Z</time>
      </trkpt>
      <trkpt lat="43.70267" lon="3.56434">
        <ele>74.599998474121</ele>
        <time>2023-05-24T10:35:05.000Z</time>
      </trkpt>
      <trkpt lat="43.7027" lon="3.56423">
        <ele>74.599998474121</ele>
        <time>2023-05-24T10:35:13.000Z</time>
      </trkpt>
      <trkpt lat="43.70274" lon="3.56412">
        <ele>74.599998474121</ele>
        <time>2023-05-24T10:35:21.000Z</time>
      </trkpt>
      <trkpt lat="43.70277" lon="3.56399">
        <ele>74.599998474121</ele>
        <time>2023-05-24T10:35:30.000Z</time>
      </trkpt>
      <trkpt lat="43.70279" lon="3.56393">
        <ele>74.800003051758</ele>
        <time>2023-05-24T10:35:36.000Z</time>
      </trkpt>
      <trkpt lat="43.7028" lon="3.56391">
        <ele>74.800003051758</ele>
        <time>2023-05-24T10:35:38.000Z</time>
      </trkpt>
      <trkpt lat="43.7028" lon="3.5639">
        <ele>74.800003051758</ele>
        <time>2023-05-24T10:35:39.000Z</time>
      </trkpt>
      <trkpt lat="43.70279" lon="3.56386">
        <ele>74.800003051758</ele>
        <time>2023-05-24T10:35:44.000Z</time>
      </trkpt>
      <trkpt lat="43.70274" lon="3.56373">
        <ele>74.599998474121</ele>
        <time>2023-05-24T10:35:54.000Z</time>
      </trkpt>
      <trkpt lat="43.70263" lon="3.5636">
        <ele>74.800003051758</ele>
        <time>2023-05-24T10:36:06.000Z</time>
      </trkpt>
      <trkpt lat="43.70256" lon="3.56354">
        <ele>74</ele>
        <time>2023-05-24T10:36:16.000Z</time>
      </trkpt>
      <trkpt lat="43.70256" lon="3.56352">
        <ele>74.199996948242</ele>
        <time>2023-05-24T10:36:17.000Z</time>
      </trkpt>
      <trkpt lat="43.70253" lon="3.56347">
        <ele>74.199996948242</ele>
        <time>2023-05-24T10:36:21.000Z</time>
      </trkpt>
      <trkpt lat="43.70252" lon="3.56346">
        <ele>74</ele>
        <time>2023-05-24T10:36:22.000Z</time>
      </trkpt>
      <trkpt lat="43.70251" lon="3.56343">
        <ele>73.599998474121</ele>
        <time>2023-05-24T10:36:24.000Z</time>
      </trkpt>
      <trkpt lat="43.70248" lon="3.56338">
        <ele>74.599998474121</ele>
        <time>2023-05-24T10:36:28.000Z</time>
      </trkpt>
      <trkpt lat="43.70246" lon="3.56336">
        <ele>73.599998474121</ele>
        <time>2023-05-24T10:36:30.000Z</time>
      </trkpt>
      <trkpt lat="43.70245" lon="3.56334">
        <ele>74.599998474121</ele>
        <time>2023-05-24T10:36:32.000Z</time>
      </trkpt>
      <trkpt lat="43.70243" lon="3.56329">
        <ele>74.599998474121</ele>
        <time>2023-05-24T10:36:35.000Z</time>
      </trkpt>
      <trkpt lat="43.70239" lon="3.56314">
        <ele>74.400001525879</ele>
        <time>2023-05-24T10:36:45.000Z</time>
      </trkpt>
      <trkpt lat="43.70239" lon="3.56312">
        <ele>73.599998474121</ele>
        <time>2023-05-24T10:36:47.000Z</time>
      </trkpt>
      <trkpt lat="43.70238" lon="3.56297">
        <ele>73.800003051758</ele>
        <time>2023-05-24T10:36:56.000Z</time>
      </trkpt>
      <trkpt lat="43.70238" lon="3.56293">
        <ele>73.599998474121</ele>
        <time>2023-05-24T10:37:01.000Z</time>
      </trkpt>
      <trkpt lat="43.70238" lon="3.56281">
        <ele>73.800003051758</ele>
        <time>2023-05-24T10:37:08.000Z</time>
      </trkpt>
      <trkpt lat="43.70238" lon="3.5628">
        <ele>74.599998474121</ele>
        <time>2023-05-24T10:37:09.000Z</time>
      </trkpt>
      <trkpt lat="43.70238" lon="3.56277">
        <ele>76.199996948242</ele>
        <time>2023-05-24T10:37:11.000Z</time>
      </trkpt>
      <trkpt lat="43.70238" lon="3.56264">
        <ele>75.400001525879</ele>
        <time>2023-05-24T10:37:19.000Z</time>
      </trkpt>
      <trkpt lat="43.70238" lon="3.56258">
        <ele>75</ele>
        <time>2023-05-24T10:37:23.000Z</time>
      </trkpt>
      <trkpt lat="43.70237" lon="3.56245">
        <ele>75</ele>
        <time>2023-05-24T10:37:31.000Z</time>
      </trkpt>
      <trkpt lat="43.70236" lon="3.56227">
        <ele>74.800003051758</ele>
        <time>2023-05-24T10:37:42.000Z</time>
      </trkpt>
      <trkpt lat="43.70235" lon="3.56212">
        <ele>74.800003051758</ele>
        <time>2023-05-24T10:37:51.000Z</time>
      </trkpt>
      <trkpt lat="43.70236" lon="3.56197">
        <ele>74.400001525879</ele>
        <time>2023-05-24T10:38:01.000Z</time>
      </trkpt>
      <trkpt lat="43.70235" lon="3.56175">
        <ele>74.400001525879</ele>
        <time>2023-05-24T10:38:15.000Z</time>
      </trkpt>
      <trkpt lat="43.70235" lon="3.56174">
        <ele>73</ele>
        <time>2023-05-24T10:38:18.000Z</time>
      </trkpt>
      <trkpt lat="43.70235" lon="3.5617">
        <ele>73.599998474121</ele>
        <time>2023-05-24T10:38:21.000Z</time>
      </trkpt>
      <trkpt lat="43.70235" lon="3.56167">
        <ele>70</ele>
        <time>2023-05-24T10:38:23.000Z</time>
      </trkpt>
      <trkpt lat="43.70235" lon="3.56166">
        <ele>71.599998474121</ele>
        <time>2023-05-24T10:38:24.000Z</time>
      </trkpt>
      <trkpt lat="43.70234" lon="3.56159">
        <ele>73.800003051758</ele>
        <time>2023-05-24T10:38:29.000Z</time>
      </trkpt>
      <trkpt lat="43.70234" lon="3.56157">
        <ele>73.599998474121</ele>
        <time>2023-05-24T10:38:30.000Z</time>
      </trkpt>
      <trkpt lat="43.70234" lon="3.56153">
        <ele>72.599998474121</ele>
        <time>2023-05-24T10:38:33.000Z</time>
      </trkpt>
      <trkpt lat="43.70234" lon="3.56146">
        <ele>71.400001525879</ele>
        <time>2023-05-24T10:38:38.000Z</time>
      </trkpt>
      <trkpt lat="43.70234" lon="3.56147">
        <ele>71</ele>
        <time>2023-05-24T10:38:40.000Z</time>
      </trkpt>
      <trkpt lat="43.70234" lon="3.56146">
        <ele>70.400001525879</ele>
        <time>2023-05-24T10:38:45.000Z</time>
      </trkpt>
      <trkpt lat="43.70234" lon="3.56143">
        <ele>69.800003051758</ele>
        <time>2023-05-24T10:38:48.000Z</time>
      </trkpt>
      <trkpt lat="43.70234" lon="3.56136">
        <ele>69.400001525879</ele>
        <time>2023-05-24T10:38:53.000Z</time>
      </trkpt>
      <trkpt lat="43.70234" lon="3.56132">
        <ele>69</ele>
        <time>2023-05-24T10:38:56.000Z</time>
      </trkpt>
      <trkpt lat="43.70233" lon="3.56123">
        <ele>68.800003051758</ele>
        <time>2023-05-24T10:39:02.000Z</time>
      </trkpt>
      <trkpt lat="43.70232" lon="3.56106">
        <ele>68.400001525879</ele>
        <time>2023-05-24T10:39:13.000Z</time>
      </trkpt>
      <trkpt lat="43.70232" lon="3.56093">
        <ele>68.199996948242</ele>
        <time>2023-05-24T10:39:22.000Z</time>
      </trkpt>
      <trkpt lat="43.70232" lon="3.56091">
        <ele>68.199996948242</ele>
        <time>2023-05-24T10:39:23.000Z</time>
      </trkpt>
      <trkpt lat="43.70232" lon="3.56076">
        <ele>67.800003051758</ele>
        <time>2023-05-24T10:39:33.000Z</time>
      </trkpt>
      <trkpt lat="43.70231" lon="3.56062">
        <ele>67.800003051758</ele>
        <time>2023-05-24T10:39:43.000Z</time>
      </trkpt>
      <trkpt lat="43.70231" lon="3.56061">
        <ele>67.800003051758</ele>
        <time>2023-05-24T10:39:44.000Z</time>
      </trkpt>
      <trkpt lat="43.7023" lon="3.56056">
        <ele>67.599998474121</ele>
        <time>2023-05-24T10:39:50.000Z</time>
      </trkpt>
      <trkpt lat="43.7023" lon="3.56046">
        <ele>67.400001525879</ele>
        <time>2023-05-24T10:39:57.000Z</time>
      </trkpt>
      <trkpt lat="43.7023" lon="3.56043">
        <ele>67.199996948242</ele>
        <time>2023-05-24T10:39:59.000Z</time>
      </trkpt>
      <trkpt lat="43.70231" lon="3.5603">
        <ele>66.599998474121</ele>
        <time>2023-05-24T10:40:08.000Z</time>
      </trkpt>
      <trkpt lat="43.70231" lon="3.56021">
        <ele>66.199996948242</ele>
        <time>2023-05-24T10:40:14.000Z</time>
      </trkpt>
      <trkpt lat="43.70231" lon="3.56019">
        <ele>66</ele>
        <time>2023-05-24T10:40:16.000Z</time>
      </trkpt>
      <trkpt lat="43.70231" lon="3.56009">
        <ele>65.800003051758</ele>
        <time>2023-05-24T10:40:23.000Z</time>
      </trkpt>
      <trkpt lat="43.70232" lon="3.56008">
        <ele>65.800003051758</ele>
        <time>2023-05-24T10:40:25.000Z</time>
      </trkpt>
      <trkpt lat="43.70232" lon="3.56008">
        <ele>65.800003051758</ele>
        <time>2023-05-24T10:40:30.000Z</time>
      </trkpt>
      <trkpt lat="43.70232" lon="3.56007">
        <ele>65.199996948242</ele>
        <time>2023-05-24T10:40:35.000Z</time>
      </trkpt>
      <trkpt lat="43.70232" lon="3.56005">
        <ele>65.800003051758</ele>
        <time>2023-05-24T10:40:47.000Z</time>
      </trkpt>
      <trkpt lat="43.70233" lon="3.56006">
        <ele>65.599998474121</ele>
        <time>2023-05-24T10:40:55.000Z</time>
      </trkpt>
      <trkpt lat="43.70231" lon="3.56007">
        <ele>65.800003051758</ele>
        <time>2023-05-24T10:41:00.000Z</time>
      </trkpt>
      <trkpt lat="43.70233" lon="3.56005">
        <ele>66</ele>
        <time>2023-05-24T10:41:07.000Z</time>
      </trkpt>
      <trkpt lat="43.70232" lon="3.55999">
        <ele>66</ele>
        <time>2023-05-24T10:41:14.000Z</time>
      </trkpt>
      <trkpt lat="43.70231" lon="3.55985">
        <ele>65.800003051758</ele>
        <time>2023-05-24T10:41:24.000Z</time>
      </trkpt>
      <trkpt lat="43.70231" lon="3.55977">
        <ele>66.599998474121</ele>
        <time>2023-05-24T10:41:30.000Z</time>
      </trkpt>
      <trkpt lat="43.70231" lon="3.55972">
        <ele>65.400001525879</ele>
        <time>2023-05-24T10:41:33.000Z</time>
      </trkpt>
      <trkpt lat="43.70231" lon="3.5597">
        <ele>62.599998474121</ele>
        <time>2023-05-24T10:41:35.000Z</time>
      </trkpt>
      <trkpt lat="43.70233" lon="3.55964">
        <ele>63.799999237061</ele>
        <time>2023-05-24T10:41:39.000Z</time>
      </trkpt>
      <trkpt lat="43.70234" lon="3.55963">
        <ele>64.800003051758</ele>
        <time>2023-05-24T10:41:41.000Z</time>
      </trkpt>
      <trkpt lat="43.70235" lon="3.55962">
        <ele>65</ele>
        <time>2023-05-24T10:41:42.000Z</time>
      </trkpt>
      <trkpt lat="43.70236" lon="3.55961">
        <ele>62.599998474121</ele>
        <time>2023-05-24T10:41:43.000Z</time>
      </trkpt>
      <trkpt lat="43.70238" lon="3.5596">
        <ele>60.200000762939</ele>
        <time>2023-05-24T10:41:45.000Z</time>
      </trkpt>
      <trkpt lat="43.70241" lon="3.5596">
        <ele>62</ele>
        <time>2023-05-24T10:41:48.000Z</time>
      </trkpt>
      <trkpt lat="43.70241" lon="3.5596">
        <ele>63.200000762939</ele>
        <time>2023-05-24T10:41:49.000Z</time>
      </trkpt>
      <trkpt lat="43.70242" lon="3.5596">
        <ele>64.599998474121</ele>
        <time>2023-05-24T10:41:50.000Z</time>
      </trkpt>
      <trkpt lat="43.70244" lon="3.55962">
        <ele>66.199996948242</ele>
        <time>2023-05-24T10:41:53.000Z</time>
      </trkpt>
      <trkpt lat="43.70246" lon="3.55963">
        <ele>65.599998474121</ele>
        <time>2023-05-24T10:41:58.000Z</time>
      </trkpt>
      <trkpt lat="43.70246" lon="3.55965">
        <ele>65.599998474121</ele>
        <time>2023-05-24T10:42:13.000Z</time>
      </trkpt>
      <trkpt lat="43.70248" lon="3.55966">
        <ele>65.599998474121</ele>
        <time>2023-05-24T10:42:31.000Z</time>
      </trkpt>
      <trkpt lat="43.70248" lon="3.55966">
        <ele>65.599998474121</ele>
        <time>2023-05-24T10:42:36.000Z</time>
      </trkpt>
      <trkpt lat="43.7025" lon="3.55964">
        <ele>65.400001525879</ele>
        <time>2023-05-24T10:42:48.000Z</time>
      </trkpt>
      <trkpt lat="43.70251" lon="3.55963">
        <ele>65.599998474121</ele>
        <time>2023-05-24T10:42:59.000Z</time>
      </trkpt>
      <trkpt lat="43.70252" lon="3.55965">
        <ele>67</ele>
        <time>2023-05-24T10:43:08.000Z</time>
      </trkpt>
      <trkpt lat="43.70254" lon="3.55966">
        <ele>65.599998474121</ele>
        <time>2023-05-24T10:43:15.000Z</time>
      </trkpt>
      <trkpt lat="43.70254" lon="3.55966">
        <ele>65</ele>
        <time>2023-05-24T10:43:19.000Z</time>
      </trkpt>
      <trkpt lat="43.70254" lon="3.55966">
        <ele>64.800003051758</ele>
        <time>2023-05-24T10:43:33.000Z</time>
      </trkpt>
      <trkpt lat="43.70254" lon="3.55966">
        <ele>64.800003051758</ele>
        <time>2023-05-24T10:43:45.000Z</time>
      </trkpt>
      <trkpt lat="43.70254" lon="3.55961">
        <ele>66</ele>
        <time>2023-05-24T10:43:50.000Z</time>
      </trkpt>
      <trkpt lat="43.70254" lon="3.5596">
        <ele>65.599998474121</ele>
        <time>2023-05-24T10:43:55.000Z</time>
      </trkpt>
      <trkpt lat="43.70255" lon="3.55961">
        <ele>65.800003051758</ele>
        <time>2023-05-24T10:44:06.000Z</time>
      </trkpt>
      <trkpt lat="43.70255" lon="3.55961">
        <ele>68.400001525879</ele>
        <time>2023-05-24T10:44:09.000Z</time>
      </trkpt>
      <trkpt lat="43.70255" lon="3.55961">
        <ele>69.800003051758</ele>
        <time>2023-05-24T10:44:11.000Z</time>
      </trkpt>
      <trkpt lat="43.70255" lon="3.55961">
        <ele>68.599998474121</ele>
        <time>2023-05-24T10:44:12.000Z</time>
      </trkpt>
      <trkpt lat="43.70255" lon="3.55961">
        <ele>66.199996948242</ele>
        <time>2023-05-24T10:44:13.000Z</time>
      </trkpt>
      <trkpt lat="43.70255" lon="3.55961">
        <ele>68.199996948242</ele>
        <time>2023-05-24T10:44:14.000Z</time>
      </trkpt>
      <trkpt lat="43.70254" lon="3.55961">
        <ele>68</ele>
        <time>2023-05-24T10:44:17.000Z</time>
      </trkpt>
      <trkpt lat="43.70253" lon="3.55961">
        <ele>67</ele>
        <time>2023-05-24T10:44:27.000Z</time>
      </trkpt>
      <trkpt lat="43.70253" lon="3.55961">
        <ele>67</ele>
        <time>2023-05-24T10:44:29.000Z</time>
      </trkpt>
      <trkpt lat="43.70253" lon="3.55961">
        <ele>67.199996948242</ele>
        <time>2023-05-24T10:44:41.000Z</time>
      </trkpt>
      <trkpt lat="43.70252" lon="3.55962">
        <ele>67.800003051758</ele>
        <time>2023-05-24T10:44:54.000Z</time>
      </trkpt>
      <trkpt lat="43.70252" lon="3.55962">
        <ele>67.400001525879</ele>
        <time>2023-05-24T10:45:11.000Z</time>
      </trkpt>
      <trkpt lat="43.70251" lon="3.55962">
        <ele>66.199996948242</ele>
        <time>2023-05-24T10:45:23.000Z</time>
      </trkpt>
      <trkpt lat="43.70251" lon="3.55962">
        <ele>66</ele>
        <time>2023-05-24T10:45:26.000Z</time>
      </trkpt>
      <trkpt lat="43.70254" lon="3.55962">
        <ele>66</ele>
        <time>2023-05-24T10:45:35.000Z</time>
      </trkpt>
      <trkpt lat="43.70261" lon="3.55966">
        <ele>65.599998474121</ele>
        <time>2023-05-24T10:45:43.000Z</time>
      </trkpt>
      <trkpt lat="43.70267" lon="3.55969">
        <ele>65.400001525879</ele>
        <time>2023-05-24T10:45:49.000Z</time>
      </trkpt>
      <trkpt lat="43.70269" lon="3.55971">
        <ele>65.400001525879</ele>
        <time>2023-05-24T10:45:52.000Z</time>
      </trkpt>
      <trkpt lat="43.70276" lon="3.55974">
        <ele>65.800003051758</ele>
        <time>2023-05-24T10:46:00.000Z</time>
      </trkpt>
      <trkpt lat="43.70282" lon="3.55978">
        <ele>65.800003051758</ele>
        <time>2023-05-24T10:46:07.000Z</time>
      </trkpt>
      <trkpt lat="43.70283" lon="3.55979">
        <ele>65.800003051758</ele>
        <time>2023-05-24T10:46:08.000Z</time>
      </trkpt>
      <trkpt lat="43.70285" lon="3.55984">
        <ele>65.800003051758</ele>
        <time>2023-05-24T10:46:13.000Z</time>
      </trkpt>
      <trkpt lat="43.70289" lon="3.55985">
        <ele>65.800003051758</ele>
        <time>2023-05-24T10:46:17.000Z</time>
      </trkpt>
      <trkpt lat="43.70291" lon="3.55985">
        <ele>65.800003051758</ele>
        <time>2023-05-24T10:46:19.000Z</time>
      </trkpt>
      <trkpt lat="43.70297" lon="3.55985">
        <ele>65.800003051758</ele>
        <time>2023-05-24T10:46:27.000Z</time>
      </trkpt>
      <trkpt lat="43.70298" lon="3.55984">
        <ele>65.800003051758</ele>
        <time>2023-05-24T10:46:28.000Z</time>
      </trkpt>
      <trkpt lat="43.70303" lon="3.55975">
        <ele>65</ele>
        <time>2023-05-24T10:46:37.000Z</time>
      </trkpt>
      <trkpt lat="43.70303" lon="3.55973">
        <ele>65</ele>
        <time>2023-05-24T10:46:38.000Z</time>
      </trkpt>
      <trkpt lat="43.70304" lon="3.55964">
        <ele>64.400001525879</ele>
        <time>2023-05-24T10:46:46.000Z</time>
      </trkpt>
      <trkpt lat="43.70304" lon="3.55962">
        <ele>64.199996948242</ele>
        <time>2023-05-24T10:46:48.000Z</time>
      </trkpt>
      <trkpt lat="43.70305" lon="3.55959">
        <ele>63.599998474121</ele>
        <time>2023-05-24T10:46:51.000Z</time>
      </trkpt>
      <trkpt lat="43.70305" lon="3.55958">
        <ele>61.799999237061</ele>
        <time>2023-05-24T10:46:52.000Z</time>
      </trkpt>
      <trkpt lat="43.70305" lon="3.55957">
        <ele>58.599998474121</ele>
        <time>2023-05-24T10:46:53.000Z</time>
      </trkpt>
      <trkpt lat="43.70305" lon="3.55956">
        <ele>54</ele>
        <time>2023-05-24T10:46:54.000Z</time>
      </trkpt>
      <trkpt lat="43.70305" lon="3.55956">
        <ele>50.400001525879</ele>
        <time>2023-05-24T10:46:55.000Z</time>
      </trkpt>
      <trkpt lat="43.70305" lon="3.55957">
        <ele>49</ele>
        <time>2023-05-24T10:46:56.000Z</time>
      </trkpt>
      <trkpt lat="43.70305" lon="3.55956">
        <ele>50.400001525879</ele>
        <time>2023-05-24T10:46:58.000Z</time>
      </trkpt>
      <trkpt lat="43.70305" lon="3.55956">
        <ele>52.599998474121</ele>
        <time>2023-05-24T10:46:59.000Z</time>
      </trkpt>
      <trkpt lat="43.70305" lon="3.55956">
        <ele>53.799999237061</ele>
        <time>2023-05-24T10:47:00.000Z</time>
      </trkpt>
      <trkpt lat="43.70306" lon="3.55956">
        <ele>55</ele>
        <time>2023-05-24T10:47:02.000Z</time>
      </trkpt>
      <trkpt lat="43.70308" lon="3.55959">
        <ele>53.799999237061</ele>
        <time>2023-05-24T10:47:06.000Z</time>
      </trkpt>
      <trkpt lat="43.7031" lon="3.55961">
        <ele>53.400001525879</ele>
        <time>2023-05-24T10:47:09.000Z</time>
      </trkpt>
      <trkpt lat="43.7031" lon="3.5596">
        <ele>51.599998474121</ele>
        <time>2023-05-24T10:47:11.000Z</time>
      </trkpt>
      <trkpt lat="43.70309" lon="3.55961">
        <ele>50.200000762939</ele>
        <time>2023-05-24T10:47:13.000Z</time>
      </trkpt>
      <trkpt lat="43.70309" lon="3.55962">
        <ele>51</ele>
        <time>2023-05-24T10:47:15.000Z</time>
      </trkpt>
      <trkpt lat="43.70309" lon="3.55961">
        <ele>51.400001525879</ele>
        <time>2023-05-24T10:47:18.000Z</time>
      </trkpt>
      <trkpt lat="43.7031" lon="3.55962">
        <ele>52.599998474121</ele>
        <time>2023-05-24T10:47:26.000Z</time>
      </trkpt>
      <trkpt lat="43.7031" lon="3.55963">
        <ele>52.799999237061</ele>
        <time>2023-05-24T10:47:27.000Z</time>
      </trkpt>
      <trkpt lat="43.70314" lon="3.55966">
        <ele>53.400001525879</ele>
        <time>2023-05-24T10:47:32.000Z</time>
      </trkpt>
      <trkpt lat="43.70317" lon="3.5597">
        <ele>53.599998474121</ele>
        <time>2023-05-24T10:47:37.000Z</time>
      </trkpt>
      <trkpt lat="43.70318" lon="3.55971">
        <ele>54</ele>
        <time>2023-05-24T10:47:39.000Z</time>
      </trkpt>
      <trkpt lat="43.70322" lon="3.55974">
        <ele>53.599998474121</ele>
        <time>2023-05-24T10:47:44.000Z</time>
      </trkpt>
      <trkpt lat="43.70322" lon="3.55974">
        <ele>53.599998474121</ele>
        <time>2023-05-24T10:47:45.000Z</time>
      </trkpt>
      <trkpt lat="43.70325" lon="3.55976">
        <ele>53.400001525879</ele>
        <time>2023-05-24T10:47:50.000Z</time>
      </trkpt>
      <trkpt lat="43.70331" lon="3.5598">
        <ele>52.599998474121</ele>
        <time>2023-05-24T10:47:58.000Z</time>
      </trkpt>
      <trkpt lat="43.70331" lon="3.5598">
        <ele>52.200000762939</ele>
        <time>2023-05-24T10:47:59.000Z</time>
      </trkpt>
      <trkpt lat="43.70337" lon="3.55983">
        <ele>52.200000762939</ele>
        <time>2023-05-24T10:48:06.000Z</time>
      </trkpt>
      <trkpt lat="43.7034" lon="3.55984">
        <ele>53.200000762939</ele>
        <time>2023-05-24T10:48:09.000Z</time>
      </trkpt>
      <trkpt lat="43.70341" lon="3.55985">
        <ele>54.599998474121</ele>
        <time>2023-05-24T10:48:10.000Z</time>
      </trkpt>
      <trkpt lat="43.70343" lon="3.55986">
        <ele>55.799999237061</ele>
        <time>2023-05-24T10:48:13.000Z</time>
      </trkpt>
      <trkpt lat="43.70343" lon="3.55986">
        <ele>55.799999237061</ele>
        <time>2023-05-24T10:48:14.000Z</time>
      </trkpt>
      <trkpt lat="43.70344" lon="3.55986">
        <ele>54.799999237061</ele>
        <time>2023-05-24T10:48:16.000Z</time>
      </trkpt>
      <trkpt lat="43.70344" lon="3.55987">
        <ele>53.400001525879</ele>
        <time>2023-05-24T10:48:17.000Z</time>
      </trkpt>
      <trkpt lat="43.70348" lon="3.55988">
        <ele>54</ele>
        <time>2023-05-24T10:48:20.000Z</time>
      </trkpt>
      <trkpt lat="43.70351" lon="3.55988">
        <ele>54.799999237061</ele>
        <time>2023-05-24T10:48:23.000Z</time>
      </trkpt>
      <trkpt lat="43.70355" lon="3.55989">
        <ele>54.799999237061</ele>
        <time>2023-05-24T10:48:27.000Z</time>
      </trkpt>
      <trkpt lat="43.70357" lon="3.5599">
        <ele>54.200000762939</ele>
        <time>2023-05-24T10:48:29.000Z</time>
      </trkpt>
      <trkpt lat="43.70363" lon="3.55991">
        <ele>56</ele>
        <time>2023-05-24T10:48:34.000Z</time>
      </trkpt>
      <trkpt lat="43.70365" lon="3.55991">
        <ele>58.200000762939</ele>
        <time>2023-05-24T10:48:36.000Z</time>
      </trkpt>
      <trkpt lat="43.70369" lon="3.55993">
        <ele>58.799999237061</ele>
        <time>2023-05-24T10:48:41.000Z</time>
      </trkpt>
      <trkpt lat="43.70369" lon="3.55993">
        <ele>59.400001525879</ele>
        <time>2023-05-24T10:48:42.000Z</time>
      </trkpt>
      <trkpt lat="43.70371" lon="3.55994">
        <ele>61.400001525879</ele>
        <time>2023-05-24T10:48:43.000Z</time>
      </trkpt>
      <trkpt lat="43.70372" lon="3.55994">
        <ele>62.599998474121</ele>
        <time>2023-05-24T10:48:44.000Z</time>
      </trkpt>
      <trkpt lat="43.70375" lon="3.55995">
        <ele>62.599998474121</ele>
        <time>2023-05-24T10:48:47.000Z</time>
      </trkpt>
      <trkpt lat="43.70378" lon="3.55995">
        <ele>63.799999237061</ele>
        <time>2023-05-24T10:48:52.000Z</time>
      </trkpt>
      <trkpt lat="43.7038" lon="3.55996">
        <ele>65</ele>
        <time>2023-05-24T10:48:53.000Z</time>
      </trkpt>
      <trkpt lat="43.70381" lon="3.55995">
        <ele>67.199996948242</ele>
        <time>2023-05-24T10:48:54.000Z</time>
      </trkpt>
      <trkpt lat="43.70383" lon="3.55996">
        <ele>69</ele>
        <time>2023-05-24T10:48:56.000Z</time>
      </trkpt>
      <trkpt lat="43.70385" lon="3.55997">
        <ele>69.800003051758</ele>
        <time>2023-05-24T10:48:58.000Z</time>
      </trkpt>
      <trkpt lat="43.70386" lon="3.55997">
        <ele>69</ele>
        <time>2023-05-24T10:48:59.000Z</time>
      </trkpt>
      <trkpt lat="43.70389" lon="3.55998">
        <ele>67.800003051758</ele>
        <time>2023-05-24T10:49:02.000Z</time>
      </trkpt>
      <trkpt lat="43.7039" lon="3.55999">
        <ele>66.599998474121</ele>
        <time>2023-05-24T10:49:04.000Z</time>
      </trkpt>
      <trkpt lat="43.70391" lon="3.55999">
        <ele>66.199996948242</ele>
        <time>2023-05-24T10:49:05.000Z</time>
      </trkpt>
      <trkpt lat="43.70392" lon="3.56">
        <ele>65.800003051758</ele>
        <time>2023-05-24T10:49:06.000Z</time>
      </trkpt>
      <trkpt lat="43.70396" lon="3.56001">
        <ele>67.599998474121</ele>
        <time>2023-05-24T10:49:11.000Z</time>
      </trkpt>
      <trkpt lat="43.70397" lon="3.56002">
        <ele>68.199996948242</ele>
        <time>2023-05-24T10:49:12.000Z</time>
      </trkpt>
      <trkpt lat="43.70399" lon="3.56003">
        <ele>69.599998474121</ele>
        <time>2023-05-24T10:49:15.000Z</time>
      </trkpt>
      <trkpt lat="43.70399" lon="3.56003">
        <ele>70.800003051758</ele>
        <time>2023-05-24T10:49:16.000Z</time>
      </trkpt>
      <trkpt lat="43.70401" lon="3.56004">
        <ele>71.599998474121</ele>
        <time>2023-05-24T10:49:18.000Z</time>
      </trkpt>
      <trkpt lat="43.70401" lon="3.56004">
        <ele>72.199996948242</ele>
        <time>2023-05-24T10:49:19.000Z</time>
      </trkpt>
      <trkpt lat="43.70404" lon="3.56007">
        <ele>72.800003051758</ele>
        <time>2023-05-24T10:49:24.000Z</time>
      </trkpt>
      <trkpt lat="43.70409" lon="3.5601">
        <ele>73</ele>
        <time>2023-05-24T10:49:30.000Z</time>
      </trkpt>
      <trkpt lat="43.7041" lon="3.5601">
        <ele>74.400001525879</ele>
        <time>2023-05-24T10:49:31.000Z</time>
      </trkpt>
      <trkpt lat="43.70414" lon="3.56012">
        <ele>73.199996948242</ele>
        <time>2023-05-24T10:49:36.000Z</time>
      </trkpt>
      <trkpt lat="43.70419" lon="3.56014">
        <ele>74.599998474121</ele>
        <time>2023-05-24T10:49:42.000Z</time>
      </trkpt>
      <trkpt lat="43.70422" lon="3.56015">
        <ele>76.199996948242</ele>
        <time>2023-05-24T10:49:45.000Z</time>
      </trkpt>
      <trkpt lat="43.70422" lon="3.56015">
        <ele>77.199996948242</ele>
        <time>2023-05-24T10:49:47.000Z</time>
      </trkpt>
      <trkpt lat="43.70423" lon="3.56014">
        <ele>78.800003051758</ele>
        <time>2023-05-24T10:49:49.000Z</time>
      </trkpt>
      <trkpt lat="43.70424" lon="3.56016">
        <ele>80.199996948242</ele>
        <time>2023-05-24T10:49:51.000Z</time>
      </trkpt>
      <trkpt lat="43.70425" lon="3.56015">
        <ele>80.400001525879</ele>
        <time>2023-05-24T10:49:52.000Z</time>
      </trkpt>
      <trkpt lat="43.7043" lon="3.56017">
        <ele>79.800003051758</ele>
        <time>2023-05-24T10:49:59.000Z</time>
      </trkpt>
      <trkpt lat="43.70431" lon="3.56017">
        <ele>79</ele>
        <time>2023-05-24T10:50:01.000Z</time>
      </trkpt>
      <trkpt lat="43.70434" lon="3.56021">
        <ele>78.400001525879</ele>
        <time>2023-05-24T10:50:06.000Z</time>
      </trkpt>
      <trkpt lat="43.70434" lon="3.56022">
        <ele>77.800003051758</ele>
        <time>2023-05-24T10:50:08.000Z</time>
      </trkpt>
      <trkpt lat="43.70435" lon="3.56021">
        <ele>76.199996948242</ele>
        <time>2023-05-24T10:50:13.000Z</time>
      </trkpt>
      <trkpt lat="43.70435" lon="3.56021">
        <ele>78</ele>
        <time>2023-05-24T10:50:15.000Z</time>
      </trkpt>
      <trkpt lat="43.70435" lon="3.56022">
        <ele>79.599998474121</ele>
        <time>2023-05-24T10:50:17.000Z</time>
      </trkpt>
      <trkpt lat="43.70435" lon="3.56021">
        <ele>80.800003051758</ele>
        <time>2023-05-24T10:50:19.000Z</time>
      </trkpt>
      <trkpt lat="43.70436" lon="3.56021">
        <ele>82.199996948242</ele>
        <time>2023-05-24T10:50:20.000Z</time>
      </trkpt>
      <trkpt lat="43.70436" lon="3.56021">
        <ele>81</ele>
        <time>2023-05-24T10:50:22.000Z</time>
      </trkpt>
      <trkpt lat="43.70436" lon="3.5602">
        <ele>80.199996948242</ele>
        <time>2023-05-24T10:50:24.000Z</time>
      </trkpt>
      <trkpt lat="43.70437" lon="3.5602">
        <ele>76</ele>
        <time>2023-05-24T10:50:25.000Z</time>
      </trkpt>
      <trkpt lat="43.70437" lon="3.5602">
        <ele>74.199996948242</ele>
        <time>2023-05-24T10:50:26.000Z</time>
      </trkpt>
      <trkpt lat="43.70436" lon="3.56021">
        <ele>72.400001525879</ele>
        <time>2023-05-24T10:50:27.000Z</time>
      </trkpt>
      <trkpt lat="43.70437" lon="3.56021">
        <ele>70.400001525879</ele>
        <time>2023-05-24T10:50:28.000Z</time>
      </trkpt>
      <trkpt lat="43.70437" lon="3.5602">
        <ele>68.400001525879</ele>
        <time>2023-05-24T10:50:29.000Z</time>
      </trkpt>
      <trkpt lat="43.70437" lon="3.5602">
        <ele>71</ele>
        <time>2023-05-24T10:50:30.000Z</time>
      </trkpt>
      <trkpt lat="43.70437" lon="3.5602">
        <ele>72.400001525879</ele>
        <time>2023-05-24T10:50:31.000Z</time>
      </trkpt>
      <trkpt lat="43.70437" lon="3.5602">
        <ele>72.599998474121</ele>
        <time>2023-05-24T10:50:37.000Z</time>
      </trkpt>
      <trkpt lat="43.70437" lon="3.56018">
        <ele>72</ele>
        <time>2023-05-24T10:50:43.000Z</time>
      </trkpt>
      <trkpt lat="43.70437" lon="3.56019">
        <ele>70.599998474121</ele>
        <time>2023-05-24T10:50:44.000Z</time>
      </trkpt>
      <trkpt lat="43.70438" lon="3.56017">
        <ele>70.800003051758</ele>
        <time>2023-05-24T10:50:49.000Z</time>
      </trkpt>
      <trkpt lat="43.70438" lon="3.56019">
        <ele>70.800003051758</ele>
        <time>2023-05-24T10:50:54.000Z</time>
      </trkpt>
      <trkpt lat="43.70439" lon="3.56019">
        <ele>67.400001525879</ele>
        <time>2023-05-24T10:50:57.000Z</time>
      </trkpt>
      <trkpt lat="43.70439" lon="3.5602">
        <ele>66.199996948242</ele>
        <time>2023-05-24T10:50:58.000Z</time>
      </trkpt>
      <trkpt lat="43.70441" lon="3.5602">
        <ele>67.599998474121</ele>
        <time>2023-05-24T10:51:00.000Z</time>
      </trkpt>
      <trkpt lat="43.70441" lon="3.5602">
        <ele>69.199996948242</ele>
        <time>2023-05-24T10:51:01.000Z</time>
      </trkpt>
      <trkpt lat="43.70442" lon="3.5602">
        <ele>70.599998474121</ele>
        <time>2023-05-24T10:51:02.000Z</time>
      </trkpt>
      <trkpt lat="43.70443" lon="3.56021">
        <ele>71</ele>
        <time>2023-05-24T10:51:03.000Z</time>
      </trkpt>
      <trkpt lat="43.70444" lon="3.56021">
        <ele>68</ele>
        <time>2023-05-24T10:51:04.000Z</time>
      </trkpt>
      <trkpt lat="43.70444" lon="3.56021">
        <ele>66</ele>
        <time>2023-05-24T10:51:05.000Z</time>
      </trkpt>
      <trkpt lat="43.70445" lon="3.56022">
        <ele>60.799999237061</ele>
        <time>2023-05-24T10:51:06.000Z</time>
      </trkpt>
      <trkpt lat="43.70446" lon="3.56022">
        <ele>56.799999237061</ele>
        <time>2023-05-24T10:51:07.000Z</time>
      </trkpt>
      <trkpt lat="43.70447" lon="3.56023">
        <ele>53</ele>
        <time>2023-05-24T10:51:08.000Z</time>
      </trkpt>
      <trkpt lat="43.70447" lon="3.56023">
        <ele>51.599998474121</ele>
        <time>2023-05-24T10:51:09.000Z</time>
      </trkpt>
      <trkpt lat="43.70449" lon="3.56024">
        <ele>51.799999237061</ele>
        <time>2023-05-24T10:51:11.000Z</time>
      </trkpt>
      <trkpt lat="43.70451" lon="3.56025">
        <ele>54.200000762939</ele>
        <time>2023-05-24T10:51:13.000Z</time>
      </trkpt>
      <trkpt lat="43.70452" lon="3.56025">
        <ele>56.599998474121</ele>
        <time>2023-05-24T10:51:14.000Z</time>
      </trkpt>
      <trkpt lat="43.70453" lon="3.56025">
        <ele>58.400001525879</ele>
        <time>2023-05-24T10:51:15.000Z</time>
      </trkpt>
      <trkpt lat="43.70454" lon="3.56026">
        <ele>57.200000762939</ele>
        <time>2023-05-24T10:51:16.000Z</time>
      </trkpt>
      <trkpt lat="43.70455" lon="3.56026">
        <ele>54.599998474121</ele>
        <time>2023-05-24T10:51:17.000Z</time>
      </trkpt>
      <trkpt lat="43.70455" lon="3.56026">
        <ele>51.200000762939</ele>
        <time>2023-05-24T10:51:18.000Z</time>
      </trkpt>
      <trkpt lat="43.70455" lon="3.56026">
        <ele>52.200000762939</ele>
        <time>2023-05-24T10:51:19.000Z</time>
      </trkpt>
      <trkpt lat="43.70456" lon="3.56027">
        <ele>55</ele>
        <time>2023-05-24T10:51:21.000Z</time>
      </trkpt>
      <trkpt lat="43.70457" lon="3.56027">
        <ele>59.400001525879</ele>
        <time>2023-05-24T10:51:22.000Z</time>
      </trkpt>
      <trkpt lat="43.70458" lon="3.56027">
        <ele>62</ele>
        <time>2023-05-24T10:51:23.000Z</time>
      </trkpt>
      <trkpt lat="43.70459" lon="3.56028">
        <ele>59.400001525879</ele>
        <time>2023-05-24T10:51:24.000Z</time>
      </trkpt>
      <trkpt lat="43.7046" lon="3.56028">
        <ele>60.799999237061</ele>
        <time>2023-05-24T10:51:25.000Z</time>
      </trkpt>
      <trkpt lat="43.70461" lon="3.56028">
        <ele>60.799999237061</ele>
        <time>2023-05-24T10:51:26.000Z</time>
      </trkpt>
      <trkpt lat="43.70467" lon="3.56029">
        <ele>61</ele>
        <time>2023-05-24T10:51:33.000Z</time>
      </trkpt>
      <trkpt lat="43.70474" lon="3.56029">
        <ele>60.200000762939</ele>
        <time>2023-05-24T10:51:40.000Z</time>
      </trkpt>
      <trkpt lat="43.70483" lon="3.56028">
        <ele>60</ele>
        <time>2023-05-24T10:51:49.000Z</time>
      </trkpt>
      <trkpt lat="43.70491" lon="3.56027">
        <ele>60.599998474121</ele>
        <time>2023-05-24T10:51:56.000Z</time>
      </trkpt>
      <trkpt lat="43.70492" lon="3.56027">
        <ele>60.599998474121</ele>
        <time>2023-05-24T10:51:57.000Z</time>
      </trkpt>
      <trkpt lat="43.70497" lon="3.56026">
        <ele>60.599998474121</ele>
        <time>2023-05-24T10:52:01.000Z</time>
      </trkpt>
      <trkpt lat="43.70509" lon="3.56023">
        <ele>61.599998474121</ele>
        <time>2023-05-24T10:52:10.000Z</time>
      </trkpt>
      <trkpt lat="43.70511" lon="3.56022">
        <ele>61.799999237061</ele>
        <time>2023-05-24T10:52:12.000Z</time>
      </trkpt>
      <trkpt lat="43.70516" lon="3.5602">
        <ele>62.400001525879</ele>
        <time>2023-05-24T10:52:18.000Z</time>
      </trkpt>
      <trkpt lat="43.70517" lon="3.56019">
        <ele>63</ele>
        <time>2023-05-24T10:52:20.000Z</time>
      </trkpt>
      <trkpt lat="43.70518" lon="3.56019">
        <ele>63</ele>
        <time>2023-05-24T10:52:21.000Z</time>
      </trkpt>
      <trkpt lat="43.7052" lon="3.56018">
        <ele>63.400001525879</ele>
        <time>2023-05-24T10:52:23.000Z</time>
      </trkpt>
      <trkpt lat="43.70527" lon="3.56016">
        <ele>64</ele>
        <time>2023-05-24T10:52:28.000Z</time>
      </trkpt>
      <trkpt lat="43.7053" lon="3.56015">
        <ele>64.400001525879</ele>
        <time>2023-05-24T10:52:31.000Z</time>
      </trkpt>
      <trkpt lat="43.70535" lon="3.56013">
        <ele>65</ele>
        <time>2023-05-24T10:52:35.000Z</time>
      </trkpt>
      <trkpt lat="43.70536" lon="3.56013">
        <ele>65.199996948242</ele>
        <time>2023-05-24T10:52:36.000Z</time>
      </trkpt>
      <trkpt lat="43.70543" lon="3.56011">
        <ele>65.800003051758</ele>
        <time>2023-05-24T10:52:42.000Z</time>
      </trkpt>
      <trkpt lat="43.70545" lon="3.5601">
        <ele>66</ele>
        <time>2023-05-24T10:52:44.000Z</time>
      </trkpt>
      <trkpt lat="43.70547" lon="3.56009">
        <ele>66.199996948242</ele>
        <time>2023-05-24T10:52:45.000Z</time>
      </trkpt>
      <trkpt lat="43.70552" lon="3.56008">
        <ele>67</ele>
        <time>2023-05-24T10:52:50.000Z</time>
      </trkpt>
      <trkpt lat="43.70552" lon="3.56008">
        <ele>67.199996948242</ele>
        <time>2023-05-24T10:52:51.000Z</time>
      </trkpt>
      <trkpt lat="43.70551" lon="3.56008">
        <ele>67.400001525879</ele>
        <time>2023-05-24T10:52:52.000Z</time>
      </trkpt>
      <trkpt lat="43.70551" lon="3.56008">
        <ele>68.400001525879</ele>
        <time>2023-05-24T10:53:02.000Z</time>
      </trkpt>
      <trkpt lat="43.70551" lon="3.56008">
        <ele>69.800003051758</ele>
        <time>2023-05-24T10:53:06.000Z</time>
      </trkpt>
      <trkpt lat="43.70555" lon="3.56008">
        <ele>71</ele>
        <time>2023-05-24T10:53:08.000Z</time>
      </trkpt>
      <trkpt lat="43.70555" lon="3.56008">
        <ele>76.400001525879</ele>
        <time>2023-05-24T10:53:09.000Z</time>
      </trkpt>
      <trkpt lat="43.70555" lon="3.56008">
        <ele>82</ele>
        <time>2023-05-24T10:53:10.000Z</time>
      </trkpt>
      <trkpt lat="43.70555" lon="3.56008">
        <ele>87.599998474121</ele>
        <time>2023-05-24T10:53:11.000Z</time>
      </trkpt>
      <trkpt lat="43.70555" lon="3.56008">
        <ele>83</ele>
        <time>2023-05-24T10:53:12.000Z</time>
      </trkpt>
      <trkpt lat="43.70555" lon="3.56008">
        <ele>82.199996948242</ele>
        <time>2023-05-24T10:53:21.000Z</time>
      </trkpt>
      <trkpt lat="43.7056" lon="3.56009">
        <ele>82</ele>
        <time>2023-05-24T10:53:26.000Z</time>
      </trkpt>
      <trkpt lat="43.70562" lon="3.56009">
        <ele>82</ele>
        <time>2023-05-24T10:53:28.000Z</time>
      </trkpt>
      <trkpt lat="43.70568" lon="3.56008">
        <ele>81.400001525879</ele>
        <time>2023-05-24T10:53:34.000Z</time>
      </trkpt>
      <trkpt lat="43.70573" lon="3.56009">
        <ele>81.199996948242</ele>
        <time>2023-05-24T10:53:40.000Z</time>
      </trkpt>
      <trkpt lat="43.7058" lon="3.56014">
        <ele>81.199996948242</ele>
        <time>2023-05-24T10:53:47.000Z</time>
      </trkpt>
      <trkpt lat="43.7058" lon="3.56015">
        <ele>81</ele>
        <time>2023-05-24T10:53:48.000Z</time>
      </trkpt>
      <trkpt lat="43.70584" lon="3.56019">
        <ele>80.800003051758</ele>
        <time>2023-05-24T10:53:53.000Z</time>
      </trkpt>
      <trkpt lat="43.70588" lon="3.56023">
        <ele>81</ele>
        <time>2023-05-24T10:53:59.000Z</time>
      </trkpt>
      <trkpt lat="43.70595" lon="3.5602">
        <ele>80.599998474121</ele>
        <time>2023-05-24T10:54:06.000Z</time>
      </trkpt>
      <trkpt lat="43.70597" lon="3.56019">
        <ele>80.400001525879</ele>
        <time>2023-05-24T10:54:08.000Z</time>
      </trkpt>
      <trkpt lat="43.70604" lon="3.56015">
        <ele>79.800003051758</ele>
        <time>2023-05-24T10:54:14.000Z</time>
      </trkpt>
      <trkpt lat="43.70606" lon="3.56013">
        <ele>79.599998474121</ele>
        <time>2023-05-24T10:54:16.000Z</time>
      </trkpt>
      <trkpt lat="43.70614" lon="3.56008">
        <ele>78.800003051758</ele>
        <time>2023-05-24T10:54:23.000Z</time>
      </trkpt>
      <trkpt lat="43.70619" lon="3.56004">
        <ele>78.199996948242</ele>
        <time>2023-05-24T10:54:28.000Z</time>
      </trkpt>
      <trkpt lat="43.70623" lon="3.56002">
        <ele>77.599998474121</ele>
        <time>2023-05-24T10:54:32.000Z</time>
      </trkpt>
      <trkpt lat="43.70631" lon="3.55997">
        <ele>76.599998474121</ele>
        <time>2023-05-24T10:54:39.000Z</time>
      </trkpt>
      <trkpt lat="43.70633" lon="3.55997">
        <ele>76.599998474121</ele>
        <time>2023-05-24T10:54:40.000Z</time>
      </trkpt>
      <trkpt lat="43.7064" lon="3.55992">
        <ele>75.599998474121</ele>
        <time>2023-05-24T10:54:47.000Z</time>
      </trkpt>
      <trkpt lat="43.70642" lon="3.55991">
        <ele>75.199996948242</ele>
        <time>2023-05-24T10:54:49.000Z</time>
      </trkpt>
      <trkpt lat="43.70647" lon="3.55988">
        <ele>74.599998474121</ele>
        <time>2023-05-24T10:54:53.000Z</time>
      </trkpt>
      <trkpt lat="43.70651" lon="3.55986">
        <ele>73.800003051758</ele>
        <time>2023-05-24T10:54:57.000Z</time>
      </trkpt>
      <trkpt lat="43.70655" lon="3.55985">
        <ele>73.400001525879</ele>
        <time>2023-05-24T10:55:00.000Z</time>
      </trkpt>
      <trkpt lat="43.70655" lon="3.55984">
        <ele>73.199996948242</ele>
        <time>2023-05-24T10:55:01.000Z</time>
      </trkpt>
      <trkpt lat="43.70658" lon="3.55983">
        <ele>73.199996948242</ele>
        <time>2023-05-24T10:55:03.000Z</time>
      </trkpt>
      <trkpt lat="43.7066" lon="3.5598">
        <ele>73.599998474121</ele>
        <time>2023-05-24T10:55:09.000Z</time>
      </trkpt>
      <trkpt lat="43.70661" lon="3.55979">
        <ele>73.800003051758</ele>
        <time>2023-05-24T10:55:20.000Z</time>
      </trkpt>
      <trkpt lat="43.70664" lon="3.55978">
        <ele>73.599998474121</ele>
        <time>2023-05-24T10:55:24.000Z</time>
      </trkpt>
      <trkpt lat="43.7067" lon="3.55972">
        <ele>73.599998474121</ele>
        <time>2023-05-24T10:55:31.000Z</time>
      </trkpt>
      <trkpt lat="43.70676" lon="3.55966">
        <ele>73.800003051758</ele>
        <time>2023-05-24T10:55:39.000Z</time>
      </trkpt>
      <trkpt lat="43.70684" lon="3.55958">
        <ele>74</ele>
        <time>2023-05-24T10:55:48.000Z</time>
      </trkpt>
      <trkpt lat="43.70687" lon="3.55951">
        <ele>73.800003051758</ele>
        <time>2023-05-24T10:55:53.000Z</time>
      </trkpt>
      <trkpt lat="43.70686" lon="3.55948">
        <ele>73.800003051758</ele>
        <time>2023-05-24T10:55:55.000Z</time>
      </trkpt>
      <trkpt lat="43.70685" lon="3.55947">
        <ele>73.800003051758</ele>
        <time>2023-05-24T10:56:02.000Z</time>
      </trkpt>
      <trkpt lat="43.70686" lon="3.55944">
        <ele>73.599998474121</ele>
        <time>2023-05-24T10:56:11.000Z</time>
      </trkpt>
      <trkpt lat="43.70692" lon="3.55943">
        <ele>73.800003051758</ele>
        <time>2023-05-24T10:56:18.000Z</time>
      </trkpt>
      <trkpt lat="43.70693" lon="3.55941">
        <ele>73.800003051758</ele>
        <time>2023-05-24T10:56:24.000Z</time>
      </trkpt>
      <trkpt lat="43.70696" lon="3.55933">
        <ele>73.599998474121</ele>
        <time>2023-05-24T10:56:31.000Z</time>
      </trkpt>
      <trkpt lat="43.707" lon="3.55924">
        <ele>73.599998474121</ele>
        <time>2023-05-24T10:56:39.000Z</time>
      </trkpt>
      <trkpt lat="43.70701" lon="3.55922">
        <ele>63.599998474121</ele>
        <time>2023-05-24T10:56:41.000Z</time>
      </trkpt>
      <trkpt lat="43.70701" lon="3.55923">
        <ele>52.200000762939</ele>
        <time>2023-05-24T10:56:42.000Z</time>
      </trkpt>
      <trkpt lat="43.70701" lon="3.55923">
        <ele>48.200000762939</ele>
        <time>2023-05-24T10:56:43.000Z</time>
      </trkpt>
      <trkpt lat="43.70701" lon="3.55923">
        <ele>45.400001525879</ele>
        <time>2023-05-24T10:56:44.000Z</time>
      </trkpt>
      <trkpt lat="43.70701" lon="3.55923">
        <ele>44</ele>
        <time>2023-05-24T10:56:45.000Z</time>
      </trkpt>
      <trkpt lat="43.70701" lon="3.55923">
        <ele>45.400001525879</ele>
        <time>2023-05-24T10:56:46.000Z</time>
      </trkpt>
      <trkpt lat="43.70701" lon="3.55921">
        <ele>45.400001525879</ele>
        <time>2023-05-24T10:56:47.000Z</time>
      </trkpt>
      <trkpt lat="43.70706" lon="3.55914">
        <ele>46</ele>
        <time>2023-05-24T10:56:55.000Z</time>
      </trkpt>
      <trkpt lat="43.7071" lon="3.55904">
        <ele>46</ele>
        <time>2023-05-24T10:57:03.000Z</time>
      </trkpt>
      <trkpt lat="43.70713" lon="3.55896">
        <ele>46.400001525879</ele>
        <time>2023-05-24T10:57:08.000Z</time>
      </trkpt>
      <trkpt lat="43.70714" lon="3.55891">
        <ele>46.599998474121</ele>
        <time>2023-05-24T10:57:11.000Z</time>
      </trkpt>
      <trkpt lat="43.70717" lon="3.55879">
        <ele>47</ele>
        <time>2023-05-24T10:57:19.000Z</time>
      </trkpt>
      <trkpt lat="43.70721" lon="3.55867">
        <ele>47.400001525879</ele>
        <time>2023-05-24T10:57:27.000Z</time>
      </trkpt>
      <trkpt lat="43.70722" lon="3.55865">
        <ele>47.599998474121</ele>
        <time>2023-05-24T10:57:29.000Z</time>
      </trkpt>
      <trkpt lat="43.70725" lon="3.55857">
        <ele>45.200000762939</ele>
        <time>2023-05-24T10:57:37.000Z</time>
      </trkpt>
      <trkpt lat="43.70725" lon="3.55856">
        <ele>45.400001525879</ele>
        <time>2023-05-24T10:57:38.000Z</time>
      </trkpt>
      <trkpt lat="43.70728" lon="3.55851">
        <ele>45.599998474121</ele>
        <time>2023-05-24T10:57:42.000Z</time>
      </trkpt>
      <trkpt lat="43.70729" lon="3.5585">
        <ele>45.599998474121</ele>
        <time>2023-05-24T10:57:43.000Z</time>
      </trkpt>
      <trkpt lat="43.70736" lon="3.55839">
        <ele>45.200000762939</ele>
        <time>2023-05-24T10:57:53.000Z</time>
      </trkpt>
      <trkpt lat="43.70745" lon="3.55826">
        <ele>44.400001525879</ele>
        <time>2023-05-24T10:58:05.000Z</time>
      </trkpt>
      <trkpt lat="43.70748" lon="3.55821">
        <ele>44.200000762939</ele>
        <time>2023-05-24T10:58:09.000Z</time>
      </trkpt>
      <trkpt lat="43.70752" lon="3.55812">
        <ele>43.799999237061</ele>
        <time>2023-05-24T10:58:16.000Z</time>
      </trkpt>
      <trkpt lat="43.70757" lon="3.55799">
        <ele>44.200000762939</ele>
        <time>2023-05-24T10:58:26.000Z</time>
      </trkpt>
      <trkpt lat="43.7076" lon="3.55793">
        <ele>45.400001525879</ele>
        <time>2023-05-24T10:58:32.000Z</time>
      </trkpt>
      <trkpt lat="43.70761" lon="3.5579">
        <ele>45.599998474121</ele>
        <time>2023-05-24T10:58:34.000Z</time>
      </trkpt>
      <trkpt lat="43.70763" lon="3.55783">
        <ele>46.400001525879</ele>
        <time>2023-05-24T10:58:40.000Z</time>
      </trkpt>
      <trkpt lat="43.70766" lon="3.55778">
        <ele>47.400001525879</ele>
        <time>2023-05-24T10:58:45.000Z</time>
      </trkpt>
      <trkpt lat="43.70766" lon="3.55777">
        <ele>47.599998474121</ele>
        <time>2023-05-24T10:58:46.000Z</time>
      </trkpt>
      <trkpt lat="43.70768" lon="3.55772">
        <ele>48.599998474121</ele>
        <time>2023-05-24T10:58:52.000Z</time>
      </trkpt>
      <trkpt lat="43.70768" lon="3.55773">
        <ele>49</ele>
        <time>2023-05-24T10:58:54.000Z</time>
      </trkpt>
      <trkpt lat="43.70768" lon="3.55773">
        <ele>52</ele>
        <time>2023-05-24T10:58:55.000Z</time>
      </trkpt>
      <trkpt lat="43.70769" lon="3.55772">
        <ele>49.799999237061</ele>
        <time>2023-05-24T10:59:01.000Z</time>
      </trkpt>
      <trkpt lat="43.70769" lon="3.55772">
        <ele>51</ele>
        <time>2023-05-24T10:59:04.000Z</time>
      </trkpt>
      <trkpt lat="43.70769" lon="3.55772">
        <ele>45.799999237061</ele>
        <time>2023-05-24T10:59:06.000Z</time>
      </trkpt>
      <trkpt lat="43.70769" lon="3.55773">
        <ele>44.400001525879</ele>
        <time>2023-05-24T10:59:07.000Z</time>
      </trkpt>
      <trkpt lat="43.70769" lon="3.55774">
        <ele>42.799999237061</ele>
        <time>2023-05-24T10:59:08.000Z</time>
      </trkpt>
      <trkpt lat="43.70768" lon="3.55774">
        <ele>44</ele>
        <time>2023-05-24T10:59:09.000Z</time>
      </trkpt>
      <trkpt lat="43.70767" lon="3.55774">
        <ele>45</ele>
        <time>2023-05-24T10:59:10.000Z</time>
      </trkpt>
      <trkpt lat="43.70767" lon="3.55775">
        <ele>50.400001525879</ele>
        <time>2023-05-24T10:59:11.000Z</time>
      </trkpt>
      <trkpt lat="43.70766" lon="3.55776">
        <ele>54</ele>
        <time>2023-05-24T10:59:12.000Z</time>
      </trkpt>
      <trkpt lat="43.70765" lon="3.55777">
        <ele>56</ele>
        <time>2023-05-24T10:59:13.000Z</time>
      </trkpt>
      <trkpt lat="43.70765" lon="3.55778">
        <ele>57.799999237061</ele>
        <time>2023-05-24T10:59:14.000Z</time>
      </trkpt>
      <trkpt lat="43.70764" lon="3.5578">
        <ele>56.599998474121</ele>
        <time>2023-05-24T10:59:16.000Z</time>
      </trkpt>
      <trkpt lat="43.70763" lon="3.55781">
        <ele>54.599998474121</ele>
        <time>2023-05-24T10:59:19.000Z</time>
      </trkpt>
      <trkpt lat="43.70763" lon="3.55781">
        <ele>53.599998474121</ele>
        <time>2023-05-24T10:59:21.000Z</time>
      </trkpt>
      <trkpt lat="43.70762" lon="3.55782">
        <ele>51.200000762939</ele>
        <time>2023-05-24T10:59:22.000Z</time>
      </trkpt>
      <trkpt lat="43.70762" lon="3.55784">
        <ele>52.400001525879</ele>
        <time>2023-05-24T10:59:24.000Z</time>
      </trkpt>
      <trkpt lat="43.70762" lon="3.55785">
        <ele>54</ele>
        <time>2023-05-24T10:59:26.000Z</time>
      </trkpt>
      <trkpt lat="43.70762" lon="3.55787">
        <ele>60.599998474121</ele>
        <time>2023-05-24T10:59:27.000Z</time>
      </trkpt>
      <trkpt lat="43.70761" lon="3.55788">
        <ele>65.599998474121</ele>
        <time>2023-05-24T10:59:28.000Z</time>
      </trkpt>
      <trkpt lat="43.7076" lon="3.5579">
        <ele>69.199996948242</ele>
        <time>2023-05-24T10:59:30.000Z</time>
      </trkpt>
      <trkpt lat="43.7076" lon="3.55791">
        <ele>72.400001525879</ele>
        <time>2023-05-24T10:59:31.000Z</time>
      </trkpt>
      <trkpt lat="43.70759" lon="3.55792">
        <ele>70</ele>
        <time>2023-05-24T10:59:32.000Z</time>
      </trkpt>
      <trkpt lat="43.70759" lon="3.55792">
        <ele>70</ele>
        <time>2023-05-24T10:59:33.000Z</time>
      </trkpt>
      <trkpt lat="43.70759" lon="3.55792">
        <ele>70</ele>
        <time>2023-05-24T10:59:36.000Z</time>
      </trkpt>
      <trkpt lat="43.70759" lon="3.55794">
        <ele>69.400001525879</ele>
        <time>2023-05-24T10:59:45.000Z</time>
      </trkpt>
      <trkpt lat="43.7076" lon="3.55797">
        <ele>69.800003051758</ele>
        <time>2023-05-24T10:59:52.000Z</time>
      </trkpt>
      <trkpt lat="43.70759" lon="3.55799">
        <ele>69.800003051758</ele>
        <time>2023-05-24T10:59:58.000Z</time>
      </trkpt>
      <trkpt lat="43.70758" lon="3.55798">
        <ele>69.599998474121</ele>
        <time>2023-05-24T11:00:05.000Z</time>
      </trkpt>
      <trkpt lat="43.70758" lon="3.55798">
        <ele>69.199996948242</ele>
        <time>2023-05-24T11:00:19.000Z</time>
      </trkpt>
      <trkpt lat="43.70758" lon="3.55798">
        <ele>68.800003051758</ele>
        <time>2023-05-24T11:00:20.000Z</time>
      </trkpt>
      <trkpt lat="43.70759" lon="3.55798">
        <ele>69</ele>
        <time>2023-05-24T11:00:43.000Z</time>
      </trkpt>
      <trkpt lat="43.70757" lon="3.558">
        <ele>70</ele>
        <time>2023-05-24T11:00:47.000Z</time>
      </trkpt>
      <trkpt lat="43.70757" lon="3.55801">
        <ele>70.199996948242</ele>
        <time>2023-05-24T11:00:50.000Z</time>
      </trkpt>
      <trkpt lat="43.70758" lon="3.55796">
        <ele>70.400001525879</ele>
        <time>2023-05-24T11:00:55.000Z</time>
      </trkpt>
      <trkpt lat="43.70758" lon="3.55795">
        <ele>70.400001525879</ele>
        <time>2023-05-24T11:01:03.000Z</time>
      </trkpt>
      <trkpt lat="43.70759" lon="3.55792">
        <ele>70</ele>
        <time>2023-05-24T11:01:12.000Z</time>
      </trkpt>
      <trkpt lat="43.70758" lon="3.55793">
        <ele>72.599998474121</ele>
        <time>2023-05-24T11:01:20.000Z</time>
      </trkpt>
      <trkpt lat="43.70759" lon="3.55793">
        <ele>71.400001525879</ele>
        <time>2023-05-24T11:01:21.000Z</time>
      </trkpt>
      <trkpt lat="43.70759" lon="3.55793">
        <ele>71.599998474121</ele>
        <time>2023-05-24T11:01:22.000Z</time>
      </trkpt>
      <trkpt lat="43.70758" lon="3.55793">
        <ele>69.199996948242</ele>
        <time>2023-05-24T11:01:25.000Z</time>
      </trkpt>
      <trkpt lat="43.70758" lon="3.55793">
        <ele>70.599998474121</ele>
        <time>2023-05-24T11:01:26.000Z</time>
      </trkpt>
      <trkpt lat="43.70759" lon="3.55793">
        <ele>68.800003051758</ele>
        <time>2023-05-24T11:01:27.000Z</time>
      </trkpt>
      <trkpt lat="43.7076" lon="3.55792">
        <ele>67</ele>
        <time>2023-05-24T11:01:28.000Z</time>
      </trkpt>
      <trkpt lat="43.7076" lon="3.55792">
        <ele>65.199996948242</ele>
        <time>2023-05-24T11:01:29.000Z</time>
      </trkpt>
      <trkpt lat="43.70761" lon="3.5579">
        <ele>64</ele>
        <time>2023-05-24T11:01:31.000Z</time>
      </trkpt>
      <trkpt lat="43.70762" lon="3.55788">
        <ele>66.400001525879</ele>
        <time>2023-05-24T11:01:33.000Z</time>
      </trkpt>
      <trkpt lat="43.70766" lon="3.55778">
        <ele>66.400001525879</ele>
        <time>2023-05-24T11:01:42.000Z</time>
      </trkpt>
      <trkpt lat="43.70767" lon="3.55778">
        <ele>66.400001525879</ele>
        <time>2023-05-24T11:01:43.000Z</time>
      </trkpt>
      <trkpt lat="43.70769" lon="3.55779">
        <ele>66.199996948242</ele>
        <time>2023-05-24T11:01:47.000Z</time>
      </trkpt>
      <trkpt lat="43.70771" lon="3.55782">
        <ele>65.599998474121</ele>
        <time>2023-05-24T11:01:52.000Z</time>
      </trkpt>
      <trkpt lat="43.70771" lon="3.55785">
        <ele>65.199996948242</ele>
        <time>2023-05-24T11:01:56.000Z</time>
      </trkpt>
      <trkpt lat="43.70773" lon="3.55786">
        <ele>65.599998474121</ele>
        <time>2023-05-24T11:02:00.000Z</time>
      </trkpt>
      <trkpt lat="43.70775" lon="3.55793">
        <ele>65.800003051758</ele>
        <time>2023-05-24T11:02:09.000Z</time>
      </trkpt>
      <trkpt lat="43.70776" lon="3.55797">
        <ele>65.400001525879</ele>
        <time>2023-05-24T11:02:17.000Z</time>
      </trkpt>
      <trkpt lat="43.70776" lon="3.558">
        <ele>65.599998474121</ele>
        <time>2023-05-24T11:02:23.000Z</time>
      </trkpt>
      <trkpt lat="43.70777" lon="3.55806">
        <ele>66</ele>
        <time>2023-05-24T11:02:31.000Z</time>
      </trkpt>
      <trkpt lat="43.70777" lon="3.55807">
        <ele>66.199996948242</ele>
        <time>2023-05-24T11:02:32.000Z</time>
      </trkpt>
      <trkpt lat="43.70782" lon="3.55805">
        <ele>67.199996948242</ele>
        <time>2023-05-24T11:02:39.000Z</time>
      </trkpt>
      <trkpt lat="43.70783" lon="3.55805">
        <ele>67.400001525879</ele>
        <time>2023-05-24T11:02:40.000Z</time>
      </trkpt>
      <trkpt lat="43.70786" lon="3.55805">
        <ele>67.400001525879</ele>
        <time>2023-05-24T11:02:47.000Z</time>
      </trkpt>
      <trkpt lat="43.70789" lon="3.55805">
        <ele>67.599998474121</ele>
        <time>2023-05-24T11:02:52.000Z</time>
      </trkpt>
      <trkpt lat="43.70793" lon="3.55805">
        <ele>67.800003051758</ele>
        <time>2023-05-24T11:03:00.000Z</time>
      </trkpt>
      <trkpt lat="43.70796" lon="3.55803">
        <ele>68.199996948242</ele>
        <time>2023-05-24T11:03:08.000Z</time>
      </trkpt>
      <trkpt lat="43.70798" lon="3.55804">
        <ele>68.199996948242</ele>
        <time>2023-05-24T11:03:15.000Z</time>
      </trkpt>
      <trkpt lat="43.70798" lon="3.55802">
        <ele>68.400001525879</ele>
        <time>2023-05-24T11:03:18.000Z</time>
      </trkpt>
      <trkpt lat="43.70798" lon="3.55804">
        <ele>69</ele>
        <time>2023-05-24T11:03:23.000Z</time>
      </trkpt>
      <trkpt lat="43.708" lon="3.55806">
        <ele>68.800003051758</ele>
        <time>2023-05-24T11:03:35.000Z</time>
      </trkpt>
      <trkpt lat="43.708" lon="3.55806">
        <ele>68.800003051758</ele>
        <time>2023-05-24T11:03:48.000Z</time>
      </trkpt>
      <trkpt lat="43.708" lon="3.55806">
        <ele>69.400001525879</ele>
        <time>2023-05-24T11:03:51.000Z</time>
      </trkpt>
      <trkpt lat="43.70801" lon="3.5581">
        <ele>70.599998474121</ele>
        <time>2023-05-24T11:03:54.000Z</time>
      </trkpt>
      <trkpt lat="43.70801" lon="3.55812">
        <ele>70.800003051758</ele>
        <time>2023-05-24T11:03:55.000Z</time>
      </trkpt>
      <trkpt lat="43.70799" lon="3.55821">
        <ele>71.800003051758</ele>
        <time>2023-05-24T11:04:02.000Z</time>
      </trkpt>
      <trkpt lat="43.70798" lon="3.55823">
        <ele>72</ele>
        <time>2023-05-24T11:04:04.000Z</time>
      </trkpt>
      <trkpt lat="43.70792" lon="3.5583">
        <ele>72.400001525879</ele>
        <time>2023-05-24T11:04:12.000Z</time>
      </trkpt>
      <trkpt lat="43.70791" lon="3.55835">
        <ele>72.599998474121</ele>
        <time>2023-05-24T11:04:17.000Z</time>
      </trkpt>
      <trkpt lat="43.7079" lon="3.55836">
        <ele>72.800003051758</ele>
        <time>2023-05-24T11:04:20.000Z</time>
      </trkpt>
      <trkpt lat="43.7079" lon="3.55836">
        <ele>72.800003051758</ele>
        <time>2023-05-24T11:04:21.000Z</time>
      </trkpt>
      <trkpt lat="43.7079" lon="3.55835">
        <ele>73</ele>
        <time>2023-05-24T11:04:26.000Z</time>
      </trkpt>
      <trkpt lat="43.70791" lon="3.55838">
        <ele>73.599998474121</ele>
        <time>2023-05-24T11:04:33.000Z</time>
      </trkpt>
      <trkpt lat="43.70791" lon="3.55839">
        <ele>73.800003051758</ele>
        <time>2023-05-24T11:04:39.000Z</time>
      </trkpt>
      <trkpt lat="43.7079" lon="3.55839">
        <ele>74</ele>
        <time>2023-05-24T11:04:40.000Z</time>
      </trkpt>
      <trkpt lat="43.70791" lon="3.55839">
        <ele>74</ele>
        <time>2023-05-24T11:04:47.000Z</time>
      </trkpt>
      <trkpt lat="43.70792" lon="3.5584">
        <ele>73.800003051758</ele>
        <time>2023-05-24T11:04:55.000Z</time>
      </trkpt>
      <trkpt lat="43.70792" lon="3.55838">
        <ele>73.599998474121</ele>
        <time>2023-05-24T11:05:01.000Z</time>
      </trkpt>
      <trkpt lat="43.70792" lon="3.55838">
        <ele>78.800003051758</ele>
        <time>2023-05-24T11:05:02.000Z</time>
      </trkpt>
      <trkpt lat="43.70793" lon="3.55839">
        <ele>72.400001525879</ele>
        <time>2023-05-24T11:05:03.000Z</time>
      </trkpt>
      <trkpt lat="43.70792" lon="3.55838">
        <ele>76</ele>
        <time>2023-05-24T11:05:04.000Z</time>
      </trkpt>
      <trkpt lat="43.70793" lon="3.55837">
        <ele>76</ele>
        <time>2023-05-24T11:05:07.000Z</time>
      </trkpt>
      <trkpt lat="43.70793" lon="3.55837">
        <ele>76.199996948242</ele>
        <time>2023-05-24T11:05:15.000Z</time>
      </trkpt>
      <trkpt lat="43.70794" lon="3.55839">
        <ele>75.800003051758</ele>
        <time>2023-05-24T11:05:21.000Z</time>
      </trkpt>
      <trkpt lat="43.70794" lon="3.55839">
        <ele>75.199996948242</ele>
        <time>2023-05-24T11:05:27.000Z</time>
      </trkpt>
      <trkpt lat="43.70794" lon="3.55839">
        <ele>75</ele>
        <time>2023-05-24T11:05:30.000Z</time>
      </trkpt>
      <trkpt lat="43.70794" lon="3.55839">
        <ele>73.800003051758</ele>
        <time>2023-05-24T11:05:37.000Z</time>
      </trkpt>
      <trkpt lat="43.70794" lon="3.5584">
        <ele>72.599998474121</ele>
        <time>2023-05-24T11:05:43.000Z</time>
      </trkpt>
      <trkpt lat="43.70794" lon="3.55839">
        <ele>72</ele>
        <time>2023-05-24T11:05:52.000Z</time>
      </trkpt>
      <trkpt lat="43.70793" lon="3.55839">
        <ele>72.599998474121</ele>
        <time>2023-05-24T11:06:07.000Z</time>
      </trkpt>
      <trkpt lat="43.70794" lon="3.5584">
        <ele>73.599998474121</ele>
        <time>2023-05-24T11:06:14.000Z</time>
      </trkpt>
      <trkpt lat="43.70794" lon="3.5584">
        <ele>73.800003051758</ele>
        <time>2023-05-24T11:06:15.000Z</time>
      </trkpt>
      <trkpt lat="43.70794" lon="3.55841">
        <ele>74.599998474121</ele>
        <time>2023-05-24T11:06:23.000Z</time>
      </trkpt>
      <trkpt lat="43.70794" lon="3.55841">
        <ele>75.800003051758</ele>
        <time>2023-05-24T11:06:30.000Z</time>
      </trkpt>
      <trkpt lat="43.70794" lon="3.5584">
        <ele>75.800003051758</ele>
        <time>2023-05-24T11:06:32.000Z</time>
      </trkpt>
      <trkpt lat="43.70794" lon="3.55841">
        <ele>76</ele>
        <time>2023-05-24T11:06:39.000Z</time>
      </trkpt>
      <trkpt lat="43.70793" lon="3.5584">
        <ele>75.800003051758</ele>
        <time>2023-05-24T11:06:49.000Z</time>
      </trkpt>
      <trkpt lat="43.70793" lon="3.55839">
        <ele>76</ele>
        <time>2023-05-24T11:06:56.000Z</time>
      </trkpt>
      <trkpt lat="43.70793" lon="3.55839">
        <ele>75.800003051758</ele>
        <time>2023-05-24T11:07:02.000Z</time>
      </trkpt>
      <trkpt lat="43.70792" lon="3.5584">
        <ele>75.800003051758</ele>
        <time>2023-05-24T11:07:11.000Z</time>
      </trkpt>
      <trkpt lat="43.70792" lon="3.55841">
        <ele>75.599998474121</ele>
        <time>2023-05-24T11:07:18.000Z</time>
      </trkpt>
      <trkpt lat="43.70791" lon="3.55841">
        <ele>77.599998474121</ele>
        <time>2023-05-24T11:07:27.000Z</time>
      </trkpt>
      <trkpt lat="43.70791" lon="3.55841">
        <ele>81</ele>
        <time>2023-05-24T11:07:28.000Z</time>
      </trkpt>
      <trkpt lat="43.70791" lon="3.55841">
        <ele>77.199996948242</ele>
        <time>2023-05-24T11:07:34.000Z</time>
      </trkpt>
      <trkpt lat="43.70791" lon="3.55841">
        <ele>75.800003051758</ele>
        <time>2023-05-24T11:07:35.000Z</time>
      </trkpt>
      <trkpt lat="43.70791" lon="3.55842">
        <ele>77</ele>
        <time>2023-05-24T11:07:42.000Z</time>
      </trkpt>
      <trkpt lat="43.7079" lon="3.55839">
        <ele>84</ele>
        <time>2023-05-24T11:07:43.000Z</time>
      </trkpt>
      <trkpt lat="43.7079" lon="3.55842">
        <ele>83.400001525879</ele>
        <time>2023-05-24T11:07:45.000Z</time>
      </trkpt>
      <trkpt lat="43.70791" lon="3.55841">
        <ele>89.800003051758</ele>
        <time>2023-05-24T11:07:46.000Z</time>
      </trkpt>
      <trkpt lat="43.7079" lon="3.55841">
        <ele>85</ele>
        <time>2023-05-24T11:07:47.000Z</time>
      </trkpt>
      <trkpt lat="43.7079" lon="3.55841">
        <ele>84.800003051758</ele>
        <time>2023-05-24T11:07:59.000Z</time>
      </trkpt>
      <trkpt lat="43.7079" lon="3.55842">
        <ele>84.800003051758</ele>
        <time>2023-05-24T11:08:05.000Z</time>
      </trkpt>
      <trkpt lat="43.7079" lon="3.55842">
        <ele>84.800003051758</ele>
        <time>2023-05-24T11:08:17.000Z</time>
      </trkpt>
      <trkpt lat="43.70789" lon="3.55842">
        <ele>84.800003051758</ele>
        <time>2023-05-24T11:08:25.000Z</time>
      </trkpt>
      <trkpt lat="43.7079" lon="3.55842">
        <ele>84.400001525879</ele>
        <time>2023-05-24T11:08:33.000Z</time>
      </trkpt>
      <trkpt lat="43.70789" lon="3.55842">
        <ele>84.199996948242</ele>
        <time>2023-05-24T11:08:41.000Z</time>
      </trkpt>
      <trkpt lat="43.70789" lon="3.55842">
        <ele>84.400001525879</ele>
        <time>2023-05-24T11:08:50.000Z</time>
      </trkpt>
      <trkpt lat="43.70789" lon="3.55842">
        <ele>84</ele>
        <time>2023-05-24T11:08:53.000Z</time>
      </trkpt>
      <trkpt lat="43.70789" lon="3.55842">
        <ele>83.400001525879</ele>
        <time>2023-05-24T11:08:58.000Z</time>
      </trkpt>
      <trkpt lat="43.70789" lon="3.55842">
        <ele>83</ele>
        <time>2023-05-24T11:09:02.000Z</time>
      </trkpt>
      <trkpt lat="43.70788" lon="3.55842">
        <ele>82.800003051758</ele>
        <time>2023-05-24T11:09:05.000Z</time>
      </trkpt>
      <trkpt lat="43.70789" lon="3.55842">
        <ele>81.800003051758</ele>
        <time>2023-05-24T11:09:07.000Z</time>
      </trkpt>
      <trkpt lat="43.70788" lon="3.55843">
        <ele>81.599998474121</ele>
        <time>2023-05-24T11:09:12.000Z</time>
      </trkpt>
      <trkpt lat="43.70788" lon="3.55843">
        <ele>81.199996948242</ele>
        <time>2023-05-24T11:09:19.000Z</time>
      </trkpt>
      <trkpt lat="43.70788" lon="3.55842">
        <ele>81</ele>
        <time>2023-05-24T11:09:25.000Z</time>
      </trkpt>
      <trkpt lat="43.70788" lon="3.55843">
        <ele>80.800003051758</ele>
        <time>2023-05-24T11:09:33.000Z</time>
      </trkpt>
      <trkpt lat="43.70788" lon="3.55843">
        <ele>80.800003051758</ele>
        <time>2023-05-24T11:09:45.000Z</time>
      </trkpt>
      <trkpt lat="43.70788" lon="3.55842">
        <ele>81</ele>
        <time>2023-05-24T11:09:53.000Z</time>
      </trkpt>
      <trkpt lat="43.70788" lon="3.55842">
        <ele>81.199996948242</ele>
        <time>2023-05-24T11:10:05.000Z</time>
      </trkpt>
      <trkpt lat="43.70788" lon="3.55841">
        <ele>81.199996948242</ele>
        <time>2023-05-24T11:10:13.000Z</time>
      </trkpt>
      <trkpt lat="43.70788" lon="3.55842">
        <ele>81.199996948242</ele>
        <time>2023-05-24T11:10:19.000Z</time>
      </trkpt>
      <trkpt lat="43.70788" lon="3.55841">
        <ele>81.400001525879</ele>
        <time>2023-05-24T11:10:27.000Z</time>
      </trkpt>
      <trkpt lat="43.70788" lon="3.55841">
        <ele>81.400001525879</ele>
        <time>2023-05-24T11:10:35.000Z</time>
      </trkpt>
      <trkpt lat="43.70788" lon="3.55841">
        <ele>81.599998474121</ele>
        <time>2023-05-24T11:10:44.000Z</time>
      </trkpt>
      <trkpt lat="43.70788" lon="3.55841">
        <ele>81.800003051758</ele>
        <time>2023-05-24T11:10:56.000Z</time>
      </trkpt>
      <trkpt lat="43.70788" lon="3.5584">
        <ele>82</ele>
        <time>2023-05-24T11:11:04.000Z</time>
      </trkpt>
      <trkpt lat="43.70788" lon="3.5584">
        <ele>82.199996948242</ele>
        <time>2023-05-24T11:11:14.000Z</time>
      </trkpt>
      <trkpt lat="43.70788" lon="3.55841">
        <ele>82.199996948242</ele>
        <time>2023-05-24T11:11:31.000Z</time>
      </trkpt>
      <trkpt lat="43.70788" lon="3.55841">
        <ele>82.199996948242</ele>
        <time>2023-05-24T11:11:49.000Z</time>
      </trkpt>
      <trkpt lat="43.70789" lon="3.55841">
        <ele>82.199996948242</ele>
        <time>2023-05-24T11:12:04.000Z</time>
      </trkpt>
      <trkpt lat="43.70789" lon="3.55841">
        <ele>82.199996948242</ele>
        <time>2023-05-24T11:12:17.000Z</time>
      </trkpt>
      <trkpt lat="43.70789" lon="3.55841">
        <ele>82</ele>
        <time>2023-05-24T11:12:28.000Z</time>
      </trkpt>
      <trkpt lat="43.70789" lon="3.55841">
        <ele>82.199996948242</ele>
        <time>2023-05-24T11:12:42.000Z</time>
      </trkpt>
      <trkpt lat="43.70788" lon="3.55841">
        <ele>82.400001525879</ele>
        <time>2023-05-24T11:12:56.000Z</time>
      </trkpt>
      <trkpt lat="43.70788" lon="3.5584">
        <ele>82.400001525879</ele>
        <time>2023-05-24T11:13:07.000Z</time>
      </trkpt>
      <trkpt lat="43.70788" lon="3.5584">
        <ele>82.599998474121</ele>
        <time>2023-05-24T11:13:18.000Z</time>
      </trkpt>
      <trkpt lat="43.70787" lon="3.55839">
        <ele>82.400001525879</ele>
        <time>2023-05-24T11:13:29.000Z</time>
      </trkpt>
      <trkpt lat="43.70787" lon="3.55839">
        <ele>82.400001525879</ele>
        <time>2023-05-24T11:13:39.000Z</time>
      </trkpt>
      <trkpt lat="43.70787" lon="3.55839">
        <ele>80.800003051758</ele>
        <time>2023-05-24T11:13:50.000Z</time>
      </trkpt>
      <trkpt lat="43.70787" lon="3.55839">
        <ele>80.199996948242</ele>
        <time>2023-05-24T11:13:55.000Z</time>
      </trkpt>
      <trkpt lat="43.70787" lon="3.5584">
        <ele>80</ele>
        <time>2023-05-24T11:14:04.000Z</time>
      </trkpt>
      <trkpt lat="43.70788" lon="3.5584">
        <ele>79.800003051758</ele>
        <time>2023-05-24T11:14:09.000Z</time>
      </trkpt>
      <trkpt lat="43.70788" lon="3.5584">
        <ele>79.800003051758</ele>
        <time>2023-05-24T11:14:13.000Z</time>
      </trkpt>
      <trkpt lat="43.70788" lon="3.5584">
        <ele>80</ele>
        <time>2023-05-24T11:14:28.000Z</time>
      </trkpt>
      <trkpt lat="43.70788" lon="3.5584">
        <ele>80</ele>
        <time>2023-05-24T11:14:36.000Z</time>
      </trkpt>
      <trkpt lat="43.70788" lon="3.55841">
        <ele>79</ele>
        <time>2023-05-24T11:14:56.000Z</time>
      </trkpt>
      <trkpt lat="43.70788" lon="3.55841">
        <ele>78.800003051758</ele>
        <time>2023-05-24T11:15:08.000Z</time>
      </trkpt>
      <trkpt lat="43.70788" lon="3.55841">
        <ele>78.800003051758</ele>
        <time>2023-05-24T11:15:10.000Z</time>
      </trkpt>
      <trkpt lat="43.70788" lon="3.5584">
        <ele>78.400001525879</ele>
        <time>2023-05-24T11:15:27.000Z</time>
      </trkpt>
      <trkpt lat="43.70788" lon="3.5584">
        <ele>77.599998474121</ele>
        <time>2023-05-24T11:15:44.000Z</time>
      </trkpt>
      <trkpt lat="43.70788" lon="3.55841">
        <ele>77</ele>
        <time>2023-05-24T11:15:50.000Z</time>
      </trkpt>
      <trkpt lat="43.70789" lon="3.55841">
        <ele>76.599998474121</ele>
        <time>2023-05-24T11:15:53.000Z</time>
      </trkpt>
      <trkpt lat="43.70789" lon="3.5584">
        <ele>75.599998474121</ele>
        <time>2023-05-24T11:16:00.000Z</time>
      </trkpt>
      <trkpt lat="43.70789" lon="3.55841">
        <ele>75.400001525879</ele>
        <time>2023-05-24T11:16:06.000Z</time>
      </trkpt>
      <trkpt lat="43.70788" lon="3.55841">
        <ele>75.800003051758</ele>
        <time>2023-05-24T11:16:20.000Z</time>
      </trkpt>
      <trkpt lat="43.70788" lon="3.55841">
        <ele>75.599998474121</ele>
        <time>2023-05-24T11:16:36.000Z</time>
      </trkpt>
      <trkpt lat="43.70788" lon="3.5584">
        <ele>75.599998474121</ele>
        <time>2023-05-24T11:16:50.000Z</time>
      </trkpt>
      <trkpt lat="43.70788" lon="3.5584">
        <ele>75.800003051758</ele>
        <time>2023-05-24T11:17:02.000Z</time>
      </trkpt>
      <trkpt lat="43.70788" lon="3.55839">
        <ele>75.800003051758</ele>
        <time>2023-05-24T11:17:11.000Z</time>
      </trkpt>
      <trkpt lat="43.70787" lon="3.55838">
        <ele>77.800003051758</ele>
        <time>2023-05-24T11:17:17.000Z</time>
      </trkpt>
      <trkpt lat="43.70787" lon="3.55838">
        <ele>80</ele>
        <time>2023-05-24T11:17:18.000Z</time>
      </trkpt>
      <trkpt lat="43.70787" lon="3.55838">
        <ele>78.599998474121</ele>
        <time>2023-05-24T11:17:23.000Z</time>
      </trkpt>
      <trkpt lat="43.70787" lon="3.55838">
        <ele>76.400001525879</ele>
        <time>2023-05-24T11:17:24.000Z</time>
      </trkpt>
      <trkpt lat="43.70787" lon="3.55837">
        <ele>76.400001525879</ele>
        <time>2023-05-24T11:17:47.000Z</time>
      </trkpt>
      <trkpt lat="43.70787" lon="3.55837">
        <ele>79.800003051758</ele>
        <time>2023-05-24T11:17:48.000Z</time>
      </trkpt>
      <trkpt lat="43.70787" lon="3.55838">
        <ele>80.199996948242</ele>
        <time>2023-05-24T11:18:01.000Z</time>
      </trkpt>
      <trkpt lat="43.70788" lon="3.55838">
        <ele>79.800003051758</ele>
        <time>2023-05-24T11:18:10.000Z</time>
      </trkpt>
      <trkpt lat="43.70788" lon="3.55839">
        <ele>79.400001525879</ele>
        <time>2023-05-24T11:18:20.000Z</time>
      </trkpt>
      <trkpt lat="43.70788" lon="3.55839">
        <ele>78.800003051758</ele>
        <time>2023-05-24T11:18:37.000Z</time>
      </trkpt>
      <trkpt lat="43.70788" lon="3.55839">
        <ele>78.199996948242</ele>
        <time>2023-05-24T11:18:49.000Z</time>
      </trkpt>
      <trkpt lat="43.70788" lon="3.55839">
        <ele>77.800003051758</ele>
        <time>2023-05-24T11:18:57.000Z</time>
      </trkpt>
      <trkpt lat="43.70789" lon="3.5584">
        <ele>77</ele>
        <time>2023-05-24T11:19:02.000Z</time>
      </trkpt>
      <trkpt lat="43.70789" lon="3.5584">
        <ele>76.599998474121</ele>
        <time>2023-05-24T11:19:04.000Z</time>
      </trkpt>
      <trkpt lat="43.70789" lon="3.55839">
        <ele>76</ele>
        <time>2023-05-24T11:19:17.000Z</time>
      </trkpt>
      <trkpt lat="43.70789" lon="3.55839">
        <ele>80.400001525879</ele>
        <time>2023-05-24T11:19:21.000Z</time>
      </trkpt>
      <trkpt lat="43.70789" lon="3.55839">
        <ele>77.400001525879</ele>
        <time>2023-05-24T11:19:22.000Z</time>
      </trkpt>
      <trkpt lat="43.70789" lon="3.55839">
        <ele>77.400001525879</ele>
        <time>2023-05-24T11:19:27.000Z</time>
      </trkpt>
      <trkpt lat="43.7079" lon="3.55841">
        <ele>76.400001525879</ele>
        <time>2023-05-24T11:19:41.000Z</time>
      </trkpt>
      <trkpt lat="43.7079" lon="3.55841">
        <ele>76.400001525879</ele>
        <time>2023-05-24T11:19:42.000Z</time>
      </trkpt>
      <trkpt lat="43.7079" lon="3.5584">
        <ele>77</ele>
        <time>2023-05-24T11:20:01.000Z</time>
      </trkpt>
      <trkpt lat="43.70789" lon="3.5584">
        <ele>75.800003051758</ele>
        <time>2023-05-24T11:20:26.000Z</time>
      </trkpt>
      <trkpt lat="43.70789" lon="3.5584">
        <ele>75.599998474121</ele>
        <time>2023-05-24T11:20:42.000Z</time>
      </trkpt>
      <trkpt lat="43.70789" lon="3.5584">
        <ele>73.199996948242</ele>
        <time>2023-05-24T11:20:46.000Z</time>
      </trkpt>
      <trkpt lat="43.70789" lon="3.5584">
        <ele>76.400001525879</ele>
        <time>2023-05-24T11:20:47.000Z</time>
      </trkpt>
      <trkpt lat="43.70789" lon="3.5584">
        <ele>76</ele>
        <time>2023-05-24T11:20:52.000Z</time>
      </trkpt>
      <trkpt lat="43.70788" lon="3.5584">
        <ele>75.800003051758</ele>
        <time>2023-05-24T11:21:14.000Z</time>
      </trkpt>
      <trkpt lat="43.70787" lon="3.55839">
        <ele>76</ele>
        <time>2023-05-24T11:21:39.000Z</time>
      </trkpt>
      <trkpt lat="43.70787" lon="3.55839">
        <ele>76.199996948242</ele>
        <time>2023-05-24T11:21:53.000Z</time>
      </trkpt>
      <trkpt lat="43.70787" lon="3.5584">
        <ele>76.400001525879</ele>
        <time>2023-05-24T11:22:06.000Z</time>
      </trkpt>
      <trkpt lat="43.70788" lon="3.5584">
        <ele>76.400001525879</ele>
        <time>2023-05-24T11:22:21.000Z</time>
      </trkpt>
      <trkpt lat="43.70788" lon="3.5584">
        <ele>76.199996948242</ele>
        <time>2023-05-24T11:22:36.000Z</time>
      </trkpt>
      <trkpt lat="43.70788" lon="3.5584">
        <ele>75.800003051758</ele>
        <time>2023-05-24T11:22:52.000Z</time>
      </trkpt>
      <trkpt lat="43.70788" lon="3.55839">
        <ele>75.599998474121</ele>
        <time>2023-05-24T11:23:11.000Z</time>
      </trkpt>
      <trkpt lat="43.70788" lon="3.55839">
        <ele>75.599998474121</ele>
        <time>2023-05-24T11:23:20.000Z</time>
      </trkpt>
      <trkpt lat="43.70788" lon="3.55838">
        <ele>75.800003051758</ele>
        <time>2023-05-24T11:23:32.000Z</time>
      </trkpt>
      <trkpt lat="43.70788" lon="3.55838">
        <ele>75.800003051758</ele>
        <time>2023-05-24T11:23:49.000Z</time>
      </trkpt>
      <trkpt lat="43.70788" lon="3.55838">
        <ele>75.800003051758</ele>
        <time>2023-05-24T11:24:00.000Z</time>
      </trkpt>
      <trkpt lat="43.70788" lon="3.55838">
        <ele>76.599998474121</ele>
        <time>2023-05-24T11:24:11.000Z</time>
      </trkpt>
      <trkpt lat="43.70786" lon="3.55837">
        <ele>76.599998474121</ele>
        <time>2023-05-24T11:24:33.000Z</time>
      </trkpt>
      <trkpt lat="43.70786" lon="3.55837">
        <ele>76.599998474121</ele>
        <time>2023-05-24T11:24:40.000Z</time>
      </trkpt>
      <trkpt lat="43.70786" lon="3.55838">
        <ele>76.599998474121</ele>
        <time>2023-05-24T11:24:53.000Z</time>
      </trkpt>
      <trkpt lat="43.70787" lon="3.55839">
        <ele>76.599998474121</ele>
        <time>2023-05-24T11:25:05.000Z</time>
      </trkpt>
      <trkpt lat="43.70787" lon="3.55839">
        <ele>76.800003051758</ele>
        <time>2023-05-24T11:25:23.000Z</time>
      </trkpt>
      <trkpt lat="43.70786" lon="3.55839">
        <ele>76.400001525879</ele>
        <time>2023-05-24T11:25:36.000Z</time>
      </trkpt>
      <trkpt lat="43.70786" lon="3.55838">
        <ele>76.199996948242</ele>
        <time>2023-05-24T11:25:49.000Z</time>
      </trkpt>
      <trkpt lat="43.70786" lon="3.55838">
        <ele>76.199996948242</ele>
        <time>2023-05-24T11:26:04.000Z</time>
      </trkpt>
      <trkpt lat="43.70785" lon="3.55838">
        <ele>76.599998474121</ele>
        <time>2023-05-24T11:26:16.000Z</time>
      </trkpt>
      <trkpt lat="43.70785" lon="3.55837">
        <ele>76.599998474121</ele>
        <time>2023-05-24T11:26:27.000Z</time>
      </trkpt>
      <trkpt lat="43.70785" lon="3.55837">
        <ele>76.800003051758</ele>
        <time>2023-05-24T11:26:38.000Z</time>
      </trkpt>
      <trkpt lat="43.70785" lon="3.55837">
        <ele>76.400001525879</ele>
        <time>2023-05-24T11:26:53.000Z</time>
      </trkpt>
      <trkpt lat="43.70785" lon="3.55838">
        <ele>76.400001525879</ele>
        <time>2023-05-24T11:27:02.000Z</time>
      </trkpt>
      <trkpt lat="43.70786" lon="3.55838">
        <ele>76.800003051758</ele>
        <time>2023-05-24T11:27:20.000Z</time>
      </trkpt>
      <trkpt lat="43.70786" lon="3.55838">
        <ele>77</ele>
        <time>2023-05-24T11:27:35.000Z</time>
      </trkpt>
      <trkpt lat="43.70786" lon="3.55838">
        <ele>76.800003051758</ele>
        <time>2023-05-24T11:27:47.000Z</time>
      </trkpt>
      <trkpt lat="43.70785" lon="3.55838">
        <ele>76.800003051758</ele>
        <time>2023-05-24T11:28:06.000Z</time>
      </trkpt>
      <trkpt lat="43.70786" lon="3.55838">
        <ele>77.199996948242</ele>
        <time>2023-05-24T11:28:23.000Z</time>
      </trkpt>
      <trkpt lat="43.70787" lon="3.55839">
        <ele>76.599998474121</ele>
        <time>2023-05-24T11:28:39.000Z</time>
      </trkpt>
      <trkpt lat="43.70786" lon="3.55838">
        <ele>77</ele>
        <time>2023-05-24T11:28:51.000Z</time>
      </trkpt>
      <trkpt lat="43.70786" lon="3.55839">
        <ele>77</ele>
        <time>2023-05-24T11:29:05.000Z</time>
      </trkpt>
      <trkpt lat="43.70787" lon="3.5584">
        <ele>77</ele>
        <time>2023-05-24T11:29:20.000Z</time>
      </trkpt>
      <trkpt lat="43.70787" lon="3.5584">
        <ele>77.400001525879</ele>
        <time>2023-05-24T11:29:25.000Z</time>
      </trkpt>
      <trkpt lat="43.70787" lon="3.5584">
        <ele>77.400001525879</ele>
        <time>2023-05-24T11:29:27.000Z</time>
      </trkpt>
      <trkpt lat="43.70788" lon="3.55841">
        <ele>77.599998474121</ele>
        <time>2023-05-24T11:29:42.000Z</time>
      </trkpt>
      <trkpt lat="43.70788" lon="3.55841">
        <ele>77.400001525879</ele>
        <time>2023-05-24T11:29:53.000Z</time>
      </trkpt>
      <trkpt lat="43.70788" lon="3.5584">
        <ele>77.400001525879</ele>
        <time>2023-05-24T11:30:02.000Z</time>
      </trkpt>
      <trkpt lat="43.70787" lon="3.5584">
        <ele>77.400001525879</ele>
        <time>2023-05-24T11:30:14.000Z</time>
      </trkpt>
      <trkpt lat="43.70788" lon="3.55839">
        <ele>78</ele>
        <time>2023-05-24T11:30:25.000Z</time>
      </trkpt>
      <trkpt lat="43.70788" lon="3.5584">
        <ele>77.400001525879</ele>
        <time>2023-05-24T11:30:38.000Z</time>
      </trkpt>
      <trkpt lat="43.70788" lon="3.5584">
        <ele>77</ele>
        <time>2023-05-24T11:30:48.000Z</time>
      </trkpt>
      <trkpt lat="43.70788" lon="3.55841">
        <ele>77.199996948242</ele>
        <time>2023-05-24T11:30:58.000Z</time>
      </trkpt>
      <trkpt lat="43.70787" lon="3.55841">
        <ele>77</ele>
        <time>2023-05-24T11:31:06.000Z</time>
      </trkpt>
      <trkpt lat="43.70787" lon="3.55841">
        <ele>77</ele>
        <time>2023-05-24T11:31:28.000Z</time>
      </trkpt>
      <trkpt lat="43.70786" lon="3.55841">
        <ele>77.199996948242</ele>
        <time>2023-05-24T11:31:50.000Z</time>
      </trkpt>
      <trkpt lat="43.70786" lon="3.55841">
        <ele>77</ele>
        <time>2023-05-24T11:32:07.000Z</time>
      </trkpt>
      <trkpt lat="43.70786" lon="3.55841">
        <ele>77</ele>
        <time>2023-05-24T11:32:23.000Z</time>
      </trkpt>
      <trkpt lat="43.70786" lon="3.55841">
        <ele>77</ele>
        <time>2023-05-24T11:32:42.000Z</time>
      </trkpt>
      <trkpt lat="43.70785" lon="3.55841">
        <ele>77.199996948242</ele>
        <time>2023-05-24T11:33:02.000Z</time>
      </trkpt>
      <trkpt lat="43.70785" lon="3.55841">
        <ele>77.199996948242</ele>
        <time>2023-05-24T11:33:20.000Z</time>
      </trkpt>
      <trkpt lat="43.70785" lon="3.55841">
        <ele>77.199996948242</ele>
        <time>2023-05-24T11:33:35.000Z</time>
      </trkpt>
      <trkpt lat="43.70785" lon="3.55841">
        <ele>77.400001525879</ele>
        <time>2023-05-24T11:33:43.000Z</time>
      </trkpt>
      <trkpt lat="43.70786" lon="3.55841">
        <ele>78</ele>
        <time>2023-05-24T11:33:50.000Z</time>
      </trkpt>
      <trkpt lat="43.70786" lon="3.55842">
        <ele>77.800003051758</ele>
        <time>2023-05-24T11:33:59.000Z</time>
      </trkpt>
      <trkpt lat="43.70787" lon="3.55841">
        <ele>77.599998474121</ele>
        <time>2023-05-24T11:34:12.000Z</time>
      </trkpt>
      <trkpt lat="43.70787" lon="3.55842">
        <ele>77.599998474121</ele>
        <time>2023-05-24T11:34:18.000Z</time>
      </trkpt>
      <trkpt lat="43.70787" lon="3.55842">
        <ele>77.599998474121</ele>
        <time>2023-05-24T11:34:25.000Z</time>
      </trkpt>
      <trkpt lat="43.70787" lon="3.55841">
        <ele>77.599998474121</ele>
        <time>2023-05-24T11:34:41.000Z</time>
      </trkpt>
      <trkpt lat="43.70788" lon="3.55841">
        <ele>77.800003051758</ele>
        <time>2023-05-24T11:34:49.000Z</time>
      </trkpt>
      <trkpt lat="43.70788" lon="3.55841">
        <ele>77.800003051758</ele>
        <time>2023-05-24T11:34:58.000Z</time>
      </trkpt>
      <trkpt lat="43.70787" lon="3.55841">
        <ele>78</ele>
        <time>2023-05-24T11:35:09.000Z</time>
      </trkpt>
      <trkpt lat="43.70787" lon="3.55841">
        <ele>77.599998474121</ele>
        <time>2023-05-24T11:35:16.000Z</time>
      </trkpt>
      <trkpt lat="43.70788" lon="3.55841">
        <ele>77.599998474121</ele>
        <time>2023-05-24T11:35:27.000Z</time>
      </trkpt>
      <trkpt lat="43.70788" lon="3.55841">
        <ele>77.800003051758</ele>
        <time>2023-05-24T11:35:40.000Z</time>
      </trkpt>
      <trkpt lat="43.70789" lon="3.55842">
        <ele>77.800003051758</ele>
        <time>2023-05-24T11:35:47.000Z</time>
      </trkpt>
      <trkpt lat="43.70789" lon="3.55842">
        <ele>77.599998474121</ele>
        <time>2023-05-24T11:35:58.000Z</time>
      </trkpt>
      <trkpt lat="43.70788" lon="3.55841">
        <ele>77.400001525879</ele>
        <time>2023-05-24T11:36:06.000Z</time>
      </trkpt>
      <trkpt lat="43.70788" lon="3.55841">
        <ele>77.400001525879</ele>
        <time>2023-05-24T11:36:19.000Z</time>
      </trkpt>
      <trkpt lat="43.70788" lon="3.55842">
        <ele>77.599998474121</ele>
        <time>2023-05-24T11:36:30.000Z</time>
      </trkpt>
      <trkpt lat="43.70788" lon="3.55842">
        <ele>77.599998474121</ele>
        <time>2023-05-24T11:36:40.000Z</time>
      </trkpt>
      <trkpt lat="43.70788" lon="3.55841">
        <ele>77.599998474121</ele>
        <time>2023-05-24T11:36:50.000Z</time>
      </trkpt>
      <trkpt lat="43.70788" lon="3.55841">
        <ele>77.599998474121</ele>
        <time>2023-05-24T11:37:01.000Z</time>
      </trkpt>
      <trkpt lat="43.70788" lon="3.55842">
        <ele>77.599998474121</ele>
        <time>2023-05-24T11:37:13.000Z</time>
      </trkpt>
      <trkpt lat="43.70788" lon="3.5584">
        <ele>77.400001525879</ele>
        <time>2023-05-24T11:37:20.000Z</time>
      </trkpt>
      <trkpt lat="43.70788" lon="3.55841">
        <ele>77.800003051758</ele>
        <time>2023-05-24T11:37:26.000Z</time>
      </trkpt>
      <trkpt lat="43.70788" lon="3.55841">
        <ele>77.800003051758</ele>
        <time>2023-05-24T11:37:32.000Z</time>
      </trkpt>
      <trkpt lat="43.70788" lon="3.5584">
        <ele>78</ele>
        <time>2023-05-24T11:37:39.000Z</time>
      </trkpt>
      <trkpt lat="43.70788" lon="3.55839">
        <ele>78</ele>
        <time>2023-05-24T11:37:45.000Z</time>
      </trkpt>
      <trkpt lat="43.70789" lon="3.55838">
        <ele>77.800003051758</ele>
        <time>2023-05-24T11:37:53.000Z</time>
      </trkpt>
      <trkpt lat="43.70789" lon="3.55838">
        <ele>77.800003051758</ele>
        <time>2023-05-24T11:38:02.000Z</time>
      </trkpt>
      <trkpt lat="43.70789" lon="3.55837">
        <ele>77.800003051758</ele>
        <time>2023-05-24T11:38:11.000Z</time>
      </trkpt>
      <trkpt lat="43.70789" lon="3.55838">
        <ele>77.800003051758</ele>
        <time>2023-05-24T11:38:19.000Z</time>
      </trkpt>
      <trkpt lat="43.7079" lon="3.55837">
        <ele>77.800003051758</ele>
        <time>2023-05-24T11:38:28.000Z</time>
      </trkpt>
      <trkpt lat="43.7079" lon="3.55837">
        <ele>78.199996948242</ele>
        <time>2023-05-24T11:38:36.000Z</time>
      </trkpt>
      <trkpt lat="43.7079" lon="3.55837">
        <ele>77.599998474121</ele>
        <time>2023-05-24T11:38:47.000Z</time>
      </trkpt>
      <trkpt lat="43.7079" lon="3.55838">
        <ele>77.199996948242</ele>
        <time>2023-05-24T11:38:57.000Z</time>
      </trkpt>
      <trkpt lat="43.7079" lon="3.55839">
        <ele>77.599998474121</ele>
        <time>2023-05-24T11:39:06.000Z</time>
      </trkpt>
      <trkpt lat="43.70791" lon="3.55839">
        <ele>77.800003051758</ele>
        <time>2023-05-24T11:39:17.000Z</time>
      </trkpt>
      <trkpt lat="43.70791" lon="3.55838">
        <ele>78</ele>
        <time>2023-05-24T11:39:26.000Z</time>
      </trkpt>
      <trkpt lat="43.70791" lon="3.55838">
        <ele>77.400001525879</ele>
        <time>2023-05-24T11:39:40.000Z</time>
      </trkpt>
      <trkpt lat="43.70792" lon="3.55838">
        <ele>77.800003051758</ele>
        <time>2023-05-24T11:39:52.000Z</time>
      </trkpt>
      <trkpt lat="43.70792" lon="3.55838">
        <ele>77.199996948242</ele>
        <time>2023-05-24T11:40:04.000Z</time>
      </trkpt>
      <trkpt lat="43.70792" lon="3.55838">
        <ele>77.400001525879</ele>
        <time>2023-05-24T11:40:12.000Z</time>
      </trkpt>
      <trkpt lat="43.70791" lon="3.55836">
        <ele>78</ele>
        <time>2023-05-24T11:40:20.000Z</time>
      </trkpt>
      <trkpt lat="43.70792" lon="3.55837">
        <ele>78.199996948242</ele>
        <time>2023-05-24T11:40:27.000Z</time>
      </trkpt>
      <trkpt lat="43.70791" lon="3.55836">
        <ele>77.800003051758</ele>
        <time>2023-05-24T11:40:33.000Z</time>
      </trkpt>
      <trkpt lat="43.70789" lon="3.55837">
        <ele>78</ele>
        <time>2023-05-24T11:40:40.000Z</time>
      </trkpt>
      <trkpt lat="43.70789" lon="3.55839">
        <ele>78.400001525879</ele>
        <time>2023-05-24T11:40:48.000Z</time>
      </trkpt>
      <trkpt lat="43.70791" lon="3.55838">
        <ele>78.199996948242</ele>
        <time>2023-05-24T11:40:55.000Z</time>
      </trkpt>
      <trkpt lat="43.7079" lon="3.55838">
        <ele>77.800003051758</ele>
        <time>2023-05-24T11:41:02.000Z</time>
      </trkpt>
      <trkpt lat="43.7079" lon="3.55839">
        <ele>77.599998474121</ele>
        <time>2023-05-24T11:41:09.000Z</time>
      </trkpt>
      <trkpt lat="43.70792" lon="3.5584">
        <ele>77.800003051758</ele>
        <time>2023-05-24T11:41:20.000Z</time>
      </trkpt>
      <trkpt lat="43.70792" lon="3.5584">
        <ele>77.800003051758</ele>
        <time>2023-05-24T11:41:29.000Z</time>
      </trkpt>
      <trkpt lat="43.70792" lon="3.5584">
        <ele>78</ele>
        <time>2023-05-24T11:41:38.000Z</time>
      </trkpt>
      <trkpt lat="43.70792" lon="3.5584">
        <ele>77.800003051758</ele>
        <time>2023-05-24T11:41:45.000Z</time>
      </trkpt>
      <trkpt lat="43.70792" lon="3.5584">
        <ele>77.800003051758</ele>
        <time>2023-05-24T11:41:57.000Z</time>
      </trkpt>
      <trkpt lat="43.70793" lon="3.5584">
        <ele>77.800003051758</ele>
        <time>2023-05-24T11:42:08.000Z</time>
      </trkpt>
      <trkpt lat="43.70792" lon="3.55839">
        <ele>78.800003051758</ele>
        <time>2023-05-24T11:42:15.000Z</time>
      </trkpt>
      <trkpt lat="43.70792" lon="3.55839">
        <ele>78.599998474121</ele>
        <time>2023-05-24T11:42:16.000Z</time>
      </trkpt>
      <trkpt lat="43.70792" lon="3.55839">
        <ele>78.199996948242</ele>
        <time>2023-05-24T11:42:25.000Z</time>
      </trkpt>
      <trkpt lat="43.70792" lon="3.55838">
        <ele>74.199996948242</ele>
        <time>2023-05-24T11:42:28.000Z</time>
      </trkpt>
      <trkpt lat="43.70792" lon="3.55838">
        <ele>78</ele>
        <time>2023-05-24T11:42:33.000Z</time>
      </trkpt>
      <trkpt lat="43.70792" lon="3.55838">
        <ele>78.400001525879</ele>
        <time>2023-05-24T11:42:39.000Z</time>
      </trkpt>
      <trkpt lat="43.70792" lon="3.55838">
        <ele>78.199996948242</ele>
        <time>2023-05-24T11:42:50.000Z</time>
      </trkpt>
      <trkpt lat="43.7079" lon="3.55836">
        <ele>78.199996948242</ele>
        <time>2023-05-24T11:42:59.000Z</time>
      </trkpt>
      <trkpt lat="43.70791" lon="3.55836">
        <ele>78</ele>
        <time>2023-05-24T11:43:04.000Z</time>
      </trkpt>
      <trkpt lat="43.70791" lon="3.55836">
        <ele>78</ele>
        <time>2023-05-24T11:43:13.000Z</time>
      </trkpt>
      <trkpt lat="43.7079" lon="3.55837">
        <ele>78.199996948242</ele>
        <time>2023-05-24T11:43:20.000Z</time>
      </trkpt>
      <trkpt lat="43.70791" lon="3.55838">
        <ele>78.199996948242</ele>
        <time>2023-05-24T11:43:29.000Z</time>
      </trkpt>
      <trkpt lat="43.70791" lon="3.55839">
        <ele>77.800003051758</ele>
        <time>2023-05-24T11:43:36.000Z</time>
      </trkpt>
      <trkpt lat="43.70791" lon="3.5584">
        <ele>78.400001525879</ele>
        <time>2023-05-24T11:43:50.000Z</time>
      </trkpt>
      <trkpt lat="43.70791" lon="3.55841">
        <ele>78.199996948242</ele>
        <time>2023-05-24T11:44:03.000Z</time>
      </trkpt>
      <trkpt lat="43.7079" lon="3.5584">
        <ele>78.199996948242</ele>
        <time>2023-05-24T11:44:15.000Z</time>
      </trkpt>
      <trkpt lat="43.70789" lon="3.55839">
        <ele>78</ele>
        <time>2023-05-24T11:44:31.000Z</time>
      </trkpt>
      <trkpt lat="43.7079" lon="3.55839">
        <ele>78.400001525879</ele>
        <time>2023-05-24T11:44:42.000Z</time>
      </trkpt>
      <trkpt lat="43.7079" lon="3.55839">
        <ele>78.400001525879</ele>
        <time>2023-05-24T11:44:50.000Z</time>
      </trkpt>
      <trkpt lat="43.7079" lon="3.55838">
        <ele>78.199996948242</ele>
        <time>2023-05-24T11:45:03.000Z</time>
      </trkpt>
      <trkpt lat="43.7079" lon="3.55837">
        <ele>78.199996948242</ele>
        <time>2023-05-24T11:45:22.000Z</time>
      </trkpt>
      <trkpt lat="43.7079" lon="3.55837">
        <ele>78.199996948242</ele>
        <time>2023-05-24T11:45:40.000Z</time>
      </trkpt>
      <trkpt lat="43.7079" lon="3.55837">
        <ele>78</ele>
        <time>2023-05-24T11:45:54.000Z</time>
      </trkpt>
      <trkpt lat="43.7079" lon="3.55837">
        <ele>78</ele>
        <time>2023-05-24T11:46:10.000Z</time>
      </trkpt>
      <trkpt lat="43.7079" lon="3.55837">
        <ele>78</ele>
        <time>2023-05-24T11:46:25.000Z</time>
      </trkpt>
      <trkpt lat="43.7079" lon="3.55837">
        <ele>78</ele>
        <time>2023-05-24T11:46:40.000Z</time>
      </trkpt>
      <trkpt lat="43.70791" lon="3.55837">
        <ele>78</ele>
        <time>2023-05-24T11:46:59.000Z</time>
      </trkpt>
      <trkpt lat="43.70791" lon="3.55838">
        <ele>78</ele>
        <time>2023-05-24T11:47:19.000Z</time>
      </trkpt>
      <trkpt lat="43.70791" lon="3.55837">
        <ele>78</ele>
        <time>2023-05-24T11:47:35.000Z</time>
      </trkpt>
      <trkpt lat="43.7079" lon="3.55837">
        <ele>77.800003051758</ele>
        <time>2023-05-24T11:47:44.000Z</time>
      </trkpt>
      <trkpt lat="43.70789" lon="3.55836">
        <ele>77.400001525879</ele>
        <time>2023-05-24T11:47:51.000Z</time>
      </trkpt>
      <trkpt lat="43.70792" lon="3.55829">
        <ele>77.599998474121</ele>
        <time>2023-05-24T11:47:56.000Z</time>
      </trkpt>
      <trkpt lat="43.70798" lon="3.55821">
        <ele>77.599998474121</ele>
        <time>2023-05-24T11:48:03.000Z</time>
      </trkpt>
      <trkpt lat="43.70806" lon="3.55813">
        <ele>77.599998474121</ele>
        <time>2023-05-24T11:48:12.000Z</time>
      </trkpt>
      <trkpt lat="43.70814" lon="3.55813">
        <ele>77.400001525879</ele>
        <time>2023-05-24T11:48:19.000Z</time>
      </trkpt>
      <trkpt lat="43.7082" lon="3.55814">
        <ele>77.800003051758</ele>
        <time>2023-05-24T11:48:26.000Z</time>
      </trkpt>
      <trkpt lat="43.70821" lon="3.55815">
        <ele>77.800003051758</ele>
        <time>2023-05-24T11:48:27.000Z</time>
      </trkpt>
      <trkpt lat="43.7082" lon="3.55816">
        <ele>78</ele>
        <time>2023-05-24T11:48:32.000Z</time>
      </trkpt>
      <trkpt lat="43.70819" lon="3.55819">
        <ele>78</ele>
        <time>2023-05-24T11:48:38.000Z</time>
      </trkpt>
      <trkpt lat="43.7082" lon="3.5582">
        <ele>78.199996948242</ele>
        <time>2023-05-24T11:48:44.000Z</time>
      </trkpt>
      <trkpt lat="43.70819" lon="3.55816">
        <ele>78</ele>
        <time>2023-05-24T11:48:49.000Z</time>
      </trkpt>
      <trkpt lat="43.70821" lon="3.55814">
        <ele>78.199996948242</ele>
        <time>2023-05-24T11:48:56.000Z</time>
      </trkpt>
      <trkpt lat="43.70821" lon="3.55813">
        <ele>78.199996948242</ele>
        <time>2023-05-24T11:49:03.000Z</time>
      </trkpt>
      <trkpt lat="43.70821" lon="3.55813">
        <ele>78.400001525879</ele>
        <time>2023-05-24T11:49:14.000Z</time>
      </trkpt>
      <trkpt lat="43.70822" lon="3.55813">
        <ele>78</ele>
        <time>2023-05-24T11:49:22.000Z</time>
      </trkpt>
      <trkpt lat="43.70821" lon="3.55812">
        <ele>78.199996948242</ele>
        <time>2023-05-24T11:49:30.000Z</time>
      </trkpt>
      <trkpt lat="43.70821" lon="3.55812">
        <ele>78.199996948242</ele>
        <time>2023-05-24T11:49:43.000Z</time>
      </trkpt>
      <trkpt lat="43.70821" lon="3.55814">
        <ele>78.199996948242</ele>
        <time>2023-05-24T11:49:53.000Z</time>
      </trkpt>
      <trkpt lat="43.7082" lon="3.55815">
        <ele>78.400001525879</ele>
        <time>2023-05-24T11:50:08.000Z</time>
      </trkpt>
      <trkpt lat="43.7082" lon="3.55815">
        <ele>78.400001525879</ele>
        <time>2023-05-24T11:50:17.000Z</time>
      </trkpt>
      <trkpt lat="43.7082" lon="3.55815">
        <ele>78.400001525879</ele>
        <time>2023-05-24T11:50:32.000Z</time>
      </trkpt>
      <trkpt lat="43.70821" lon="3.55816">
        <ele>78.599998474121</ele>
        <time>2023-05-24T11:50:45.000Z</time>
      </trkpt>
      <trkpt lat="43.70821" lon="3.55816">
        <ele>78.599998474121</ele>
        <time>2023-05-24T11:50:58.000Z</time>
      </trkpt>
      <trkpt lat="43.7082" lon="3.55817">
        <ele>78.599998474121</ele>
        <time>2023-05-24T11:51:11.000Z</time>
      </trkpt>
      <trkpt lat="43.7082" lon="3.55817">
        <ele>78.599998474121</ele>
        <time>2023-05-24T11:51:25.000Z</time>
      </trkpt>
      <trkpt lat="43.70819" lon="3.55817">
        <ele>78.599998474121</ele>
        <time>2023-05-24T11:51:39.000Z</time>
      </trkpt>
      <trkpt lat="43.70819" lon="3.55816">
        <ele>78.800003051758</ele>
        <time>2023-05-24T11:51:55.000Z</time>
      </trkpt>
      <trkpt lat="43.70819" lon="3.55817">
        <ele>78.800003051758</ele>
        <time>2023-05-24T11:52:13.000Z</time>
      </trkpt>
      <trkpt lat="43.70819" lon="3.55818">
        <ele>78.800003051758</ele>
        <time>2023-05-24T11:52:31.000Z</time>
      </trkpt>
      <trkpt lat="43.7082" lon="3.55817">
        <ele>78.800003051758</ele>
        <time>2023-05-24T11:52:39.000Z</time>
      </trkpt>
      <trkpt lat="43.7082" lon="3.55817">
        <ele>78.800003051758</ele>
        <time>2023-05-24T11:52:47.000Z</time>
      </trkpt>
      <trkpt lat="43.7082" lon="3.55816">
        <ele>78.800003051758</ele>
        <time>2023-05-24T11:52:55.000Z</time>
      </trkpt>
      <trkpt lat="43.7082" lon="3.55816">
        <ele>79</ele>
        <time>2023-05-24T11:53:00.000Z</time>
      </trkpt>
      <trkpt lat="43.7082" lon="3.55816">
        <ele>79</ele>
        <time>2023-05-24T11:53:06.000Z</time>
      </trkpt>
      <trkpt lat="43.7082" lon="3.55816">
        <ele>79</ele>
        <time>2023-05-24T11:53:16.000Z</time>
      </trkpt>
      <trkpt lat="43.7082" lon="3.55816">
        <ele>78.800003051758</ele>
        <time>2023-05-24T11:53:26.000Z</time>
      </trkpt>
      <trkpt lat="43.7082" lon="3.55815">
        <ele>79</ele>
        <time>2023-05-24T11:53:38.000Z</time>
      </trkpt>
      <trkpt lat="43.70821" lon="3.55816">
        <ele>79</ele>
        <time>2023-05-24T11:53:47.000Z</time>
      </trkpt>
      <trkpt lat="43.7082" lon="3.55816">
        <ele>79</ele>
        <time>2023-05-24T11:54:01.000Z</time>
      </trkpt>
      <trkpt lat="43.7082" lon="3.55816">
        <ele>78.800003051758</ele>
        <time>2023-05-24T11:54:12.000Z</time>
      </trkpt>
      <trkpt lat="43.70819" lon="3.55816">
        <ele>79</ele>
        <time>2023-05-24T11:54:20.000Z</time>
      </trkpt>
      <trkpt lat="43.70818" lon="3.55816">
        <ele>78.800003051758</ele>
        <time>2023-05-24T11:54:36.000Z</time>
      </trkpt>
      <trkpt lat="43.70818" lon="3.55816">
        <ele>79.400001525879</ele>
        <time>2023-05-24T11:54:45.000Z</time>
      </trkpt>
      <trkpt lat="43.70818" lon="3.55817">
        <ele>79.199996948242</ele>
        <time>2023-05-24T11:54:59.000Z</time>
      </trkpt>
      <trkpt lat="43.70818" lon="3.55818">
        <ele>79.400001525879</ele>
        <time>2023-05-24T11:55:11.000Z</time>
      </trkpt>
      <trkpt lat="43.70819" lon="3.55817">
        <ele>79.400001525879</ele>
        <time>2023-05-24T11:55:20.000Z</time>
      </trkpt>
      <trkpt lat="43.70819" lon="3.55817">
        <ele>79.400001525879</ele>
        <time>2023-05-24T11:55:32.000Z</time>
      </trkpt>
      <trkpt lat="43.7082" lon="3.55816">
        <ele>79.599998474121</ele>
        <time>2023-05-24T11:55:50.000Z</time>
      </trkpt>
      <trkpt lat="43.7082" lon="3.55815">
        <ele>79.599998474121</ele>
        <time>2023-05-24T11:56:02.000Z</time>
      </trkpt>
      <trkpt lat="43.70819" lon="3.55815">
        <ele>79.599998474121</ele>
        <time>2023-05-24T11:56:11.000Z</time>
      </trkpt>
      <trkpt lat="43.70819" lon="3.55816">
        <ele>79.400001525879</ele>
        <time>2023-05-24T11:56:25.000Z</time>
      </trkpt>
      <trkpt lat="43.70818" lon="3.55816">
        <ele>79.800003051758</ele>
        <time>2023-05-24T11:56:40.000Z</time>
      </trkpt>
      <trkpt lat="43.70818" lon="3.55815">
        <ele>79.800003051758</ele>
        <time>2023-05-24T11:56:54.000Z</time>
      </trkpt>
      <trkpt lat="43.70817" lon="3.55815">
        <ele>79.800003051758</ele>
        <time>2023-05-24T11:57:06.000Z</time>
      </trkpt>
      <trkpt lat="43.70818" lon="3.55816">
        <ele>79.800003051758</ele>
        <time>2023-05-24T11:57:19.000Z</time>
      </trkpt>
      <trkpt lat="43.70816" lon="3.55814">
        <ele>79.800003051758</ele>
        <time>2023-05-24T11:57:35.000Z</time>
      </trkpt>
      <trkpt lat="43.70816" lon="3.55814">
        <ele>79.800003051758</ele>
        <time>2023-05-24T11:57:46.000Z</time>
      </trkpt>
      <trkpt lat="43.70816" lon="3.55815">
        <ele>79.599998474121</ele>
        <time>2023-05-24T11:58:00.000Z</time>
      </trkpt>
      <trkpt lat="43.70816" lon="3.55815">
        <ele>79.400001525879</ele>
        <time>2023-05-24T11:58:13.000Z</time>
      </trkpt>
      <trkpt lat="43.70817" lon="3.55815">
        <ele>79.400001525879</ele>
        <time>2023-05-24T11:58:35.000Z</time>
      </trkpt>
      <trkpt lat="43.70818" lon="3.55815">
        <ele>80</ele>
        <time>2023-05-24T11:58:38.000Z</time>
      </trkpt>
      <trkpt lat="43.70818" lon="3.55815">
        <ele>80</ele>
        <time>2023-05-24T11:58:47.000Z</time>
      </trkpt>
      <trkpt lat="43.70819" lon="3.55815">
        <ele>79.400001525879</ele>
        <time>2023-05-24T11:58:57.000Z</time>
      </trkpt>
      <trkpt lat="43.7082" lon="3.55814">
        <ele>79.400001525879</ele>
        <time>2023-05-24T11:59:12.000Z</time>
      </trkpt>
      <trkpt lat="43.70822" lon="3.55816">
        <ele>80.199996948242</ele>
        <time>2023-05-24T11:59:23.000Z</time>
      </trkpt>
      <trkpt lat="43.70821" lon="3.55816">
        <ele>80.199996948242</ele>
        <time>2023-05-24T11:59:34.000Z</time>
      </trkpt>
      <trkpt lat="43.70823" lon="3.55814">
        <ele>80.199996948242</ele>
        <time>2023-05-24T11:59:41.000Z</time>
      </trkpt>
      <trkpt lat="43.70823" lon="3.55816">
        <ele>80.199996948242</ele>
        <time>2023-05-24T11:59:48.000Z</time>
      </trkpt>
      <trkpt lat="43.70823" lon="3.55816">
        <ele>80.400001525879</ele>
        <time>2023-05-24T11:59:53.000Z</time>
      </trkpt>
      <trkpt lat="43.70823" lon="3.55816">
        <ele>80.400001525879</ele>
        <time>2023-05-24T11:59:59.000Z</time>
      </trkpt>
      <trkpt lat="43.70824" lon="3.55815">
        <ele>80.599998474121</ele>
        <time>2023-05-24T12:00:10.000Z</time>
      </trkpt>
      <trkpt lat="43.70823" lon="3.55815">
        <ele>80.599998474121</ele>
        <time>2023-05-24T12:00:24.000Z</time>
      </trkpt>
      <trkpt lat="43.70821" lon="3.55815">
        <ele>80.599998474121</ele>
        <time>2023-05-24T12:00:39.000Z</time>
      </trkpt>
      <trkpt lat="43.7082" lon="3.55816">
        <ele>81</ele>
        <time>2023-05-24T12:00:43.000Z</time>
      </trkpt>
      <trkpt lat="43.7082" lon="3.55816">
        <ele>82.199996948242</ele>
        <time>2023-05-24T12:00:49.000Z</time>
      </trkpt>
      <trkpt lat="43.7082" lon="3.55816">
        <ele>82.599998474121</ele>
        <time>2023-05-24T12:01:02.000Z</time>
      </trkpt>
      <trkpt lat="43.7082" lon="3.55816">
        <ele>83.199996948242</ele>
        <time>2023-05-24T12:01:03.000Z</time>
      </trkpt>
      <trkpt lat="43.70821" lon="3.55816">
        <ele>82.800003051758</ele>
        <time>2023-05-24T12:01:11.000Z</time>
      </trkpt>
      <trkpt lat="43.70821" lon="3.55816">
        <ele>82</ele>
        <time>2023-05-24T12:01:15.000Z</time>
      </trkpt>
      <trkpt lat="43.7082" lon="3.55816">
        <ele>81</ele>
        <time>2023-05-24T12:01:23.000Z</time>
      </trkpt>
      <trkpt lat="43.70821" lon="3.55816">
        <ele>80.599998474121</ele>
        <time>2023-05-24T12:01:26.000Z</time>
      </trkpt>
      <trkpt lat="43.70821" lon="3.55816">
        <ele>80.199996948242</ele>
        <time>2023-05-24T12:01:38.000Z</time>
      </trkpt>
      <trkpt lat="43.70821" lon="3.55816">
        <ele>80.400001525879</ele>
        <time>2023-05-24T12:01:50.000Z</time>
      </trkpt>
      <trkpt lat="43.70821" lon="3.55816">
        <ele>80.400001525879</ele>
        <time>2023-05-24T12:02:03.000Z</time>
      </trkpt>
      <trkpt lat="43.70819" lon="3.55817">
        <ele>80.400001525879</ele>
        <time>2023-05-24T12:02:17.000Z</time>
      </trkpt>
      <trkpt lat="43.70816" lon="3.55816">
        <ele>80.400001525879</ele>
        <time>2023-05-24T12:02:24.000Z</time>
      </trkpt>
      <trkpt lat="43.70809" lon="3.55813">
        <ele>80.199996948242</ele>
        <time>2023-05-24T12:02:32.000Z</time>
      </trkpt>
      <trkpt lat="43.70806" lon="3.55811">
        <ele>80.199996948242</ele>
        <time>2023-05-24T12:02:36.000Z</time>
      </trkpt>
      <trkpt lat="43.70803" lon="3.55812">
        <ele>80</ele>
        <time>2023-05-24T12:02:39.000Z</time>
      </trkpt>
      <trkpt lat="43.70802" lon="3.55813">
        <ele>80</ele>
        <time>2023-05-24T12:02:40.000Z</time>
      </trkpt>
      <trkpt lat="43.70799" lon="3.55818">
        <ele>80</ele>
        <time>2023-05-24T12:02:46.000Z</time>
      </trkpt>
      <trkpt lat="43.70791" lon="3.55829">
        <ele>80</ele>
        <time>2023-05-24T12:02:56.000Z</time>
      </trkpt>
      <trkpt lat="43.70788" lon="3.55838">
        <ele>80</ele>
        <time>2023-05-24T12:03:04.000Z</time>
      </trkpt>
      <trkpt lat="43.70788" lon="3.55839">
        <ele>80</ele>
        <time>2023-05-24T12:03:05.000Z</time>
      </trkpt>
      <trkpt lat="43.70788" lon="3.55839">
        <ele>79.800003051758</ele>
        <time>2023-05-24T12:03:10.000Z</time>
      </trkpt>
      <trkpt lat="43.70788" lon="3.55834">
        <ele>79.800003051758</ele>
        <time>2023-05-24T12:03:17.000Z</time>
      </trkpt>
      <trkpt lat="43.70793" lon="3.55828">
        <ele>80</ele>
        <time>2023-05-24T12:03:24.000Z</time>
      </trkpt>
      <trkpt lat="43.70799" lon="3.55819">
        <ele>80.199996948242</ele>
        <time>2023-05-24T12:03:33.000Z</time>
      </trkpt>
      <trkpt lat="43.70804" lon="3.55812">
        <ele>80.199996948242</ele>
        <time>2023-05-24T12:03:42.000Z</time>
      </trkpt>
      <trkpt lat="43.70805" lon="3.55813">
        <ele>80</ele>
        <time>2023-05-24T12:03:44.000Z</time>
      </trkpt>
      <trkpt lat="43.70805" lon="3.55812">
        <ele>80</ele>
        <time>2023-05-24T12:03:47.000Z</time>
      </trkpt>
      <trkpt lat="43.70805" lon="3.55812">
        <ele>80.199996948242</ele>
        <time>2023-05-24T12:03:54.000Z</time>
      </trkpt>
      <trkpt lat="43.70805" lon="3.55812">
        <ele>80.199996948242</ele>
        <time>2023-05-24T12:04:02.000Z</time>
      </trkpt>
      <trkpt lat="43.70805" lon="3.55813">
        <ele>80.199996948242</ele>
        <time>2023-05-24T12:04:11.000Z</time>
      </trkpt>
      <trkpt lat="43.70805" lon="3.55813">
        <ele>80.199996948242</ele>
        <time>2023-05-24T12:04:18.000Z</time>
      </trkpt>
      <trkpt lat="43.70806" lon="3.55814">
        <ele>80.199996948242</ele>
        <time>2023-05-24T12:04:24.000Z</time>
      </trkpt>
      <trkpt lat="43.70806" lon="3.55814">
        <ele>80.199996948242</ele>
        <time>2023-05-24T12:04:33.000Z</time>
      </trkpt>
      <trkpt lat="43.70805" lon="3.55815">
        <ele>80.400001525879</ele>
        <time>2023-05-24T12:04:47.000Z</time>
      </trkpt>
      <trkpt lat="43.70805" lon="3.55816">
        <ele>80.400001525879</ele>
        <time>2023-05-24T12:04:56.000Z</time>
      </trkpt>
      <trkpt lat="43.70804" lon="3.55816">
        <ele>80.400001525879</ele>
        <time>2023-05-24T12:05:07.000Z</time>
      </trkpt>
      <trkpt lat="43.70804" lon="3.55815">
        <ele>80.400001525879</ele>
        <time>2023-05-24T12:05:15.000Z</time>
      </trkpt>
      <trkpt lat="43.70805" lon="3.55816">
        <ele>80.400001525879</ele>
        <time>2023-05-24T12:05:32.000Z</time>
      </trkpt>
      <trkpt lat="43.70804" lon="3.55816">
        <ele>80.400001525879</ele>
        <time>2023-05-24T12:05:43.000Z</time>
      </trkpt>
      <trkpt lat="43.70804" lon="3.55817">
        <ele>80.599998474121</ele>
        <time>2023-05-24T12:05:55.000Z</time>
      </trkpt>
      <trkpt lat="43.70804" lon="3.55817">
        <ele>80.599998474121</ele>
        <time>2023-05-24T12:06:08.000Z</time>
      </trkpt>
      <trkpt lat="43.70804" lon="3.55817">
        <ele>80.599998474121</ele>
        <time>2023-05-24T12:06:17.000Z</time>
      </trkpt>
      <trkpt lat="43.70805" lon="3.55817">
        <ele>80.800003051758</ele>
        <time>2023-05-24T12:06:25.000Z</time>
      </trkpt>
      <trkpt lat="43.70805" lon="3.55815">
        <ele>80.800003051758</ele>
        <time>2023-05-24T12:06:38.000Z</time>
      </trkpt>
      <trkpt lat="43.70805" lon="3.55814">
        <ele>80.800003051758</ele>
        <time>2023-05-24T12:06:47.000Z</time>
      </trkpt>
      <trkpt lat="43.70805" lon="3.55815">
        <ele>80.800003051758</ele>
        <time>2023-05-24T12:06:57.000Z</time>
      </trkpt>
      <trkpt lat="43.70805" lon="3.55815">
        <ele>80.800003051758</ele>
        <time>2023-05-24T12:07:05.000Z</time>
      </trkpt>
      <trkpt lat="43.70804" lon="3.55815">
        <ele>80.199996948242</ele>
        <time>2023-05-24T12:07:13.000Z</time>
      </trkpt>
      <trkpt lat="43.70806" lon="3.55814">
        <ele>80.400001525879</ele>
        <time>2023-05-24T12:07:24.000Z</time>
      </trkpt>
      <trkpt lat="43.70806" lon="3.55814">
        <ele>80.599998474121</ele>
        <time>2023-05-24T12:07:29.000Z</time>
      </trkpt>
      <trkpt lat="43.70806" lon="3.55813">
        <ele>80.400001525879</ele>
        <time>2023-05-24T12:07:36.000Z</time>
      </trkpt>
      <trkpt lat="43.70805" lon="3.55813">
        <ele>80.599998474121</ele>
        <time>2023-05-24T12:07:45.000Z</time>
      </trkpt>
      <trkpt lat="43.70806" lon="3.55812">
        <ele>81</ele>
        <time>2023-05-24T12:07:53.000Z</time>
      </trkpt>
      <trkpt lat="43.70807" lon="3.55812">
        <ele>81</ele>
        <time>2023-05-24T12:07:56.000Z</time>
      </trkpt>
      <trkpt lat="43.70806" lon="3.55813">
        <ele>81</ele>
        <time>2023-05-24T12:08:03.000Z</time>
      </trkpt>
      <trkpt lat="43.70805" lon="3.55812">
        <ele>81.199996948242</ele>
        <time>2023-05-24T12:08:09.000Z</time>
      </trkpt>
      <trkpt lat="43.70804" lon="3.55801">
        <ele>81</ele>
        <time>2023-05-24T12:08:16.000Z</time>
      </trkpt>
      <trkpt lat="43.7081" lon="3.55789">
        <ele>80.800003051758</ele>
        <time>2023-05-24T12:08:25.000Z</time>
      </trkpt>
      <trkpt lat="43.70813" lon="3.55779">
        <ele>80.800003051758</ele>
        <time>2023-05-24T12:08:33.000Z</time>
      </trkpt>
      <trkpt lat="43.70813" lon="3.5578">
        <ele>81</ele>
        <time>2023-05-24T12:08:34.000Z</time>
      </trkpt>
      <trkpt lat="43.70813" lon="3.55777">
        <ele>80.800003051758</ele>
        <time>2023-05-24T12:08:36.000Z</time>
      </trkpt>
      <trkpt lat="43.70814" lon="3.55771">
        <ele>80.599998474121</ele>
        <time>2023-05-24T12:08:40.000Z</time>
      </trkpt>
      <trkpt lat="43.70812" lon="3.55763">
        <ele>80.800003051758</ele>
        <time>2023-05-24T12:08:48.000Z</time>
      </trkpt>
      <trkpt lat="43.70812" lon="3.55764">
        <ele>81</ele>
        <time>2023-05-24T12:08:57.000Z</time>
      </trkpt>
      <trkpt lat="43.70812" lon="3.55764">
        <ele>81.400001525879</ele>
        <time>2023-05-24T12:09:07.000Z</time>
      </trkpt>
      <trkpt lat="43.70811" lon="3.5576">
        <ele>81.199996948242</ele>
        <time>2023-05-24T12:09:15.000Z</time>
      </trkpt>
      <trkpt lat="43.7081" lon="3.55758">
        <ele>81.199996948242</ele>
        <time>2023-05-24T12:09:21.000Z</time>
      </trkpt>
      <trkpt lat="43.70807" lon="3.5575">
        <ele>81.800003051758</ele>
        <time>2023-05-24T12:09:28.000Z</time>
      </trkpt>
      <trkpt lat="43.70804" lon="3.55741">
        <ele>81.800003051758</ele>
        <time>2023-05-24T12:09:38.000Z</time>
      </trkpt>
      <trkpt lat="43.70804" lon="3.55741">
        <ele>82</ele>
        <time>2023-05-24T12:09:40.000Z</time>
      </trkpt>
      <trkpt lat="43.70802" lon="3.55738">
        <ele>82</ele>
        <time>2023-05-24T12:09:48.000Z</time>
      </trkpt>
      <trkpt lat="43.70796" lon="3.5572">
        <ele>82.400001525879</ele>
        <time>2023-05-24T12:10:00.000Z</time>
      </trkpt>
      <trkpt lat="43.7079" lon="3.55705">
        <ele>82.599998474121</ele>
        <time>2023-05-24T12:10:10.000Z</time>
      </trkpt>
      <trkpt lat="43.70791" lon="3.55705">
        <ele>82.800003051758</ele>
        <time>2023-05-24T12:10:12.000Z</time>
      </trkpt>
      <trkpt lat="43.70791" lon="3.55698">
        <ele>82.599998474121</ele>
        <time>2023-05-24T12:10:16.000Z</time>
      </trkpt>
      <trkpt lat="43.70791" lon="3.55695">
        <ele>82.599998474121</ele>
        <time>2023-05-24T12:10:18.000Z</time>
      </trkpt>
      <trkpt lat="43.70796" lon="3.55682">
        <ele>82.800003051758</ele>
        <time>2023-05-24T12:10:28.000Z</time>
      </trkpt>
      <trkpt lat="43.70799" lon="3.55679">
        <ele>83</ele>
        <time>2023-05-24T12:10:33.000Z</time>
      </trkpt>
      <trkpt lat="43.70799" lon="3.55679">
        <ele>83</ele>
        <time>2023-05-24T12:10:35.000Z</time>
      </trkpt>
      <trkpt lat="43.70802" lon="3.55675">
        <ele>83</ele>
        <time>2023-05-24T12:10:45.000Z</time>
      </trkpt>
      <trkpt lat="43.7081" lon="3.55667">
        <ele>83</ele>
        <time>2023-05-24T12:10:56.000Z</time>
      </trkpt>
      <trkpt lat="43.70819" lon="3.55658">
        <ele>82.800003051758</ele>
        <time>2023-05-24T12:11:07.000Z</time>
      </trkpt>
      <trkpt lat="43.70822" lon="3.55654">
        <ele>82.800003051758</ele>
        <time>2023-05-24T12:11:13.000Z</time>
      </trkpt>
      <trkpt lat="43.70824" lon="3.55655">
        <ele>82.800003051758</ele>
        <time>2023-05-24T12:11:18.000Z</time>
      </trkpt>
      <trkpt lat="43.70827" lon="3.5565">
        <ele>82.800003051758</ele>
        <time>2023-05-24T12:11:23.000Z</time>
      </trkpt>
      <trkpt lat="43.70829" lon="3.55649">
        <ele>82.400001525879</ele>
        <time>2023-05-24T12:11:29.000Z</time>
      </trkpt>
      <trkpt lat="43.70833" lon="3.55644">
        <ele>82.599998474121</ele>
        <time>2023-05-24T12:11:35.000Z</time>
      </trkpt>
      <trkpt lat="43.70838" lon="3.55638">
        <ele>82.599998474121</ele>
        <time>2023-05-24T12:11:43.000Z</time>
      </trkpt>
      <trkpt lat="43.70845" lon="3.5563">
        <ele>82.400001525879</ele>
        <time>2023-05-24T12:11:52.000Z</time>
      </trkpt>
      <trkpt lat="43.70846" lon="3.55628">
        <ele>82.400001525879</ele>
        <time>2023-05-24T12:11:54.000Z</time>
      </trkpt>
      <trkpt lat="43.70849" lon="3.55626">
        <ele>82.400001525879</ele>
        <time>2023-05-24T12:11:58.000Z</time>
      </trkpt>
      <trkpt lat="43.7085" lon="3.55625">
        <ele>82.400001525879</ele>
        <time>2023-05-24T12:11:59.000Z</time>
      </trkpt>
      <trkpt lat="43.70855" lon="3.55616">
        <ele>82</ele>
        <time>2023-05-24T12:12:07.000Z</time>
      </trkpt>
      <trkpt lat="43.70855" lon="3.55614">
        <ele>81.800003051758</ele>
        <time>2023-05-24T12:12:09.000Z</time>
      </trkpt>
      <trkpt lat="43.70861" lon="3.55606">
        <ele>81.800003051758</ele>
        <time>2023-05-24T12:12:17.000Z</time>
      </trkpt>
      <trkpt lat="43.70866" lon="3.55595">
        <ele>81.599998474121</ele>
        <time>2023-05-24T12:12:26.000Z</time>
      </trkpt>
      <trkpt lat="43.70871" lon="3.55585">
        <ele>81.199996948242</ele>
        <time>2023-05-24T12:12:35.000Z</time>
      </trkpt>
      <trkpt lat="43.70875" lon="3.55577">
        <ele>81</ele>
        <time>2023-05-24T12:12:43.000Z</time>
      </trkpt>
      <trkpt lat="43.70876" lon="3.55575">
        <ele>81</ele>
        <time>2023-05-24T12:12:45.000Z</time>
      </trkpt>
      <trkpt lat="43.70879" lon="3.55568">
        <ele>80.800003051758</ele>
        <time>2023-05-24T12:12:51.000Z</time>
      </trkpt>
      <trkpt lat="43.70883" lon="3.5556">
        <ele>80.599998474121</ele>
        <time>2023-05-24T12:12:59.000Z</time>
      </trkpt>
      <trkpt lat="43.70884" lon="3.5556">
        <ele>80.599998474121</ele>
        <time>2023-05-24T12:13:00.000Z</time>
      </trkpt>
      <trkpt lat="43.70885" lon="3.55558">
        <ele>80.599998474121</ele>
        <time>2023-05-24T12:13:05.000Z</time>
      </trkpt>
      <trkpt lat="43.70889" lon="3.55554">
        <ele>80.400001525879</ele>
        <time>2023-05-24T12:13:11.000Z</time>
      </trkpt>
      <trkpt lat="43.70892" lon="3.55543">
        <ele>80.400001525879</ele>
        <time>2023-05-24T12:13:19.000Z</time>
      </trkpt>
      <trkpt lat="43.70894" lon="3.55535">
        <ele>80</ele>
        <time>2023-05-24T12:13:24.000Z</time>
      </trkpt>
      <trkpt lat="43.70896" lon="3.55532">
        <ele>80</ele>
        <time>2023-05-24T12:13:27.000Z</time>
      </trkpt>
      <trkpt lat="43.70896" lon="3.55525">
        <ele>80</ele>
        <time>2023-05-24T12:13:33.000Z</time>
      </trkpt>
      <trkpt lat="43.70897" lon="3.55524">
        <ele>80</ele>
        <time>2023-05-24T12:13:34.000Z</time>
      </trkpt>
      <trkpt lat="43.709" lon="3.55516">
        <ele>79.800003051758</ele>
        <time>2023-05-24T12:13:40.000Z</time>
      </trkpt>
      <trkpt lat="43.709" lon="3.55514">
        <ele>80</ele>
        <time>2023-05-24T12:13:41.000Z</time>
      </trkpt>
      <trkpt lat="43.70904" lon="3.55502">
        <ele>79.800003051758</ele>
        <time>2023-05-24T12:13:50.000Z</time>
      </trkpt>
      <trkpt lat="43.70906" lon="3.55493">
        <ele>79.599998474121</ele>
        <time>2023-05-24T12:13:57.000Z</time>
      </trkpt>
      <trkpt lat="43.70907" lon="3.55492">
        <ele>79.599998474121</ele>
        <time>2023-05-24T12:13:58.000Z</time>
      </trkpt>
      <trkpt lat="43.70911" lon="3.55478">
        <ele>79.599998474121</ele>
        <time>2023-05-24T12:14:08.000Z</time>
      </trkpt>
      <trkpt lat="43.70915" lon="3.55466">
        <ele>79.400001525879</ele>
        <time>2023-05-24T12:14:17.000Z</time>
      </trkpt>
      <trkpt lat="43.70917" lon="3.55463">
        <ele>79.400001525879</ele>
        <time>2023-05-24T12:14:21.000Z</time>
      </trkpt>
      <trkpt lat="43.70919" lon="3.5546">
        <ele>79.400001525879</ele>
        <time>2023-05-24T12:14:24.000Z</time>
      </trkpt>
      <trkpt lat="43.70919" lon="3.5546">
        <ele>79.400001525879</ele>
        <time>2023-05-24T12:14:30.000Z</time>
      </trkpt>
      <trkpt lat="43.7092" lon="3.55458">
        <ele>79.199996948242</ele>
        <time>2023-05-24T12:14:38.000Z</time>
      </trkpt>
      <trkpt lat="43.70923" lon="3.55451">
        <ele>79.199996948242</ele>
        <time>2023-05-24T12:14:45.000Z</time>
      </trkpt>
      <trkpt lat="43.70927" lon="3.55442">
        <ele>79.199996948242</ele>
        <time>2023-05-24T12:14:53.000Z</time>
      </trkpt>
      <trkpt lat="43.70933" lon="3.5543">
        <ele>79.599998474121</ele>
        <time>2023-05-24T12:15:03.000Z</time>
      </trkpt>
      <trkpt lat="43.70937" lon="3.55422">
        <ele>79.800003051758</ele>
        <time>2023-05-24T12:15:10.000Z</time>
      </trkpt>
      <trkpt lat="43.70938" lon="3.55419">
        <ele>79.800003051758</ele>
        <time>2023-05-24T12:15:12.000Z</time>
      </trkpt>
      <trkpt lat="43.70942" lon="3.55409">
        <ele>80</ele>
        <time>2023-05-24T12:15:20.000Z</time>
      </trkpt>
      <trkpt lat="43.70944" lon="3.55405">
        <ele>80.199996948242</ele>
        <time>2023-05-24T12:15:23.000Z</time>
      </trkpt>
      <trkpt lat="43.70946" lon="3.554">
        <ele>80.400001525879</ele>
        <time>2023-05-24T12:15:27.000Z</time>
      </trkpt>
      <trkpt lat="43.70948" lon="3.55394">
        <ele>80.400001525879</ele>
        <time>2023-05-24T12:15:32.000Z</time>
      </trkpt>
      <trkpt lat="43.70948" lon="3.55393">
        <ele>80.599998474121</ele>
        <time>2023-05-24T12:15:33.000Z</time>
      </trkpt>
      <trkpt lat="43.70949" lon="3.55391">
        <ele>80.599998474121</ele>
        <time>2023-05-24T12:15:35.000Z</time>
      </trkpt>
      <trkpt lat="43.70949" lon="3.55391">
        <ele>81</ele>
        <time>2023-05-24T12:15:39.000Z</time>
      </trkpt>
      <trkpt lat="43.70953" lon="3.55385">
        <ele>81.199996948242</ele>
        <time>2023-05-24T12:15:45.000Z</time>
      </trkpt>
      <trkpt lat="43.70956" lon="3.55376">
        <ele>81.400001525879</ele>
        <time>2023-05-24T12:15:52.000Z</time>
      </trkpt>
      <trkpt lat="43.70958" lon="3.55373">
        <ele>81.400001525879</ele>
        <time>2023-05-24T12:15:55.000Z</time>
      </trkpt>
      <trkpt lat="43.7096" lon="3.55369">
        <ele>81.599998474121</ele>
        <time>2023-05-24T12:15:58.000Z</time>
      </trkpt>
      <trkpt lat="43.70962" lon="3.55365">
        <ele>81.599998474121</ele>
        <time>2023-05-24T12:16:01.000Z</time>
      </trkpt>
      <trkpt lat="43.70963" lon="3.55363">
        <ele>81.599998474121</ele>
        <time>2023-05-24T12:16:03.000Z</time>
      </trkpt>
      <trkpt lat="43.70964" lon="3.55359">
        <ele>81.800003051758</ele>
        <time>2023-05-24T12:16:06.000Z</time>
      </trkpt>
      <trkpt lat="43.70965" lon="3.55354">
        <ele>81.800003051758</ele>
        <time>2023-05-24T12:16:09.000Z</time>
      </trkpt>
      <trkpt lat="43.70967" lon="3.55348">
        <ele>81.800003051758</ele>
        <time>2023-05-24T12:16:14.000Z</time>
      </trkpt>
      <trkpt lat="43.70969" lon="3.55346">
        <ele>82</ele>
        <time>2023-05-24T12:16:16.000Z</time>
      </trkpt>
      <trkpt lat="43.70972" lon="3.55339">
        <ele>82.199996948242</ele>
        <time>2023-05-24T12:16:21.000Z</time>
      </trkpt>
      <trkpt lat="43.70975" lon="3.55332">
        <ele>82.599998474121</ele>
        <time>2023-05-24T12:16:28.000Z</time>
      </trkpt>
      <trkpt lat="43.70975" lon="3.55331">
        <ele>82.800003051758</ele>
        <time>2023-05-24T12:16:29.000Z</time>
      </trkpt>
      <trkpt lat="43.70975" lon="3.55331">
        <ele>83</ele>
        <time>2023-05-24T12:16:33.000Z</time>
      </trkpt>
      <trkpt lat="43.7098" lon="3.55325">
        <ele>82.800003051758</ele>
        <time>2023-05-24T12:16:39.000Z</time>
      </trkpt>
      <trkpt lat="43.70982" lon="3.55322">
        <ele>83</ele>
        <time>2023-05-24T12:16:43.000Z</time>
      </trkpt>
      <trkpt lat="43.70982" lon="3.55321">
        <ele>83</ele>
        <time>2023-05-24T12:16:46.000Z</time>
      </trkpt>
      <trkpt lat="43.70982" lon="3.55321">
        <ele>83.199996948242</ele>
        <time>2023-05-24T12:16:54.000Z</time>
      </trkpt>
      <trkpt lat="43.70983" lon="3.5532">
        <ele>83.199996948242</ele>
        <time>2023-05-24T12:17:08.000Z</time>
      </trkpt>
      <trkpt lat="43.70983" lon="3.55321">
        <ele>82.800003051758</ele>
        <time>2023-05-24T12:17:16.000Z</time>
      </trkpt>
      <trkpt lat="43.70979" lon="3.55319">
        <ele>82.800003051758</ele>
        <time>2023-05-24T12:17:35.000Z</time>
      </trkpt>
      <trkpt lat="43.70979" lon="3.55319">
        <ele>83.199996948242</ele>
        <time>2023-05-24T12:17:45.000Z</time>
      </trkpt>
      <trkpt lat="43.70978" lon="3.55321">
        <ele>83.199996948242</ele>
        <time>2023-05-24T12:17:52.000Z</time>
      </trkpt>
      <trkpt lat="43.7098" lon="3.55321">
        <ele>82.800003051758</ele>
        <time>2023-05-24T12:18:00.000Z</time>
      </trkpt>
      <trkpt lat="43.70983" lon="3.55323">
        <ele>83.199996948242</ele>
        <time>2023-05-24T12:18:08.000Z</time>
      </trkpt>
      <trkpt lat="43.70983" lon="3.55323">
        <ele>83.199996948242</ele>
        <time>2023-05-24T12:18:16.000Z</time>
      </trkpt>
      <trkpt lat="43.70985" lon="3.55324">
        <ele>83.199996948242</ele>
        <time>2023-05-24T12:18:23.000Z</time>
      </trkpt>
      <trkpt lat="43.70986" lon="3.55321">
        <ele>83.400001525879</ele>
        <time>2023-05-24T12:18:29.000Z</time>
      </trkpt>
      <trkpt lat="43.70986" lon="3.55321">
        <ele>83</ele>
        <time>2023-05-24T12:18:36.000Z</time>
      </trkpt>
      <trkpt lat="43.70987" lon="3.55319">
        <ele>82.800003051758</ele>
        <time>2023-05-24T12:18:41.000Z</time>
      </trkpt>
      <trkpt lat="43.70991" lon="3.55318">
        <ele>83</ele>
        <time>2023-05-24T12:18:51.000Z</time>
      </trkpt>
      <trkpt lat="43.71001" lon="3.55309">
        <ele>83.400001525879</ele>
        <time>2023-05-24T12:19:01.000Z</time>
      </trkpt>
      <trkpt lat="43.71011" lon="3.55301">
        <ele>83.400001525879</ele>
        <time>2023-05-24T12:19:12.000Z</time>
      </trkpt>
      <trkpt lat="43.71018" lon="3.55294">
        <ele>83.400001525879</ele>
        <time>2023-05-24T12:19:20.000Z</time>
      </trkpt>
      <trkpt lat="43.71025" lon="3.55289">
        <ele>83.199996948242</ele>
        <time>2023-05-24T12:19:28.000Z</time>
      </trkpt>
      <trkpt lat="43.71032" lon="3.55284">
        <ele>83.199996948242</ele>
        <time>2023-05-24T12:19:35.000Z</time>
      </trkpt>
      <trkpt lat="43.7104" lon="3.5528">
        <ele>83</ele>
        <time>2023-05-24T12:19:43.000Z</time>
      </trkpt>
      <trkpt lat="43.71041" lon="3.55279">
        <ele>83</ele>
        <time>2023-05-24T12:19:44.000Z</time>
      </trkpt>
      <trkpt lat="43.71046" lon="3.55277">
        <ele>83.199996948242</ele>
        <time>2023-05-24T12:19:49.000Z</time>
      </trkpt>
      <trkpt lat="43.7105" lon="3.55275">
        <ele>83</ele>
        <time>2023-05-24T12:19:53.000Z</time>
      </trkpt>
      <trkpt lat="43.71058" lon="3.5527">
        <ele>83.199996948242</ele>
        <time>2023-05-24T12:20:01.000Z</time>
      </trkpt>
      <trkpt lat="43.71064" lon="3.55266">
        <ele>83</ele>
        <time>2023-05-24T12:20:08.000Z</time>
      </trkpt>
      <trkpt lat="43.71065" lon="3.55266">
        <ele>83</ele>
        <time>2023-05-24T12:20:09.000Z</time>
      </trkpt>
      <trkpt lat="43.71073" lon="3.55261">
        <ele>83</ele>
        <time>2023-05-24T12:20:17.000Z</time>
      </trkpt>
      <trkpt lat="43.71074" lon="3.5526">
        <ele>83.199996948242</ele>
        <time>2023-05-24T12:20:18.000Z</time>
      </trkpt>
      <trkpt lat="43.71082" lon="3.55257">
        <ele>83</ele>
        <time>2023-05-24T12:20:26.000Z</time>
      </trkpt>
      <trkpt lat="43.71094" lon="3.55252">
        <ele>83</ele>
        <time>2023-05-24T12:20:38.000Z</time>
      </trkpt>
      <trkpt lat="43.71103" lon="3.55247">
        <ele>83</ele>
        <time>2023-05-24T12:20:47.000Z</time>
      </trkpt>
      <trkpt lat="43.71108" lon="3.55246">
        <ele>83</ele>
        <time>2023-05-24T12:20:51.000Z</time>
      </trkpt>
      <trkpt lat="43.71111" lon="3.55244">
        <ele>83</ele>
        <time>2023-05-24T12:20:54.000Z</time>
      </trkpt>
      <trkpt lat="43.71119" lon="3.5524">
        <ele>83</ele>
        <time>2023-05-24T12:21:02.000Z</time>
      </trkpt>
      <trkpt lat="43.71129" lon="3.55236">
        <ele>83</ele>
        <time>2023-05-24T12:21:12.000Z</time>
      </trkpt>
      <trkpt lat="43.71137" lon="3.55233">
        <ele>83</ele>
        <time>2023-05-24T12:21:20.000Z</time>
      </trkpt>
      <trkpt lat="43.71143" lon="3.55232">
        <ele>83.199996948242</ele>
        <time>2023-05-24T12:21:26.000Z</time>
      </trkpt>
      <trkpt lat="43.71149" lon="3.55232">
        <ele>83.199996948242</ele>
        <time>2023-05-24T12:21:33.000Z</time>
      </trkpt>
      <trkpt lat="43.7115" lon="3.55231">
        <ele>83.199996948242</ele>
        <time>2023-05-24T12:21:34.000Z</time>
      </trkpt>
      <trkpt lat="43.71158" lon="3.5523">
        <ele>83.400001525879</ele>
        <time>2023-05-24T12:21:42.000Z</time>
      </trkpt>
      <trkpt lat="43.7116" lon="3.55231">
        <ele>83.400001525879</ele>
        <time>2023-05-24T12:21:49.000Z</time>
      </trkpt>
      <trkpt lat="43.71162" lon="3.5523">
        <ele>83.400001525879</ele>
        <time>2023-05-24T12:22:10.000Z</time>
      </trkpt>
      <trkpt lat="43.71162" lon="3.5523">
        <ele>80</ele>
        <time>2023-05-24T12:22:11.000Z</time>
      </trkpt>
      <trkpt lat="43.71162" lon="3.55229">
        <ele>83</ele>
        <time>2023-05-24T12:22:15.000Z</time>
      </trkpt>
      <trkpt lat="43.71162" lon="3.5523">
        <ele>83.199996948242</ele>
        <time>2023-05-24T12:22:21.000Z</time>
      </trkpt>
      <trkpt lat="43.71166" lon="3.55232">
        <ele>83.199996948242</ele>
        <time>2023-05-24T12:22:39.000Z</time>
      </trkpt>
      <trkpt lat="43.71172" lon="3.55232">
        <ele>83.400001525879</ele>
        <time>2023-05-24T12:22:44.000Z</time>
      </trkpt>
      <trkpt lat="43.71179" lon="3.55233">
        <ele>83.400001525879</ele>
        <time>2023-05-24T12:22:51.000Z</time>
      </trkpt>
      <trkpt lat="43.71188" lon="3.55235">
        <ele>83.599998474121</ele>
        <time>2023-05-24T12:22:59.000Z</time>
      </trkpt>
      <trkpt lat="43.71195" lon="3.55234">
        <ele>83.800003051758</ele>
        <time>2023-05-24T12:23:06.000Z</time>
      </trkpt>
      <trkpt lat="43.71196" lon="3.55235">
        <ele>83.800003051758</ele>
        <time>2023-05-24T12:23:07.000Z</time>
      </trkpt>
      <trkpt lat="43.71198" lon="3.55235">
        <ele>83.599998474121</ele>
        <time>2023-05-24T12:23:10.000Z</time>
      </trkpt>
      <trkpt lat="43.71201" lon="3.55235">
        <ele>83.800003051758</ele>
        <time>2023-05-24T12:23:13.000Z</time>
      </trkpt>
      <trkpt lat="43.71207" lon="3.55236">
        <ele>84</ele>
        <time>2023-05-24T12:23:18.000Z</time>
      </trkpt>
      <trkpt lat="43.71213" lon="3.55235">
        <ele>84</ele>
        <time>2023-05-24T12:23:25.000Z</time>
      </trkpt>
      <trkpt lat="43.71217" lon="3.55235">
        <ele>84</ele>
        <time>2023-05-24T12:23:29.000Z</time>
      </trkpt>
      <trkpt lat="43.71223" lon="3.55235">
        <ele>84.199996948242</ele>
        <time>2023-05-24T12:23:34.000Z</time>
      </trkpt>
      <trkpt lat="43.7123" lon="3.55234">
        <ele>84.400001525879</ele>
        <time>2023-05-24T12:23:41.000Z</time>
      </trkpt>
      <trkpt lat="43.71233" lon="3.55234">
        <ele>84.599998474121</ele>
        <time>2023-05-24T12:23:48.000Z</time>
      </trkpt>
      <trkpt lat="43.71239" lon="3.55235">
        <ele>84.599998474121</ele>
        <time>2023-05-24T12:23:56.000Z</time>
      </trkpt>
      <trkpt lat="43.71248" lon="3.55235">
        <ele>84.800003051758</ele>
        <time>2023-05-24T12:24:04.000Z</time>
      </trkpt>
      <trkpt lat="43.71254" lon="3.55236">
        <ele>84.800003051758</ele>
        <time>2023-05-24T12:24:09.000Z</time>
      </trkpt>
      <trkpt lat="43.71256" lon="3.55236">
        <ele>84.800003051758</ele>
        <time>2023-05-24T12:24:11.000Z</time>
      </trkpt>
      <trkpt lat="43.71265" lon="3.55238">
        <ele>84.800003051758</ele>
        <time>2023-05-24T12:24:19.000Z</time>
      </trkpt>
      <trkpt lat="43.71273" lon="3.55239">
        <ele>84.599998474121</ele>
        <time>2023-05-24T12:24:26.000Z</time>
      </trkpt>
      <trkpt lat="43.7128" lon="3.55241">
        <ele>84.400001525879</ele>
        <time>2023-05-24T12:24:33.000Z</time>
      </trkpt>
      <trkpt lat="43.71281" lon="3.55242">
        <ele>84.199996948242</ele>
        <time>2023-05-24T12:24:34.000Z</time>
      </trkpt>
      <trkpt lat="43.71287" lon="3.55244">
        <ele>84</ele>
        <time>2023-05-24T12:24:41.000Z</time>
      </trkpt>
      <trkpt lat="43.71288" lon="3.55245">
        <ele>84</ele>
        <time>2023-05-24T12:24:43.000Z</time>
      </trkpt>
      <trkpt lat="43.71289" lon="3.55245">
        <ele>83.599998474121</ele>
        <time>2023-05-24T12:24:50.000Z</time>
      </trkpt>
      <trkpt lat="43.71295" lon="3.55249">
        <ele>83.599998474121</ele>
        <time>2023-05-24T12:24:56.000Z</time>
      </trkpt>
      <trkpt lat="43.71305" lon="3.55258">
        <ele>83.199996948242</ele>
        <time>2023-05-24T12:25:06.000Z</time>
      </trkpt>
      <trkpt lat="43.71309" lon="3.5526">
        <ele>83</ele>
        <time>2023-05-24T12:25:10.000Z</time>
      </trkpt>
      <trkpt lat="43.71311" lon="3.55261">
        <ele>83</ele>
        <time>2023-05-24T12:25:12.000Z</time>
      </trkpt>
      <trkpt lat="43.7132" lon="3.55264">
        <ele>82.800003051758</ele>
        <time>2023-05-24T12:25:20.000Z</time>
      </trkpt>
      <trkpt lat="43.7133" lon="3.55266">
        <ele>82.599998474121</ele>
        <time>2023-05-24T12:25:30.000Z</time>
      </trkpt>
      <trkpt lat="43.71339" lon="3.55265">
        <ele>82.400001525879</ele>
        <time>2023-05-24T12:25:38.000Z</time>
      </trkpt>
      <trkpt lat="43.71345" lon="3.55264">
        <ele>82.400001525879</ele>
        <time>2023-05-24T12:25:45.000Z</time>
      </trkpt>
      <trkpt lat="43.71354" lon="3.55262">
        <ele>82.400001525879</ele>
        <time>2023-05-24T12:25:54.000Z</time>
      </trkpt>
      <trkpt lat="43.71363" lon="3.55259">
        <ele>82.400001525879</ele>
        <time>2023-05-24T12:26:04.000Z</time>
      </trkpt>
      <trkpt lat="43.71365" lon="3.55259">
        <ele>82.400001525879</ele>
        <time>2023-05-24T12:26:10.000Z</time>
      </trkpt>
      <trkpt lat="43.71373" lon="3.55256">
        <ele>82.599998474121</ele>
        <time>2023-05-24T12:26:17.000Z</time>
      </trkpt>
      <trkpt lat="43.71381" lon="3.55253">
        <ele>82.599998474121</ele>
        <time>2023-05-24T12:26:25.000Z</time>
      </trkpt>
      <trkpt lat="43.7139" lon="3.55251">
        <ele>82.599998474121</ele>
        <time>2023-05-24T12:26:33.000Z</time>
      </trkpt>
      <trkpt lat="43.71398" lon="3.5525">
        <ele>82.599998474121</ele>
        <time>2023-05-24T12:26:41.000Z</time>
      </trkpt>
      <trkpt lat="43.71406" lon="3.55247">
        <ele>82.800003051758</ele>
        <time>2023-05-24T12:26:48.000Z</time>
      </trkpt>
      <trkpt lat="43.71415" lon="3.55245">
        <ele>82.800003051758</ele>
        <time>2023-05-24T12:26:56.000Z</time>
      </trkpt>
      <trkpt lat="43.71423" lon="3.55243">
        <ele>82.800003051758</ele>
        <time>2023-05-24T12:27:03.000Z</time>
      </trkpt>
      <trkpt lat="43.71425" lon="3.55243">
        <ele>82.800003051758</ele>
        <time>2023-05-24T12:27:05.000Z</time>
      </trkpt>
      <trkpt lat="43.7143" lon="3.55243">
        <ele>82.800003051758</ele>
        <time>2023-05-24T12:27:09.000Z</time>
      </trkpt>
      <trkpt lat="43.71438" lon="3.55241">
        <ele>83</ele>
        <time>2023-05-24T12:27:16.000Z</time>
      </trkpt>
      <trkpt lat="43.71444" lon="3.5524">
        <ele>83</ele>
        <time>2023-05-24T12:27:22.000Z</time>
      </trkpt>
      <trkpt lat="43.71453" lon="3.55239">
        <ele>83.199996948242</ele>
        <time>2023-05-24T12:27:30.000Z</time>
      </trkpt>
      <trkpt lat="43.71463" lon="3.55237">
        <ele>83.199996948242</ele>
        <time>2023-05-24T12:27:39.000Z</time>
      </trkpt>
      <trkpt lat="43.71472" lon="3.55237">
        <ele>83.400001525879</ele>
        <time>2023-05-24T12:27:47.000Z</time>
      </trkpt>
      <trkpt lat="43.71481" lon="3.55236">
        <ele>83.400001525879</ele>
        <time>2023-05-24T12:27:56.000Z</time>
      </trkpt>
      <trkpt lat="43.7149" lon="3.55235">
        <ele>83.400001525879</ele>
        <time>2023-05-24T12:28:04.000Z</time>
      </trkpt>
      <trkpt lat="43.715" lon="3.55237">
        <ele>83.599998474121</ele>
        <time>2023-05-24T12:28:14.000Z</time>
      </trkpt>
      <trkpt lat="43.71503" lon="3.55237">
        <ele>83.800003051758</ele>
        <time>2023-05-24T12:28:17.000Z</time>
      </trkpt>
      <trkpt lat="43.71506" lon="3.55237">
        <ele>83.800003051758</ele>
        <time>2023-05-24T12:28:21.000Z</time>
      </trkpt>
      <trkpt lat="43.71513" lon="3.55237">
        <ele>84</ele>
        <time>2023-05-24T12:28:27.000Z</time>
      </trkpt>
      <trkpt lat="43.71515" lon="3.55237">
        <ele>84</ele>
        <time>2023-05-24T12:28:29.000Z</time>
      </trkpt>
      <trkpt lat="43.71516" lon="3.55237">
        <ele>84</ele>
        <time>2023-05-24T12:28:30.000Z</time>
      </trkpt>
      <trkpt lat="43.71522" lon="3.55237">
        <ele>84.199996948242</ele>
        <time>2023-05-24T12:28:35.000Z</time>
      </trkpt>
      <trkpt lat="43.71523" lon="3.55237">
        <ele>84.199996948242</ele>
        <time>2023-05-24T12:28:36.000Z</time>
      </trkpt>
      <trkpt lat="43.71531" lon="3.55236">
        <ele>84</ele>
        <time>2023-05-24T12:28:44.000Z</time>
      </trkpt>
      <trkpt lat="43.71542" lon="3.55236">
        <ele>84</ele>
        <time>2023-05-24T12:28:54.000Z</time>
      </trkpt>
      <trkpt lat="43.71551" lon="3.55237">
        <ele>84.199996948242</ele>
        <time>2023-05-24T12:29:02.000Z</time>
      </trkpt>
      <trkpt lat="43.71559" lon="3.55236">
        <ele>84</ele>
        <time>2023-05-24T12:29:09.000Z</time>
      </trkpt>
      <trkpt lat="43.7157" lon="3.55236">
        <ele>84.199996948242</ele>
        <time>2023-05-24T12:29:19.000Z</time>
      </trkpt>
      <trkpt lat="43.71576" lon="3.55236">
        <ele>84.199996948242</ele>
        <time>2023-05-24T12:29:27.000Z</time>
      </trkpt>
      <trkpt lat="43.71576" lon="3.55236">
        <ele>84.199996948242</ele>
        <time>2023-05-24T12:29:28.000Z</time>
      </trkpt>
      <trkpt lat="43.71581" lon="3.55235">
        <ele>84.199996948242</ele>
        <time>2023-05-24T12:29:33.000Z</time>
      </trkpt>
      <trkpt lat="43.71588" lon="3.55235">
        <ele>84.400001525879</ele>
        <time>2023-05-24T12:29:41.000Z</time>
      </trkpt>
      <trkpt lat="43.71595" lon="3.55234">
        <ele>84.400001525879</ele>
        <time>2023-05-24T12:29:48.000Z</time>
      </trkpt>
      <trkpt lat="43.71598" lon="3.55235">
        <ele>84.599998474121</ele>
        <time>2023-05-24T12:29:50.000Z</time>
      </trkpt>
      <trkpt lat="43.71606" lon="3.55236">
        <ele>84.800003051758</ele>
        <time>2023-05-24T12:29:58.000Z</time>
      </trkpt>
      <trkpt lat="43.71611" lon="3.55237">
        <ele>85</ele>
        <time>2023-05-24T12:30:02.000Z</time>
      </trkpt>
      <trkpt lat="43.71615" lon="3.55238">
        <ele>85.199996948242</ele>
        <time>2023-05-24T12:30:06.000Z</time>
      </trkpt>
      <trkpt lat="43.71624" lon="3.5524">
        <ele>85.599998474121</ele>
        <time>2023-05-24T12:30:14.000Z</time>
      </trkpt>
      <trkpt lat="43.71634" lon="3.55242">
        <ele>86.199996948242</ele>
        <time>2023-05-24T12:30:23.000Z</time>
      </trkpt>
      <trkpt lat="43.71645" lon="3.55244">
        <ele>86.800003051758</ele>
        <time>2023-05-24T12:30:33.000Z</time>
      </trkpt>
      <trkpt lat="43.71651" lon="3.55246">
        <ele>87.199996948242</ele>
        <time>2023-05-24T12:30:39.000Z</time>
      </trkpt>
      <trkpt lat="43.71656" lon="3.55247">
        <ele>87.199996948242</ele>
        <time>2023-05-24T12:30:43.000Z</time>
      </trkpt>
      <trkpt lat="43.71666" lon="3.55251">
        <ele>87.599998474121</ele>
        <time>2023-05-24T12:30:53.000Z</time>
      </trkpt>
      <trkpt lat="43.71676" lon="3.55256">
        <ele>87.800003051758</ele>
        <time>2023-05-24T12:31:02.000Z</time>
      </trkpt>
      <trkpt lat="43.71679" lon="3.55258">
        <ele>87.800003051758</ele>
        <time>2023-05-24T12:31:05.000Z</time>
      </trkpt>
      <trkpt lat="43.71679" lon="3.55258">
        <ele>87.800003051758</ele>
        <time>2023-05-24T12:31:09.000Z</time>
      </trkpt>
      <trkpt lat="43.71681" lon="3.5526">
        <ele>87.800003051758</ele>
        <time>2023-05-24T12:31:20.000Z</time>
      </trkpt>
      <trkpt lat="43.71681" lon="3.5526">
        <ele>88</ele>
        <time>2023-05-24T12:31:27.000Z</time>
      </trkpt>
      <trkpt lat="43.71682" lon="3.55261">
        <ele>87.400001525879</ele>
        <time>2023-05-24T12:31:34.000Z</time>
      </trkpt>
      <trkpt lat="43.71682" lon="3.55261">
        <ele>87.800003051758</ele>
        <time>2023-05-24T12:31:40.000Z</time>
      </trkpt>
      <trkpt lat="43.71682" lon="3.55262">
        <ele>87.599998474121</ele>
        <time>2023-05-24T12:31:48.000Z</time>
      </trkpt>
      <trkpt lat="43.71682" lon="3.55262">
        <ele>87.400001525879</ele>
        <time>2023-05-24T12:31:59.000Z</time>
      </trkpt>
      <trkpt lat="43.71683" lon="3.55263">
        <ele>87.599998474121</ele>
        <time>2023-05-24T12:32:08.000Z</time>
      </trkpt>
      <trkpt lat="43.71683" lon="3.55264">
        <ele>87.400001525879</ele>
        <time>2023-05-24T12:32:16.000Z</time>
      </trkpt>
      <trkpt lat="43.71682" lon="3.55264">
        <ele>87.800003051758</ele>
        <time>2023-05-24T12:32:25.000Z</time>
      </trkpt>
      <trkpt lat="43.71682" lon="3.55263">
        <ele>83.199996948242</ele>
        <time>2023-05-24T12:32:27.000Z</time>
      </trkpt>
      <trkpt lat="43.71682" lon="3.55263">
        <ele>85</ele>
        <time>2023-05-24T12:32:28.000Z</time>
      </trkpt>
      <trkpt lat="43.71681" lon="3.55263">
        <ele>87.599998474121</ele>
        <time>2023-05-24T12:32:32.000Z</time>
      </trkpt>
      <trkpt lat="43.71681" lon="3.55263">
        <ele>90.199996948242</ele>
        <time>2023-05-24T12:32:33.000Z</time>
      </trkpt>
      <trkpt lat="43.71681" lon="3.55263">
        <ele>87.599998474121</ele>
        <time>2023-05-24T12:32:34.000Z</time>
      </trkpt>
      <trkpt lat="43.71681" lon="3.55263">
        <ele>87.599998474121</ele>
        <time>2023-05-24T12:32:35.000Z</time>
      </trkpt>
      <trkpt lat="43.71681" lon="3.55263">
        <ele>88</ele>
        <time>2023-05-24T12:32:50.000Z</time>
      </trkpt>
      <trkpt lat="43.71682" lon="3.55264">
        <ele>87.400001525879</ele>
        <time>2023-05-24T12:33:02.000Z</time>
      </trkpt>
      <trkpt lat="43.71681" lon="3.55262">
        <ele>87</ele>
        <time>2023-05-24T12:33:14.000Z</time>
      </trkpt>
      <trkpt lat="43.7168" lon="3.55261">
        <ele>87.599998474121</ele>
        <time>2023-05-24T12:33:24.000Z</time>
      </trkpt>
      <trkpt lat="43.71679" lon="3.55261">
        <ele>87.199996948242</ele>
        <time>2023-05-24T12:33:37.000Z</time>
      </trkpt>
      <trkpt lat="43.7168" lon="3.5526">
        <ele>87.199996948242</ele>
        <time>2023-05-24T12:33:46.000Z</time>
      </trkpt>
      <trkpt lat="43.7168" lon="3.5526">
        <ele>87.599998474121</ele>
        <time>2023-05-24T12:33:52.000Z</time>
      </trkpt>
      <trkpt lat="43.71681" lon="3.55261">
        <ele>87.400001525879</ele>
        <time>2023-05-24T12:34:00.000Z</time>
      </trkpt>
      <trkpt lat="43.71681" lon="3.55261">
        <ele>87.800003051758</ele>
        <time>2023-05-24T12:34:06.000Z</time>
      </trkpt>
      <trkpt lat="43.71681" lon="3.55261">
        <ele>98.199996948242</ele>
        <time>2023-05-24T12:34:09.000Z</time>
      </trkpt>
      <trkpt lat="43.71681" lon="3.55261">
        <ele>96.800003051758</ele>
        <time>2023-05-24T12:34:10.000Z</time>
      </trkpt>
      <trkpt lat="43.71681" lon="3.55261">
        <ele>83.400001525879</ele>
        <time>2023-05-24T12:34:11.000Z</time>
      </trkpt>
      <trkpt lat="43.71681" lon="3.55262">
        <ele>73</ele>
        <time>2023-05-24T12:34:14.000Z</time>
      </trkpt>
      <trkpt lat="43.71681" lon="3.55262">
        <ele>74.199996948242</ele>
        <time>2023-05-24T12:34:15.000Z</time>
      </trkpt>
      <trkpt lat="43.71681" lon="3.55262">
        <ele>87.400001525879</ele>
        <time>2023-05-24T12:34:16.000Z</time>
      </trkpt>
      <trkpt lat="43.71681" lon="3.55262">
        <ele>83</ele>
        <time>2023-05-24T12:34:17.000Z</time>
      </trkpt>
      <trkpt lat="43.71681" lon="3.55263">
        <ele>83</ele>
        <time>2023-05-24T12:34:20.000Z</time>
      </trkpt>
      <trkpt lat="43.71679" lon="3.55266">
        <ele>81.800003051758</ele>
        <time>2023-05-24T12:34:33.000Z</time>
      </trkpt>
      <trkpt lat="43.71679" lon="3.55267">
        <ele>81.400001525879</ele>
        <time>2023-05-24T12:34:41.000Z</time>
      </trkpt>
      <trkpt lat="43.71678" lon="3.55266">
        <ele>83</ele>
        <time>2023-05-24T12:34:46.000Z</time>
      </trkpt>
      <trkpt lat="43.71678" lon="3.55266">
        <ele>83.199996948242</ele>
        <time>2023-05-24T12:34:52.000Z</time>
      </trkpt>
      <trkpt lat="43.71679" lon="3.55266">
        <ele>82</ele>
        <time>2023-05-24T12:35:04.000Z</time>
      </trkpt>
      <trkpt lat="43.71679" lon="3.55266">
        <ele>81.400001525879</ele>
        <time>2023-05-24T12:35:07.000Z</time>
      </trkpt>
      <trkpt lat="43.71679" lon="3.55266">
        <ele>81</ele>
        <time>2023-05-24T12:35:11.000Z</time>
      </trkpt>
      <trkpt lat="43.71679" lon="3.55265">
        <ele>82</ele>
        <time>2023-05-24T12:35:26.000Z</time>
      </trkpt>
      <trkpt lat="43.71679" lon="3.55264">
        <ele>82.199996948242</ele>
        <time>2023-05-24T12:35:27.000Z</time>
      </trkpt>
      <trkpt lat="43.71678" lon="3.55264">
        <ele>83.199996948242</ele>
        <time>2023-05-24T12:35:32.000Z</time>
      </trkpt>
      <trkpt lat="43.71678" lon="3.55263">
        <ele>84.199996948242</ele>
        <time>2023-05-24T12:35:40.000Z</time>
      </trkpt>
      <trkpt lat="43.71678" lon="3.55263">
        <ele>84.800003051758</ele>
        <time>2023-05-24T12:35:45.000Z</time>
      </trkpt>
      <trkpt lat="43.71678" lon="3.55263">
        <ele>85.400001525879</ele>
        <time>2023-05-24T12:35:48.000Z</time>
      </trkpt>
      <trkpt lat="43.71678" lon="3.55263">
        <ele>86.400001525879</ele>
        <time>2023-05-24T12:35:52.000Z</time>
      </trkpt>
      <trkpt lat="43.71679" lon="3.55264">
        <ele>86.599998474121</ele>
        <time>2023-05-24T12:35:53.000Z</time>
      </trkpt>
      <trkpt lat="43.71678" lon="3.55264">
        <ele>87.400001525879</ele>
        <time>2023-05-24T12:35:58.000Z</time>
      </trkpt>
      <trkpt lat="43.71678" lon="3.55267">
        <ele>88</ele>
        <time>2023-05-24T12:36:07.000Z</time>
      </trkpt>
      <trkpt lat="43.71678" lon="3.55268">
        <ele>87.800003051758</ele>
        <time>2023-05-24T12:36:20.000Z</time>
      </trkpt>
      <trkpt lat="43.71679" lon="3.55267">
        <ele>87.800003051758</ele>
        <time>2023-05-24T12:36:35.000Z</time>
      </trkpt>
      <trkpt lat="43.7168" lon="3.55266">
        <ele>87.400001525879</ele>
        <time>2023-05-24T12:36:43.000Z</time>
      </trkpt>
      <trkpt lat="43.7168" lon="3.55266">
        <ele>87</ele>
        <time>2023-05-24T12:37:03.000Z</time>
      </trkpt>
      <trkpt lat="43.7168" lon="3.55266">
        <ele>87.199996948242</ele>
        <time>2023-05-24T12:37:26.000Z</time>
      </trkpt>
      <trkpt lat="43.71679" lon="3.55266">
        <ele>87.400001525879</ele>
        <time>2023-05-24T12:37:40.000Z</time>
      </trkpt>
      <trkpt lat="43.71679" lon="3.55266">
        <ele>87.400001525879</ele>
        <time>2023-05-24T12:37:56.000Z</time>
      </trkpt>
      <trkpt lat="43.7168" lon="3.55267">
        <ele>87.400001525879</ele>
        <time>2023-05-24T12:38:24.000Z</time>
      </trkpt>
      <trkpt lat="43.7168" lon="3.55266">
        <ele>87.199996948242</ele>
        <time>2023-05-24T12:38:51.000Z</time>
      </trkpt>
      <trkpt lat="43.71681" lon="3.55267">
        <ele>87.199996948242</ele>
        <time>2023-05-24T12:39:05.000Z</time>
      </trkpt>
      <trkpt lat="43.71681" lon="3.55267">
        <ele>87.400001525879</ele>
        <time>2023-05-24T12:39:17.000Z</time>
      </trkpt>
      <trkpt lat="43.7168" lon="3.55266">
        <ele>87.599998474121</ele>
        <time>2023-05-24T12:39:37.000Z</time>
      </trkpt>
      <trkpt lat="43.7168" lon="3.55263">
        <ele>87.599998474121</ele>
        <time>2023-05-24T12:39:56.000Z</time>
      </trkpt>
      <trkpt lat="43.7168" lon="3.55262">
        <ele>88.199996948242</ele>
        <time>2023-05-24T12:40:03.000Z</time>
      </trkpt>
      <trkpt lat="43.7168" lon="3.55263">
        <ele>88.800003051758</ele>
        <time>2023-05-24T12:40:12.000Z</time>
      </trkpt>
      <trkpt lat="43.7168" lon="3.55262">
        <ele>91.599998474121</ele>
        <time>2023-05-24T12:40:13.000Z</time>
      </trkpt>
      <trkpt lat="43.71681" lon="3.55263">
        <ele>91.400001525879</ele>
        <time>2023-05-24T12:40:16.000Z</time>
      </trkpt>
      <trkpt lat="43.71681" lon="3.55263">
        <ele>88.199996948242</ele>
        <time>2023-05-24T12:40:18.000Z</time>
      </trkpt>
      <trkpt lat="43.71681" lon="3.55263">
        <ele>88.599998474121</ele>
        <time>2023-05-24T12:40:29.000Z</time>
      </trkpt>
      <trkpt lat="43.71684" lon="3.55264">
        <ele>88.199996948242</ele>
        <time>2023-05-24T12:40:37.000Z</time>
      </trkpt>
      <trkpt lat="43.71692" lon="3.55267">
        <ele>88.199996948242</ele>
        <time>2023-05-24T12:40:45.000Z</time>
      </trkpt>
      <trkpt lat="43.71699" lon="3.55272">
        <ele>88</ele>
        <time>2023-05-24T12:40:53.000Z</time>
      </trkpt>
      <trkpt lat="43.71709" lon="3.55279">
        <ele>88.199996948242</ele>
        <time>2023-05-24T12:41:03.000Z</time>
      </trkpt>
      <trkpt lat="43.71717" lon="3.55286">
        <ele>88</ele>
        <time>2023-05-24T12:41:10.000Z</time>
      </trkpt>
      <trkpt lat="43.71725" lon="3.55293">
        <ele>87.800003051758</ele>
        <time>2023-05-24T12:41:19.000Z</time>
      </trkpt>
      <trkpt lat="43.71726" lon="3.55293">
        <ele>87.599998474121</ele>
        <time>2023-05-24T12:41:20.000Z</time>
      </trkpt>
      <trkpt lat="43.71731" lon="3.55297">
        <ele>87.400001525879</ele>
        <time>2023-05-24T12:41:25.000Z</time>
      </trkpt>
      <trkpt lat="43.71738" lon="3.55302">
        <ele>87</ele>
        <time>2023-05-24T12:41:31.000Z</time>
      </trkpt>
      <trkpt lat="43.7174" lon="3.55304">
        <ele>86.800003051758</ele>
        <time>2023-05-24T12:41:33.000Z</time>
      </trkpt>
      <trkpt lat="43.71749" lon="3.5531">
        <ele>86.199996948242</ele>
        <time>2023-05-24T12:41:41.000Z</time>
      </trkpt>
      <trkpt lat="43.71756" lon="3.55313">
        <ele>86</ele>
        <time>2023-05-24T12:41:47.000Z</time>
      </trkpt>
      <trkpt lat="43.71761" lon="3.55315">
        <ele>85.599998474121</ele>
        <time>2023-05-24T12:41:52.000Z</time>
      </trkpt>
      <trkpt lat="43.71765" lon="3.5532">
        <ele>85.400001525879</ele>
        <time>2023-05-24T12:42:00.000Z</time>
      </trkpt>
      <trkpt lat="43.71767" lon="3.55319">
        <ele>85.599998474121</ele>
        <time>2023-05-24T12:42:06.000Z</time>
      </trkpt>
      <trkpt lat="43.71774" lon="3.5532">
        <ele>85.199996948242</ele>
        <time>2023-05-24T12:42:12.000Z</time>
      </trkpt>
      <trkpt lat="43.71787" lon="3.55325">
        <ele>85.199996948242</ele>
        <time>2023-05-24T12:42:23.000Z</time>
      </trkpt>
      <trkpt lat="43.71798" lon="3.55329">
        <ele>85.199996948242</ele>
        <time>2023-05-24T12:42:32.000Z</time>
      </trkpt>
      <trkpt lat="43.71806" lon="3.55333">
        <ele>85</ele>
        <time>2023-05-24T12:42:39.000Z</time>
      </trkpt>
      <trkpt lat="43.71809" lon="3.55334">
        <ele>85</ele>
        <time>2023-05-24T12:42:42.000Z</time>
      </trkpt>
      <trkpt lat="43.7182" lon="3.55338">
        <ele>85</ele>
        <time>2023-05-24T12:42:51.000Z</time>
      </trkpt>
      <trkpt lat="43.71831" lon="3.55342">
        <ele>85</ele>
        <time>2023-05-24T12:43:01.000Z</time>
      </trkpt>
      <trkpt lat="43.71841" lon="3.55343">
        <ele>85</ele>
        <time>2023-05-24T12:43:09.000Z</time>
      </trkpt>
      <trkpt lat="43.71853" lon="3.55345">
        <ele>85</ele>
        <time>2023-05-24T12:43:19.000Z</time>
      </trkpt>
      <trkpt lat="43.71863" lon="3.55348">
        <ele>85</ele>
        <time>2023-05-24T12:43:28.000Z</time>
      </trkpt>
      <trkpt lat="43.71863" lon="3.55348">
        <ele>85</ele>
        <time>2023-05-24T12:43:29.000Z</time>
      </trkpt>
      <trkpt lat="43.71867" lon="3.55349">
        <ele>85</ele>
        <time>2023-05-24T12:43:33.000Z</time>
      </trkpt>
      <trkpt lat="43.71879" lon="3.55349">
        <ele>85</ele>
        <time>2023-05-24T12:43:43.000Z</time>
      </trkpt>
      <trkpt lat="43.71889" lon="3.55349">
        <ele>84.800003051758</ele>
        <time>2023-05-24T12:43:52.000Z</time>
      </trkpt>
      <trkpt lat="43.71901" lon="3.55349">
        <ele>84.800003051758</ele>
        <time>2023-05-24T12:44:02.000Z</time>
      </trkpt>
      <trkpt lat="43.71913" lon="3.55349">
        <ele>85</ele>
        <time>2023-05-24T12:44:12.000Z</time>
      </trkpt>
      <trkpt lat="43.71926" lon="3.55349">
        <ele>85</ele>
        <time>2023-05-24T12:44:23.000Z</time>
      </trkpt>
      <trkpt lat="43.71942" lon="3.5535">
        <ele>85.400001525879</ele>
        <time>2023-05-24T12:44:36.000Z</time>
      </trkpt>
      <trkpt lat="43.7195" lon="3.55351">
        <ele>85.400001525879</ele>
        <time>2023-05-24T12:44:43.000Z</time>
      </trkpt>
      <trkpt lat="43.7196" lon="3.55353">
        <ele>85.599998474121</ele>
        <time>2023-05-24T12:44:52.000Z</time>
      </trkpt>
      <trkpt lat="43.71968" lon="3.55353">
        <ele>85.800003051758</ele>
        <time>2023-05-24T12:44:59.000Z</time>
      </trkpt>
      <trkpt lat="43.71976" lon="3.55353">
        <ele>85.800003051758</ele>
        <time>2023-05-24T12:45:06.000Z</time>
      </trkpt>
      <trkpt lat="43.71979" lon="3.55353">
        <ele>86</ele>
        <time>2023-05-24T12:45:09.000Z</time>
      </trkpt>
      <trkpt lat="43.7198" lon="3.55354">
        <ele>86</ele>
        <time>2023-05-24T12:45:11.000Z</time>
      </trkpt>
      <trkpt lat="43.7198" lon="3.55354">
        <ele>86.199996948242</ele>
        <time>2023-05-24T12:45:13.000Z</time>
      </trkpt>
      <trkpt lat="43.71986" lon="3.55354">
        <ele>86.400001525879</ele>
        <time>2023-05-24T12:45:19.000Z</time>
      </trkpt>
      <trkpt lat="43.71992" lon="3.55354">
        <ele>86.599998474121</ele>
        <time>2023-05-24T12:45:25.000Z</time>
      </trkpt>
      <trkpt lat="43.72002" lon="3.55355">
        <ele>86.400001525879</ele>
        <time>2023-05-24T12:45:33.000Z</time>
      </trkpt>
      <trkpt lat="43.72003" lon="3.55355">
        <ele>86.599998474121</ele>
        <time>2023-05-24T12:45:34.000Z</time>
      </trkpt>
      <trkpt lat="43.72012" lon="3.55356">
        <ele>86.599998474121</ele>
        <time>2023-05-24T12:45:42.000Z</time>
      </trkpt>
      <trkpt lat="43.72023" lon="3.55358">
        <ele>86.800003051758</ele>
        <time>2023-05-24T12:45:53.000Z</time>
      </trkpt>
      <trkpt lat="43.7203" lon="3.5536">
        <ele>87</ele>
        <time>2023-05-24T12:46:01.000Z</time>
      </trkpt>
      <trkpt lat="43.7203" lon="3.5536">
        <ele>87.199996948242</ele>
        <time>2023-05-24T12:46:02.000Z</time>
      </trkpt>
      <trkpt lat="43.7203" lon="3.5536">
        <ele>87.599998474121</ele>
        <time>2023-05-24T12:46:17.000Z</time>
      </trkpt>
      <trkpt lat="43.72031" lon="3.55361">
        <ele>87.599998474121</ele>
        <time>2023-05-24T12:46:28.000Z</time>
      </trkpt>
      <trkpt lat="43.72037" lon="3.5536">
        <ele>87.400001525879</ele>
        <time>2023-05-24T12:46:34.000Z</time>
      </trkpt>
      <trkpt lat="43.72045" lon="3.5536">
        <ele>90</ele>
        <time>2023-05-24T12:46:42.000Z</time>
      </trkpt>
      <trkpt lat="43.7205" lon="3.5536">
        <ele>87.599998474121</ele>
        <time>2023-05-24T12:46:47.000Z</time>
      </trkpt>
      <trkpt lat="43.72057" lon="3.55359">
        <ele>87.800003051758</ele>
        <time>2023-05-24T12:46:53.000Z</time>
      </trkpt>
      <trkpt lat="43.7207" lon="3.55357">
        <ele>88.199996948242</ele>
        <time>2023-05-24T12:47:04.000Z</time>
      </trkpt>
      <trkpt lat="43.72073" lon="3.55356">
        <ele>88.400001525879</ele>
        <time>2023-05-24T12:47:09.000Z</time>
      </trkpt>
      <trkpt lat="43.72074" lon="3.55355">
        <ele>88.400001525879</ele>
        <time>2023-05-24T12:47:10.000Z</time>
      </trkpt>
      <trkpt lat="43.72079" lon="3.55354">
        <ele>88.599998474121</ele>
        <time>2023-05-24T12:47:16.000Z</time>
      </trkpt>
      <trkpt lat="43.72081" lon="3.55353">
        <ele>88.599998474121</ele>
        <time>2023-05-24T12:47:18.000Z</time>
      </trkpt>
      <trkpt lat="43.72085" lon="3.55351">
        <ele>88.800003051758</ele>
        <time>2023-05-24T12:47:22.000Z</time>
      </trkpt>
      <trkpt lat="43.72087" lon="3.5535">
        <ele>88.800003051758</ele>
        <time>2023-05-24T12:47:24.000Z</time>
      </trkpt>
      <trkpt lat="43.7209" lon="3.55348">
        <ele>89</ele>
        <time>2023-05-24T12:47:27.000Z</time>
      </trkpt>
      <trkpt lat="43.72095" lon="3.55347">
        <ele>89.199996948242</ele>
        <time>2023-05-24T12:47:32.000Z</time>
      </trkpt>
      <trkpt lat="43.72096" lon="3.55347">
        <ele>89.400001525879</ele>
        <time>2023-05-24T12:47:33.000Z</time>
      </trkpt>
      <trkpt lat="43.721" lon="3.55346">
        <ele>89.599998474121</ele>
        <time>2023-05-24T12:47:37.000Z</time>
      </trkpt>
      <trkpt lat="43.72101" lon="3.55345">
        <ele>89.800003051758</ele>
        <time>2023-05-24T12:47:39.000Z</time>
      </trkpt>
      <trkpt lat="43.72104" lon="3.55343">
        <ele>90</ele>
        <time>2023-05-24T12:47:45.000Z</time>
      </trkpt>
      <trkpt lat="43.72112" lon="3.5534">
        <ele>90.400001525879</ele>
        <time>2023-05-24T12:47:52.000Z</time>
      </trkpt>
      <trkpt lat="43.72116" lon="3.55338">
        <ele>90.599998474121</ele>
        <time>2023-05-24T12:47:56.000Z</time>
      </trkpt>
      <trkpt lat="43.72121" lon="3.55336">
        <ele>91</ele>
        <time>2023-05-24T12:48:01.000Z</time>
      </trkpt>
      <trkpt lat="43.72129" lon="3.55333">
        <ele>91.400001525879</ele>
        <time>2023-05-24T12:48:09.000Z</time>
      </trkpt>
      <trkpt lat="43.72131" lon="3.55333">
        <ele>91.800003051758</ele>
        <time>2023-05-24T12:48:11.000Z</time>
      </trkpt>
      <trkpt lat="43.72138" lon="3.55329">
        <ele>90.800003051758</ele>
        <time>2023-05-24T12:48:17.000Z</time>
      </trkpt>
      <trkpt lat="43.72148" lon="3.55325">
        <ele>91.599998474121</ele>
        <time>2023-05-24T12:48:26.000Z</time>
      </trkpt>
      <trkpt lat="43.72151" lon="3.55325">
        <ele>93.400001525879</ele>
        <time>2023-05-24T12:48:28.000Z</time>
      </trkpt>
      <trkpt lat="43.72156" lon="3.55322">
        <ele>91.800003051758</ele>
        <time>2023-05-24T12:48:33.000Z</time>
      </trkpt>
      <trkpt lat="43.72157" lon="3.55322">
        <ele>91.800003051758</ele>
        <time>2023-05-24T12:48:34.000Z</time>
      </trkpt>
      <trkpt lat="43.72165" lon="3.5532">
        <ele>91.199996948242</ele>
        <time>2023-05-24T12:48:42.000Z</time>
      </trkpt>
      <trkpt lat="43.7217" lon="3.55318">
        <ele>90.800003051758</ele>
        <time>2023-05-24T12:48:48.000Z</time>
      </trkpt>
      <trkpt lat="43.72169" lon="3.55318">
        <ele>90.800003051758</ele>
        <time>2023-05-24T12:48:49.000Z</time>
      </trkpt>
      <trkpt lat="43.72175" lon="3.55315">
        <ele>90.599998474121</ele>
        <time>2023-05-24T12:48:55.000Z</time>
      </trkpt>
      <trkpt lat="43.72182" lon="3.55312">
        <ele>90.199996948242</ele>
        <time>2023-05-24T12:49:03.000Z</time>
      </trkpt>
      <trkpt lat="43.72192" lon="3.55308">
        <ele>90</ele>
        <time>2023-05-24T12:49:11.000Z</time>
      </trkpt>
      <trkpt lat="43.72198" lon="3.55307">
        <ele>89.800003051758</ele>
        <time>2023-05-24T12:49:16.000Z</time>
      </trkpt>
      <trkpt lat="43.722" lon="3.55306">
        <ele>89.599998474121</ele>
        <time>2023-05-24T12:49:18.000Z</time>
      </trkpt>
      <trkpt lat="43.72208" lon="3.55305">
        <ele>89.400001525879</ele>
        <time>2023-05-24T12:49:25.000Z</time>
      </trkpt>
      <trkpt lat="43.72218" lon="3.55303">
        <ele>89.199996948242</ele>
        <time>2023-05-24T12:49:34.000Z</time>
      </trkpt>
      <trkpt lat="43.72226" lon="3.55303">
        <ele>88.800003051758</ele>
        <time>2023-05-24T12:49:41.000Z</time>
      </trkpt>
      <trkpt lat="43.72234" lon="3.55302">
        <ele>88.599998474121</ele>
        <time>2023-05-24T12:49:48.000Z</time>
      </trkpt>
      <trkpt lat="43.72235" lon="3.55302">
        <ele>88.599998474121</ele>
        <time>2023-05-24T12:49:49.000Z</time>
      </trkpt>
      <trkpt lat="43.7224" lon="3.55302">
        <ele>88.599998474121</ele>
        <time>2023-05-24T12:49:54.000Z</time>
      </trkpt>
      <trkpt lat="43.7224" lon="3.55301">
        <ele>88.800003051758</ele>
        <time>2023-05-24T12:49:56.000Z</time>
      </trkpt>
      <trkpt lat="43.72241" lon="3.55301">
        <ele>88.800003051758</ele>
        <time>2023-05-24T12:49:58.000Z</time>
      </trkpt>
      <trkpt lat="43.72245" lon="3.553">
        <ele>89</ele>
        <time>2023-05-24T12:50:01.000Z</time>
      </trkpt>
      <trkpt lat="43.72255" lon="3.55295">
        <ele>88.800003051758</ele>
        <time>2023-05-24T12:50:10.000Z</time>
      </trkpt>
      <trkpt lat="43.72256" lon="3.55295">
        <ele>88.800003051758</ele>
        <time>2023-05-24T12:50:12.000Z</time>
      </trkpt>
      <trkpt lat="43.72258" lon="3.55294">
        <ele>88.800003051758</ele>
        <time>2023-05-24T12:50:15.000Z</time>
      </trkpt>
      <trkpt lat="43.72266" lon="3.5529">
        <ele>89.199996948242</ele>
        <time>2023-05-24T12:50:23.000Z</time>
      </trkpt>
      <trkpt lat="43.72274" lon="3.55286">
        <ele>89.400001525879</ele>
        <time>2023-05-24T12:50:31.000Z</time>
      </trkpt>
      <trkpt lat="43.72277" lon="3.55285">
        <ele>86.800003051758</ele>
        <time>2023-05-24T12:50:34.000Z</time>
      </trkpt>
      <trkpt lat="43.72281" lon="3.55284">
        <ele>88.800003051758</ele>
        <time>2023-05-24T12:50:38.000Z</time>
      </trkpt>
      <trkpt lat="43.72281" lon="3.55284">
        <ele>90.199996948242</ele>
        <time>2023-05-24T12:50:39.000Z</time>
      </trkpt>
      <trkpt lat="43.72285" lon="3.55281">
        <ele>88.199996948242</ele>
        <time>2023-05-24T12:50:43.000Z</time>
      </trkpt>
      <trkpt lat="43.72287" lon="3.55279">
        <ele>86.800003051758</ele>
        <time>2023-05-24T12:50:45.000Z</time>
      </trkpt>
      <trkpt lat="43.72288" lon="3.55278">
        <ele>85.599998474121</ele>
        <time>2023-05-24T12:50:46.000Z</time>
      </trkpt>
      <trkpt lat="43.7229" lon="3.55276">
        <ele>86.599998474121</ele>
        <time>2023-05-24T12:50:48.000Z</time>
      </trkpt>
      <trkpt lat="43.72293" lon="3.55275">
        <ele>88.400001525879</ele>
        <time>2023-05-24T12:50:52.000Z</time>
      </trkpt>
      <trkpt lat="43.72294" lon="3.55274">
        <ele>88.400001525879</ele>
        <time>2023-05-24T12:50:53.000Z</time>
      </trkpt>
      <trkpt lat="43.723" lon="3.55268">
        <ele>88.199996948242</ele>
        <time>2023-05-24T12:51:01.000Z</time>
      </trkpt>
      <trkpt lat="43.72308" lon="3.55259">
        <ele>88.199996948242</ele>
        <time>2023-05-24T12:51:10.000Z</time>
      </trkpt>
      <trkpt lat="43.72317" lon="3.55249">
        <ele>88.199996948242</ele>
        <time>2023-05-24T12:51:19.000Z</time>
      </trkpt>
      <trkpt lat="43.72318" lon="3.55248">
        <ele>88.199996948242</ele>
        <time>2023-05-24T12:51:21.000Z</time>
      </trkpt>
      <trkpt lat="43.72319" lon="3.55246">
        <ele>88</ele>
        <time>2023-05-24T12:51:24.000Z</time>
      </trkpt>
      <trkpt lat="43.7232" lon="3.55244">
        <ele>88.199996948242</ele>
        <time>2023-05-24T12:51:28.000Z</time>
      </trkpt>
      <trkpt lat="43.7233" lon="3.55232">
        <ele>88.199996948242</ele>
        <time>2023-05-24T12:51:38.000Z</time>
      </trkpt>
      <trkpt lat="43.72337" lon="3.55223">
        <ele>88.199996948242</ele>
        <time>2023-05-24T12:51:46.000Z</time>
      </trkpt>
      <trkpt lat="43.72345" lon="3.55212">
        <ele>88.400001525879</ele>
        <time>2023-05-24T12:51:55.000Z</time>
      </trkpt>
      <trkpt lat="43.7235" lon="3.55203">
        <ele>88</ele>
        <time>2023-05-24T12:52:03.000Z</time>
      </trkpt>
      <trkpt lat="43.72356" lon="3.55193">
        <ele>88</ele>
        <time>2023-05-24T12:52:12.000Z</time>
      </trkpt>
      <trkpt lat="43.7236" lon="3.55185">
        <ele>88</ele>
        <time>2023-05-24T12:52:19.000Z</time>
      </trkpt>
      <trkpt lat="43.72365" lon="3.55173">
        <ele>88</ele>
        <time>2023-05-24T12:52:29.000Z</time>
      </trkpt>
      <trkpt lat="43.72369" lon="3.55163">
        <ele>88</ele>
        <time>2023-05-24T12:52:35.000Z</time>
      </trkpt>
      <trkpt lat="43.72376" lon="3.55152">
        <ele>87.800003051758</ele>
        <time>2023-05-24T12:52:43.000Z</time>
      </trkpt>
      <trkpt lat="43.72381" lon="3.55142">
        <ele>87.599998474121</ele>
        <time>2023-05-24T12:52:50.000Z</time>
      </trkpt>
      <trkpt lat="43.72388" lon="3.55127">
        <ele>87.400001525879</ele>
        <time>2023-05-24T12:53:00.000Z</time>
      </trkpt>
      <trkpt lat="43.72395" lon="3.55114">
        <ele>87.400001525879</ele>
        <time>2023-05-24T12:53:09.000Z</time>
      </trkpt>
      <trkpt lat="43.72403" lon="3.55101">
        <ele>87.400001525879</ele>
        <time>2023-05-24T12:53:19.000Z</time>
      </trkpt>
      <trkpt lat="43.72405" lon="3.55099">
        <ele>87.199996948242</ele>
        <time>2023-05-24T12:53:21.000Z</time>
      </trkpt>
      <trkpt lat="43.72412" lon="3.55088">
        <ele>87.199996948242</ele>
        <time>2023-05-24T12:53:29.000Z</time>
      </trkpt>
      <trkpt lat="43.72419" lon="3.55079">
        <ele>87.400001525879</ele>
        <time>2023-05-24T12:53:37.000Z</time>
      </trkpt>
      <trkpt lat="43.72428" lon="3.55069">
        <ele>87.400001525879</ele>
        <time>2023-05-24T12:53:46.000Z</time>
      </trkpt>
      <trkpt lat="43.72436" lon="3.55062">
        <ele>87.400001525879</ele>
        <time>2023-05-24T12:53:54.000Z</time>
      </trkpt>
      <trkpt lat="43.72438" lon="3.55061">
        <ele>87.400001525879</ele>
        <time>2023-05-24T12:53:55.000Z</time>
      </trkpt>
      <trkpt lat="43.72441" lon="3.55059">
        <ele>87.599998474121</ele>
        <time>2023-05-24T12:53:59.000Z</time>
      </trkpt>
      <trkpt lat="43.72449" lon="3.55056">
        <ele>87.400001525879</ele>
        <time>2023-05-24T12:54:07.000Z</time>
      </trkpt>
      <trkpt lat="43.72456" lon="3.55053">
        <ele>87.599998474121</ele>
        <time>2023-05-24T12:54:13.000Z</time>
      </trkpt>
      <trkpt lat="43.72459" lon="3.55053">
        <ele>87.599998474121</ele>
        <time>2023-05-24T12:54:16.000Z</time>
      </trkpt>
      <trkpt lat="43.72461" lon="3.55053">
        <ele>87.800003051758</ele>
        <time>2023-05-24T12:54:19.000Z</time>
      </trkpt>
      <trkpt lat="43.72463" lon="3.55053">
        <ele>87.800003051758</ele>
        <time>2023-05-24T12:54:20.000Z</time>
      </trkpt>
      <trkpt lat="43.72465" lon="3.55052">
        <ele>87.599998474121</ele>
        <time>2023-05-24T12:54:22.000Z</time>
      </trkpt>
      <trkpt lat="43.72467" lon="3.5505">
        <ele>87.599998474121</ele>
        <time>2023-05-24T12:54:25.000Z</time>
      </trkpt>
      <trkpt lat="43.72475" lon="3.55051">
        <ele>86.599998474121</ele>
        <time>2023-05-24T12:54:33.000Z</time>
      </trkpt>
      <trkpt lat="43.72478" lon="3.55051">
        <ele>86.199996948242</ele>
        <time>2023-05-24T12:54:36.000Z</time>
      </trkpt>
      <trkpt lat="43.7248" lon="3.55051">
        <ele>86</ele>
        <time>2023-05-24T12:54:39.000Z</time>
      </trkpt>
      <trkpt lat="43.72485" lon="3.55051">
        <ele>85.599998474121</ele>
        <time>2023-05-24T12:54:45.000Z</time>
      </trkpt>
      <trkpt lat="43.72488" lon="3.55049">
        <ele>85.400001525879</ele>
        <time>2023-05-24T12:54:51.000Z</time>
      </trkpt>
      <trkpt lat="43.72488" lon="3.55049">
        <ele>85.199996948242</ele>
        <time>2023-05-24T12:54:54.000Z</time>
      </trkpt>
      <trkpt lat="43.72488" lon="3.5505">
        <ele>85.199996948242</ele>
        <time>2023-05-24T12:54:58.000Z</time>
      </trkpt>
      <trkpt lat="43.72488" lon="3.5505">
        <ele>83.800003051758</ele>
        <time>2023-05-24T12:54:59.000Z</time>
      </trkpt>
      <trkpt lat="43.72489" lon="3.55047">
        <ele>78.199996948242</ele>
        <time>2023-05-24T12:55:02.000Z</time>
      </trkpt>
      <trkpt lat="43.72489" lon="3.55047">
        <ele>70</ele>
        <time>2023-05-24T12:55:03.000Z</time>
      </trkpt>
      <trkpt lat="43.72489" lon="3.55047">
        <ele>63.200000762939</ele>
        <time>2023-05-24T12:55:04.000Z</time>
      </trkpt>
      <trkpt lat="43.72489" lon="3.55047">
        <ele>55.200000762939</ele>
        <time>2023-05-24T12:55:05.000Z</time>
      </trkpt>
      <trkpt lat="43.72489" lon="3.55047">
        <ele>47.799999237061</ele>
        <time>2023-05-24T12:55:06.000Z</time>
      </trkpt>
      <trkpt lat="43.72489" lon="3.55047">
        <ele>47.200000762939</ele>
        <time>2023-05-24T12:55:07.000Z</time>
      </trkpt>
      <trkpt lat="43.72489" lon="3.55047">
        <ele>49.799999237061</ele>
        <time>2023-05-24T12:55:08.000Z</time>
      </trkpt>
      <trkpt lat="43.72489" lon="3.55047">
        <ele>53.400001525879</ele>
        <time>2023-05-24T12:55:09.000Z</time>
      </trkpt>
      <trkpt lat="43.72489" lon="3.55047">
        <ele>57.200000762939</ele>
        <time>2023-05-24T12:55:10.000Z</time>
      </trkpt>
      <trkpt lat="43.72489" lon="3.55047">
        <ele>65.199996948242</ele>
        <time>2023-05-24T12:55:11.000Z</time>
      </trkpt>
      <trkpt lat="43.72489" lon="3.55047">
        <ele>71.400001525879</ele>
        <time>2023-05-24T12:55:12.000Z</time>
      </trkpt>
      <trkpt lat="43.72489" lon="3.55047">
        <ele>77</ele>
        <time>2023-05-24T12:55:13.000Z</time>
      </trkpt>
      <trkpt lat="43.72489" lon="3.55047">
        <ele>81.800003051758</ele>
        <time>2023-05-24T12:55:14.000Z</time>
      </trkpt>
      <trkpt lat="43.72489" lon="3.55047">
        <ele>84.800003051758</ele>
        <time>2023-05-24T12:55:15.000Z</time>
      </trkpt>
      <trkpt lat="43.72489" lon="3.55047">
        <ele>84.400001525879</ele>
        <time>2023-05-24T12:55:16.000Z</time>
      </trkpt>
      <trkpt lat="43.7249" lon="3.55047">
        <ele>85.400001525879</ele>
        <time>2023-05-24T12:55:24.000Z</time>
      </trkpt>
      <trkpt lat="43.72496" lon="3.55048">
        <ele>85.400001525879</ele>
        <time>2023-05-24T12:55:34.000Z</time>
      </trkpt>
      <trkpt lat="43.72503" lon="3.55045">
        <ele>85</ele>
        <time>2023-05-24T12:55:40.000Z</time>
      </trkpt>
      <trkpt lat="43.72504" lon="3.55045">
        <ele>85</ele>
        <time>2023-05-24T12:55:41.000Z</time>
      </trkpt>
      <trkpt lat="43.7251" lon="3.55044">
        <ele>84.800003051758</ele>
        <time>2023-05-24T12:55:47.000Z</time>
      </trkpt>
      <trkpt lat="43.72514" lon="3.55044">
        <ele>84.599998474121</ele>
        <time>2023-05-24T12:55:51.000Z</time>
      </trkpt>
      <trkpt lat="43.72516" lon="3.55044">
        <ele>84.400001525879</ele>
        <time>2023-05-24T12:55:53.000Z</time>
      </trkpt>
      <trkpt lat="43.72524" lon="3.55043">
        <ele>84</ele>
        <time>2023-05-24T12:56:00.000Z</time>
      </trkpt>
      <trkpt lat="43.72527" lon="3.55042">
        <ele>83.800003051758</ele>
        <time>2023-05-24T12:56:03.000Z</time>
      </trkpt>
      <trkpt lat="43.72528" lon="3.55042">
        <ele>83.800003051758</ele>
        <time>2023-05-24T12:56:04.000Z</time>
      </trkpt>
      <trkpt lat="43.72532" lon="3.55041">
        <ele>83.800003051758</ele>
        <time>2023-05-24T12:56:08.000Z</time>
      </trkpt>
      <trkpt lat="43.72534" lon="3.55041">
        <ele>83.800003051758</ele>
        <time>2023-05-24T12:56:10.000Z</time>
      </trkpt>
      <trkpt lat="43.72538" lon="3.5504">
        <ele>83.800003051758</ele>
        <time>2023-05-24T12:56:14.000Z</time>
      </trkpt>
      <trkpt lat="43.72543" lon="3.55039">
        <ele>84</ele>
        <time>2023-05-24T12:56:19.000Z</time>
      </trkpt>
      <trkpt lat="43.72546" lon="3.55038">
        <ele>84</ele>
        <time>2023-05-24T12:56:22.000Z</time>
      </trkpt>
      <trkpt lat="43.72547" lon="3.55038">
        <ele>84</ele>
        <time>2023-05-24T12:56:23.000Z</time>
      </trkpt>
      <trkpt lat="43.72552" lon="3.55036">
        <ele>84</ele>
        <time>2023-05-24T12:56:28.000Z</time>
      </trkpt>
      <trkpt lat="43.72554" lon="3.55035">
        <ele>84.199996948242</ele>
        <time>2023-05-24T12:56:30.000Z</time>
      </trkpt>
      <trkpt lat="43.72557" lon="3.55034">
        <ele>84.400001525879</ele>
        <time>2023-05-24T12:56:33.000Z</time>
      </trkpt>
      <trkpt lat="43.72557" lon="3.55034">
        <ele>84.400001525879</ele>
        <time>2023-05-24T12:56:34.000Z</time>
      </trkpt>
      <trkpt lat="43.7256" lon="3.55033">
        <ele>84.800003051758</ele>
        <time>2023-05-24T12:56:37.000Z</time>
      </trkpt>
      <trkpt lat="43.72561" lon="3.55033">
        <ele>84.800003051758</ele>
        <time>2023-05-24T12:56:39.000Z</time>
      </trkpt>
      <trkpt lat="43.72562" lon="3.55031">
        <ele>85</ele>
        <time>2023-05-24T12:56:41.000Z</time>
      </trkpt>
      <trkpt lat="43.72566" lon="3.5503">
        <ele>85.599998474121</ele>
        <time>2023-05-24T12:56:45.000Z</time>
      </trkpt>
      <trkpt lat="43.72568" lon="3.55029">
        <ele>85.800003051758</ele>
        <time>2023-05-24T12:56:47.000Z</time>
      </trkpt>
      <trkpt lat="43.72571" lon="3.55027">
        <ele>86.199996948242</ele>
        <time>2023-05-24T12:56:52.000Z</time>
      </trkpt>
      <trkpt lat="43.72572" lon="3.55027">
        <ele>86.400001525879</ele>
        <time>2023-05-24T12:56:53.000Z</time>
      </trkpt>
      <trkpt lat="43.72576" lon="3.55027">
        <ele>86.800003051758</ele>
        <time>2023-05-24T12:56:58.000Z</time>
      </trkpt>
      <trkpt lat="43.72579" lon="3.55028">
        <ele>86.800003051758</ele>
        <time>2023-05-24T12:57:00.000Z</time>
      </trkpt>
      <trkpt lat="43.72583" lon="3.55028">
        <ele>86.599998474121</ele>
        <time>2023-05-24T12:57:05.000Z</time>
      </trkpt>
      <trkpt lat="43.72589" lon="3.55029">
        <ele>86.199996948242</ele>
        <time>2023-05-24T12:57:13.000Z</time>
      </trkpt>
      <trkpt lat="43.72594" lon="3.55028">
        <ele>86.800003051758</ele>
        <time>2023-05-24T12:57:20.000Z</time>
      </trkpt>
      <trkpt lat="43.72595" lon="3.55027">
        <ele>87</ele>
        <time>2023-05-24T12:57:21.000Z</time>
      </trkpt>
      <trkpt lat="43.72598" lon="3.55027">
        <ele>87.599998474121</ele>
        <time>2023-05-24T12:57:26.000Z</time>
      </trkpt>
      <trkpt lat="43.72606" lon="3.55025">
        <ele>87.599998474121</ele>
        <time>2023-05-24T12:57:33.000Z</time>
      </trkpt>
      <trkpt lat="43.72612" lon="3.55024">
        <ele>87.800003051758</ele>
        <time>2023-05-24T12:57:39.000Z</time>
      </trkpt>
      <trkpt lat="43.72612" lon="3.55024">
        <ele>88</ele>
        <time>2023-05-24T12:57:40.000Z</time>
      </trkpt>
      <trkpt lat="43.72613" lon="3.55023">
        <ele>88</ele>
        <time>2023-05-24T12:57:41.000Z</time>
      </trkpt>
      <trkpt lat="43.72622" lon="3.55023">
        <ele>88</ele>
        <time>2023-05-24T12:57:49.000Z</time>
      </trkpt>
      <trkpt lat="43.72632" lon="3.55024">
        <ele>87.599998474121</ele>
        <time>2023-05-24T12:57:59.000Z</time>
      </trkpt>
      <trkpt lat="43.72641" lon="3.55025">
        <ele>87.400001525879</ele>
        <time>2023-05-24T12:58:07.000Z</time>
      </trkpt>
      <trkpt lat="43.72648" lon="3.55027">
        <ele>87.400001525879</ele>
        <time>2023-05-24T12:58:14.000Z</time>
      </trkpt>
      <trkpt lat="43.72651" lon="3.55027">
        <ele>87.400001525879</ele>
        <time>2023-05-24T12:58:17.000Z</time>
      </trkpt>
      <trkpt lat="43.72655" lon="3.55028">
        <ele>87.400001525879</ele>
        <time>2023-05-24T12:58:21.000Z</time>
      </trkpt>
      <trkpt lat="43.72662" lon="3.55029">
        <ele>87.599998474121</ele>
        <time>2023-05-24T12:58:29.000Z</time>
      </trkpt>
      <trkpt lat="43.72664" lon="3.5503">
        <ele>87.599998474121</ele>
        <time>2023-05-24T12:58:31.000Z</time>
      </trkpt>
      <trkpt lat="43.72665" lon="3.55031">
        <ele>87.599998474121</ele>
        <time>2023-05-24T12:58:36.000Z</time>
      </trkpt>
      <trkpt lat="43.72668" lon="3.55034">
        <ele>86.599998474121</ele>
        <time>2023-05-24T12:58:42.000Z</time>
      </trkpt>
      <trkpt lat="43.72668" lon="3.55034">
        <ele>86.400001525879</ele>
        <time>2023-05-24T12:58:43.000Z</time>
      </trkpt>
      <trkpt lat="43.72669" lon="3.55034">
        <ele>86.199996948242</ele>
        <time>2023-05-24T12:58:52.000Z</time>
      </trkpt>
      <trkpt lat="43.7267" lon="3.55035">
        <ele>86.199996948242</ele>
        <time>2023-05-24T12:59:05.000Z</time>
      </trkpt>
      <trkpt lat="43.7267" lon="3.55034">
        <ele>86.199996948242</ele>
        <time>2023-05-24T12:59:23.000Z</time>
      </trkpt>
      <trkpt lat="43.72675" lon="3.55035">
        <ele>86</ele>
        <time>2023-05-24T12:59:30.000Z</time>
      </trkpt>
      <trkpt lat="43.72681" lon="3.55037">
        <ele>86.400001525879</ele>
        <time>2023-05-24T12:59:38.000Z</time>
      </trkpt>
      <trkpt lat="43.72683" lon="3.55037">
        <ele>86.599998474121</ele>
        <time>2023-05-24T12:59:40.000Z</time>
      </trkpt>
      <trkpt lat="43.72685" lon="3.55037">
        <ele>86.800003051758</ele>
        <time>2023-05-24T12:59:42.000Z</time>
      </trkpt>
      <trkpt lat="43.7269" lon="3.55038">
        <ele>87.400001525879</ele>
        <time>2023-05-24T12:59:48.000Z</time>
      </trkpt>
      <trkpt lat="43.72692" lon="3.55039">
        <ele>87.800003051758</ele>
        <time>2023-05-24T12:59:51.000Z</time>
      </trkpt>
      <trkpt lat="43.72694" lon="3.55039">
        <ele>88</ele>
        <time>2023-05-24T12:59:53.000Z</time>
      </trkpt>
      <trkpt lat="43.72696" lon="3.5504">
        <ele>88</ele>
        <time>2023-05-24T12:59:55.000Z</time>
      </trkpt>
      <trkpt lat="43.72699" lon="3.55042">
        <ele>88.199996948242</ele>
        <time>2023-05-24T12:59:59.000Z</time>
      </trkpt>
      <trkpt lat="43.72699" lon="3.55043">
        <ele>88.199996948242</ele>
        <time>2023-05-24T13:00:00.000Z</time>
      </trkpt>
      <trkpt lat="43.727" lon="3.55043">
        <ele>88.400001525879</ele>
        <time>2023-05-24T13:00:01.000Z</time>
      </trkpt>
      <trkpt lat="43.72704" lon="3.55044">
        <ele>88.800003051758</ele>
        <time>2023-05-24T13:00:06.000Z</time>
      </trkpt>
      <trkpt lat="43.72706" lon="3.55044">
        <ele>89</ele>
        <time>2023-05-24T13:00:08.000Z</time>
      </trkpt>
      <trkpt lat="43.7271" lon="3.55046">
        <ele>88.800003051758</ele>
        <time>2023-05-24T13:00:14.000Z</time>
      </trkpt>
      <trkpt lat="43.72714" lon="3.55046">
        <ele>88.800003051758</ele>
        <time>2023-05-24T13:00:19.000Z</time>
      </trkpt>
      <trkpt lat="43.72715" lon="3.55046">
        <ele>88.800003051758</ele>
        <time>2023-05-24T13:00:20.000Z</time>
      </trkpt>
      <trkpt lat="43.72724" lon="3.55049">
        <ele>89.199996948242</ele>
        <time>2023-05-24T13:00:28.000Z</time>
      </trkpt>
      <trkpt lat="43.72727" lon="3.5505">
        <ele>89.400001525879</ele>
        <time>2023-05-24T13:00:32.000Z</time>
      </trkpt>
      <trkpt lat="43.72729" lon="3.55051">
        <ele>89.400001525879</ele>
        <time>2023-05-24T13:00:34.000Z</time>
      </trkpt>
      <trkpt lat="43.72735" lon="3.55052">
        <ele>89.599998474121</ele>
        <time>2023-05-24T13:00:38.000Z</time>
      </trkpt>
      <trkpt lat="43.72737" lon="3.55054">
        <ele>89.599998474121</ele>
        <time>2023-05-24T13:00:40.000Z</time>
      </trkpt>
      <trkpt lat="43.72739" lon="3.55055">
        <ele>89.599998474121</ele>
        <time>2023-05-24T13:00:42.000Z</time>
      </trkpt>
      <trkpt lat="43.72743" lon="3.5506">
        <ele>89.800003051758</ele>
        <time>2023-05-24T13:00:48.000Z</time>
      </trkpt>
      <trkpt lat="43.72744" lon="3.55061">
        <ele>89.800003051758</ele>
        <time>2023-05-24T13:00:49.000Z</time>
      </trkpt>
      <trkpt lat="43.72745" lon="3.55062">
        <ele>89.800003051758</ele>
        <time>2023-05-24T13:00:50.000Z</time>
      </trkpt>
      <trkpt lat="43.72745" lon="3.55062">
        <ele>89.800003051758</ele>
        <time>2023-05-24T13:00:51.000Z</time>
      </trkpt>
      <trkpt lat="43.72748" lon="3.55067">
        <ele>90</ele>
        <time>2023-05-24T13:00:55.000Z</time>
      </trkpt>
      <trkpt lat="43.72749" lon="3.55068">
        <ele>90.400001525879</ele>
        <time>2023-05-24T13:01:00.000Z</time>
      </trkpt>
      <trkpt lat="43.72751" lon="3.55069">
        <ele>90.599998474121</ele>
        <time>2023-05-24T13:01:08.000Z</time>
      </trkpt>
      <trkpt lat="43.72754" lon="3.55072">
        <ele>90.599998474121</ele>
        <time>2023-05-24T13:01:15.000Z</time>
      </trkpt>
      <trkpt lat="43.72758" lon="3.55076">
        <ele>90.800003051758</ele>
        <time>2023-05-24T13:01:20.000Z</time>
      </trkpt>
      <trkpt lat="43.72762" lon="3.55079">
        <ele>91.199996948242</ele>
        <time>2023-05-24T13:01:24.000Z</time>
      </trkpt>
      <trkpt lat="43.72763" lon="3.55081">
        <ele>91.199996948242</ele>
        <time>2023-05-24T13:01:26.000Z</time>
      </trkpt>
      <trkpt lat="43.72768" lon="3.55083">
        <ele>91.400001525879</ele>
        <time>2023-05-24T13:01:31.000Z</time>
      </trkpt>
      <trkpt lat="43.72776" lon="3.55087">
        <ele>91.800003051758</ele>
        <time>2023-05-24T13:01:40.000Z</time>
      </trkpt>
      <trkpt lat="43.72777" lon="3.55087">
        <ele>91.800003051758</ele>
        <time>2023-05-24T13:01:41.000Z</time>
      </trkpt>
      <trkpt lat="43.72782" lon="3.55091">
        <ele>91.599998474121</ele>
        <time>2023-05-24T13:01:47.000Z</time>
      </trkpt>
      <trkpt lat="43.72791" lon="3.55097">
        <ele>91.800003051758</ele>
        <time>2023-05-24T13:01:55.000Z</time>
      </trkpt>
      <trkpt lat="43.72796" lon="3.55099">
        <ele>91.800003051758</ele>
        <time>2023-05-24T13:02:01.000Z</time>
      </trkpt>
      <trkpt lat="43.72798" lon="3.551">
        <ele>92</ele>
        <time>2023-05-24T13:02:03.000Z</time>
      </trkpt>
      <trkpt lat="43.72798" lon="3.551">
        <ele>92</ele>
        <time>2023-05-24T13:02:05.000Z</time>
      </trkpt>
      <trkpt lat="43.72798" lon="3.55106">
        <ele>91.199996948242</ele>
        <time>2023-05-24T13:02:17.000Z</time>
      </trkpt>
      <trkpt lat="43.72798" lon="3.55106">
        <ele>92</ele>
        <time>2023-05-24T13:02:23.000Z</time>
      </trkpt>
      <trkpt lat="43.72798" lon="3.55106">
        <ele>92.199996948242</ele>
        <time>2023-05-24T13:02:34.000Z</time>
      </trkpt>
      <trkpt lat="43.72801" lon="3.55107">
        <ele>92</ele>
        <time>2023-05-24T13:02:41.000Z</time>
      </trkpt>
      <trkpt lat="43.72805" lon="3.55109">
        <ele>88.199996948242</ele>
        <time>2023-05-24T13:02:45.000Z</time>
      </trkpt>
      <trkpt lat="43.72808" lon="3.55109">
        <ele>93.800003051758</ele>
        <time>2023-05-24T13:02:48.000Z</time>
      </trkpt>
      <trkpt lat="43.72809" lon="3.5511">
        <ele>99.400001525879</ele>
        <time>2023-05-24T13:02:49.000Z</time>
      </trkpt>
      <trkpt lat="43.7281" lon="3.5511">
        <ele>107</ele>
        <time>2023-05-24T13:02:50.000Z</time>
      </trkpt>
      <trkpt lat="43.72813" lon="3.55111">
        <ele>101.80000305176</ele>
        <time>2023-05-24T13:02:53.000Z</time>
      </trkpt>
      <trkpt lat="43.72814" lon="3.55112">
        <ele>97</ele>
        <time>2023-05-24T13:02:54.000Z</time>
      </trkpt>
      <trkpt lat="43.72815" lon="3.55113">
        <ele>92.199996948242</ele>
        <time>2023-05-24T13:02:55.000Z</time>
      </trkpt>
      <trkpt lat="43.72817" lon="3.55115">
        <ele>92</ele>
        <time>2023-05-24T13:02:58.000Z</time>
      </trkpt>
      <trkpt lat="43.72819" lon="3.55118">
        <ele>91.800003051758</ele>
        <time>2023-05-24T13:03:00.000Z</time>
      </trkpt>
      <trkpt lat="43.72822" lon="3.55122">
        <ele>91.599998474121</ele>
        <time>2023-05-24T13:03:04.000Z</time>
      </trkpt>
      <trkpt lat="43.72822" lon="3.55123">
        <ele>91.599998474121</ele>
        <time>2023-05-24T13:03:05.000Z</time>
      </trkpt>
      <trkpt lat="43.72823" lon="3.55123">
        <ele>87.400001525879</ele>
        <time>2023-05-24T13:03:06.000Z</time>
      </trkpt>
      <trkpt lat="43.72827" lon="3.55125">
        <ele>92.199996948242</ele>
        <time>2023-05-24T13:03:11.000Z</time>
      </trkpt>
      <trkpt lat="43.72828" lon="3.55126">
        <ele>92.400001525879</ele>
        <time>2023-05-24T13:03:12.000Z</time>
      </trkpt>
      <trkpt lat="43.72831" lon="3.55127">
        <ele>92.599998474121</ele>
        <time>2023-05-24T13:03:16.000Z</time>
      </trkpt>
      <trkpt lat="43.72836" lon="3.55129">
        <ele>93.199996948242</ele>
        <time>2023-05-24T13:03:22.000Z</time>
      </trkpt>
      <trkpt lat="43.72838" lon="3.55131">
        <ele>93.599998474121</ele>
        <time>2023-05-24T13:03:24.000Z</time>
      </trkpt>
      <trkpt lat="43.7284" lon="3.55136">
        <ele>93.199996948242</ele>
        <time>2023-05-24T13:03:30.000Z</time>
      </trkpt>
      <trkpt lat="43.7284" lon="3.55137">
        <ele>92.599998474121</ele>
        <time>2023-05-24T13:03:31.000Z</time>
      </trkpt>
      <trkpt lat="43.72843" lon="3.55142">
        <ele>92</ele>
        <time>2023-05-24T13:03:37.000Z</time>
      </trkpt>
      <trkpt lat="43.72844" lon="3.55144">
        <ele>91.599998474121</ele>
        <time>2023-05-24T13:03:39.000Z</time>
      </trkpt>
      <trkpt lat="43.72851" lon="3.55151">
        <ele>91.599998474121</ele>
        <time>2023-05-24T13:03:47.000Z</time>
      </trkpt>
      <trkpt lat="43.72856" lon="3.55154">
        <ele>91.800003051758</ele>
        <time>2023-05-24T13:03:53.000Z</time>
      </trkpt>
      <trkpt lat="43.72857" lon="3.55154">
        <ele>91.800003051758</ele>
        <time>2023-05-24T13:03:54.000Z</time>
      </trkpt>
      <trkpt lat="43.72861" lon="3.55159">
        <ele>92.199996948242</ele>
        <time>2023-05-24T13:04:00.000Z</time>
      </trkpt>
      <trkpt lat="43.72864" lon="3.55162">
        <ele>92.599998474121</ele>
        <time>2023-05-24T13:04:04.000Z</time>
      </trkpt>
      <trkpt lat="43.72866" lon="3.55164">
        <ele>93</ele>
        <time>2023-05-24T13:04:07.000Z</time>
      </trkpt>
      <trkpt lat="43.72871" lon="3.55171">
        <ele>93.800003051758</ele>
        <time>2023-05-24T13:04:15.000Z</time>
      </trkpt>
      <trkpt lat="43.72878" lon="3.55178">
        <ele>93</ele>
        <time>2023-05-24T13:04:23.000Z</time>
      </trkpt>
      <trkpt lat="43.72883" lon="3.55183">
        <ele>92.599998474121</ele>
        <time>2023-05-24T13:04:30.000Z</time>
      </trkpt>
      <trkpt lat="43.72889" lon="3.55188">
        <ele>92.400001525879</ele>
        <time>2023-05-24T13:04:37.000Z</time>
      </trkpt>
      <trkpt lat="43.72896" lon="3.55194">
        <ele>92.199996948242</ele>
        <time>2023-05-24T13:04:45.000Z</time>
      </trkpt>
      <trkpt lat="43.729" lon="3.55196">
        <ele>92</ele>
        <time>2023-05-24T13:04:48.000Z</time>
      </trkpt>
      <trkpt lat="43.72905" lon="3.552">
        <ele>92</ele>
        <time>2023-05-24T13:04:54.000Z</time>
      </trkpt>
      <trkpt lat="43.72911" lon="3.55206">
        <ele>92.199996948242</ele>
        <time>2023-05-24T13:05:01.000Z</time>
      </trkpt>
      <trkpt lat="43.72917" lon="3.55211">
        <ele>92.800003051758</ele>
        <time>2023-05-24T13:05:09.000Z</time>
      </trkpt>
      <trkpt lat="43.72918" lon="3.55212">
        <ele>93</ele>
        <time>2023-05-24T13:05:10.000Z</time>
      </trkpt>
      <trkpt lat="43.72921" lon="3.55214">
        <ele>92.800003051758</ele>
        <time>2023-05-24T13:05:15.000Z</time>
      </trkpt>
      <trkpt lat="43.72922" lon="3.55215">
        <ele>92.599998474121</ele>
        <time>2023-05-24T13:05:16.000Z</time>
      </trkpt>
      <trkpt lat="43.72926" lon="3.5522">
        <ele>92.800003051758</ele>
        <time>2023-05-24T13:05:23.000Z</time>
      </trkpt>
      <trkpt lat="43.72929" lon="3.55223">
        <ele>92.800003051758</ele>
        <time>2023-05-24T13:05:28.000Z</time>
      </trkpt>
      <trkpt lat="43.72929" lon="3.55223">
        <ele>93.199996948242</ele>
        <time>2023-05-24T13:05:33.000Z</time>
      </trkpt>
      <trkpt lat="43.72931" lon="3.55222">
        <ele>92.800003051758</ele>
        <time>2023-05-24T13:05:50.000Z</time>
      </trkpt>
      <trkpt lat="43.72932" lon="3.55221">
        <ele>92.599998474121</ele>
        <time>2023-05-24T13:06:00.000Z</time>
      </trkpt>
      <trkpt lat="43.72933" lon="3.5522">
        <ele>93.599998474121</ele>
        <time>2023-05-24T13:06:08.000Z</time>
      </trkpt>
      <trkpt lat="43.72932" lon="3.5522">
        <ele>92.400001525879</ele>
        <time>2023-05-24T13:06:15.000Z</time>
      </trkpt>
      <trkpt lat="43.72933" lon="3.55218">
        <ele>93.800003051758</ele>
        <time>2023-05-24T13:06:23.000Z</time>
      </trkpt>
      <trkpt lat="43.72933" lon="3.55218">
        <ele>94.199996948242</ele>
        <time>2023-05-24T13:06:26.000Z</time>
      </trkpt>
      <trkpt lat="43.72934" lon="3.55218">
        <ele>93.199996948242</ele>
        <time>2023-05-24T13:06:27.000Z</time>
      </trkpt>
      <trkpt lat="43.72935" lon="3.55218">
        <ele>93</ele>
        <time>2023-05-24T13:06:30.000Z</time>
      </trkpt>
      <trkpt lat="43.72936" lon="3.55218">
        <ele>93.199996948242</ele>
        <time>2023-05-24T13:06:42.000Z</time>
      </trkpt>
      <trkpt lat="43.72937" lon="3.55219">
        <ele>93</ele>
        <time>2023-05-24T13:06:50.000Z</time>
      </trkpt>
      <trkpt lat="43.7294" lon="3.55223">
        <ele>92.599998474121</ele>
        <time>2023-05-24T13:06:56.000Z</time>
      </trkpt>
      <trkpt lat="43.72948" lon="3.55231">
        <ele>92.800003051758</ele>
        <time>2023-05-24T13:07:05.000Z</time>
      </trkpt>
      <trkpt lat="43.7295" lon="3.55235">
        <ele>92.800003051758</ele>
        <time>2023-05-24T13:07:10.000Z</time>
      </trkpt>
      <trkpt lat="43.72951" lon="3.55236">
        <ele>93</ele>
        <time>2023-05-24T13:07:16.000Z</time>
      </trkpt>
      <trkpt lat="43.72954" lon="3.55239">
        <ele>93.199996948242</ele>
        <time>2023-05-24T13:07:23.000Z</time>
      </trkpt>
      <trkpt lat="43.72959" lon="3.55242">
        <ele>94</ele>
        <time>2023-05-24T13:07:28.000Z</time>
      </trkpt>
      <trkpt lat="43.72962" lon="3.55244">
        <ele>94</ele>
        <time>2023-05-24T13:07:33.000Z</time>
      </trkpt>
      <trkpt lat="43.72966" lon="3.55246">
        <ele>94</ele>
        <time>2023-05-24T13:07:37.000Z</time>
      </trkpt>
      <trkpt lat="43.72967" lon="3.55246">
        <ele>94</ele>
        <time>2023-05-24T13:07:39.000Z</time>
      </trkpt>
      <trkpt lat="43.7297" lon="3.55247">
        <ele>94.199996948242</ele>
        <time>2023-05-24T13:07:43.000Z</time>
      </trkpt>
      <trkpt lat="43.72972" lon="3.55249">
        <ele>94.599998474121</ele>
        <time>2023-05-24T13:07:47.000Z</time>
      </trkpt>
      <trkpt lat="43.72974" lon="3.55249">
        <ele>95</ele>
        <time>2023-05-24T13:07:55.000Z</time>
      </trkpt>
      <trkpt lat="43.72978" lon="3.55252">
        <ele>94.400001525879</ele>
        <time>2023-05-24T13:08:04.000Z</time>
      </trkpt>
      <trkpt lat="43.72982" lon="3.5526">
        <ele>93.400001525879</ele>
        <time>2023-05-24T13:08:10.000Z</time>
      </trkpt>
      <trkpt lat="43.72982" lon="3.5526">
        <ele>93.199996948242</ele>
        <time>2023-05-24T13:08:11.000Z</time>
      </trkpt>
      <trkpt lat="43.72983" lon="3.55261">
        <ele>93</ele>
        <time>2023-05-24T13:08:12.000Z</time>
      </trkpt>
      <trkpt lat="43.72984" lon="3.55261">
        <ele>92.800003051758</ele>
        <time>2023-05-24T13:08:13.000Z</time>
      </trkpt>
      <trkpt lat="43.72987" lon="3.55263">
        <ele>92.199996948242</ele>
        <time>2023-05-24T13:08:16.000Z</time>
      </trkpt>
      <trkpt lat="43.7299" lon="3.55264">
        <ele>92</ele>
        <time>2023-05-24T13:08:18.000Z</time>
      </trkpt>
      <trkpt lat="43.7299" lon="3.55265">
        <ele>92</ele>
        <time>2023-05-24T13:08:19.000Z</time>
      </trkpt>
      <trkpt lat="43.72992" lon="3.55267">
        <ele>91.800003051758</ele>
        <time>2023-05-24T13:08:21.000Z</time>
      </trkpt>
      <trkpt lat="43.72995" lon="3.55269">
        <ele>91.400001525879</ele>
        <time>2023-05-24T13:08:25.000Z</time>
      </trkpt>
      <trkpt lat="43.73002" lon="3.5527">
        <ele>91.400001525879</ele>
        <time>2023-05-24T13:08:31.000Z</time>
      </trkpt>
      <trkpt lat="43.73003" lon="3.55272">
        <ele>91.599998474121</ele>
        <time>2023-05-24T13:08:33.000Z</time>
      </trkpt>
      <trkpt lat="43.73005" lon="3.55273">
        <ele>91.800003051758</ele>
        <time>2023-05-24T13:08:35.000Z</time>
      </trkpt>
      <trkpt lat="43.73009" lon="3.55274">
        <ele>92</ele>
        <time>2023-05-24T13:08:40.000Z</time>
      </trkpt>
      <trkpt lat="43.73009" lon="3.55274">
        <ele>92</ele>
        <time>2023-05-24T13:08:41.000Z</time>
      </trkpt>
      <trkpt lat="43.73011" lon="3.55275">
        <ele>92.400001525879</ele>
        <time>2023-05-24T13:08:48.000Z</time>
      </trkpt>
      <trkpt lat="43.73012" lon="3.55275">
        <ele>93.199996948242</ele>
        <time>2023-05-24T13:08:52.000Z</time>
      </trkpt>
      <trkpt lat="43.73013" lon="3.55275">
        <ele>94</ele>
        <time>2023-05-24T13:08:55.000Z</time>
      </trkpt>
      <trkpt lat="43.73013" lon="3.55275">
        <ele>94.199996948242</ele>
        <time>2023-05-24T13:08:56.000Z</time>
      </trkpt>
      <trkpt lat="43.73014" lon="3.55275">
        <ele>95</ele>
        <time>2023-05-24T13:09:03.000Z</time>
      </trkpt>
      <trkpt lat="43.73016" lon="3.55276">
        <ele>95</ele>
        <time>2023-05-24T13:09:09.000Z</time>
      </trkpt>
      <trkpt lat="43.73018" lon="3.55278">
        <ele>95</ele>
        <time>2023-05-24T13:09:19.000Z</time>
      </trkpt>
      <trkpt lat="43.73023" lon="3.5528">
        <ele>95.199996948242</ele>
        <time>2023-05-24T13:09:25.000Z</time>
      </trkpt>
      <trkpt lat="43.73024" lon="3.55281">
        <ele>95.199996948242</ele>
        <time>2023-05-24T13:09:26.000Z</time>
      </trkpt>
      <trkpt lat="43.73028" lon="3.55282">
        <ele>95.199996948242</ele>
        <time>2023-05-24T13:09:32.000Z</time>
      </trkpt>
      <trkpt lat="43.73029" lon="3.55283">
        <ele>95.400001525879</ele>
        <time>2023-05-24T13:09:33.000Z</time>
      </trkpt>
      <trkpt lat="43.73034" lon="3.55285">
        <ele>95</ele>
        <time>2023-05-24T13:09:39.000Z</time>
      </trkpt>
      <trkpt lat="43.73035" lon="3.55286">
        <ele>95</ele>
        <time>2023-05-24T13:09:41.000Z</time>
      </trkpt>
      <trkpt lat="43.73038" lon="3.55287">
        <ele>95</ele>
        <time>2023-05-24T13:09:44.000Z</time>
      </trkpt>
      <trkpt lat="43.73039" lon="3.55288">
        <ele>95</ele>
        <time>2023-05-24T13:09:46.000Z</time>
      </trkpt>
      <trkpt lat="43.73046" lon="3.55292">
        <ele>95.800003051758</ele>
        <time>2023-05-24T13:09:54.000Z</time>
      </trkpt>
      <trkpt lat="43.73049" lon="3.55294">
        <ele>95.800003051758</ele>
        <time>2023-05-24T13:09:59.000Z</time>
      </trkpt>
      <trkpt lat="43.73052" lon="3.55297">
        <ele>95.800003051758</ele>
        <time>2023-05-24T13:10:03.000Z</time>
      </trkpt>
      <trkpt lat="43.73055" lon="3.55298">
        <ele>95.800003051758</ele>
        <time>2023-05-24T13:10:06.000Z</time>
      </trkpt>
      <trkpt lat="43.73056" lon="3.55298">
        <ele>95.800003051758</ele>
        <time>2023-05-24T13:10:07.000Z</time>
      </trkpt>
      <trkpt lat="43.73057" lon="3.55299">
        <ele>95.800003051758</ele>
        <time>2023-05-24T13:10:09.000Z</time>
      </trkpt>
      <trkpt lat="43.7306" lon="3.55301">
        <ele>96</ele>
        <time>2023-05-24T13:10:13.000Z</time>
      </trkpt>
      <trkpt lat="43.73062" lon="3.55302">
        <ele>96.199996948242</ele>
        <time>2023-05-24T13:10:15.000Z</time>
      </trkpt>
      <trkpt lat="43.73063" lon="3.55303">
        <ele>96.199996948242</ele>
        <time>2023-05-24T13:10:17.000Z</time>
      </trkpt>
      <trkpt lat="43.73065" lon="3.55304">
        <ele>96.199996948242</ele>
        <time>2023-05-24T13:10:19.000Z</time>
      </trkpt>
      <trkpt lat="43.73066" lon="3.55305">
        <ele>96.199996948242</ele>
        <time>2023-05-24T13:10:21.000Z</time>
      </trkpt>
      <trkpt lat="43.7307" lon="3.55308">
        <ele>96.400001525879</ele>
        <time>2023-05-24T13:10:26.000Z</time>
      </trkpt>
      <trkpt lat="43.73071" lon="3.55308">
        <ele>96.400001525879</ele>
        <time>2023-05-24T13:10:27.000Z</time>
      </trkpt>
      <trkpt lat="43.73075" lon="3.55312">
        <ele>96.400001525879</ele>
        <time>2023-05-24T13:10:34.000Z</time>
      </trkpt>
      <trkpt lat="43.73079" lon="3.55315">
        <ele>96.400001525879</ele>
        <time>2023-05-24T13:10:39.000Z</time>
      </trkpt>
      <trkpt lat="43.73081" lon="3.55316">
        <ele>96.400001525879</ele>
        <time>2023-05-24T13:10:41.000Z</time>
      </trkpt>
      <trkpt lat="43.73085" lon="3.55317">
        <ele>96.199996948242</ele>
        <time>2023-05-24T13:10:45.000Z</time>
      </trkpt>
      <trkpt lat="43.73089" lon="3.55319">
        <ele>96.400001525879</ele>
        <time>2023-05-24T13:10:49.000Z</time>
      </trkpt>
      <trkpt lat="43.73093" lon="3.55321">
        <ele>96.599998474121</ele>
        <time>2023-05-24T13:10:55.000Z</time>
      </trkpt>
      <trkpt lat="43.73097" lon="3.55323">
        <ele>96.599998474121</ele>
        <time>2023-05-24T13:11:01.000Z</time>
      </trkpt>
      <trkpt lat="43.73099" lon="3.55324">
        <ele>96.599998474121</ele>
        <time>2023-05-24T13:11:03.000Z</time>
      </trkpt>
      <trkpt lat="43.73102" lon="3.55325">
        <ele>96.800003051758</ele>
        <time>2023-05-24T13:11:06.000Z</time>
      </trkpt>
      <trkpt lat="43.73105" lon="3.55326">
        <ele>97</ele>
        <time>2023-05-24T13:11:10.000Z</time>
      </trkpt>
      <trkpt lat="43.73106" lon="3.55326">
        <ele>97</ele>
        <time>2023-05-24T13:11:12.000Z</time>
      </trkpt>
      <trkpt lat="43.73113" lon="3.55327">
        <ele>97.199996948242</ele>
        <time>2023-05-24T13:11:19.000Z</time>
      </trkpt>
      <trkpt lat="43.73122" lon="3.55328">
        <ele>97.199996948242</ele>
        <time>2023-05-24T13:11:26.000Z</time>
      </trkpt>
      <trkpt lat="43.73123" lon="3.55328">
        <ele>97.199996948242</ele>
        <time>2023-05-24T13:11:27.000Z</time>
      </trkpt>
      <trkpt lat="43.73128" lon="3.5533">
        <ele>97.400001525879</ele>
        <time>2023-05-24T13:11:31.000Z</time>
      </trkpt>
      <trkpt lat="43.73129" lon="3.5533">
        <ele>97.400001525879</ele>
        <time>2023-05-24T13:11:32.000Z</time>
      </trkpt>
      <trkpt lat="43.73137" lon="3.55333">
        <ele>97.400001525879</ele>
        <time>2023-05-24T13:11:39.000Z</time>
      </trkpt>
      <trkpt lat="43.73139" lon="3.55333">
        <ele>97.599998474121</ele>
        <time>2023-05-24T13:11:41.000Z</time>
      </trkpt>
      <trkpt lat="43.73143" lon="3.55335">
        <ele>97.599998474121</ele>
        <time>2023-05-24T13:11:45.000Z</time>
      </trkpt>
      <trkpt lat="43.73148" lon="3.55337">
        <ele>97.599998474121</ele>
        <time>2023-05-24T13:11:50.000Z</time>
      </trkpt>
      <trkpt lat="43.7315" lon="3.55337">
        <ele>97.800003051758</ele>
        <time>2023-05-24T13:11:52.000Z</time>
      </trkpt>
      <trkpt lat="43.73152" lon="3.55338">
        <ele>97.800003051758</ele>
        <time>2023-05-24T13:11:54.000Z</time>
      </trkpt>
      <trkpt lat="43.73159" lon="3.55338">
        <ele>97.800003051758</ele>
        <time>2023-05-24T13:12:01.000Z</time>
      </trkpt>
      <trkpt lat="43.7316" lon="3.55337">
        <ele>98</ele>
        <time>2023-05-24T13:12:02.000Z</time>
      </trkpt>
      <trkpt lat="43.73166" lon="3.55335">
        <ele>98.199996948242</ele>
        <time>2023-05-24T13:12:07.000Z</time>
      </trkpt>
      <trkpt lat="43.73167" lon="3.55335">
        <ele>98.199996948242</ele>
        <time>2023-05-24T13:12:08.000Z</time>
      </trkpt>
      <trkpt lat="43.73168" lon="3.55336">
        <ele>98.199996948242</ele>
        <time>2023-05-24T13:12:09.000Z</time>
      </trkpt>
      <trkpt lat="43.7317" lon="3.55337">
        <ele>98.199996948242</ele>
        <time>2023-05-24T13:12:12.000Z</time>
      </trkpt>
      <trkpt lat="43.73171" lon="3.55337">
        <ele>98.199996948242</ele>
        <time>2023-05-24T13:12:13.000Z</time>
      </trkpt>
      <trkpt lat="43.73177" lon="3.55338">
        <ele>98.599998474121</ele>
        <time>2023-05-24T13:12:19.000Z</time>
      </trkpt>
      <trkpt lat="43.73178" lon="3.55338">
        <ele>98.800003051758</ele>
        <time>2023-05-24T13:12:20.000Z</time>
      </trkpt>
      <trkpt lat="43.7318" lon="3.5534">
        <ele>98.800003051758</ele>
        <time>2023-05-24T13:12:22.000Z</time>
      </trkpt>
      <trkpt lat="43.73182" lon="3.55342">
        <ele>98.800003051758</ele>
        <time>2023-05-24T13:12:25.000Z</time>
      </trkpt>
      <trkpt lat="43.73187" lon="3.55343">
        <ele>99</ele>
        <time>2023-05-24T13:12:29.000Z</time>
      </trkpt>
      <trkpt lat="43.73188" lon="3.55344">
        <ele>99</ele>
        <time>2023-05-24T13:12:31.000Z</time>
      </trkpt>
      <trkpt lat="43.7319" lon="3.55345">
        <ele>99.400001525879</ele>
        <time>2023-05-24T13:12:34.000Z</time>
      </trkpt>
      <trkpt lat="43.73193" lon="3.55348">
        <ele>99.400001525879</ele>
        <time>2023-05-24T13:12:37.000Z</time>
      </trkpt>
      <trkpt lat="43.73196" lon="3.5535">
        <ele>99.599998474121</ele>
        <time>2023-05-24T13:12:40.000Z</time>
      </trkpt>
      <trkpt lat="43.73199" lon="3.55354">
        <ele>99.599998474121</ele>
        <time>2023-05-24T13:12:44.000Z</time>
      </trkpt>
      <trkpt lat="43.73201" lon="3.55358">
        <ele>99.800003051758</ele>
        <time>2023-05-24T13:12:48.000Z</time>
      </trkpt>
      <trkpt lat="43.73202" lon="3.55359">
        <ele>99.800003051758</ele>
        <time>2023-05-24T13:12:50.000Z</time>
      </trkpt>
      <trkpt lat="43.73207" lon="3.55364">
        <ele>100.19999694824</ele>
        <time>2023-05-24T13:12:57.000Z</time>
      </trkpt>
      <trkpt lat="43.73209" lon="3.55367">
        <ele>100.40000152588</ele>
        <time>2023-05-24T13:13:01.000Z</time>
      </trkpt>
      <trkpt lat="43.73209" lon="3.55368">
        <ele>100.40000152588</ele>
        <time>2023-05-24T13:13:02.000Z</time>
      </trkpt>
      <trkpt lat="43.73216" lon="3.55368">
        <ele>100.59999847412</ele>
        <time>2023-05-24T13:13:07.000Z</time>
      </trkpt>
      <trkpt lat="43.73222" lon="3.5537">
        <ele>101</ele>
        <time>2023-05-24T13:13:12.000Z</time>
      </trkpt>
      <trkpt lat="43.73224" lon="3.55371">
        <ele>101</ele>
        <time>2023-05-24T13:13:14.000Z</time>
      </trkpt>
      <trkpt lat="43.73225" lon="3.55372">
        <ele>101.19999694824</ele>
        <time>2023-05-24T13:13:15.000Z</time>
      </trkpt>
      <trkpt lat="43.73228" lon="3.55375">
        <ele>101.40000152588</ele>
        <time>2023-05-24T13:13:18.000Z</time>
      </trkpt>
      <trkpt lat="43.7323" lon="3.55376">
        <ele>101.40000152588</ele>
        <time>2023-05-24T13:13:20.000Z</time>
      </trkpt>
      <trkpt lat="43.73234" lon="3.55379">
        <ele>101.59999847412</ele>
        <time>2023-05-24T13:13:24.000Z</time>
      </trkpt>
      <trkpt lat="43.73242" lon="3.55378">
        <ele>101.80000305176</ele>
        <time>2023-05-24T13:13:31.000Z</time>
      </trkpt>
      <trkpt lat="43.73245" lon="3.55376">
        <ele>101.80000305176</ele>
        <time>2023-05-24T13:13:33.000Z</time>
      </trkpt>
      <trkpt lat="43.73247" lon="3.55378">
        <ele>102</ele>
        <time>2023-05-24T13:13:36.000Z</time>
      </trkpt>
      <trkpt lat="43.73249" lon="3.55379">
        <ele>102</ele>
        <time>2023-05-24T13:13:38.000Z</time>
      </trkpt>
      <trkpt lat="43.73253" lon="3.5538">
        <ele>102.40000152588</ele>
        <time>2023-05-24T13:13:42.000Z</time>
      </trkpt>
      <trkpt lat="43.73255" lon="3.5538">
        <ele>102.40000152588</ele>
        <time>2023-05-24T13:13:44.000Z</time>
      </trkpt>
      <trkpt lat="43.73261" lon="3.55377">
        <ele>102.80000305176</ele>
        <time>2023-05-24T13:13:48.000Z</time>
      </trkpt>
      <trkpt lat="43.73265" lon="3.55382">
        <ele>103</ele>
        <time>2023-05-24T13:13:54.000Z</time>
      </trkpt>
      <trkpt lat="43.73269" lon="3.55381">
        <ele>103.19999694824</ele>
        <time>2023-05-24T13:13:58.000Z</time>
      </trkpt>
      <trkpt lat="43.73272" lon="3.55381">
        <ele>103.40000152588</ele>
        <time>2023-05-24T13:14:00.000Z</time>
      </trkpt>
      <trkpt lat="43.73274" lon="3.55383">
        <ele>103.59999847412</ele>
        <time>2023-05-24T13:14:03.000Z</time>
      </trkpt>
      <trkpt lat="43.73274" lon="3.55385">
        <ele>103.59999847412</ele>
        <time>2023-05-24T13:14:04.000Z</time>
      </trkpt>
      <trkpt lat="43.73275" lon="3.55388">
        <ele>103.80000305176</ele>
        <time>2023-05-24T13:14:06.000Z</time>
      </trkpt>
      <trkpt lat="43.73277" lon="3.55387">
        <ele>104</ele>
        <time>2023-05-24T13:14:09.000Z</time>
      </trkpt>
      <trkpt lat="43.73277" lon="3.55387">
        <ele>105.59999847412</ele>
        <time>2023-05-24T13:14:11.000Z</time>
      </trkpt>
      <trkpt lat="43.73276" lon="3.55387">
        <ele>105.59999847412</ele>
        <time>2023-05-24T13:14:12.000Z</time>
      </trkpt>
      <trkpt lat="43.73281" lon="3.55383">
        <ele>104.19999694824</ele>
        <time>2023-05-24T13:14:16.000Z</time>
      </trkpt>
      <trkpt lat="43.73281" lon="3.55383">
        <ele>104.19999694824</ele>
        <time>2023-05-24T13:14:18.000Z</time>
      </trkpt>
      <trkpt lat="43.73283" lon="3.55377">
        <ele>104.40000152588</ele>
        <time>2023-05-24T13:14:25.000Z</time>
      </trkpt>
      <trkpt lat="43.73284" lon="3.55374">
        <ele>104.80000305176</ele>
        <time>2023-05-24T13:14:32.000Z</time>
      </trkpt>
      <trkpt lat="43.73284" lon="3.55375">
        <ele>104.59999847412</ele>
        <time>2023-05-24T13:14:40.000Z</time>
      </trkpt>
      <trkpt lat="43.73288" lon="3.55374">
        <ele>104.80000305176</ele>
        <time>2023-05-24T13:14:48.000Z</time>
      </trkpt>
      <trkpt lat="43.7329" lon="3.55377">
        <ele>104.40000152588</ele>
        <time>2023-05-24T13:14:57.000Z</time>
      </trkpt>
      <trkpt lat="43.73289" lon="3.55376">
        <ele>104.19999694824</ele>
        <time>2023-05-24T13:15:10.000Z</time>
      </trkpt>
      <trkpt lat="43.7329" lon="3.55375">
        <ele>104.80000305176</ele>
        <time>2023-05-24T13:15:19.000Z</time>
      </trkpt>
      <trkpt lat="43.73293" lon="3.55373">
        <ele>104.59999847412</ele>
        <time>2023-05-24T13:15:26.000Z</time>
      </trkpt>
      <trkpt lat="43.733" lon="3.55375">
        <ele>104.59999847412</ele>
        <time>2023-05-24T13:15:33.000Z</time>
      </trkpt>
      <trkpt lat="43.73302" lon="3.55376">
        <ele>104.40000152588</ele>
        <time>2023-05-24T13:15:40.000Z</time>
      </trkpt>
      <trkpt lat="43.73301" lon="3.55375">
        <ele>104.19999694824</ele>
        <time>2023-05-24T13:15:48.000Z</time>
      </trkpt>
      <trkpt lat="43.73304" lon="3.55376">
        <ele>104.40000152588</ele>
        <time>2023-05-24T13:15:59.000Z</time>
      </trkpt>
      <trkpt lat="43.73308" lon="3.55378">
        <ele>104</ele>
        <time>2023-05-24T13:16:06.000Z</time>
      </trkpt>
      <trkpt lat="43.73311" lon="3.55378">
        <ele>103.80000305176</ele>
        <time>2023-05-24T13:16:11.000Z</time>
      </trkpt>
      <trkpt lat="43.73315" lon="3.55373">
        <ele>103.80000305176</ele>
        <time>2023-05-24T13:16:17.000Z</time>
      </trkpt>
      <trkpt lat="43.73317" lon="3.55369">
        <ele>104</ele>
        <time>2023-05-24T13:16:22.000Z</time>
      </trkpt>
      <trkpt lat="43.73318" lon="3.55369">
        <ele>104</ele>
        <time>2023-05-24T13:16:23.000Z</time>
      </trkpt>
      <trkpt lat="43.73319" lon="3.55369">
        <ele>104</ele>
        <time>2023-05-24T13:16:27.000Z</time>
      </trkpt>
      <trkpt lat="43.73321" lon="3.55369">
        <ele>104.19999694824</ele>
        <time>2023-05-24T13:16:33.000Z</time>
      </trkpt>
      <trkpt lat="43.73325" lon="3.55365">
        <ele>104</ele>
        <time>2023-05-24T13:16:39.000Z</time>
      </trkpt>
      <trkpt lat="43.73328" lon="3.55362">
        <ele>104.19999694824</ele>
        <time>2023-05-24T13:16:44.000Z</time>
      </trkpt>
      <trkpt lat="43.7333" lon="3.5536">
        <ele>104.19999694824</ele>
        <time>2023-05-24T13:16:47.000Z</time>
      </trkpt>
      <trkpt lat="43.73331" lon="3.55358">
        <ele>104.19999694824</ele>
        <time>2023-05-24T13:16:50.000Z</time>
      </trkpt>
      <trkpt lat="43.73331" lon="3.55357">
        <ele>104.19999694824</ele>
        <time>2023-05-24T13:16:51.000Z</time>
      </trkpt>
      <trkpt lat="43.73333" lon="3.55353">
        <ele>104.40000152588</ele>
        <time>2023-05-24T13:16:55.000Z</time>
      </trkpt>
      <trkpt lat="43.73334" lon="3.55351">
        <ele>104.59999847412</ele>
        <time>2023-05-24T13:16:57.000Z</time>
      </trkpt>
      <trkpt lat="43.73336" lon="3.55344">
        <ele>104.59999847412</ele>
        <time>2023-05-24T13:17:02.000Z</time>
      </trkpt>
      <trkpt lat="43.73335" lon="3.55337">
        <ele>104.59999847412</ele>
        <time>2023-05-24T13:17:06.000Z</time>
      </trkpt>
      <trkpt lat="43.73336" lon="3.55332">
        <ele>104.80000305176</ele>
        <time>2023-05-24T13:17:09.000Z</time>
      </trkpt>
      <trkpt lat="43.73336" lon="3.55329">
        <ele>104.80000305176</ele>
        <time>2023-05-24T13:17:11.000Z</time>
      </trkpt>
      <trkpt lat="43.73337" lon="3.55325">
        <ele>104.80000305176</ele>
        <time>2023-05-24T13:17:15.000Z</time>
      </trkpt>
      <trkpt lat="43.73337" lon="3.55324">
        <ele>105</ele>
        <time>2023-05-24T13:17:16.000Z</time>
      </trkpt>
      <trkpt lat="43.7334" lon="3.55317">
        <ele>105</ele>
        <time>2023-05-24T13:17:22.000Z</time>
      </trkpt>
      <trkpt lat="43.73342" lon="3.55312">
        <ele>105</ele>
        <time>2023-05-24T13:17:27.000Z</time>
      </trkpt>
      <trkpt lat="43.73346" lon="3.55303">
        <ele>105.19999694824</ele>
        <time>2023-05-24T13:17:34.000Z</time>
      </trkpt>
      <trkpt lat="43.73349" lon="3.55296">
        <ele>105.19999694824</ele>
        <time>2023-05-24T13:17:40.000Z</time>
      </trkpt>
      <trkpt lat="43.7335" lon="3.55295">
        <ele>105.19999694824</ele>
        <time>2023-05-24T13:17:41.000Z</time>
      </trkpt>
      <trkpt lat="43.7335" lon="3.55291">
        <ele>105.40000152588</ele>
        <time>2023-05-24T13:17:44.000Z</time>
      </trkpt>
      <trkpt lat="43.73349" lon="3.5529">
        <ele>105.40000152588</ele>
        <time>2023-05-24T13:17:45.000Z</time>
      </trkpt>
      <trkpt lat="43.73349" lon="3.55289">
        <ele>105.40000152588</ele>
        <time>2023-05-24T13:17:47.000Z</time>
      </trkpt>
      <trkpt lat="43.73351" lon="3.55285">
        <ele>105.40000152588</ele>
        <time>2023-05-24T13:17:50.000Z</time>
      </trkpt>
      <trkpt lat="43.73356" lon="3.5528">
        <ele>105.59999847412</ele>
        <time>2023-05-24T13:17:54.000Z</time>
      </trkpt>
      <trkpt lat="43.73356" lon="3.55279">
        <ele>105.59999847412</ele>
        <time>2023-05-24T13:17:55.000Z</time>
      </trkpt>
      <trkpt lat="43.73358" lon="3.55274">
        <ele>105.59999847412</ele>
        <time>2023-05-24T13:17:59.000Z</time>
      </trkpt>
      <trkpt lat="43.73362" lon="3.5527">
        <ele>105.80000305176</ele>
        <time>2023-05-24T13:18:04.000Z</time>
      </trkpt>
      <trkpt lat="43.73364" lon="3.55267">
        <ele>105.80000305176</ele>
        <time>2023-05-24T13:18:07.000Z</time>
      </trkpt>
      <trkpt lat="43.73365" lon="3.55266">
        <ele>105.80000305176</ele>
        <time>2023-05-24T13:18:08.000Z</time>
      </trkpt>
      <trkpt lat="43.73365" lon="3.55263">
        <ele>105.80000305176</ele>
        <time>2023-05-24T13:18:10.000Z</time>
      </trkpt>
      <trkpt lat="43.73366" lon="3.5526">
        <ele>106</ele>
        <time>2023-05-24T13:18:17.000Z</time>
      </trkpt>
      <trkpt lat="43.73365" lon="3.55259">
        <ele>106.19999694824</ele>
        <time>2023-05-24T13:18:18.000Z</time>
      </trkpt>
      <trkpt lat="43.73368" lon="3.55256">
        <ele>106.19999694824</ele>
        <time>2023-05-24T13:18:23.000Z</time>
      </trkpt>
      <trkpt lat="43.7337" lon="3.55248">
        <ele>106.19999694824</ele>
        <time>2023-05-24T13:18:31.000Z</time>
      </trkpt>
      <trkpt lat="43.73371" lon="3.55236">
        <ele>106.59999847412</ele>
        <time>2023-05-24T13:18:40.000Z</time>
      </trkpt>
      <trkpt lat="43.73371" lon="3.55234">
        <ele>106.59999847412</ele>
        <time>2023-05-24T13:18:46.000Z</time>
      </trkpt>
      <trkpt lat="43.73369" lon="3.55232">
        <ele>106.40000152588</ele>
        <time>2023-05-24T13:18:56.000Z</time>
      </trkpt>
      <trkpt lat="43.7337" lon="3.55231">
        <ele>106.40000152588</ele>
        <time>2023-05-24T13:19:06.000Z</time>
      </trkpt>
      <trkpt lat="43.7337" lon="3.55231">
        <ele>106.59999847412</ele>
        <time>2023-05-24T13:19:16.000Z</time>
      </trkpt>
      <trkpt lat="43.7337" lon="3.55231">
        <ele>106.59999847412</ele>
        <time>2023-05-24T13:19:17.000Z</time>
      </trkpt>
    </trkseg>
  </trk>
</gpx>